<?xml version='1.0' encoding='UTF-8'?><gpx version="1.1" creator="JPX - https://github.com/jenetics/jpx" xmlns="http://www.topografix.com/GPX/1/1"><trk><trkseg><trkpt lat="45.6614682" lon="11.6111928"><ele>58.0</ele><time>2026-05-02T07:40:59.071Z</time></trkpt><trkpt lat="45.6614734" lon="11.6113267"><ele>58.0</ele><time>2026-05-02T07:41:01.071Z</time></trkpt><trkpt lat="45.6614738" lon="11.6114634"><ele>58.0</ele><time>2026-05-02T07:41:03.072Z</time></trkpt><trkpt lat="45.6614716" lon="11.6116"><ele>58.0</ele><time>2026-05-02T07:41:05.071Z</time></trkpt><trkpt lat="45.6614457" lon="11.6117327"><ele>58.0</ele><time>2026-05-02T07:41:07.072Z</time></trkpt><trkpt lat="45.6614583" lon="11.6118568"><ele>58.0</ele><time>2026-05-02T07:41:09.071Z</time></trkpt><trkpt lat="45.6614968" lon="11.6119846"><ele>58.0</ele><time>2026-05-02T07:41:11.071Z</time></trkpt><trkpt lat="45.6615051" lon="11.6121193"><ele>58.0</ele><time>2026-05-02T07:41:13.072Z</time></trkpt><trkpt lat="45.6614924" lon="11.6122562"><ele>58.0</ele><time>2026-05-02T07:41:15.072Z</time></trkpt><trkpt lat="45.6614932" lon="11.6123965"><ele>58.0</ele><time>2026-05-02T07:41:17.071Z</time></trkpt><trkpt lat="45.6614949" lon="11.6125388"><ele>58.0</ele><time>2026-05-02T07:41:19.072Z</time></trkpt><trkpt lat="45.6614933" lon="11.6126831"><ele>58.0</ele><time>2026-05-02T07:41:21.072Z</time></trkpt><trkpt lat="45.6614957" lon="11.612827"><ele>58.0</ele><time>2026-05-02T07:41:23.071Z</time></trkpt><trkpt lat="45.6615014" lon="11.6129668"><ele>58.0</ele><time>2026-05-02T07:41:25.071Z</time></trkpt><trkpt lat="45.661502" lon="11.6131025"><ele>58.0</ele><time>2026-05-02T07:41:27.072Z</time></trkpt><trkpt lat="45.6615083" lon="11.6132355"><ele>58.166666666666664</ele><time>2026-05-02T07:41:29.072Z</time></trkpt><trkpt lat="45.6615092" lon="11.613359"><ele>58.33333333333333</ele><time>2026-05-02T07:41:31.072Z</time></trkpt><trkpt lat="45.6614281" lon="11.6134143"><ele>58.5</ele><time>2026-05-02T07:41:34.072Z</time></trkpt><trkpt lat="45.6613596" lon="11.613323"><ele>58.66666666666667</ele><time>2026-05-02T07:41:36.072Z</time></trkpt><trkpt lat="45.6613136" lon="11.6132562"><ele>58.833333333333336</ele><time>2026-05-02T07:41:38.072Z</time></trkpt><trkpt lat="45.6612406" lon="11.613237"><ele>59.0</ele><time>2026-05-02T07:41:41.073Z</time></trkpt><trkpt lat="45.6612034" lon="11.6133172"><ele>59.0</ele><time>2026-05-02T07:41:43.073Z</time></trkpt><trkpt lat="45.6611491" lon="11.6134238"><ele>59.00000000000001</ele><time>2026-05-02T07:41:46.073Z</time></trkpt><trkpt lat="45.6610932" lon="11.6135185"><ele>59.00000000000001</ele><time>2026-05-02T07:41:49.073Z</time></trkpt><trkpt lat="45.6611272" lon="11.6136181"><ele>59.0</ele><time>2026-05-02T07:41:51.073Z</time></trkpt><trkpt lat="45.6612092" lon="11.6137063"><ele>59.0</ele><time>2026-05-02T07:41:53.073Z</time></trkpt><trkpt lat="45.6613003" lon="11.6138028"><ele>59.0</ele><time>2026-05-02T07:41:55.073Z</time></trkpt><trkpt lat="45.661381" lon="11.6139191"><ele>59.00000000000001</ele><time>2026-05-02T07:41:57.073Z</time></trkpt><trkpt lat="45.661428" lon="11.6140486"><ele>59.00000000000001</ele><time>2026-05-02T07:41:59.073Z</time></trkpt><trkpt lat="45.6615014" lon="11.6141355"><ele>59.0</ele><time>2026-05-02T07:42:01.073Z</time></trkpt><trkpt lat="45.6615433" lon="11.6142615"><ele>59.0</ele><time>2026-05-02T07:42:03.073Z</time></trkpt><trkpt lat="45.6615457" lon="11.614403"><ele>58.6</ele><time>2026-05-02T07:42:05.073Z</time></trkpt><trkpt lat="45.6615406" lon="11.614579"><ele>58.2</ele><time>2026-05-02T07:42:07.073Z</time></trkpt><trkpt lat="45.6615393" lon="11.614688"><ele>57.800000000000004</ele><time>2026-05-02T07:42:08.073Z</time></trkpt><trkpt lat="45.6615357" lon="11.6148024"><ele>57.400000000000006</ele><time>2026-05-02T07:42:09.073Z</time></trkpt><trkpt lat="45.6615322" lon="11.6149025"><ele>57.0</ele><time>2026-05-02T07:42:10.073Z</time></trkpt><trkpt lat="45.6615352" lon="11.6150666"><ele>57.0</ele><time>2026-05-02T07:42:12.073Z</time></trkpt><trkpt lat="45.6615322" lon="11.6152288"><ele>57.0</ele><time>2026-05-02T07:42:14.073Z</time></trkpt><trkpt lat="45.6615397" lon="11.6153877"><ele>57.0</ele><time>2026-05-02T07:42:16.072Z</time></trkpt><trkpt lat="45.661545" lon="11.6155467"><ele>57.0</ele><time>2026-05-02T07:42:18.073Z</time></trkpt><trkpt lat="45.6615459" lon="11.6157091"><ele>57.0</ele><time>2026-05-02T07:42:20.073Z</time></trkpt><trkpt lat="45.661546" lon="11.6158745"><ele>56.75</ele><time>2026-05-02T07:42:22.073Z</time></trkpt><trkpt lat="45.6615454" lon="11.6160382"><ele>56.5</ele><time>2026-05-02T07:42:24.073Z</time></trkpt><trkpt lat="45.6615494" lon="11.6162033"><ele>56.25</ele><time>2026-05-02T07:42:26.072Z</time></trkpt><trkpt lat="45.6615549" lon="11.6163639"><ele>56.0</ele><time>2026-05-02T07:42:28.073Z</time></trkpt><trkpt lat="45.6615582" lon="11.6165249"><ele>56.0</ele><time>2026-05-02T07:42:30.073Z</time></trkpt><trkpt lat="45.6615633" lon="11.616691"><ele>56.0</ele><time>2026-05-02T07:42:32.073Z</time></trkpt><trkpt lat="45.6615602" lon="11.6168565"><ele>56.0</ele><time>2026-05-02T07:42:34.072Z</time></trkpt><trkpt lat="45.6615641" lon="11.6170183"><ele>56.0</ele><time>2026-05-02T07:42:36.073Z</time></trkpt><trkpt lat="45.6615672" lon="11.617174"><ele>56.199999999999996</ele><time>2026-05-02T07:42:38.073Z</time></trkpt><trkpt lat="45.6615675" lon="11.6173305"><ele>56.39999999999999</ele><time>2026-05-02T07:42:40.073Z</time></trkpt><trkpt lat="45.6615709" lon="11.6174973"><ele>56.6</ele><time>2026-05-02T07:42:42.073Z</time></trkpt><trkpt lat="45.6615866" lon="11.6176512"><ele>56.8</ele><time>2026-05-02T07:42:44.073Z</time></trkpt><trkpt lat="45.6615963" lon="11.6177905"><ele>57.0</ele><time>2026-05-02T07:42:46.073Z</time></trkpt><trkpt lat="45.6615983" lon="11.617931"><ele>57.0</ele><time>2026-05-02T07:42:48.073Z</time></trkpt><trkpt lat="45.6615947" lon="11.6180775"><ele>57.0</ele><time>2026-05-02T07:42:50.073Z</time></trkpt><trkpt lat="45.6615988" lon="11.6182309"><ele>57.0</ele><time>2026-05-02T07:42:52.074Z</time></trkpt><trkpt lat="45.6616" lon="11.6183778"><ele>57.0</ele><time>2026-05-02T07:42:54.073Z</time></trkpt><trkpt lat="45.6616101" lon="11.6185302"><ele>57.0</ele><time>2026-05-02T07:42:56.074Z</time></trkpt><trkpt lat="45.6616113" lon="11.6186825"><ele>57.0</ele><time>2026-05-02T07:42:58.074Z</time></trkpt><trkpt lat="45.6616032" lon="11.618831"><ele>57.0</ele><time>2026-05-02T07:43:00.074Z</time></trkpt><trkpt lat="45.6615922" lon="11.6189969"><ele>57.0</ele><time>2026-05-02T07:43:02.074Z</time></trkpt><trkpt lat="45.6615912" lon="11.6191678"><ele>57.0</ele><time>2026-05-02T07:43:04.073Z</time></trkpt><trkpt lat="45.6615944" lon="11.6193341"><ele>57.2</ele><time>2026-05-02T07:43:06.074Z</time></trkpt><trkpt lat="45.6615948" lon="11.6194878"><ele>57.400000000000006</ele><time>2026-05-02T07:43:08.074Z</time></trkpt><trkpt lat="45.6615986" lon="11.6196347"><ele>57.599999999999994</ele><time>2026-05-02T07:43:10.073Z</time></trkpt><trkpt lat="45.6616024" lon="11.6197731"><ele>57.8</ele><time>2026-05-02T07:43:12.074Z</time></trkpt><trkpt lat="45.6616063" lon="11.6199048"><ele>58.0</ele><time>2026-05-02T07:43:14.074Z</time></trkpt><trkpt lat="45.6615802" lon="11.6200134"><ele>58.0</ele><time>2026-05-02T07:43:16.074Z</time></trkpt><trkpt lat="45.6615162" lon="11.6201209"><ele>58.0</ele><time>2026-05-02T07:43:18.074Z</time></trkpt><trkpt lat="45.6615544" lon="11.6202318"><ele>58.0</ele><time>2026-05-02T07:43:20.074Z</time></trkpt><trkpt lat="45.661608" lon="11.6203541"><ele>58.0</ele><time>2026-05-02T07:43:22.073Z</time></trkpt><trkpt lat="45.6616062" lon="11.6204995"><ele>58.0</ele><time>2026-05-02T07:43:24.074Z</time></trkpt><trkpt lat="45.6616109" lon="11.6206412"><ele>58.0</ele><time>2026-05-02T07:43:26.074Z</time></trkpt><trkpt lat="45.6616158" lon="11.6207979"><ele>58.0</ele><time>2026-05-02T07:43:28.073Z</time></trkpt><trkpt lat="45.6616119" lon="11.6209535"><ele>58.0</ele><time>2026-05-02T07:43:30.074Z</time></trkpt><trkpt lat="45.6616131" lon="11.6211085"><ele>58.0</ele><time>2026-05-02T07:43:32.074Z</time></trkpt><trkpt lat="45.6616166" lon="11.6212672"><ele>58.0</ele><time>2026-05-02T07:43:34.074Z</time></trkpt><trkpt lat="45.6616153" lon="11.6214252"><ele>57.8</ele><time>2026-05-02T07:43:36.073Z</time></trkpt><trkpt lat="45.6616144" lon="11.6215806"><ele>57.599999999999994</ele><time>2026-05-02T07:43:38.074Z</time></trkpt><trkpt lat="45.6616128" lon="11.6217323"><ele>57.400000000000006</ele><time>2026-05-02T07:43:40.074Z</time></trkpt><trkpt lat="45.6616136" lon="11.6218827"><ele>57.2</ele><time>2026-05-02T07:43:42.074Z</time></trkpt><trkpt lat="45.6616181" lon="11.6220324"><ele>57.0</ele><time>2026-05-02T07:43:44.074Z</time></trkpt><trkpt lat="45.6616183" lon="11.622181"><ele>57.0</ele><time>2026-05-02T07:43:46.074Z</time></trkpt><trkpt lat="45.661622" lon="11.6223298"><ele>57.0</ele><time>2026-05-02T07:43:48.073Z</time></trkpt><trkpt lat="45.6616333" lon="11.6224801"><ele>57.0</ele><time>2026-05-02T07:43:50.073Z</time></trkpt><trkpt lat="45.6616459" lon="11.6226313"><ele>57.0</ele><time>2026-05-02T07:43:52.074Z</time></trkpt><trkpt lat="45.6616502" lon="11.6227805"><ele>57.0</ele><time>2026-05-02T07:43:54.073Z</time></trkpt><trkpt lat="45.6616519" lon="11.6229261"><ele>57.0</ele><time>2026-05-02T07:43:56.074Z</time></trkpt><trkpt lat="45.661657" lon="11.6230708"><ele>57.0</ele><time>2026-05-02T07:43:58.074Z</time></trkpt><trkpt lat="45.6616621" lon="11.6232134"><ele>57.0</ele><time>2026-05-02T07:44:00.075Z</time></trkpt><trkpt lat="45.6616638" lon="11.6233597"><ele>57.0</ele><time>2026-05-02T07:44:02.075Z</time></trkpt><trkpt lat="45.6616463" lon="11.623505"><ele>57.0</ele><time>2026-05-02T07:44:04.075Z</time></trkpt><trkpt lat="45.6616423" lon="11.6236516"><ele>56.6</ele><time>2026-05-02T07:44:06.075Z</time></trkpt><trkpt lat="45.6616502" lon="11.6237866"><ele>56.2</ele><time>2026-05-02T07:44:08.075Z</time></trkpt><trkpt lat="45.661657" lon="11.6239261"><ele>55.8</ele><time>2026-05-02T07:44:10.074Z</time></trkpt><trkpt lat="45.6616654" lon="11.624077"><ele>55.4</ele><time>2026-05-02T07:44:12.075Z</time></trkpt><trkpt lat="45.6616663" lon="11.6242244"><ele>55.0</ele><time>2026-05-02T07:44:14.074Z</time></trkpt><trkpt lat="45.6616739" lon="11.6243717"><ele>55.2</ele><time>2026-05-02T07:44:16.074Z</time></trkpt><trkpt lat="45.6616766" lon="11.6245233"><ele>55.4</ele><time>2026-05-02T07:44:18.075Z</time></trkpt><trkpt lat="45.661674" lon="11.6246639"><ele>55.599999999999994</ele><time>2026-05-02T07:44:20.075Z</time></trkpt><trkpt lat="45.6616815" lon="11.624808"><ele>55.8</ele><time>2026-05-02T07:44:22.075Z</time></trkpt><trkpt lat="45.6616972" lon="11.6249464"><ele>56.0</ele><time>2026-05-02T07:44:24.075Z</time></trkpt><trkpt lat="45.6617133" lon="11.6250997"><ele>56.0</ele><time>2026-05-02T07:44:26.075Z</time></trkpt><trkpt lat="45.6617157" lon="11.6252398"><ele>55.99999999999999</ele><time>2026-05-02T07:44:28.074Z</time></trkpt><trkpt lat="45.6617174" lon="11.6253843"><ele>55.99999999999999</ele><time>2026-05-02T07:44:30.075Z</time></trkpt><trkpt lat="45.6617293" lon="11.6255322"><ele>56.0</ele><time>2026-05-02T07:44:32.075Z</time></trkpt><trkpt lat="45.6617329" lon="11.6256728"><ele>56.0</ele><time>2026-05-02T07:44:34.074Z</time></trkpt><trkpt lat="45.6617353" lon="11.6258098"><ele>56.199999999999996</ele><time>2026-05-02T07:44:36.075Z</time></trkpt><trkpt lat="45.6617363" lon="11.6259563"><ele>56.39999999999999</ele><time>2026-05-02T07:44:38.075Z</time></trkpt><trkpt lat="45.6617417" lon="11.6261013"><ele>56.6</ele><time>2026-05-02T07:44:40.074Z</time></trkpt><trkpt lat="45.6617488" lon="11.6262431"><ele>56.8</ele><time>2026-05-02T07:44:42.075Z</time></trkpt><trkpt lat="45.6617435" lon="11.6263936"><ele>57.0</ele><time>2026-05-02T07:44:44.075Z</time></trkpt><trkpt lat="45.6617482" lon="11.6265483"><ele>57.0</ele><time>2026-05-02T07:44:46.074Z</time></trkpt><trkpt lat="45.6617516" lon="11.6267022"><ele>57.0</ele><time>2026-05-02T07:44:48.075Z</time></trkpt><trkpt lat="45.6617612" lon="11.6268554"><ele>57.0</ele><time>2026-05-02T07:44:50.075Z</time></trkpt><trkpt lat="45.6617646" lon="11.6270064"><ele>57.0</ele><time>2026-05-02T07:44:52.074Z</time></trkpt><trkpt lat="45.6617651" lon="11.6271619"><ele>57.0</ele><time>2026-05-02T07:44:54.074Z</time></trkpt><trkpt lat="45.6617687" lon="11.6273126"><ele>57.0</ele><time>2026-05-02T07:44:56.075Z</time></trkpt><trkpt lat="45.6617712" lon="11.6274665"><ele>57.0</ele><time>2026-05-02T07:44:58.075Z</time></trkpt><trkpt lat="45.6617723" lon="11.6276139"><ele>57.0</ele><time>2026-05-02T07:45:00.075Z</time></trkpt><trkpt lat="45.6617788" lon="11.627763"><ele>57.0</ele><time>2026-05-02T07:45:02.075Z</time></trkpt><trkpt lat="45.6617831" lon="11.6279139"><ele>57.0</ele><time>2026-05-02T07:45:04.075Z</time></trkpt><trkpt lat="45.6617831" lon="11.6280617"><ele>57.0</ele><time>2026-05-02T07:45:06.076Z</time></trkpt><trkpt lat="45.6617852" lon="11.6282112"><ele>57.0</ele><time>2026-05-02T07:45:08.076Z</time></trkpt><trkpt lat="45.661788" lon="11.6283605"><ele>57.0</ele><time>2026-05-02T07:45:10.076Z</time></trkpt><trkpt lat="45.6617958" lon="11.628516"><ele>57.0</ele><time>2026-05-02T07:45:12.076Z</time></trkpt><trkpt lat="45.6618077" lon="11.6286738"><ele>57.0</ele><time>2026-05-02T07:45:14.076Z</time></trkpt><trkpt lat="45.6618155" lon="11.6288217"><ele>57.0</ele><time>2026-05-02T07:45:16.076Z</time></trkpt><trkpt lat="45.6618208" lon="11.6289695"><ele>57.0</ele><time>2026-05-02T07:45:18.076Z</time></trkpt><trkpt lat="45.6618183" lon="11.6291059"><ele>57.0</ele><time>2026-05-02T07:45:20.075Z</time></trkpt><trkpt lat="45.6618208" lon="11.6292542"><ele>57.0</ele><time>2026-05-02T07:45:22.076Z</time></trkpt><trkpt lat="45.6618264" lon="11.6294052"><ele>57.0</ele><time>2026-05-02T07:45:24.075Z</time></trkpt><trkpt lat="45.6618308" lon="11.6295545"><ele>56.6</ele><time>2026-05-02T07:45:26.076Z</time></trkpt><trkpt lat="45.6618393" lon="11.6296986"><ele>56.2</ele><time>2026-05-02T07:45:28.076Z</time></trkpt><trkpt lat="45.6618483" lon="11.6298427"><ele>55.8</ele><time>2026-05-02T07:45:30.076Z</time></trkpt><trkpt lat="45.6618531" lon="11.6299876"><ele>55.4</ele><time>2026-05-02T07:45:32.075Z</time></trkpt><trkpt lat="45.6618611" lon="11.6301439"><ele>55.0</ele><time>2026-05-02T07:45:34.076Z</time></trkpt><trkpt lat="45.6618688" lon="11.6302964"><ele>55.2</ele><time>2026-05-02T07:45:36.076Z</time></trkpt><trkpt lat="45.6618682" lon="11.63045"><ele>55.4</ele><time>2026-05-02T07:45:38.075Z</time></trkpt><trkpt lat="45.6618724" lon="11.6306046"><ele>55.599999999999994</ele><time>2026-05-02T07:45:40.076Z</time></trkpt><trkpt lat="45.6618756" lon="11.630758"><ele>55.8</ele><time>2026-05-02T07:45:42.075Z</time></trkpt><trkpt lat="45.6618794" lon="11.6309143"><ele>56.0</ele><time>2026-05-02T07:45:44.076Z</time></trkpt><trkpt lat="45.6618887" lon="11.6310708"><ele>56.0</ele><time>2026-05-02T07:45:46.076Z</time></trkpt><trkpt lat="45.6618946" lon="11.6312278"><ele>55.99999999999999</ele><time>2026-05-02T07:45:48.076Z</time></trkpt><trkpt lat="45.6618924" lon="11.6313875"><ele>55.99999999999999</ele><time>2026-05-02T07:45:50.076Z</time></trkpt><trkpt lat="45.6618942" lon="11.6315467"><ele>56.0</ele><time>2026-05-02T07:45:52.076Z</time></trkpt><trkpt lat="45.6619029" lon="11.6317072"><ele>56.0</ele><time>2026-05-02T07:45:54.076Z</time></trkpt><trkpt lat="45.6619076" lon="11.6318729"><ele>56.4</ele><time>2026-05-02T07:45:56.076Z</time></trkpt><trkpt lat="45.661908" lon="11.6320275"><ele>56.8</ele><time>2026-05-02T07:45:58.075Z</time></trkpt><trkpt lat="45.6619155" lon="11.6321834"><ele>57.199999999999996</ele><time>2026-05-02T07:46:00.075Z</time></trkpt><trkpt lat="45.6619193" lon="11.6323402"><ele>57.599999999999994</ele><time>2026-05-02T07:46:02.075Z</time></trkpt><trkpt lat="45.6619242" lon="11.6324897"><ele>58.0</ele><time>2026-05-02T07:46:04.076Z</time></trkpt><trkpt lat="45.6619276" lon="11.6326326"><ele>57.99999999999999</ele><time>2026-05-02T07:46:06.077Z</time></trkpt><trkpt lat="45.6619285" lon="11.632775"><ele>58.0</ele><time>2026-05-02T07:46:08.077Z</time></trkpt><trkpt lat="45.6619293" lon="11.6329052"><ele>58.0</ele><time>2026-05-02T07:46:10.076Z</time></trkpt><trkpt lat="45.6619555" lon="11.6330216"><ele>58.0</ele><time>2026-05-02T07:46:12.077Z</time></trkpt><trkpt lat="45.6620089" lon="11.633119"><ele>57.99999999999999</ele><time>2026-05-02T07:46:14.077Z</time></trkpt><trkpt lat="45.6620401" lon="11.6332279"><ele>58.0</ele><time>2026-05-02T07:46:16.077Z</time></trkpt><trkpt lat="45.662101" lon="11.633335"><ele>58.0</ele><time>2026-05-02T07:46:18.077Z</time></trkpt><trkpt lat="45.6621786" lon="11.633433"><ele>58.0</ele><time>2026-05-02T07:46:20.076Z</time></trkpt><trkpt lat="45.6622566" lon="11.6335076"><ele>58.0</ele><time>2026-05-02T07:46:22.076Z</time></trkpt><trkpt lat="45.6623387" lon="11.6335903"><ele>58.0</ele><time>2026-05-02T07:46:24.077Z</time></trkpt><trkpt lat="45.6624202" lon="11.633662"><ele>58.0</ele><time>2026-05-02T07:46:26.077Z</time></trkpt><trkpt lat="45.662505" lon="11.633726"><ele>58.0</ele><time>2026-05-02T07:46:28.077Z</time></trkpt><trkpt lat="45.6625824" lon="11.6337848"><ele>58.0</ele><time>2026-05-02T07:46:30.077Z</time></trkpt><trkpt lat="45.6626473" lon="11.6338391"><ele>58.0</ele><time>2026-05-02T07:46:32.077Z</time></trkpt><trkpt lat="45.6627389" lon="11.6338917"><ele>58.0</ele><time>2026-05-02T07:46:34.076Z</time></trkpt><trkpt lat="45.6628282" lon="11.6339716"><ele>58.0</ele><time>2026-05-02T07:46:36.077Z</time></trkpt><trkpt lat="45.6629227" lon="11.6340297"><ele>58.0</ele><time>2026-05-02T07:46:38.077Z</time></trkpt><trkpt lat="45.6630096" lon="11.6341011"><ele>58.0</ele><time>2026-05-02T07:46:40.077Z</time></trkpt><trkpt lat="45.6630791" lon="11.6342031"><ele>58.0</ele><time>2026-05-02T07:46:42.077Z</time></trkpt><trkpt lat="45.6631546" lon="11.6342982"><ele>58.0</ele><time>2026-05-02T07:46:44.077Z</time></trkpt><trkpt lat="45.66323" lon="11.6344075"><ele>58.0</ele><time>2026-05-02T07:46:46.076Z</time></trkpt><trkpt lat="45.6632905" lon="11.6345122"><ele>58.2</ele><time>2026-05-02T07:46:48.077Z</time></trkpt><trkpt lat="45.6633668" lon="11.6346055"><ele>58.4</ele><time>2026-05-02T07:46:50.076Z</time></trkpt><trkpt lat="45.6634556" lon="11.634695"><ele>58.60000000000001</ele><time>2026-05-02T07:46:52.077Z</time></trkpt><trkpt lat="45.6635314" lon="11.6347949"><ele>58.800000000000004</ele><time>2026-05-02T07:46:54.077Z</time></trkpt><trkpt lat="45.6636178" lon="11.634865"><ele>59.0</ele><time>2026-05-02T07:46:56.076Z</time></trkpt><trkpt lat="45.6636983" lon="11.6349342"><ele>59.2</ele><time>2026-05-02T07:46:58.077Z</time></trkpt><trkpt lat="45.6637799" lon="11.6350013"><ele>59.400000000000006</ele><time>2026-05-02T07:47:00.077Z</time></trkpt><trkpt lat="45.6638747" lon="11.6350697"><ele>59.6</ele><time>2026-05-02T07:47:02.077Z</time></trkpt><trkpt lat="45.6639623" lon="11.6351251"><ele>59.8</ele><time>2026-05-02T07:47:04.076Z</time></trkpt><trkpt lat="45.6640063" lon="11.6352179"><ele>60.0</ele><time>2026-05-02T07:47:06.077Z</time></trkpt><trkpt lat="45.6640553" lon="11.6353286"><ele>60.0</ele><time>2026-05-02T07:47:08.077Z</time></trkpt><trkpt lat="45.6641081" lon="11.6354121"><ele>60.0</ele><time>2026-05-02T07:47:10.077Z</time></trkpt><trkpt lat="45.6641551" lon="11.6355107"><ele>60.0</ele><time>2026-05-02T07:47:12.077Z</time></trkpt><trkpt lat="45.6641908" lon="11.6355997"><ele>60.0</ele><time>2026-05-02T07:47:14.078Z</time></trkpt><trkpt lat="45.6642553" lon="11.6356538"><ele>60.0</ele><time>2026-05-02T07:47:16.078Z</time></trkpt><trkpt lat="45.6643424" lon="11.6357041"><ele>60.0</ele><time>2026-05-02T07:47:18.078Z</time></trkpt><trkpt lat="45.6644262" lon="11.6357406"><ele>60.0</ele><time>2026-05-02T07:47:21.078Z</time></trkpt><trkpt lat="45.6644674" lon="11.6358104"><ele>60.0</ele><time>2026-05-02T07:47:23.078Z</time></trkpt><trkpt lat="45.6644641" lon="11.6359472"><ele>60.0</ele><time>2026-05-02T07:47:25.078Z</time></trkpt><trkpt lat="45.6644755" lon="11.6360798"><ele>60.0</ele><time>2026-05-02T07:47:27.078Z</time></trkpt><trkpt lat="45.664492" lon="11.636212"><ele>60.0</ele><time>2026-05-02T07:47:29.078Z</time></trkpt><trkpt lat="45.6645036" lon="11.6363511"><ele>60.0</ele><time>2026-05-02T07:47:31.078Z</time></trkpt><trkpt lat="45.6645089" lon="11.6365072"><ele>60.0</ele><time>2026-05-02T07:47:33.077Z</time></trkpt><trkpt lat="45.664523" lon="11.6366849"><ele>60.0</ele><time>2026-05-02T07:47:35.077Z</time></trkpt><trkpt lat="45.6645323" lon="11.6367757"><ele>60.0</ele><time>2026-05-02T07:47:36.078Z</time></trkpt><trkpt lat="45.6645503" lon="11.6369437"><ele>60.0</ele><time>2026-05-02T07:47:38.078Z</time></trkpt><trkpt lat="45.6645672" lon="11.6371006"><ele>60.0</ele><time>2026-05-02T07:47:40.077Z</time></trkpt><trkpt lat="45.6645791" lon="11.6372647"><ele>59.5</ele><time>2026-05-02T07:47:42.078Z</time></trkpt><trkpt lat="45.6645782" lon="11.6374334"><ele>59.0</ele><time>2026-05-02T07:47:44.077Z</time></trkpt><trkpt lat="45.6645792" lon="11.6375956"><ele>58.5</ele><time>2026-05-02T07:47:46.077Z</time></trkpt><trkpt lat="45.6645604" lon="11.6377607"><ele>58.0</ele><time>2026-05-02T07:47:48.078Z</time></trkpt><trkpt lat="45.6645243" lon="11.6379211"><ele>58.0</ele><time>2026-05-02T07:47:50.078Z</time></trkpt><trkpt lat="45.6644721" lon="11.6380744"><ele>58.0</ele><time>2026-05-02T07:47:52.078Z</time></trkpt><trkpt lat="45.6644139" lon="11.6382219"><ele>58.0</ele><time>2026-05-02T07:47:54.077Z</time></trkpt><trkpt lat="45.6643576" lon="11.6383616"><ele>58.0</ele><time>2026-05-02T07:47:56.078Z</time></trkpt><trkpt lat="45.6643014" lon="11.6384932"><ele>57.8</ele><time>2026-05-02T07:47:58.078Z</time></trkpt><trkpt lat="45.6642506" lon="11.6386351"><ele>57.599999999999994</ele><time>2026-05-02T07:48:00.078Z</time></trkpt><trkpt lat="45.6642068" lon="11.6387833"><ele>57.400000000000006</ele><time>2026-05-02T07:48:02.078Z</time></trkpt><trkpt lat="45.6641643" lon="11.6389261"><ele>57.2</ele><time>2026-05-02T07:48:04.077Z</time></trkpt><trkpt lat="45.6641274" lon="11.6390759"><ele>57.0</ele><time>2026-05-02T07:48:06.078Z</time></trkpt><trkpt lat="45.6640947" lon="11.6392269"><ele>57.0</ele><time>2026-05-02T07:48:08.079Z</time></trkpt><trkpt lat="45.6640612" lon="11.6393785"><ele>57.0</ele><time>2026-05-02T07:48:10.078Z</time></trkpt><trkpt lat="45.6640261" lon="11.6395291"><ele>57.0</ele><time>2026-05-02T07:48:12.078Z</time></trkpt><trkpt lat="45.6639905" lon="11.6396769"><ele>57.0</ele><time>2026-05-02T07:48:14.077Z</time></trkpt><trkpt lat="45.6639557" lon="11.6398284"><ele>57.0</ele><time>2026-05-02T07:48:16.078Z</time></trkpt><trkpt lat="45.6639202" lon="11.6399751"><ele>57.0</ele><time>2026-05-02T07:48:18.078Z</time></trkpt><trkpt lat="45.6638886" lon="11.6401287"><ele>57.0</ele><time>2026-05-02T07:48:20.079Z</time></trkpt><trkpt lat="45.6638578" lon="11.6402804"><ele>57.0</ele><time>2026-05-02T07:48:22.078Z</time></trkpt><trkpt lat="45.6638239" lon="11.6404284"><ele>57.0</ele><time>2026-05-02T07:48:24.079Z</time></trkpt><trkpt lat="45.6637879" lon="11.6405789"><ele>57.0</ele><time>2026-05-02T07:48:26.078Z</time></trkpt><trkpt lat="45.6637575" lon="11.6407311"><ele>57.2</ele><time>2026-05-02T07:48:28.079Z</time></trkpt><trkpt lat="45.6637247" lon="11.6408788"><ele>57.400000000000006</ele><time>2026-05-02T07:48:30.079Z</time></trkpt><trkpt lat="45.6637132" lon="11.6410337"><ele>57.599999999999994</ele><time>2026-05-02T07:48:32.078Z</time></trkpt><trkpt lat="45.6637204" lon="11.6411942"><ele>57.8</ele><time>2026-05-02T07:48:34.079Z</time></trkpt><trkpt lat="45.6636985" lon="11.6413435"><ele>58.0</ele><time>2026-05-02T07:48:36.079Z</time></trkpt><trkpt lat="45.6636719" lon="11.6414809"><ele>58.2</ele><time>2026-05-02T07:48:38.079Z</time></trkpt><trkpt lat="45.6636392" lon="11.6416208"><ele>58.4</ele><time>2026-05-02T07:48:40.079Z</time></trkpt><trkpt lat="45.6636039" lon="11.6417671"><ele>58.60000000000001</ele><time>2026-05-02T07:48:42.078Z</time></trkpt><trkpt lat="45.6635735" lon="11.6419197"><ele>58.800000000000004</ele><time>2026-05-02T07:48:44.078Z</time></trkpt><trkpt lat="45.6635441" lon="11.6420664"><ele>59.0</ele><time>2026-05-02T07:48:46.079Z</time></trkpt><trkpt lat="45.6635121" lon="11.6422001"><ele>59.00000000000001</ele><time>2026-05-02T07:48:48.079Z</time></trkpt><trkpt lat="45.6634728" lon="11.6423153"><ele>59.0</ele><time>2026-05-02T07:48:50.079Z</time></trkpt><trkpt lat="45.6634582" lon="11.6424307"><ele>59.0</ele><time>2026-05-02T07:48:52.079Z</time></trkpt><trkpt lat="45.6634345" lon="11.6425288"><ele>59.0</ele><time>2026-05-02T07:48:54.079Z</time></trkpt><trkpt lat="45.6633956" lon="11.6426581"><ele>59.00000000000001</ele><time>2026-05-02T07:48:57.078Z</time></trkpt><trkpt lat="45.6633513" lon="11.6427746"><ele>59.0</ele><time>2026-05-02T07:48:59.078Z</time></trkpt><trkpt lat="45.6633079" lon="11.6428984"><ele>58.800000000000004</ele><time>2026-05-02T07:49:01.078Z</time></trkpt><trkpt lat="45.6632703" lon="11.6430228"><ele>58.60000000000001</ele><time>2026-05-02T07:49:03.079Z</time></trkpt><trkpt lat="45.6632471" lon="11.6431635"><ele>58.4</ele><time>2026-05-02T07:49:05.079Z</time></trkpt><trkpt lat="45.6632152" lon="11.6433071"><ele>58.2</ele><time>2026-05-02T07:49:07.079Z</time></trkpt><trkpt lat="45.6631796" lon="11.6434413"><ele>58.0</ele><time>2026-05-02T07:49:09.078Z</time></trkpt><trkpt lat="45.663146" lon="11.6435753"><ele>58.0</ele><time>2026-05-02T07:49:11.079Z</time></trkpt><trkpt lat="45.6631173" lon="11.6437258"><ele>58.0</ele><time>2026-05-02T07:49:13.078Z</time></trkpt><trkpt lat="45.6630851" lon="11.6438713"><ele>58.0</ele><time>2026-05-02T07:49:15.079Z</time></trkpt><trkpt lat="45.6630488" lon="11.6440116"><ele>58.0</ele><time>2026-05-02T07:49:17.079Z</time></trkpt><trkpt lat="45.6630167" lon="11.6441554"><ele>58.0</ele><time>2026-05-02T07:49:19.079Z</time></trkpt><trkpt lat="45.6629878" lon="11.6442933"><ele>58.0</ele><time>2026-05-02T07:49:21.078Z</time></trkpt><trkpt lat="45.6629576" lon="11.6444323"><ele>58.0</ele><time>2026-05-02T07:49:23.08Z</time></trkpt><trkpt lat="45.6629261" lon="11.6445725"><ele>58.0</ele><time>2026-05-02T07:49:25.08Z</time></trkpt><trkpt lat="45.662896" lon="11.6447055"><ele>58.0</ele><time>2026-05-02T07:49:27.079Z</time></trkpt><trkpt lat="45.662861" lon="11.6448337"><ele>58.0</ele><time>2026-05-02T07:49:29.08Z</time></trkpt><trkpt lat="45.662834" lon="11.6449721"><ele>58.0</ele><time>2026-05-02T07:49:31.08Z</time></trkpt><trkpt lat="45.6628004" lon="11.6451062"><ele>58.0</ele><time>2026-05-02T07:49:33.08Z</time></trkpt><trkpt lat="45.6627677" lon="11.6452397"><ele>58.0</ele><time>2026-05-02T07:49:35.079Z</time></trkpt><trkpt lat="45.6627403" lon="11.6453758"><ele>58.0</ele><time>2026-05-02T07:49:37.08Z</time></trkpt><trkpt lat="45.6626971" lon="11.6454876"><ele>58.0</ele><time>2026-05-02T07:49:39.079Z</time></trkpt><trkpt lat="45.6626371" lon="11.6455573"><ele>57.99999999999999</ele><time>2026-05-02T07:49:41.08Z</time></trkpt><trkpt lat="45.6625605" lon="11.6455943"><ele>58.0</ele><time>2026-05-02T07:49:43.079Z</time></trkpt><trkpt lat="45.6624748" lon="11.6456005"><ele>58.0</ele><time>2026-05-02T07:49:45.08Z</time></trkpt><trkpt lat="45.6623816" lon="11.6455622"><ele>58.0</ele><time>2026-05-02T07:49:47.08Z</time></trkpt><trkpt lat="45.662293" lon="11.645524"><ele>57.99999999999999</ele><time>2026-05-02T07:49:49.079Z</time></trkpt><trkpt lat="45.6622137" lon="11.6454843"><ele>58.0</ele><time>2026-05-02T07:49:51.08Z</time></trkpt><trkpt lat="45.6621336" lon="11.6454504"><ele>57.99999999999999</ele><time>2026-05-02T07:49:53.079Z</time></trkpt><trkpt lat="45.6620512" lon="11.6454191"><ele>58.0</ele><time>2026-05-02T07:49:55.079Z</time></trkpt><trkpt lat="45.6619719" lon="11.6453873"><ele>58.0</ele><time>2026-05-02T07:49:57.08Z</time></trkpt><trkpt lat="45.661892" lon="11.6453539"><ele>58.0</ele><time>2026-05-02T07:49:59.08Z</time></trkpt><trkpt lat="45.6618116" lon="11.645335"><ele>57.99999999999999</ele><time>2026-05-02T07:50:01.08Z</time></trkpt><trkpt lat="45.6617335" lon="11.6453055"><ele>58.0</ele><time>2026-05-02T07:50:03.079Z</time></trkpt><trkpt lat="45.6616567" lon="11.6452624"><ele>57.83333333333333</ele><time>2026-05-02T07:50:05.08Z</time></trkpt><trkpt lat="45.6615754" lon="11.6452297"><ele>57.666666666666664</ele><time>2026-05-02T07:50:07.08Z</time></trkpt><trkpt lat="45.6614972" lon="11.6451944"><ele>57.5</ele><time>2026-05-02T07:50:09.08Z</time></trkpt><trkpt lat="45.6614254" lon="11.6451611"><ele>57.33333333333333</ele><time>2026-05-02T07:50:11.08Z</time></trkpt><trkpt lat="45.6613542" lon="11.6451438"><ele>57.166666666666664</ele><time>2026-05-02T07:50:13.08Z</time></trkpt><trkpt lat="45.6612889" lon="11.64513"><ele>57.0</ele><time>2026-05-02T07:50:15.08Z</time></trkpt><trkpt lat="45.661203" lon="11.6451842"><ele>56.8</ele><time>2026-05-02T07:50:18.08Z</time></trkpt><trkpt lat="45.6611877" lon="11.6453143"><ele>56.6</ele><time>2026-05-02T07:50:20.079Z</time></trkpt><trkpt lat="45.661202" lon="11.6454526"><ele>56.39999999999999</ele><time>2026-05-02T07:50:22.079Z</time></trkpt><trkpt lat="45.6612094" lon="11.6455887"><ele>56.199999999999996</ele><time>2026-05-02T07:50:24.08Z</time></trkpt><trkpt lat="45.6612188" lon="11.6457297"><ele>56.0</ele><time>2026-05-02T07:50:26.081Z</time></trkpt><trkpt lat="45.6612264" lon="11.6458769"><ele>56.0</ele><time>2026-05-02T07:50:28.081Z</time></trkpt><trkpt lat="45.6612319" lon="11.6460283"><ele>55.99999999999999</ele><time>2026-05-02T07:50:30.081Z</time></trkpt><trkpt lat="45.6612364" lon="11.646179"><ele>55.99999999999999</ele><time>2026-05-02T07:50:32.081Z</time></trkpt><trkpt lat="45.6612427" lon="11.6463314"><ele>56.0</ele><time>2026-05-02T07:50:34.081Z</time></trkpt><trkpt lat="45.6612521" lon="11.6464842"><ele>56.0</ele><time>2026-05-02T07:50:36.081Z</time></trkpt><trkpt lat="45.6612558" lon="11.6466342"><ele>56.0</ele><time>2026-05-02T07:50:38.08Z</time></trkpt><trkpt lat="45.6612591" lon="11.6467892"><ele>55.99999999999999</ele><time>2026-05-02T07:50:40.081Z</time></trkpt><trkpt lat="45.6612627" lon="11.6469451"><ele>55.99999999999999</ele><time>2026-05-02T07:50:42.081Z</time></trkpt><trkpt lat="45.661272" lon="11.6471048"><ele>56.0</ele><time>2026-05-02T07:50:44.081Z</time></trkpt><trkpt lat="45.6612767" lon="11.6472639"><ele>56.0</ele><time>2026-05-02T07:50:46.081Z</time></trkpt><trkpt lat="45.6612825" lon="11.6474251"><ele>56.0</ele><time>2026-05-02T07:50:48.081Z</time></trkpt><trkpt lat="45.6612914" lon="11.64759"><ele>56.0</ele><time>2026-05-02T07:50:50.081Z</time></trkpt><trkpt lat="45.6613019" lon="11.6477541"><ele>56.0</ele><time>2026-05-02T07:50:52.08Z</time></trkpt><trkpt lat="45.6613078" lon="11.6479201"><ele>56.0</ele><time>2026-05-02T07:50:54.08Z</time></trkpt><trkpt lat="45.6613172" lon="11.6480843"><ele>56.25</ele><time>2026-05-02T07:50:56.081Z</time></trkpt><trkpt lat="45.6613254" lon="11.6482541"><ele>56.5</ele><time>2026-05-02T07:50:58.08Z</time></trkpt><trkpt lat="45.6613369" lon="11.6484143"><ele>56.75</ele><time>2026-05-02T07:51:00.081Z</time></trkpt><trkpt lat="45.661336" lon="11.6485762"><ele>57.0</ele><time>2026-05-02T07:51:02.081Z</time></trkpt><trkpt lat="45.6613418" lon="11.6487355"><ele>57.0</ele><time>2026-05-02T07:51:04.081Z</time></trkpt><trkpt lat="45.6613495" lon="11.6488955"><ele>57.0</ele><time>2026-05-02T07:51:06.081Z</time></trkpt><trkpt lat="45.6613576" lon="11.6490569"><ele>57.0</ele><time>2026-05-02T07:51:08.081Z</time></trkpt><trkpt lat="45.6613635" lon="11.6492171"><ele>57.0</ele><time>2026-05-02T07:51:10.081Z</time></trkpt><trkpt lat="45.6613679" lon="11.6493802"><ele>57.0</ele><time>2026-05-02T07:51:12.081Z</time></trkpt><trkpt lat="45.6613762" lon="11.6495384"><ele>57.0</ele><time>2026-05-02T07:51:14.081Z</time></trkpt><trkpt lat="45.6613774" lon="11.6496955"><ele>57.0</ele><time>2026-05-02T07:51:16.08Z</time></trkpt><trkpt lat="45.6613837" lon="11.6497865"><ele>57.0</ele><time>2026-05-02T07:51:17.081Z</time></trkpt><trkpt lat="45.6613963" lon="11.6499597"><ele>57.0</ele><time>2026-05-02T07:51:19.081Z</time></trkpt><trkpt lat="45.6614034" lon="11.65012"><ele>57.5</ele><time>2026-05-02T07:51:21.08Z</time></trkpt><trkpt lat="45.6614104" lon="11.6502942"><ele>58.0</ele><time>2026-05-02T07:51:23.08Z</time></trkpt><trkpt lat="45.6614203" lon="11.6504687"><ele>58.5</ele><time>2026-05-02T07:51:25.081Z</time></trkpt><trkpt lat="45.6614303" lon="11.6506333"><ele>59.0</ele><time>2026-05-02T07:51:27.08Z</time></trkpt><trkpt lat="45.6614366" lon="11.6507991"><ele>59.0</ele><time>2026-05-02T07:51:29.08Z</time></trkpt><trkpt lat="45.6614474" lon="11.6509673"><ele>59.0</ele><time>2026-05-02T07:51:31.082Z</time></trkpt><trkpt lat="45.6614558" lon="11.6511292"><ele>59.0</ele><time>2026-05-02T07:51:33.082Z</time></trkpt><trkpt lat="45.6614649" lon="11.6512883"><ele>59.0</ele><time>2026-05-02T07:51:35.082Z</time></trkpt><trkpt lat="45.6614734" lon="11.6514502"><ele>59.0</ele><time>2026-05-02T07:51:37.082Z</time></trkpt><trkpt lat="45.6614808" lon="11.6516051"><ele>59.00000000000001</ele><time>2026-05-02T07:51:39.082Z</time></trkpt><trkpt lat="45.6614861" lon="11.6517604"><ele>59.00000000000001</ele><time>2026-05-02T07:51:41.081Z</time></trkpt><trkpt lat="45.6614907" lon="11.6519136"><ele>59.0</ele><time>2026-05-02T07:51:43.082Z</time></trkpt><trkpt lat="45.6614991" lon="11.6520651"><ele>59.0</ele><time>2026-05-02T07:51:45.081Z</time></trkpt><trkpt lat="45.6615047" lon="11.6522183"><ele>59.0</ele><time>2026-05-02T07:51:47.082Z</time></trkpt><trkpt lat="45.6615067" lon="11.6523629"><ele>59.00000000000001</ele><time>2026-05-02T07:51:49.082Z</time></trkpt><trkpt lat="45.6615132" lon="11.6525001"><ele>59.00000000000001</ele><time>2026-05-02T07:51:51.082Z</time></trkpt><trkpt lat="45.6615205" lon="11.6526489"><ele>59.0</ele><time>2026-05-02T07:51:53.082Z</time></trkpt><trkpt lat="45.6615298" lon="11.6528013"><ele>59.0</ele><time>2026-05-02T07:51:55.082Z</time></trkpt><trkpt lat="45.6615372" lon="11.6529472"><ele>58.6</ele><time>2026-05-02T07:51:57.081Z</time></trkpt><trkpt lat="45.6615412" lon="11.6530907"><ele>58.2</ele><time>2026-05-02T07:51:59.082Z</time></trkpt><trkpt lat="45.661548" lon="11.65324"><ele>57.800000000000004</ele><time>2026-05-02T07:52:01.082Z</time></trkpt><trkpt lat="45.6615566" lon="11.6533832"><ele>57.400000000000006</ele><time>2026-05-02T07:52:03.082Z</time></trkpt><trkpt lat="45.6615641" lon="11.653528"><ele>57.0</ele><time>2026-05-02T07:52:05.082Z</time></trkpt><trkpt lat="45.6615716" lon="11.6536801"><ele>57.0</ele><time>2026-05-02T07:52:07.081Z</time></trkpt><trkpt lat="45.6615771" lon="11.653833"><ele>57.0</ele><time>2026-05-02T07:52:09.082Z</time></trkpt><trkpt lat="45.6615847" lon="11.6539872"><ele>57.0</ele><time>2026-05-02T07:52:11.082Z</time></trkpt><trkpt lat="45.6615896" lon="11.6541471"><ele>57.0</ele><time>2026-05-02T07:52:13.082Z</time></trkpt><trkpt lat="45.6615952" lon="11.6542915"><ele>57.0</ele><time>2026-05-02T07:52:15.082Z</time></trkpt><trkpt lat="45.6616051" lon="11.6544399"><ele>57.5</ele><time>2026-05-02T07:52:17.082Z</time></trkpt><trkpt lat="45.6616109" lon="11.654593"><ele>58.0</ele><time>2026-05-02T07:52:19.082Z</time></trkpt><trkpt lat="45.6616206" lon="11.654751"><ele>58.5</ele><time>2026-05-02T07:52:21.082Z</time></trkpt><trkpt lat="45.6616283" lon="11.6549224"><ele>59.0</ele><time>2026-05-02T07:52:23.082Z</time></trkpt><trkpt lat="45.6616356" lon="11.65509"><ele>59.0</ele><time>2026-05-02T07:52:25.082Z</time></trkpt><trkpt lat="45.6616417" lon="11.6552522"><ele>59.0</ele><time>2026-05-02T07:52:27.082Z</time></trkpt><trkpt lat="45.6616467" lon="11.6554143"><ele>59.0</ele><time>2026-05-02T07:52:29.082Z</time></trkpt><trkpt lat="45.6616523" lon="11.655576"><ele>59.0</ele><time>2026-05-02T07:52:31.082Z</time></trkpt><trkpt lat="45.6616574" lon="11.6557377"><ele>59.0</ele><time>2026-05-02T07:52:33.083Z</time></trkpt><trkpt lat="45.6616602" lon="11.6559014"><ele>59.0</ele><time>2026-05-02T07:52:35.083Z</time></trkpt><trkpt lat="45.6616651" lon="11.6560627"><ele>59.0</ele><time>2026-05-02T07:52:37.083Z</time></trkpt><trkpt lat="45.6616728" lon="11.6562236"><ele>59.0</ele><time>2026-05-02T07:52:39.083Z</time></trkpt><trkpt lat="45.6616827" lon="11.6563836"><ele>59.0</ele><time>2026-05-02T07:52:41.082Z</time></trkpt><trkpt lat="45.66169" lon="11.6565445"><ele>59.00000000000001</ele><time>2026-05-02T07:52:43.082Z</time></trkpt><trkpt lat="45.6616925" lon="11.6567051"><ele>59.00000000000001</ele><time>2026-05-02T07:52:45.082Z</time></trkpt><trkpt lat="45.6616963" lon="11.6568646"><ele>59.0</ele><time>2026-05-02T07:52:47.082Z</time></trkpt><trkpt lat="45.6617062" lon="11.6570243"><ele>59.0</ele><time>2026-05-02T07:52:49.084Z</time></trkpt><trkpt lat="45.6617164" lon="11.6571828"><ele>59.0</ele><time>2026-05-02T07:52:51.083Z</time></trkpt><trkpt lat="45.6617224" lon="11.6573352"><ele>59.00000000000001</ele><time>2026-05-02T07:52:53.082Z</time></trkpt><trkpt lat="45.6617266" lon="11.657482"><ele>59.00000000000001</ele><time>2026-05-02T07:52:55.082Z</time></trkpt><trkpt lat="45.6617351" lon="11.6576426"><ele>59.0</ele><time>2026-05-02T07:52:57.082Z</time></trkpt><trkpt lat="45.6617412" lon="11.6578019"><ele>59.0</ele><time>2026-05-02T07:52:59.083Z</time></trkpt><trkpt lat="45.6617479" lon="11.6579595"><ele>59.0</ele><time>2026-05-02T07:53:01.083Z</time></trkpt><trkpt lat="45.6617564" lon="11.6581167"><ele>59.00000000000001</ele><time>2026-05-02T07:53:03.083Z</time></trkpt><trkpt lat="45.6617635" lon="11.6582758"><ele>59.00000000000001</ele><time>2026-05-02T07:53:05.083Z</time></trkpt><trkpt lat="45.6617695" lon="11.6584371"><ele>59.0</ele><time>2026-05-02T07:53:07.083Z</time></trkpt><trkpt lat="45.6617753" lon="11.6585965"><ele>59.0</ele><time>2026-05-02T07:53:09.082Z</time></trkpt><trkpt lat="45.6617803" lon="11.6587574"><ele>59.0</ele><time>2026-05-02T07:53:11.082Z</time></trkpt><trkpt lat="45.6617882" lon="11.6589132"><ele>59.00000000000001</ele><time>2026-05-02T07:53:13.083Z</time></trkpt><trkpt lat="45.6617933" lon="11.6590657"><ele>59.00000000000001</ele><time>2026-05-02T07:53:15.083Z</time></trkpt><trkpt lat="45.6618034" lon="11.6592279"><ele>59.0</ele><time>2026-05-02T07:53:17.083Z</time></trkpt><trkpt lat="45.6618104" lon="11.6593897"><ele>59.0</ele><time>2026-05-02T07:53:19.083Z</time></trkpt><trkpt lat="45.6618192" lon="11.6595519"><ele>58.75</ele><time>2026-05-02T07:53:21.083Z</time></trkpt><trkpt lat="45.6618292" lon="11.6597196"><ele>58.5</ele><time>2026-05-02T07:53:23.083Z</time></trkpt><trkpt lat="45.6618348" lon="11.6598879"><ele>58.25</ele><time>2026-05-02T07:53:25.083Z</time></trkpt><trkpt lat="45.661838" lon="11.6600533"><ele>58.0</ele><time>2026-05-02T07:53:27.083Z</time></trkpt><trkpt lat="45.6618429" lon="11.6602138"><ele>58.25</ele><time>2026-05-02T07:53:29.083Z</time></trkpt><trkpt lat="45.6618477" lon="11.6603795"><ele>58.5</ele><time>2026-05-02T07:53:31.082Z</time></trkpt><trkpt lat="45.6618555" lon="11.6605486"><ele>58.75</ele><time>2026-05-02T07:53:33.084Z</time></trkpt><trkpt lat="45.6618686" lon="11.6607135"><ele>59.0</ele><time>2026-05-02T07:53:35.084Z</time></trkpt><trkpt lat="45.6618767" lon="11.660877"><ele>59.0</ele><time>2026-05-02T07:53:37.084Z</time></trkpt><trkpt lat="45.6618881" lon="11.6610474"><ele>59.0</ele><time>2026-05-02T07:53:39.083Z</time></trkpt><trkpt lat="45.6618982" lon="11.661218"><ele>59.0</ele><time>2026-05-02T07:53:41.084Z</time></trkpt><trkpt lat="45.6619017" lon="11.6613774"><ele>59.0</ele><time>2026-05-02T07:53:43.084Z</time></trkpt><trkpt lat="45.6619102" lon="11.6615339"><ele>59.0</ele><time>2026-05-02T07:53:45.084Z</time></trkpt><trkpt lat="45.6619139" lon="11.6616913"><ele>59.00000000000001</ele><time>2026-05-02T07:53:47.083Z</time></trkpt><trkpt lat="45.661923" lon="11.6618511"><ele>59.00000000000001</ele><time>2026-05-02T07:53:49.084Z</time></trkpt><trkpt lat="45.6619295" lon="11.6620072"><ele>59.0</ele><time>2026-05-02T07:53:51.083Z</time></trkpt><trkpt lat="45.6619349" lon="11.66216"><ele>59.0</ele><time>2026-05-02T07:53:53.084Z</time></trkpt><trkpt lat="45.6619358" lon="11.6623143"><ele>58.25</ele><time>2026-05-02T07:53:55.084Z</time></trkpt><trkpt lat="45.6619402" lon="11.6624806"><ele>57.5</ele><time>2026-05-02T07:53:57.084Z</time></trkpt><trkpt lat="45.6619514" lon="11.6626531"><ele>56.75</ele><time>2026-05-02T07:53:59.084Z</time></trkpt><trkpt lat="45.6619592" lon="11.6628108"><ele>56.0</ele><time>2026-05-02T07:54:01.084Z</time></trkpt><trkpt lat="45.661968" lon="11.6629756"><ele>56.199999999999996</ele><time>2026-05-02T07:54:03.084Z</time></trkpt><trkpt lat="45.6619743" lon="11.6631378"><ele>56.39999999999999</ele><time>2026-05-02T07:54:05.084Z</time></trkpt><trkpt lat="45.6619826" lon="11.6632978"><ele>56.6</ele><time>2026-05-02T07:54:07.084Z</time></trkpt><trkpt lat="45.661988" lon="11.6634541"><ele>56.8</ele><time>2026-05-02T07:54:09.083Z</time></trkpt><trkpt lat="45.6619928" lon="11.6636124"><ele>57.0</ele><time>2026-05-02T07:54:11.083Z</time></trkpt><trkpt lat="45.6620012" lon="11.66378"><ele>57.0</ele><time>2026-05-02T07:54:13.084Z</time></trkpt><trkpt lat="45.6620088" lon="11.6639484"><ele>57.0</ele><time>2026-05-02T07:54:15.084Z</time></trkpt><trkpt lat="45.6620149" lon="11.6641101"><ele>57.0</ele><time>2026-05-02T07:54:17.083Z</time></trkpt><trkpt lat="45.6620142" lon="11.6642747"><ele>57.0</ele><time>2026-05-02T07:54:19.084Z</time></trkpt><trkpt lat="45.662003" lon="11.6644289"><ele>57.0</ele><time>2026-05-02T07:54:21.083Z</time></trkpt><trkpt lat="45.6619505" lon="11.6645553"><ele>57.0</ele><time>2026-05-02T07:54:23.084Z</time></trkpt><trkpt lat="45.6618418" lon="11.6646089"><ele>57.0</ele><time>2026-05-02T07:54:25.083Z</time></trkpt><trkpt lat="45.6617208" lon="11.6646264"><ele>57.0</ele><time>2026-05-02T07:54:27.084Z</time></trkpt><trkpt lat="45.6616222" lon="11.6646962"><ele>57.0</ele><time>2026-05-02T07:54:29.084Z</time></trkpt><trkpt lat="45.661584" lon="11.664774"><ele>57.0</ele><time>2026-05-02T07:54:30.085Z</time></trkpt><trkpt lat="45.66157" lon="11.664873"><ele>57.0</ele><time>2026-05-02T07:54:31.084Z</time></trkpt><trkpt lat="45.6615829" lon="11.6649732"><ele>57.0</ele><time>2026-05-02T07:54:32.083Z</time></trkpt><trkpt lat="45.6616074" lon="11.6650627"><ele>57.0</ele><time>2026-05-02T07:54:33.085Z</time></trkpt><trkpt lat="45.6616433" lon="11.6652271"><ele>57.0</ele><time>2026-05-02T07:54:35.085Z</time></trkpt><trkpt lat="45.6616271" lon="11.6654035"><ele>57.400000000000006</ele><time>2026-05-02T07:54:37.085Z</time></trkpt><trkpt lat="45.6616081" lon="11.6654933"><ele>57.800000000000004</ele><time>2026-05-02T07:54:38.085Z</time></trkpt><trkpt lat="45.6615929" lon="11.6655813"><ele>58.2</ele><time>2026-05-02T07:54:39.084Z</time></trkpt><trkpt lat="45.6615635" lon="11.6657543"><ele>58.6</ele><time>2026-05-02T07:54:41.085Z</time></trkpt><trkpt lat="45.6615352" lon="11.6659266"><ele>59.0</ele><time>2026-05-02T07:54:43.085Z</time></trkpt><trkpt lat="45.6615049" lon="11.6660995"><ele>58.71428571428571</ele><time>2026-05-02T07:54:45.085Z</time></trkpt><trkpt lat="45.6614784" lon="11.6662737"><ele>58.42857142857143</ele><time>2026-05-02T07:54:47.085Z</time></trkpt><trkpt lat="45.661465" lon="11.6663622"><ele>58.14285714285714</ele><time>2026-05-02T07:54:48.084Z</time></trkpt><trkpt lat="45.6614505" lon="11.6664525"><ele>57.857142857142854</ele><time>2026-05-02T07:54:49.084Z</time></trkpt><trkpt lat="45.6614367" lon="11.666543"><ele>57.57142857142857</ele><time>2026-05-02T07:54:50.085Z</time></trkpt><trkpt lat="45.6614217" lon="11.6666339"><ele>57.285714285714285</ele><time>2026-05-02T07:54:51.085Z</time></trkpt><trkpt lat="45.6614069" lon="11.6667259"><ele>57.0</ele><time>2026-05-02T07:54:52.085Z</time></trkpt><trkpt lat="45.6613935" lon="11.6668186"><ele>57.0</ele><time>2026-05-02T07:54:53.085Z</time></trkpt><trkpt lat="45.6613803" lon="11.6669082"><ele>57.0</ele><time>2026-05-02T07:54:54.085Z</time></trkpt><trkpt lat="45.6613508" lon="11.6670804"><ele>57.0</ele><time>2026-05-02T07:54:56.084Z</time></trkpt><trkpt lat="45.6613241" lon="11.6672523"><ele>57.0</ele><time>2026-05-02T07:54:58.085Z</time></trkpt><trkpt lat="45.661297" lon="11.6674167"><ele>57.0</ele><time>2026-05-02T07:55:00.085Z</time></trkpt><trkpt lat="45.6612723" lon="11.6675787"><ele>57.0</ele><time>2026-05-02T07:55:02.085Z</time></trkpt><trkpt lat="45.6612455" lon="11.6677337"><ele>57.0</ele><time>2026-05-02T07:55:04.084Z</time></trkpt><trkpt lat="45.6612197" lon="11.6678924"><ele>57.0</ele><time>2026-05-02T07:55:06.085Z</time></trkpt><trkpt lat="45.6611977" lon="11.6680513"><ele>57.0</ele><time>2026-05-02T07:55:08.085Z</time></trkpt><trkpt lat="45.6611889" lon="11.6682103"><ele>57.0</ele><time>2026-05-02T07:55:10.084Z</time></trkpt><trkpt lat="45.6612027" lon="11.6683661"><ele>57.0</ele><time>2026-05-02T07:55:12.085Z</time></trkpt><trkpt lat="45.6612329" lon="11.6685164"><ele>57.0</ele><time>2026-05-02T07:55:14.085Z</time></trkpt><trkpt lat="45.6612762" lon="11.6686552"><ele>57.0</ele><time>2026-05-02T07:55:16.085Z</time></trkpt><trkpt lat="45.6613449" lon="11.6687818"><ele>57.0</ele><time>2026-05-02T07:55:18.085Z</time></trkpt><trkpt lat="45.6614149" lon="11.6689"><ele>57.0</ele><time>2026-05-02T07:55:20.084Z</time></trkpt><trkpt lat="45.6615012" lon="11.6689928"><ele>57.0</ele><time>2026-05-02T07:55:22.084Z</time></trkpt><trkpt lat="45.6615991" lon="11.6690692"><ele>57.0</ele><time>2026-05-02T07:55:24.085Z</time></trkpt><trkpt lat="45.6617002" lon="11.6691242"><ele>57.0</ele><time>2026-05-02T07:55:26.085Z</time></trkpt><trkpt lat="45.6618091" lon="11.6691521"><ele>57.0</ele><time>2026-05-02T07:55:28.084Z</time></trkpt><trkpt lat="45.6619087" lon="11.6691781"><ele>56.8</ele><time>2026-05-02T07:55:30.085Z</time></trkpt><trkpt lat="45.6620164" lon="11.6692021"><ele>56.6</ele><time>2026-05-02T07:55:32.084Z</time></trkpt><trkpt lat="45.6621257" lon="11.6692205"><ele>56.39999999999999</ele><time>2026-05-02T07:55:34.085Z</time></trkpt><trkpt lat="45.6622372" lon="11.6692382"><ele>56.199999999999996</ele><time>2026-05-02T07:55:36.085Z</time></trkpt><trkpt lat="45.6623469" lon="11.669255"><ele>56.0</ele><time>2026-05-02T07:55:38.085Z</time></trkpt><trkpt lat="45.6624506" lon="11.6692772"><ele>56.0</ele><time>2026-05-02T07:55:40.086Z</time></trkpt><trkpt lat="45.6625535" lon="11.6692983"><ele>55.99999999999999</ele><time>2026-05-02T07:55:42.086Z</time></trkpt><trkpt lat="45.6626554" lon="11.6693178"><ele>55.99999999999999</ele><time>2026-05-02T07:55:44.085Z</time></trkpt><trkpt lat="45.6627551" lon="11.6693442"><ele>56.0</ele><time>2026-05-02T07:55:46.085Z</time></trkpt><trkpt lat="45.6628573" lon="11.6693631"><ele>56.0</ele><time>2026-05-02T07:55:48.086Z</time></trkpt><trkpt lat="45.6629557" lon="11.6693857"><ele>56.4</ele><time>2026-05-02T07:55:50.086Z</time></trkpt><trkpt lat="45.6630565" lon="11.6694145"><ele>56.8</ele><time>2026-05-02T07:55:52.086Z</time></trkpt><trkpt lat="45.6631477" lon="11.6694544"><ele>57.199999999999996</ele><time>2026-05-02T07:55:54.086Z</time></trkpt><trkpt lat="45.6632348" lon="11.6695013"><ele>57.599999999999994</ele><time>2026-05-02T07:55:56.086Z</time></trkpt><trkpt lat="45.6633118" lon="11.6695952"><ele>58.0</ele><time>2026-05-02T07:55:58.086Z</time></trkpt><trkpt lat="45.663359" lon="11.6697372"><ele>58.0</ele><time>2026-05-02T07:56:00.085Z</time></trkpt><trkpt lat="45.6633808" lon="11.6698823"><ele>58.0</ele><time>2026-05-02T07:56:02.086Z</time></trkpt><trkpt lat="45.6633728" lon="11.6700348"><ele>58.0</ele><time>2026-05-02T07:56:04.085Z</time></trkpt><trkpt lat="45.6633663" lon="11.670188"><ele>58.0</ele><time>2026-05-02T07:56:06.086Z</time></trkpt><trkpt lat="45.6633591" lon="11.6703385"><ele>58.0</ele><time>2026-05-02T07:56:08.085Z</time></trkpt><trkpt lat="45.6633601" lon="11.670498"><ele>57.599999999999994</ele><time>2026-05-02T07:56:10.086Z</time></trkpt><trkpt lat="45.6633681" lon="11.6706493"><ele>57.199999999999996</ele><time>2026-05-02T07:56:12.086Z</time></trkpt><trkpt lat="45.6633804" lon="11.6708077"><ele>56.8</ele><time>2026-05-02T07:56:14.085Z</time></trkpt><trkpt lat="45.6633953" lon="11.6709728"><ele>56.4</ele><time>2026-05-02T07:56:16.086Z</time></trkpt><trkpt lat="45.6634053" lon="11.6711317"><ele>56.0</ele><time>2026-05-02T07:56:18.086Z</time></trkpt><trkpt lat="45.6634165" lon="11.6712853"><ele>56.0</ele><time>2026-05-02T07:56:20.086Z</time></trkpt><trkpt lat="45.6634302" lon="11.6714333"><ele>55.99999999999999</ele><time>2026-05-02T07:56:22.085Z</time></trkpt><trkpt lat="45.6634478" lon="11.6715825"><ele>55.99999999999999</ele><time>2026-05-02T07:56:24.086Z</time></trkpt><trkpt lat="45.6634636" lon="11.6717212"><ele>56.0</ele><time>2026-05-02T07:56:26.086Z</time></trkpt><trkpt lat="45.6634681" lon="11.6718703"><ele>56.0</ele><time>2026-05-02T07:56:28.087Z</time></trkpt><trkpt lat="45.6634853" lon="11.6720293"><ele>56.199999999999996</ele><time>2026-05-02T07:56:30.086Z</time></trkpt><trkpt lat="45.6634962" lon="11.6721783"><ele>56.39999999999999</ele><time>2026-05-02T07:56:32.086Z</time></trkpt><trkpt lat="45.6635023" lon="11.6723308"><ele>56.6</ele><time>2026-05-02T07:56:34.086Z</time></trkpt><trkpt lat="45.6635118" lon="11.6724905"><ele>56.8</ele><time>2026-05-02T07:56:36.086Z</time></trkpt><trkpt lat="45.6635289" lon="11.6726603"><ele>57.0</ele><time>2026-05-02T07:56:38.086Z</time></trkpt><trkpt lat="45.6635492" lon="11.6728284"><ele>57.25</ele><time>2026-05-02T07:56:40.087Z</time></trkpt><trkpt lat="45.6635728" lon="11.6729869"><ele>57.5</ele><time>2026-05-02T07:56:42.087Z</time></trkpt><trkpt lat="45.6635973" lon="11.6731457"><ele>57.75</ele><time>2026-05-02T07:56:44.087Z</time></trkpt><trkpt lat="45.6636249" lon="11.6733053"><ele>58.0</ele><time>2026-05-02T07:56:46.087Z</time></trkpt><trkpt lat="45.6636556" lon="11.673463"><ele>58.2</ele><time>2026-05-02T07:56:48.086Z</time></trkpt><trkpt lat="45.6636873" lon="11.6736163"><ele>58.4</ele><time>2026-05-02T07:56:50.087Z</time></trkpt><trkpt lat="45.6637208" lon="11.6737699"><ele>58.60000000000001</ele><time>2026-05-02T07:56:52.087Z</time></trkpt><trkpt lat="45.6637552" lon="11.6739196"><ele>58.800000000000004</ele><time>2026-05-02T07:56:54.087Z</time></trkpt><trkpt lat="45.663789" lon="11.6740707"><ele>59.0</ele><time>2026-05-02T07:56:56.086Z</time></trkpt><trkpt lat="45.6638259" lon="11.6742214"><ele>59.0</ele><time>2026-05-02T07:56:58.087Z</time></trkpt><trkpt lat="45.6638611" lon="11.6743726"><ele>59.0</ele><time>2026-05-02T07:57:00.087Z</time></trkpt><trkpt lat="45.6638941" lon="11.6745286"><ele>59.0</ele><time>2026-05-02T07:57:02.086Z</time></trkpt><trkpt lat="45.6639266" lon="11.6746824"><ele>59.0</ele><time>2026-05-02T07:57:04.087Z</time></trkpt><trkpt lat="45.663957" lon="11.6748396"><ele>58.75</ele><time>2026-05-02T07:57:06.087Z</time></trkpt><trkpt lat="45.6639934" lon="11.674993"><ele>58.5</ele><time>2026-05-02T07:57:08.087Z</time></trkpt><trkpt lat="45.6640304" lon="11.6751407"><ele>58.25</ele><time>2026-05-02T07:57:10.087Z</time></trkpt><trkpt lat="45.6640629" lon="11.6752923"><ele>58.0</ele><time>2026-05-02T07:57:12.087Z</time></trkpt><trkpt lat="45.6640941" lon="11.6754533"><ele>58.0</ele><time>2026-05-02T07:57:14.087Z</time></trkpt><trkpt lat="45.6641266" lon="11.6756053"><ele>58.0</ele><time>2026-05-02T07:57:16.086Z</time></trkpt><trkpt lat="45.6641588" lon="11.6757561"><ele>58.0</ele><time>2026-05-02T07:57:18.087Z</time></trkpt><trkpt lat="45.6641925" lon="11.6759075"><ele>58.0</ele><time>2026-05-02T07:57:20.086Z</time></trkpt><trkpt lat="45.6642221" lon="11.6760506"><ele>58.0</ele><time>2026-05-02T07:57:22.086Z</time></trkpt><trkpt lat="45.6642601" lon="11.676193"><ele>58.0</ele><time>2026-05-02T07:57:24.087Z</time></trkpt><trkpt lat="45.6642977" lon="11.6763512"><ele>58.0</ele><time>2026-05-02T07:57:26.087Z</time></trkpt><trkpt lat="45.6643334" lon="11.6765089"><ele>58.0</ele><time>2026-05-02T07:57:28.086Z</time></trkpt><trkpt lat="45.6643672" lon="11.6766577"><ele>58.0</ele><time>2026-05-02T07:57:30.087Z</time></trkpt><trkpt lat="45.6644002" lon="11.6768096"><ele>58.0</ele><time>2026-05-02T07:57:32.086Z</time></trkpt><trkpt lat="45.6644302" lon="11.6769601"><ele>58.0</ele><time>2026-05-02T07:57:34.086Z</time></trkpt><trkpt lat="45.6644598" lon="11.6771122"><ele>58.0</ele><time>2026-05-02T07:57:36.086Z</time></trkpt><trkpt lat="45.664492" lon="11.6772695"><ele>58.0</ele><time>2026-05-02T07:57:38.087Z</time></trkpt><trkpt lat="45.6645179" lon="11.6774214"><ele>58.0</ele><time>2026-05-02T07:57:40.088Z</time></trkpt><trkpt lat="45.6645441" lon="11.6775744"><ele>58.0</ele><time>2026-05-02T07:57:42.087Z</time></trkpt><trkpt lat="45.6645748" lon="11.6777273"><ele>58.0</ele><time>2026-05-02T07:57:44.087Z</time></trkpt><trkpt lat="45.6646037" lon="11.6778839"><ele>58.0</ele><time>2026-05-02T07:57:46.088Z</time></trkpt><trkpt lat="45.6646256" lon="11.6780435"><ele>58.0</ele><time>2026-05-02T07:57:48.088Z</time></trkpt><trkpt lat="45.6646548" lon="11.6781971"><ele>58.0</ele><time>2026-05-02T07:57:50.088Z</time></trkpt><trkpt lat="45.6646852" lon="11.6783508"><ele>57.75</ele><time>2026-05-02T07:57:52.088Z</time></trkpt><trkpt lat="45.6647145" lon="11.6785025"><ele>57.5</ele><time>2026-05-02T07:57:54.087Z</time></trkpt><trkpt lat="45.6647426" lon="11.6786611"><ele>57.25</ele><time>2026-05-02T07:57:56.088Z</time></trkpt><trkpt lat="45.6647684" lon="11.6788229"><ele>57.0</ele><time>2026-05-02T07:57:58.087Z</time></trkpt><trkpt lat="45.6647941" lon="11.6789843"><ele>57.0</ele><time>2026-05-02T07:58:00.088Z</time></trkpt><trkpt lat="45.6648259" lon="11.6791328"><ele>57.0</ele><time>2026-05-02T07:58:02.088Z</time></trkpt><trkpt lat="45.6648517" lon="11.6792793"><ele>57.0</ele><time>2026-05-02T07:58:04.088Z</time></trkpt><trkpt lat="45.6648767" lon="11.6794265"><ele>57.0</ele><time>2026-05-02T07:58:06.087Z</time></trkpt><trkpt lat="45.6648991" lon="11.6795675"><ele>57.0</ele><time>2026-05-02T07:58:08.088Z</time></trkpt><trkpt lat="45.6649163" lon="11.6797165"><ele>57.2</ele><time>2026-05-02T07:58:10.088Z</time></trkpt><trkpt lat="45.6649215" lon="11.6798693"><ele>57.400000000000006</ele><time>2026-05-02T07:58:12.088Z</time></trkpt><trkpt lat="45.6649114" lon="11.6800193"><ele>57.599999999999994</ele><time>2026-05-02T07:58:14.088Z</time></trkpt><trkpt lat="45.6648855" lon="11.6801673"><ele>57.8</ele><time>2026-05-02T07:58:16.088Z</time></trkpt><trkpt lat="45.6648563" lon="11.6803204"><ele>58.0</ele><time>2026-05-02T07:58:18.088Z</time></trkpt><trkpt lat="45.6648385" lon="11.6804069"><ele>58.0</ele><time>2026-05-02T07:58:19.088Z</time></trkpt><trkpt lat="45.664819" lon="11.6804951"><ele>58.0</ele><time>2026-05-02T07:58:20.088Z</time></trkpt><trkpt lat="45.6647806" lon="11.6806639"><ele>58.0</ele><time>2026-05-02T07:58:22.088Z</time></trkpt><trkpt lat="45.6647437" lon="11.6808289"><ele>58.0</ele><time>2026-05-02T07:58:24.088Z</time></trkpt><trkpt lat="45.6647099" lon="11.6809948"><ele>58.0</ele><time>2026-05-02T07:58:26.088Z</time></trkpt><trkpt lat="45.6646756" lon="11.6811626"><ele>57.75</ele><time>2026-05-02T07:58:28.087Z</time></trkpt><trkpt lat="45.6646454" lon="11.6813332"><ele>57.5</ele><time>2026-05-02T07:58:30.087Z</time></trkpt><trkpt lat="45.6646294" lon="11.6815052"><ele>57.25</ele><time>2026-05-02T07:58:32.088Z</time></trkpt><trkpt lat="45.6646309" lon="11.6816725"><ele>57.0</ele><time>2026-05-02T07:58:34.089Z</time></trkpt><trkpt lat="45.6646244" lon="11.6818304"><ele>56.6</ele><time>2026-05-02T07:58:36.088Z</time></trkpt><trkpt lat="45.6646172" lon="11.6819918"><ele>56.2</ele><time>2026-05-02T07:58:38.087Z</time></trkpt><trkpt lat="45.6646145" lon="11.6821477"><ele>55.8</ele><time>2026-05-02T07:58:40.088Z</time></trkpt><trkpt lat="45.6646129" lon="11.6822966"><ele>55.4</ele><time>2026-05-02T07:58:42.088Z</time></trkpt><trkpt lat="45.6646106" lon="11.6824304"><ele>55.0</ele><time>2026-05-02T07:58:44.088Z</time></trkpt><trkpt lat="45.6646117" lon="11.6825325"><ele>54.99999999999999</ele><time>2026-05-02T07:58:46.089Z</time></trkpt><trkpt lat="45.664615" lon="11.6826438"><ele>55.0</ele><time>2026-05-02T07:58:49.089Z</time></trkpt><trkpt lat="45.6645967" lon="11.6827575"><ele>55.0</ele><time>2026-05-02T07:58:54.089Z</time></trkpt><trkpt lat="45.6645377" lon="11.6828436"><ele>55.0</ele><time>2026-05-02T07:58:58.089Z</time></trkpt><trkpt lat="45.6644858" lon="11.6829354"><ele>54.99999999999999</ele><time>2026-05-02T07:59:01.089Z</time></trkpt><trkpt lat="45.6645459" lon="11.6829932"><ele>55.0</ele><time>2026-05-02T07:59:03.088Z</time></trkpt><trkpt lat="45.6646353" lon="11.6830139"><ele>55.2</ele><time>2026-05-02T07:59:05.088Z</time></trkpt><trkpt lat="45.6647152" lon="11.6830246"><ele>55.4</ele><time>2026-05-02T07:59:07.089Z</time></trkpt><trkpt lat="45.6647987" lon="11.6830266"><ele>55.599999999999994</ele><time>2026-05-02T07:59:09.088Z</time></trkpt><trkpt lat="45.6648856" lon="11.6830322"><ele>55.8</ele><time>2026-05-02T07:59:11.089Z</time></trkpt><trkpt lat="45.6649926" lon="11.6830367"><ele>56.0</ele><time>2026-05-02T07:59:13.088Z</time></trkpt><trkpt lat="45.6650956" lon="11.6830397"><ele>56.0</ele><time>2026-05-02T07:59:15.088Z</time></trkpt><trkpt lat="45.6651912" lon="11.6830455"><ele>55.99999999999999</ele><time>2026-05-02T07:59:17.088Z</time></trkpt><trkpt lat="45.6652897" lon="11.6830501"><ele>55.99999999999999</ele><time>2026-05-02T07:59:19.089Z</time></trkpt><trkpt lat="45.6653854" lon="11.6830558"><ele>56.0</ele><time>2026-05-02T07:59:21.089Z</time></trkpt><trkpt lat="45.6654804" lon="11.683059"><ele>56.0</ele><time>2026-05-02T07:59:23.089Z</time></trkpt><trkpt lat="45.6655787" lon="11.683063"><ele>56.199999999999996</ele><time>2026-05-02T07:59:25.089Z</time></trkpt><trkpt lat="45.6656737" lon="11.6830625"><ele>56.39999999999999</ele><time>2026-05-02T07:59:27.089Z</time></trkpt><trkpt lat="45.6657738" lon="11.6830674"><ele>56.6</ele><time>2026-05-02T07:59:29.089Z</time></trkpt><trkpt lat="45.6658708" lon="11.6830752"><ele>56.8</ele><time>2026-05-02T07:59:31.088Z</time></trkpt><trkpt lat="45.665968" lon="11.6830789"><ele>57.0</ele><time>2026-05-02T07:59:33.089Z</time></trkpt><trkpt lat="45.6660635" lon="11.683084"><ele>57.2</ele><time>2026-05-02T07:59:35.089Z</time></trkpt><trkpt lat="45.6661631" lon="11.6830875"><ele>57.400000000000006</ele><time>2026-05-02T07:59:37.089Z</time></trkpt><trkpt lat="45.6662573" lon="11.6830921"><ele>57.599999999999994</ele><time>2026-05-02T07:59:39.088Z</time></trkpt><trkpt lat="45.6663536" lon="11.683099"><ele>57.8</ele><time>2026-05-02T07:59:41.088Z</time></trkpt><trkpt lat="45.6664515" lon="11.6831083"><ele>58.0</ele><time>2026-05-02T07:59:43.089Z</time></trkpt><trkpt lat="45.6665465" lon="11.6831123"><ele>58.0</ele><time>2026-05-02T07:59:45.089Z</time></trkpt><trkpt lat="45.6666424" lon="11.6831156"><ele>58.0</ele><time>2026-05-02T07:59:47.088Z</time></trkpt><trkpt lat="45.6667374" lon="11.6831222"><ele>58.0</ele><time>2026-05-02T07:59:49.089Z</time></trkpt><trkpt lat="45.6668269" lon="11.6831249"><ele>58.0</ele><time>2026-05-02T07:59:51.09Z</time></trkpt><trkpt lat="45.6669126" lon="11.6831176"><ele>58.0</ele><time>2026-05-02T07:59:53.09Z</time></trkpt><trkpt lat="45.6670088" lon="11.6831184"><ele>58.2</ele><time>2026-05-02T07:59:55.09Z</time></trkpt><trkpt lat="45.6670885" lon="11.6831015"><ele>58.4</ele><time>2026-05-02T07:59:57.09Z</time></trkpt><trkpt lat="45.6671963" lon="11.6831232"><ele>58.60000000000001</ele><time>2026-05-02T07:59:59.089Z</time></trkpt><trkpt lat="45.6672987" lon="11.6831381"><ele>58.800000000000004</ele><time>2026-05-02T08:00:01.09Z</time></trkpt><trkpt lat="45.6673961" lon="11.6831458"><ele>59.0</ele><time>2026-05-02T08:00:03.09Z</time></trkpt><trkpt lat="45.6674916" lon="11.6831492"><ele>59.0</ele><time>2026-05-02T08:00:05.09Z</time></trkpt><trkpt lat="45.6675879" lon="11.6831549"><ele>59.00000000000001</ele><time>2026-05-02T08:00:07.09Z</time></trkpt><trkpt lat="45.6676849" lon="11.6831641"><ele>59.00000000000001</ele><time>2026-05-02T08:00:09.09Z</time></trkpt><trkpt lat="45.6677846" lon="11.6831667"><ele>59.0</ele><time>2026-05-02T08:00:11.09Z</time></trkpt><trkpt lat="45.6678857" lon="11.6831718"><ele>59.0</ele><time>2026-05-02T08:00:13.09Z</time></trkpt><trkpt lat="45.6679868" lon="11.6831765"><ele>59.2</ele><time>2026-05-02T08:00:15.09Z</time></trkpt><trkpt lat="45.6680875" lon="11.6831813"><ele>59.400000000000006</ele><time>2026-05-02T08:00:17.09Z</time></trkpt><trkpt lat="45.6681892" lon="11.6831844"><ele>59.6</ele><time>2026-05-02T08:00:19.09Z</time></trkpt><trkpt lat="45.6682929" lon="11.6831885"><ele>59.8</ele><time>2026-05-02T08:00:21.09Z</time></trkpt><trkpt lat="45.6684009" lon="11.6831943"><ele>60.0</ele><time>2026-05-02T08:00:23.09Z</time></trkpt><trkpt lat="45.6685111" lon="11.6831971"><ele>59.6</ele><time>2026-05-02T08:00:25.089Z</time></trkpt><trkpt lat="45.6686226" lon="11.6832047"><ele>59.2</ele><time>2026-05-02T08:00:27.089Z</time></trkpt><trkpt lat="45.6687315" lon="11.6832063"><ele>58.8</ele><time>2026-05-02T08:00:29.09Z</time></trkpt><trkpt lat="45.6688365" lon="11.6832097"><ele>58.4</ele><time>2026-05-02T08:00:31.09Z</time></trkpt><trkpt lat="45.6689434" lon="11.6832109"><ele>58.0</ele><time>2026-05-02T08:00:33.09Z</time></trkpt><trkpt lat="45.6690507" lon="11.6832148"><ele>58.0</ele><time>2026-05-02T08:00:35.089Z</time></trkpt><trkpt lat="45.6691573" lon="11.683217"><ele>58.0</ele><time>2026-05-02T08:00:37.09Z</time></trkpt><trkpt lat="45.6692628" lon="11.6832203"><ele>58.0</ele><time>2026-05-02T08:00:39.091Z</time></trkpt><trkpt lat="45.669368" lon="11.6832216"><ele>58.0</ele><time>2026-05-02T08:00:41.09Z</time></trkpt><trkpt lat="45.6694733" lon="11.6832232"><ele>58.0</ele><time>2026-05-02T08:00:43.09Z</time></trkpt><trkpt lat="45.6695779" lon="11.6832264"><ele>58.2</ele><time>2026-05-02T08:00:45.09Z</time></trkpt><trkpt lat="45.6696841" lon="11.6832323"><ele>58.4</ele><time>2026-05-02T08:00:47.09Z</time></trkpt><trkpt lat="45.6697898" lon="11.6832279"><ele>58.60000000000001</ele><time>2026-05-02T08:00:49.089Z</time></trkpt><trkpt lat="45.6698916" lon="11.683217"><ele>58.800000000000004</ele><time>2026-05-02T08:00:51.09Z</time></trkpt><trkpt lat="45.6699937" lon="11.6832102"><ele>59.0</ele><time>2026-05-02T08:00:53.09Z</time></trkpt><trkpt lat="45.6700971" lon="11.6831972"><ele>59.0</ele><time>2026-05-02T08:00:55.09Z</time></trkpt><trkpt lat="45.6702039" lon="11.6831861"><ele>59.00000000000001</ele><time>2026-05-02T08:00:57.09Z</time></trkpt><trkpt lat="45.6703076" lon="11.6831753"><ele>59.00000000000001</ele><time>2026-05-02T08:00:59.091Z</time></trkpt><trkpt lat="45.670405" lon="11.6831497"><ele>59.0</ele><time>2026-05-02T08:01:01.091Z</time></trkpt><trkpt lat="45.6704944" lon="11.6831071"><ele>59.0</ele><time>2026-05-02T08:01:03.091Z</time></trkpt><trkpt lat="45.6705932" lon="11.6830779"><ele>59.400000000000006</ele><time>2026-05-02T08:01:05.091Z</time></trkpt><trkpt lat="45.6707052" lon="11.6830381"><ele>59.800000000000004</ele><time>2026-05-02T08:01:07.091Z</time></trkpt><trkpt lat="45.670807" lon="11.6830059"><ele>60.199999999999996</ele><time>2026-05-02T08:01:09.091Z</time></trkpt><trkpt lat="45.6709102" lon="11.6829698"><ele>60.599999999999994</ele><time>2026-05-02T08:01:11.09Z</time></trkpt><trkpt lat="45.6710137" lon="11.68294"><ele>61.0</ele><time>2026-05-02T08:01:13.091Z</time></trkpt><trkpt lat="45.6711143" lon="11.6829138"><ele>61.199999999999996</ele><time>2026-05-02T08:01:15.091Z</time></trkpt><trkpt lat="45.6712164" lon="11.6828838"><ele>61.39999999999999</ele><time>2026-05-02T08:01:17.09Z</time></trkpt><trkpt lat="45.6713226" lon="11.6828495"><ele>61.6</ele><time>2026-05-02T08:01:19.091Z</time></trkpt><trkpt lat="45.6714233" lon="11.6828196"><ele>61.8</ele><time>2026-05-02T08:01:21.091Z</time></trkpt><trkpt lat="45.671518" lon="11.6827973"><ele>62.0</ele><time>2026-05-02T08:01:23.091Z</time></trkpt><trkpt lat="45.6716115" lon="11.6827691"><ele>61.8</ele><time>2026-05-02T08:01:25.09Z</time></trkpt><trkpt lat="45.6717102" lon="11.6827369"><ele>61.6</ele><time>2026-05-02T08:01:27.091Z</time></trkpt><trkpt lat="45.6718061" lon="11.6827059"><ele>61.39999999999999</ele><time>2026-05-02T08:01:29.09Z</time></trkpt><trkpt lat="45.6719071" lon="11.682677"><ele>61.199999999999996</ele><time>2026-05-02T08:01:31.091Z</time></trkpt><trkpt lat="45.6720108" lon="11.6826529"><ele>61.0</ele><time>2026-05-02T08:01:33.09Z</time></trkpt><trkpt lat="45.6721105" lon="11.6826313"><ele>60.599999999999994</ele><time>2026-05-02T08:01:35.091Z</time></trkpt><trkpt lat="45.6722073" lon="11.6826029"><ele>60.199999999999996</ele><time>2026-05-02T08:01:37.091Z</time></trkpt><trkpt lat="45.6723079" lon="11.6825888"><ele>59.800000000000004</ele><time>2026-05-02T08:01:39.09Z</time></trkpt><trkpt lat="45.6724081" lon="11.6825712"><ele>59.400000000000006</ele><time>2026-05-02T08:01:41.09Z</time></trkpt><trkpt lat="45.672513" lon="11.6825537"><ele>59.0</ele><time>2026-05-02T08:01:43.091Z</time></trkpt><trkpt lat="45.6726191" lon="11.6825392"><ele>59.0</ele><time>2026-05-02T08:01:45.091Z</time></trkpt><trkpt lat="45.6727278" lon="11.6825247"><ele>59.00000000000001</ele><time>2026-05-02T08:01:47.091Z</time></trkpt><trkpt lat="45.6728359" lon="11.6825049"><ele>59.00000000000001</ele><time>2026-05-02T08:01:49.091Z</time></trkpt><trkpt lat="45.6729465" lon="11.6824939"><ele>59.0</ele><time>2026-05-02T08:01:51.09Z</time></trkpt><trkpt lat="45.6730583" lon="11.6824858"><ele>59.0</ele><time>2026-05-02T08:01:53.091Z</time></trkpt><trkpt lat="45.6731695" lon="11.682469"><ele>59.2</ele><time>2026-05-02T08:01:55.09Z</time></trkpt><trkpt lat="45.67328" lon="11.6824556"><ele>59.400000000000006</ele><time>2026-05-02T08:01:57.091Z</time></trkpt><trkpt lat="45.6733895" lon="11.6824419"><ele>59.6</ele><time>2026-05-02T08:01:59.091Z</time></trkpt><trkpt lat="45.6734953" lon="11.6824278"><ele>59.8</ele><time>2026-05-02T08:02:01.092Z</time></trkpt><trkpt lat="45.6735983" lon="11.6824175"><ele>60.0</ele><time>2026-05-02T08:02:03.092Z</time></trkpt><trkpt lat="45.6737017" lon="11.6824091"><ele>60.4</ele><time>2026-05-02T08:02:05.092Z</time></trkpt><trkpt lat="45.6738073" lon="11.6823991"><ele>60.8</ele><time>2026-05-02T08:02:07.092Z</time></trkpt><trkpt lat="45.6739112" lon="11.6823883"><ele>61.2</ele><time>2026-05-02T08:02:09.092Z</time></trkpt><trkpt lat="45.6740109" lon="11.6823794"><ele>61.6</ele><time>2026-05-02T08:02:11.092Z</time></trkpt><trkpt lat="45.6741116" lon="11.6823724"><ele>62.0</ele><time>2026-05-02T08:02:13.092Z</time></trkpt><trkpt lat="45.6742127" lon="11.6823658"><ele>62.0</ele><time>2026-05-02T08:02:15.092Z</time></trkpt><trkpt lat="45.6743134" lon="11.6823626"><ele>62.0</ele><time>2026-05-02T08:02:17.091Z</time></trkpt><trkpt lat="45.6744148" lon="11.6823553"><ele>62.0</ele><time>2026-05-02T08:02:19.092Z</time></trkpt><trkpt lat="45.6745155" lon="11.6823516"><ele>62.0</ele><time>2026-05-02T08:02:21.092Z</time></trkpt><trkpt lat="45.6746138" lon="11.6823461"><ele>62.0</ele><time>2026-05-02T08:02:23.092Z</time></trkpt><trkpt lat="45.674715" lon="11.6823461"><ele>62.2</ele><time>2026-05-02T08:02:25.092Z</time></trkpt><trkpt lat="45.6748133" lon="11.6823409"><ele>62.400000000000006</ele><time>2026-05-02T08:02:27.092Z</time></trkpt><trkpt lat="45.6749117" lon="11.6823393"><ele>62.599999999999994</ele><time>2026-05-02T08:02:29.092Z</time></trkpt><trkpt lat="45.6750085" lon="11.6823354"><ele>62.8</ele><time>2026-05-02T08:02:31.092Z</time></trkpt><trkpt lat="45.6751056" lon="11.682328"><ele>63.0</ele><time>2026-05-02T08:02:33.092Z</time></trkpt><trkpt lat="45.6751963" lon="11.6823257"><ele>62.8</ele><time>2026-05-02T08:02:35.092Z</time></trkpt><trkpt lat="45.6752909" lon="11.6823249"><ele>62.599999999999994</ele><time>2026-05-02T08:02:37.092Z</time></trkpt><trkpt lat="45.6753808" lon="11.6823232"><ele>62.400000000000006</ele><time>2026-05-02T08:02:39.092Z</time></trkpt><trkpt lat="45.6754737" lon="11.6823223"><ele>62.2</ele><time>2026-05-02T08:02:41.091Z</time></trkpt><trkpt lat="45.675572" lon="11.6823212"><ele>62.0</ele><time>2026-05-02T08:02:43.091Z</time></trkpt><trkpt lat="45.6756674" lon="11.6823178"><ele>62.0</ele><time>2026-05-02T08:02:45.092Z</time></trkpt><trkpt lat="45.6757654" lon="11.6823231"><ele>62.0</ele><time>2026-05-02T08:02:47.092Z</time></trkpt><trkpt lat="45.6758534" lon="11.6823615"><ele>62.0</ele><time>2026-05-02T08:02:49.092Z</time></trkpt><trkpt lat="45.6759054" lon="11.6824783"><ele>62.0</ele><time>2026-05-02T08:02:51.091Z</time></trkpt><trkpt lat="45.6759556" lon="11.6825953"><ele>62.0</ele><time>2026-05-02T08:02:53.091Z</time></trkpt><trkpt lat="45.6759911" lon="11.6827314"><ele>62.0</ele><time>2026-05-02T08:02:55.092Z</time></trkpt><trkpt lat="45.6759908" lon="11.6828937"><ele>62.0</ele><time>2026-05-02T08:02:57.092Z</time></trkpt><trkpt lat="45.6759991" lon="11.683041"><ele>62.0</ele><time>2026-05-02T08:02:59.092Z</time></trkpt><trkpt lat="45.6760098" lon="11.683188"><ele>62.0</ele><time>2026-05-02T08:03:01.092Z</time></trkpt><trkpt lat="45.6760228" lon="11.6833312"><ele>62.0</ele><time>2026-05-02T08:03:03.093Z</time></trkpt><trkpt lat="45.67603" lon="11.6834737"><ele>61.8</ele><time>2026-05-02T08:03:05.093Z</time></trkpt><trkpt lat="45.6760409" lon="11.6836211"><ele>61.6</ele><time>2026-05-02T08:03:07.092Z</time></trkpt><trkpt lat="45.6760559" lon="11.683761"><ele>61.39999999999999</ele><time>2026-05-02T08:03:09.092Z</time></trkpt><trkpt lat="45.676071" lon="11.6838968"><ele>61.199999999999996</ele><time>2026-05-02T08:03:11.093Z</time></trkpt><trkpt lat="45.6760814" lon="11.6840344"><ele>61.0</ele><time>2026-05-02T08:03:13.092Z</time></trkpt><trkpt lat="45.6760932" lon="11.6841713"><ele>61.199999999999996</ele><time>2026-05-02T08:03:15.093Z</time></trkpt><trkpt lat="45.6761068" lon="11.6843188"><ele>61.39999999999999</ele><time>2026-05-02T08:03:17.092Z</time></trkpt><trkpt lat="45.6761268" lon="11.6844611"><ele>61.6</ele><time>2026-05-02T08:03:19.093Z</time></trkpt><trkpt lat="45.6761467" lon="11.6845971"><ele>61.8</ele><time>2026-05-02T08:03:21.093Z</time></trkpt><trkpt lat="45.6761697" lon="11.6847329"><ele>62.0</ele><time>2026-05-02T08:03:23.092Z</time></trkpt><trkpt lat="45.6761949" lon="11.6848645"><ele>62.2</ele><time>2026-05-02T08:03:25.092Z</time></trkpt><trkpt lat="45.6762177" lon="11.6849892"><ele>62.400000000000006</ele><time>2026-05-02T08:03:27.093Z</time></trkpt><trkpt lat="45.6762392" lon="11.6851186"><ele>62.599999999999994</ele><time>2026-05-02T08:03:29.093Z</time></trkpt><trkpt lat="45.6762659" lon="11.6852444"><ele>62.8</ele><time>2026-05-02T08:03:31.093Z</time></trkpt><trkpt lat="45.6762935" lon="11.6853778"><ele>63.0</ele><time>2026-05-02T08:03:33.092Z</time></trkpt><trkpt lat="45.6763211" lon="11.6855207"><ele>62.2</ele><time>2026-05-02T08:03:35.092Z</time></trkpt><trkpt lat="45.6763492" lon="11.6856672"><ele>61.4</ele><time>2026-05-02T08:03:37.093Z</time></trkpt><trkpt lat="45.6763786" lon="11.6858107"><ele>60.60000000000001</ele><time>2026-05-02T08:03:39.093Z</time></trkpt><trkpt lat="45.6764088" lon="11.6859594"><ele>59.800000000000004</ele><time>2026-05-02T08:03:41.092Z</time></trkpt><trkpt lat="45.676437" lon="11.6861091"><ele>59.0</ele><time>2026-05-02T08:03:43.092Z</time></trkpt><trkpt lat="45.6764652" lon="11.686261"><ele>58.400000000000006</ele><time>2026-05-02T08:03:45.093Z</time></trkpt><trkpt lat="45.6764916" lon="11.6864087"><ele>57.800000000000004</ele><time>2026-05-02T08:03:47.093Z</time></trkpt><trkpt lat="45.6765188" lon="11.6865565"><ele>57.199999999999996</ele><time>2026-05-02T08:03:49.093Z</time></trkpt><trkpt lat="45.6765457" lon="11.6867025"><ele>56.599999999999994</ele><time>2026-05-02T08:03:51.093Z</time></trkpt><trkpt lat="45.6765741" lon="11.686842"><ele>56.0</ele><time>2026-05-02T08:03:53.093Z</time></trkpt><trkpt lat="45.676599" lon="11.6869865"><ele>55.599999999999994</ele><time>2026-05-02T08:03:55.092Z</time></trkpt><trkpt lat="45.6766272" lon="11.6871285"><ele>55.199999999999996</ele><time>2026-05-02T08:03:57.093Z</time></trkpt><trkpt lat="45.6766571" lon="11.6872696"><ele>54.800000000000004</ele><time>2026-05-02T08:03:59.093Z</time></trkpt><trkpt lat="45.6766868" lon="11.6874128"><ele>54.400000000000006</ele><time>2026-05-02T08:04:01.093Z</time></trkpt><trkpt lat="45.6767162" lon="11.6875551"><ele>54.0</ele><time>2026-05-02T08:04:03.093Z</time></trkpt><trkpt lat="45.6767398" lon="11.6877008"><ele>53.800000000000004</ele><time>2026-05-02T08:04:05.093Z</time></trkpt><trkpt lat="45.6767672" lon="11.6878479"><ele>53.60000000000001</ele><time>2026-05-02T08:04:07.092Z</time></trkpt><trkpt lat="45.6767973" lon="11.6879931"><ele>53.4</ele><time>2026-05-02T08:04:09.093Z</time></trkpt><trkpt lat="45.6768212" lon="11.6881359"><ele>53.2</ele><time>2026-05-02T08:04:11.094Z</time></trkpt><trkpt lat="45.6768497" lon="11.6882799"><ele>53.0</ele><time>2026-05-02T08:04:13.094Z</time></trkpt><trkpt lat="45.6768786" lon="11.6884229"><ele>53.0</ele><time>2026-05-02T08:04:15.093Z</time></trkpt><trkpt lat="45.6769032" lon="11.6885647"><ele>53.0</ele><time>2026-05-02T08:04:17.094Z</time></trkpt><trkpt lat="45.6769299" lon="11.6887069"><ele>53.0</ele><time>2026-05-02T08:04:19.093Z</time></trkpt><trkpt lat="45.6769589" lon="11.6888539"><ele>53.0</ele><time>2026-05-02T08:04:21.094Z</time></trkpt><trkpt lat="45.6769845" lon="11.6890036"><ele>53.0</ele><time>2026-05-02T08:04:23.094Z</time></trkpt><trkpt lat="45.6770134" lon="11.6891493"><ele>53.8</ele><time>2026-05-02T08:04:25.093Z</time></trkpt><trkpt lat="45.6770386" lon="11.6892893"><ele>54.599999999999994</ele><time>2026-05-02T08:04:27.094Z</time></trkpt><trkpt lat="45.6770635" lon="11.6894235"><ele>55.400000000000006</ele><time>2026-05-02T08:04:29.093Z</time></trkpt><trkpt lat="45.6770913" lon="11.6895665"><ele>56.2</ele><time>2026-05-02T08:04:31.094Z</time></trkpt><trkpt lat="45.6771207" lon="11.68971"><ele>57.0</ele><time>2026-05-02T08:04:33.093Z</time></trkpt><trkpt lat="45.6771478" lon="11.6898609"><ele>57.6</ele><time>2026-05-02T08:04:35.093Z</time></trkpt><trkpt lat="45.6771771" lon="11.6900123"><ele>58.2</ele><time>2026-05-02T08:04:37.093Z</time></trkpt><trkpt lat="45.6772061" lon="11.690157"><ele>58.8</ele><time>2026-05-02T08:04:39.094Z</time></trkpt><trkpt lat="45.6772345" lon="11.6903043"><ele>59.4</ele><time>2026-05-02T08:04:41.094Z</time></trkpt><trkpt lat="45.6772593" lon="11.6904575"><ele>60.0</ele><time>2026-05-02T08:04:43.093Z</time></trkpt><trkpt lat="45.6772951" lon="11.6906169"><ele>60.25</ele><time>2026-05-02T08:04:45.093Z</time></trkpt><trkpt lat="45.6773367" lon="11.6907716"><ele>60.5</ele><time>2026-05-02T08:04:47.093Z</time></trkpt><trkpt lat="45.6773667" lon="11.6909225"><ele>60.75</ele><time>2026-05-02T08:04:49.093Z</time></trkpt><trkpt lat="45.6773984" lon="11.6910789"><ele>61.0</ele><time>2026-05-02T08:04:51.094Z</time></trkpt><trkpt lat="45.6774313" lon="11.6912306"><ele>61.0</ele><time>2026-05-02T08:04:53.093Z</time></trkpt><trkpt lat="45.6774664" lon="11.6913819"><ele>61.0</ele><time>2026-05-02T08:04:55.094Z</time></trkpt><trkpt lat="45.6775189" lon="11.691544"><ele>61.0</ele><time>2026-05-02T08:04:57.094Z</time></trkpt><trkpt lat="45.67757" lon="11.6916936"><ele>61.0</ele><time>2026-05-02T08:04:59.094Z</time></trkpt><trkpt lat="45.677616" lon="11.6918342"><ele>61.199999999999996</ele><time>2026-05-02T08:05:01.093Z</time></trkpt><trkpt lat="45.6776754" lon="11.6919758"><ele>61.39999999999999</ele><time>2026-05-02T08:05:03.093Z</time></trkpt><trkpt lat="45.6777386" lon="11.6921081"><ele>61.6</ele><time>2026-05-02T08:05:05.094Z</time></trkpt><trkpt lat="45.6777962" lon="11.6922269"><ele>61.8</ele><time>2026-05-02T08:05:07.094Z</time></trkpt><trkpt lat="45.677857" lon="11.6923437"><ele>62.0</ele><time>2026-05-02T08:05:09.094Z</time></trkpt><trkpt lat="45.677919" lon="11.6924738"><ele>62.2</ele><time>2026-05-02T08:05:11.094Z</time></trkpt><trkpt lat="45.6779789" lon="11.6926042"><ele>62.400000000000006</ele><time>2026-05-02T08:05:13.095Z</time></trkpt><trkpt lat="45.6780415" lon="11.6927361"><ele>62.599999999999994</ele><time>2026-05-02T08:05:15.095Z</time></trkpt><trkpt lat="45.6781045" lon="11.692871"><ele>62.8</ele><time>2026-05-02T08:05:17.095Z</time></trkpt><trkpt lat="45.6781657" lon="11.6930037"><ele>63.0</ele><time>2026-05-02T08:05:19.095Z</time></trkpt><trkpt lat="45.6782312" lon="11.6931467"><ele>63.0</ele><time>2026-05-02T08:05:21.094Z</time></trkpt><trkpt lat="45.6782934" lon="11.6932822"><ele>63.0</ele><time>2026-05-02T08:05:23.095Z</time></trkpt><trkpt lat="45.6783582" lon="11.6934147"><ele>63.0</ele><time>2026-05-02T08:05:25.095Z</time></trkpt><trkpt lat="45.6784179" lon="11.6935535"><ele>63.0</ele><time>2026-05-02T08:05:27.095Z</time></trkpt><trkpt lat="45.6784723" lon="11.6936813"><ele>63.0</ele><time>2026-05-02T08:05:29.095Z</time></trkpt><trkpt lat="45.6785315" lon="11.6938146"><ele>62.75</ele><time>2026-05-02T08:05:31.094Z</time></trkpt><trkpt lat="45.6785973" lon="11.6939552"><ele>62.5</ele><time>2026-05-02T08:05:33.095Z</time></trkpt><trkpt lat="45.6786596" lon="11.6940903"><ele>62.25</ele><time>2026-05-02T08:05:35.095Z</time></trkpt><trkpt lat="45.6787253" lon="11.6942267"><ele>62.0</ele><time>2026-05-02T08:05:37.095Z</time></trkpt><trkpt lat="45.6787863" lon="11.6943626"><ele>62.25</ele><time>2026-05-02T08:05:39.095Z</time></trkpt><trkpt lat="45.6788403" lon="11.6944952"><ele>62.5</ele><time>2026-05-02T08:05:41.095Z</time></trkpt><trkpt lat="45.6789026" lon="11.6946325"><ele>62.75</ele><time>2026-05-02T08:05:43.095Z</time></trkpt><trkpt lat="45.6789711" lon="11.6947692"><ele>63.0</ele><time>2026-05-02T08:05:45.095Z</time></trkpt><trkpt lat="45.6790367" lon="11.6949013"><ele>63.0</ele><time>2026-05-02T08:05:47.095Z</time></trkpt><trkpt lat="45.6791023" lon="11.6950343"><ele>63.0</ele><time>2026-05-02T08:05:49.094Z</time></trkpt><trkpt lat="45.679163" lon="11.6951658"><ele>63.0</ele><time>2026-05-02T08:05:51.095Z</time></trkpt><trkpt lat="45.6792226" lon="11.6952989"><ele>63.0</ele><time>2026-05-02T08:05:53.095Z</time></trkpt><trkpt lat="45.6792808" lon="11.6954355"><ele>63.0</ele><time>2026-05-02T08:05:55.095Z</time></trkpt><trkpt lat="45.6793392" lon="11.6955635"><ele>63.0</ele><time>2026-05-02T08:05:57.095Z</time></trkpt><trkpt lat="45.6793969" lon="11.6956893"><ele>63.0</ele><time>2026-05-02T08:05:59.095Z</time></trkpt><trkpt lat="45.6794536" lon="11.6958141"><ele>63.0</ele><time>2026-05-02T08:06:01.095Z</time></trkpt><trkpt lat="45.6795139" lon="11.6959416"><ele>63.0</ele><time>2026-05-02T08:06:03.095Z</time></trkpt><trkpt lat="45.6795683" lon="11.6960729"><ele>63.0</ele><time>2026-05-02T08:06:05.095Z</time></trkpt><trkpt lat="45.6796208" lon="11.6962109"><ele>63.0</ele><time>2026-05-02T08:06:07.096Z</time></trkpt><trkpt lat="45.6796742" lon="11.6963411"><ele>63.0</ele><time>2026-05-02T08:06:09.095Z</time></trkpt><trkpt lat="45.6797345" lon="11.6964704"><ele>63.0</ele><time>2026-05-02T08:06:11.095Z</time></trkpt><trkpt lat="45.6797956" lon="11.6966029"><ele>63.0</ele><time>2026-05-02T08:06:13.094Z</time></trkpt><trkpt lat="45.6798564" lon="11.696737"><ele>63.0</ele><time>2026-05-02T08:06:15.094Z</time></trkpt><trkpt lat="45.6799149" lon="11.6968693"><ele>63.0</ele><time>2026-05-02T08:06:17.095Z</time></trkpt><trkpt lat="45.6799786" lon="11.696999"><ele>63.0</ele><time>2026-05-02T08:06:19.095Z</time></trkpt><trkpt lat="45.6800461" lon="11.697128"><ele>63.0</ele><time>2026-05-02T08:06:21.095Z</time></trkpt><trkpt lat="45.6801055" lon="11.6972633"><ele>63.0</ele><time>2026-05-02T08:06:23.096Z</time></trkpt><trkpt lat="45.6801647" lon="11.6973999"><ele>63.0</ele><time>2026-05-02T08:06:25.096Z</time></trkpt><trkpt lat="45.6802225" lon="11.697531"><ele>63.0</ele><time>2026-05-02T08:06:27.096Z</time></trkpt><trkpt lat="45.6802791" lon="11.6976614"><ele>63.0</ele><time>2026-05-02T08:06:29.096Z</time></trkpt><trkpt lat="45.6803372" lon="11.6977912"><ele>63.0</ele><time>2026-05-02T08:06:31.096Z</time></trkpt><trkpt lat="45.6803954" lon="11.6979194"><ele>63.0</ele><time>2026-05-02T08:06:33.096Z</time></trkpt><trkpt lat="45.680457" lon="11.6980481"><ele>63.0</ele><time>2026-05-02T08:06:35.096Z</time></trkpt><trkpt lat="45.6805165" lon="11.6981797"><ele>62.8</ele><time>2026-05-02T08:06:37.095Z</time></trkpt><trkpt lat="45.6805748" lon="11.6983047"><ele>62.599999999999994</ele><time>2026-05-02T08:06:39.095Z</time></trkpt><trkpt lat="45.6806392" lon="11.6984365"><ele>62.400000000000006</ele><time>2026-05-02T08:06:41.095Z</time></trkpt><trkpt lat="45.6807041" lon="11.6985702"><ele>62.2</ele><time>2026-05-02T08:06:43.096Z</time></trkpt><trkpt lat="45.6807612" lon="11.6986979"><ele>62.0</ele><time>2026-05-02T08:06:45.096Z</time></trkpt><trkpt lat="45.6808243" lon="11.6988269"><ele>61.8</ele><time>2026-05-02T08:06:47.096Z</time></trkpt><trkpt lat="45.6808887" lon="11.6989578"><ele>61.6</ele><time>2026-05-02T08:06:49.095Z</time></trkpt><trkpt lat="45.6809524" lon="11.6990883"><ele>61.39999999999999</ele><time>2026-05-02T08:06:51.096Z</time></trkpt><trkpt lat="45.6810149" lon="11.6992128"><ele>61.199999999999996</ele><time>2026-05-02T08:06:53.096Z</time></trkpt><trkpt lat="45.6810807" lon="11.6993339"><ele>61.0</ele><time>2026-05-02T08:06:55.096Z</time></trkpt><trkpt lat="45.6811483" lon="11.6994526"><ele>60.8</ele><time>2026-05-02T08:06:57.096Z</time></trkpt><trkpt lat="45.6812186" lon="11.6995651"><ele>60.599999999999994</ele><time>2026-05-02T08:06:59.096Z</time></trkpt><trkpt lat="45.6812874" lon="11.6996723"><ele>60.4</ele><time>2026-05-02T08:07:01.096Z</time></trkpt><trkpt lat="45.6813598" lon="11.6997882"><ele>60.2</ele><time>2026-05-02T08:07:03.096Z</time></trkpt><trkpt lat="45.681435" lon="11.6998974"><ele>60.0</ele><time>2026-05-02T08:07:05.095Z</time></trkpt><trkpt lat="45.6815097" lon="11.7000103"><ele>60.0</ele><time>2026-05-02T08:07:07.095Z</time></trkpt><trkpt lat="45.6815828" lon="11.7001271"><ele>60.0</ele><time>2026-05-02T08:07:09.096Z</time></trkpt><trkpt lat="45.6816539" lon="11.7002456"><ele>60.0</ele><time>2026-05-02T08:07:11.096Z</time></trkpt><trkpt lat="45.6817248" lon="11.7003611"><ele>60.0</ele><time>2026-05-02T08:07:13.096Z</time></trkpt><trkpt lat="45.6817987" lon="11.7004759"><ele>60.0</ele><time>2026-05-02T08:07:15.096Z</time></trkpt><trkpt lat="45.6818729" lon="11.7005862"><ele>60.4</ele><time>2026-05-02T08:07:17.095Z</time></trkpt><trkpt lat="45.6819453" lon="11.7006946"><ele>60.8</ele><time>2026-05-02T08:07:19.096Z</time></trkpt><trkpt lat="45.6820166" lon="11.7008079"><ele>61.2</ele><time>2026-05-02T08:07:21.096Z</time></trkpt><trkpt lat="45.6820821" lon="11.7009252"><ele>61.6</ele><time>2026-05-02T08:07:23.096Z</time></trkpt><trkpt lat="45.6821516" lon="11.7010465"><ele>62.0</ele><time>2026-05-02T08:07:25.096Z</time></trkpt><trkpt lat="45.6822213" lon="11.7011703"><ele>62.2</ele><time>2026-05-02T08:07:27.097Z</time></trkpt><trkpt lat="45.6822811" lon="11.701298"><ele>62.400000000000006</ele><time>2026-05-02T08:07:29.097Z</time></trkpt><trkpt lat="45.6823397" lon="11.7014273"><ele>62.599999999999994</ele><time>2026-05-02T08:07:31.096Z</time></trkpt><trkpt lat="45.6823986" lon="11.70155"><ele>62.8</ele><time>2026-05-02T08:07:33.097Z</time></trkpt><trkpt lat="45.6824605" lon="11.7016584"><ele>63.0</ele><time>2026-05-02T08:07:35.097Z</time></trkpt><trkpt lat="45.6825317" lon="11.7017672"><ele>63.0</ele><time>2026-05-02T08:07:37.097Z</time></trkpt><trkpt lat="45.6825838" lon="11.7018858"><ele>63.0</ele><time>2026-05-02T08:07:39.097Z</time></trkpt><trkpt lat="45.682637" lon="11.7020021"><ele>63.0</ele><time>2026-05-02T08:07:41.097Z</time></trkpt><trkpt lat="45.6826955" lon="11.7021187"><ele>63.0</ele><time>2026-05-02T08:07:43.097Z</time></trkpt><trkpt lat="45.6827605" lon="11.7022162"><ele>63.0</ele><time>2026-05-02T08:07:45.097Z</time></trkpt><trkpt lat="45.6828341" lon="11.702309"><ele>63.5</ele><time>2026-05-02T08:07:47.097Z</time></trkpt><trkpt lat="45.6828952" lon="11.7024081"><ele>64.0</ele><time>2026-05-02T08:07:49.096Z</time></trkpt><trkpt lat="45.6829404" lon="11.7024944"><ele>64.5</ele><time>2026-05-02T08:07:51.096Z</time></trkpt><trkpt lat="45.6829839" lon="11.7025877"><ele>65.0</ele><time>2026-05-02T08:07:53.096Z</time></trkpt><trkpt lat="45.6830287" lon="11.7026773"><ele>65.5</ele><time>2026-05-02T08:07:55.097Z</time></trkpt><trkpt lat="45.683079" lon="11.7027415"><ele>66.0</ele><time>2026-05-02T08:07:57.096Z</time></trkpt><trkpt lat="45.6831413" lon="11.7027962"><ele>66.66666666666667</ele><time>2026-05-02T08:07:59.096Z</time></trkpt><trkpt lat="45.6831844" lon="11.7028766"><ele>67.33333333333333</ele><time>2026-05-02T08:08:01.096Z</time></trkpt><trkpt lat="45.6832351" lon="11.7029727"><ele>68.0</ele><time>2026-05-02T08:08:04.097Z</time></trkpt><trkpt lat="45.6833165" lon="11.7029885"><ele>68.66666666666666</ele><time>2026-05-02T08:08:06.097Z</time></trkpt><trkpt lat="45.6833966" lon="11.7029801"><ele>69.33333333333333</ele><time>2026-05-02T08:08:08.096Z</time></trkpt><trkpt lat="45.6834823" lon="11.7029621"><ele>70.0</ele><time>2026-05-02T08:08:10.097Z</time></trkpt><trkpt lat="45.6835808" lon="11.7029237"><ele>70.0</ele><time>2026-05-02T08:08:12.097Z</time></trkpt><trkpt lat="45.6836787" lon="11.7028841"><ele>70.0</ele><time>2026-05-02T08:08:14.097Z</time></trkpt><trkpt lat="45.6837725" lon="11.7028422"><ele>70.0</ele><time>2026-05-02T08:08:16.096Z</time></trkpt><trkpt lat="45.6838675" lon="11.7028032"><ele>70.0</ele><time>2026-05-02T08:08:18.097Z</time></trkpt><trkpt lat="45.6839634" lon="11.702755"><ele>70.0</ele><time>2026-05-02T08:08:20.097Z</time></trkpt><trkpt lat="45.6840512" lon="11.7027016"><ele>69.8</ele><time>2026-05-02T08:08:22.097Z</time></trkpt><trkpt lat="45.6841409" lon="11.7026429"><ele>69.6</ele><time>2026-05-02T08:08:24.096Z</time></trkpt><trkpt lat="45.6842343" lon="11.7025794"><ele>69.4</ele><time>2026-05-02T08:08:26.097Z</time></trkpt><trkpt lat="45.6843227" lon="11.7025326"><ele>69.2</ele><time>2026-05-02T08:08:28.097Z</time></trkpt><trkpt lat="45.6843938" lon="11.7024929"><ele>69.0</ele><time>2026-05-02T08:08:30.097Z</time></trkpt><trkpt lat="45.6844779" lon="11.7025004"><ele>69.0</ele><time>2026-05-02T08:08:32.098Z</time></trkpt><trkpt lat="45.6845426" lon="11.7025606"><ele>69.0</ele><time>2026-05-02T08:08:34.097Z</time></trkpt><trkpt lat="45.6845414" lon="11.7026586"><ele>69.0</ele><time>2026-05-02T08:08:36.098Z</time></trkpt><trkpt lat="45.6845195" lon="11.7027803"><ele>69.0</ele><time>2026-05-02T08:08:39.098Z</time></trkpt><trkpt lat="45.6845048" lon="11.7029145"><ele>69.0</ele><time>2026-05-02T08:08:41.097Z</time></trkpt><trkpt lat="45.6844943" lon="11.7030345"><ele>69.0</ele><time>2026-05-02T08:08:43.098Z</time></trkpt><trkpt lat="45.6844829" lon="11.7031337"><ele>69.33333333333333</ele><time>2026-05-02T08:08:45.098Z</time></trkpt><trkpt lat="45.6844715" lon="11.7032431"><ele>69.66666666666667</ele><time>2026-05-02T08:08:47.097Z</time></trkpt><trkpt lat="45.6844681" lon="11.7033553"><ele>70.0</ele><time>2026-05-02T08:08:49.098Z</time></trkpt><trkpt lat="45.6844618" lon="11.7034759"><ele>70.33333333333334</ele><time>2026-05-02T08:08:52.098Z</time></trkpt><trkpt lat="45.6844661" lon="11.7035828"><ele>70.66666666666667</ele><time>2026-05-02T08:08:58.098Z</time></trkpt><trkpt lat="45.6844649" lon="11.7036767"><ele>71.0</ele><time>2026-05-02T08:09:01.097Z</time></trkpt><trkpt lat="45.6844679" lon="11.7037868"><ele>71.0</ele><time>2026-05-02T08:09:03.097Z</time></trkpt><trkpt lat="45.684461" lon="11.7039069"><ele>71.0</ele><time>2026-05-02T08:09:05.098Z</time></trkpt><trkpt lat="45.6844486" lon="11.7040433"><ele>71.0</ele><time>2026-05-02T08:09:07.097Z</time></trkpt><trkpt lat="45.6844372" lon="11.7041743"><ele>71.0</ele><time>2026-05-02T08:09:09.098Z</time></trkpt><trkpt lat="45.6844289" lon="11.7043043"><ele>71.0</ele><time>2026-05-02T08:09:11.097Z</time></trkpt><trkpt lat="45.6844136" lon="11.7044506"><ele>70.6</ele><time>2026-05-02T08:09:13.098Z</time></trkpt><trkpt lat="45.6844123" lon="11.7045834"><ele>70.19999999999999</ele><time>2026-05-02T08:09:15.098Z</time></trkpt><trkpt lat="45.6843914" lon="11.7047236"><ele>69.80000000000001</ele><time>2026-05-02T08:09:17.098Z</time></trkpt><trkpt lat="45.6843804" lon="11.7048596"><ele>69.4</ele><time>2026-05-02T08:09:19.097Z</time></trkpt><trkpt lat="45.6843694" lon="11.7050017"><ele>69.0</ele><time>2026-05-02T08:09:21.097Z</time></trkpt><trkpt lat="45.6843625" lon="11.7051277"><ele>68.8</ele><time>2026-05-02T08:09:23.097Z</time></trkpt><trkpt lat="45.6843577" lon="11.7052623"><ele>68.60000000000001</ele><time>2026-05-02T08:09:25.098Z</time></trkpt><trkpt lat="45.684346" lon="11.7054183"><ele>68.4</ele><time>2026-05-02T08:09:27.098Z</time></trkpt><trkpt lat="45.6843439" lon="11.7055579"><ele>68.2</ele><time>2026-05-02T08:09:29.097Z</time></trkpt><trkpt lat="45.684345" lon="11.7057104"><ele>68.0</ele><time>2026-05-02T08:09:31.098Z</time></trkpt><trkpt lat="45.6843555" lon="11.7058748"><ele>68.0</ele><time>2026-05-02T08:09:33.098Z</time></trkpt><trkpt lat="45.6843574" lon="11.706024"><ele>68.0</ele><time>2026-05-02T08:09:35.098Z</time></trkpt><trkpt lat="45.6843605" lon="11.7061612"><ele>68.0</ele><time>2026-05-02T08:09:37.099Z</time></trkpt><trkpt lat="45.6843641" lon="11.7062977"><ele>68.0</ele><time>2026-05-02T08:09:39.099Z</time></trkpt><trkpt lat="45.6843683" lon="11.7064534"><ele>68.0</ele><time>2026-05-02T08:09:41.099Z</time></trkpt><trkpt lat="45.6843669" lon="11.7066073"><ele>68.0</ele><time>2026-05-02T08:09:43.099Z</time></trkpt><trkpt lat="45.6843534" lon="11.7067332"><ele>68.0</ele><time>2026-05-02T08:09:45.098Z</time></trkpt><trkpt lat="45.6843387" lon="11.7068632"><ele>68.0</ele><time>2026-05-02T08:09:47.099Z</time></trkpt><trkpt lat="45.6843351" lon="11.7069793"><ele>68.0</ele><time>2026-05-02T08:09:49.099Z</time></trkpt><trkpt lat="45.6843281" lon="11.707086"><ele>68.0</ele><time>2026-05-02T08:09:51.099Z</time></trkpt><trkpt lat="45.6843226" lon="11.7071826"><ele>68.0</ele><time>2026-05-02T08:09:53.098Z</time></trkpt><trkpt lat="45.6843003" lon="11.7072902"><ele>67.83333333333334</ele><time>2026-05-02T08:09:55.099Z</time></trkpt><trkpt lat="45.6842802" lon="11.7074072"><ele>67.66666666666667</ele><time>2026-05-02T08:09:57.099Z</time></trkpt><trkpt lat="45.6842711" lon="11.7075249"><ele>67.5</ele><time>2026-05-02T08:09:59.099Z</time></trkpt><trkpt lat="45.6842607" lon="11.7076376"><ele>67.33333333333333</ele><time>2026-05-02T08:10:01.098Z</time></trkpt><trkpt lat="45.6842575" lon="11.7077589"><ele>67.16666666666666</ele><time>2026-05-02T08:10:03.099Z</time></trkpt><trkpt lat="45.6842625" lon="11.707889"><ele>67.0</ele><time>2026-05-02T08:10:05.099Z</time></trkpt><trkpt lat="45.6842723" lon="11.7080262"><ele>67.0</ele><time>2026-05-02T08:10:07.099Z</time></trkpt><trkpt lat="45.6842805" lon="11.7081736"><ele>67.0</ele><time>2026-05-02T08:10:09.099Z</time></trkpt><trkpt lat="45.6843006" lon="11.7083211"><ele>67.0</ele><time>2026-05-02T08:10:11.099Z</time></trkpt><trkpt lat="45.6843126" lon="11.7084574"><ele>67.0</ele><time>2026-05-02T08:10:13.099Z</time></trkpt><trkpt lat="45.6843126" lon="11.7085962"><ele>67.0</ele><time>2026-05-02T08:10:15.099Z</time></trkpt><trkpt lat="45.6843205" lon="11.7087375"><ele>67.4</ele><time>2026-05-02T08:10:17.098Z</time></trkpt><trkpt lat="45.6843354" lon="11.7088785"><ele>67.80000000000001</ele><time>2026-05-02T08:10:19.099Z</time></trkpt><trkpt lat="45.6843409" lon="11.7090217"><ele>68.2</ele><time>2026-05-02T08:10:21.098Z</time></trkpt><trkpt lat="45.6843383" lon="11.7091646"><ele>68.60000000000001</ele><time>2026-05-02T08:10:23.099Z</time></trkpt><trkpt lat="45.6843365" lon="11.7093101"><ele>69.0</ele><time>2026-05-02T08:10:25.099Z</time></trkpt><trkpt lat="45.6843426" lon="11.7094615"><ele>69.0</ele><time>2026-05-02T08:10:27.099Z</time></trkpt><trkpt lat="45.684343" lon="11.7096088"><ele>69.0</ele><time>2026-05-02T08:10:29.099Z</time></trkpt><trkpt lat="45.6843447" lon="11.7097533"><ele>69.0</ele><time>2026-05-02T08:10:31.099Z</time></trkpt><trkpt lat="45.6843494" lon="11.7098993"><ele>69.0</ele><time>2026-05-02T08:10:33.099Z</time></trkpt><trkpt lat="45.6843591" lon="11.7100478"><ele>69.0</ele><time>2026-05-02T08:10:35.099Z</time></trkpt><trkpt lat="45.6843725" lon="11.7101794"><ele>68.8</ele><time>2026-05-02T08:10:37.099Z</time></trkpt><trkpt lat="45.6843841" lon="11.7103006"><ele>68.60000000000001</ele><time>2026-05-02T08:10:39.099Z</time></trkpt><trkpt lat="45.6843973" lon="11.7104592"><ele>68.4</ele><time>2026-05-02T08:10:41.099Z</time></trkpt><trkpt lat="45.6844139" lon="11.7106159"><ele>68.2</ele><time>2026-05-02T08:10:43.099Z</time></trkpt><trkpt lat="45.6844238" lon="11.7107595"><ele>68.0</ele><time>2026-05-02T08:10:45.1Z</time></trkpt><trkpt lat="45.6844435" lon="11.7109018"><ele>68.0</ele><time>2026-05-02T08:10:47.1Z</time></trkpt><trkpt lat="45.6844572" lon="11.7110451"><ele>68.0</ele><time>2026-05-02T08:10:49.099Z</time></trkpt><trkpt lat="45.6844691" lon="11.7111893"><ele>68.0</ele><time>2026-05-02T08:10:51.1Z</time></trkpt><trkpt lat="45.6844882" lon="11.7113435"><ele>68.0</ele><time>2026-05-02T08:10:53.1Z</time></trkpt><trkpt lat="45.6845073" lon="11.7114918"><ele>68.0</ele><time>2026-05-02T08:10:55.1Z</time></trkpt><trkpt lat="45.6845228" lon="11.7116346"><ele>68.0</ele><time>2026-05-02T08:10:57.099Z</time></trkpt><trkpt lat="45.6845385" lon="11.7117788"><ele>68.0</ele><time>2026-05-02T08:10:59.099Z</time></trkpt><trkpt lat="45.6845588" lon="11.7119256"><ele>68.0</ele><time>2026-05-02T08:11:01.099Z</time></trkpt><trkpt lat="45.6845864" lon="11.7120671"><ele>68.0</ele><time>2026-05-02T08:11:03.1Z</time></trkpt><trkpt lat="45.6846098" lon="11.7122102"><ele>68.0</ele><time>2026-05-02T08:11:05.1Z</time></trkpt><trkpt lat="45.6846373" lon="11.712348"><ele>68.0</ele><time>2026-05-02T08:11:07.1Z</time></trkpt><trkpt lat="45.6846742" lon="11.7124787"><ele>68.0</ele><time>2026-05-02T08:11:09.099Z</time></trkpt><trkpt lat="45.6847031" lon="11.7126174"><ele>68.0</ele><time>2026-05-02T08:11:11.1Z</time></trkpt><trkpt lat="45.6847294" lon="11.7127555"><ele>68.0</ele><time>2026-05-02T08:11:13.1Z</time></trkpt><trkpt lat="45.6847556" lon="11.7128895"><ele>68.0</ele><time>2026-05-02T08:11:15.099Z</time></trkpt><trkpt lat="45.684777" lon="11.7130306"><ele>68.0</ele><time>2026-05-02T08:11:17.1Z</time></trkpt><trkpt lat="45.6848031" lon="11.7131674"><ele>68.0</ele><time>2026-05-02T08:11:19.099Z</time></trkpt><trkpt lat="45.6848335" lon="11.713303"><ele>68.0</ele><time>2026-05-02T08:11:21.099Z</time></trkpt><trkpt lat="45.6848614" lon="11.7134427"><ele>68.0</ele><time>2026-05-02T08:11:23.1Z</time></trkpt><trkpt lat="45.6848876" lon="11.7135854"><ele>68.0</ele><time>2026-05-02T08:11:25.1Z</time></trkpt><trkpt lat="45.6849055" lon="11.7137266"><ele>68.0</ele><time>2026-05-02T08:11:27.101Z</time></trkpt><trkpt lat="45.684925" lon="11.7138678"><ele>68.0</ele><time>2026-05-02T08:11:29.1Z</time></trkpt><trkpt lat="45.6849423" lon="11.7140077"><ele>68.0</ele><time>2026-05-02T08:11:31.1Z</time></trkpt><trkpt lat="45.6849618" lon="11.7141502"><ele>68.0</ele><time>2026-05-02T08:11:33.1Z</time></trkpt><trkpt lat="45.6849738" lon="11.71429"><ele>68.0</ele><time>2026-05-02T08:11:35.1Z</time></trkpt><trkpt lat="45.6849943" lon="11.7144262"><ele>68.2</ele><time>2026-05-02T08:11:37.1Z</time></trkpt><trkpt lat="45.6850106" lon="11.7145675"><ele>68.4</ele><time>2026-05-02T08:11:39.1Z</time></trkpt><trkpt lat="45.6850246" lon="11.7147032"><ele>68.60000000000001</ele><time>2026-05-02T08:11:41.1Z</time></trkpt><trkpt lat="45.6850405" lon="11.7148378"><ele>68.8</ele><time>2026-05-02T08:11:43.1Z</time></trkpt><trkpt lat="45.6850499" lon="11.7149697"><ele>69.0</ele><time>2026-05-02T08:11:45.101Z</time></trkpt><trkpt lat="45.685059" lon="11.7151022"><ele>69.0</ele><time>2026-05-02T08:11:47.101Z</time></trkpt><trkpt lat="45.6850778" lon="11.715226"><ele>69.0</ele><time>2026-05-02T08:11:49.101Z</time></trkpt><trkpt lat="45.6850914" lon="11.7153418"><ele>69.0</ele><time>2026-05-02T08:11:51.101Z</time></trkpt><trkpt lat="45.6851056" lon="11.7154343"><ele>69.0</ele><time>2026-05-02T08:12:36.1Z</time></trkpt><trkpt lat="45.6851152" lon="11.715551"><ele>69.0</ele><time>2026-05-02T08:12:41.124Z</time></trkpt><trkpt lat="45.6851226" lon="11.7156517"><ele>69.0</ele><time>2026-05-02T08:12:43.137Z</time></trkpt><trkpt lat="45.6851344" lon="11.7158015"><ele>69.0</ele><time>2026-05-02T08:12:45.15Z</time></trkpt><trkpt lat="45.6851459" lon="11.7158962"><ele>69.0</ele><time>2026-05-02T08:12:46.101Z</time></trkpt><trkpt lat="45.6851641" lon="11.7160217"><ele>69.0</ele><time>2026-05-02T08:12:48.101Z</time></trkpt><trkpt lat="45.6851722" lon="11.7161591"><ele>69.0</ele><time>2026-05-02T08:12:50.102Z</time></trkpt><trkpt lat="45.6851836" lon="11.7162946"><ele>69.0</ele><time>2026-05-02T08:12:52.102Z</time></trkpt><trkpt lat="45.6851974" lon="11.7164335"><ele>69.0</ele><time>2026-05-02T08:12:54.102Z</time></trkpt><trkpt lat="45.6852139" lon="11.7165753"><ele>69.0</ele><time>2026-05-02T08:12:56.102Z</time></trkpt><trkpt lat="45.6852208" lon="11.7167182"><ele>69.0</ele><time>2026-05-02T08:12:58.102Z</time></trkpt><trkpt lat="45.6852322" lon="11.7168634"><ele>69.0</ele><time>2026-05-02T08:13:00.102Z</time></trkpt><trkpt lat="45.6852502" lon="11.7170077"><ele>69.0</ele><time>2026-05-02T08:13:02.102Z</time></trkpt><trkpt lat="45.6852638" lon="11.7171571"><ele>69.0</ele><time>2026-05-02T08:13:04.102Z</time></trkpt><trkpt lat="45.6852816" lon="11.7173036"><ele>69.16666666666667</ele><time>2026-05-02T08:13:06.102Z</time></trkpt><trkpt lat="45.685299" lon="11.7174488"><ele>69.33333333333333</ele><time>2026-05-02T08:13:08.102Z</time></trkpt><trkpt lat="45.6853181" lon="11.7175897"><ele>69.5</ele><time>2026-05-02T08:13:10.102Z</time></trkpt><trkpt lat="45.6853402" lon="11.7177177"><ele>69.66666666666666</ele><time>2026-05-02T08:13:12.102Z</time></trkpt><trkpt lat="45.685361" lon="11.7178136"><ele>69.83333333333333</ele><time>2026-05-02T08:13:14.102Z</time></trkpt><trkpt lat="45.6853683" lon="11.7179208"><ele>70.0</ele><time>2026-05-02T08:13:16.101Z</time></trkpt><trkpt lat="45.6853838" lon="11.7180682"><ele>70.0</ele><time>2026-05-02T08:13:18.102Z</time></trkpt><trkpt lat="45.6853938" lon="11.7182168"><ele>70.0</ele><time>2026-05-02T08:13:20.102Z</time></trkpt><trkpt lat="45.6853754" lon="11.7183541"><ele>70.0</ele><time>2026-05-02T08:13:22.102Z</time></trkpt><trkpt lat="45.6853629" lon="11.718493"><ele>70.0</ele><time>2026-05-02T08:13:24.102Z</time></trkpt><trkpt lat="45.685356" lon="11.7186372"><ele>70.0</ele><time>2026-05-02T08:13:26.102Z</time></trkpt><trkpt lat="45.685353" lon="11.7187756"><ele>70.0</ele><time>2026-05-02T08:13:28.102Z</time></trkpt><trkpt lat="45.6853532" lon="11.7189168"><ele>70.0</ele><time>2026-05-02T08:13:30.102Z</time></trkpt><trkpt lat="45.6853472" lon="11.7190549"><ele>70.0</ele><time>2026-05-02T08:13:32.102Z</time></trkpt><trkpt lat="45.6853384" lon="11.7192002"><ele>70.0</ele><time>2026-05-02T08:13:34.102Z</time></trkpt><trkpt lat="45.6853342" lon="11.7193581"><ele>70.0</ele><time>2026-05-02T08:13:36.102Z</time></trkpt><trkpt lat="45.6853308" lon="11.7195174"><ele>69.8</ele><time>2026-05-02T08:13:38.102Z</time></trkpt><trkpt lat="45.6853188" lon="11.7196608"><ele>69.6</ele><time>2026-05-02T08:13:40.102Z</time></trkpt><trkpt lat="45.6853097" lon="11.719829"><ele>69.4</ele><time>2026-05-02T08:13:42.103Z</time></trkpt><trkpt lat="45.6852988" lon="11.7199766"><ele>69.2</ele><time>2026-05-02T08:13:44.101Z</time></trkpt><trkpt lat="45.6852876" lon="11.7201336"><ele>69.0</ele><time>2026-05-02T08:13:46.101Z</time></trkpt><trkpt lat="45.6852771" lon="11.7202946"><ele>69.0</ele><time>2026-05-02T08:13:48.102Z</time></trkpt><trkpt lat="45.6852658" lon="11.7204621"><ele>69.0</ele><time>2026-05-02T08:13:50.102Z</time></trkpt><trkpt lat="45.685255" lon="11.7206162"><ele>69.0</ele><time>2026-05-02T08:13:52.102Z</time></trkpt><trkpt lat="45.6852399" lon="11.7207815"><ele>69.0</ele><time>2026-05-02T08:13:54.103Z</time></trkpt><trkpt lat="45.6852243" lon="11.7209407"><ele>69.0</ele><time>2026-05-02T08:13:56.103Z</time></trkpt><trkpt lat="45.6852076" lon="11.721106"><ele>69.0</ele><time>2026-05-02T08:13:58.102Z</time></trkpt><trkpt lat="45.6851925" lon="11.7212648"><ele>69.0</ele><time>2026-05-02T08:14:00.103Z</time></trkpt><trkpt lat="45.6851825" lon="11.7214184"><ele>69.0</ele><time>2026-05-02T08:14:02.103Z</time></trkpt><trkpt lat="45.6851707" lon="11.7215697"><ele>69.0</ele><time>2026-05-02T08:14:04.103Z</time></trkpt><trkpt lat="45.6851624" lon="11.7217184"><ele>69.0</ele><time>2026-05-02T08:14:06.103Z</time></trkpt><trkpt lat="45.6851629" lon="11.721868"><ele>69.0</ele><time>2026-05-02T08:14:08.103Z</time></trkpt><trkpt lat="45.6851619" lon="11.7220179"><ele>69.0</ele><time>2026-05-02T08:14:10.103Z</time></trkpt><trkpt lat="45.6851591" lon="11.722172"><ele>69.0</ele><time>2026-05-02T08:14:12.102Z</time></trkpt><trkpt lat="45.6851618" lon="11.7223243"><ele>69.0</ele><time>2026-05-02T08:14:14.103Z</time></trkpt><trkpt lat="45.6851735" lon="11.7224824"><ele>69.0</ele><time>2026-05-02T08:14:16.103Z</time></trkpt><trkpt lat="45.6851815" lon="11.7226423"><ele>69.0</ele><time>2026-05-02T08:14:18.102Z</time></trkpt><trkpt lat="45.685192" lon="11.7227935"><ele>69.0</ele><time>2026-05-02T08:14:20.103Z</time></trkpt><trkpt lat="45.6852076" lon="11.7229393"><ele>69.0</ele><time>2026-05-02T08:14:22.103Z</time></trkpt><trkpt lat="45.6852165" lon="11.7230733"><ele>69.0</ele><time>2026-05-02T08:14:24.102Z</time></trkpt><trkpt lat="45.6852104" lon="11.7232024"><ele>69.0</ele><time>2026-05-02T08:14:26.102Z</time></trkpt><trkpt lat="45.685189" lon="11.7233576"><ele>69.0</ele><time>2026-05-02T08:14:28.102Z</time></trkpt><trkpt lat="45.6851638" lon="11.7235059"><ele>69.0</ele><time>2026-05-02T08:14:30.103Z</time></trkpt><trkpt lat="45.6851467" lon="11.7236534"><ele>69.0</ele><time>2026-05-02T08:14:32.103Z</time></trkpt><trkpt lat="45.6851331" lon="11.7238019"><ele>69.0</ele><time>2026-05-02T08:14:34.102Z</time></trkpt><trkpt lat="45.6851214" lon="11.723943"><ele>69.2</ele><time>2026-05-02T08:14:36.103Z</time></trkpt><trkpt lat="45.6851091" lon="11.7240796"><ele>69.4</ele><time>2026-05-02T08:14:38.103Z</time></trkpt><trkpt lat="45.6850963" lon="11.7242249"><ele>69.6</ele><time>2026-05-02T08:14:40.103Z</time></trkpt><trkpt lat="45.6850847" lon="11.7243867"><ele>69.8</ele><time>2026-05-02T08:14:42.102Z</time></trkpt><trkpt lat="45.6850698" lon="11.7245421"><ele>70.0</ele><time>2026-05-02T08:14:44.102Z</time></trkpt><trkpt lat="45.6850636" lon="11.7246849"><ele>69.6</ele><time>2026-05-02T08:14:46.102Z</time></trkpt><trkpt lat="45.6850641" lon="11.7248283"><ele>69.2</ele><time>2026-05-02T08:14:48.103Z</time></trkpt><trkpt lat="45.6850674" lon="11.7249726"><ele>68.8</ele><time>2026-05-02T08:14:50.103Z</time></trkpt><trkpt lat="45.6850768" lon="11.7251318"><ele>68.4</ele><time>2026-05-02T08:14:52.103Z</time></trkpt><trkpt lat="45.685091" lon="11.7252984"><ele>68.0</ele><time>2026-05-02T08:14:54.103Z</time></trkpt><trkpt lat="45.6851139" lon="11.7254706"><ele>68.0</ele><time>2026-05-02T08:14:56.104Z</time></trkpt><trkpt lat="45.6851361" lon="11.7256306"><ele>68.0</ele><time>2026-05-02T08:14:58.103Z</time></trkpt><trkpt lat="45.6851531" lon="11.7257923"><ele>68.0</ele><time>2026-05-02T08:15:00.104Z</time></trkpt><trkpt lat="45.6851669" lon="11.7259568"><ele>68.0</ele><time>2026-05-02T08:15:02.104Z</time></trkpt><trkpt lat="45.6851877" lon="11.7261186"><ele>68.4</ele><time>2026-05-02T08:15:04.104Z</time></trkpt><trkpt lat="45.6852125" lon="11.7262714"><ele>68.8</ele><time>2026-05-02T08:15:06.104Z</time></trkpt><trkpt lat="45.6852372" lon="11.7264209"><ele>69.2</ele><time>2026-05-02T08:15:08.103Z</time></trkpt><trkpt lat="45.6852737" lon="11.7265691"><ele>69.6</ele><time>2026-05-02T08:15:10.104Z</time></trkpt><trkpt lat="45.6853062" lon="11.7267237"><ele>70.0</ele><time>2026-05-02T08:15:12.104Z</time></trkpt><trkpt lat="45.6853225" lon="11.7268787"><ele>70.0</ele><time>2026-05-02T08:15:14.104Z</time></trkpt><trkpt lat="45.6853418" lon="11.7270312"><ele>70.0</ele><time>2026-05-02T08:15:16.104Z</time></trkpt><trkpt lat="45.6853491" lon="11.7271821"><ele>70.0</ele><time>2026-05-02T08:15:18.103Z</time></trkpt><trkpt lat="45.6853602" lon="11.7273198"><ele>70.0</ele><time>2026-05-02T08:15:20.104Z</time></trkpt><trkpt lat="45.6853764" lon="11.7274434"><ele>70.0</ele><time>2026-05-02T08:15:22.104Z</time></trkpt><trkpt lat="45.6853871" lon="11.7275612"><ele>70.0</ele><time>2026-05-02T08:15:24.104Z</time></trkpt><trkpt lat="45.6854144" lon="11.7276736"><ele>70.0</ele><time>2026-05-02T08:15:26.103Z</time></trkpt><trkpt lat="45.6854364" lon="11.7277853"><ele>70.0</ele><time>2026-05-02T08:15:28.104Z</time></trkpt><trkpt lat="45.6854754" lon="11.7279409"><ele>70.0</ele><time>2026-05-02T08:15:31.002Z</time></trkpt><trkpt lat="45.6854846" lon="11.7280912"><ele>70.0</ele><time>2026-05-02T08:15:33.104Z</time></trkpt><trkpt lat="45.6855" lon="11.7282274"><ele>70.0</ele><time>2026-05-02T08:15:35.104Z</time></trkpt><trkpt lat="45.6855142" lon="11.7283678"><ele>70.0</ele><time>2026-05-02T08:15:37.104Z</time></trkpt><trkpt lat="45.685536" lon="11.7285077"><ele>70.0</ele><time>2026-05-02T08:15:39.104Z</time></trkpt><trkpt lat="45.6855555" lon="11.7286474"><ele>70.0</ele><time>2026-05-02T08:15:41.104Z</time></trkpt><trkpt lat="45.6855775" lon="11.728791"><ele>70.0</ele><time>2026-05-02T08:15:43.104Z</time></trkpt><trkpt lat="45.6855948" lon="11.7289391"><ele>70.0</ele><time>2026-05-02T08:15:45.104Z</time></trkpt><trkpt lat="45.685611" lon="11.7290692"><ele>70.0</ele><time>2026-05-02T08:15:47.104Z</time></trkpt><trkpt lat="45.6856286" lon="11.7291947"><ele>70.0</ele><time>2026-05-02T08:15:49.104Z</time></trkpt><trkpt lat="45.6856499" lon="11.729312"><ele>70.0</ele><time>2026-05-02T08:15:51.104Z</time></trkpt><trkpt lat="45.6856678" lon="11.7294343"><ele>70.0</ele><time>2026-05-02T08:15:53.104Z</time></trkpt><trkpt lat="45.6856915" lon="11.7295471"><ele>70.0</ele><time>2026-05-02T08:15:55.104Z</time></trkpt><trkpt lat="45.6857032" lon="11.7296582"><ele>70.0</ele><time>2026-05-02T08:15:57.105Z</time></trkpt><trkpt lat="45.685713" lon="11.7297682"><ele>70.0</ele><time>2026-05-02T08:15:59.105Z</time></trkpt><trkpt lat="45.6857282" lon="11.729873"><ele>70.0</ele><time>2026-05-02T08:16:01.105Z</time></trkpt><trkpt lat="45.6857492" lon="11.7299798"><ele>70.0</ele><time>2026-05-02T08:16:03.105Z</time></trkpt><trkpt lat="45.6857582" lon="11.7300971"><ele>70.0</ele><time>2026-05-02T08:16:05.105Z</time></trkpt><trkpt lat="45.6857727" lon="11.7302121"><ele>70.0</ele><time>2026-05-02T08:16:07.105Z</time></trkpt><trkpt lat="45.6857879" lon="11.7303133"><ele>70.16666666666666</ele><time>2026-05-02T08:16:09.105Z</time></trkpt><trkpt lat="45.6858117" lon="11.730417"><ele>70.33333333333333</ele><time>2026-05-02T08:16:11.105Z</time></trkpt><trkpt lat="45.685886" lon="11.7304491"><ele>70.5</ele><time>2026-05-02T08:16:13.105Z</time></trkpt><trkpt lat="45.6859791" lon="11.7304224"><ele>70.66666666666667</ele><time>2026-05-02T08:16:15.105Z</time></trkpt><trkpt lat="45.6860629" lon="11.7304116"><ele>70.83333333333334</ele><time>2026-05-02T08:16:17.105Z</time></trkpt><trkpt lat="45.6861491" lon="11.7304227"><ele>71.0</ele><time>2026-05-02T08:16:19.105Z</time></trkpt><trkpt lat="45.6862437" lon="11.7304239"><ele>71.0</ele><time>2026-05-02T08:16:21.105Z</time></trkpt><trkpt lat="45.6863381" lon="11.7304175"><ele>71.0</ele><time>2026-05-02T08:16:23.105Z</time></trkpt><trkpt lat="45.6864331" lon="11.7304184"><ele>71.0</ele><time>2026-05-02T08:16:25.105Z</time></trkpt><trkpt lat="45.6865264" lon="11.7304198"><ele>71.0</ele><time>2026-05-02T08:16:27.105Z</time></trkpt><trkpt lat="45.6866186" lon="11.7304158"><ele>71.0</ele><time>2026-05-02T08:16:29.104Z</time></trkpt><trkpt lat="45.6867148" lon="11.7304109"><ele>71.0</ele><time>2026-05-02T08:16:31.105Z</time></trkpt><trkpt lat="45.6868099" lon="11.7304144"><ele>71.0</ele><time>2026-05-02T08:16:33.105Z</time></trkpt><trkpt lat="45.6869034" lon="11.7304118"><ele>71.0</ele><time>2026-05-02T08:16:35.106Z</time></trkpt><trkpt lat="45.6869985" lon="11.7304077"><ele>71.0</ele><time>2026-05-02T08:16:37.104Z</time></trkpt><trkpt lat="45.6870994" lon="11.730407"><ele>71.0</ele><time>2026-05-02T08:16:39.106Z</time></trkpt><trkpt lat="45.6871909" lon="11.7303995"><ele>70.83333333333334</ele><time>2026-05-02T08:16:41.105Z</time></trkpt><trkpt lat="45.68728" lon="11.7303997"><ele>70.66666666666667</ele><time>2026-05-02T08:16:43.105Z</time></trkpt><trkpt lat="45.6873699" lon="11.7303997"><ele>70.5</ele><time>2026-05-02T08:16:45.105Z</time></trkpt><trkpt lat="45.6874639" lon="11.7303948"><ele>70.33333333333333</ele><time>2026-05-02T08:16:47.105Z</time></trkpt><trkpt lat="45.6875524" lon="11.7303991"><ele>70.16666666666666</ele><time>2026-05-02T08:16:49.105Z</time></trkpt><trkpt lat="45.6876397" lon="11.7303906"><ele>70.0</ele><time>2026-05-02T08:16:51.104Z</time></trkpt><trkpt lat="45.6877307" lon="11.7303838"><ele>70.16666666666666</ele><time>2026-05-02T08:16:53.104Z</time></trkpt><trkpt lat="45.6878206" lon="11.7303912"><ele>70.33333333333333</ele><time>2026-05-02T08:16:55.106Z</time></trkpt><trkpt lat="45.6879083" lon="11.7303907"><ele>70.5</ele><time>2026-05-02T08:16:57.106Z</time></trkpt><trkpt lat="45.6879834" lon="11.730385"><ele>70.66666666666667</ele><time>2026-05-02T08:16:59.106Z</time></trkpt><trkpt lat="45.6880566" lon="11.7303768"><ele>70.83333333333334</ele><time>2026-05-02T08:17:01.106Z</time></trkpt><trkpt lat="45.6881412" lon="11.7303963"><ele>71.0</ele><time>2026-05-02T08:17:04.105Z</time></trkpt><trkpt lat="45.6882465" lon="11.7303921"><ele>71.0</ele><time>2026-05-02T08:17:07.106Z</time></trkpt><trkpt lat="45.6883454" lon="11.7303995"><ele>71.0</ele><time>2026-05-02T08:17:09.106Z</time></trkpt><trkpt lat="45.6884282" lon="11.7304382"><ele>71.0</ele><time>2026-05-02T08:17:11.106Z</time></trkpt><trkpt lat="45.6885028" lon="11.7304587"><ele>71.0</ele><time>2026-05-02T08:17:13.106Z</time></trkpt><trkpt lat="45.6885897" lon="11.7304754"><ele>71.0</ele><time>2026-05-02T08:17:15.106Z</time></trkpt><trkpt lat="45.6886784" lon="11.7304828"><ele>71.0</ele><time>2026-05-02T08:17:17.106Z</time></trkpt><trkpt lat="45.6887623" lon="11.7305435"><ele>71.16666666666667</ele><time>2026-05-02T08:17:19.105Z</time></trkpt><trkpt lat="45.6888379" lon="11.7306093"><ele>71.33333333333334</ele><time>2026-05-02T08:17:21.106Z</time></trkpt><trkpt lat="45.6889019" lon="11.7306923"><ele>71.5</ele><time>2026-05-02T08:17:23.106Z</time></trkpt><trkpt lat="45.6889599" lon="11.7307855"><ele>71.66666666666667</ele><time>2026-05-02T08:17:25.106Z</time></trkpt><trkpt lat="45.6890136" lon="11.7308634"><ele>71.83333333333333</ele><time>2026-05-02T08:17:27.106Z</time></trkpt><trkpt lat="45.6890839" lon="11.7309374"><ele>72.0</ele><time>2026-05-02T08:17:29.106Z</time></trkpt><trkpt lat="45.6891451" lon="11.7310364"><ele>72.0</ele><time>2026-05-02T08:17:31.106Z</time></trkpt><trkpt lat="45.6891646" lon="11.7311695"><ele>72.0</ele><time>2026-05-02T08:17:33.106Z</time></trkpt><trkpt lat="45.6891789" lon="11.7313073"><ele>72.0</ele><time>2026-05-02T08:17:35.106Z</time></trkpt><trkpt lat="45.6891934" lon="11.7314389"><ele>72.0</ele><time>2026-05-02T08:17:37.107Z</time></trkpt><trkpt lat="45.6892075" lon="11.7315715"><ele>72.0</ele><time>2026-05-02T08:17:39.106Z</time></trkpt><trkpt lat="45.6892191" lon="11.7317068"><ele>72.0</ele><time>2026-05-02T08:17:41.107Z</time></trkpt><trkpt lat="45.6892234" lon="11.7318369"><ele>72.0</ele><time>2026-05-02T08:17:43.106Z</time></trkpt><trkpt lat="45.6892351" lon="11.7319738"><ele>72.0</ele><time>2026-05-02T08:17:45.107Z</time></trkpt><trkpt lat="45.6892521" lon="11.732097"><ele>72.0</ele><time>2026-05-02T08:17:47.106Z</time></trkpt><trkpt lat="45.6892746" lon="11.7322179"><ele>72.0</ele><time>2026-05-02T08:17:49.107Z</time></trkpt><trkpt lat="45.689306" lon="11.7323401"><ele>72.0</ele><time>2026-05-02T08:17:51.107Z</time></trkpt><trkpt lat="45.6893275" lon="11.7324591"><ele>72.0</ele><time>2026-05-02T08:17:53.107Z</time></trkpt><trkpt lat="45.6894249" lon="11.7325337"><ele>72.0</ele><time>2026-05-02T08:17:56.107Z</time></trkpt><trkpt lat="45.6895127" lon="11.7325338"><ele>72.0</ele><time>2026-05-02T08:17:58.107Z</time></trkpt><trkpt lat="45.6896024" lon="11.7325342"><ele>72.0</ele><time>2026-05-02T08:18:00.107Z</time></trkpt><trkpt lat="45.6896957" lon="11.7325233"><ele>72.2</ele><time>2026-05-02T08:18:02.107Z</time></trkpt><trkpt lat="45.6897987" lon="11.7325125"><ele>72.4</ele><time>2026-05-02T08:18:04.107Z</time></trkpt><trkpt lat="45.6898954" lon="11.7325076"><ele>72.6</ele><time>2026-05-02T08:18:06.107Z</time></trkpt><trkpt lat="45.6900021" lon="11.732492"><ele>72.8</ele><time>2026-05-02T08:18:08.107Z</time></trkpt><trkpt lat="45.6901063" lon="11.7324929"><ele>73.0</ele><time>2026-05-02T08:18:10.106Z</time></trkpt><trkpt lat="45.6902002" lon="11.7324792"><ele>73.0</ele><time>2026-05-02T08:18:12.107Z</time></trkpt><trkpt lat="45.6903019" lon="11.7324672"><ele>73.0</ele><time>2026-05-02T08:18:14.106Z</time></trkpt><trkpt lat="45.6904035" lon="11.7324575"><ele>73.0</ele><time>2026-05-02T08:18:16.107Z</time></trkpt><trkpt lat="45.6904973" lon="11.7324541"><ele>73.0</ele><time>2026-05-02T08:18:18.107Z</time></trkpt><trkpt lat="45.6905921" lon="11.7324456"><ele>73.0</ele><time>2026-05-02T08:18:20.107Z</time></trkpt><trkpt lat="45.6906808" lon="11.7324381"><ele>73.0</ele><time>2026-05-02T08:18:22.107Z</time></trkpt><trkpt lat="45.6907635" lon="11.7324435"><ele>73.0</ele><time>2026-05-02T08:18:24.107Z</time></trkpt><trkpt lat="45.6908431" lon="11.7324413"><ele>73.0</ele><time>2026-05-02T08:18:26.107Z</time></trkpt><trkpt lat="45.6909218" lon="11.7324717"><ele>73.0</ele><time>2026-05-02T08:18:29.203Z</time></trkpt><trkpt lat="45.6909871" lon="11.7324363"><ele>73.0</ele><time>2026-05-02T08:18:30.109Z</time></trkpt><trkpt lat="45.691085" lon="11.7324346"><ele>73.0</ele><time>2026-05-02T08:18:32.223Z</time></trkpt><trkpt lat="45.6911703" lon="11.7324277"><ele>73.16666666666666</ele><time>2026-05-02T08:18:34.221Z</time></trkpt><trkpt lat="45.6912469" lon="11.7324038"><ele>73.33333333333333</ele><time>2026-05-02T08:18:36.148Z</time></trkpt><trkpt lat="45.6913255" lon="11.7323833"><ele>73.5</ele><time>2026-05-02T08:18:38.161Z</time></trkpt><trkpt lat="45.6914099" lon="11.7323633"><ele>73.66666666666667</ele><time>2026-05-02T08:18:40.174Z</time></trkpt><trkpt lat="45.6914964" lon="11.7323425"><ele>73.83333333333334</ele><time>2026-05-02T08:18:42.188Z</time></trkpt><trkpt lat="45.6915839" lon="11.7323292"><ele>74.0</ele><time>2026-05-02T08:18:44.2Z</time></trkpt><trkpt lat="45.691669" lon="11.732329"><ele>74.0</ele><time>2026-05-02T08:18:46.214Z</time></trkpt><trkpt lat="45.6917437" lon="11.7323204"><ele>74.0</ele><time>2026-05-02T08:18:48.126Z</time></trkpt><trkpt lat="45.6917932" lon="11.7322608"><ele>74.0</ele><time>2026-05-02T08:18:50.139Z</time></trkpt><trkpt lat="45.6917983" lon="11.7321635"><ele>74.0</ele><time>2026-05-02T08:18:52.153Z</time></trkpt><trkpt lat="45.6918317" lon="11.7320646"><ele>74.0</ele><time>2026-05-02T08:18:55.172Z</time></trkpt><trkpt lat="45.6918698" lon="11.7321707"><ele>74.0</ele><time>2026-05-02T08:18:58.193Z</time></trkpt><trkpt lat="45.6918798" lon="11.7322736"><ele>74.0</ele><time>2026-05-02T08:19:00.205Z</time></trkpt><trkpt lat="45.6918952" lon="11.7323743"><ele>74.16666666666667</ele><time>2026-05-02T08:19:01.921Z</time></trkpt><trkpt lat="45.6919256" lon="11.7325038"><ele>74.33333333333334</ele><time>2026-05-02T08:19:04.069Z</time></trkpt><trkpt lat="45.6919493" lon="11.7326324"><ele>74.5</ele><time>2026-05-02T08:19:06.145Z</time></trkpt><trkpt lat="45.6919756" lon="11.7327504"><ele>74.66666666666667</ele><time>2026-05-02T08:19:08.087Z</time></trkpt><trkpt lat="45.6920377" lon="11.7328036"><ele>74.83333333333333</ele><time>2026-05-02T08:19:10.171Z</time></trkpt><trkpt lat="45.692114" lon="11.732785"><ele>75.0</ele><time>2026-05-02T08:19:12.184Z</time></trkpt><trkpt lat="45.6921987" lon="11.7327578"><ele>75.0</ele><time>2026-05-02T08:19:14.196Z</time></trkpt><trkpt lat="45.6922952" lon="11.7327394"><ele>75.0</ele><time>2026-05-02T08:19:16.22Z</time></trkpt><trkpt lat="45.6923821" lon="11.7327113"><ele>75.0</ele><time>2026-05-02T08:19:18.201Z</time></trkpt><trkpt lat="45.6924651" lon="11.732685"><ele>75.0</ele><time>2026-05-02T08:19:20.108Z</time></trkpt><trkpt lat="45.6925754" lon="11.7326837"><ele>75.0</ele><time>2026-05-02T08:19:22.108Z</time></trkpt><trkpt lat="45.6926762" lon="11.7326961"><ele>75.0</ele><time>2026-05-02T08:19:24.108Z</time></trkpt><trkpt lat="45.6927748" lon="11.7326673"><ele>75.0</ele><time>2026-05-02T08:19:26.109Z</time></trkpt><trkpt lat="45.6928698" lon="11.7326437"><ele>75.0</ele><time>2026-05-02T08:19:28.109Z</time></trkpt><trkpt lat="45.6929571" lon="11.7326277"><ele>75.0</ele><time>2026-05-02T08:19:30.108Z</time></trkpt><trkpt lat="45.6930388" lon="11.7326208"><ele>75.0</ele><time>2026-05-02T08:19:32.107Z</time></trkpt><trkpt lat="45.6931129" lon="11.7326145"><ele>75.0</ele><time>2026-05-02T08:19:34.109Z</time></trkpt><trkpt lat="45.6931808" lon="11.7326265"><ele>75.0</ele><time>2026-05-02T08:19:36.109Z</time></trkpt><trkpt lat="45.6932482" lon="11.7326858"><ele>75.0</ele><time>2026-05-02T08:19:38.109Z</time></trkpt><trkpt lat="45.6933246" lon="11.732692"><ele>75.0</ele><time>2026-05-02T08:19:40.109Z</time></trkpt><trkpt lat="45.6934024" lon="11.7326847"><ele>75.0</ele><time>2026-05-02T08:19:42.108Z</time></trkpt><trkpt lat="45.6934882" lon="11.7326812"><ele>75.0</ele><time>2026-05-02T08:19:44.109Z</time></trkpt><trkpt lat="45.6935782" lon="11.7326738"><ele>75.0</ele><time>2026-05-02T08:19:46.109Z</time></trkpt><trkpt lat="45.6936751" lon="11.7326788"><ele>75.0</ele><time>2026-05-02T08:19:48.109Z</time></trkpt><trkpt lat="45.6937756" lon="11.7326758"><ele>75.0</ele><time>2026-05-02T08:19:50.109Z</time></trkpt><trkpt lat="45.693876" lon="11.7326769"><ele>75.0</ele><time>2026-05-02T08:19:52.108Z</time></trkpt><trkpt lat="45.6939705" lon="11.7326769"><ele>75.0</ele><time>2026-05-02T08:19:54.109Z</time></trkpt><trkpt lat="45.694061" lon="11.7326655"><ele>75.0</ele><time>2026-05-02T08:19:56.109Z</time></trkpt><trkpt lat="45.6941494" lon="11.7326721"><ele>75.0</ele><time>2026-05-02T08:19:58.108Z</time></trkpt><trkpt lat="45.6942395" lon="11.7326912"><ele>75.0</ele><time>2026-05-02T08:20:00.109Z</time></trkpt><trkpt lat="45.6943272" lon="11.7327005"><ele>75.0</ele><time>2026-05-02T08:20:02.109Z</time></trkpt><trkpt lat="45.6944244" lon="11.7326896"><ele>75.0</ele><time>2026-05-02T08:20:04.108Z</time></trkpt><trkpt lat="45.6945199" lon="11.7326757"><ele>75.0</ele><time>2026-05-02T08:20:06.109Z</time></trkpt><trkpt lat="45.6945944" lon="11.7326743"><ele>75.0</ele><time>2026-05-02T08:20:08.109Z</time></trkpt><trkpt lat="45.6946859" lon="11.7326651"><ele>75.2</ele><time>2026-05-02T08:20:10.109Z</time></trkpt><trkpt lat="45.6947803" lon="11.7326432"><ele>75.4</ele><time>2026-05-02T08:20:12.109Z</time></trkpt><trkpt lat="45.6948833" lon="11.7326502"><ele>75.6</ele><time>2026-05-02T08:20:14.108Z</time></trkpt><trkpt lat="45.6949887" lon="11.7327006"><ele>75.8</ele><time>2026-05-02T08:20:16.109Z</time></trkpt><trkpt lat="45.6951064" lon="11.7327213"><ele>76.0</ele><time>2026-05-02T08:20:18.109Z</time></trkpt><trkpt lat="45.695208" lon="11.7326954"><ele>75.8</ele><time>2026-05-02T08:20:20.109Z</time></trkpt><trkpt lat="45.6953152" lon="11.7326521"><ele>75.6</ele><time>2026-05-02T08:20:22.11Z</time></trkpt><trkpt lat="45.6954187" lon="11.7326615"><ele>75.4</ele><time>2026-05-02T08:20:24.11Z</time></trkpt><trkpt lat="45.6955217" lon="11.7326912"><ele>75.2</ele><time>2026-05-02T08:20:26.109Z</time></trkpt><trkpt lat="45.6956176" lon="11.7326991"><ele>75.0</ele><time>2026-05-02T08:20:28.109Z</time></trkpt><trkpt lat="45.6957175" lon="11.7326988"><ele>75.0</ele><time>2026-05-02T08:20:30.109Z</time></trkpt><trkpt lat="45.6958159" lon="11.7326968"><ele>75.0</ele><time>2026-05-02T08:20:32.109Z</time></trkpt><trkpt lat="45.6959299" lon="11.7327009"><ele>75.0</ele><time>2026-05-02T08:20:34.11Z</time></trkpt><trkpt lat="45.696032" lon="11.7327122"><ele>75.0</ele><time>2026-05-02T08:20:36.109Z</time></trkpt><trkpt lat="45.6961367" lon="11.7327201"><ele>75.0</ele><time>2026-05-02T08:20:38.109Z</time></trkpt><trkpt lat="45.6962382" lon="11.7327222"><ele>75.2</ele><time>2026-05-02T08:20:40.11Z</time></trkpt><trkpt lat="45.6963304" lon="11.7327197"><ele>75.4</ele><time>2026-05-02T08:20:42.11Z</time></trkpt><trkpt lat="45.6964291" lon="11.7327103"><ele>75.6</ele><time>2026-05-02T08:20:44.11Z</time></trkpt><trkpt lat="45.6965271" lon="11.732707"><ele>75.8</ele><time>2026-05-02T08:20:46.109Z</time></trkpt><trkpt lat="45.6966229" lon="11.7327039"><ele>76.0</ele><time>2026-05-02T08:20:48.11Z</time></trkpt><trkpt lat="45.6967294" lon="11.7327094"><ele>76.0</ele><time>2026-05-02T08:20:50.11Z</time></trkpt><trkpt lat="45.6968334" lon="11.732717"><ele>76.0</ele><time>2026-05-02T08:20:52.109Z</time></trkpt><trkpt lat="45.6969295" lon="11.732718"><ele>76.0</ele><time>2026-05-02T08:20:54.109Z</time></trkpt><trkpt lat="45.6970275" lon="11.7327264"><ele>76.0</ele><time>2026-05-02T08:20:56.109Z</time></trkpt><trkpt lat="45.6971288" lon="11.7327267"><ele>76.0</ele><time>2026-05-02T08:20:58.11Z</time></trkpt><trkpt lat="45.6972389" lon="11.7327238"><ele>76.39999999999999</ele><time>2026-05-02T08:21:00.109Z</time></trkpt><trkpt lat="45.6973406" lon="11.7326642"><ele>76.8</ele><time>2026-05-02T08:21:02.11Z</time></trkpt><trkpt lat="45.6974478" lon="11.7326318"><ele>77.19999999999999</ele><time>2026-05-02T08:21:04.109Z</time></trkpt><trkpt lat="45.6975661" lon="11.7326449"><ele>77.6</ele><time>2026-05-02T08:21:06.11Z</time></trkpt><trkpt lat="45.6976709" lon="11.7326441"><ele>78.0</ele><time>2026-05-02T08:21:08.109Z</time></trkpt><trkpt lat="45.6977833" lon="11.7326355"><ele>78.0</ele><time>2026-05-02T08:21:10.11Z</time></trkpt><trkpt lat="45.6978982" lon="11.7326351"><ele>78.0</ele><time>2026-05-02T08:21:12.11Z</time></trkpt><trkpt lat="45.6979988" lon="11.7326227"><ele>78.0</ele><time>2026-05-02T08:21:14.11Z</time></trkpt><trkpt lat="45.6981042" lon="11.7326116"><ele>78.0</ele><time>2026-05-02T08:21:16.11Z</time></trkpt><trkpt lat="45.6982132" lon="11.7326276"><ele>78.0</ele><time>2026-05-02T08:21:18.111Z</time></trkpt><trkpt lat="45.6983278" lon="11.7326452"><ele>78.0</ele><time>2026-05-02T08:21:20.111Z</time></trkpt><trkpt lat="45.6984367" lon="11.7326685"><ele>78.0</ele><time>2026-05-02T08:21:22.11Z</time></trkpt><trkpt lat="45.6985477" lon="11.7326853"><ele>78.0</ele><time>2026-05-02T08:21:24.11Z</time></trkpt><trkpt lat="45.6986644" lon="11.7326952"><ele>78.0</ele><time>2026-05-02T08:21:26.111Z</time></trkpt><trkpt lat="45.6987774" lon="11.7327144"><ele>78.2</ele><time>2026-05-02T08:21:28.111Z</time></trkpt><trkpt lat="45.6988892" lon="11.7327321"><ele>78.4</ele><time>2026-05-02T08:21:30.111Z</time></trkpt><trkpt lat="45.6989982" lon="11.7327544"><ele>78.60000000000001</ele><time>2026-05-02T08:21:32.111Z</time></trkpt><trkpt lat="45.6991049" lon="11.7327755"><ele>78.8</ele><time>2026-05-02T08:21:34.11Z</time></trkpt><trkpt lat="45.6992134" lon="11.7327831"><ele>79.0</ele><time>2026-05-02T08:21:36.111Z</time></trkpt><trkpt lat="45.6993222" lon="11.7327924"><ele>79.0</ele><time>2026-05-02T08:21:38.11Z</time></trkpt><trkpt lat="45.6994299" lon="11.7328115"><ele>79.0</ele><time>2026-05-02T08:21:40.11Z</time></trkpt><trkpt lat="45.6995399" lon="11.7328199"><ele>79.0</ele><time>2026-05-02T08:21:42.111Z</time></trkpt><trkpt lat="45.6996542" lon="11.7328448"><ele>79.0</ele><time>2026-05-02T08:21:44.111Z</time></trkpt><trkpt lat="45.6997664" lon="11.732873"><ele>79.0</ele><time>2026-05-02T08:21:46.111Z</time></trkpt><trkpt lat="45.6998806" lon="11.7328879"><ele>79.0</ele><time>2026-05-02T08:21:48.111Z</time></trkpt><trkpt lat="45.6999958" lon="11.7329013"><ele>79.0</ele><time>2026-05-02T08:21:50.11Z</time></trkpt><trkpt lat="45.7001134" lon="11.7329227"><ele>79.0</ele><time>2026-05-02T08:21:52.11Z</time></trkpt><trkpt lat="45.7002298" lon="11.732945"><ele>79.0</ele><time>2026-05-02T08:21:54.111Z</time></trkpt><trkpt lat="45.7003444" lon="11.7329607"><ele>78.75</ele><time>2026-05-02T08:21:56.11Z</time></trkpt><trkpt lat="45.7004583" lon="11.7329776"><ele>78.5</ele><time>2026-05-02T08:21:58.11Z</time></trkpt><trkpt lat="45.7005718" lon="11.7329963"><ele>78.25</ele><time>2026-05-02T08:22:00.111Z</time></trkpt><trkpt lat="45.7006847" lon="11.7330087"><ele>78.0</ele><time>2026-05-02T08:22:02.11Z</time></trkpt><trkpt lat="45.700799" lon="11.7330218"><ele>78.0</ele><time>2026-05-02T08:22:04.111Z</time></trkpt><trkpt lat="45.7009126" lon="11.733025"><ele>78.0</ele><time>2026-05-02T08:22:06.111Z</time></trkpt><trkpt lat="45.7010243" lon="11.7330291"><ele>78.0</ele><time>2026-05-02T08:22:08.11Z</time></trkpt><trkpt lat="45.7011401" lon="11.733026"><ele>78.0</ele><time>2026-05-02T08:22:10.111Z</time></trkpt><trkpt lat="45.7012525" lon="11.7330244"><ele>77.8</ele><time>2026-05-02T08:22:12.111Z</time></trkpt><trkpt lat="45.7013558" lon="11.7330214"><ele>77.6</ele><time>2026-05-02T08:22:14.112Z</time></trkpt><trkpt lat="45.7014489" lon="11.7330197"><ele>77.4</ele><time>2026-05-02T08:22:16.111Z</time></trkpt><trkpt lat="45.7015411" lon="11.7330087"><ele>77.2</ele><time>2026-05-02T08:22:18.111Z</time></trkpt><trkpt lat="45.7016266" lon="11.7330209"><ele>77.0</ele><time>2026-05-02T08:22:20.112Z</time></trkpt><trkpt lat="45.7017008" lon="11.7330017"><ele>77.0</ele><time>2026-05-02T08:22:22.112Z</time></trkpt><trkpt lat="45.7017689" lon="11.7329284"><ele>77.0</ele><time>2026-05-02T08:22:24.111Z</time></trkpt><trkpt lat="45.7018548" lon="11.7329949"><ele>77.0</ele><time>2026-05-02T08:22:26.112Z</time></trkpt><trkpt lat="45.7019353" lon="11.7330494"><ele>77.0</ele><time>2026-05-02T08:22:29.111Z</time></trkpt><trkpt lat="45.7020329" lon="11.7330335"><ele>77.0</ele><time>2026-05-02T08:22:31.112Z</time></trkpt><trkpt lat="45.7021305" lon="11.7330181"><ele>77.2</ele><time>2026-05-02T08:22:33.111Z</time></trkpt><trkpt lat="45.7022269" lon="11.7330032"><ele>77.4</ele><time>2026-05-02T08:22:35.112Z</time></trkpt><trkpt lat="45.7023254" lon="11.7329863"><ele>77.6</ele><time>2026-05-02T08:22:37.112Z</time></trkpt><trkpt lat="45.7024213" lon="11.7329834"><ele>77.8</ele><time>2026-05-02T08:22:39.112Z</time></trkpt><trkpt lat="45.7025165" lon="11.7329793"><ele>78.0</ele><time>2026-05-02T08:22:41.112Z</time></trkpt><trkpt lat="45.7026097" lon="11.7329637"><ele>78.0</ele><time>2026-05-02T08:22:43.112Z</time></trkpt><trkpt lat="45.7027093" lon="11.7329513"><ele>78.0</ele><time>2026-05-02T08:22:45.111Z</time></trkpt><trkpt lat="45.7028091" lon="11.7329455"><ele>78.0</ele><time>2026-05-02T08:22:47.112Z</time></trkpt><trkpt lat="45.7029058" lon="11.7329384"><ele>78.0</ele><time>2026-05-02T08:22:49.111Z</time></trkpt><trkpt lat="45.7030024" lon="11.7329252"><ele>78.0</ele><time>2026-05-02T08:22:51.112Z</time></trkpt><trkpt lat="45.7031012" lon="11.7329131"><ele>78.2</ele><time>2026-05-02T08:22:53.112Z</time></trkpt><trkpt lat="45.7031973" lon="11.7329031"><ele>78.4</ele><time>2026-05-02T08:22:55.112Z</time></trkpt><trkpt lat="45.7032928" lon="11.73289"><ele>78.60000000000001</ele><time>2026-05-02T08:22:57.112Z</time></trkpt><trkpt lat="45.7033886" lon="11.7328803"><ele>78.8</ele><time>2026-05-02T08:22:59.112Z</time></trkpt><trkpt lat="45.7034827" lon="11.7328727"><ele>79.0</ele><time>2026-05-02T08:23:01.112Z</time></trkpt><trkpt lat="45.7035791" lon="11.7328615"><ele>79.2</ele><time>2026-05-02T08:23:03.112Z</time></trkpt><trkpt lat="45.7036786" lon="11.7328518"><ele>79.4</ele><time>2026-05-02T08:23:05.112Z</time></trkpt><trkpt lat="45.703771" lon="11.7328446"><ele>79.6</ele><time>2026-05-02T08:23:07.112Z</time></trkpt><trkpt lat="45.7038641" lon="11.7328335"><ele>79.8</ele><time>2026-05-02T08:23:09.112Z</time></trkpt><trkpt lat="45.7039572" lon="11.7328233"><ele>80.0</ele><time>2026-05-02T08:23:11.113Z</time></trkpt><trkpt lat="45.7040533" lon="11.7328209"><ele>80.0</ele><time>2026-05-02T08:23:13.112Z</time></trkpt><trkpt lat="45.7041472" lon="11.7328234"><ele>80.0</ele><time>2026-05-02T08:23:15.112Z</time></trkpt><trkpt lat="45.7042305" lon="11.7328096"><ele>80.0</ele><time>2026-05-02T08:23:17.111Z</time></trkpt><trkpt lat="45.7043351" lon="11.7327965"><ele>80.0</ele><time>2026-05-02T08:23:19.113Z</time></trkpt><trkpt lat="45.7044226" lon="11.7327829"><ele>80.0</ele><time>2026-05-02T08:23:21.112Z</time></trkpt><trkpt lat="45.7044994" lon="11.7327798"><ele>80.0</ele><time>2026-05-02T08:23:23.112Z</time></trkpt><trkpt lat="45.7045817" lon="11.7327854"><ele>80.0</ele><time>2026-05-02T08:23:25.113Z</time></trkpt><trkpt lat="45.704678" lon="11.7327629"><ele>80.0</ele><time>2026-05-02T08:23:27.113Z</time></trkpt><trkpt lat="45.7047629" lon="11.7327309"><ele>80.0</ele><time>2026-05-02T08:23:29.112Z</time></trkpt><trkpt lat="45.7048408" lon="11.7326873"><ele>80.0</ele><time>2026-05-02T08:23:33.113Z</time></trkpt><trkpt lat="45.7049173" lon="11.7326998"><ele>80.0</ele><time>2026-05-02T08:23:35.113Z</time></trkpt><trkpt lat="45.7049818" lon="11.7326992"><ele>80.0</ele><time>2026-05-02T08:23:37.113Z</time></trkpt><trkpt lat="45.7050577" lon="11.7326753"><ele>80.0</ele><time>2026-05-02T08:23:39.113Z</time></trkpt><trkpt lat="45.7051454" lon="11.7326504"><ele>80.0</ele><time>2026-05-02T08:23:41.113Z</time></trkpt><trkpt lat="45.7052317" lon="11.7326175"><ele>80.0</ele><time>2026-05-02T08:23:43.113Z</time></trkpt><trkpt lat="45.7053183" lon="11.732595"><ele>80.0</ele><time>2026-05-02T08:23:45.113Z</time></trkpt><trkpt lat="45.7054063" lon="11.732572"><ele>80.0</ele><time>2026-05-02T08:23:47.113Z</time></trkpt><trkpt lat="45.7054907" lon="11.7325382"><ele>80.0</ele><time>2026-05-02T08:23:49.113Z</time></trkpt><trkpt lat="45.7055792" lon="11.7325127"><ele>80.16666666666667</ele><time>2026-05-02T08:23:51.112Z</time></trkpt><trkpt lat="45.7056656" lon="11.7324959"><ele>80.33333333333334</ele><time>2026-05-02T08:23:53.113Z</time></trkpt><trkpt lat="45.705749" lon="11.7324691"><ele>80.5</ele><time>2026-05-02T08:23:55.112Z</time></trkpt><trkpt lat="45.705838" lon="11.7324375"><ele>80.66666666666667</ele><time>2026-05-02T08:23:57.113Z</time></trkpt><trkpt lat="45.7059273" lon="11.7324145"><ele>80.83333333333333</ele><time>2026-05-02T08:23:59.112Z</time></trkpt><trkpt lat="45.7060162" lon="11.7323904"><ele>81.0</ele><time>2026-05-02T08:24:01.113Z</time></trkpt><trkpt lat="45.7061052" lon="11.7323616"><ele>81.19999999999999</ele><time>2026-05-02T08:24:03.112Z</time></trkpt><trkpt lat="45.7061953" lon="11.7323394"><ele>81.39999999999999</ele><time>2026-05-02T08:24:05.112Z</time></trkpt><trkpt lat="45.7062879" lon="11.7323142"><ele>81.6</ele><time>2026-05-02T08:24:07.114Z</time></trkpt><trkpt lat="45.7063781" lon="11.7322864"><ele>81.8</ele><time>2026-05-02T08:24:09.113Z</time></trkpt><trkpt lat="45.7064674" lon="11.7322562"><ele>82.0</ele><time>2026-05-02T08:24:11.112Z</time></trkpt><trkpt lat="45.7065599" lon="11.7322485"><ele>82.0</ele><time>2026-05-02T08:24:13.113Z</time></trkpt><trkpt lat="45.706652" lon="11.7322273"><ele>82.0</ele><time>2026-05-02T08:24:15.114Z</time></trkpt><trkpt lat="45.7067567" lon="11.7322003"><ele>82.0</ele><time>2026-05-02T08:24:17.113Z</time></trkpt><trkpt lat="45.7068533" lon="11.7321769"><ele>82.0</ele><time>2026-05-02T08:24:19.114Z</time></trkpt><trkpt lat="45.7069462" lon="11.7321575"><ele>82.0</ele><time>2026-05-02T08:24:21.113Z</time></trkpt><trkpt lat="45.7070407" lon="11.7321394"><ele>82.16666666666666</ele><time>2026-05-02T08:24:23.114Z</time></trkpt><trkpt lat="45.7071254" lon="11.7321223"><ele>82.33333333333333</ele><time>2026-05-02T08:24:25.113Z</time></trkpt><trkpt lat="45.7071998" lon="11.732111"><ele>82.5</ele><time>2026-05-02T08:24:27.114Z</time></trkpt><trkpt lat="45.7072634" lon="11.7320823"><ele>82.66666666666667</ele><time>2026-05-02T08:24:29.114Z</time></trkpt><trkpt lat="45.7073087" lon="11.7320104"><ele>82.83333333333334</ele><time>2026-05-02T08:24:31.114Z</time></trkpt><trkpt lat="45.7073804" lon="11.7319913"><ele>83.0</ele><time>2026-05-02T08:24:33.113Z</time></trkpt><trkpt lat="45.7074608" lon="11.7320212"><ele>83.0</ele><time>2026-05-02T08:24:35.114Z</time></trkpt><trkpt lat="45.7075365" lon="11.7320274"><ele>83.0</ele><time>2026-05-02T08:24:37.114Z</time></trkpt><trkpt lat="45.7076201" lon="11.7320168"><ele>83.0</ele><time>2026-05-02T08:24:39.113Z</time></trkpt><trkpt lat="45.7076903" lon="11.7319944"><ele>83.0</ele><time>2026-05-02T08:24:41.114Z</time></trkpt><trkpt lat="45.7077676" lon="11.731956"><ele>83.0</ele><time>2026-05-02T08:24:43.113Z</time></trkpt><trkpt lat="45.707846" lon="11.7319262"><ele>83.0</ele><time>2026-05-02T08:24:45.114Z</time></trkpt><trkpt lat="45.7079283" lon="11.7318848"><ele>83.14285714285714</ele><time>2026-05-02T08:24:47.113Z</time></trkpt><trkpt lat="45.7080079" lon="11.7318563"><ele>83.28571428571429</ele><time>2026-05-02T08:24:49.114Z</time></trkpt><trkpt lat="45.708078" lon="11.7318271"><ele>83.42857142857143</ele><time>2026-05-02T08:24:51.114Z</time></trkpt><trkpt lat="45.708145" lon="11.7317815"><ele>83.57142857142857</ele><time>2026-05-02T08:24:53.114Z</time></trkpt><trkpt lat="45.7082039" lon="11.7317208"><ele>83.71428571428572</ele><time>2026-05-02T08:24:55.114Z</time></trkpt><trkpt lat="45.7082699" lon="11.7316987"><ele>83.85714285714286</ele><time>2026-05-02T08:24:57.113Z</time></trkpt><trkpt lat="45.7083269" lon="11.731769"><ele>84.0</ele><time>2026-05-02T08:24:59.114Z</time></trkpt><trkpt lat="45.7083988" lon="11.7317908"><ele>84.0</ele><time>2026-05-02T08:25:02.114Z</time></trkpt><trkpt lat="45.7084619" lon="11.7317784"><ele>84.0</ele><time>2026-05-02T08:25:04.113Z</time></trkpt><trkpt lat="45.7085398" lon="11.731775"><ele>84.0</ele><time>2026-05-02T08:25:06.115Z</time></trkpt><trkpt lat="45.7086144" lon="11.7317776"><ele>84.0</ele><time>2026-05-02T08:25:08.115Z</time></trkpt><trkpt lat="45.7086831" lon="11.7317637"><ele>84.0</ele><time>2026-05-02T08:25:10.115Z</time></trkpt><trkpt lat="45.7087601" lon="11.7317502"><ele>84.0</ele><time>2026-05-02T08:25:12.114Z</time></trkpt><trkpt lat="45.7088388" lon="11.7317433"><ele>84.0</ele><time>2026-05-02T08:25:14.114Z</time></trkpt><trkpt lat="45.7089117" lon="11.7317302"><ele>84.0</ele><time>2026-05-02T08:25:16.115Z</time></trkpt><trkpt lat="45.7089909" lon="11.7317256"><ele>84.0</ele><time>2026-05-02T08:25:18.113Z</time></trkpt><trkpt lat="45.7090762" lon="11.7317243"><ele>84.0</ele><time>2026-05-02T08:25:20.115Z</time></trkpt><trkpt lat="45.7091475" lon="11.7317251"><ele>84.0</ele><time>2026-05-02T08:25:22.115Z</time></trkpt><trkpt lat="45.7092227" lon="11.7317322"><ele>84.0</ele><time>2026-05-02T08:25:24.115Z</time></trkpt><trkpt lat="45.7092978" lon="11.7317237"><ele>84.0</ele><time>2026-05-02T08:25:26.115Z</time></trkpt><trkpt lat="45.7093761" lon="11.731704"><ele>84.33333333333333</ele><time>2026-05-02T08:25:28.115Z</time></trkpt><trkpt lat="45.7094578" lon="11.7317059"><ele>84.66666666666667</ele><time>2026-05-02T08:25:30.115Z</time></trkpt><trkpt lat="45.7095407" lon="11.7317022"><ele>85.0</ele><time>2026-05-02T08:25:32.115Z</time></trkpt><trkpt lat="45.7096209" lon="11.7316927"><ele>85.33333333333334</ele><time>2026-05-02T08:25:34.115Z</time></trkpt><trkpt lat="45.7097032" lon="11.7316889"><ele>85.66666666666667</ele><time>2026-05-02T08:25:36.115Z</time></trkpt><trkpt lat="45.7097861" lon="11.7316841"><ele>86.0</ele><time>2026-05-02T08:25:38.114Z</time></trkpt><trkpt lat="45.7098699" lon="11.7316782"><ele>86.0</ele><time>2026-05-02T08:25:40.115Z</time></trkpt><trkpt lat="45.709953" lon="11.7316737"><ele>86.0</ele><time>2026-05-02T08:25:42.115Z</time></trkpt><trkpt lat="45.7100298" lon="11.7316718"><ele>86.0</ele><time>2026-05-02T08:25:44.115Z</time></trkpt><trkpt lat="45.7101138" lon="11.7316593"><ele>86.0</ele><time>2026-05-02T08:25:46.115Z</time></trkpt><trkpt lat="45.7101849" lon="11.7316561"><ele>86.0</ele><time>2026-05-02T08:25:48.115Z</time></trkpt><trkpt lat="45.7102643" lon="11.731655"><ele>86.0</ele><time>2026-05-02T08:25:50.115Z</time></trkpt><trkpt lat="45.7103267" lon="11.7316315"><ele>85.83333333333334</ele><time>2026-05-02T08:25:52.114Z</time></trkpt><trkpt lat="45.7103981" lon="11.731566"><ele>85.66666666666667</ele><time>2026-05-02T08:25:55.115Z</time></trkpt><trkpt lat="45.710453" lon="11.7316304"><ele>85.5</ele><time>2026-05-02T08:25:57.115Z</time></trkpt><trkpt lat="45.7105327" lon="11.7316677"><ele>85.33333333333333</ele><time>2026-05-02T08:26:00.115Z</time></trkpt><trkpt lat="45.7106107" lon="11.7316526"><ele>85.16666666666666</ele><time>2026-05-02T08:26:02.114Z</time></trkpt><trkpt lat="45.7106844" lon="11.7316494"><ele>85.0</ele><time>2026-05-02T08:26:04.115Z</time></trkpt><trkpt lat="45.7107614" lon="11.7316673"><ele>85.0</ele><time>2026-05-02T08:26:06.114Z</time></trkpt><trkpt lat="45.710836" lon="11.7316609"><ele>85.0</ele><time>2026-05-02T08:26:08.116Z</time></trkpt><trkpt lat="45.7109174" lon="11.7316542"><ele>85.0</ele><time>2026-05-02T08:26:10.115Z</time></trkpt><trkpt lat="45.7109971" lon="11.731653"><ele>85.0</ele><time>2026-05-02T08:26:12.116Z</time></trkpt><trkpt lat="45.7110811" lon="11.7316454"><ele>85.0</ele><time>2026-05-02T08:26:14.114Z</time></trkpt><trkpt lat="45.7111717" lon="11.7316215"><ele>85.0</ele><time>2026-05-02T08:26:16.115Z</time></trkpt><trkpt lat="45.7112588" lon="11.7316128"><ele>85.0</ele><time>2026-05-02T08:26:18.116Z</time></trkpt><trkpt lat="45.7113397" lon="11.7316003"><ele>85.0</ele><time>2026-05-02T08:26:20.116Z</time></trkpt><trkpt lat="45.7114238" lon="11.7315954"><ele>85.0</ele><time>2026-05-02T08:26:22.116Z</time></trkpt><trkpt lat="45.7115037" lon="11.7315843"><ele>85.0</ele><time>2026-05-02T08:26:24.116Z</time></trkpt><trkpt lat="45.7115821" lon="11.7315769"><ele>85.0</ele><time>2026-05-02T08:26:26.116Z</time></trkpt><trkpt lat="45.7116588" lon="11.7315681"><ele>85.0</ele><time>2026-05-02T08:26:28.115Z</time></trkpt><trkpt lat="45.7117443" lon="11.7315589"><ele>85.0</ele><time>2026-05-02T08:26:30.115Z</time></trkpt><trkpt lat="45.711833" lon="11.7315546"><ele>85.0</ele><time>2026-05-02T08:26:32.116Z</time></trkpt><trkpt lat="45.7119204" lon="11.7315526"><ele>85.0</ele><time>2026-05-02T08:26:34.116Z</time></trkpt><trkpt lat="45.712007" lon="11.7315468"><ele>85.0</ele><time>2026-05-02T08:26:36.116Z</time></trkpt><trkpt lat="45.7120944" lon="11.7315389"><ele>85.0</ele><time>2026-05-02T08:26:38.116Z</time></trkpt><trkpt lat="45.7121816" lon="11.7315353"><ele>85.0</ele><time>2026-05-02T08:26:40.116Z</time></trkpt><trkpt lat="45.7122687" lon="11.7315301"><ele>85.33333333333333</ele><time>2026-05-02T08:26:42.116Z</time></trkpt><trkpt lat="45.7123537" lon="11.7315247"><ele>85.66666666666666</ele><time>2026-05-02T08:26:44.116Z</time></trkpt><trkpt lat="45.7124438" lon="11.7315186"><ele>86.0</ele><time>2026-05-02T08:26:46.116Z</time></trkpt><trkpt lat="45.7125314" lon="11.7315077"><ele>86.33333333333333</ele><time>2026-05-02T08:26:48.116Z</time></trkpt><trkpt lat="45.71262" lon="11.731498"><ele>86.66666666666667</ele><time>2026-05-02T08:26:50.116Z</time></trkpt><trkpt lat="45.7127038" lon="11.7314999"><ele>87.0</ele><time>2026-05-02T08:26:52.115Z</time></trkpt><trkpt lat="45.7127853" lon="11.7314931"><ele>87.16666666666667</ele><time>2026-05-02T08:26:54.116Z</time></trkpt><trkpt lat="45.7128727" lon="11.731493"><ele>87.33333333333333</ele><time>2026-05-02T08:26:56.116Z</time></trkpt><trkpt lat="45.7129543" lon="11.7314989"><ele>87.5</ele><time>2026-05-02T08:26:58.117Z</time></trkpt><trkpt lat="45.7130264" lon="11.7315131"><ele>87.66666666666666</ele><time>2026-05-02T08:27:00.115Z</time></trkpt><trkpt lat="45.7130934" lon="11.7315214"><ele>87.83333333333333</ele><time>2026-05-02T08:27:02.116Z</time></trkpt><trkpt lat="45.7131535" lon="11.731485"><ele>88.0</ele><time>2026-05-02T08:27:04.116Z</time></trkpt><trkpt lat="45.7132309" lon="11.7314724"><ele>88.0</ele><time>2026-05-02T08:27:06.115Z</time></trkpt><trkpt lat="45.7132877" lon="11.7315459"><ele>88.0</ele><time>2026-05-02T08:27:08.115Z</time></trkpt><trkpt lat="45.7133637" lon="11.7315666"><ele>88.0</ele><time>2026-05-02T08:27:10.117Z</time></trkpt><trkpt lat="45.7134545" lon="11.7315785"><ele>88.0</ele><time>2026-05-02T08:27:12.117Z</time></trkpt><trkpt lat="45.7135367" lon="11.7316085"><ele>88.0</ele><time>2026-05-02T08:27:14.117Z</time></trkpt><trkpt lat="45.7136103" lon="11.7316225"><ele>88.0</ele><time>2026-05-02T08:27:16.116Z</time></trkpt><trkpt lat="45.7136969" lon="11.731631"><ele>87.83333333333333</ele><time>2026-05-02T08:27:18.117Z</time></trkpt><trkpt lat="45.7137854" lon="11.7316571"><ele>87.66666666666666</ele><time>2026-05-02T08:27:20.116Z</time></trkpt><trkpt lat="45.7138756" lon="11.7316731"><ele>87.5</ele><time>2026-05-02T08:27:22.117Z</time></trkpt><trkpt lat="45.7139627" lon="11.7316939"><ele>87.33333333333333</ele><time>2026-05-02T08:27:24.117Z</time></trkpt><trkpt lat="45.7140482" lon="11.7317158"><ele>87.16666666666667</ele><time>2026-05-02T08:27:26.117Z</time></trkpt><trkpt lat="45.7141351" lon="11.7317349"><ele>87.0</ele><time>2026-05-02T08:27:28.116Z</time></trkpt><trkpt lat="45.7142143" lon="11.7317646"><ele>87.0</ele><time>2026-05-02T08:27:30.117Z</time></trkpt><trkpt lat="45.7142782" lon="11.731782"><ele>87.0</ele><time>2026-05-02T08:27:32.117Z</time></trkpt><trkpt lat="45.7143707" lon="11.7317691"><ele>87.0</ele><time>2026-05-02T08:27:35.117Z</time></trkpt><trkpt lat="45.7144329" lon="11.7318324"><ele>87.0</ele><time>2026-05-02T08:27:37.117Z</time></trkpt><trkpt lat="45.7145045" lon="11.7318685"><ele>87.0</ele><time>2026-05-02T08:27:39.116Z</time></trkpt><trkpt lat="45.7145858" lon="11.7318909"><ele>87.0</ele><time>2026-05-02T08:27:41.116Z</time></trkpt><trkpt lat="45.7146712" lon="11.7319163"><ele>87.19999999999999</ele><time>2026-05-02T08:27:43.117Z</time></trkpt><trkpt lat="45.7147586" lon="11.7319443"><ele>87.4</ele><time>2026-05-02T08:27:45.117Z</time></trkpt><trkpt lat="45.7148486" lon="11.7319637"><ele>87.6</ele><time>2026-05-02T08:27:47.117Z</time></trkpt><trkpt lat="45.7149391" lon="11.7319938"><ele>87.80000000000001</ele><time>2026-05-02T08:27:49.117Z</time></trkpt><trkpt lat="45.7150312" lon="11.7320185"><ele>88.0</ele><time>2026-05-02T08:27:51.117Z</time></trkpt><trkpt lat="45.7151237" lon="11.7320432"><ele>88.0</ele><time>2026-05-02T08:27:53.118Z</time></trkpt><trkpt lat="45.7152122" lon="11.7320747"><ele>88.0</ele><time>2026-05-02T08:27:55.118Z</time></trkpt><trkpt lat="45.7153061" lon="11.7321012"><ele>88.0</ele><time>2026-05-02T08:27:57.116Z</time></trkpt><trkpt lat="45.7153921" lon="11.7321233"><ele>88.0</ele><time>2026-05-02T08:27:59.117Z</time></trkpt><trkpt lat="45.7154836" lon="11.7321442"><ele>88.0</ele><time>2026-05-02T08:28:01.118Z</time></trkpt><trkpt lat="45.7155727" lon="11.7321764"><ele>88.4</ele><time>2026-05-02T08:28:03.118Z</time></trkpt><trkpt lat="45.7156556" lon="11.7322056"><ele>88.80000000000001</ele><time>2026-05-02T08:28:05.116Z</time></trkpt><trkpt lat="45.7157432" lon="11.7322366"><ele>89.2</ele><time>2026-05-02T08:28:07.117Z</time></trkpt><trkpt lat="45.7158306" lon="11.732263"><ele>89.6</ele><time>2026-05-02T08:28:09.117Z</time></trkpt><trkpt lat="45.7159314" lon="11.732287"><ele>90.0</ele><time>2026-05-02T08:28:11.118Z</time></trkpt><trkpt lat="45.7160271" lon="11.7323177"><ele>89.8</ele><time>2026-05-02T08:28:13.118Z</time></trkpt><trkpt lat="45.7161192" lon="11.7323461"><ele>89.6</ele><time>2026-05-02T08:28:15.118Z</time></trkpt><trkpt lat="45.7162119" lon="11.7323714"><ele>89.4</ele><time>2026-05-02T08:28:17.118Z</time></trkpt><trkpt lat="45.7163074" lon="11.7323989"><ele>89.2</ele><time>2026-05-02T08:28:19.117Z</time></trkpt><trkpt lat="45.7164052" lon="11.7324241"><ele>89.0</ele><time>2026-05-02T08:28:21.118Z</time></trkpt><trkpt lat="45.7165062" lon="11.7324542"><ele>89.0</ele><time>2026-05-02T08:28:23.118Z</time></trkpt><trkpt lat="45.7165985" lon="11.7324799"><ele>89.0</ele><time>2026-05-02T08:28:25.117Z</time></trkpt><trkpt lat="45.716695" lon="11.732511"><ele>89.0</ele><time>2026-05-02T08:28:27.118Z</time></trkpt><trkpt lat="45.7167867" lon="11.7325378"><ele>89.0</ele><time>2026-05-02T08:28:29.117Z</time></trkpt><trkpt lat="45.7168748" lon="11.7325618"><ele>89.0</ele><time>2026-05-02T08:28:31.117Z</time></trkpt><trkpt lat="45.7169575" lon="11.7325827"><ele>89.2</ele><time>2026-05-02T08:28:33.118Z</time></trkpt><trkpt lat="45.7170476" lon="11.732614"><ele>89.4</ele><time>2026-05-02T08:28:35.118Z</time></trkpt><trkpt lat="45.7171324" lon="11.7326367"><ele>89.6</ele><time>2026-05-02T08:28:37.118Z</time></trkpt><trkpt lat="45.7172221" lon="11.7326508"><ele>89.8</ele><time>2026-05-02T08:28:39.118Z</time></trkpt><trkpt lat="45.7173139" lon="11.7326616"><ele>90.0</ele><time>2026-05-02T08:28:41.118Z</time></trkpt><trkpt lat="45.7174025" lon="11.7326644"><ele>90.0</ele><time>2026-05-02T08:28:43.117Z</time></trkpt><trkpt lat="45.7175019" lon="11.7326754"><ele>90.0</ele><time>2026-05-02T08:28:45.118Z</time></trkpt><trkpt lat="45.7175969" lon="11.7326798"><ele>90.0</ele><time>2026-05-02T08:28:47.117Z</time></trkpt><trkpt lat="45.717686" lon="11.7326818"><ele>90.0</ele><time>2026-05-02T08:28:49.118Z</time></trkpt><trkpt lat="45.7177725" lon="11.732683"><ele>90.0</ele><time>2026-05-02T08:28:51.117Z</time></trkpt><trkpt lat="45.7178511" lon="11.7326753"><ele>90.0</ele><time>2026-05-02T08:28:53.118Z</time></trkpt><trkpt lat="45.7179372" lon="11.7326846"><ele>90.0</ele><time>2026-05-02T08:28:55.118Z</time></trkpt><trkpt lat="45.7180128" lon="11.7326834"><ele>90.0</ele><time>2026-05-02T08:28:57.119Z</time></trkpt><trkpt lat="45.7180928" lon="11.7326799"><ele>90.0</ele><time>2026-05-02T08:28:59.119Z</time></trkpt><trkpt lat="45.7181725" lon="11.732669"><ele>90.0</ele><time>2026-05-02T08:29:01.118Z</time></trkpt><trkpt lat="45.7182676" lon="11.7326761"><ele>90.0</ele><time>2026-05-02T08:29:04.119Z</time></trkpt><trkpt lat="45.7183448" lon="11.7327104"><ele>90.0</ele><time>2026-05-02T08:29:06.119Z</time></trkpt><trkpt lat="45.7184072" lon="11.7328006"><ele>90.0</ele><time>2026-05-02T08:29:08.118Z</time></trkpt><trkpt lat="45.7184857" lon="11.7328138"><ele>90.0</ele><time>2026-05-02T08:29:10.118Z</time></trkpt><trkpt lat="45.7185806" lon="11.7328147"><ele>90.0</ele><time>2026-05-02T08:29:12.119Z</time></trkpt><trkpt lat="45.7186853" lon="11.7328185"><ele>90.0</ele><time>2026-05-02T08:29:14.119Z</time></trkpt><trkpt lat="45.718791" lon="11.7328194"><ele>90.0</ele><time>2026-05-02T08:29:16.119Z</time></trkpt><trkpt lat="45.718889" lon="11.7328256"><ele>90.2</ele><time>2026-05-02T08:29:18.119Z</time></trkpt><trkpt lat="45.7189853" lon="11.7328347"><ele>90.4</ele><time>2026-05-02T08:29:20.118Z</time></trkpt><trkpt lat="45.7190799" lon="11.7328478"><ele>90.6</ele><time>2026-05-02T08:29:22.119Z</time></trkpt><trkpt lat="45.7191746" lon="11.7328585"><ele>90.8</ele><time>2026-05-02T08:29:24.118Z</time></trkpt><trkpt lat="45.7192714" lon="11.7328721"><ele>91.0</ele><time>2026-05-02T08:29:26.119Z</time></trkpt><trkpt lat="45.7193674" lon="11.7328846"><ele>91.33333333333333</ele><time>2026-05-02T08:29:28.118Z</time></trkpt><trkpt lat="45.7194669" lon="11.7328983"><ele>91.66666666666666</ele><time>2026-05-02T08:29:30.119Z</time></trkpt><trkpt lat="45.7195546" lon="11.7329109"><ele>92.0</ele><time>2026-05-02T08:29:32.119Z</time></trkpt><trkpt lat="45.7196445" lon="11.7329165"><ele>92.33333333333333</ele><time>2026-05-02T08:29:34.119Z</time></trkpt><trkpt lat="45.7197066" lon="11.7329369"><ele>92.66666666666667</ele><time>2026-05-02T08:29:35.118Z</time></trkpt><trkpt lat="45.719805" lon="11.7329477"><ele>93.0</ele><time>2026-05-02T08:29:37.119Z</time></trkpt><trkpt lat="45.7199038" lon="11.7329567"><ele>93.0</ele><time>2026-05-02T08:29:39.119Z</time></trkpt><trkpt lat="45.7200028" lon="11.732963"><ele>93.0</ele><time>2026-05-02T08:29:41.119Z</time></trkpt><trkpt lat="45.7201041" lon="11.7329727"><ele>93.0</ele><time>2026-05-02T08:29:43.118Z</time></trkpt><trkpt lat="45.7202009" lon="11.7329899"><ele>93.0</ele><time>2026-05-02T08:29:45.119Z</time></trkpt><trkpt lat="45.7203027" lon="11.7330094"><ele>93.0</ele><time>2026-05-02T08:29:47.12Z</time></trkpt><trkpt lat="45.720398" lon="11.7330339"><ele>93.0</ele><time>2026-05-02T08:29:49.119Z</time></trkpt><trkpt lat="45.7204866" lon="11.7330452"><ele>93.0</ele><time>2026-05-02T08:29:51.119Z</time></trkpt><trkpt lat="45.7205842" lon="11.7330511"><ele>93.0</ele><time>2026-05-02T08:29:53.119Z</time></trkpt><trkpt lat="45.7206739" lon="11.7330597"><ele>93.0</ele><time>2026-05-02T08:29:55.118Z</time></trkpt><trkpt lat="45.7207529" lon="11.733078"><ele>93.0</ele><time>2026-05-02T08:29:57.12Z</time></trkpt><trkpt lat="45.7208255" lon="11.7331028"><ele>93.0</ele><time>2026-05-02T08:29:59.119Z</time></trkpt><trkpt lat="45.7208987" lon="11.7331715"><ele>93.0</ele><time>2026-05-02T08:30:02.119Z</time></trkpt><trkpt lat="45.7209536" lon="11.7332737"><ele>93.0</ele><time>2026-05-02T08:30:05.119Z</time></trkpt><trkpt lat="45.7209836" lon="11.7333773"><ele>93.0</ele><time>2026-05-02T08:30:08.12Z</time></trkpt><trkpt lat="45.7210515" lon="11.733351"><ele>93.0</ele><time>2026-05-02T08:30:11.119Z</time></trkpt><trkpt lat="45.7210742" lon="11.7332522"><ele>93.0</ele><time>2026-05-02T08:30:13.12Z</time></trkpt><trkpt lat="45.7211472" lon="11.7332018"><ele>93.0</ele><time>2026-05-02T08:30:15.12Z</time></trkpt><trkpt lat="45.721248" lon="11.7332296"><ele>92.5</ele><time>2026-05-02T08:30:17.119Z</time></trkpt><trkpt lat="45.7213152" lon="11.7332839"><ele>92.0</ele><time>2026-05-02T08:30:19.119Z</time></trkpt><trkpt lat="45.7213764" lon="11.7333561"><ele>91.5</ele><time>2026-05-02T08:30:21.12Z</time></trkpt><trkpt lat="45.7214514" lon="11.7333547"><ele>91.0</ele><time>2026-05-02T08:30:23.119Z</time></trkpt><trkpt lat="45.7215328" lon="11.7333306"><ele>90.5</ele><time>2026-05-02T08:30:25.12Z</time></trkpt><trkpt lat="45.7216213" lon="11.7333285"><ele>90.0</ele><time>2026-05-02T08:30:27.12Z</time></trkpt><trkpt lat="45.7217135" lon="11.7333189"><ele>90.0</ele><time>2026-05-02T08:30:29.121Z</time></trkpt><trkpt lat="45.7218084" lon="11.7333095"><ele>90.0</ele><time>2026-05-02T08:30:31.12Z</time></trkpt><trkpt lat="45.7218958" lon="11.7333046"><ele>90.0</ele><time>2026-05-02T08:30:33.119Z</time></trkpt><trkpt lat="45.7219826" lon="11.7333012"><ele>90.0</ele><time>2026-05-02T08:30:35.12Z</time></trkpt><trkpt lat="45.7220717" lon="11.733297"><ele>90.0</ele><time>2026-05-02T08:30:37.12Z</time></trkpt><trkpt lat="45.7221613" lon="11.73329"><ele>90.0</ele><time>2026-05-02T08:30:39.12Z</time></trkpt><trkpt lat="45.7222597" lon="11.7332908"><ele>90.33333333333333</ele><time>2026-05-02T08:30:41.119Z</time></trkpt><trkpt lat="45.7223503" lon="11.7333011"><ele>90.66666666666667</ele><time>2026-05-02T08:30:43.12Z</time></trkpt><trkpt lat="45.7224385" lon="11.7333015"><ele>91.0</ele><time>2026-05-02T08:30:45.12Z</time></trkpt><trkpt lat="45.7225274" lon="11.7332994"><ele>91.33333333333334</ele><time>2026-05-02T08:30:47.121Z</time></trkpt><trkpt lat="45.7226157" lon="11.7333028"><ele>91.66666666666667</ele><time>2026-05-02T08:30:49.121Z</time></trkpt><trkpt lat="45.7227051" lon="11.7332984"><ele>92.0</ele><time>2026-05-02T08:30:51.12Z</time></trkpt><trkpt lat="45.72279" lon="11.7332939"><ele>92.39999999999999</ele><time>2026-05-02T08:30:53.12Z</time></trkpt><trkpt lat="45.7228862" lon="11.733278"><ele>92.8</ele><time>2026-05-02T08:30:55.119Z</time></trkpt><trkpt lat="45.7229834" lon="11.7332623"><ele>93.2</ele><time>2026-05-02T08:30:57.12Z</time></trkpt><trkpt lat="45.7230695" lon="11.7332537"><ele>93.6</ele><time>2026-05-02T08:30:59.12Z</time></trkpt><trkpt lat="45.723158" lon="11.7332449"><ele>94.0</ele><time>2026-05-02T08:31:01.121Z</time></trkpt><trkpt lat="45.7232449" lon="11.7332452"><ele>94.0</ele><time>2026-05-02T08:31:03.12Z</time></trkpt><trkpt lat="45.7233319" lon="11.7332339"><ele>94.0</ele><time>2026-05-02T08:31:05.12Z</time></trkpt><trkpt lat="45.7234261" lon="11.7332158"><ele>94.0</ele><time>2026-05-02T08:31:07.121Z</time></trkpt><trkpt lat="45.7235219" lon="11.7331984"><ele>94.0</ele><time>2026-05-02T08:31:09.12Z</time></trkpt><trkpt lat="45.7236059" lon="11.7331822"><ele>94.0</ele><time>2026-05-02T08:31:11.121Z</time></trkpt><trkpt lat="45.7236876" lon="11.7331653"><ele>94.0</ele><time>2026-05-02T08:31:13.121Z</time></trkpt><trkpt lat="45.7237635" lon="11.7331506"><ele>94.0</ele><time>2026-05-02T08:31:15.121Z</time></trkpt><trkpt lat="45.7238506" lon="11.7331317"><ele>94.0</ele><time>2026-05-02T08:31:17.121Z</time></trkpt><trkpt lat="45.7239497" lon="11.7331357"><ele>94.0</ele><time>2026-05-02T08:31:19.121Z</time></trkpt><trkpt lat="45.7240287" lon="11.7331253"><ele>94.0</ele><time>2026-05-02T08:31:21.121Z</time></trkpt><trkpt lat="45.7241036" lon="11.7331155"><ele>94.0</ele><time>2026-05-02T08:31:23.12Z</time></trkpt><trkpt lat="45.7241805" lon="11.7331096"><ele>94.0</ele><time>2026-05-02T08:31:25.121Z</time></trkpt><trkpt lat="45.7242631" lon="11.733112"><ele>94.0</ele><time>2026-05-02T08:31:27.121Z</time></trkpt><trkpt lat="45.7243538" lon="11.733125"><ele>94.0</ele><time>2026-05-02T08:31:29.121Z</time></trkpt><trkpt lat="45.7244406" lon="11.733131"><ele>94.0</ele><time>2026-05-02T08:31:31.121Z</time></trkpt><trkpt lat="45.724527" lon="11.7331399"><ele>94.0</ele><time>2026-05-02T08:31:33.121Z</time></trkpt><trkpt lat="45.7246108" lon="11.7331548"><ele>94.0</ele><time>2026-05-02T08:31:35.121Z</time></trkpt><trkpt lat="45.7246887" lon="11.733181"><ele>94.0</ele><time>2026-05-02T08:31:37.12Z</time></trkpt><trkpt lat="45.7247703" lon="11.7332056"><ele>93.83333333333333</ele><time>2026-05-02T08:31:39.121Z</time></trkpt><trkpt lat="45.7248516" lon="11.7332322"><ele>93.66666666666666</ele><time>2026-05-02T08:31:41.12Z</time></trkpt><trkpt lat="45.7249348" lon="11.7332559"><ele>93.5</ele><time>2026-05-02T08:31:43.12Z</time></trkpt><trkpt lat="45.7250169" lon="11.7332817"><ele>93.33333333333333</ele><time>2026-05-02T08:31:45.121Z</time></trkpt><trkpt lat="45.7250986" lon="11.733302"><ele>93.16666666666667</ele><time>2026-05-02T08:31:47.12Z</time></trkpt><trkpt lat="45.7251759" lon="11.7333309"><ele>93.0</ele><time>2026-05-02T08:31:49.122Z</time></trkpt><trkpt lat="45.7252566" lon="11.7333512"><ele>93.0</ele><time>2026-05-02T08:31:51.12Z</time></trkpt><trkpt lat="45.7253401" lon="11.7333733"><ele>93.0</ele><time>2026-05-02T08:31:53.121Z</time></trkpt><trkpt lat="45.7254252" lon="11.7334001"><ele>93.0</ele><time>2026-05-02T08:31:55.122Z</time></trkpt><trkpt lat="45.7255101" lon="11.7334211"><ele>93.0</ele><time>2026-05-02T08:31:57.121Z</time></trkpt><trkpt lat="45.7255896" lon="11.7334432"><ele>93.0</ele><time>2026-05-02T08:31:59.121Z</time></trkpt><trkpt lat="45.7256689" lon="11.7334687"><ele>93.0</ele><time>2026-05-02T08:32:01.122Z</time></trkpt><trkpt lat="45.7257468" lon="11.7334939"><ele>93.0</ele><time>2026-05-02T08:32:03.121Z</time></trkpt><trkpt lat="45.7258208" lon="11.7335219"><ele>93.0</ele><time>2026-05-02T08:32:05.122Z</time></trkpt><trkpt lat="45.7259023" lon="11.733546"><ele>93.0</ele><time>2026-05-02T08:32:07.122Z</time></trkpt><trkpt lat="45.7259795" lon="11.7335714"><ele>93.0</ele><time>2026-05-02T08:32:09.121Z</time></trkpt><trkpt lat="45.7260556" lon="11.7335889"><ele>93.0</ele><time>2026-05-02T08:32:11.122Z</time></trkpt><trkpt lat="45.7261441" lon="11.7336083"><ele>93.0</ele><time>2026-05-02T08:32:13.121Z</time></trkpt><trkpt lat="45.7262276" lon="11.7336364"><ele>93.66666666666667</ele><time>2026-05-02T08:32:15.121Z</time></trkpt><trkpt lat="45.7263062" lon="11.7336632"><ele>94.33333333333334</ele><time>2026-05-02T08:32:17.121Z</time></trkpt><trkpt lat="45.7263874" lon="11.7336837"><ele>95.0</ele><time>2026-05-02T08:32:19.121Z</time></trkpt><trkpt lat="45.7264647" lon="11.7337118"><ele>95.66666666666667</ele><time>2026-05-02T08:32:21.122Z</time></trkpt><trkpt lat="45.7265479" lon="11.7337386"><ele>96.33333333333334</ele><time>2026-05-02T08:32:23.122Z</time></trkpt><trkpt lat="45.7266295" lon="11.7337717"><ele>97.0</ele><time>2026-05-02T08:32:25.121Z</time></trkpt><trkpt lat="45.7267105" lon="11.7338051"><ele>97.00000000000001</ele><time>2026-05-02T08:32:27.122Z</time></trkpt><trkpt lat="45.7267906" lon="11.7338492"><ele>97.0</ele><time>2026-05-02T08:32:29.122Z</time></trkpt><trkpt lat="45.7268407" lon="11.7339306"><ele>97.0</ele><time>2026-05-02T08:32:31.122Z</time></trkpt><trkpt lat="45.7268774" lon="11.7340237"><ele>97.0</ele><time>2026-05-02T08:32:33.122Z</time></trkpt><trkpt lat="45.7269267" lon="11.7341233"><ele>97.00000000000001</ele><time>2026-05-02T08:32:35.121Z</time></trkpt><trkpt lat="45.7269785" lon="11.7342101"><ele>97.0</ele><time>2026-05-02T08:32:37.122Z</time></trkpt><trkpt lat="45.7270345" lon="11.7342729"><ele>97.0</ele><time>2026-05-02T08:32:39.122Z</time></trkpt><trkpt lat="45.7271117" lon="11.7343374"><ele>97.0</ele><time>2026-05-02T08:32:42.122Z</time></trkpt><trkpt lat="45.7271871" lon="11.7343671"><ele>97.0</ele><time>2026-05-02T08:32:44.122Z</time></trkpt><trkpt lat="45.727279" lon="11.7343651"><ele>97.0</ele><time>2026-05-02T08:32:46.122Z</time></trkpt><trkpt lat="45.727375" lon="11.7343429"><ele>97.0</ele><time>2026-05-02T08:32:48.121Z</time></trkpt><trkpt lat="45.7274821" lon="11.7343426"><ele>97.0</ele><time>2026-05-02T08:32:50.122Z</time></trkpt><trkpt lat="45.7275695" lon="11.7343383"><ele>97.0</ele><time>2026-05-02T08:32:52.122Z</time></trkpt><trkpt lat="45.7276603" lon="11.7343349"><ele>97.0</ele><time>2026-05-02T08:32:54.122Z</time></trkpt><trkpt lat="45.7277575" lon="11.734333"><ele>97.0</ele><time>2026-05-02T08:32:56.122Z</time></trkpt><trkpt lat="45.7278493" lon="11.734332"><ele>97.0</ele><time>2026-05-02T08:32:58.123Z</time></trkpt><trkpt lat="45.7279518" lon="11.7343154"><ele>96.83333333333334</ele><time>2026-05-02T08:33:00.123Z</time></trkpt><trkpt lat="45.7280437" lon="11.7343162"><ele>96.66666666666667</ele><time>2026-05-02T08:33:02.123Z</time></trkpt><trkpt lat="45.7281337" lon="11.7343099"><ele>96.5</ele><time>2026-05-02T08:33:04.123Z</time></trkpt><trkpt lat="45.7282201" lon="11.7343115"><ele>96.33333333333334</ele><time>2026-05-02T08:33:06.123Z</time></trkpt><trkpt lat="45.7283001" lon="11.7343181"><ele>96.16666666666667</ele><time>2026-05-02T08:33:08.122Z</time></trkpt><trkpt lat="45.7283708" lon="11.7343065"><ele>96.0</ele><time>2026-05-02T08:33:10.123Z</time></trkpt><trkpt lat="45.7284496" lon="11.7342811"><ele>96.0</ele><time>2026-05-02T08:33:12.122Z</time></trkpt><trkpt lat="45.7285116" lon="11.7342353"><ele>96.0</ele><time>2026-05-02T08:33:14.122Z</time></trkpt><trkpt lat="45.7285846" lon="11.7341602"><ele>96.0</ele><time>2026-05-02T08:33:16.123Z</time></trkpt><trkpt lat="45.7286652" lon="11.7340857"><ele>96.0</ele><time>2026-05-02T08:33:18.123Z</time></trkpt><trkpt lat="45.7287626" lon="11.7340517"><ele>96.0</ele><time>2026-05-02T08:33:20.123Z</time></trkpt><trkpt lat="45.7288494" lon="11.7340175"><ele>96.0</ele><time>2026-05-02T08:33:22.122Z</time></trkpt><trkpt lat="45.7289304" lon="11.7339716"><ele>96.0</ele><time>2026-05-02T08:33:24.123Z</time></trkpt><trkpt lat="45.7290173" lon="11.7339296"><ele>96.0</ele><time>2026-05-02T08:33:26.123Z</time></trkpt><trkpt lat="45.7291059" lon="11.733887"><ele>96.0</ele><time>2026-05-02T08:33:28.123Z</time></trkpt><trkpt lat="45.7291895" lon="11.7338477"><ele>96.0</ele><time>2026-05-02T08:33:30.123Z</time></trkpt><trkpt lat="45.7292719" lon="11.7338062"><ele>96.0</ele><time>2026-05-02T08:33:32.123Z</time></trkpt><trkpt lat="45.7293492" lon="11.7337707"><ele>96.0</ele><time>2026-05-02T08:33:34.123Z</time></trkpt><trkpt lat="45.7294206" lon="11.7337335"><ele>96.16666666666667</ele><time>2026-05-02T08:33:36.123Z</time></trkpt><trkpt lat="45.7294832" lon="11.7337034"><ele>96.33333333333334</ele><time>2026-05-02T08:33:38.123Z</time></trkpt><trkpt lat="45.7295354" lon="11.7336225"><ele>96.5</ele><time>2026-05-02T08:33:40.123Z</time></trkpt><trkpt lat="45.7295645" lon="11.7335004"><ele>96.66666666666667</ele><time>2026-05-02T08:33:42.123Z</time></trkpt><trkpt lat="45.7295836" lon="11.7333909"><ele>96.83333333333334</ele><time>2026-05-02T08:33:44.123Z</time></trkpt><trkpt lat="45.7296029" lon="11.7332692"><ele>97.0</ele><time>2026-05-02T08:33:46.123Z</time></trkpt><trkpt lat="45.7296284" lon="11.7331477"><ele>97.0</ele><time>2026-05-02T08:33:48.124Z</time></trkpt><trkpt lat="45.7296542" lon="11.7330225"><ele>97.0</ele><time>2026-05-02T08:33:50.124Z</time></trkpt><trkpt lat="45.7296769" lon="11.7328975"><ele>97.0</ele><time>2026-05-02T08:33:52.123Z</time></trkpt><trkpt lat="45.7297025" lon="11.7327706"><ele>97.0</ele><time>2026-05-02T08:33:54.123Z</time></trkpt><trkpt lat="45.7297251" lon="11.7326458"><ele>97.0</ele><time>2026-05-02T08:33:56.123Z</time></trkpt><trkpt lat="45.7297501" lon="11.7325272"><ele>96.8</ele><time>2026-05-02T08:33:58.124Z</time></trkpt><trkpt lat="45.7297711" lon="11.732397"><ele>96.6</ele><time>2026-05-02T08:34:00.124Z</time></trkpt><trkpt lat="45.7298024" lon="11.7322678"><ele>96.39999999999999</ele><time>2026-05-02T08:34:02.124Z</time></trkpt><trkpt lat="45.7298279" lon="11.7321432"><ele>96.19999999999999</ele><time>2026-05-02T08:34:04.124Z</time></trkpt><trkpt lat="45.7298547" lon="11.7320119"><ele>96.0</ele><time>2026-05-02T08:34:06.124Z</time></trkpt><trkpt lat="45.7298732" lon="11.7319044"><ele>95.5</ele><time>2026-05-02T08:34:08.124Z</time></trkpt><trkpt lat="45.7298874" lon="11.7318024"><ele>95.0</ele><time>2026-05-02T08:34:10.124Z</time></trkpt><trkpt lat="45.7299006" lon="11.7316939"><ele>94.5</ele><time>2026-05-02T08:34:12.124Z</time></trkpt><trkpt lat="45.729925" lon="11.7315742"><ele>94.0</ele><time>2026-05-02T08:34:14.124Z</time></trkpt><trkpt lat="45.7299586" lon="11.7314556"><ele>93.5</ele><time>2026-05-02T08:34:16.123Z</time></trkpt><trkpt lat="45.729981" lon="11.7313438"><ele>93.0</ele><time>2026-05-02T08:34:18.124Z</time></trkpt><trkpt lat="45.7300034" lon="11.7312181"><ele>93.0</ele><time>2026-05-02T08:34:20.123Z</time></trkpt><trkpt lat="45.7300276" lon="11.7311027"><ele>93.0</ele><time>2026-05-02T08:34:22.124Z</time></trkpt><trkpt lat="45.7300549" lon="11.7309846"><ele>93.0</ele><time>2026-05-02T08:34:24.124Z</time></trkpt><trkpt lat="45.7300841" lon="11.730869"><ele>93.0</ele><time>2026-05-02T08:34:26.124Z</time></trkpt><trkpt lat="45.7301068" lon="11.730746"><ele>93.0</ele><time>2026-05-02T08:34:28.124Z</time></trkpt><trkpt lat="45.7301294" lon="11.7306319"><ele>93.0</ele><time>2026-05-02T08:34:30.123Z</time></trkpt><trkpt lat="45.7301594" lon="11.7305156"><ele>93.33333333333333</ele><time>2026-05-02T08:34:32.124Z</time></trkpt><trkpt lat="45.7301861" lon="11.7304052"><ele>93.66666666666667</ele><time>2026-05-02T08:34:34.124Z</time></trkpt><trkpt lat="45.7302175" lon="11.7302847"><ele>94.0</ele><time>2026-05-02T08:34:36.125Z</time></trkpt><trkpt lat="45.7302385" lon="11.7301642"><ele>94.33333333333334</ele><time>2026-05-02T08:34:38.123Z</time></trkpt><trkpt lat="45.7302645" lon="11.7300517"><ele>94.66666666666667</ele><time>2026-05-02T08:34:40.124Z</time></trkpt><trkpt lat="45.7302907" lon="11.7299434"><ele>95.0</ele><time>2026-05-02T08:34:42.125Z</time></trkpt><trkpt lat="45.730322" lon="11.7298302"><ele>95.16666666666667</ele><time>2026-05-02T08:34:44.124Z</time></trkpt><trkpt lat="45.7303445" lon="11.7297167"><ele>95.33333333333334</ele><time>2026-05-02T08:34:46.124Z</time></trkpt><trkpt lat="45.730368" lon="11.7296072"><ele>95.5</ele><time>2026-05-02T08:34:48.125Z</time></trkpt><trkpt lat="45.7303848" lon="11.7294939"><ele>95.66666666666667</ele><time>2026-05-02T08:34:50.125Z</time></trkpt><trkpt lat="45.7304094" lon="11.7293749"><ele>95.83333333333333</ele><time>2026-05-02T08:34:52.125Z</time></trkpt><trkpt lat="45.7304281" lon="11.7292584"><ele>96.0</ele><time>2026-05-02T08:34:54.125Z</time></trkpt><trkpt lat="45.7304434" lon="11.729141"><ele>95.99999999999999</ele><time>2026-05-02T08:34:56.125Z</time></trkpt><trkpt lat="45.7304593" lon="11.7290303"><ele>96.0</ele><time>2026-05-02T08:34:58.125Z</time></trkpt><trkpt lat="45.7305079" lon="11.7289416"><ele>96.0</ele><time>2026-05-02T08:35:00.124Z</time></trkpt><trkpt lat="45.7305474" lon="11.7288583"><ele>96.0</ele><time>2026-05-02T08:35:02.124Z</time></trkpt><trkpt lat="45.7305538" lon="11.7287549"><ele>96.0</ele><time>2026-05-02T08:35:04.125Z</time></trkpt><trkpt lat="45.7305346" lon="11.728662"><ele>95.99999999999999</ele><time>2026-05-02T08:35:06.125Z</time></trkpt><trkpt lat="45.7305216" lon="11.7285614"><ele>96.0</ele><time>2026-05-02T08:35:08.124Z</time></trkpt><trkpt lat="45.7305101" lon="11.728466"><ele>95.85714285714285</ele><time>2026-05-02T08:35:10.125Z</time></trkpt><trkpt lat="45.7305078" lon="11.728365"><ele>95.71428571428571</ele><time>2026-05-02T08:35:12.125Z</time></trkpt><trkpt lat="45.7304903" lon="11.7282604"><ele>95.57142857142857</ele><time>2026-05-02T08:35:14.125Z</time></trkpt><trkpt lat="45.7304833" lon="11.7281609"><ele>95.42857142857142</ele><time>2026-05-02T08:35:16.124Z</time></trkpt><trkpt lat="45.7304673" lon="11.7280689"><ele>95.28571428571429</ele><time>2026-05-02T08:35:19.125Z</time></trkpt><trkpt lat="45.7304763" lon="11.7279585"><ele>95.14285714285714</ele><time>2026-05-02T08:35:22.125Z</time></trkpt><trkpt lat="45.730563" lon="11.7279727"><ele>95.0</ele><time>2026-05-02T08:35:24.124Z</time></trkpt><trkpt lat="45.7306555" lon="11.7279993"><ele>95.0</ele><time>2026-05-02T08:35:26.125Z</time></trkpt><trkpt lat="45.7307518" lon="11.7280021"><ele>95.0</ele><time>2026-05-02T08:35:28.124Z</time></trkpt><trkpt lat="45.7308261" lon="11.7279872"><ele>95.0</ele><time>2026-05-02T08:35:30.125Z</time></trkpt><trkpt lat="45.7309036" lon="11.7279472"><ele>95.0</ele><time>2026-05-02T08:35:32.125Z</time></trkpt><trkpt lat="45.7309829" lon="11.7279144"><ele>95.0</ele><time>2026-05-02T08:35:34.125Z</time></trkpt><trkpt lat="45.731062" lon="11.7278902"><ele>95.0</ele><time>2026-05-02T08:35:36.125Z</time></trkpt><trkpt lat="45.73115" lon="11.727859"><ele>95.16666666666667</ele><time>2026-05-02T08:35:38.126Z</time></trkpt><trkpt lat="45.7312134" lon="11.7278602"><ele>95.33333333333334</ele><time>2026-05-02T08:35:39.125Z</time></trkpt><trkpt lat="45.7313084" lon="11.7278775"><ele>95.5</ele><time>2026-05-02T08:35:41.126Z</time></trkpt><trkpt lat="45.7313894" lon="11.7278695"><ele>95.66666666666667</ele><time>2026-05-02T08:35:43.125Z</time></trkpt><trkpt lat="45.7314709" lon="11.7278369"><ele>95.83333333333333</ele><time>2026-05-02T08:35:45.126Z</time></trkpt><trkpt lat="45.7315557" lon="11.7278088"><ele>96.0</ele><time>2026-05-02T08:35:47.125Z</time></trkpt><trkpt lat="45.7316411" lon="11.7277812"><ele>96.0</ele><time>2026-05-02T08:35:49.126Z</time></trkpt><trkpt lat="45.7317292" lon="11.727755"><ele>96.0</ele><time>2026-05-02T08:35:51.125Z</time></trkpt><trkpt lat="45.7318237" lon="11.7277406"><ele>96.0</ele><time>2026-05-02T08:35:53.126Z</time></trkpt><trkpt lat="45.7319081" lon="11.7277286"><ele>96.0</ele><time>2026-05-02T08:35:55.126Z</time></trkpt><trkpt lat="45.7320022" lon="11.7277142"><ele>96.0</ele><time>2026-05-02T08:35:57.125Z</time></trkpt><trkpt lat="45.7320878" lon="11.7276985"><ele>96.33333333333333</ele><time>2026-05-02T08:35:59.126Z</time></trkpt><trkpt lat="45.7321912" lon="11.7276924"><ele>96.66666666666666</ele><time>2026-05-02T08:36:01.126Z</time></trkpt><trkpt lat="45.7322756" lon="11.7276816"><ele>97.0</ele><time>2026-05-02T08:36:03.125Z</time></trkpt><trkpt lat="45.7323644" lon="11.7276868"><ele>97.33333333333333</ele><time>2026-05-02T08:36:05.126Z</time></trkpt><trkpt lat="45.732451" lon="11.7276916"><ele>97.66666666666666</ele><time>2026-05-02T08:36:07.126Z</time></trkpt><trkpt lat="45.7325167" lon="11.7276633"><ele>98.0</ele><time>2026-05-02T08:36:09.126Z</time></trkpt><trkpt lat="45.7325603" lon="11.727566"><ele>98.0</ele><time>2026-05-02T08:36:11.125Z</time></trkpt><trkpt lat="45.7325902" lon="11.7274323"><ele>98.0</ele><time>2026-05-02T08:36:13.126Z</time></trkpt><trkpt lat="45.7325988" lon="11.727296"><ele>98.0</ele><time>2026-05-02T08:36:15.126Z</time></trkpt><trkpt lat="45.7326105" lon="11.7271467"><ele>98.0</ele><time>2026-05-02T08:36:17.125Z</time></trkpt><trkpt lat="45.7326259" lon="11.7270184"><ele>98.0</ele><time>2026-05-02T08:36:19.126Z</time></trkpt><trkpt lat="45.7326538" lon="11.7269083"><ele>97.80000000000001</ele><time>2026-05-02T08:36:21.125Z</time></trkpt><trkpt lat="45.7326806" lon="11.7267666"><ele>97.6</ele><time>2026-05-02T08:36:23.125Z</time></trkpt><trkpt lat="45.7326967" lon="11.7266234"><ele>97.4</ele><time>2026-05-02T08:36:25.126Z</time></trkpt><trkpt lat="45.732714" lon="11.7264937"><ele>97.19999999999999</ele><time>2026-05-02T08:36:27.127Z</time></trkpt><trkpt lat="45.7327291" lon="11.7263686"><ele>97.0</ele><time>2026-05-02T08:36:29.125Z</time></trkpt><trkpt lat="45.7327531" lon="11.7262457"><ele>97.00000000000001</ele><time>2026-05-02T08:36:31.127Z</time></trkpt><trkpt lat="45.7327679" lon="11.7261249"><ele>97.0</ele><time>2026-05-02T08:36:33.125Z</time></trkpt><trkpt lat="45.7327876" lon="11.7260038"><ele>97.0</ele><time>2026-05-02T08:36:35.126Z</time></trkpt><trkpt lat="45.7327985" lon="11.7258777"><ele>97.0</ele><time>2026-05-02T08:36:37.126Z</time></trkpt><trkpt lat="45.7328199" lon="11.7257498"><ele>97.00000000000001</ele><time>2026-05-02T08:36:39.126Z</time></trkpt><trkpt lat="45.732841" lon="11.7256278"><ele>97.0</ele><time>2026-05-02T08:36:41.126Z</time></trkpt><trkpt lat="45.73285" lon="11.7254953"><ele>96.39999999999999</ele><time>2026-05-02T08:36:43.127Z</time></trkpt><trkpt lat="45.7328718" lon="11.7253469"><ele>95.8</ele><time>2026-05-02T08:36:45.127Z</time></trkpt><trkpt lat="45.7328895" lon="11.7251949"><ele>95.2</ele><time>2026-05-02T08:36:47.126Z</time></trkpt><trkpt lat="45.732914" lon="11.7250521"><ele>94.6</ele><time>2026-05-02T08:36:49.127Z</time></trkpt><trkpt lat="45.7329349" lon="11.7249066"><ele>94.0</ele><time>2026-05-02T08:36:51.127Z</time></trkpt><trkpt lat="45.7329586" lon="11.7247638"><ele>94.0</ele><time>2026-05-02T08:36:53.126Z</time></trkpt><trkpt lat="45.732981" lon="11.724619"><ele>94.0</ele><time>2026-05-02T08:36:55.126Z</time></trkpt><trkpt lat="45.7330018" lon="11.7244677"><ele>94.0</ele><time>2026-05-02T08:36:57.127Z</time></trkpt><trkpt lat="45.7330166" lon="11.7243067"><ele>94.0</ele><time>2026-05-02T08:36:59.127Z</time></trkpt><trkpt lat="45.7330416" lon="11.7241346"><ele>94.0</ele><time>2026-05-02T08:37:01.127Z</time></trkpt><trkpt lat="45.7330587" lon="11.7240461"><ele>94.0</ele><time>2026-05-02T08:37:02.127Z</time></trkpt><trkpt lat="45.7330984" lon="11.723883"><ele>94.0</ele><time>2026-05-02T08:37:04.127Z</time></trkpt><trkpt lat="45.7331485" lon="11.7237313"><ele>94.0</ele><time>2026-05-02T08:37:06.127Z</time></trkpt><trkpt lat="45.7331665" lon="11.7235844"><ele>94.0</ele><time>2026-05-02T08:37:08.127Z</time></trkpt><trkpt lat="45.7331946" lon="11.7234523"><ele>94.0</ele><time>2026-05-02T08:37:10.126Z</time></trkpt><trkpt lat="45.7332724" lon="11.7233668"><ele>94.0</ele><time>2026-05-02T08:37:12.127Z</time></trkpt><trkpt lat="45.7333787" lon="11.7233379"><ele>94.0</ele><time>2026-05-02T08:37:14.127Z</time></trkpt><trkpt lat="45.7334765" lon="11.7233817"><ele>94.0</ele><time>2026-05-02T08:37:16.126Z</time></trkpt><trkpt lat="45.7335683" lon="11.7234456"><ele>94.0</ele><time>2026-05-02T08:37:18.127Z</time></trkpt><trkpt lat="45.7336562" lon="11.7235236"><ele>94.0</ele><time>2026-05-02T08:37:20.127Z</time></trkpt><trkpt lat="45.7337475" lon="11.7235934"><ele>94.2</ele><time>2026-05-02T08:37:22.128Z</time></trkpt><trkpt lat="45.7338376" lon="11.7236698"><ele>94.4</ele><time>2026-05-02T08:37:24.126Z</time></trkpt><trkpt lat="45.7339315" lon="11.7237446"><ele>94.6</ele><time>2026-05-02T08:37:26.126Z</time></trkpt><trkpt lat="45.7340222" lon="11.723816"><ele>94.8</ele><time>2026-05-02T08:37:28.128Z</time></trkpt><trkpt lat="45.734112" lon="11.7238876"><ele>95.0</ele><time>2026-05-02T08:37:30.128Z</time></trkpt><trkpt lat="45.7341973" lon="11.7239585"><ele>95.0</ele><time>2026-05-02T08:37:32.128Z</time></trkpt><trkpt lat="45.734287" lon="11.7240272"><ele>95.0</ele><time>2026-05-02T08:37:34.127Z</time></trkpt><trkpt lat="45.7343766" lon="11.7240977"><ele>95.0</ele><time>2026-05-02T08:37:36.127Z</time></trkpt><trkpt lat="45.7344607" lon="11.7241648"><ele>95.0</ele><time>2026-05-02T08:37:38.128Z</time></trkpt><trkpt lat="45.7345497" lon="11.7242307"><ele>95.0</ele><time>2026-05-02T08:37:40.128Z</time></trkpt><trkpt lat="45.734637" lon="11.7242969"><ele>95.0</ele><time>2026-05-02T08:37:42.128Z</time></trkpt><trkpt lat="45.7347236" lon="11.7243639"><ele>95.0</ele><time>2026-05-02T08:37:44.128Z</time></trkpt><trkpt lat="45.7348058" lon="11.7244344"><ele>95.0</ele><time>2026-05-02T08:37:46.128Z</time></trkpt><trkpt lat="45.7348871" lon="11.724497"><ele>95.0</ele><time>2026-05-02T08:37:48.128Z</time></trkpt><trkpt lat="45.7349664" lon="11.724563"><ele>95.0</ele><time>2026-05-02T08:37:50.128Z</time></trkpt><trkpt lat="45.7350452" lon="11.7246302"><ele>95.0</ele><time>2026-05-02T08:37:52.128Z</time></trkpt><trkpt lat="45.7351239" lon="11.7246922"><ele>95.0</ele><time>2026-05-02T08:37:54.128Z</time></trkpt><trkpt lat="45.7352048" lon="11.724745"><ele>95.0</ele><time>2026-05-02T08:37:56.128Z</time></trkpt><trkpt lat="45.7352943" lon="11.7247863"><ele>95.0</ele><time>2026-05-02T08:37:58.127Z</time></trkpt><trkpt lat="45.7353755" lon="11.7248404"><ele>95.0</ele><time>2026-05-02T08:38:00.128Z</time></trkpt><trkpt lat="45.7354549" lon="11.724908"><ele>95.6</ele><time>2026-05-02T08:38:02.128Z</time></trkpt><trkpt lat="45.7355428" lon="11.7249701"><ele>96.2</ele><time>2026-05-02T08:38:04.128Z</time></trkpt><trkpt lat="45.7356244" lon="11.7250256"><ele>96.80000000000001</ele><time>2026-05-02T08:38:06.127Z</time></trkpt><trkpt lat="45.735718" lon="11.7250853"><ele>97.4</ele><time>2026-05-02T08:38:08.128Z</time></trkpt><trkpt lat="45.7358087" lon="11.725143"><ele>98.0</ele><time>2026-05-02T08:38:10.128Z</time></trkpt><trkpt lat="45.7359" lon="11.725198"><ele>98.0</ele><time>2026-05-02T08:38:12.127Z</time></trkpt><trkpt lat="45.7360041" lon="11.7252282"><ele>98.0</ele><time>2026-05-02T08:38:14.128Z</time></trkpt><trkpt lat="45.7361042" lon="11.7251916"><ele>98.0</ele><time>2026-05-02T08:38:16.128Z</time></trkpt><trkpt lat="45.7362138" lon="11.7251218"><ele>98.0</ele><time>2026-05-02T08:38:18.129Z</time></trkpt><trkpt lat="45.7363238" lon="11.725081"><ele>98.0</ele><time>2026-05-02T08:38:20.129Z</time></trkpt><trkpt lat="45.7364274" lon="11.7250563"><ele>97.80000000000001</ele><time>2026-05-02T08:38:22.129Z</time></trkpt><trkpt lat="45.7365357" lon="11.7250392"><ele>97.6</ele><time>2026-05-02T08:38:24.128Z</time></trkpt><trkpt lat="45.7366412" lon="11.7250131"><ele>97.4</ele><time>2026-05-02T08:38:26.129Z</time></trkpt><trkpt lat="45.7367412" lon="11.7249815"><ele>97.19999999999999</ele><time>2026-05-02T08:38:28.129Z</time></trkpt><trkpt lat="45.7368324" lon="11.7249402"><ele>97.0</ele><time>2026-05-02T08:38:30.129Z</time></trkpt><trkpt lat="45.7369344" lon="11.7249049"><ele>97.00000000000001</ele><time>2026-05-02T08:38:32.129Z</time></trkpt><trkpt lat="45.7370315" lon="11.7248805"><ele>97.0</ele><time>2026-05-02T08:38:34.128Z</time></trkpt><trkpt lat="45.7371192" lon="11.7248546"><ele>97.0</ele><time>2026-05-02T08:38:36.129Z</time></trkpt><trkpt lat="45.7372106" lon="11.7248309"><ele>97.0</ele><time>2026-05-02T08:38:38.128Z</time></trkpt><trkpt lat="45.7373069" lon="11.7248241"><ele>97.00000000000001</ele><time>2026-05-02T08:38:40.129Z</time></trkpt><trkpt lat="45.7373748" lon="11.7248132"><ele>97.0</ele><time>2026-05-02T08:38:42.128Z</time></trkpt><trkpt lat="45.7374424" lon="11.7247757"><ele>97.00000000000001</ele><time>2026-05-02T08:38:44.128Z</time></trkpt><trkpt lat="45.7375203" lon="11.7247507"><ele>97.0</ele><time>2026-05-02T08:38:46.129Z</time></trkpt><trkpt lat="45.737599" lon="11.7247286"><ele>97.0</ele><time>2026-05-02T08:38:48.129Z</time></trkpt><trkpt lat="45.7376855" lon="11.7246932"><ele>97.0</ele><time>2026-05-02T08:38:50.129Z</time></trkpt><trkpt lat="45.7377734" lon="11.7246584"><ele>97.00000000000001</ele><time>2026-05-02T08:38:52.128Z</time></trkpt><trkpt lat="45.737855" lon="11.7246237"><ele>97.0</ele><time>2026-05-02T08:38:54.129Z</time></trkpt><trkpt lat="45.7379469" lon="11.7245913"><ele>97.33333333333334</ele><time>2026-05-02T08:38:56.129Z</time></trkpt><trkpt lat="45.7380356" lon="11.7245593"><ele>97.66666666666667</ele><time>2026-05-02T08:38:58.129Z</time></trkpt><trkpt lat="45.7381218" lon="11.7245332"><ele>98.0</ele><time>2026-05-02T08:39:00.129Z</time></trkpt><trkpt lat="45.7382274" lon="11.7244998"><ele>98.33333333333334</ele><time>2026-05-02T08:39:02.128Z</time></trkpt><trkpt lat="45.7382955" lon="11.7244818"><ele>98.66666666666667</ele><time>2026-05-02T08:39:03.128Z</time></trkpt><trkpt lat="45.738372" lon="11.7244718"><ele>99.0</ele><time>2026-05-02T08:39:04.129Z</time></trkpt><trkpt lat="45.7384555" lon="11.7244649"><ele>99.0</ele><time>2026-05-02T08:39:05.129Z</time></trkpt><trkpt lat="45.7385451" lon="11.7244645"><ele>99.0</ele><time>2026-05-02T08:39:06.128Z</time></trkpt><trkpt lat="45.7386325" lon="11.7244602"><ele>99.0</ele><time>2026-05-02T08:39:07.129Z</time></trkpt><trkpt lat="45.7389832" lon="11.7244238"><ele>98.83333333333333</ele><time>2026-05-02T08:39:11.13Z</time></trkpt><trkpt lat="45.7390769" lon="11.7244118"><ele>98.66666666666666</ele><time>2026-05-02T08:39:14.129Z</time></trkpt><trkpt lat="45.7391538" lon="11.7244083"><ele>98.5</ele><time>2026-05-02T08:39:16.129Z</time></trkpt><trkpt lat="45.7392236" lon="11.7244023"><ele>98.33333333333333</ele><time>2026-05-02T08:39:18.13Z</time></trkpt><trkpt lat="45.739318" lon="11.7243973"><ele>98.16666666666666</ele><time>2026-05-02T08:39:21.129Z</time></trkpt><trkpt lat="45.7394123" lon="11.7243702"><ele>98.0</ele><time>2026-05-02T08:39:24.129Z</time></trkpt><trkpt lat="45.7395119" lon="11.7243487"><ele>97.99999999999999</ele><time>2026-05-02T08:39:27.13Z</time></trkpt><trkpt lat="45.7395787" lon="11.7243218"><ele>98.0</ele><time>2026-05-02T08:39:29.128Z</time></trkpt><trkpt lat="45.7396545" lon="11.7242778"><ele>98.0</ele><time>2026-05-02T08:39:31.13Z</time></trkpt><trkpt lat="45.7397291" lon="11.7242463"><ele>98.0</ele><time>2026-05-02T08:39:33.13Z</time></trkpt><trkpt lat="45.7398005" lon="11.7242077"><ele>97.99999999999999</ele><time>2026-05-02T08:39:35.13Z</time></trkpt><trkpt lat="45.7398778" lon="11.724167"><ele>98.0</ele><time>2026-05-02T08:39:37.129Z</time></trkpt><trkpt lat="45.7399535" lon="11.7241208"><ele>97.99999999999999</ele><time>2026-05-02T08:39:39.13Z</time></trkpt><trkpt lat="45.7400286" lon="11.7240783"><ele>98.0</ele><time>2026-05-02T08:39:41.129Z</time></trkpt><trkpt lat="45.7401011" lon="11.7240366"><ele>98.0</ele><time>2026-05-02T08:39:43.129Z</time></trkpt><trkpt lat="45.7401704" lon="11.7239934"><ele>98.0</ele><time>2026-05-02T08:39:45.13Z</time></trkpt><trkpt lat="45.7402509" lon="11.7239438"><ele>97.99999999999999</ele><time>2026-05-02T08:39:47.13Z</time></trkpt><trkpt lat="45.7403193" lon="11.7238845"><ele>98.0</ele><time>2026-05-02T08:39:49.13Z</time></trkpt><trkpt lat="45.7404102" lon="11.7238279"><ele>98.60000000000001</ele><time>2026-05-02T08:39:51.13Z</time></trkpt><trkpt lat="45.7405098" lon="11.7237819"><ele>99.2</ele><time>2026-05-02T08:39:53.13Z</time></trkpt><trkpt lat="45.7405931" lon="11.7237468"><ele>99.8</ele><time>2026-05-02T08:39:55.13Z</time></trkpt><trkpt lat="45.7406777" lon="11.7237191"><ele>100.4</ele><time>2026-05-02T08:39:57.13Z</time></trkpt><trkpt lat="45.7407682" lon="11.7236928"><ele>101.0</ele><time>2026-05-02T08:39:59.13Z</time></trkpt><trkpt lat="45.7408659" lon="11.723654"><ele>100.99999999999999</ele><time>2026-05-02T08:40:01.13Z</time></trkpt><trkpt lat="45.7409547" lon="11.7236256"><ele>101.0</ele><time>2026-05-02T08:40:03.13Z</time></trkpt><trkpt lat="45.7410434" lon="11.7236068"><ele>101.0</ele><time>2026-05-02T08:40:05.13Z</time></trkpt><trkpt lat="45.7411288" lon="11.7235978"><ele>101.0</ele><time>2026-05-02T08:40:07.13Z</time></trkpt><trkpt lat="45.741196" lon="11.7235908"><ele>100.99999999999999</ele><time>2026-05-02T08:40:09.13Z</time></trkpt><trkpt lat="45.7412691" lon="11.7235795"><ele>101.0</ele><time>2026-05-02T08:40:11.131Z</time></trkpt><trkpt lat="45.7413469" lon="11.7235867"><ele>101.16666666666666</ele><time>2026-05-02T08:40:13.131Z</time></trkpt><trkpt lat="45.7414337" lon="11.7235743"><ele>101.33333333333333</ele><time>2026-05-02T08:40:15.13Z</time></trkpt><trkpt lat="45.741516" lon="11.7235658"><ele>101.5</ele><time>2026-05-02T08:40:17.13Z</time></trkpt><trkpt lat="45.7416085" lon="11.7235653"><ele>101.66666666666666</ele><time>2026-05-02T08:40:19.13Z</time></trkpt><trkpt lat="45.7416954" lon="11.7235761"><ele>101.83333333333333</ele><time>2026-05-02T08:40:21.131Z</time></trkpt><trkpt lat="45.7417876" lon="11.7235882"><ele>102.0</ele><time>2026-05-02T08:40:23.129Z</time></trkpt><trkpt lat="45.741876" lon="11.723588"><ele>101.8</ele><time>2026-05-02T08:40:25.131Z</time></trkpt><trkpt lat="45.7419562" lon="11.7236242"><ele>101.6</ele><time>2026-05-02T08:40:27.13Z</time></trkpt><trkpt lat="45.7419916" lon="11.7237593"><ele>101.39999999999999</ele><time>2026-05-02T08:40:29.13Z</time></trkpt><trkpt lat="45.7420037" lon="11.7238987"><ele>101.19999999999999</ele><time>2026-05-02T08:40:31.13Z</time></trkpt><trkpt lat="45.7420298" lon="11.7240212"><ele>101.0</ele><time>2026-05-02T08:40:33.13Z</time></trkpt><trkpt lat="45.7420514" lon="11.7241422"><ele>101.0</ele><time>2026-05-02T08:40:35.131Z</time></trkpt><trkpt lat="45.7420709" lon="11.7242639"><ele>101.0</ele><time>2026-05-02T08:40:37.131Z</time></trkpt><trkpt lat="45.7420967" lon="11.7243889"><ele>101.0</ele><time>2026-05-02T08:40:39.131Z</time></trkpt><trkpt lat="45.7421244" lon="11.7245092"><ele>101.0</ele><time>2026-05-02T08:40:41.131Z</time></trkpt><trkpt lat="45.7421473" lon="11.7246409"><ele>101.0</ele><time>2026-05-02T08:40:43.131Z</time></trkpt><trkpt lat="45.742178" lon="11.7247642"><ele>101.0</ele><time>2026-05-02T08:40:45.131Z</time></trkpt><trkpt lat="45.7422026" lon="11.7248835"><ele>101.0</ele><time>2026-05-02T08:40:47.131Z</time></trkpt><trkpt lat="45.7422374" lon="11.7250069"><ele>101.0</ele><time>2026-05-02T08:40:49.131Z</time></trkpt><trkpt lat="45.7422569" lon="11.7251393"><ele>101.0</ele><time>2026-05-02T08:40:51.131Z</time></trkpt><trkpt lat="45.7422873" lon="11.725268"><ele>101.0</ele><time>2026-05-02T08:40:53.132Z</time></trkpt><trkpt lat="45.7423227" lon="11.7253928"><ele>100.4</ele><time>2026-05-02T08:40:55.131Z</time></trkpt><trkpt lat="45.7423563" lon="11.7255212"><ele>99.8</ele><time>2026-05-02T08:40:57.13Z</time></trkpt><trkpt lat="45.7423918" lon="11.7256456"><ele>99.2</ele><time>2026-05-02T08:40:59.131Z</time></trkpt><trkpt lat="45.7424246" lon="11.7257762"><ele>98.60000000000001</ele><time>2026-05-02T08:41:01.131Z</time></trkpt><trkpt lat="45.7424646" lon="11.7259044"><ele>98.0</ele><time>2026-05-02T08:41:03.131Z</time></trkpt><trkpt lat="45.7425068" lon="11.726026"><ele>98.0</ele><time>2026-05-02T08:41:05.131Z</time></trkpt><trkpt lat="45.7425521" lon="11.726146"><ele>98.0</ele><time>2026-05-02T08:41:07.131Z</time></trkpt><trkpt lat="45.7425955" lon="11.7262609"><ele>98.0</ele><time>2026-05-02T08:41:09.131Z</time></trkpt><trkpt lat="45.7426201" lon="11.7263824"><ele>98.0</ele><time>2026-05-02T08:41:11.13Z</time></trkpt><trkpt lat="45.7426432" lon="11.7265113"><ele>98.0</ele><time>2026-05-02T08:41:13.132Z</time></trkpt><trkpt lat="45.7426715" lon="11.7266322"><ele>98.0</ele><time>2026-05-02T08:41:15.131Z</time></trkpt><trkpt lat="45.7426937" lon="11.7267491"><ele>98.0</ele><time>2026-05-02T08:41:17.131Z</time></trkpt><trkpt lat="45.7427137" lon="11.726882"><ele>98.0</ele><time>2026-05-02T08:41:19.132Z</time></trkpt><trkpt lat="45.7427565" lon="11.7270202"><ele>98.0</ele><time>2026-05-02T08:41:21.132Z</time></trkpt><trkpt lat="45.7427419" lon="11.7271374"><ele>98.0</ele><time>2026-05-02T08:41:23.131Z</time></trkpt><trkpt lat="45.7426482" lon="11.727185"><ele>97.99999999999999</ele><time>2026-05-02T08:41:25.132Z</time></trkpt><trkpt lat="45.7425579" lon="11.727186"><ele>98.0</ele><time>2026-05-02T08:41:27.131Z</time></trkpt><trkpt lat="45.7424804" lon="11.7272095"><ele>98.0</ele><time>2026-05-02T08:41:29.131Z</time></trkpt><trkpt lat="45.7423976" lon="11.7272408"><ele>98.0</ele><time>2026-05-02T08:41:31.132Z</time></trkpt><trkpt lat="45.7423101" lon="11.727276"><ele>97.99999999999999</ele><time>2026-05-02T08:41:33.131Z</time></trkpt><trkpt lat="45.7422224" lon="11.7273085"><ele>98.0</ele><time>2026-05-02T08:41:35.132Z</time></trkpt><trkpt lat="45.7421361" lon="11.7273394"><ele>97.99999999999999</ele><time>2026-05-02T08:41:37.132Z</time></trkpt><trkpt lat="45.7420547" lon="11.7273856"><ele>98.0</ele><time>2026-05-02T08:41:39.132Z</time></trkpt><trkpt lat="45.7419738" lon="11.7274157"><ele>98.0</ele><time>2026-05-02T08:41:41.132Z</time></trkpt><trkpt lat="45.7418922" lon="11.7274358"><ele>98.0</ele><time>2026-05-02T08:41:43.132Z</time></trkpt><trkpt lat="45.7418161" lon="11.7274652"><ele>97.99999999999999</ele><time>2026-05-02T08:41:45.132Z</time></trkpt><trkpt lat="45.7417363" lon="11.7275035"><ele>98.0</ele><time>2026-05-02T08:41:47.132Z</time></trkpt><trkpt lat="45.7416589" lon="11.7275202"><ele>97.99999999999999</ele><time>2026-05-02T08:41:49.131Z</time></trkpt><trkpt lat="45.7415856" lon="11.727543"><ele>98.0</ele><time>2026-05-02T08:41:51.131Z</time></trkpt><trkpt lat="45.7415073" lon="11.7275775"><ele>98.0</ele><time>2026-05-02T08:41:53.132Z</time></trkpt><trkpt lat="45.7414256" lon="11.727611"><ele>98.0</ele><time>2026-05-02T08:41:55.132Z</time></trkpt><trkpt lat="45.7413409" lon="11.7276526"><ele>97.99999999999999</ele><time>2026-05-02T08:41:57.131Z</time></trkpt><trkpt lat="45.7412569" lon="11.7276771"><ele>98.0</ele><time>2026-05-02T08:41:59.132Z</time></trkpt><trkpt lat="45.7411798" lon="11.7277006"><ele>97.83333333333333</ele><time>2026-05-02T08:42:01.131Z</time></trkpt><trkpt lat="45.7410971" lon="11.7277295"><ele>97.66666666666666</ele><time>2026-05-02T08:42:03.133Z</time></trkpt><trkpt lat="45.7410134" lon="11.7277482"><ele>97.5</ele><time>2026-05-02T08:42:05.133Z</time></trkpt><trkpt lat="45.740943" lon="11.7277873"><ele>97.33333333333334</ele><time>2026-05-02T08:42:07.132Z</time></trkpt><trkpt lat="45.7408777" lon="11.7277941"><ele>97.16666666666667</ele><time>2026-05-02T08:42:09.132Z</time></trkpt><trkpt lat="45.7407987" lon="11.7278218"><ele>97.0</ele><time>2026-05-02T08:42:12.132Z</time></trkpt><trkpt lat="45.7407835" lon="11.7279491"><ele>97.00000000000001</ele><time>2026-05-02T08:42:15.131Z</time></trkpt><trkpt lat="45.7408128" lon="11.7280473"><ele>97.0</ele><time>2026-05-02T08:42:17.132Z</time></trkpt><trkpt lat="45.7408237" lon="11.7281509"><ele>97.0</ele><time>2026-05-02T08:42:19.131Z</time></trkpt><trkpt lat="45.7408347" lon="11.7282557"><ele>97.0</ele><time>2026-05-02T08:42:21.133Z</time></trkpt><trkpt lat="45.7408548" lon="11.7283704"><ele>97.00000000000001</ele><time>2026-05-02T08:42:23.132Z</time></trkpt><trkpt lat="45.7408791" lon="11.728468"><ele>97.0</ele><time>2026-05-02T08:42:25.133Z</time></trkpt><trkpt lat="45.7408871" lon="11.7285722"><ele>97.00000000000001</ele><time>2026-05-02T08:42:29.132Z</time></trkpt><trkpt lat="45.7409195" lon="11.7286705"><ele>97.0</ele><time>2026-05-02T08:42:37.164Z</time></trkpt><trkpt lat="45.7409641" lon="11.7287816"><ele>97.0</ele><time>2026-05-02T08:42:40.184Z</time></trkpt><trkpt lat="45.7410375" lon="11.7287687"><ele>97.0</ele><time>2026-05-02T08:42:42.234Z</time></trkpt><trkpt lat="45.7411347" lon="11.7287341"><ele>97.00000000000001</ele><time>2026-05-02T08:42:44.211Z</time></trkpt><trkpt lat="45.7412198" lon="11.7286948"><ele>97.0</ele><time>2026-05-02T08:42:46.168Z</time></trkpt><trkpt lat="45.7412954" lon="11.7286733"><ele>97.0</ele><time>2026-05-02T08:42:48.237Z</time></trkpt><trkpt lat="45.7413541" lon="11.7286267"><ele>97.0</ele><time>2026-05-02T08:42:51.156Z</time></trkpt><trkpt lat="45.741292" lon="11.7285679"><ele>97.0</ele><time>2026-05-02T08:42:55.133Z</time></trkpt><trkpt lat="45.7413314" lon="11.7286487"><ele>97.0</ele><time>2026-05-02T08:44:25.174Z</time></trkpt><trkpt lat="45.7413939" lon="11.7286351"><ele>97.0</ele><time>2026-05-02T08:44:31.21Z</time></trkpt><trkpt lat="45.7413579" lon="11.7287109"><ele>97.0</ele><time>2026-05-02T08:44:43.509Z</time></trkpt><trkpt lat="45.7414265" lon="11.7287377"><ele>97.0</ele><time>2026-05-02T08:44:50.196Z</time></trkpt><trkpt lat="45.7414898" lon="11.7287565"><ele>97.0</ele><time>2026-05-02T08:44:58.194Z</time></trkpt><trkpt lat="45.7415539" lon="11.7287828"><ele>97.0</ele><time>2026-05-02T08:45:06.428Z</time></trkpt><trkpt lat="45.7424681" lon="11.7288607"><ele>97.0</ele><time>2026-05-02T08:51:54.142Z</time></trkpt><trkpt lat="45.7425436" lon="11.7287748"><ele>97.0</ele><time>2026-05-02T08:53:16.353Z</time></trkpt><trkpt lat="45.742527" lon="11.7289991"><ele>97.0</ele><time>2026-05-02T08:54:50.291Z</time></trkpt><trkpt lat="45.7424876" lon="11.7289079"><ele>97.0</ele><time>2026-05-02T08:54:56.231Z</time></trkpt><trkpt lat="45.7426856" lon="11.7292777"><ele>97.0</ele><time>2026-05-02T08:55:57.147Z</time></trkpt><trkpt lat="45.7426982" lon="11.7291136"><ele>97.0</ele><time>2026-05-02T08:56:10.225Z</time></trkpt><trkpt lat="45.7426572" lon="11.7289183"><ele>97.0</ele><time>2026-05-02T08:56:12.15Z</time></trkpt><trkpt lat="45.7426071" lon="11.7287465"><ele>97.0</ele><time>2026-05-02T08:56:13.245Z</time></trkpt><trkpt lat="45.742327" lon="11.7284207"><ele>97.00000000000001</ele><time>2026-05-02T08:58:12.149Z</time></trkpt><trkpt lat="45.7422638" lon="11.7283811"><ele>97.0</ele><time>2026-05-02T08:58:23.245Z</time></trkpt><trkpt lat="45.7423205" lon="11.7283294"><ele>97.0</ele><time>2026-05-02T08:58:32.029Z</time></trkpt><trkpt lat="45.7424147" lon="11.7283501"><ele>97.0</ele><time>2026-05-02T08:59:11.15Z</time></trkpt><trkpt lat="45.7424369" lon="11.7282543"><ele>97.00000000000001</ele><time>2026-05-02T08:59:14.149Z</time></trkpt><trkpt lat="45.7424796" lon="11.7281477"><ele>97.0</ele><time>2026-05-02T08:59:18.278Z</time></trkpt><trkpt lat="45.7424894" lon="11.7282464"><ele>97.0</ele><time>2026-05-02T08:59:38.21Z</time></trkpt><trkpt lat="45.7424652" lon="11.7283369"><ele>97.0</ele><time>2026-05-02T08:59:43.245Z</time></trkpt><trkpt lat="45.7424242" lon="11.7284083"><ele>97.0</ele><time>2026-05-02T08:59:59.25Z</time></trkpt><trkpt lat="45.7423505" lon="11.7284179"><ele>97.0</ele><time>2026-05-02T09:00:04.285Z</time></trkpt><trkpt lat="45.7422845" lon="11.7283959"><ele>97.0</ele><time>2026-05-02T09:00:10.224Z</time></trkpt><trkpt lat="45.7422024" lon="11.7283547"><ele>97.0</ele><time>2026-05-02T09:00:23.57Z</time></trkpt><trkpt lat="45.7422064" lon="11.728262"><ele>97.0</ele><time>2026-05-02T09:00:28.245Z</time></trkpt><trkpt lat="45.7422221" lon="11.7283576"><ele>97.00000000000001</ele><time>2026-05-02T09:01:17.271Z</time></trkpt><trkpt lat="45.7421532" lon="11.7283568"><ele>97.0</ele><time>2026-05-02T09:01:37.305Z</time></trkpt><trkpt lat="45.7421113" lon="11.7284309"><ele>97.0</ele><time>2026-05-02T09:01:49.285Z</time></trkpt><trkpt lat="45.7421063" lon="11.7285303"><ele>97.0</ele><time>2026-05-02T09:01:55.224Z</time></trkpt><trkpt lat="45.7420048" lon="11.7285483"><ele>97.00000000000001</ele><time>2026-05-02T09:01:58.232Z</time></trkpt><trkpt lat="45.7419572" lon="11.7286177"><ele>97.0</ele><time>2026-05-02T09:02:03.277Z</time></trkpt><trkpt lat="45.7419456" lon="11.728723"><ele>97.0</ele><time>2026-05-02T09:02:10.487Z</time></trkpt><trkpt lat="45.7420818" lon="11.7289054"><ele>97.0</ele><time>2026-05-02T09:03:22.154Z</time></trkpt><trkpt lat="45.7421343" lon="11.7289767"><ele>97.0</ele><time>2026-05-02T09:03:24.153Z</time></trkpt><trkpt lat="45.7423151" lon="11.7290275"><ele>97.0</ele><time>2026-05-02T09:03:57.255Z</time></trkpt><trkpt lat="45.7424567" lon="11.7290092"><ele>97.0</ele><time>2026-05-02T09:04:26.249Z</time></trkpt><trkpt lat="45.7424465" lon="11.7288782"><ele>97.0</ele><time>2026-05-02T09:04:28.262Z</time></trkpt><trkpt lat="45.7423572" lon="11.7290937"><ele>97.0</ele><time>2026-05-02T09:05:49.302Z</time></trkpt><trkpt lat="45.7422907" lon="11.7290718"><ele>97.0</ele><time>2026-05-02T09:05:54.235Z</time></trkpt><trkpt lat="45.7422259" lon="11.729078"><ele>97.0</ele><time>2026-05-02T09:05:58.261Z</time></trkpt><trkpt lat="45.74124" lon="11.7285987"><ele>97.0</ele><time>2026-05-02T09:13:36.164Z</time></trkpt><trkpt lat="45.7412694" lon="11.7286952"><ele>97.0</ele><time>2026-05-02T09:14:53.261Z</time></trkpt><trkpt lat="45.7412452" lon="11.7286049"><ele>97.0</ele><time>2026-05-02T09:15:01.215Z</time></trkpt><trkpt lat="45.7413071" lon="11.7285853"><ele>97.0</ele><time>2026-05-02T09:16:19.239Z</time></trkpt><trkpt lat="45.7412599" lon="11.7286627"><ele>97.0</ele><time>2026-05-02T09:16:35.247Z</time></trkpt><trkpt lat="45.7411945" lon="11.7286754"><ele>97.0</ele><time>2026-05-02T09:17:11.19Z</time></trkpt><trkpt lat="45.7411334" lon="11.7287058"><ele>97.0</ele><time>2026-05-02T09:17:14.211Z</time></trkpt><trkpt lat="45.7410583" lon="11.7287119"><ele>97.0</ele><time>2026-05-02T09:17:17.232Z</time></trkpt><trkpt lat="45.740981" lon="11.7287116"><ele>97.0</ele><time>2026-05-02T09:17:20.251Z</time></trkpt><trkpt lat="45.7409122" lon="11.7287371"><ele>97.0</ele><time>2026-05-02T09:17:22.266Z</time></trkpt><trkpt lat="45.7408485" lon="11.7287549"><ele>97.0</ele><time>2026-05-02T09:17:24.179Z</time></trkpt><trkpt lat="45.7407853" lon="11.7287676"><ele>97.0</ele><time>2026-05-02T09:17:26.192Z</time></trkpt><trkpt lat="45.7406929" lon="11.7287708"><ele>97.0</ele><time>2026-05-02T09:17:29.213Z</time></trkpt><trkpt lat="45.7406314" lon="11.7287919"><ele>97.0</ele><time>2026-05-02T09:17:31.227Z</time></trkpt><trkpt lat="45.7405674" lon="11.7288186"><ele>97.0</ele><time>2026-05-02T09:17:33.24Z</time></trkpt><trkpt lat="45.7404997" lon="11.7288574"><ele>97.0</ele><time>2026-05-02T09:17:35.253Z</time></trkpt><trkpt lat="45.7404388" lon="11.728912"><ele>97.0</ele><time>2026-05-02T09:17:37.268Z</time></trkpt><trkpt lat="45.7403969" lon="11.7289853"><ele>97.0</ele><time>2026-05-02T09:17:39.181Z</time></trkpt><trkpt lat="45.7403734" lon="11.7290917"><ele>97.0</ele><time>2026-05-02T09:17:41.193Z</time></trkpt><trkpt lat="45.7403757" lon="11.7292108"><ele>97.0</ele><time>2026-05-02T09:17:43.208Z</time></trkpt><trkpt lat="45.7403912" lon="11.7293068"><ele>97.0</ele><time>2026-05-02T09:17:45.222Z</time></trkpt><trkpt lat="45.7404066" lon="11.7293978"><ele>97.16666666666667</ele><time>2026-05-02T09:17:47.234Z</time></trkpt><trkpt lat="45.7404152" lon="11.7294881"><ele>97.33333333333334</ele><time>2026-05-02T09:17:49.249Z</time></trkpt><trkpt lat="45.7404397" lon="11.7296013"><ele>97.5</ele><time>2026-05-02T09:17:52.269Z</time></trkpt><trkpt lat="45.7404874" lon="11.729711"><ele>97.66666666666666</ele><time>2026-05-02T09:17:55.189Z</time></trkpt><trkpt lat="45.7405621" lon="11.7297768"><ele>97.83333333333333</ele><time>2026-05-02T09:17:58.21Z</time></trkpt><trkpt lat="45.7406243" lon="11.7298056"><ele>98.0</ele><time>2026-05-02T09:18:00.222Z</time></trkpt><trkpt lat="45.7407016" lon="11.7298115"><ele>97.99999999999999</ele><time>2026-05-02T09:18:02.236Z</time></trkpt><trkpt lat="45.7407814" lon="11.7297916"><ele>98.0</ele><time>2026-05-02T09:18:04.25Z</time></trkpt><trkpt lat="45.7408592" lon="11.7297604"><ele>98.0</ele><time>2026-05-02T09:18:06.264Z</time></trkpt><trkpt lat="45.7409338" lon="11.7297313"><ele>98.0</ele><time>2026-05-02T09:18:08.177Z</time></trkpt><trkpt lat="45.7410153" lon="11.7297074"><ele>97.99999999999999</ele><time>2026-05-02T09:18:10.19Z</time></trkpt><trkpt lat="45.7410959" lon="11.7296801"><ele>98.0</ele><time>2026-05-02T09:18:12.203Z</time></trkpt><trkpt lat="45.7411699" lon="11.7296477"><ele>98.33333333333333</ele><time>2026-05-02T09:18:14.218Z</time></trkpt><trkpt lat="45.7412379" lon="11.7296418"><ele>98.66666666666666</ele><time>2026-05-02T09:18:16.231Z</time></trkpt><trkpt lat="45.7412674" lon="11.7297412"><ele>99.0</ele><time>2026-05-02T09:18:18.244Z</time></trkpt><trkpt lat="45.7412664" lon="11.7298834"><ele>99.33333333333334</ele><time>2026-05-02T09:18:20.258Z</time></trkpt><trkpt lat="45.7412708" lon="11.7300163"><ele>99.66666666666667</ele><time>2026-05-02T09:18:22.272Z</time></trkpt><trkpt lat="45.7413193" lon="11.7301221"><ele>100.0</ele><time>2026-05-02T09:18:24.185Z</time></trkpt><trkpt lat="45.7414135" lon="11.730164"><ele>100.0</ele><time>2026-05-02T09:18:26.199Z</time></trkpt><trkpt lat="45.7415231" lon="11.7301569"><ele>100.0</ele><time>2026-05-02T09:18:28.169Z</time></trkpt><trkpt lat="45.7415911" lon="11.7301478"><ele>100.0</ele><time>2026-05-02T09:18:30.163Z</time></trkpt><trkpt lat="45.7416956" lon="11.7301454"><ele>100.0</ele><time>2026-05-02T09:18:32.223Z</time></trkpt><trkpt lat="45.7417891" lon="11.7301287"><ele>100.0</ele><time>2026-05-02T09:18:34.236Z</time></trkpt><trkpt lat="45.7418744" lon="11.7301419"><ele>100.16666666666667</ele><time>2026-05-02T09:18:36.25Z</time></trkpt><trkpt lat="45.7419535" lon="11.730161"><ele>100.33333333333334</ele><time>2026-05-02T09:18:38.263Z</time></trkpt><trkpt lat="45.7420282" lon="11.7301649"><ele>100.5</ele><time>2026-05-02T09:18:40.176Z</time></trkpt><trkpt lat="45.7421104" lon="11.7301481"><ele>100.66666666666666</ele><time>2026-05-02T09:18:42.189Z</time></trkpt><trkpt lat="45.7421968" lon="11.7301225"><ele>100.83333333333333</ele><time>2026-05-02T09:18:44.242Z</time></trkpt><trkpt lat="45.7422779" lon="11.7300849"><ele>101.0</ele><time>2026-05-02T09:18:46.217Z</time></trkpt><trkpt lat="45.7423595" lon="11.7300465"><ele>100.99999999999999</ele><time>2026-05-02T09:18:48.142Z</time></trkpt><trkpt lat="45.7424507" lon="11.7300084"><ele>101.0</ele><time>2026-05-02T09:18:50.302Z</time></trkpt><trkpt lat="45.7425321" lon="11.7299813"><ele>101.0</ele><time>2026-05-02T09:18:52.203Z</time></trkpt><trkpt lat="45.7426199" lon="11.7299601"><ele>101.0</ele><time>2026-05-02T09:18:54.271Z</time></trkpt><trkpt lat="45.7427032" lon="11.729941"><ele>100.99999999999999</ele><time>2026-05-02T09:18:56.285Z</time></trkpt><trkpt lat="45.7427866" lon="11.7299336"><ele>101.0</ele><time>2026-05-02T09:18:58.198Z</time></trkpt><trkpt lat="45.7428737" lon="11.7299288"><ele>101.0</ele><time>2026-05-02T09:19:00.211Z</time></trkpt><trkpt lat="45.7429571" lon="11.7299109"><ele>101.0</ele><time>2026-05-02T09:19:02.224Z</time></trkpt><trkpt lat="45.7430284" lon="11.7298719"><ele>101.0</ele><time>2026-05-02T09:19:04.239Z</time></trkpt><trkpt lat="45.7430791" lon="11.7298117"><ele>101.0</ele><time>2026-05-02T09:19:06.252Z</time></trkpt><trkpt lat="45.7431199" lon="11.7297348"><ele>101.0</ele><time>2026-05-02T09:19:08.265Z</time></trkpt><trkpt lat="45.7431596" lon="11.729663"><ele>101.0</ele><time>2026-05-02T09:19:10.179Z</time></trkpt><trkpt lat="45.7432137" lon="11.7296004"><ele>101.0</ele><time>2026-05-02T09:19:13.199Z</time></trkpt><trkpt lat="45.7432637" lon="11.7295285"><ele>101.0</ele><time>2026-05-02T09:19:17.226Z</time></trkpt><trkpt lat="45.7432455" lon="11.7294323"><ele>101.0</ele><time>2026-05-02T09:19:19.239Z</time></trkpt><trkpt lat="45.7432156" lon="11.7293235"><ele>101.0</ele><time>2026-05-02T09:19:21.254Z</time></trkpt><trkpt lat="45.7431839" lon="11.7292004"><ele>101.0</ele><time>2026-05-02T09:19:23.267Z</time></trkpt><trkpt lat="45.743146" lon="11.7289886"><ele>101.0</ele><time>2026-05-02T09:19:26.169Z</time></trkpt><trkpt lat="45.7431205" lon="11.7288521"><ele>101.19999999999999</ele><time>2026-05-02T09:19:28.17Z</time></trkpt><trkpt lat="45.7430929" lon="11.7287169"><ele>101.39999999999999</ele><time>2026-05-02T09:19:30.17Z</time></trkpt><trkpt lat="45.743068" lon="11.7285789"><ele>101.6</ele><time>2026-05-02T09:19:32.169Z</time></trkpt><trkpt lat="45.743041" lon="11.7284307"><ele>101.8</ele><time>2026-05-02T09:19:34.169Z</time></trkpt><trkpt lat="45.7430034" lon="11.7282718"><ele>102.0</ele><time>2026-05-02T09:19:36.169Z</time></trkpt><trkpt lat="45.7429763" lon="11.7281125"><ele>101.6</ele><time>2026-05-02T09:19:38.17Z</time></trkpt><trkpt lat="45.7429574" lon="11.7279593"><ele>101.19999999999999</ele><time>2026-05-02T09:19:40.17Z</time></trkpt><trkpt lat="45.7429247" lon="11.7278112"><ele>100.8</ele><time>2026-05-02T09:19:42.17Z</time></trkpt><trkpt lat="45.7428978" lon="11.7276597"><ele>100.4</ele><time>2026-05-02T09:19:44.17Z</time></trkpt><trkpt lat="45.7428789" lon="11.7275205"><ele>100.0</ele><time>2026-05-02T09:19:46.17Z</time></trkpt><trkpt lat="45.7428536" lon="11.7273748"><ele>100.0</ele><time>2026-05-02T09:19:48.17Z</time></trkpt><trkpt lat="45.7428256" lon="11.727224"><ele>100.0</ele><time>2026-05-02T09:19:50.17Z</time></trkpt><trkpt lat="45.7428023" lon="11.727093"><ele>100.0</ele><time>2026-05-02T09:19:52.17Z</time></trkpt><trkpt lat="45.742777" lon="11.7269728"><ele>100.0</ele><time>2026-05-02T09:19:54.17Z</time></trkpt><trkpt lat="45.7427549" lon="11.7268569"><ele>100.0</ele><time>2026-05-02T09:19:56.17Z</time></trkpt><trkpt lat="45.7427285" lon="11.7267407"><ele>99.66666666666667</ele><time>2026-05-02T09:19:58.17Z</time></trkpt><trkpt lat="45.7427097" lon="11.7266271"><ele>99.33333333333334</ele><time>2026-05-02T09:20:00.169Z</time></trkpt><trkpt lat="45.7426834" lon="11.7265304"><ele>99.0</ele><time>2026-05-02T09:20:02.169Z</time></trkpt><trkpt lat="45.7426665" lon="11.7264295"><ele>98.66666666666666</ele><time>2026-05-02T09:20:04.17Z</time></trkpt><trkpt lat="45.742643" lon="11.7263218"><ele>98.33333333333333</ele><time>2026-05-02T09:20:06.17Z</time></trkpt><trkpt lat="45.7426145" lon="11.7261994"><ele>98.0</ele><time>2026-05-02T09:20:08.171Z</time></trkpt><trkpt lat="45.7425873" lon="11.7260937"><ele>97.99999999999999</ele><time>2026-05-02T09:20:10.17Z</time></trkpt><trkpt lat="45.7425525" lon="11.7259779"><ele>98.0</ele><time>2026-05-02T09:20:12.17Z</time></trkpt><trkpt lat="45.7425155" lon="11.7258698"><ele>98.0</ele><time>2026-05-02T09:20:14.17Z</time></trkpt><trkpt lat="45.7424812" lon="11.7257518"><ele>98.0</ele><time>2026-05-02T09:20:16.171Z</time></trkpt><trkpt lat="45.7424481" lon="11.7256501"><ele>97.99999999999999</ele><time>2026-05-02T09:20:18.171Z</time></trkpt><trkpt lat="45.7424141" lon="11.7255441"><ele>98.0</ele><time>2026-05-02T09:20:20.169Z</time></trkpt><trkpt lat="45.7423844" lon="11.7254276"><ele>97.99999999999999</ele><time>2026-05-02T09:20:22.171Z</time></trkpt><trkpt lat="45.7423476" lon="11.7253229"><ele>98.0</ele><time>2026-05-02T09:20:24.17Z</time></trkpt><trkpt lat="45.742314" lon="11.7252127"><ele>98.0</ele><time>2026-05-02T09:20:26.17Z</time></trkpt><trkpt lat="45.7422887" lon="11.7250852"><ele>98.0</ele><time>2026-05-02T09:20:28.17Z</time></trkpt><trkpt lat="45.7422628" lon="11.7249648"><ele>97.99999999999999</ele><time>2026-05-02T09:20:30.171Z</time></trkpt><trkpt lat="45.742239" lon="11.7248532"><ele>98.0</ele><time>2026-05-02T09:20:32.17Z</time></trkpt><trkpt lat="45.7422063" lon="11.7247226"><ele>98.60000000000001</ele><time>2026-05-02T09:20:34.171Z</time></trkpt><trkpt lat="45.7421785" lon="11.72461"><ele>99.2</ele><time>2026-05-02T09:20:36.171Z</time></trkpt><trkpt lat="45.7421543" lon="11.724482"><ele>99.8</ele><time>2026-05-02T09:20:38.171Z</time></trkpt><trkpt lat="45.7421342" lon="11.7243479"><ele>100.4</ele><time>2026-05-02T09:20:40.171Z</time></trkpt><trkpt lat="45.7421084" lon="11.7242371"><ele>101.0</ele><time>2026-05-02T09:20:42.171Z</time></trkpt><trkpt lat="45.7420723" lon="11.7240865"><ele>100.99999999999999</ele><time>2026-05-02T09:20:44.171Z</time></trkpt><trkpt lat="45.7420497" lon="11.7239519"><ele>101.0</ele><time>2026-05-02T09:20:46.171Z</time></trkpt><trkpt lat="45.7420218" lon="11.723834"><ele>101.0</ele><time>2026-05-02T09:20:48.17Z</time></trkpt><trkpt lat="45.7419903" lon="11.7237353"><ele>101.0</ele><time>2026-05-02T09:20:50.171Z</time></trkpt><trkpt lat="45.741983" lon="11.7236372"><ele>100.99999999999999</ele><time>2026-05-02T09:20:52.171Z</time></trkpt><trkpt lat="45.742054" lon="11.7235606"><ele>101.0</ele><time>2026-05-02T09:20:55.171Z</time></trkpt><trkpt lat="45.7421383" lon="11.7235628"><ele>100.83333333333333</ele><time>2026-05-02T09:20:57.17Z</time></trkpt><trkpt lat="45.7422167" lon="11.7235532"><ele>100.66666666666666</ele><time>2026-05-02T09:20:59.171Z</time></trkpt><trkpt lat="45.7422992" lon="11.7235487"><ele>100.5</ele><time>2026-05-02T09:21:01.17Z</time></trkpt><trkpt lat="45.7423869" lon="11.7235398"><ele>100.33333333333334</ele><time>2026-05-02T09:21:03.17Z</time></trkpt><trkpt lat="45.7424742" lon="11.7235185"><ele>100.16666666666667</ele><time>2026-05-02T09:21:05.172Z</time></trkpt><trkpt lat="45.7425665" lon="11.7234977"><ele>100.0</ele><time>2026-05-02T09:21:07.171Z</time></trkpt><trkpt lat="45.7426582" lon="11.7234767"><ele>100.0</ele><time>2026-05-02T09:21:09.172Z</time></trkpt><trkpt lat="45.7427499" lon="11.7234578"><ele>100.0</ele><time>2026-05-02T09:21:11.172Z</time></trkpt><trkpt lat="45.7428456" lon="11.7234377"><ele>100.0</ele><time>2026-05-02T09:21:13.171Z</time></trkpt><trkpt lat="45.742942" lon="11.7234166"><ele>100.0</ele><time>2026-05-02T09:21:15.172Z</time></trkpt><trkpt lat="45.7430376" lon="11.7234038"><ele>100.0</ele><time>2026-05-02T09:21:17.171Z</time></trkpt><trkpt lat="45.743134" lon="11.7233886"><ele>100.0</ele><time>2026-05-02T09:21:19.172Z</time></trkpt><trkpt lat="45.7432322" lon="11.7233744"><ele>100.0</ele><time>2026-05-02T09:21:21.172Z</time></trkpt><trkpt lat="45.7433287" lon="11.7233469"><ele>100.0</ele><time>2026-05-02T09:21:23.172Z</time></trkpt><trkpt lat="45.7434165" lon="11.7233133"><ele>100.0</ele><time>2026-05-02T09:21:25.171Z</time></trkpt><trkpt lat="45.743511" lon="11.7232862"><ele>100.0</ele><time>2026-05-02T09:21:27.172Z</time></trkpt><trkpt lat="45.7436027" lon="11.7232586"><ele>99.6</ele><time>2026-05-02T09:21:29.171Z</time></trkpt><trkpt lat="45.7436976" lon="11.723241"><ele>99.2</ele><time>2026-05-02T09:21:31.171Z</time></trkpt><trkpt lat="45.7437885" lon="11.7232183"><ele>98.80000000000001</ele><time>2026-05-02T09:21:33.171Z</time></trkpt><trkpt lat="45.743885" lon="11.7231869"><ele>98.4</ele><time>2026-05-02T09:21:35.171Z</time></trkpt><trkpt lat="45.7439792" lon="11.7231594"><ele>98.0</ele><time>2026-05-02T09:21:37.172Z</time></trkpt><trkpt lat="45.7440721" lon="11.7231302"><ele>98.0</ele><time>2026-05-02T09:21:39.171Z</time></trkpt><trkpt lat="45.7441678" lon="11.7231162"><ele>98.0</ele><time>2026-05-02T09:21:41.172Z</time></trkpt><trkpt lat="45.7442647" lon="11.7230956"><ele>98.0</ele><time>2026-05-02T09:21:43.172Z</time></trkpt><trkpt lat="45.7443611" lon="11.7230762"><ele>98.0</ele><time>2026-05-02T09:21:45.172Z</time></trkpt><trkpt lat="45.7444558" lon="11.7230556"><ele>98.0</ele><time>2026-05-02T09:21:47.173Z</time></trkpt><trkpt lat="45.7445517" lon="11.7230389"><ele>98.60000000000001</ele><time>2026-05-02T09:21:49.172Z</time></trkpt><trkpt lat="45.7446502" lon="11.7230291"><ele>99.2</ele><time>2026-05-02T09:21:51.171Z</time></trkpt><trkpt lat="45.7447398" lon="11.7230083"><ele>99.8</ele><time>2026-05-02T09:21:53.172Z</time></trkpt><trkpt lat="45.7448362" lon="11.7229754"><ele>100.4</ele><time>2026-05-02T09:21:55.172Z</time></trkpt><trkpt lat="45.7449278" lon="11.7229669"><ele>101.0</ele><time>2026-05-02T09:21:57.172Z</time></trkpt><trkpt lat="45.7450261" lon="11.7229585"><ele>100.99999999999999</ele><time>2026-05-02T09:21:59.171Z</time></trkpt><trkpt lat="45.745113" lon="11.7229396"><ele>101.0</ele><time>2026-05-02T09:22:01.172Z</time></trkpt><trkpt lat="45.7451896" lon="11.7229175"><ele>101.0</ele><time>2026-05-02T09:22:03.172Z</time></trkpt><trkpt lat="45.745261" lon="11.7229103"><ele>101.0</ele><time>2026-05-02T09:22:05.172Z</time></trkpt><trkpt lat="45.7453433" lon="11.7228941"><ele>100.99999999999999</ele><time>2026-05-02T09:22:07.172Z</time></trkpt><trkpt lat="45.7454274" lon="11.7228657"><ele>101.0</ele><time>2026-05-02T09:22:09.171Z</time></trkpt><trkpt lat="45.7455148" lon="11.7228494"><ele>100.99999999999999</ele><time>2026-05-02T09:22:11.172Z</time></trkpt><trkpt lat="45.7456021" lon="11.7228378"><ele>101.0</ele><time>2026-05-02T09:22:13.173Z</time></trkpt><trkpt lat="45.7456909" lon="11.7228055"><ele>101.0</ele><time>2026-05-02T09:22:15.172Z</time></trkpt><trkpt lat="45.7457819" lon="11.7227758"><ele>101.0</ele><time>2026-05-02T09:22:17.173Z</time></trkpt><trkpt lat="45.7458761" lon="11.7227521"><ele>100.99999999999999</ele><time>2026-05-02T09:22:19.172Z</time></trkpt><trkpt lat="45.7459561" lon="11.7227536"><ele>101.0</ele><time>2026-05-02T09:22:21.173Z</time></trkpt><trkpt lat="45.746052" lon="11.7227226"><ele>101.0</ele><time>2026-05-02T09:22:23.173Z</time></trkpt><trkpt lat="45.7461417" lon="11.7227009"><ele>101.0</ele><time>2026-05-02T09:22:25.172Z</time></trkpt><trkpt lat="45.746236" lon="11.7226863"><ele>101.0</ele><time>2026-05-02T09:22:27.173Z</time></trkpt><trkpt lat="45.7463249" lon="11.7226572"><ele>101.0</ele><time>2026-05-02T09:22:29.172Z</time></trkpt><trkpt lat="45.7464176" lon="11.72264"><ele>101.0</ele><time>2026-05-02T09:22:31.173Z</time></trkpt><trkpt lat="45.7465154" lon="11.7226286"><ele>101.0</ele><time>2026-05-02T09:22:33.173Z</time></trkpt><trkpt lat="45.7466125" lon="11.7226091"><ele>101.0</ele><time>2026-05-02T09:22:35.173Z</time></trkpt><trkpt lat="45.7467089" lon="11.7225896"><ele>101.0</ele><time>2026-05-02T09:22:37.173Z</time></trkpt><trkpt lat="45.7467987" lon="11.7225533"><ele>101.0</ele><time>2026-05-02T09:22:39.173Z</time></trkpt><trkpt lat="45.746887" lon="11.7225211"><ele>101.0</ele><time>2026-05-02T09:22:41.172Z</time></trkpt><trkpt lat="45.7469799" lon="11.7224832"><ele>100.8</ele><time>2026-05-02T09:22:43.173Z</time></trkpt><trkpt lat="45.7470703" lon="11.7224516"><ele>100.6</ele><time>2026-05-02T09:22:45.173Z</time></trkpt><trkpt lat="45.747158" lon="11.7224094"><ele>100.4</ele><time>2026-05-02T09:22:47.173Z</time></trkpt><trkpt lat="45.7472468" lon="11.7223748"><ele>100.2</ele><time>2026-05-02T09:22:49.173Z</time></trkpt><trkpt lat="45.7473409" lon="11.7223409"><ele>100.0</ele><time>2026-05-02T09:22:51.172Z</time></trkpt><trkpt lat="45.747432" lon="11.7223082"><ele>100.0</ele><time>2026-05-02T09:22:53.173Z</time></trkpt><trkpt lat="45.7475131" lon="11.7222694"><ele>100.0</ele><time>2026-05-02T09:22:55.173Z</time></trkpt><trkpt lat="45.7475989" lon="11.7222297"><ele>100.0</ele><time>2026-05-02T09:22:57.173Z</time></trkpt><trkpt lat="45.7476922" lon="11.7221942"><ele>100.0</ele><time>2026-05-02T09:22:59.173Z</time></trkpt><trkpt lat="45.7477908" lon="11.7221559"><ele>100.0</ele><time>2026-05-02T09:23:01.172Z</time></trkpt><trkpt lat="45.7478769" lon="11.7221175"><ele>100.16666666666667</ele><time>2026-05-02T09:23:03.172Z</time></trkpt><trkpt lat="45.7479596" lon="11.7221467"><ele>100.33333333333334</ele><time>2026-05-02T09:23:06.172Z</time></trkpt><trkpt lat="45.7480116" lon="11.7222133"><ele>100.5</ele><time>2026-05-02T09:23:08.173Z</time></trkpt><trkpt lat="45.7480372" lon="11.7223264"><ele>100.66666666666666</ele><time>2026-05-02T09:23:10.174Z</time></trkpt><trkpt lat="45.748064" lon="11.7224474"><ele>100.83333333333333</ele><time>2026-05-02T09:23:12.173Z</time></trkpt><trkpt lat="45.7481035" lon="11.7225703"><ele>101.0</ele><time>2026-05-02T09:23:14.173Z</time></trkpt><trkpt lat="45.7481423" lon="11.7227032"><ele>101.19999999999999</ele><time>2026-05-02T09:23:16.174Z</time></trkpt><trkpt lat="45.7481804" lon="11.7228289"><ele>101.39999999999999</ele><time>2026-05-02T09:23:18.174Z</time></trkpt><trkpt lat="45.7482199" lon="11.722942"><ele>101.6</ele><time>2026-05-02T09:23:20.174Z</time></trkpt><trkpt lat="45.7482686" lon="11.7230686"><ele>101.8</ele><time>2026-05-02T09:23:22.172Z</time></trkpt><trkpt lat="45.7483103" lon="11.7231873"><ele>102.0</ele><time>2026-05-02T09:23:24.173Z</time></trkpt><trkpt lat="45.7483579" lon="11.7233021"><ele>102.0</ele><time>2026-05-02T09:23:26.172Z</time></trkpt><trkpt lat="45.7484175" lon="11.7234023"><ele>102.0</ele><time>2026-05-02T09:23:28.172Z</time></trkpt><trkpt lat="45.7484831" lon="11.7234804"><ele>102.0</ele><time>2026-05-02T09:23:30.174Z</time></trkpt><trkpt lat="45.7485646" lon="11.7235491"><ele>102.0</ele><time>2026-05-02T09:23:32.173Z</time></trkpt><trkpt lat="45.748657" lon="11.7235943"><ele>102.0</ele><time>2026-05-02T09:23:34.174Z</time></trkpt><trkpt lat="45.7487505" lon="11.7236332"><ele>102.6</ele><time>2026-05-02T09:23:36.174Z</time></trkpt><trkpt lat="45.7488535" lon="11.7236713"><ele>103.19999999999999</ele><time>2026-05-02T09:23:38.174Z</time></trkpt><trkpt lat="45.7489518" lon="11.7237069"><ele>103.8</ele><time>2026-05-02T09:23:40.174Z</time></trkpt><trkpt lat="45.7490373" lon="11.7237489"><ele>104.4</ele><time>2026-05-02T09:23:42.174Z</time></trkpt><trkpt lat="45.7491271" lon="11.7237895"><ele>105.0</ele><time>2026-05-02T09:23:44.173Z</time></trkpt><trkpt lat="45.7492225" lon="11.7238367"><ele>105.0</ele><time>2026-05-02T09:23:46.174Z</time></trkpt><trkpt lat="45.7493091" lon="11.7238808"><ele>105.0</ele><time>2026-05-02T09:23:48.174Z</time></trkpt><trkpt lat="45.7493877" lon="11.7239265"><ele>105.0</ele><time>2026-05-02T09:23:50.173Z</time></trkpt><trkpt lat="45.7494792" lon="11.7239697"><ele>105.0</ele><time>2026-05-02T09:23:52.174Z</time></trkpt><trkpt lat="45.749573" lon="11.7240155"><ele>105.0</ele><time>2026-05-02T09:23:54.174Z</time></trkpt><trkpt lat="45.7496694" lon="11.724057"><ele>104.8</ele><time>2026-05-02T09:23:56.173Z</time></trkpt><trkpt lat="45.7497592" lon="11.7241015"><ele>104.6</ele><time>2026-05-02T09:23:58.174Z</time></trkpt><trkpt lat="45.7498521" lon="11.7241436"><ele>104.4</ele><time>2026-05-02T09:24:00.175Z</time></trkpt><trkpt lat="45.7499498" lon="11.724186"><ele>104.2</ele><time>2026-05-02T09:24:02.175Z</time></trkpt><trkpt lat="45.7500372" lon="11.72423"><ele>104.0</ele><time>2026-05-02T09:24:04.173Z</time></trkpt><trkpt lat="45.75013" lon="11.7242896"><ele>103.6</ele><time>2026-05-02T09:24:06.173Z</time></trkpt><trkpt lat="45.7502249" lon="11.7243364"><ele>103.2</ele><time>2026-05-02T09:24:08.173Z</time></trkpt><trkpt lat="45.7503172" lon="11.7243761"><ele>102.8</ele><time>2026-05-02T09:24:10.174Z</time></trkpt><trkpt lat="45.75041" lon="11.7244181"><ele>102.39999999999999</ele><time>2026-05-02T09:24:12.173Z</time></trkpt><trkpt lat="45.7505031" lon="11.7244564"><ele>102.0</ele><time>2026-05-02T09:24:14.175Z</time></trkpt><trkpt lat="45.750592" lon="11.7244974"><ele>102.0</ele><time>2026-05-02T09:24:16.173Z</time></trkpt><trkpt lat="45.750679" lon="11.7245419"><ele>102.0</ele><time>2026-05-02T09:24:18.175Z</time></trkpt><trkpt lat="45.7507631" lon="11.7245838"><ele>102.0</ele><time>2026-05-02T09:24:20.174Z</time></trkpt><trkpt lat="45.7508498" lon="11.72461"><ele>102.0</ele><time>2026-05-02T09:24:22.173Z</time></trkpt><trkpt lat="45.7509416" lon="11.7246375"><ele>102.0</ele><time>2026-05-02T09:24:24.175Z</time></trkpt><trkpt lat="45.7510361" lon="11.7246484"><ele>102.39999999999999</ele><time>2026-05-02T09:24:26.175Z</time></trkpt><trkpt lat="45.7511323" lon="11.7246702"><ele>102.8</ele><time>2026-05-02T09:24:28.174Z</time></trkpt><trkpt lat="45.7512213" lon="11.7246998"><ele>103.2</ele><time>2026-05-02T09:24:30.175Z</time></trkpt><trkpt lat="45.7513192" lon="11.7247344"><ele>103.6</ele><time>2026-05-02T09:24:32.175Z</time></trkpt><trkpt lat="45.7514117" lon="11.7247573"><ele>104.0</ele><time>2026-05-02T09:24:34.175Z</time></trkpt><trkpt lat="45.7515057" lon="11.7247839"><ele>104.0</ele><time>2026-05-02T09:24:36.175Z</time></trkpt><trkpt lat="45.7516064" lon="11.7248119"><ele>104.0</ele><time>2026-05-02T09:24:38.175Z</time></trkpt><trkpt lat="45.7517018" lon="11.7248329"><ele>104.0</ele><time>2026-05-02T09:24:40.175Z</time></trkpt><trkpt lat="45.751802" lon="11.7248563"><ele>104.0</ele><time>2026-05-02T09:24:42.174Z</time></trkpt><trkpt lat="45.7518932" lon="11.724888"><ele>104.0</ele><time>2026-05-02T09:24:44.174Z</time></trkpt><trkpt lat="45.7519899" lon="11.7249063"><ele>104.0</ele><time>2026-05-02T09:24:46.175Z</time></trkpt><trkpt lat="45.752091" lon="11.7249124"><ele>104.0</ele><time>2026-05-02T09:24:48.174Z</time></trkpt><trkpt lat="45.7521977" lon="11.7249032"><ele>104.0</ele><time>2026-05-02T09:24:50.174Z</time></trkpt><trkpt lat="45.7523078" lon="11.7248836"><ele>104.0</ele><time>2026-05-02T09:24:52.175Z</time></trkpt><trkpt lat="45.7524116" lon="11.7248574"><ele>104.0</ele><time>2026-05-02T09:24:54.174Z</time></trkpt><trkpt lat="45.7525132" lon="11.724838"><ele>104.0</ele><time>2026-05-02T09:24:56.175Z</time></trkpt><trkpt lat="45.7526108" lon="11.7248272"><ele>104.0</ele><time>2026-05-02T09:24:58.175Z</time></trkpt><trkpt lat="45.7527092" lon="11.7248172"><ele>104.0</ele><time>2026-05-02T09:25:00.175Z</time></trkpt><trkpt lat="45.7528063" lon="11.7248103"><ele>104.0</ele><time>2026-05-02T09:25:02.175Z</time></trkpt><trkpt lat="45.752904" lon="11.7248176"><ele>104.0</ele><time>2026-05-02T09:25:04.175Z</time></trkpt><trkpt lat="45.7530147" lon="11.7248162"><ele>103.83333333333333</ele><time>2026-05-02T09:25:06.175Z</time></trkpt><trkpt lat="45.7531179" lon="11.7248254"><ele>103.66666666666666</ele><time>2026-05-02T09:25:08.175Z</time></trkpt><trkpt lat="45.7532008" lon="11.7248628"><ele>103.5</ele><time>2026-05-02T09:25:10.175Z</time></trkpt><trkpt lat="45.7532806" lon="11.7249116"><ele>103.33333333333334</ele><time>2026-05-02T09:25:12.175Z</time></trkpt><trkpt lat="45.7533581" lon="11.724956"><ele>103.16666666666667</ele><time>2026-05-02T09:25:14.175Z</time></trkpt><trkpt lat="45.7534239" lon="11.7250318"><ele>103.0</ele><time>2026-05-02T09:25:16.175Z</time></trkpt><trkpt lat="45.7534516" lon="11.7251267"><ele>103.2</ele><time>2026-05-02T09:25:21.175Z</time></trkpt><trkpt lat="45.7535413" lon="11.7251343"><ele>103.4</ele><time>2026-05-02T09:25:24.176Z</time></trkpt><trkpt lat="45.7536267" lon="11.72509"><ele>103.60000000000001</ele><time>2026-05-02T09:25:26.176Z</time></trkpt><trkpt lat="45.7537197" lon="11.7250683"><ele>103.80000000000001</ele><time>2026-05-02T09:25:28.174Z</time></trkpt><trkpt lat="45.7538114" lon="11.7250853"><ele>104.0</ele><time>2026-05-02T09:25:30.176Z</time></trkpt><trkpt lat="45.753901" lon="11.7250817"><ele>104.0</ele><time>2026-05-02T09:25:32.175Z</time></trkpt><trkpt lat="45.7540034" lon="11.7250737"><ele>104.0</ele><time>2026-05-02T09:25:34.176Z</time></trkpt><trkpt lat="45.7541074" lon="11.7250621"><ele>104.0</ele><time>2026-05-02T09:25:36.176Z</time></trkpt><trkpt lat="45.7542072" lon="11.725058"><ele>104.0</ele><time>2026-05-02T09:25:38.176Z</time></trkpt><trkpt lat="45.7543215" lon="11.7250599"><ele>104.0</ele><time>2026-05-02T09:25:40.175Z</time></trkpt><trkpt lat="45.7544272" lon="11.7250582"><ele>104.2</ele><time>2026-05-02T09:25:42.176Z</time></trkpt><trkpt lat="45.7545151" lon="11.7250773"><ele>104.4</ele><time>2026-05-02T09:25:44.176Z</time></trkpt><trkpt lat="45.7546124" lon="11.7250977"><ele>104.6</ele><time>2026-05-02T09:25:46.176Z</time></trkpt><trkpt lat="45.7547052" lon="11.7251526"><ele>104.8</ele><time>2026-05-02T09:25:48.175Z</time></trkpt><trkpt lat="45.7547932" lon="11.7252024"><ele>105.0</ele><time>2026-05-02T09:25:50.176Z</time></trkpt><trkpt lat="45.7548815" lon="11.7252537"><ele>105.0</ele><time>2026-05-02T09:25:52.176Z</time></trkpt><trkpt lat="45.7549558" lon="11.7252899"><ele>105.0</ele><time>2026-05-02T09:25:54.176Z</time></trkpt><trkpt lat="45.7550253" lon="11.7253404"><ele>105.0</ele><time>2026-05-02T09:25:56.176Z</time></trkpt><trkpt lat="45.7551059" lon="11.7253681"><ele>105.0</ele><time>2026-05-02T09:25:58.176Z</time></trkpt><trkpt lat="45.7551988" lon="11.7253924"><ele>105.0</ele><time>2026-05-02T09:26:00.175Z</time></trkpt><trkpt lat="45.7552794" lon="11.7254221"><ele>105.0</ele><time>2026-05-02T09:26:02.176Z</time></trkpt><trkpt lat="45.7553494" lon="11.7254858"><ele>105.5</ele><time>2026-05-02T09:26:04.175Z</time></trkpt><trkpt lat="45.7554131" lon="11.7255637"><ele>106.0</ele><time>2026-05-02T09:26:06.175Z</time></trkpt><trkpt lat="45.7554777" lon="11.7256435"><ele>106.5</ele><time>2026-05-02T09:26:08.176Z</time></trkpt><trkpt lat="45.7555347" lon="11.725733"><ele>107.0</ele><time>2026-05-02T09:26:10.176Z</time></trkpt><trkpt lat="45.7555839" lon="11.725823"><ele>107.5</ele><time>2026-05-02T09:26:12.176Z</time></trkpt><trkpt lat="45.7556155" lon="11.7259216"><ele>108.0</ele><time>2026-05-02T09:26:14.177Z</time></trkpt><trkpt lat="45.7556513" lon="11.7260448"><ele>107.66666666666667</ele><time>2026-05-02T09:26:16.176Z</time></trkpt><trkpt lat="45.7556939" lon="11.7261336"><ele>107.33333333333334</ele><time>2026-05-02T09:26:18.175Z</time></trkpt><trkpt lat="45.7557409" lon="11.726214"><ele>107.0</ele><time>2026-05-02T09:26:20.175Z</time></trkpt><trkpt lat="45.7558254" lon="11.7262146"><ele>106.66666666666667</ele><time>2026-05-02T09:26:22.175Z</time></trkpt><trkpt lat="45.7559184" lon="11.7261594"><ele>106.33333333333334</ele><time>2026-05-02T09:26:24.176Z</time></trkpt><trkpt lat="45.7560088" lon="11.7261452"><ele>106.0</ele><time>2026-05-02T09:26:26.176Z</time></trkpt><trkpt lat="45.756092" lon="11.7261404"><ele>106.0</ele><time>2026-05-02T09:26:28.177Z</time></trkpt><trkpt lat="45.7561867" lon="11.7261182"><ele>106.0</ele><time>2026-05-02T09:26:30.176Z</time></trkpt><trkpt lat="45.7562815" lon="11.7261231"><ele>106.0</ele><time>2026-05-02T09:26:32.177Z</time></trkpt><trkpt lat="45.7563671" lon="11.7261349"><ele>106.0</ele><time>2026-05-02T09:26:34.177Z</time></trkpt><trkpt lat="45.7564534" lon="11.7261357"><ele>106.0</ele><time>2026-05-02T09:26:36.177Z</time></trkpt><trkpt lat="45.7565404" lon="11.7261424"><ele>106.00000000000001</ele><time>2026-05-02T09:26:38.177Z</time></trkpt><trkpt lat="45.7566287" lon="11.7261455"><ele>106.0</ele><time>2026-05-02T09:26:40.177Z</time></trkpt><trkpt lat="45.7567056" lon="11.7261445"><ele>106.0</ele><time>2026-05-02T09:26:42.176Z</time></trkpt><trkpt lat="45.7567899" lon="11.7261405"><ele>106.0</ele><time>2026-05-02T09:26:44.177Z</time></trkpt><trkpt lat="45.7568734" lon="11.7261412"><ele>106.00000000000001</ele><time>2026-05-02T09:26:46.176Z</time></trkpt><trkpt lat="45.7569624" lon="11.7261513"><ele>106.0</ele><time>2026-05-02T09:26:48.177Z</time></trkpt><trkpt lat="45.7570518" lon="11.7261606"><ele>105.83333333333334</ele><time>2026-05-02T09:26:50.177Z</time></trkpt><trkpt lat="45.7571415" lon="11.7261565"><ele>105.66666666666667</ele><time>2026-05-02T09:26:52.177Z</time></trkpt><trkpt lat="45.7572299" lon="11.7261775"><ele>105.5</ele><time>2026-05-02T09:26:54.177Z</time></trkpt><trkpt lat="45.757314" lon="11.7261823"><ele>105.33333333333334</ele><time>2026-05-02T09:26:56.177Z</time></trkpt><trkpt lat="45.7574053" lon="11.7261729"><ele>105.16666666666667</ele><time>2026-05-02T09:26:58.176Z</time></trkpt><trkpt lat="45.7574956" lon="11.7261585"><ele>105.0</ele><time>2026-05-02T09:27:00.177Z</time></trkpt><trkpt lat="45.7575851" lon="11.7261451"><ele>105.0</ele><time>2026-05-02T09:27:02.177Z</time></trkpt><trkpt lat="45.7576743" lon="11.7261324"><ele>105.0</ele><time>2026-05-02T09:27:04.177Z</time></trkpt><trkpt lat="45.7577467" lon="11.7261174"><ele>105.0</ele><time>2026-05-02T09:27:06.177Z</time></trkpt><trkpt lat="45.7578288" lon="11.7261099"><ele>105.0</ele><time>2026-05-02T09:27:08.177Z</time></trkpt><trkpt lat="45.7579127" lon="11.7261284"><ele>105.0</ele><time>2026-05-02T09:27:10.177Z</time></trkpt><trkpt lat="45.7579986" lon="11.7261264"><ele>105.0</ele><time>2026-05-02T09:27:12.177Z</time></trkpt><trkpt lat="45.7580833" lon="11.7261174"><ele>105.5</ele><time>2026-05-02T09:27:14.176Z</time></trkpt><trkpt lat="45.7581666" lon="11.7261147"><ele>106.0</ele><time>2026-05-02T09:27:16.177Z</time></trkpt><trkpt lat="45.7582452" lon="11.7261054"><ele>106.5</ele><time>2026-05-02T09:27:18.176Z</time></trkpt><trkpt lat="45.7583237" lon="11.726097"><ele>107.0</ele><time>2026-05-02T09:27:20.176Z</time></trkpt><trkpt lat="45.7584103" lon="11.7261055"><ele>107.5</ele><time>2026-05-02T09:27:22.178Z</time></trkpt><trkpt lat="45.7584857" lon="11.7260964"><ele>108.0</ele><time>2026-05-02T09:27:24.177Z</time></trkpt><trkpt lat="45.7585653" lon="11.7261009"><ele>108.4</ele><time>2026-05-02T09:27:26.177Z</time></trkpt><trkpt lat="45.7586547" lon="11.7261017"><ele>108.80000000000001</ele><time>2026-05-02T09:27:28.177Z</time></trkpt><trkpt lat="45.7587406" lon="11.7261335"><ele>109.2</ele><time>2026-05-02T09:27:30.177Z</time></trkpt><trkpt lat="45.7588364" lon="11.7261328"><ele>109.6</ele><time>2026-05-02T09:27:32.178Z</time></trkpt><trkpt lat="45.7589284" lon="11.7261345"><ele>110.0</ele><time>2026-05-02T09:27:34.178Z</time></trkpt><trkpt lat="45.7590205" lon="11.7261364"><ele>109.99999999999999</ele><time>2026-05-02T09:27:36.177Z</time></trkpt><trkpt lat="45.7591129" lon="11.7261618"><ele>110.0</ele><time>2026-05-02T09:27:38.177Z</time></trkpt><trkpt lat="45.759193" lon="11.7262145"><ele>110.0</ele><time>2026-05-02T09:27:40.177Z</time></trkpt><trkpt lat="45.7592607" lon="11.7262815"><ele>110.0</ele><time>2026-05-02T09:27:42.178Z</time></trkpt><trkpt lat="45.7593178" lon="11.7263394"><ele>109.99999999999999</ele><time>2026-05-02T09:27:44.178Z</time></trkpt><trkpt lat="45.7593774" lon="11.7264099"><ele>110.0</ele><time>2026-05-02T09:27:46.177Z</time></trkpt><trkpt lat="45.7594604" lon="11.7264641"><ele>109.99999999999999</ele><time>2026-05-02T09:27:48.178Z</time></trkpt><trkpt lat="45.7595273" lon="11.7265534"><ele>110.0</ele><time>2026-05-02T09:27:50.178Z</time></trkpt><trkpt lat="45.7595815" lon="11.7266181"><ele>110.0</ele><time>2026-05-02T09:27:52.178Z</time></trkpt><trkpt lat="45.7596283" lon="11.7266913"><ele>110.0</ele><time>2026-05-02T09:27:54.177Z</time></trkpt><trkpt lat="45.7597214" lon="11.7267046"><ele>109.99999999999999</ele><time>2026-05-02T09:27:57.178Z</time></trkpt><trkpt lat="45.759789" lon="11.7267165"><ele>110.0</ele><time>2026-05-02T09:27:59.178Z</time></trkpt><trkpt lat="45.7598714" lon="11.726755"><ele>109.99999999999999</ele><time>2026-05-02T09:28:02.178Z</time></trkpt><trkpt lat="45.7599444" lon="11.7267915"><ele>110.0</ele><time>2026-05-02T09:28:04.178Z</time></trkpt><trkpt lat="45.760014" lon="11.7268309"><ele>110.0</ele><time>2026-05-02T09:28:06.178Z</time></trkpt><trkpt lat="45.7600923" lon="11.7268776"><ele>110.0</ele><time>2026-05-02T09:28:08.177Z</time></trkpt><trkpt lat="45.7601561" lon="11.7269176"><ele>109.99999999999999</ele><time>2026-05-02T09:28:10.178Z</time></trkpt><trkpt lat="45.7602303" lon="11.7269571"><ele>110.0</ele><time>2026-05-02T09:28:12.179Z</time></trkpt><trkpt lat="45.7603022" lon="11.7269958"><ele>110.49999999999999</ele><time>2026-05-02T09:28:14.178Z</time></trkpt><trkpt lat="45.7603758" lon="11.7270299"><ele>111.0</ele><time>2026-05-02T09:28:16.179Z</time></trkpt><trkpt lat="45.7604553" lon="11.7270564"><ele>111.5</ele><time>2026-05-02T09:28:18.178Z</time></trkpt><trkpt lat="45.7605408" lon="11.7270944"><ele>112.0</ele><time>2026-05-02T09:28:20.178Z</time></trkpt><trkpt lat="45.7606131" lon="11.7271455"><ele>112.49999999999999</ele><time>2026-05-02T09:28:22.177Z</time></trkpt><trkpt lat="45.7606893" lon="11.7271837"><ele>113.0</ele><time>2026-05-02T09:28:24.179Z</time></trkpt><trkpt lat="45.7607733" lon="11.7272131"><ele>112.99999999999999</ele><time>2026-05-02T09:28:26.178Z</time></trkpt><trkpt lat="45.7608584" lon="11.7272519"><ele>113.0</ele><time>2026-05-02T09:28:28.179Z</time></trkpt><trkpt lat="45.7609356" lon="11.7273027"><ele>113.0</ele><time>2026-05-02T09:28:30.178Z</time></trkpt><trkpt lat="45.7610156" lon="11.7273384"><ele>113.0</ele><time>2026-05-02T09:28:32.179Z</time></trkpt><trkpt lat="45.7610849" lon="11.7273717"><ele>112.99999999999999</ele><time>2026-05-02T09:28:34.178Z</time></trkpt><trkpt lat="45.7611617" lon="11.7274144"><ele>113.0</ele><time>2026-05-02T09:28:36.179Z</time></trkpt><trkpt lat="45.7612447" lon="11.7274518"><ele>112.0</ele><time>2026-05-02T09:28:38.179Z</time></trkpt><trkpt lat="45.7613287" lon="11.7274819"><ele>111.00000000000001</ele><time>2026-05-02T09:28:40.179Z</time></trkpt><trkpt lat="45.7614196" lon="11.7275432"><ele>110.00000000000001</ele><time>2026-05-02T09:28:42.179Z</time></trkpt><trkpt lat="45.7615127" lon="11.7275997"><ele>109.0</ele><time>2026-05-02T09:28:44.179Z</time></trkpt><trkpt lat="45.7615943" lon="11.7276491"><ele>108.0</ele><time>2026-05-02T09:28:46.178Z</time></trkpt><trkpt lat="45.7616781" lon="11.7277045"><ele>107.66666666666667</ele><time>2026-05-02T09:28:48.179Z</time></trkpt><trkpt lat="45.7617508" lon="11.7277653"><ele>107.33333333333334</ele><time>2026-05-02T09:28:50.179Z</time></trkpt><trkpt lat="45.761823" lon="11.7278435"><ele>107.0</ele><time>2026-05-02T09:28:52.178Z</time></trkpt><trkpt lat="45.7618848" lon="11.7279219"><ele>106.66666666666667</ele><time>2026-05-02T09:28:54.179Z</time></trkpt><trkpt lat="45.7619422" lon="11.7280026"><ele>106.33333333333334</ele><time>2026-05-02T09:28:56.179Z</time></trkpt><trkpt lat="45.7619909" lon="11.7280961"><ele>106.0</ele><time>2026-05-02T09:28:58.178Z</time></trkpt><trkpt lat="45.7620432" lon="11.7282144"><ele>106.00000000000001</ele><time>2026-05-02T09:29:00.179Z</time></trkpt><trkpt lat="45.7621044" lon="11.7283265"><ele>106.0</ele><time>2026-05-02T09:29:02.179Z</time></trkpt><trkpt lat="45.7621565" lon="11.728443"><ele>106.0</ele><time>2026-05-02T09:29:04.179Z</time></trkpt><trkpt lat="45.7622056" lon="11.7285398"><ele>106.0</ele><time>2026-05-02T09:29:06.179Z</time></trkpt><trkpt lat="45.7622649" lon="11.7286187"><ele>106.00000000000001</ele><time>2026-05-02T09:29:08.18Z</time></trkpt><trkpt lat="45.7623183" lon="11.7287077"><ele>106.0</ele><time>2026-05-02T09:29:10.178Z</time></trkpt><trkpt lat="45.7623788" lon="11.728801"><ele>107.19999999999999</ele><time>2026-05-02T09:29:12.179Z</time></trkpt><trkpt lat="45.7624317" lon="11.7288811"><ele>108.39999999999999</ele><time>2026-05-02T09:29:14.179Z</time></trkpt><trkpt lat="45.762493" lon="11.7289878"><ele>109.6</ele><time>2026-05-02T09:29:16.179Z</time></trkpt><trkpt lat="45.762546" lon="11.7290641"><ele>110.8</ele><time>2026-05-02T09:29:18.179Z</time></trkpt><trkpt lat="45.7626148" lon="11.7291609"><ele>112.0</ele><time>2026-05-02T09:29:20.18Z</time></trkpt><trkpt lat="45.7626939" lon="11.7292754"><ele>112.0</ele><time>2026-05-02T09:29:22.179Z</time></trkpt><trkpt lat="45.7627597" lon="11.7293607"><ele>111.99999999999999</ele><time>2026-05-02T09:29:24.179Z</time></trkpt><trkpt lat="45.7628213" lon="11.7294526"><ele>111.99999999999999</ele><time>2026-05-02T09:29:26.18Z</time></trkpt><trkpt lat="45.7628857" lon="11.7295656"><ele>112.0</ele><time>2026-05-02T09:29:28.179Z</time></trkpt><trkpt lat="45.76295" lon="11.7296715"><ele>112.0</ele><time>2026-05-02T09:29:30.179Z</time></trkpt><trkpt lat="45.7630161" lon="11.7297656"><ele>112.00000000000001</ele><time>2026-05-02T09:29:32.18Z</time></trkpt><trkpt lat="45.763085" lon="11.7298537"><ele>112.0</ele><time>2026-05-02T09:29:34.18Z</time></trkpt><trkpt lat="45.7631442" lon="11.7299277"><ele>112.0</ele><time>2026-05-02T09:29:36.18Z</time></trkpt><trkpt lat="45.7631988" lon="11.7299992"><ele>112.0</ele><time>2026-05-02T09:29:38.18Z</time></trkpt><trkpt lat="45.7632462" lon="11.7300824"><ele>112.00000000000001</ele><time>2026-05-02T09:29:40.18Z</time></trkpt><trkpt lat="45.7633035" lon="11.7301762"><ele>112.0</ele><time>2026-05-02T09:29:42.18Z</time></trkpt><trkpt lat="45.7633607" lon="11.7302633"><ele>112.66666666666667</ele><time>2026-05-02T09:29:44.18Z</time></trkpt><trkpt lat="45.7634092" lon="11.7303523"><ele>113.33333333333334</ele><time>2026-05-02T09:29:46.18Z</time></trkpt><trkpt lat="45.7634457" lon="11.7304445"><ele>114.0</ele><time>2026-05-02T09:29:48.18Z</time></trkpt><trkpt lat="45.763486" lon="11.7305387"><ele>114.66666666666666</ele><time>2026-05-02T09:29:50.18Z</time></trkpt><trkpt lat="45.7635076" lon="11.7306312"><ele>115.33333333333333</ele><time>2026-05-02T09:29:52.18Z</time></trkpt><trkpt lat="45.7635271" lon="11.7307536"><ele>116.0</ele><time>2026-05-02T09:29:55.18Z</time></trkpt><trkpt lat="45.7635258" lon="11.7308809"><ele>115.99999999999999</ele><time>2026-05-02T09:29:58.18Z</time></trkpt><trkpt lat="45.7635367" lon="11.7309892"><ele>116.0</ele><time>2026-05-02T09:30:00.18Z</time></trkpt><trkpt lat="45.7635467" lon="11.7310998"><ele>116.0</ele><time>2026-05-02T09:30:02.18Z</time></trkpt><trkpt lat="45.7635573" lon="11.7312025"><ele>116.0</ele><time>2026-05-02T09:30:04.18Z</time></trkpt><trkpt lat="45.763579" lon="11.7313207"><ele>115.99999999999999</ele><time>2026-05-02T09:30:06.18Z</time></trkpt><trkpt lat="45.763581" lon="11.7314282"><ele>116.0</ele><time>2026-05-02T09:30:08.18Z</time></trkpt><trkpt lat="45.7636179" lon="11.7315164"><ele>115.99999999999999</ele><time>2026-05-02T09:30:10.181Z</time></trkpt><trkpt lat="45.7636843" lon="11.7315347"><ele>116.0</ele><time>2026-05-02T09:30:12.18Z</time></trkpt><trkpt lat="45.7637621" lon="11.7314701"><ele>116.0</ele><time>2026-05-02T09:30:14.18Z</time></trkpt><trkpt lat="45.7638156" lon="11.7313973"><ele>116.0</ele><time>2026-05-02T09:30:16.181Z</time></trkpt><trkpt lat="45.763872" lon="11.7312959"><ele>115.99999999999999</ele><time>2026-05-02T09:30:18.18Z</time></trkpt><trkpt lat="45.7639218" lon="11.7312072"><ele>116.0</ele><time>2026-05-02T09:30:20.18Z</time></trkpt><trkpt lat="45.7639721" lon="11.7311302"><ele>115.99999999999999</ele><time>2026-05-02T09:30:22.181Z</time></trkpt><trkpt lat="45.7640323" lon="11.7310723"><ele>116.0</ele><time>2026-05-02T09:30:24.18Z</time></trkpt><trkpt lat="45.7641039" lon="11.7310106"><ele>116.0</ele><time>2026-05-02T09:30:27.18Z</time></trkpt><trkpt lat="45.764162" lon="11.7308942"><ele>116.0</ele><time>2026-05-02T09:30:30.181Z</time></trkpt><trkpt lat="45.7642077" lon="11.7308055"><ele>115.99999999999999</ele><time>2026-05-02T09:30:32.18Z</time></trkpt><trkpt lat="45.7642411" lon="11.7307061"><ele>116.0</ele><time>2026-05-02T09:30:34.181Z</time></trkpt><trkpt lat="45.7642757" lon="11.7306001"><ele>115.33333333333333</ele><time>2026-05-02T09:30:36.18Z</time></trkpt><trkpt lat="45.764321" lon="11.7304854"><ele>114.66666666666666</ele><time>2026-05-02T09:30:38.18Z</time></trkpt><trkpt lat="45.7643627" lon="11.7303785"><ele>114.0</ele><time>2026-05-02T09:30:40.181Z</time></trkpt><trkpt lat="45.7644067" lon="11.7302766"><ele>113.33333333333334</ele><time>2026-05-02T09:30:42.181Z</time></trkpt><trkpt lat="45.7644508" lon="11.7301673"><ele>112.66666666666667</ele><time>2026-05-02T09:30:44.181Z</time></trkpt><trkpt lat="45.7644946" lon="11.7300579"><ele>112.0</ele><time>2026-05-02T09:30:46.181Z</time></trkpt><trkpt lat="45.7645423" lon="11.7299541"><ele>111.6</ele><time>2026-05-02T09:30:48.181Z</time></trkpt><trkpt lat="45.7645895" lon="11.7298497"><ele>111.19999999999999</ele><time>2026-05-02T09:30:50.181Z</time></trkpt><trkpt lat="45.764635" lon="11.7297327"><ele>110.8</ele><time>2026-05-02T09:30:52.181Z</time></trkpt><trkpt lat="45.7646889" lon="11.7296189"><ele>110.4</ele><time>2026-05-02T09:30:54.181Z</time></trkpt><trkpt lat="45.7647375" lon="11.7295091"><ele>110.0</ele><time>2026-05-02T09:30:56.181Z</time></trkpt><trkpt lat="45.7647886" lon="11.729389"><ele>109.99999999999999</ele><time>2026-05-02T09:30:58.181Z</time></trkpt><trkpt lat="45.764837" lon="11.7292681"><ele>110.0</ele><time>2026-05-02T09:31:00.181Z</time></trkpt><trkpt lat="45.7648827" lon="11.7291586"><ele>110.0</ele><time>2026-05-02T09:31:02.181Z</time></trkpt><trkpt lat="45.7649327" lon="11.7290642"><ele>110.0</ele><time>2026-05-02T09:31:04.181Z</time></trkpt><trkpt lat="45.7649784" lon="11.7289668"><ele>109.99999999999999</ele><time>2026-05-02T09:31:06.181Z</time></trkpt><trkpt lat="45.7650466" lon="11.7288901"><ele>110.0</ele><time>2026-05-02T09:31:08.181Z</time></trkpt><trkpt lat="45.7651316" lon="11.7288146"><ele>110.4</ele><time>2026-05-02T09:31:10.181Z</time></trkpt><trkpt lat="45.7652001" lon="11.7286997"><ele>110.8</ele><time>2026-05-02T09:31:12.181Z</time></trkpt><trkpt lat="45.7652486" lon="11.7285645"><ele>111.19999999999999</ele><time>2026-05-02T09:31:14.182Z</time></trkpt><trkpt lat="45.7652923" lon="11.7284322"><ele>111.6</ele><time>2026-05-02T09:31:16.182Z</time></trkpt><trkpt lat="45.7653321" lon="11.7283045"><ele>112.0</ele><time>2026-05-02T09:31:18.181Z</time></trkpt><trkpt lat="45.7653636" lon="11.7281999"><ele>112.16666666666667</ele><time>2026-05-02T09:31:20.18Z</time></trkpt><trkpt lat="45.7653975" lon="11.7281151"><ele>112.33333333333334</ele><time>2026-05-02T09:31:22.182Z</time></trkpt><trkpt lat="45.7654429" lon="11.7280046"><ele>112.5</ele><time>2026-05-02T09:31:25.181Z</time></trkpt><trkpt lat="45.7654905" lon="11.7278983"><ele>112.66666666666666</ele><time>2026-05-02T09:31:28.182Z</time></trkpt><trkpt lat="45.7655226" lon="11.7278001"><ele>112.83333333333333</ele><time>2026-05-02T09:31:30.182Z</time></trkpt><trkpt lat="45.76555" lon="11.7277092"><ele>113.0</ele><time>2026-05-02T09:31:32.182Z</time></trkpt><trkpt lat="45.7656017" lon="11.727591"><ele>113.0</ele><time>2026-05-02T09:31:35.182Z</time></trkpt><trkpt lat="45.7656333" lon="11.7275065"><ele>113.0</ele><time>2026-05-02T09:31:37.182Z</time></trkpt><trkpt lat="45.765687" lon="11.727443"><ele>113.0</ele><time>2026-05-02T09:31:39.182Z</time></trkpt><trkpt lat="45.7657686" lon="11.7274131"><ele>113.0</ele><time>2026-05-02T09:31:41.182Z</time></trkpt><trkpt lat="45.7658437" lon="11.7273871"><ele>113.0</ele><time>2026-05-02T09:31:43.182Z</time></trkpt><trkpt lat="45.7659079" lon="11.727386"><ele>113.0</ele><time>2026-05-02T09:31:45.182Z</time></trkpt><trkpt lat="45.7659738" lon="11.7274169"><ele>113.0</ele><time>2026-05-02T09:31:47.182Z</time></trkpt><trkpt lat="45.7660352" lon="11.7274562"><ele>112.83333333333333</ele><time>2026-05-02T09:31:49.181Z</time></trkpt><trkpt lat="45.7661242" lon="11.7274607"><ele>112.66666666666666</ele><time>2026-05-02T09:31:51.181Z</time></trkpt><trkpt lat="45.7662144" lon="11.727487"><ele>112.5</ele><time>2026-05-02T09:31:53.182Z</time></trkpt><trkpt lat="45.7662983" lon="11.7275164"><ele>112.33333333333334</ele><time>2026-05-02T09:31:55.182Z</time></trkpt><trkpt lat="45.7663779" lon="11.7275221"><ele>112.16666666666667</ele><time>2026-05-02T09:31:57.182Z</time></trkpt><trkpt lat="45.7664539" lon="11.7275307"><ele>112.0</ele><time>2026-05-02T09:31:59.182Z</time></trkpt><trkpt lat="45.7665265" lon="11.7275514"><ele>112.00000000000001</ele><time>2026-05-02T09:32:01.182Z</time></trkpt><trkpt lat="45.7665957" lon="11.7275685"><ele>112.0</ele><time>2026-05-02T09:32:03.181Z</time></trkpt><trkpt lat="45.766662" lon="11.7275898"><ele>112.0</ele><time>2026-05-02T09:32:05.182Z</time></trkpt><trkpt lat="45.7667575" lon="11.7276217"><ele>112.0</ele><time>2026-05-02T09:32:08.182Z</time></trkpt><trkpt lat="45.7668286" lon="11.7276393"><ele>112.00000000000001</ele><time>2026-05-02T09:32:10.182Z</time></trkpt><trkpt lat="45.7669066" lon="11.7276567"><ele>112.0</ele><time>2026-05-02T09:32:12.182Z</time></trkpt><trkpt lat="45.766995" lon="11.727646"><ele>112.00000000000001</ele><time>2026-05-02T09:32:14.182Z</time></trkpt><trkpt lat="45.7670955" lon="11.7276642"><ele>112.0</ele><time>2026-05-02T09:32:16.182Z</time></trkpt><trkpt lat="45.7671938" lon="11.7276795"><ele>112.0</ele><time>2026-05-02T09:32:18.182Z</time></trkpt><trkpt lat="45.7672859" lon="11.7276866"><ele>112.0</ele><time>2026-05-02T09:32:20.182Z</time></trkpt><trkpt lat="45.7673724" lon="11.7277095"><ele>112.00000000000001</ele><time>2026-05-02T09:32:22.183Z</time></trkpt><trkpt lat="45.7674359" lon="11.727712"><ele>112.0</ele><time>2026-05-02T09:32:24.182Z</time></trkpt><trkpt lat="45.7675131" lon="11.7277258"><ele>112.33333333333334</ele><time>2026-05-02T09:32:27.183Z</time></trkpt><trkpt lat="45.7676053" lon="11.7277478"><ele>112.66666666666667</ele><time>2026-05-02T09:32:31.183Z</time></trkpt><trkpt lat="45.7676824" lon="11.7277524"><ele>113.0</ele><time>2026-05-02T09:32:33.183Z</time></trkpt><trkpt lat="45.7677532" lon="11.727761"><ele>113.33333333333334</ele><time>2026-05-02T09:32:35.182Z</time></trkpt><trkpt lat="45.7678332" lon="11.7277947"><ele>113.66666666666667</ele><time>2026-05-02T09:32:37.183Z</time></trkpt><trkpt lat="45.7679184" lon="11.7278249"><ele>114.0</ele><time>2026-05-02T09:32:39.183Z</time></trkpt><trkpt lat="45.7679869" lon="11.7278411"><ele>114.0</ele><time>2026-05-02T09:32:41.183Z</time></trkpt><trkpt lat="45.7680918" lon="11.7278556"><ele>114.0</ele><time>2026-05-02T09:32:43.183Z</time></trkpt><trkpt lat="45.7681594" lon="11.727869"><ele>114.0</ele><time>2026-05-02T09:32:44.182Z</time></trkpt><trkpt lat="45.7682758" lon="11.7279049"><ele>114.0</ele><time>2026-05-02T09:32:46.183Z</time></trkpt><trkpt lat="45.7683746" lon="11.7279338"><ele>114.0</ele><time>2026-05-02T09:32:48.183Z</time></trkpt><trkpt lat="45.7684616" lon="11.7279656"><ele>113.5</ele><time>2026-05-02T09:32:50.183Z</time></trkpt><trkpt lat="45.7685484" lon="11.7280026"><ele>113.0</ele><time>2026-05-02T09:32:52.183Z</time></trkpt><trkpt lat="45.768641" lon="11.7280291"><ele>112.5</ele><time>2026-05-02T09:32:54.183Z</time></trkpt><trkpt lat="45.7687265" lon="11.7280551"><ele>112.0</ele><time>2026-05-02T09:32:56.183Z</time></trkpt><trkpt lat="45.7687999" lon="11.7280813"><ele>111.5</ele><time>2026-05-02T09:32:58.183Z</time></trkpt><trkpt lat="45.768883" lon="11.7280986"><ele>111.0</ele><time>2026-05-02T09:33:01.215Z</time></trkpt><trkpt lat="45.7689945" lon="11.7281116"><ele>111.0</ele><time>2026-05-02T09:33:03.256Z</time></trkpt><trkpt lat="45.7690754" lon="11.7281274"><ele>111.0</ele><time>2026-05-02T09:33:05.241Z</time></trkpt><trkpt lat="45.7691471" lon="11.728155"><ele>111.0</ele><time>2026-05-02T09:33:07.255Z</time></trkpt><trkpt lat="45.7692157" lon="11.7281858"><ele>111.0</ele><time>2026-05-02T09:33:09.269Z</time></trkpt><trkpt lat="45.7692763" lon="11.7282398"><ele>111.0</ele><time>2026-05-02T09:33:11.281Z</time></trkpt><trkpt lat="45.7693297" lon="11.7283487"><ele>111.0</ele><time>2026-05-02T09:33:13.296Z</time></trkpt><trkpt lat="45.7693771" lon="11.728467"><ele>110.6</ele><time>2026-05-02T09:33:15.208Z</time></trkpt><trkpt lat="45.7694399" lon="11.7285903"><ele>110.19999999999999</ele><time>2026-05-02T09:33:17.183Z</time></trkpt><trkpt lat="45.7695002" lon="11.7287158"><ele>109.80000000000001</ele><time>2026-05-02T09:33:19.184Z</time></trkpt><trkpt lat="45.7695662" lon="11.7288446"><ele>109.4</ele><time>2026-05-02T09:33:21.183Z</time></trkpt><trkpt lat="45.7696351" lon="11.7289861"><ele>109.0</ele><time>2026-05-02T09:33:23.184Z</time></trkpt><trkpt lat="45.7697029" lon="11.729117"><ele>109.0</ele><time>2026-05-02T09:33:25.184Z</time></trkpt><trkpt lat="45.7697617" lon="11.7292422"><ele>109.0</ele><time>2026-05-02T09:33:27.184Z</time></trkpt><trkpt lat="45.7698497" lon="11.7293587"><ele>109.0</ele><time>2026-05-02T09:33:29.184Z</time></trkpt><trkpt lat="45.769935" lon="11.7294734"><ele>109.0</ele><time>2026-05-02T09:33:31.183Z</time></trkpt><trkpt lat="45.7700203" lon="11.7295865"><ele>109.00000000000001</ele><time>2026-05-02T09:33:33.184Z</time></trkpt><trkpt lat="45.770104" lon="11.7296847"><ele>109.0</ele><time>2026-05-02T09:33:35.183Z</time></trkpt><trkpt lat="45.7701874" lon="11.7297674"><ele>109.0</ele><time>2026-05-02T09:33:37.183Z</time></trkpt><trkpt lat="45.7702515" lon="11.72984"><ele>109.0</ele><time>2026-05-02T09:33:39.184Z</time></trkpt><trkpt lat="45.7702965" lon="11.7299504"><ele>109.00000000000001</ele><time>2026-05-02T09:33:42.184Z</time></trkpt><trkpt lat="45.7703346" lon="11.7300317"><ele>109.0</ele><time>2026-05-02T09:33:44.184Z</time></trkpt><trkpt lat="45.7703829" lon="11.7301445"><ele>108.42857142857143</ele><time>2026-05-02T09:33:47.184Z</time></trkpt><trkpt lat="45.7704128" lon="11.7302269"><ele>107.85714285714286</ele><time>2026-05-02T09:33:50.183Z</time></trkpt><trkpt lat="45.7704672" lon="11.7302748"><ele>107.28571428571428</ele><time>2026-05-02T09:33:52.184Z</time></trkpt><trkpt lat="45.7705382" lon="11.7303162"><ele>106.71428571428572</ele><time>2026-05-02T09:33:55.184Z</time></trkpt><trkpt lat="45.7706035" lon="11.7303314"><ele>106.14285714285714</ele><time>2026-05-02T09:33:57.183Z</time></trkpt><trkpt lat="45.7706746" lon="11.7303494"><ele>105.57142857142857</ele><time>2026-05-02T09:34:00.184Z</time></trkpt><trkpt lat="45.7707436" lon="11.730347"><ele>105.0</ele><time>2026-05-02T09:34:03.184Z</time></trkpt><trkpt lat="45.7708229" lon="11.7303523"><ele>105.0</ele><time>2026-05-02T09:34:08.185Z</time></trkpt><trkpt lat="45.7709042" lon="11.7303384"><ele>105.0</ele><time>2026-05-02T09:34:12.184Z</time></trkpt><trkpt lat="45.7709759" lon="11.7303313"><ele>105.0</ele><time>2026-05-02T09:34:15.185Z</time></trkpt><trkpt lat="45.7710481" lon="11.7303366"><ele>105.0</ele><time>2026-05-02T09:34:17.184Z</time></trkpt><trkpt lat="45.7711377" lon="11.7303456"><ele>105.0</ele><time>2026-05-02T09:34:20.184Z</time></trkpt><trkpt lat="45.771203" lon="11.7303287"><ele>105.0</ele><time>2026-05-02T09:34:23.185Z</time></trkpt><trkpt lat="45.7712765" lon="11.7303175"><ele>105.33333333333333</ele><time>2026-05-02T09:34:27.185Z</time></trkpt><trkpt lat="45.7713614" lon="11.730326"><ele>105.66666666666666</ele><time>2026-05-02T09:34:30.184Z</time></trkpt><trkpt lat="45.7714261" lon="11.7303291"><ele>106.0</ele><time>2026-05-02T09:34:33.185Z</time></trkpt><trkpt lat="45.7715061" lon="11.7303211"><ele>106.33333333333333</ele><time>2026-05-02T09:34:37.184Z</time></trkpt><trkpt lat="45.771568" lon="11.7303376"><ele>106.66666666666666</ele><time>2026-05-02T09:34:40.185Z</time></trkpt><trkpt lat="45.7716618" lon="11.7303206"><ele>107.0</ele><time>2026-05-02T09:34:43.185Z</time></trkpt><trkpt lat="45.771743" lon="11.7303513"><ele>106.99999999999999</ele><time>2026-05-02T09:34:47.185Z</time></trkpt><trkpt lat="45.7718309" lon="11.7303677"><ele>107.0</ele><time>2026-05-02T09:34:50.185Z</time></trkpt><trkpt lat="45.7719057" lon="11.7303527"><ele>107.0</ele><time>2026-05-02T09:34:54.185Z</time></trkpt><trkpt lat="45.7719852" lon="11.7303424"><ele>107.0</ele><time>2026-05-02T09:34:58.185Z</time></trkpt><trkpt lat="45.7720668" lon="11.7303466"><ele>106.99999999999999</ele><time>2026-05-02T09:35:02.185Z</time></trkpt><trkpt lat="45.7721299" lon="11.7303481"><ele>107.0</ele><time>2026-05-02T09:35:04.186Z</time></trkpt><trkpt lat="45.7722205" lon="11.730352"><ele>107.16666666666666</ele><time>2026-05-02T09:35:07.185Z</time></trkpt><trkpt lat="45.7722855" lon="11.7303462"><ele>107.33333333333333</ele><time>2026-05-02T09:35:09.186Z</time></trkpt><trkpt lat="45.7723525" lon="11.7303444"><ele>107.5</ele><time>2026-05-02T09:35:12.185Z</time></trkpt><trkpt lat="45.7724178" lon="11.7303632"><ele>107.66666666666666</ele><time>2026-05-02T09:35:16.185Z</time></trkpt><trkpt lat="45.7724928" lon="11.7303745"><ele>107.83333333333333</ele><time>2026-05-02T09:35:19.186Z</time></trkpt><trkpt lat="45.7725904" lon="11.730367"><ele>108.0</ele><time>2026-05-02T09:35:22.184Z</time></trkpt><trkpt lat="45.7726701" lon="11.7303382"><ele>108.33333333333333</ele><time>2026-05-02T09:35:25.186Z</time></trkpt><trkpt lat="45.7727182" lon="11.7302724"><ele>108.66666666666666</ele><time>2026-05-02T09:35:27.186Z</time></trkpt><trkpt lat="45.7727675" lon="11.7302023"><ele>109.0</ele><time>2026-05-02T09:35:29.185Z</time></trkpt><trkpt lat="45.7728474" lon="11.7301471"><ele>109.33333333333333</ele><time>2026-05-02T09:35:32.186Z</time></trkpt><trkpt lat="45.7729418" lon="11.7301132"><ele>109.66666666666666</ele><time>2026-05-02T09:35:35.185Z</time></trkpt><trkpt lat="45.773019" lon="11.7300989"><ele>110.0</ele><time>2026-05-02T09:35:37.186Z</time></trkpt><trkpt lat="45.7730964" lon="11.7300893"><ele>110.49999999999999</ele><time>2026-05-02T09:35:39.185Z</time></trkpt><trkpt lat="45.7731824" lon="11.7300752"><ele>111.0</ele><time>2026-05-02T09:35:41.186Z</time></trkpt><trkpt lat="45.7732591" lon="11.730069"><ele>111.5</ele><time>2026-05-02T09:35:43.185Z</time></trkpt><trkpt lat="45.7733396" lon="11.7300588"><ele>112.0</ele><time>2026-05-02T09:35:45.185Z</time></trkpt><trkpt lat="45.7734223" lon="11.7300384"><ele>112.49999999999999</ele><time>2026-05-02T09:35:48.186Z</time></trkpt><trkpt lat="45.7735083" lon="11.7300101"><ele>113.0</ele><time>2026-05-02T09:35:51.186Z</time></trkpt><trkpt lat="45.7735672" lon="11.7299601"><ele>113.0</ele><time>2026-05-02T09:35:53.186Z</time></trkpt><trkpt lat="45.773644" lon="11.7298935"><ele>113.00000000000001</ele><time>2026-05-02T09:35:55.186Z</time></trkpt><trkpt lat="45.7737198" lon="11.729804"><ele>113.00000000000001</ele><time>2026-05-02T09:35:57.186Z</time></trkpt><trkpt lat="45.7737934" lon="11.7296958"><ele>113.0</ele><time>2026-05-02T09:35:59.186Z</time></trkpt><trkpt lat="45.7738588" lon="11.7295976"><ele>113.0</ele><time>2026-05-02T09:36:01.186Z</time></trkpt><trkpt lat="45.7739369" lon="11.729489"><ele>113.4</ele><time>2026-05-02T09:36:03.187Z</time></trkpt><trkpt lat="45.7740182" lon="11.7293772"><ele>113.80000000000001</ele><time>2026-05-02T09:36:05.186Z</time></trkpt><trkpt lat="45.774086" lon="11.729267"><ele>114.2</ele><time>2026-05-02T09:36:07.187Z</time></trkpt><trkpt lat="45.7741384" lon="11.7291644"><ele>114.6</ele><time>2026-05-02T09:36:09.186Z</time></trkpt><trkpt lat="45.774169" lon="11.7290642"><ele>115.0</ele><time>2026-05-02T09:36:11.186Z</time></trkpt><trkpt lat="45.774201" lon="11.7289496"><ele>114.99999999999999</ele><time>2026-05-02T09:36:13.185Z</time></trkpt><trkpt lat="45.7742855" lon="11.7289291"><ele>115.0</ele><time>2026-05-02T09:36:16.185Z</time></trkpt><trkpt lat="45.7743522" lon="11.7289432"><ele>114.99999999999999</ele><time>2026-05-02T09:36:18.186Z</time></trkpt><trkpt lat="45.7744214" lon="11.7289387"><ele>114.99999999999999</ele><time>2026-05-02T09:36:20.186Z</time></trkpt><trkpt lat="45.7745065" lon="11.7289281"><ele>115.0</ele><time>2026-05-02T09:36:23.187Z</time></trkpt><trkpt lat="45.7745744" lon="11.7289422"><ele>114.99999999999999</ele><time>2026-05-02T09:36:25.186Z</time></trkpt><trkpt lat="45.7746445" lon="11.7289447"><ele>114.99999999999999</ele><time>2026-05-02T09:36:27.187Z</time></trkpt><trkpt lat="45.7747356" lon="11.7289427"><ele>114.99999999999999</ele><time>2026-05-02T09:36:30.187Z</time></trkpt><trkpt lat="45.7747988" lon="11.7289456"><ele>115.0</ele><time>2026-05-02T09:36:32.186Z</time></trkpt><trkpt lat="45.7748617" lon="11.7289558"><ele>114.99999999999999</ele><time>2026-05-02T09:36:34.187Z</time></trkpt><trkpt lat="45.7749278" lon="11.7289402"><ele>114.99999999999999</ele><time>2026-05-02T09:36:36.187Z</time></trkpt><trkpt lat="45.7749914" lon="11.7289156"><ele>115.0</ele><time>2026-05-02T09:36:38.187Z</time></trkpt><trkpt lat="45.7750591" lon="11.7288778"><ele>114.99999999999999</ele><time>2026-05-02T09:36:40.187Z</time></trkpt><trkpt lat="45.7751478" lon="11.7288883"><ele>114.99999999999999</ele><time>2026-05-02T09:36:43.187Z</time></trkpt><trkpt lat="45.7752243" lon="11.7289137"><ele>115.16666666666667</ele><time>2026-05-02T09:36:45.187Z</time></trkpt><trkpt lat="45.7752986" lon="11.7289472"><ele>115.33333333333334</ele><time>2026-05-02T09:36:47.187Z</time></trkpt><trkpt lat="45.7753775" lon="11.7289624"><ele>115.5</ele><time>2026-05-02T09:36:49.186Z</time></trkpt><trkpt lat="45.7754534" lon="11.7290066"><ele>115.66666666666666</ele><time>2026-05-02T09:36:51.187Z</time></trkpt><trkpt lat="45.7755278" lon="11.7290621"><ele>115.83333333333333</ele><time>2026-05-02T09:36:53.187Z</time></trkpt><trkpt lat="45.7756067" lon="11.7291008"><ele>116.0</ele><time>2026-05-02T09:36:55.187Z</time></trkpt><trkpt lat="45.7756839" lon="11.7291111"><ele>115.99999999999999</ele><time>2026-05-02T09:36:57.187Z</time></trkpt><trkpt lat="45.7757712" lon="11.729106"><ele>116.0</ele><time>2026-05-02T09:36:59.187Z</time></trkpt><trkpt lat="45.7758636" lon="11.7290683"><ele>116.0</ele><time>2026-05-02T09:37:01.187Z</time></trkpt><trkpt lat="45.7759465" lon="11.7290404"><ele>116.0</ele><time>2026-05-02T09:37:03.188Z</time></trkpt><trkpt lat="45.7760315" lon="11.7290323"><ele>115.99999999999999</ele><time>2026-05-02T09:37:05.187Z</time></trkpt><trkpt lat="45.7761183" lon="11.7290136"><ele>116.0</ele><time>2026-05-02T09:37:07.186Z</time></trkpt><trkpt lat="45.7762034" lon="11.7290014"><ele>115.99999999999999</ele><time>2026-05-02T09:37:09.187Z</time></trkpt><trkpt lat="45.7762934" lon="11.7289882"><ele>116.0</ele><time>2026-05-02T09:37:11.187Z</time></trkpt><trkpt lat="45.7763688" lon="11.7289766"><ele>116.0</ele><time>2026-05-02T09:37:13.187Z</time></trkpt><trkpt lat="45.7764462" lon="11.7289559"><ele>116.0</ele><time>2026-05-02T09:37:15.188Z</time></trkpt><trkpt lat="45.7765341" lon="11.7289324"><ele>115.99999999999999</ele><time>2026-05-02T09:37:17.187Z</time></trkpt><trkpt lat="45.776628" lon="11.7289025"><ele>116.0</ele><time>2026-05-02T09:37:19.188Z</time></trkpt><trkpt lat="45.7767159" lon="11.7288555"><ele>116.0</ele><time>2026-05-02T09:37:21.188Z</time></trkpt><trkpt lat="45.776801" lon="11.7288008"><ele>116.0</ele><time>2026-05-02T09:37:23.188Z</time></trkpt><trkpt lat="45.7768794" lon="11.7287617"><ele>116.0</ele><time>2026-05-02T09:37:25.188Z</time></trkpt><trkpt lat="45.7769588" lon="11.728709"><ele>116.0</ele><time>2026-05-02T09:37:27.188Z</time></trkpt><trkpt lat="45.7770296" lon="11.7286335"><ele>116.0</ele><time>2026-05-02T09:37:29.187Z</time></trkpt><trkpt lat="45.7771145" lon="11.7285489"><ele>116.4</ele><time>2026-05-02T09:37:32.237Z</time></trkpt><trkpt lat="45.7772082" lon="11.7284314"><ele>116.8</ele><time>2026-05-02T09:37:34.25Z</time></trkpt><trkpt lat="45.7772535" lon="11.7283587"><ele>117.20000000000002</ele><time>2026-05-02T09:37:36.262Z</time></trkpt><trkpt lat="45.7773077" lon="11.7282547"><ele>117.60000000000001</ele><time>2026-05-02T09:37:38.276Z</time></trkpt><trkpt lat="45.7773569" lon="11.7281356"><ele>118.0</ele><time>2026-05-02T09:37:40.289Z</time></trkpt><trkpt lat="45.777417" lon="11.7280313"><ele>118.00000000000001</ele><time>2026-05-02T09:37:42.303Z</time></trkpt><trkpt lat="45.7774816" lon="11.727947"><ele>118.0</ele><time>2026-05-02T09:37:44.216Z</time></trkpt><trkpt lat="45.7775552" lon="11.7278894"><ele>118.0</ele><time>2026-05-02T09:37:46.229Z</time></trkpt><trkpt lat="45.7776337" lon="11.7278567"><ele>118.0</ele><time>2026-05-02T09:37:48.242Z</time></trkpt><trkpt lat="45.7777177" lon="11.7278333"><ele>118.00000000000001</ele><time>2026-05-02T09:37:50.256Z</time></trkpt><trkpt lat="45.7778014" lon="11.7278211"><ele>118.0</ele><time>2026-05-02T09:37:52.268Z</time></trkpt><trkpt lat="45.7778852" lon="11.7278323"><ele>117.66666666666667</ele><time>2026-05-02T09:37:54.283Z</time></trkpt><trkpt lat="45.7779701" lon="11.7278424"><ele>117.33333333333334</ele><time>2026-05-02T09:37:56.33Z</time></trkpt><trkpt lat="45.7780511" lon="11.7278596"><ele>117.0</ele><time>2026-05-02T09:37:58.209Z</time></trkpt><trkpt lat="45.7781331" lon="11.727871"><ele>116.66666666666666</ele><time>2026-05-02T09:38:00.046Z</time></trkpt><trkpt lat="45.7782257" lon="11.72786"><ele>116.33333333333333</ele><time>2026-05-02T09:38:02.235Z</time></trkpt><trkpt lat="45.7783144" lon="11.7278376"><ele>116.0</ele><time>2026-05-02T09:38:04.249Z</time></trkpt><trkpt lat="45.7784018" lon="11.7278056"><ele>115.99999999999999</ele><time>2026-05-02T09:38:06.28Z</time></trkpt><trkpt lat="45.778484" lon="11.7277783"><ele>116.0</ele><time>2026-05-02T09:38:08.261Z</time></trkpt><trkpt lat="45.7785658" lon="11.7277449"><ele>116.0</ele><time>2026-05-02T09:38:10.289Z</time></trkpt><trkpt lat="45.7786496" lon="11.7277131"><ele>116.0</ele><time>2026-05-02T09:38:12.302Z</time></trkpt><trkpt lat="45.7787307" lon="11.7276996"><ele>115.99999999999999</ele><time>2026-05-02T09:38:14.215Z</time></trkpt><trkpt lat="45.7788185" lon="11.7276864"><ele>116.0</ele><time>2026-05-02T09:38:16.227Z</time></trkpt><trkpt lat="45.7789091" lon="11.7276631"><ele>116.66666666666666</ele><time>2026-05-02T09:38:18.245Z</time></trkpt><trkpt lat="45.7789919" lon="11.7276281"><ele>117.33333333333333</ele><time>2026-05-02T09:38:20.255Z</time></trkpt><trkpt lat="45.7790697" lon="11.7275826"><ele>118.0</ele><time>2026-05-02T09:38:22.268Z</time></trkpt><trkpt lat="45.7791448" lon="11.7275133"><ele>118.66666666666666</ele><time>2026-05-02T09:38:24.281Z</time></trkpt><trkpt lat="45.7792185" lon="11.7274486"><ele>119.33333333333333</ele><time>2026-05-02T09:38:26.295Z</time></trkpt><trkpt lat="45.7792831" lon="11.7273772"><ele>120.0</ele><time>2026-05-02T09:38:28.206Z</time></trkpt><trkpt lat="45.7793408" lon="11.7272849"><ele>119.66666666666667</ele><time>2026-05-02T09:38:30.22Z</time></trkpt><trkpt lat="45.7793916" lon="11.7272"><ele>119.33333333333334</ele><time>2026-05-02T09:38:32.129Z</time></trkpt><trkpt lat="45.779444" lon="11.7271225"><ele>119.0</ele><time>2026-05-02T09:38:34.246Z</time></trkpt><trkpt lat="45.7794653" lon="11.727013"><ele>118.66666666666667</ele><time>2026-05-02T09:38:37.266Z</time></trkpt><trkpt lat="45.7794779" lon="11.7268766"><ele>118.33333333333334</ele><time>2026-05-02T09:38:40.287Z</time></trkpt><trkpt lat="45.7795058" lon="11.7267675"><ele>118.0</ele><time>2026-05-02T09:38:42.3Z</time></trkpt><trkpt lat="45.7795364" lon="11.7266665"><ele>118.00000000000001</ele><time>2026-05-02T09:38:44.213Z</time></trkpt><trkpt lat="45.7795715" lon="11.7265612"><ele>118.0</ele><time>2026-05-02T09:38:46.245Z</time></trkpt><trkpt lat="45.7795889" lon="11.7264525"><ele>118.0</ele><time>2026-05-02T09:38:48.24Z</time></trkpt><trkpt lat="45.7795857" lon="11.7263359"><ele>118.0</ele><time>2026-05-02T09:38:50.253Z</time></trkpt><trkpt lat="45.7795773" lon="11.7262217"><ele>118.00000000000001</ele><time>2026-05-02T09:38:52.266Z</time></trkpt><trkpt lat="45.779578" lon="11.7261135"><ele>118.0</ele><time>2026-05-02T09:38:54.279Z</time></trkpt><trkpt lat="45.7795834" lon="11.7260012"><ele>118.33333333333334</ele><time>2026-05-02T09:38:56.292Z</time></trkpt><trkpt lat="45.7795926" lon="11.7258773"><ele>118.66666666666667</ele><time>2026-05-02T09:38:58.306Z</time></trkpt><trkpt lat="45.7796009" lon="11.7257666"><ele>119.0</ele><time>2026-05-02T09:39:00.219Z</time></trkpt><trkpt lat="45.7796291" lon="11.7256673"><ele>119.33333333333334</ele><time>2026-05-02T09:39:02.231Z</time></trkpt><trkpt lat="45.7796899" lon="11.7256109"><ele>119.66666666666667</ele><time>2026-05-02T09:39:04.245Z</time></trkpt><trkpt lat="45.7797769" lon="11.7256006"><ele>120.0</ele><time>2026-05-02T09:39:06.319Z</time></trkpt><trkpt lat="45.7798636" lon="11.7256162"><ele>120.0</ele><time>2026-05-02T09:39:08.272Z</time></trkpt><trkpt lat="45.7799479" lon="11.7256141"><ele>120.0</ele><time>2026-05-02T09:39:10.284Z</time></trkpt><trkpt lat="45.7800417" lon="11.7255821"><ele>120.0</ele><time>2026-05-02T09:39:12.299Z</time></trkpt><trkpt lat="45.7801372" lon="11.7255462"><ele>120.0</ele><time>2026-05-02T09:39:14.211Z</time></trkpt><trkpt lat="45.7802159" lon="11.725488"><ele>120.0</ele><time>2026-05-02T09:39:16.128Z</time></trkpt><trkpt lat="45.7802568" lon="11.7253732"><ele>119.8</ele><time>2026-05-02T09:39:18.238Z</time></trkpt><trkpt lat="45.7802652" lon="11.7252405"><ele>119.6</ele><time>2026-05-02T09:39:20.251Z</time></trkpt><trkpt lat="45.7802676" lon="11.7251121"><ele>119.4</ele><time>2026-05-02T09:39:22.264Z</time></trkpt><trkpt lat="45.7802642" lon="11.7249826"><ele>119.2</ele><time>2026-05-02T09:39:24.278Z</time></trkpt><trkpt lat="45.7802614" lon="11.7248491"><ele>119.0</ele><time>2026-05-02T09:39:26.29Z</time></trkpt><trkpt lat="45.7802692" lon="11.7247184"><ele>120.4</ele><time>2026-05-02T09:39:28.304Z</time></trkpt><trkpt lat="45.7802755" lon="11.7245884"><ele>121.80000000000001</ele><time>2026-05-02T09:39:30.217Z</time></trkpt><trkpt lat="45.7802749" lon="11.7244565"><ele>123.19999999999999</ele><time>2026-05-02T09:39:32.23Z</time></trkpt><trkpt lat="45.780265" lon="11.7243237"><ele>124.6</ele><time>2026-05-02T09:39:34.243Z</time></trkpt><trkpt lat="45.7802538" lon="11.7241938"><ele>126.0</ele><time>2026-05-02T09:39:36.257Z</time></trkpt><trkpt lat="45.7802222" lon="11.7240713"><ele>125.83333333333333</ele><time>2026-05-02T09:39:38.27Z</time></trkpt><trkpt lat="45.7801701" lon="11.7239641"><ele>125.66666666666666</ele><time>2026-05-02T09:39:40.284Z</time></trkpt><trkpt lat="45.780116" lon="11.7238697"><ele>125.5</ele><time>2026-05-02T09:39:42.196Z</time></trkpt><trkpt lat="45.7800703" lon="11.7237638"><ele>125.33333333333333</ele><time>2026-05-02T09:39:44.209Z</time></trkpt><trkpt lat="45.7800444" lon="11.7236463"><ele>125.16666666666666</ele><time>2026-05-02T09:39:46.223Z</time></trkpt><trkpt lat="45.7800325" lon="11.7235169"><ele>125.0</ele><time>2026-05-02T09:39:48.236Z</time></trkpt><trkpt lat="45.7800366" lon="11.7233967"><ele>124.99999999999999</ele><time>2026-05-02T09:39:50.162Z</time></trkpt><trkpt lat="45.7800694" lon="11.7232952"><ele>125.0</ele><time>2026-05-02T09:39:52.263Z</time></trkpt><trkpt lat="45.780114" lon="11.7232042"><ele>125.0</ele><time>2026-05-02T09:39:54.276Z</time></trkpt><trkpt lat="45.7801636" lon="11.7231111"><ele>125.0</ele><time>2026-05-02T09:39:56.289Z</time></trkpt><trkpt lat="45.7802203" lon="11.7230273"><ele>124.99999999999999</ele><time>2026-05-02T09:39:58.303Z</time></trkpt><trkpt lat="45.7802718" lon="11.7229453"><ele>125.0</ele><time>2026-05-02T09:40:00.215Z</time></trkpt><trkpt lat="45.7803184" lon="11.7228431"><ele>125.66666666666666</ele><time>2026-05-02T09:40:02.229Z</time></trkpt><trkpt lat="45.7803489" lon="11.7227191"><ele>126.33333333333333</ele><time>2026-05-02T09:40:04.242Z</time></trkpt><trkpt lat="45.7803526" lon="11.7225895"><ele>127.0</ele><time>2026-05-02T09:40:06.255Z</time></trkpt><trkpt lat="45.7803504" lon="11.7224659"><ele>127.66666666666666</ele><time>2026-05-02T09:40:08.269Z</time></trkpt><trkpt lat="45.7803504" lon="11.722353"><ele>128.33333333333334</ele><time>2026-05-02T09:40:10.282Z</time></trkpt><trkpt lat="45.78035" lon="11.722245"><ele>129.0</ele><time>2026-05-02T09:40:12.294Z</time></trkpt><trkpt lat="45.7803413" lon="11.7221519"><ele>128.99999999999997</ele><time>2026-05-02T09:40:14.207Z</time></trkpt><trkpt lat="45.7803363" lon="11.7220492"><ele>129.0</ele><time>2026-05-02T09:40:16.223Z</time></trkpt><trkpt lat="45.7803452" lon="11.7219511"><ele>129.0</ele><time>2026-05-02T09:40:18.234Z</time></trkpt><trkpt lat="45.7803955" lon="11.7218778"><ele>129.0</ele><time>2026-05-02T09:40:20.247Z</time></trkpt><trkpt lat="45.7804591" lon="11.7218183"><ele>129.0</ele><time>2026-05-02T09:40:22.26Z</time></trkpt><trkpt lat="45.7805158" lon="11.7217503"><ele>128.99999999999997</ele><time>2026-05-02T09:40:24.274Z</time></trkpt><trkpt lat="45.7805685" lon="11.7216656"><ele>129.0</ele><time>2026-05-02T09:40:26.288Z</time></trkpt><trkpt lat="45.7806106" lon="11.7215828"><ele>128.83333333333334</ele><time>2026-05-02T09:40:28.246Z</time></trkpt><trkpt lat="45.7806526" lon="11.7214993"><ele>128.66666666666666</ele><time>2026-05-02T09:40:30.313Z</time></trkpt><trkpt lat="45.7806998" lon="11.721419"><ele>128.5</ele><time>2026-05-02T09:40:32.222Z</time></trkpt><trkpt lat="45.7807519" lon="11.7213448"><ele>128.33333333333331</ele><time>2026-05-02T09:40:34.24Z</time></trkpt><trkpt lat="45.7808103" lon="11.7212745"><ele>128.16666666666666</ele><time>2026-05-02T09:40:36.253Z</time></trkpt><trkpt lat="45.7808793" lon="11.7212223"><ele>128.0</ele><time>2026-05-02T09:40:38.229Z</time></trkpt><trkpt lat="45.7809618" lon="11.7211877"><ele>127.80000000000001</ele><time>2026-05-02T09:40:40.279Z</time></trkpt><trkpt lat="45.7810468" lon="11.7211571"><ele>127.60000000000001</ele><time>2026-05-02T09:40:42.294Z</time></trkpt><trkpt lat="45.7811593" lon="11.721123"><ele>127.39999999999999</ele><time>2026-05-02T09:40:44.191Z</time></trkpt><trkpt lat="45.7812562" lon="11.7210904"><ele>127.19999999999999</ele><time>2026-05-02T09:40:46.191Z</time></trkpt><trkpt lat="45.7813518" lon="11.7210754"><ele>127.0</ele><time>2026-05-02T09:40:48.191Z</time></trkpt><trkpt lat="45.7814534" lon="11.7210599"><ele>127.0</ele><time>2026-05-02T09:40:50.191Z</time></trkpt><trkpt lat="45.7815592" lon="11.7210588"><ele>126.99999999999999</ele><time>2026-05-02T09:40:52.191Z</time></trkpt><trkpt lat="45.7816726" lon="11.7210586"><ele>126.99999999999999</ele><time>2026-05-02T09:40:54.191Z</time></trkpt><trkpt lat="45.7817874" lon="11.7210674"><ele>127.0</ele><time>2026-05-02T09:40:56.192Z</time></trkpt><trkpt lat="45.7818986" lon="11.7210794"><ele>127.0</ele><time>2026-05-02T09:40:58.192Z</time></trkpt><trkpt lat="45.7820015" lon="11.7210927"><ele>127.0</ele><time>2026-05-02T09:41:00.191Z</time></trkpt><trkpt lat="45.7821019" lon="11.7210991"><ele>126.99999999999999</ele><time>2026-05-02T09:41:02.192Z</time></trkpt><trkpt lat="45.7821977" lon="11.7211067"><ele>126.99999999999999</ele><time>2026-05-02T09:41:04.191Z</time></trkpt><trkpt lat="45.7822879" lon="11.7211206"><ele>127.0</ele><time>2026-05-02T09:41:06.191Z</time></trkpt><trkpt lat="45.7823868" lon="11.7211425"><ele>127.0</ele><time>2026-05-02T09:41:08.191Z</time></trkpt><trkpt lat="45.7824922" lon="11.7211649"><ele>127.0</ele><time>2026-05-02T09:41:10.192Z</time></trkpt><trkpt lat="45.782605" lon="11.7211861"><ele>126.99999999999999</ele><time>2026-05-02T09:41:12.191Z</time></trkpt><trkpt lat="45.7827142" lon="11.721199"><ele>126.99999999999999</ele><time>2026-05-02T09:41:14.192Z</time></trkpt><trkpt lat="45.7828171" lon="11.7212115"><ele>127.0</ele><time>2026-05-02T09:41:16.192Z</time></trkpt><trkpt lat="45.7829159" lon="11.7212146"><ele>127.0</ele><time>2026-05-02T09:41:18.192Z</time></trkpt><trkpt lat="45.7830176" lon="11.7212191"><ele>126.6</ele><time>2026-05-02T09:41:20.192Z</time></trkpt><trkpt lat="45.7831167" lon="11.7212424"><ele>126.19999999999999</ele><time>2026-05-02T09:41:22.192Z</time></trkpt><trkpt lat="45.7832188" lon="11.7212558"><ele>125.8</ele><time>2026-05-02T09:41:24.191Z</time></trkpt><trkpt lat="45.7833234" lon="11.7212683"><ele>125.4</ele><time>2026-05-02T09:41:26.192Z</time></trkpt><trkpt lat="45.783424" lon="11.7212857"><ele>125.0</ele><time>2026-05-02T09:41:28.192Z</time></trkpt><trkpt lat="45.7835454" lon="11.7212978"><ele>124.83333333333333</ele><time>2026-05-02T09:41:30.192Z</time></trkpt><trkpt lat="45.7836686" lon="11.7213216"><ele>124.66666666666666</ele><time>2026-05-02T09:41:32.192Z</time></trkpt><trkpt lat="45.7837315" lon="11.7213355"><ele>124.5</ele><time>2026-05-02T09:41:33.192Z</time></trkpt><trkpt lat="45.783796" lon="11.7213492"><ele>124.33333333333334</ele><time>2026-05-02T09:41:34.192Z</time></trkpt><trkpt lat="45.7838605" lon="11.7213584"><ele>124.16666666666667</ele><time>2026-05-02T09:41:35.192Z</time></trkpt><trkpt lat="45.7839833" lon="11.7213786"><ele>124.0</ele><time>2026-05-02T09:41:37.192Z</time></trkpt><trkpt lat="45.784047" lon="11.7213879"><ele>124.0</ele><time>2026-05-02T09:41:38.192Z</time></trkpt><trkpt lat="45.7841146" lon="11.7213998"><ele>124.00000000000001</ele><time>2026-05-02T09:41:39.192Z</time></trkpt><trkpt lat="45.7841848" lon="11.7214144"><ele>124.0</ele><time>2026-05-02T09:41:40.192Z</time></trkpt><trkpt lat="45.7842597" lon="11.721427"><ele>124.0</ele><time>2026-05-02T09:41:41.193Z</time></trkpt><trkpt lat="45.7843299" lon="11.7214366"><ele>124.00000000000001</ele><time>2026-05-02T09:41:42.192Z</time></trkpt><trkpt lat="45.7844011" lon="11.7214491"><ele>124.0</ele><time>2026-05-02T09:41:43.192Z</time></trkpt><trkpt lat="45.7844776" lon="11.721461"><ele>124.0</ele><time>2026-05-02T09:41:44.192Z</time></trkpt><trkpt lat="45.7845566" lon="11.7214708"><ele>123.83333333333334</ele><time>2026-05-02T09:41:45.192Z</time></trkpt><trkpt lat="45.7846352" lon="11.7214773"><ele>123.66666666666667</ele><time>2026-05-02T09:41:46.192Z</time></trkpt><trkpt lat="45.784716" lon="11.7214765"><ele>123.5</ele><time>2026-05-02T09:41:47.191Z</time></trkpt><trkpt lat="45.7847897" lon="11.7214713"><ele>123.33333333333334</ele><time>2026-05-02T09:41:48.192Z</time></trkpt><trkpt lat="45.7848675" lon="11.7214698"><ele>123.16666666666667</ele><time>2026-05-02T09:41:49.191Z</time></trkpt><trkpt lat="45.7849469" lon="11.7214648"><ele>123.0</ele><time>2026-05-02T09:41:50.192Z</time></trkpt><trkpt lat="45.7850246" lon="11.721452"><ele>123.0</ele><time>2026-05-02T09:41:51.192Z</time></trkpt><trkpt lat="45.7850972" lon="11.7214306"><ele>123.0</ele><time>2026-05-02T09:41:52.191Z</time></trkpt><trkpt lat="45.7851684" lon="11.7213977"><ele>123.0</ele><time>2026-05-02T09:41:53.193Z</time></trkpt><trkpt lat="45.7852395" lon="11.7213564"><ele>123.0</ele><time>2026-05-02T09:41:54.193Z</time></trkpt><trkpt lat="45.7853113" lon="11.7213117"><ele>123.0</ele><time>2026-05-02T09:41:55.193Z</time></trkpt><trkpt lat="45.7853821" lon="11.7212677"><ele>123.0</ele><time>2026-05-02T09:41:56.192Z</time></trkpt><trkpt lat="45.7854499" lon="11.7212255"><ele>122.71428571428572</ele><time>2026-05-02T09:41:57.192Z</time></trkpt><trkpt lat="45.7855125" lon="11.7211895"><ele>122.42857142857143</ele><time>2026-05-02T09:41:58.192Z</time></trkpt><trkpt lat="45.7855744" lon="11.7211508"><ele>122.14285714285714</ele><time>2026-05-02T09:41:59.192Z</time></trkpt><trkpt lat="45.7856367" lon="11.7211124"><ele>121.85714285714286</ele><time>2026-05-02T09:42:00.192Z</time></trkpt><trkpt lat="45.7857001" lon="11.7210815"><ele>121.57142857142856</ele><time>2026-05-02T09:42:01.193Z</time></trkpt><trkpt lat="45.785765" lon="11.7210567"><ele>121.28571428571428</ele><time>2026-05-02T09:42:02.192Z</time></trkpt><trkpt lat="45.7858299" lon="11.7210391"><ele>121.0</ele><time>2026-05-02T09:42:03.192Z</time></trkpt><trkpt lat="45.7858948" lon="11.7210209"><ele>121.8</ele><time>2026-05-02T09:42:04.192Z</time></trkpt><trkpt lat="45.7859566" lon="11.721003"><ele>122.6</ele><time>2026-05-02T09:42:05.192Z</time></trkpt><trkpt lat="45.7860739" lon="11.7209759"><ele>123.4</ele><time>2026-05-02T09:42:07.192Z</time></trkpt><trkpt lat="45.786191" lon="11.7209475"><ele>124.2</ele><time>2026-05-02T09:42:09.193Z</time></trkpt><trkpt lat="45.786308" lon="11.720914"><ele>125.0</ele><time>2026-05-02T09:42:11.193Z</time></trkpt><trkpt lat="45.786424" lon="11.7208839"><ele>125.0</ele><time>2026-05-02T09:42:13.193Z</time></trkpt><trkpt lat="45.7865409" lon="11.7208579"><ele>125.0</ele><time>2026-05-02T09:42:15.193Z</time></trkpt><trkpt lat="45.786657" lon="11.7208297"><ele>125.0</ele><time>2026-05-02T09:42:17.193Z</time></trkpt><trkpt lat="45.786756" lon="11.720805"><ele>125.0</ele><time>2026-05-02T09:42:19.192Z</time></trkpt><trkpt lat="45.7868563" lon="11.7207417"><ele>125.0</ele><time>2026-05-02T09:42:21.193Z</time></trkpt><trkpt lat="45.786952" lon="11.7206532"><ele>124.0</ele><time>2026-05-02T09:42:23.193Z</time></trkpt><trkpt lat="45.7870388" lon="11.7205576"><ele>123.0</ele><time>2026-05-02T09:42:25.192Z</time></trkpt><trkpt lat="45.7871154" lon="11.720432"><ele>122.0</ele><time>2026-05-02T09:42:27.193Z</time></trkpt><trkpt lat="45.7871847" lon="11.720287"><ele>121.0</ele><time>2026-05-02T09:42:29.193Z</time></trkpt><trkpt lat="45.7872346" lon="11.7201337"><ele>121.0</ele><time>2026-05-02T09:42:31.192Z</time></trkpt><trkpt lat="45.7872833" lon="11.7199778"><ele>121.0</ele><time>2026-05-02T09:42:33.193Z</time></trkpt><trkpt lat="45.787336" lon="11.7198237"><ele>121.0</ele><time>2026-05-02T09:42:35.193Z</time></trkpt><trkpt lat="45.7873893" lon="11.7196722"><ele>121.0</ele><time>2026-05-02T09:42:37.193Z</time></trkpt><trkpt lat="45.7874348" lon="11.7195261"><ele>120.8</ele><time>2026-05-02T09:42:39.192Z</time></trkpt><trkpt lat="45.787488" lon="11.7193734"><ele>120.6</ele><time>2026-05-02T09:42:41.193Z</time></trkpt><trkpt lat="45.7875396" lon="11.7192318"><ele>120.4</ele><time>2026-05-02T09:42:43.193Z</time></trkpt><trkpt lat="45.7875898" lon="11.7190985"><ele>120.2</ele><time>2026-05-02T09:42:45.193Z</time></trkpt><trkpt lat="45.7876504" lon="11.7189664"><ele>120.0</ele><time>2026-05-02T09:42:47.193Z</time></trkpt><trkpt lat="45.7877132" lon="11.7188377"><ele>120.0</ele><time>2026-05-02T09:42:49.193Z</time></trkpt><trkpt lat="45.7877822" lon="11.7187246"><ele>120.0</ele><time>2026-05-02T09:42:51.194Z</time></trkpt><trkpt lat="45.7878715" lon="11.7186313"><ele>120.0</ele><time>2026-05-02T09:42:53.194Z</time></trkpt><trkpt lat="45.7879624" lon="11.7185403"><ele>120.0</ele><time>2026-05-02T09:42:55.193Z</time></trkpt><trkpt lat="45.7880407" lon="11.7184661"><ele>120.0</ele><time>2026-05-02T09:42:57.193Z</time></trkpt><trkpt lat="45.7881121" lon="11.7184256"><ele>120.0</ele><time>2026-05-02T09:42:59.194Z</time></trkpt><trkpt lat="45.7881723" lon="11.7183763"><ele>120.0</ele><time>2026-05-02T09:43:02.193Z</time></trkpt><trkpt lat="45.788249" lon="11.718316"><ele>120.0</ele><time>2026-05-02T09:43:19.193Z</time></trkpt><trkpt lat="45.7883093" lon="11.7182667"><ele>120.0</ele><time>2026-05-02T09:43:22.194Z</time></trkpt><trkpt lat="45.7883993" lon="11.7182094"><ele>120.0</ele><time>2026-05-02T09:43:24.193Z</time></trkpt><trkpt lat="45.788503" lon="11.7181483"><ele>120.0</ele><time>2026-05-02T09:43:26.193Z</time></trkpt><trkpt lat="45.7886164" lon="11.7180785"><ele>120.0</ele><time>2026-05-02T09:43:28.194Z</time></trkpt><trkpt lat="45.7887243" lon="11.7180217"><ele>120.0</ele><time>2026-05-02T09:43:30.194Z</time></trkpt><trkpt lat="45.7888421" lon="11.7179578"><ele>120.0</ele><time>2026-05-02T09:43:32.194Z</time></trkpt><trkpt lat="45.7889095" lon="11.7179255"><ele>120.0</ele><time>2026-05-02T09:43:33.194Z</time></trkpt><trkpt lat="45.7889681" lon="11.7178896"><ele>120.0</ele><time>2026-05-02T09:43:34.194Z</time></trkpt><trkpt lat="45.789035" lon="11.7178574"><ele>120.0</ele><time>2026-05-02T09:43:35.193Z</time></trkpt><trkpt lat="45.7891552" lon="11.7177966"><ele>120.0</ele><time>2026-05-02T09:43:37.194Z</time></trkpt><trkpt lat="45.7892155" lon="11.7177616"><ele>120.0</ele><time>2026-05-02T09:43:38.194Z</time></trkpt><trkpt lat="45.7893184" lon="11.7176784"><ele>120.0</ele><time>2026-05-02T09:43:40.194Z</time></trkpt><trkpt lat="45.7894259" lon="11.7175702"><ele>120.0</ele><time>2026-05-02T09:43:42.194Z</time></trkpt><trkpt lat="45.7894888" lon="11.7175134"><ele>120.0</ele><time>2026-05-02T09:43:43.193Z</time></trkpt><trkpt lat="45.7895606" lon="11.7174623"><ele>119.66666666666667</ele><time>2026-05-02T09:43:44.194Z</time></trkpt><trkpt lat="45.7896271" lon="11.7173996"><ele>119.33333333333334</ele><time>2026-05-02T09:43:45.194Z</time></trkpt><trkpt lat="45.7896799" lon="11.7173299"><ele>119.0</ele><time>2026-05-02T09:43:46.194Z</time></trkpt><trkpt lat="45.7897293" lon="11.7172598"><ele>118.66666666666667</ele><time>2026-05-02T09:43:47.194Z</time></trkpt><trkpt lat="45.7897751" lon="11.7171923"><ele>118.33333333333334</ele><time>2026-05-02T09:43:48.195Z</time></trkpt><trkpt lat="45.789861" lon="11.7170654"><ele>118.0</ele><time>2026-05-02T09:43:50.194Z</time></trkpt><trkpt lat="45.7899386" lon="11.7169345"><ele>117.60000000000001</ele><time>2026-05-02T09:43:52.195Z</time></trkpt><trkpt lat="45.7899819" lon="11.7168675"><ele>117.20000000000002</ele><time>2026-05-02T09:43:53.194Z</time></trkpt><trkpt lat="45.7900276" lon="11.7168037"><ele>116.8</ele><time>2026-05-02T09:43:54.195Z</time></trkpt><trkpt lat="45.790111" lon="11.7166836"><ele>116.4</ele><time>2026-05-02T09:43:56.195Z</time></trkpt><trkpt lat="45.7901914" lon="11.7165671"><ele>116.0</ele><time>2026-05-02T09:43:58.194Z</time></trkpt><trkpt lat="45.7902825" lon="11.7164455"><ele>116.0</ele><time>2026-05-02T09:44:00.195Z</time></trkpt><trkpt lat="45.7903295" lon="11.7163854"><ele>116.0</ele><time>2026-05-02T09:44:01.194Z</time></trkpt><trkpt lat="45.7904119" lon="11.716261"><ele>116.0</ele><time>2026-05-02T09:44:03.194Z</time></trkpt><trkpt lat="45.7904892" lon="11.7161432"><ele>116.0</ele><time>2026-05-02T09:44:05.195Z</time></trkpt><trkpt lat="45.790581" lon="11.7160353"><ele>116.0</ele><time>2026-05-02T09:44:07.194Z</time></trkpt><trkpt lat="45.7906842" lon="11.7159445"><ele>116.00000000000001</ele><time>2026-05-02T09:44:09.195Z</time></trkpt><trkpt lat="45.7907419" lon="11.7159035"><ele>116.0</ele><time>2026-05-02T09:44:10.195Z</time></trkpt><trkpt lat="45.7908038" lon="11.715856"><ele>116.00000000000001</ele><time>2026-05-02T09:44:11.195Z</time></trkpt><trkpt lat="45.7908628" lon="11.715808"><ele>116.00000000000001</ele><time>2026-05-02T09:44:12.195Z</time></trkpt><trkpt lat="45.7909211" lon="11.7157606"><ele>116.0</ele><time>2026-05-02T09:44:13.195Z</time></trkpt><trkpt lat="45.7909813" lon="11.7157132"><ele>116.00000000000001</ele><time>2026-05-02T09:44:14.194Z</time></trkpt><trkpt lat="45.7910452" lon="11.7156626"><ele>116.00000000000001</ele><time>2026-05-02T09:44:15.195Z</time></trkpt><trkpt lat="45.79111" lon="11.7156126"><ele>116.00000000000001</ele><time>2026-05-02T09:44:16.195Z</time></trkpt><trkpt lat="45.7911743" lon="11.7155604"><ele>116.0</ele><time>2026-05-02T09:44:17.195Z</time></trkpt><trkpt lat="45.7912385" lon="11.715519"><ele>116.00000000000001</ele><time>2026-05-02T09:44:18.195Z</time></trkpt><trkpt lat="45.7913045" lon="11.7154726"><ele>116.00000000000001</ele><time>2026-05-02T09:44:19.195Z</time></trkpt><trkpt lat="45.7913711" lon="11.7154285"><ele>116.0</ele><time>2026-05-02T09:44:20.195Z</time></trkpt><trkpt lat="45.7914386" lon="11.715377"><ele>116.00000000000001</ele><time>2026-05-02T09:44:21.194Z</time></trkpt><trkpt lat="45.7915083" lon="11.7153264"><ele>116.00000000000001</ele><time>2026-05-02T09:44:22.194Z</time></trkpt><trkpt lat="45.7915773" lon="11.715271"><ele>116.66666666666666</ele><time>2026-05-02T09:44:23.195Z</time></trkpt><trkpt lat="45.7916437" lon="11.715218"><ele>117.33333333333333</ele><time>2026-05-02T09:44:24.195Z</time></trkpt><trkpt lat="45.7917108" lon="11.7151703"><ele>118.0</ele><time>2026-05-02T09:44:25.194Z</time></trkpt><trkpt lat="45.791782" lon="11.7151266"><ele>118.66666666666666</ele><time>2026-05-02T09:44:26.195Z</time></trkpt><trkpt lat="45.7918554" lon="11.71509"><ele>119.33333333333333</ele><time>2026-05-02T09:44:27.195Z</time></trkpt><trkpt lat="45.7919305" lon="11.7150578"><ele>120.0</ele><time>2026-05-02T09:44:28.195Z</time></trkpt><trkpt lat="45.7920084" lon="11.7150241"><ele>120.0</ele><time>2026-05-02T09:44:29.194Z</time></trkpt><trkpt lat="45.7920889" lon="11.7149897"><ele>120.0</ele><time>2026-05-02T09:44:30.195Z</time></trkpt><trkpt lat="45.7921721" lon="11.7149593"><ele>120.0</ele><time>2026-05-02T09:44:31.194Z</time></trkpt><trkpt lat="45.7922535" lon="11.7149348"><ele>120.0</ele><time>2026-05-02T09:44:32.195Z</time></trkpt><trkpt lat="45.7923312" lon="11.7149172"><ele>120.0</ele><time>2026-05-02T09:44:33.194Z</time></trkpt><trkpt lat="45.7924087" lon="11.714897"><ele>120.0</ele><time>2026-05-02T09:44:34.195Z</time></trkpt><trkpt lat="45.7924848" lon="11.7148757"><ele>120.0</ele><time>2026-05-02T09:44:35.195Z</time></trkpt><trkpt lat="45.792554" lon="11.7148588"><ele>120.0</ele><time>2026-05-02T09:44:36.195Z</time></trkpt><trkpt lat="45.7926257" lon="11.7148418"><ele>120.0</ele><time>2026-05-02T09:44:37.195Z</time></trkpt><trkpt lat="45.7926968" lon="11.7148229"><ele>120.0</ele><time>2026-05-02T09:44:38.195Z</time></trkpt><trkpt lat="45.7927657" lon="11.7148047"><ele>120.0</ele><time>2026-05-02T09:44:39.194Z</time></trkpt><trkpt lat="45.7928368" lon="11.7147848"><ele>120.0</ele><time>2026-05-02T09:44:40.195Z</time></trkpt><trkpt lat="45.7929128" lon="11.714759"><ele>120.0</ele><time>2026-05-02T09:44:41.195Z</time></trkpt><trkpt lat="45.7929878" lon="11.714736"><ele>119.66666666666667</ele><time>2026-05-02T09:44:42.195Z</time></trkpt><trkpt lat="45.7930623" lon="11.7147126"><ele>119.33333333333334</ele><time>2026-05-02T09:44:43.195Z</time></trkpt><trkpt lat="45.7931363" lon="11.71469"><ele>119.0</ele><time>2026-05-02T09:44:44.195Z</time></trkpt><trkpt lat="45.7932123" lon="11.7146639"><ele>118.66666666666667</ele><time>2026-05-02T09:44:45.195Z</time></trkpt><trkpt lat="45.7932887" lon="11.7146377"><ele>118.33333333333334</ele><time>2026-05-02T09:44:46.194Z</time></trkpt><trkpt lat="45.7933633" lon="11.7146115"><ele>118.0</ele><time>2026-05-02T09:44:47.196Z</time></trkpt><trkpt lat="45.7934352" lon="11.7145868"><ele>117.85714285714286</ele><time>2026-05-02T09:44:48.195Z</time></trkpt><trkpt lat="45.7935056" lon="11.7145652"><ele>117.71428571428572</ele><time>2026-05-02T09:44:49.196Z</time></trkpt><trkpt lat="45.7935802" lon="11.7145441"><ele>117.57142857142858</ele><time>2026-05-02T09:44:50.194Z</time></trkpt><trkpt lat="45.7936461" lon="11.7145237"><ele>117.42857142857143</ele><time>2026-05-02T09:44:51.195Z</time></trkpt><trkpt lat="45.7937151" lon="11.7145048"><ele>117.2857142857143</ele><time>2026-05-02T09:44:52.195Z</time></trkpt><trkpt lat="45.7937782" lon="11.7144861"><ele>117.14285714285715</ele><time>2026-05-02T09:44:53.196Z</time></trkpt><trkpt lat="45.7938438" lon="11.7144685"><ele>117.0</ele><time>2026-05-02T09:44:54.195Z</time></trkpt><trkpt lat="45.7939132" lon="11.7144501"><ele>117.0</ele><time>2026-05-02T09:44:55.195Z</time></trkpt><trkpt lat="45.7939842" lon="11.7144313"><ele>117.00000000000001</ele><time>2026-05-02T09:44:56.195Z</time></trkpt><trkpt lat="45.7940558" lon="11.7144069"><ele>117.0</ele><time>2026-05-02T09:44:57.196Z</time></trkpt><trkpt lat="45.7941238" lon="11.7143817"><ele>117.0</ele><time>2026-05-02T09:44:58.195Z</time></trkpt><trkpt lat="45.7941862" lon="11.7143691"><ele>117.00000000000001</ele><time>2026-05-02T09:44:59.194Z</time></trkpt><trkpt lat="45.7942501" lon="11.7143554"><ele>117.0</ele><time>2026-05-02T09:45:00.196Z</time></trkpt><trkpt lat="45.7943174" lon="11.7143408"><ele>117.0</ele><time>2026-05-02T09:45:01.195Z</time></trkpt><trkpt lat="45.7943841" lon="11.714321"><ele>118.42857142857143</ele><time>2026-05-02T09:45:02.196Z</time></trkpt><trkpt lat="45.7944535" lon="11.7143021"><ele>119.85714285714286</ele><time>2026-05-02T09:45:03.195Z</time></trkpt><trkpt lat="45.7945206" lon="11.7142878"><ele>121.28571428571429</ele><time>2026-05-02T09:45:04.194Z</time></trkpt><trkpt lat="45.7945896" lon="11.7142651"><ele>122.71428571428572</ele><time>2026-05-02T09:45:05.196Z</time></trkpt><trkpt lat="45.7946584" lon="11.7142437"><ele>124.14285714285714</ele><time>2026-05-02T09:45:06.196Z</time></trkpt><trkpt lat="45.7947256" lon="11.7142212"><ele>125.57142857142858</ele><time>2026-05-02T09:45:07.195Z</time></trkpt><trkpt lat="45.79479" lon="11.7141991"><ele>127.0</ele><time>2026-05-02T09:45:08.196Z</time></trkpt><trkpt lat="45.7948529" lon="11.7141832"><ele>127.0</ele><time>2026-05-02T09:45:09.196Z</time></trkpt><trkpt lat="45.7949164" lon="11.7141669"><ele>127.0</ele><time>2026-05-02T09:45:10.196Z</time></trkpt><trkpt lat="45.7949837" lon="11.7141483"><ele>127.0</ele><time>2026-05-02T09:45:11.195Z</time></trkpt><trkpt lat="45.7950504" lon="11.7141303"><ele>127.0</ele><time>2026-05-02T09:45:12.196Z</time></trkpt><trkpt lat="45.7951171" lon="11.7141103"><ele>127.0</ele><time>2026-05-02T09:45:13.196Z</time></trkpt><trkpt lat="45.7951863" lon="11.7140859"><ele>127.0</ele><time>2026-05-02T09:45:14.196Z</time></trkpt><trkpt lat="45.7952571" lon="11.7140623"><ele>127.0</ele><time>2026-05-02T09:45:15.196Z</time></trkpt><trkpt lat="45.7953327" lon="11.7140403"><ele>125.71428571428572</ele><time>2026-05-02T09:45:16.196Z</time></trkpt><trkpt lat="45.795403" lon="11.7140175"><ele>124.42857142857142</ele><time>2026-05-02T09:45:17.196Z</time></trkpt><trkpt lat="45.7954693" lon="11.7139911"><ele>123.14285714285714</ele><time>2026-05-02T09:45:18.196Z</time></trkpt><trkpt lat="45.7955436" lon="11.713967"><ele>121.85714285714286</ele><time>2026-05-02T09:45:19.196Z</time></trkpt><trkpt lat="45.79562" lon="11.7139431"><ele>120.57142857142858</ele><time>2026-05-02T09:45:20.196Z</time></trkpt><trkpt lat="45.795696" lon="11.7139194"><ele>119.28571428571428</ele><time>2026-05-02T09:45:21.196Z</time></trkpt><trkpt lat="45.7957695" lon="11.7138953"><ele>118.0</ele><time>2026-05-02T09:45:22.196Z</time></trkpt><trkpt lat="45.7958454" lon="11.7138782"><ele>118.0</ele><time>2026-05-02T09:45:23.196Z</time></trkpt><trkpt lat="45.7959255" lon="11.7138605"><ele>118.0</ele><time>2026-05-02T09:45:24.195Z</time></trkpt><trkpt lat="45.7960051" lon="11.7138498"><ele>118.0</ele><time>2026-05-02T09:45:25.196Z</time></trkpt><trkpt lat="45.7960782" lon="11.7138386"><ele>118.0</ele><time>2026-05-02T09:45:26.196Z</time></trkpt><trkpt lat="45.7961477" lon="11.7138226"><ele>118.0</ele><time>2026-05-02T09:45:27.196Z</time></trkpt><trkpt lat="45.796214" lon="11.7137986"><ele>118.0</ele><time>2026-05-02T09:45:28.196Z</time></trkpt><trkpt lat="45.7962818" lon="11.7137716"><ele>118.0</ele><time>2026-05-02T09:45:29.196Z</time></trkpt><trkpt lat="45.7963504" lon="11.7137379"><ele>117.28571428571428</ele><time>2026-05-02T09:45:30.196Z</time></trkpt><trkpt lat="45.7964167" lon="11.7136986"><ele>116.57142857142858</ele><time>2026-05-02T09:45:31.196Z</time></trkpt><trkpt lat="45.7964834" lon="11.7136542"><ele>115.85714285714286</ele><time>2026-05-02T09:45:32.196Z</time></trkpt><trkpt lat="45.7965458" lon="11.7136087"><ele>115.14285714285714</ele><time>2026-05-02T09:45:33.196Z</time></trkpt><trkpt lat="45.7966092" lon="11.7135582"><ele>114.42857142857142</ele><time>2026-05-02T09:45:34.196Z</time></trkpt><trkpt lat="45.7966737" lon="11.7135035"><ele>113.71428571428572</ele><time>2026-05-02T09:45:35.195Z</time></trkpt><trkpt lat="45.7967375" lon="11.7134506"><ele>113.0</ele><time>2026-05-02T09:45:36.195Z</time></trkpt><trkpt lat="45.7967995" lon="11.7133993"><ele>114.66666666666666</ele><time>2026-05-02T09:45:37.195Z</time></trkpt><trkpt lat="45.7968626" lon="11.7133504"><ele>116.33333333333333</ele><time>2026-05-02T09:45:38.196Z</time></trkpt><trkpt lat="45.7969284" lon="11.7133049"><ele>118.0</ele><time>2026-05-02T09:45:39.195Z</time></trkpt><trkpt lat="45.7969942" lon="11.7132624"><ele>119.66666666666666</ele><time>2026-05-02T09:45:40.195Z</time></trkpt><trkpt lat="45.7970567" lon="11.7132267"><ele>121.33333333333333</ele><time>2026-05-02T09:45:41.196Z</time></trkpt><trkpt lat="45.7971234" lon="11.7131803"><ele>123.0</ele><time>2026-05-02T09:45:42.196Z</time></trkpt><trkpt lat="45.7972302" lon="11.7130899"><ele>123.00000000000001</ele><time>2026-05-02T09:45:44.196Z</time></trkpt><trkpt lat="45.7972853" lon="11.7130426"><ele>123.0</ele><time>2026-05-02T09:45:45.197Z</time></trkpt><trkpt lat="45.7973432" lon="11.7129926"><ele>123.00000000000001</ele><time>2026-05-02T09:45:46.196Z</time></trkpt><trkpt lat="45.7974067" lon="11.7129411"><ele>123.00000000000001</ele><time>2026-05-02T09:45:47.196Z</time></trkpt><trkpt lat="45.7974674" lon="11.7128889"><ele>123.0</ele><time>2026-05-02T09:45:48.197Z</time></trkpt><trkpt lat="45.7975288" lon="11.7128355"><ele>123.00000000000001</ele><time>2026-05-02T09:45:49.197Z</time></trkpt><trkpt lat="45.7975935" lon="11.7127813"><ele>123.00000000000001</ele><time>2026-05-02T09:45:50.196Z</time></trkpt><trkpt lat="45.7976564" lon="11.7127317"><ele>122.4</ele><time>2026-05-02T09:45:51.197Z</time></trkpt><trkpt lat="45.797722" lon="11.7126755"><ele>121.80000000000001</ele><time>2026-05-02T09:45:52.196Z</time></trkpt><trkpt lat="45.7977924" lon="11.712632"><ele>121.2</ele><time>2026-05-02T09:45:53.197Z</time></trkpt><trkpt lat="45.7978535" lon="11.7124463"><ele>120.6</ele><time>2026-05-02T09:45:54.196Z</time></trkpt><trkpt lat="45.7979561" lon="11.7123972"><ele>120.0</ele><time>2026-05-02T09:45:55.196Z</time></trkpt><trkpt lat="45.798031" lon="11.7123591"><ele>120.0</ele><time>2026-05-02T09:45:56.196Z</time></trkpt><trkpt lat="45.7981092" lon="11.71232"><ele>120.0</ele><time>2026-05-02T09:45:57.197Z</time></trkpt><trkpt lat="45.7981831" lon="11.7122866"><ele>120.0</ele><time>2026-05-02T09:45:58.197Z</time></trkpt><trkpt lat="45.7982548" lon="11.7122542"><ele>120.0</ele><time>2026-05-02T09:45:59.196Z</time></trkpt><trkpt lat="45.7983241" lon="11.7122213"><ele>120.0</ele><time>2026-05-02T09:46:00.197Z</time></trkpt><trkpt lat="45.7983912" lon="11.7121867"><ele>120.0</ele><time>2026-05-02T09:46:01.197Z</time></trkpt><trkpt lat="45.7984543" lon="11.7121515"><ele>120.0</ele><time>2026-05-02T09:46:02.197Z</time></trkpt><trkpt lat="45.7985193" lon="11.7121166"><ele>120.33333333333333</ele><time>2026-05-02T09:46:03.196Z</time></trkpt><trkpt lat="45.798583" lon="11.7120866"><ele>120.66666666666666</ele><time>2026-05-02T09:46:04.196Z</time></trkpt><trkpt lat="45.7986445" lon="11.71206"><ele>121.0</ele><time>2026-05-02T09:46:05.197Z</time></trkpt><trkpt lat="45.7987602" lon="11.7119995"><ele>121.33333333333333</ele><time>2026-05-02T09:46:07.197Z</time></trkpt><trkpt lat="45.79882" lon="11.7119647"><ele>121.66666666666666</ele><time>2026-05-02T09:46:08.197Z</time></trkpt><trkpt lat="45.7989374" lon="11.7118993"><ele>122.0</ele><time>2026-05-02T09:46:10.197Z</time></trkpt><trkpt lat="45.7990527" lon="11.7118346"><ele>122.0</ele><time>2026-05-02T09:46:12.196Z</time></trkpt><trkpt lat="45.799163" lon="11.7117779"><ele>121.99999999999999</ele><time>2026-05-02T09:46:14.197Z</time></trkpt><trkpt lat="45.7992622" lon="11.7117339"><ele>121.99999999999999</ele><time>2026-05-02T09:46:16.197Z</time></trkpt><trkpt lat="45.7993597" lon="11.711668"><ele>122.0</ele><time>2026-05-02T09:46:18.196Z</time></trkpt><trkpt lat="45.7994581" lon="11.7116164"><ele>122.0</ele><time>2026-05-02T09:46:20.196Z</time></trkpt><trkpt lat="45.7995467" lon="11.7115828"><ele>122.8</ele><time>2026-05-02T09:46:22.197Z</time></trkpt><trkpt lat="45.7996389" lon="11.7115691"><ele>123.6</ele><time>2026-05-02T09:46:24.197Z</time></trkpt><trkpt lat="45.7997342" lon="11.7115426"><ele>124.39999999999999</ele><time>2026-05-02T09:46:26.197Z</time></trkpt><trkpt lat="45.7998344" lon="11.7115087"><ele>125.19999999999999</ele><time>2026-05-02T09:46:28.197Z</time></trkpt><trkpt lat="45.7999313" lon="11.7114765"><ele>126.0</ele><time>2026-05-02T09:46:30.197Z</time></trkpt><trkpt lat="45.8000267" lon="11.7114497"><ele>126.0</ele><time>2026-05-02T09:46:32.197Z</time></trkpt><trkpt lat="45.8001229" lon="11.7114242"><ele>126.0</ele><time>2026-05-02T09:46:34.197Z</time></trkpt><trkpt lat="45.8002174" lon="11.7113982"><ele>126.0</ele><time>2026-05-02T09:46:36.198Z</time></trkpt><trkpt lat="45.8003105" lon="11.7113798"><ele>126.0</ele><time>2026-05-02T09:46:38.197Z</time></trkpt><trkpt lat="45.800416" lon="11.7113515"><ele>126.0</ele><time>2026-05-02T09:46:40.197Z</time></trkpt><trkpt lat="45.8005145" lon="11.7113269"><ele>126.4</ele><time>2026-05-02T09:46:42.198Z</time></trkpt><trkpt lat="45.8006121" lon="11.7112985"><ele>126.8</ele><time>2026-05-02T09:46:44.197Z</time></trkpt><trkpt lat="45.8007125" lon="11.7112692"><ele>127.20000000000002</ele><time>2026-05-02T09:46:46.198Z</time></trkpt><trkpt lat="45.800816" lon="11.7112431"><ele>127.60000000000001</ele><time>2026-05-02T09:46:48.197Z</time></trkpt><trkpt lat="45.8009215" lon="11.7112102"><ele>128.0</ele><time>2026-05-02T09:46:50.198Z</time></trkpt><trkpt lat="45.8010309" lon="11.7111782"><ele>128.0</ele><time>2026-05-02T09:46:52.198Z</time></trkpt><trkpt lat="45.8011374" lon="11.7111449"><ele>128.0</ele><time>2026-05-02T09:46:54.198Z</time></trkpt><trkpt lat="45.8012425" lon="11.7111188"><ele>128.0</ele><time>2026-05-02T09:46:56.198Z</time></trkpt><trkpt lat="45.80135" lon="11.7110951"><ele>128.0</ele><time>2026-05-02T09:46:58.197Z</time></trkpt><trkpt lat="45.8014627" lon="11.7110687"><ele>128.0</ele><time>2026-05-02T09:47:00.198Z</time></trkpt><trkpt lat="45.8015796" lon="11.7110444"><ele>128.5</ele><time>2026-05-02T09:47:02.197Z</time></trkpt><trkpt lat="45.8016948" lon="11.7110359"><ele>129.0</ele><time>2026-05-02T09:47:04.198Z</time></trkpt><trkpt lat="45.8018057" lon="11.7110499"><ele>129.5</ele><time>2026-05-02T09:47:06.197Z</time></trkpt><trkpt lat="45.8019144" lon="11.7110826"><ele>130.0</ele><time>2026-05-02T09:47:08.198Z</time></trkpt><trkpt lat="45.802026" lon="11.7111361"><ele>130.0</ele><time>2026-05-02T09:47:10.198Z</time></trkpt><trkpt lat="45.802134" lon="11.7112019"><ele>130.0</ele><time>2026-05-02T09:47:12.198Z</time></trkpt><trkpt lat="45.8022387" lon="11.7112694"><ele>130.0</ele><time>2026-05-02T09:47:14.197Z</time></trkpt><trkpt lat="45.8023393" lon="11.7113509"><ele>130.0</ele><time>2026-05-02T09:47:16.197Z</time></trkpt><trkpt lat="45.8024399" lon="11.7114253"><ele>130.0</ele><time>2026-05-02T09:47:18.198Z</time></trkpt><trkpt lat="45.8025454" lon="11.7115086"><ele>130.0</ele><time>2026-05-02T09:47:20.198Z</time></trkpt><trkpt lat="45.8026455" lon="11.7115796"><ele>130.0</ele><time>2026-05-02T09:47:22.198Z</time></trkpt><trkpt lat="45.8027507" lon="11.7116566"><ele>130.0</ele><time>2026-05-02T09:47:24.198Z</time></trkpt><trkpt lat="45.8028573" lon="11.7117296"><ele>130.25</ele><time>2026-05-02T09:47:26.197Z</time></trkpt><trkpt lat="45.8029553" lon="11.7118023"><ele>130.5</ele><time>2026-05-02T09:47:28.198Z</time></trkpt><trkpt lat="45.8030479" lon="11.7118762"><ele>130.75</ele><time>2026-05-02T09:47:30.198Z</time></trkpt><trkpt lat="45.8031553" lon="11.7119348"><ele>131.0</ele><time>2026-05-02T09:47:32.199Z</time></trkpt><trkpt lat="45.8032724" lon="11.711988"><ele>131.0</ele><time>2026-05-02T09:47:34.197Z</time></trkpt><trkpt lat="45.8033923" lon="11.7120315"><ele>131.0</ele><time>2026-05-02T09:47:36.197Z</time></trkpt><trkpt lat="45.8035124" lon="11.7120602"><ele>131.0</ele><time>2026-05-02T09:47:38.199Z</time></trkpt><trkpt lat="45.8036341" lon="11.7120799"><ele>131.0</ele><time>2026-05-02T09:47:40.199Z</time></trkpt><trkpt lat="45.8037524" lon="11.7120836"><ele>131.0</ele><time>2026-05-02T09:47:42.198Z</time></trkpt><trkpt lat="45.8038744" lon="11.7120846"><ele>131.0</ele><time>2026-05-02T09:47:44.199Z</time></trkpt><trkpt lat="45.8040003" lon="11.7120712"><ele>131.0</ele><time>2026-05-02T09:47:46.198Z</time></trkpt><trkpt lat="45.8041002" lon="11.7120325"><ele>131.0</ele><time>2026-05-02T09:47:48.199Z</time></trkpt><trkpt lat="45.8042199" lon="11.7119513"><ele>131.0</ele><time>2026-05-02T09:47:50.199Z</time></trkpt><trkpt lat="45.8042774" lon="11.7119008"><ele>131.0</ele><time>2026-05-02T09:47:51.199Z</time></trkpt><trkpt lat="45.8043325" lon="11.7118536"><ele>131.0</ele><time>2026-05-02T09:47:52.198Z</time></trkpt><trkpt lat="45.8043882" lon="11.7118104"><ele>131.0</ele><time>2026-05-02T09:47:53.199Z</time></trkpt><trkpt lat="45.8044893" lon="11.7117254"><ele>131.0</ele><time>2026-05-02T09:47:55.199Z</time></trkpt><trkpt lat="45.8045828" lon="11.711654"><ele>131.0</ele><time>2026-05-02T09:47:57.199Z</time></trkpt><trkpt lat="45.8046808" lon="11.7115688"><ele>131.0</ele><time>2026-05-02T09:47:59.198Z</time></trkpt><trkpt lat="45.8047818" lon="11.71149"><ele>131.0</ele><time>2026-05-02T09:48:01.198Z</time></trkpt><trkpt lat="45.8048795" lon="11.7114321"><ele>131.0</ele><time>2026-05-02T09:48:03.199Z</time></trkpt><trkpt lat="45.8049667" lon="11.7113739"><ele>131.0</ele><time>2026-05-02T09:48:05.199Z</time></trkpt><trkpt lat="45.8050601" lon="11.7113228"><ele>131.0</ele><time>2026-05-02T09:48:07.199Z</time></trkpt><trkpt lat="45.8051572" lon="11.7112629"><ele>131.6</ele><time>2026-05-02T09:48:09.199Z</time></trkpt><trkpt lat="45.8052537" lon="11.7112063"><ele>132.2</ele><time>2026-05-02T09:48:11.199Z</time></trkpt><trkpt lat="45.8053471" lon="11.7111484"><ele>132.8</ele><time>2026-05-02T09:48:13.199Z</time></trkpt><trkpt lat="45.8054421" lon="11.7110998"><ele>133.4</ele><time>2026-05-02T09:48:15.199Z</time></trkpt><trkpt lat="45.8055489" lon="11.7110775"><ele>134.0</ele><time>2026-05-02T09:48:17.199Z</time></trkpt><trkpt lat="45.8056514" lon="11.7110636"><ele>134.0</ele><time>2026-05-02T09:48:19.199Z</time></trkpt><trkpt lat="45.8057415" lon="11.7110732"><ele>134.0</ele><time>2026-05-02T09:48:21.199Z</time></trkpt><trkpt lat="45.8058302" lon="11.7111223"><ele>134.0</ele><time>2026-05-02T09:48:23.199Z</time></trkpt><trkpt lat="45.8059185" lon="11.7111864"><ele>134.0</ele><time>2026-05-02T09:48:25.199Z</time></trkpt><trkpt lat="45.806013" lon="11.7112672"><ele>134.0</ele><time>2026-05-02T09:48:27.198Z</time></trkpt><trkpt lat="45.8061129" lon="11.7113718"><ele>134.4</ele><time>2026-05-02T09:48:29.198Z</time></trkpt><trkpt lat="45.8061797" lon="11.7114696"><ele>134.8</ele><time>2026-05-02T09:48:31.199Z</time></trkpt><trkpt lat="45.8062789" lon="11.7115623"><ele>135.2</ele><time>2026-05-02T09:48:33.199Z</time></trkpt><trkpt lat="45.8063719" lon="11.7116428"><ele>135.6</ele><time>2026-05-02T09:48:35.199Z</time></trkpt><trkpt lat="45.8064613" lon="11.7117218"><ele>136.0</ele><time>2026-05-02T09:48:37.2Z</time></trkpt><trkpt lat="45.8065594" lon="11.7117811"><ele>136.0</ele><time>2026-05-02T09:48:39.2Z</time></trkpt><trkpt lat="45.8066588" lon="11.7118361"><ele>136.0</ele><time>2026-05-02T09:48:41.2Z</time></trkpt><trkpt lat="45.8067629" lon="11.7118738"><ele>136.0</ele><time>2026-05-02T09:48:43.2Z</time></trkpt><trkpt lat="45.8068701" lon="11.7118999"><ele>136.0</ele><time>2026-05-02T09:48:45.199Z</time></trkpt><trkpt lat="45.8069767" lon="11.7119288"><ele>136.0</ele><time>2026-05-02T09:48:47.199Z</time></trkpt><trkpt lat="45.8070838" lon="11.7119581"><ele>135.4</ele><time>2026-05-02T09:48:49.2Z</time></trkpt><trkpt lat="45.8071906" lon="11.7119884"><ele>134.8</ele><time>2026-05-02T09:48:51.2Z</time></trkpt><trkpt lat="45.8072906" lon="11.7120184"><ele>134.20000000000002</ele><time>2026-05-02T09:48:53.2Z</time></trkpt><trkpt lat="45.8073903" lon="11.7120402"><ele>133.6</ele><time>2026-05-02T09:48:55.2Z</time></trkpt><trkpt lat="45.8074906" lon="11.7120677"><ele>133.0</ele><time>2026-05-02T09:48:57.2Z</time></trkpt><trkpt lat="45.8075971" lon="11.7121037"><ele>133.0</ele><time>2026-05-02T09:48:59.2Z</time></trkpt><trkpt lat="45.8076939" lon="11.7121379"><ele>133.0</ele><time>2026-05-02T09:49:01.2Z</time></trkpt><trkpt lat="45.8077913" lon="11.7121697"><ele>133.0</ele><time>2026-05-02T09:49:03.2Z</time></trkpt><trkpt lat="45.807912" lon="11.7122075"><ele>133.0</ele><time>2026-05-02T09:49:05.2Z</time></trkpt><trkpt lat="45.8080214" lon="11.712237"><ele>133.0</ele><time>2026-05-02T09:49:07.199Z</time></trkpt><trkpt lat="45.8081218" lon="11.7122669"><ele>133.0</ele><time>2026-05-02T09:49:09.2Z</time></trkpt><trkpt lat="45.8082195" lon="11.7122991"><ele>133.0</ele><time>2026-05-02T09:49:11.199Z</time></trkpt><trkpt lat="45.8083218" lon="11.7123313"><ele>133.0</ele><time>2026-05-02T09:49:13.199Z</time></trkpt><trkpt lat="45.8084276" lon="11.7123701"><ele>133.0</ele><time>2026-05-02T09:49:15.2Z</time></trkpt><trkpt lat="45.8085252" lon="11.7124014"><ele>133.0</ele><time>2026-05-02T09:49:17.2Z</time></trkpt><trkpt lat="45.808632" lon="11.7124427"><ele>134.0</ele><time>2026-05-02T09:49:19.2Z</time></trkpt><trkpt lat="45.8087339" lon="11.712478"><ele>135.0</ele><time>2026-05-02T09:49:21.2Z</time></trkpt><trkpt lat="45.8088375" lon="11.712506"><ele>136.0</ele><time>2026-05-02T09:49:23.2Z</time></trkpt><trkpt lat="45.808941" lon="11.7125531"><ele>137.0</ele><time>2026-05-02T09:49:25.199Z</time></trkpt><trkpt lat="45.8090478" lon="11.7125794"><ele>138.0</ele><time>2026-05-02T09:49:27.199Z</time></trkpt><trkpt lat="45.8091526" lon="11.7126161"><ele>138.0</ele><time>2026-05-02T09:49:29.2Z</time></trkpt><trkpt lat="45.8092595" lon="11.7126537"><ele>138.0</ele><time>2026-05-02T09:49:31.201Z</time></trkpt><trkpt lat="45.8093681" lon="11.7126857"><ele>138.0</ele><time>2026-05-02T09:49:33.2Z</time></trkpt><trkpt lat="45.809479" lon="11.7127194"><ele>138.0</ele><time>2026-05-02T09:49:35.201Z</time></trkpt><trkpt lat="45.8095895" lon="11.7127511"><ele>138.0</ele><time>2026-05-02T09:49:37.201Z</time></trkpt><trkpt lat="45.8097012" lon="11.7127893"><ele>137.0</ele><time>2026-05-02T09:49:39.201Z</time></trkpt><trkpt lat="45.8098127" lon="11.7128256"><ele>136.0</ele><time>2026-05-02T09:49:41.201Z</time></trkpt><trkpt lat="45.8099203" lon="11.7128506"><ele>135.0</ele><time>2026-05-02T09:49:43.201Z</time></trkpt><trkpt lat="45.8100239" lon="11.7128774"><ele>134.0</ele><time>2026-05-02T09:49:45.199Z</time></trkpt><trkpt lat="45.8101267" lon="11.7129072"><ele>133.0</ele><time>2026-05-02T09:49:47.201Z</time></trkpt><trkpt lat="45.8102284" lon="11.7129474"><ele>133.0</ele><time>2026-05-02T09:49:49.2Z</time></trkpt><trkpt lat="45.8103374" lon="11.7129793"><ele>133.0</ele><time>2026-05-02T09:49:51.201Z</time></trkpt><trkpt lat="45.8104491" lon="11.7130181"><ele>133.0</ele><time>2026-05-02T09:49:53.2Z</time></trkpt><trkpt lat="45.8105595" lon="11.7130597"><ele>133.0</ele><time>2026-05-02T09:49:55.201Z</time></trkpt><trkpt lat="45.8106682" lon="11.7130933"><ele>133.0</ele><time>2026-05-02T09:49:57.201Z</time></trkpt><trkpt lat="45.8107723" lon="11.7131268"><ele>133.0</ele><time>2026-05-02T09:49:59.201Z</time></trkpt><trkpt lat="45.810873" lon="11.713155"><ele>133.0</ele><time>2026-05-02T09:50:01.201Z</time></trkpt><trkpt lat="45.8109705" lon="11.7131852"><ele>133.0</ele><time>2026-05-02T09:50:03.201Z</time></trkpt><trkpt lat="45.8110674" lon="11.7132126"><ele>133.0</ele><time>2026-05-02T09:50:05.2Z</time></trkpt><trkpt lat="45.8111682" lon="11.7132559"><ele>133.25</ele><time>2026-05-02T09:50:07.2Z</time></trkpt><trkpt lat="45.8112767" lon="11.7132863"><ele>133.5</ele><time>2026-05-02T09:50:09.201Z</time></trkpt><trkpt lat="45.811387" lon="11.7133175"><ele>133.75</ele><time>2026-05-02T09:50:11.2Z</time></trkpt><trkpt lat="45.8115012" lon="11.7133515"><ele>134.0</ele><time>2026-05-02T09:50:13.201Z</time></trkpt><trkpt lat="45.8116131" lon="11.7133804"><ele>134.0</ele><time>2026-05-02T09:50:15.201Z</time></trkpt><trkpt lat="45.8117211" lon="11.7134178"><ele>134.0</ele><time>2026-05-02T09:50:17.201Z</time></trkpt><trkpt lat="45.8117835" lon="11.7134374"><ele>134.0</ele><time>2026-05-02T09:50:18.2Z</time></trkpt><trkpt lat="45.8118863" lon="11.7134659"><ele>134.0</ele><time>2026-05-02T09:50:20.2Z</time></trkpt><trkpt lat="45.8119892" lon="11.7134948"><ele>134.0</ele><time>2026-05-02T09:50:22.201Z</time></trkpt><trkpt lat="45.8121032" lon="11.7135264"><ele>133.75</ele><time>2026-05-02T09:50:24.201Z</time></trkpt><trkpt lat="45.8122189" lon="11.7135594"><ele>133.5</ele><time>2026-05-02T09:50:26.201Z</time></trkpt><trkpt lat="45.8123262" lon="11.7135945"><ele>133.25</ele><time>2026-05-02T09:50:28.201Z</time></trkpt><trkpt lat="45.8124414" lon="11.7136236"><ele>133.0</ele><time>2026-05-02T09:50:30.201Z</time></trkpt><trkpt lat="45.8125554" lon="11.7136578"><ele>133.6</ele><time>2026-05-02T09:50:32.202Z</time></trkpt><trkpt lat="45.8126735" lon="11.7136971"><ele>134.20000000000002</ele><time>2026-05-02T09:50:34.2Z</time></trkpt><trkpt lat="45.8127846" lon="11.7137255"><ele>134.8</ele><time>2026-05-02T09:50:36.202Z</time></trkpt><trkpt lat="45.8128818" lon="11.7137551"><ele>135.4</ele><time>2026-05-02T09:50:38.202Z</time></trkpt><trkpt lat="45.8129783" lon="11.7137878"><ele>136.0</ele><time>2026-05-02T09:50:40.202Z</time></trkpt><trkpt lat="45.8130843" lon="11.7138137"><ele>136.0</ele><time>2026-05-02T09:50:42.201Z</time></trkpt><trkpt lat="45.8131879" lon="11.7138428"><ele>136.0</ele><time>2026-05-02T09:50:44.201Z</time></trkpt><trkpt lat="45.8133036" lon="11.7138722"><ele>136.0</ele><time>2026-05-02T09:50:46.202Z</time></trkpt><trkpt lat="45.8134065" lon="11.7138924"><ele>136.0</ele><time>2026-05-02T09:50:48.201Z</time></trkpt><trkpt lat="45.8135142" lon="11.7139237"><ele>136.0</ele><time>2026-05-02T09:50:50.2Z</time></trkpt><trkpt lat="45.8136235" lon="11.7139533"><ele>137.2</ele><time>2026-05-02T09:50:52.202Z</time></trkpt><trkpt lat="45.8137224" lon="11.7139749"><ele>138.39999999999998</ele><time>2026-05-02T09:50:54.202Z</time></trkpt><trkpt lat="45.8138111" lon="11.7140008"><ele>139.6</ele><time>2026-05-02T09:50:56.202Z</time></trkpt><trkpt lat="45.8139196" lon="11.7140329"><ele>140.79999999999998</ele><time>2026-05-02T09:50:58.202Z</time></trkpt><trkpt lat="45.8140385" lon="11.7140703"><ele>142.0</ele><time>2026-05-02T09:51:00.201Z</time></trkpt><trkpt lat="45.8141029" lon="11.7140902"><ele>142.0</ele><time>2026-05-02T09:51:01.202Z</time></trkpt><trkpt lat="45.8142273" lon="11.7141204"><ele>142.0</ele><time>2026-05-02T09:51:03.202Z</time></trkpt><trkpt lat="45.8142901" lon="11.7141339"><ele>142.0</ele><time>2026-05-02T09:51:04.202Z</time></trkpt><trkpt lat="45.8143532" lon="11.7141505"><ele>142.0</ele><time>2026-05-02T09:51:05.202Z</time></trkpt><trkpt lat="45.8144169" lon="11.7141712"><ele>142.0</ele><time>2026-05-02T09:51:06.202Z</time></trkpt><trkpt lat="45.8144805" lon="11.7141898"><ele>142.0</ele><time>2026-05-02T09:51:07.202Z</time></trkpt><trkpt lat="45.8145454" lon="11.7142125"><ele>143.42857142857142</ele><time>2026-05-02T09:51:08.202Z</time></trkpt><trkpt lat="45.8146088" lon="11.7142318"><ele>144.85714285714283</ele><time>2026-05-02T09:51:09.202Z</time></trkpt><trkpt lat="45.8146718" lon="11.7142503"><ele>146.28571428571428</ele><time>2026-05-02T09:51:10.202Z</time></trkpt><trkpt lat="45.8147358" lon="11.7142713"><ele>147.71428571428572</ele><time>2026-05-02T09:51:11.202Z</time></trkpt><trkpt lat="45.8148041" lon="11.7142953"><ele>149.14285714285717</ele><time>2026-05-02T09:51:12.202Z</time></trkpt><trkpt lat="45.8148694" lon="11.7143166"><ele>150.57142857142856</ele><time>2026-05-02T09:51:13.202Z</time></trkpt><trkpt lat="45.8149375" lon="11.7143365"><ele>152.0</ele><time>2026-05-02T09:51:14.202Z</time></trkpt><trkpt lat="45.8150106" lon="11.7143618"><ele>152.0</ele><time>2026-05-02T09:51:15.202Z</time></trkpt><trkpt lat="45.8150803" lon="11.7143785"><ele>152.0</ele><time>2026-05-02T09:51:16.202Z</time></trkpt><trkpt lat="45.8151509" lon="11.714403"><ele>152.0</ele><time>2026-05-02T09:51:17.203Z</time></trkpt><trkpt lat="45.8152214" lon="11.7144251"><ele>152.0</ele><time>2026-05-02T09:51:18.202Z</time></trkpt><trkpt lat="45.815295" lon="11.7144448"><ele>152.0</ele><time>2026-05-02T09:51:19.201Z</time></trkpt><trkpt lat="45.8153678" lon="11.714458"><ele>152.0</ele><time>2026-05-02T09:51:20.202Z</time></trkpt><trkpt lat="45.8154508" lon="11.7144769"><ele>152.0</ele><time>2026-05-02T09:51:21.202Z</time></trkpt><trkpt lat="45.8155301" lon="11.7144929"><ele>151.5</ele><time>2026-05-02T09:51:22.202Z</time></trkpt><trkpt lat="45.8156096" lon="11.7144945"><ele>151.0</ele><time>2026-05-02T09:51:23.202Z</time></trkpt><trkpt lat="45.8156741" lon="11.7144828"><ele>150.5</ele><time>2026-05-02T09:51:24.201Z</time></trkpt><trkpt lat="45.8157538" lon="11.7144639"><ele>150.0</ele><time>2026-05-02T09:51:25.202Z</time></trkpt><trkpt lat="45.8158361" lon="11.7144403"><ele>149.5</ele><time>2026-05-02T09:51:26.202Z</time></trkpt><trkpt lat="45.8159215" lon="11.7144204"><ele>149.0</ele><time>2026-05-02T09:51:27.202Z</time></trkpt><trkpt lat="45.8160045" lon="11.7144035"><ele>149.0</ele><time>2026-05-02T09:51:28.201Z</time></trkpt><trkpt lat="45.8160819" lon="11.7143847"><ele>149.0</ele><time>2026-05-02T09:51:29.202Z</time></trkpt><trkpt lat="45.8161552" lon="11.7143654"><ele>149.0</ele><time>2026-05-02T09:51:30.202Z</time></trkpt><trkpt lat="45.8162278" lon="11.7143492"><ele>149.0</ele><time>2026-05-02T09:51:31.203Z</time></trkpt><trkpt lat="45.8163007" lon="11.7143355"><ele>149.0</ele><time>2026-05-02T09:51:32.203Z</time></trkpt><trkpt lat="45.8163734" lon="11.7143289"><ele>149.0</ele><time>2026-05-02T09:51:33.203Z</time></trkpt><trkpt lat="45.8164983" lon="11.714307"><ele>149.0</ele><time>2026-05-02T09:51:35.203Z</time></trkpt><trkpt lat="45.8165614" lon="11.7142887"><ele>149.0</ele><time>2026-05-02T09:51:36.201Z</time></trkpt><trkpt lat="45.8166249" lon="11.7142678"><ele>149.0</ele><time>2026-05-02T09:51:37.202Z</time></trkpt><trkpt lat="45.8166892" lon="11.7142434"><ele>149.0</ele><time>2026-05-02T09:51:38.203Z</time></trkpt><trkpt lat="45.8167586" lon="11.7142172"><ele>149.0</ele><time>2026-05-02T09:51:39.203Z</time></trkpt><trkpt lat="45.8168232" lon="11.7141893"><ele>149.0</ele><time>2026-05-02T09:51:40.203Z</time></trkpt><trkpt lat="45.8168934" lon="11.7141587"><ele>149.0</ele><time>2026-05-02T09:51:41.202Z</time></trkpt><trkpt lat="45.8169562" lon="11.7141248"><ele>145.4</ele><time>2026-05-02T09:51:42.203Z</time></trkpt><trkpt lat="45.8170663" lon="11.7140627"><ele>141.8</ele><time>2026-05-02T09:51:44.203Z</time></trkpt><trkpt lat="45.8171248" lon="11.7140279"><ele>138.2</ele><time>2026-05-02T09:51:45.203Z</time></trkpt><trkpt lat="45.8172316" lon="11.7139676"><ele>134.6</ele><time>2026-05-02T09:51:47.202Z</time></trkpt><trkpt lat="45.8173339" lon="11.7138814"><ele>131.0</ele><time>2026-05-02T09:51:49.203Z</time></trkpt><trkpt lat="45.8174325" lon="11.7137871"><ele>131.0</ele><time>2026-05-02T09:51:51.203Z</time></trkpt><trkpt lat="45.8174845" lon="11.7137331"><ele>131.0</ele><time>2026-05-02T09:51:52.203Z</time></trkpt><trkpt lat="45.8175404" lon="11.7136773"><ele>131.0</ele><time>2026-05-02T09:51:53.203Z</time></trkpt><trkpt lat="45.8175936" lon="11.7136258"><ele>131.0</ele><time>2026-05-02T09:51:54.203Z</time></trkpt><trkpt lat="45.8176465" lon="11.7135701"><ele>131.0</ele><time>2026-05-02T09:51:55.203Z</time></trkpt><trkpt lat="45.8177465" lon="11.7134563"><ele>131.0</ele><time>2026-05-02T09:51:57.202Z</time></trkpt><trkpt lat="45.8178411" lon="11.7133599"><ele>130.83333333333331</ele><time>2026-05-02T09:51:59.202Z</time></trkpt><trkpt lat="45.8179503" lon="11.7132564"><ele>130.66666666666666</ele><time>2026-05-02T09:52:01.203Z</time></trkpt><trkpt lat="45.8180108" lon="11.7131938"><ele>130.5</ele><time>2026-05-02T09:52:02.202Z</time></trkpt><trkpt lat="45.8180682" lon="11.7131371"><ele>130.33333333333334</ele><time>2026-05-02T09:52:03.203Z</time></trkpt><trkpt lat="45.8181393" lon="11.7130567"><ele>130.16666666666669</ele><time>2026-05-02T09:52:04.203Z</time></trkpt><trkpt lat="45.8181933" lon="11.7129986"><ele>130.0</ele><time>2026-05-02T09:52:05.203Z</time></trkpt><trkpt lat="45.818244" lon="11.7129408"><ele>130.0</ele><time>2026-05-02T09:52:06.202Z</time></trkpt><trkpt lat="45.8182935" lon="11.7128841"><ele>130.0</ele><time>2026-05-02T09:52:07.203Z</time></trkpt><trkpt lat="45.8183861" lon="11.7127791"><ele>130.0</ele><time>2026-05-02T09:52:09.203Z</time></trkpt><trkpt lat="45.8184811" lon="11.7126832"><ele>130.0</ele><time>2026-05-02T09:52:11.203Z</time></trkpt><trkpt lat="45.8185771" lon="11.7125845"><ele>130.0</ele><time>2026-05-02T09:52:13.203Z</time></trkpt><trkpt lat="45.8186795" lon="11.7124787"><ele>130.00000000000003</ele><time>2026-05-02T09:52:15.203Z</time></trkpt><trkpt lat="45.818731" lon="11.7124255"><ele>130.0</ele><time>2026-05-02T09:52:16.202Z</time></trkpt><trkpt lat="45.8188255" lon="11.7123157"><ele>130.0</ele><time>2026-05-02T09:52:18.203Z</time></trkpt><trkpt lat="45.8188718" lon="11.7122539"><ele>130.0</ele><time>2026-05-02T09:52:19.202Z</time></trkpt><trkpt lat="45.8189149" lon="11.7121848"><ele>130.0</ele><time>2026-05-02T09:52:20.203Z</time></trkpt><trkpt lat="45.8189587" lon="11.7121109"><ele>130.00000000000003</ele><time>2026-05-02T09:52:21.203Z</time></trkpt><trkpt lat="45.8190022" lon="11.7120387"><ele>130.0</ele><time>2026-05-02T09:52:22.203Z</time></trkpt><trkpt lat="45.8190461" lon="11.7119663"><ele>129.0</ele><time>2026-05-02T09:52:23.203Z</time></trkpt><trkpt lat="45.8190893" lon="11.7118927"><ele>128.0</ele><time>2026-05-02T09:52:24.203Z</time></trkpt><trkpt lat="45.819131" lon="11.7118209"><ele>127.0</ele><time>2026-05-02T09:52:25.203Z</time></trkpt><trkpt lat="45.8191698" lon="11.7117468"><ele>126.0</ele><time>2026-05-02T09:52:26.203Z</time></trkpt><trkpt lat="45.8192535" lon="11.711628"><ele>125.00000000000001</ele><time>2026-05-02T09:52:28.204Z</time></trkpt><trkpt lat="45.8193532" lon="11.7115426"><ele>124.0</ele><time>2026-05-02T09:52:30.203Z</time></trkpt><trkpt lat="45.8194447" lon="11.7114489"><ele>124.0</ele><time>2026-05-02T09:52:32.202Z</time></trkpt><trkpt lat="45.8195457" lon="11.7113475"><ele>124.0</ele><time>2026-05-02T09:52:34.203Z</time></trkpt><trkpt lat="45.81965" lon="11.7112401"><ele>124.0</ele><time>2026-05-02T09:52:36.204Z</time></trkpt><trkpt lat="45.81975" lon="11.7111293"><ele>124.0</ele><time>2026-05-02T09:52:38.204Z</time></trkpt><trkpt lat="45.8198033" lon="11.7110716"><ele>124.0</ele><time>2026-05-02T09:52:39.204Z</time></trkpt><trkpt lat="45.8198922" lon="11.7109636"><ele>123.6</ele><time>2026-05-02T09:52:41.204Z</time></trkpt><trkpt lat="45.819942" lon="11.7109049"><ele>123.2</ele><time>2026-05-02T09:52:42.203Z</time></trkpt><trkpt lat="45.8200403" lon="11.7107959"><ele>122.79999999999998</ele><time>2026-05-02T09:52:44.203Z</time></trkpt><trkpt lat="45.8200865" lon="11.7107326"><ele>122.39999999999999</ele><time>2026-05-02T09:52:45.203Z</time></trkpt><trkpt lat="45.8201844" lon="11.7106312"><ele>122.0</ele><time>2026-05-02T09:52:47.203Z</time></trkpt><trkpt lat="45.8202786" lon="11.7105399"><ele>122.0</ele><time>2026-05-02T09:52:49.204Z</time></trkpt><trkpt lat="45.8203628" lon="11.7104439"><ele>121.99999999999999</ele><time>2026-05-02T09:52:51.204Z</time></trkpt><trkpt lat="45.8204505" lon="11.7103528"><ele>121.99999999999999</ele><time>2026-05-02T09:52:53.204Z</time></trkpt><trkpt lat="45.8205485" lon="11.7102566"><ele>122.0</ele><time>2026-05-02T09:52:55.203Z</time></trkpt><trkpt lat="45.8205983" lon="11.7101972"><ele>122.0</ele><time>2026-05-02T09:52:56.203Z</time></trkpt><trkpt lat="45.8206487" lon="11.7101348"><ele>122.39999999999999</ele><time>2026-05-02T09:52:57.204Z</time></trkpt><trkpt lat="45.8206969" lon="11.7100745"><ele>122.79999999999998</ele><time>2026-05-02T09:52:58.204Z</time></trkpt><trkpt lat="45.8207902" lon="11.7099622"><ele>123.2</ele><time>2026-05-02T09:53:00.204Z</time></trkpt><trkpt lat="45.8208717" lon="11.7098446"><ele>123.6</ele><time>2026-05-02T09:53:02.204Z</time></trkpt><trkpt lat="45.820945" lon="11.7097203"><ele>124.0</ele><time>2026-05-02T09:53:04.204Z</time></trkpt><trkpt lat="45.821019" lon="11.7095999"><ele>124.0</ele><time>2026-05-02T09:53:06.203Z</time></trkpt><trkpt lat="45.8210932" lon="11.7094777"><ele>124.0</ele><time>2026-05-02T09:53:08.204Z</time></trkpt><trkpt lat="45.821173" lon="11.7093527"><ele>124.0</ele><time>2026-05-02T09:53:10.204Z</time></trkpt><trkpt lat="45.821259" lon="11.7092392"><ele>124.0</ele><time>2026-05-02T09:53:12.204Z</time></trkpt><trkpt lat="45.8213319" lon="11.7091643"><ele>124.0</ele><time>2026-05-02T09:53:14.203Z</time></trkpt><trkpt lat="45.8213867" lon="11.7090745"><ele>124.16666666666667</ele><time>2026-05-02T09:53:16.203Z</time></trkpt><trkpt lat="45.821452" lon="11.708961"><ele>124.33333333333334</ele><time>2026-05-02T09:53:18.204Z</time></trkpt><trkpt lat="45.8215209" lon="11.7088702"><ele>124.5</ele><time>2026-05-02T09:53:20.204Z</time></trkpt><trkpt lat="45.8215883" lon="11.7087986"><ele>124.66666666666666</ele><time>2026-05-02T09:53:22.204Z</time></trkpt><trkpt lat="45.8216503" lon="11.7087255"><ele>124.83333333333333</ele><time>2026-05-02T09:53:24.203Z</time></trkpt><trkpt lat="45.8217139" lon="11.7086533"><ele>125.0</ele><time>2026-05-02T09:53:26.204Z</time></trkpt><trkpt lat="45.8217856" lon="11.7085568"><ele>125.4</ele><time>2026-05-02T09:53:28.204Z</time></trkpt><trkpt lat="45.8218637" lon="11.7084615"><ele>125.8</ele><time>2026-05-02T09:53:30.204Z</time></trkpt><trkpt lat="45.82193" lon="11.7083721"><ele>126.19999999999999</ele><time>2026-05-02T09:53:32.204Z</time></trkpt><trkpt lat="45.8220007" lon="11.7082971"><ele>126.6</ele><time>2026-05-02T09:53:34.203Z</time></trkpt><trkpt lat="45.8220804" lon="11.7082349"><ele>127.0</ele><time>2026-05-02T09:53:36.204Z</time></trkpt><trkpt lat="45.8221568" lon="11.7081861"><ele>127.00000000000001</ele><time>2026-05-02T09:53:38.205Z</time></trkpt><trkpt lat="45.822229" lon="11.708112"><ele>127.0</ele><time>2026-05-02T09:53:40.204Z</time></trkpt><trkpt lat="45.82231" lon="11.7080228"><ele>127.0</ele><time>2026-05-02T09:53:42.205Z</time></trkpt><trkpt lat="45.8223747" lon="11.7079284"><ele>127.0</ele><time>2026-05-02T09:53:44.204Z</time></trkpt><trkpt lat="45.8224438" lon="11.7078841"><ele>127.00000000000001</ele><time>2026-05-02T09:53:46.205Z</time></trkpt><trkpt lat="45.8224938" lon="11.7078219"><ele>127.0</ele><time>2026-05-02T09:53:48.204Z</time></trkpt><trkpt lat="45.8225419" lon="11.7077611"><ele>127.16666666666667</ele><time>2026-05-02T09:53:50.205Z</time></trkpt><trkpt lat="45.8225928" lon="11.7076954"><ele>127.33333333333334</ele><time>2026-05-02T09:53:53.205Z</time></trkpt><trkpt lat="45.8226666" lon="11.7076747"><ele>127.5</ele><time>2026-05-02T09:53:56.204Z</time></trkpt><trkpt lat="45.8227339" lon="11.7077669"><ele>127.66666666666666</ele><time>2026-05-02T09:53:59.205Z</time></trkpt><trkpt lat="45.8228213" lon="11.7077688"><ele>127.83333333333333</ele><time>2026-05-02T09:54:01.204Z</time></trkpt><trkpt lat="45.822876" lon="11.7077124"><ele>128.0</ele><time>2026-05-02T09:54:02.204Z</time></trkpt><trkpt lat="45.8229263" lon="11.7076295"><ele>128.5</ele><time>2026-05-02T09:54:03.204Z</time></trkpt><trkpt lat="45.8229703" lon="11.7075511"><ele>129.0</ele><time>2026-05-02T09:54:04.204Z</time></trkpt><trkpt lat="45.8230425" lon="11.7074314"><ele>129.5</ele><time>2026-05-02T09:54:06.205Z</time></trkpt><trkpt lat="45.8230993" lon="11.7073337"><ele>130.0</ele><time>2026-05-02T09:54:08.205Z</time></trkpt><trkpt lat="45.8231565" lon="11.7072528"><ele>130.5</ele><time>2026-05-02T09:54:10.205Z</time></trkpt><trkpt lat="45.8232199" lon="11.707164"><ele>131.0</ele><time>2026-05-02T09:54:12.204Z</time></trkpt><trkpt lat="45.8232708" lon="11.707078"><ele>131.0</ele><time>2026-05-02T09:54:14.205Z</time></trkpt><trkpt lat="45.8233405" lon="11.7070138"><ele>131.0</ele><time>2026-05-02T09:54:16.205Z</time></trkpt><trkpt lat="45.8234238" lon="11.706927"><ele>131.0</ele><time>2026-05-02T09:54:18.205Z</time></trkpt><trkpt lat="45.8234969" lon="11.7068194"><ele>131.0</ele><time>2026-05-02T09:54:20.205Z</time></trkpt><trkpt lat="45.8235688" lon="11.7067243"><ele>131.0</ele><time>2026-05-02T09:54:22.205Z</time></trkpt><trkpt lat="45.8236445" lon="11.7066402"><ele>131.4</ele><time>2026-05-02T09:54:24.205Z</time></trkpt><trkpt lat="45.823732" lon="11.7065408"><ele>131.8</ele><time>2026-05-02T09:54:26.206Z</time></trkpt><trkpt lat="45.8238155" lon="11.7064472"><ele>132.20000000000002</ele><time>2026-05-02T09:54:28.206Z</time></trkpt><trkpt lat="45.8238994" lon="11.706367"><ele>132.6</ele><time>2026-05-02T09:54:30.206Z</time></trkpt><trkpt lat="45.8239837" lon="11.706286"><ele>133.0</ele><time>2026-05-02T09:54:32.206Z</time></trkpt><trkpt lat="45.8240658" lon="11.7062062"><ele>133.0</ele><time>2026-05-02T09:54:34.204Z</time></trkpt><trkpt lat="45.8241535" lon="11.7061255"><ele>133.0</ele><time>2026-05-02T09:54:36.206Z</time></trkpt><trkpt lat="45.824245" lon="11.706037"><ele>133.0</ele><time>2026-05-02T09:54:38.206Z</time></trkpt><trkpt lat="45.8243333" lon="11.7059478"><ele>133.0</ele><time>2026-05-02T09:54:40.206Z</time></trkpt><trkpt lat="45.8244097" lon="11.7058585"><ele>133.0</ele><time>2026-05-02T09:54:42.206Z</time></trkpt><trkpt lat="45.8244757" lon="11.7057759"><ele>132.8</ele><time>2026-05-02T09:54:44.206Z</time></trkpt><trkpt lat="45.8245538" lon="11.7056883"><ele>132.60000000000002</ele><time>2026-05-02T09:54:46.206Z</time></trkpt><trkpt lat="45.8246374" lon="11.7055922"><ele>132.39999999999998</ele><time>2026-05-02T09:54:48.206Z</time></trkpt><trkpt lat="45.8247153" lon="11.7055017"><ele>132.2</ele><time>2026-05-02T09:54:50.206Z</time></trkpt><trkpt lat="45.824797" lon="11.7053994"><ele>132.0</ele><time>2026-05-02T09:54:52.205Z</time></trkpt><trkpt lat="45.8248915" lon="11.7052957"><ele>131.79999999999998</ele><time>2026-05-02T09:54:54.205Z</time></trkpt><trkpt lat="45.8249854" lon="11.7052056"><ele>131.6</ele><time>2026-05-02T09:54:56.206Z</time></trkpt><trkpt lat="45.8250613" lon="11.7051277"><ele>131.39999999999998</ele><time>2026-05-02T09:54:58.206Z</time></trkpt><trkpt lat="45.8251456" lon="11.7050414"><ele>131.2</ele><time>2026-05-02T09:55:00.206Z</time></trkpt><trkpt lat="45.8252319" lon="11.7049521"><ele>131.0</ele><time>2026-05-02T09:55:02.205Z</time></trkpt><trkpt lat="45.8253123" lon="11.7048701"><ele>131.0</ele><time>2026-05-02T09:55:04.206Z</time></trkpt><trkpt lat="45.8253954" lon="11.7047879"><ele>131.0</ele><time>2026-05-02T09:55:06.206Z</time></trkpt><trkpt lat="45.8254735" lon="11.7047221"><ele>131.0</ele><time>2026-05-02T09:55:08.205Z</time></trkpt><trkpt lat="45.8255627" lon="11.7046363"><ele>131.0</ele><time>2026-05-02T09:55:10.206Z</time></trkpt><trkpt lat="45.8256461" lon="11.7045542"><ele>131.0</ele><time>2026-05-02T09:55:12.205Z</time></trkpt><trkpt lat="45.825732" lon="11.7044491"><ele>130.75</ele><time>2026-05-02T09:55:14.206Z</time></trkpt><trkpt lat="45.8258137" lon="11.7043388"><ele>130.5</ele><time>2026-05-02T09:55:16.205Z</time></trkpt><trkpt lat="45.8258934" lon="11.7042349"><ele>130.25</ele><time>2026-05-02T09:55:18.206Z</time></trkpt><trkpt lat="45.825987" lon="11.7041257"><ele>130.0</ele><time>2026-05-02T09:55:20.206Z</time></trkpt><trkpt lat="45.8260727" lon="11.7040103"><ele>130.0</ele><time>2026-05-02T09:55:22.206Z</time></trkpt><trkpt lat="45.8261523" lon="11.7039087"><ele>130.0</ele><time>2026-05-02T09:55:24.206Z</time></trkpt><trkpt lat="45.8262328" lon="11.7038142"><ele>130.0</ele><time>2026-05-02T09:55:26.206Z</time></trkpt><trkpt lat="45.8263331" lon="11.7037041"><ele>130.0</ele><time>2026-05-02T09:55:28.207Z</time></trkpt><trkpt lat="45.8263887" lon="11.7036515"><ele>130.0</ele><time>2026-05-02T09:55:29.206Z</time></trkpt><trkpt lat="45.8264436" lon="11.703601"><ele>130.2</ele><time>2026-05-02T09:55:30.207Z</time></trkpt><trkpt lat="45.8265542" lon="11.7035086"><ele>130.4</ele><time>2026-05-02T09:55:32.206Z</time></trkpt><trkpt lat="45.8266101" lon="11.703462"><ele>130.6</ele><time>2026-05-02T09:55:33.207Z</time></trkpt><trkpt lat="45.8267064" lon="11.7033909"><ele>130.8</ele><time>2026-05-02T09:55:35.207Z</time></trkpt><trkpt lat="45.8268031" lon="11.7033377"><ele>131.0</ele><time>2026-05-02T09:55:37.206Z</time></trkpt><trkpt lat="45.826897" lon="11.7033105"><ele>131.0</ele><time>2026-05-02T09:55:39.206Z</time></trkpt><trkpt lat="45.8269968" lon="11.7032604"><ele>131.0</ele><time>2026-05-02T09:55:41.206Z</time></trkpt><trkpt lat="45.8270998" lon="11.703201"><ele>131.0</ele><time>2026-05-02T09:55:43.207Z</time></trkpt><trkpt lat="45.8271922" lon="11.7031333"><ele>131.0</ele><time>2026-05-02T09:55:45.207Z</time></trkpt><trkpt lat="45.8272684" lon="11.7030734"><ele>131.0</ele><time>2026-05-02T09:55:47.207Z</time></trkpt><trkpt lat="45.8273375" lon="11.703029"><ele>131.0</ele><time>2026-05-02T09:55:49.207Z</time></trkpt><trkpt lat="45.8274172" lon="11.7029925"><ele>131.0</ele><time>2026-05-02T09:55:51.207Z</time></trkpt><trkpt lat="45.827493" lon="11.7029551"><ele>131.0</ele><time>2026-05-02T09:55:53.207Z</time></trkpt><trkpt lat="45.8275584" lon="11.7029085"><ele>131.0</ele><time>2026-05-02T09:55:55.206Z</time></trkpt><trkpt lat="45.8276412" lon="11.7028815"><ele>131.0</ele><time>2026-05-02T09:55:57.207Z</time></trkpt><trkpt lat="45.8277209" lon="11.7028974"><ele>131.0</ele><time>2026-05-02T09:55:59.207Z</time></trkpt><trkpt lat="45.8277926" lon="11.7028714"><ele>130.83333333333331</ele><time>2026-05-02T09:56:01.207Z</time></trkpt><trkpt lat="45.827867" lon="11.7028447"><ele>130.66666666666666</ele><time>2026-05-02T09:56:03.206Z</time></trkpt><trkpt lat="45.8279377" lon="11.702813"><ele>130.5</ele><time>2026-05-02T09:56:05.207Z</time></trkpt><trkpt lat="45.8280106" lon="11.7027864"><ele>130.33333333333334</ele><time>2026-05-02T09:56:07.207Z</time></trkpt><trkpt lat="45.8280776" lon="11.7027502"><ele>130.16666666666669</ele><time>2026-05-02T09:56:09.206Z</time></trkpt><trkpt lat="45.8281476" lon="11.7027103"><ele>130.0</ele><time>2026-05-02T09:56:11.207Z</time></trkpt><trkpt lat="45.8282303" lon="11.7026614"><ele>130.00000000000003</ele><time>2026-05-02T09:56:14.206Z</time></trkpt><trkpt lat="45.8283159" lon="11.7026306"><ele>130.0</ele><time>2026-05-02T09:56:17.207Z</time></trkpt><trkpt lat="45.828376" lon="11.7025916"><ele>130.0</ele><time>2026-05-02T09:56:21.207Z</time></trkpt><trkpt lat="45.8284421" lon="11.7026523"><ele>130.0</ele><time>2026-05-02T09:56:25.206Z</time></trkpt><trkpt lat="45.8284352" lon="11.702762"><ele>130.0</ele><time>2026-05-02T09:56:28.206Z</time></trkpt><trkpt lat="45.8283887" lon="11.7028401"><ele>130.00000000000003</ele><time>2026-05-02T09:56:32.206Z</time></trkpt><trkpt lat="45.8283277" lon="11.7028034"><ele>130.0</ele><time>2026-05-02T09:57:30.208Z</time></trkpt><trkpt lat="45.8282539" lon="11.7027955"><ele>130.0</ele><time>2026-05-02T09:57:37.207Z</time></trkpt><trkpt lat="45.8281914" lon="11.702818"><ele>130.0</ele><time>2026-05-02T09:57:42.207Z</time></trkpt><trkpt lat="45.8281574" lon="11.7028949"><ele>130.0</ele><time>2026-05-02T09:57:51.208Z</time></trkpt><trkpt lat="45.8282484" lon="11.7026486"><ele>130.0</ele><time>2026-05-02T10:06:14.215Z</time></trkpt><trkpt lat="45.8283163" lon="11.7026212"><ele>130.0</ele><time>2026-05-02T10:06:17.216Z</time></trkpt><trkpt lat="45.8283904" lon="11.7025713"><ele>130.0</ele><time>2026-05-02T10:06:20.216Z</time></trkpt><trkpt lat="45.8284593" lon="11.7025149"><ele>130.0</ele><time>2026-05-02T10:06:23.216Z</time></trkpt><trkpt lat="45.8285346" lon="11.7024552"><ele>130.0</ele><time>2026-05-02T10:06:26.216Z</time></trkpt><trkpt lat="45.8286222" lon="11.7024059"><ele>130.0</ele><time>2026-05-02T10:06:29.216Z</time></trkpt><trkpt lat="45.8287155" lon="11.7023732"><ele>130.0</ele><time>2026-05-02T10:06:32.216Z</time></trkpt><trkpt lat="45.8287769" lon="11.7023503"><ele>130.0</ele><time>2026-05-02T10:06:34.216Z</time></trkpt><trkpt lat="45.8288599" lon="11.7023206"><ele>130.0</ele><time>2026-05-02T10:06:37.216Z</time></trkpt><trkpt lat="45.8289439" lon="11.7022782"><ele>130.0</ele><time>2026-05-02T10:06:40.215Z</time></trkpt><trkpt lat="45.8290163" lon="11.7022539"><ele>130.0</ele><time>2026-05-02T10:06:43.216Z</time></trkpt><trkpt lat="45.8291042" lon="11.7022233"><ele>130.0</ele><time>2026-05-02T10:06:46.216Z</time></trkpt><trkpt lat="45.8291709" lon="11.7021924"><ele>130.0</ele><time>2026-05-02T10:06:48.216Z</time></trkpt><trkpt lat="45.8292403" lon="11.7021617"><ele>130.0</ele><time>2026-05-02T10:06:50.216Z</time></trkpt><trkpt lat="45.8293178" lon="11.702131"><ele>130.5</ele><time>2026-05-02T10:06:53.216Z</time></trkpt><trkpt lat="45.829405" lon="11.7020939"><ele>131.0</ele><time>2026-05-02T10:06:56.217Z</time></trkpt><trkpt lat="45.8294709" lon="11.7020543"><ele>131.5</ele><time>2026-05-02T10:06:58.217Z</time></trkpt><trkpt lat="45.8295351" lon="11.7019995"><ele>132.0</ele><time>2026-05-02T10:07:00.217Z</time></trkpt><trkpt lat="45.8296118" lon="11.7019451"><ele>132.5</ele><time>2026-05-02T10:07:02.216Z</time></trkpt><trkpt lat="45.8297033" lon="11.7018708"><ele>133.0</ele><time>2026-05-02T10:07:04.217Z</time></trkpt><trkpt lat="45.8297779" lon="11.7018041"><ele>133.0</ele><time>2026-05-02T10:07:06.217Z</time></trkpt><trkpt lat="45.8298528" lon="11.7017363"><ele>133.0</ele><time>2026-05-02T10:07:08.217Z</time></trkpt><trkpt lat="45.829918" lon="11.70167"><ele>133.0</ele><time>2026-05-02T10:07:10.217Z</time></trkpt><trkpt lat="45.8299941" lon="11.7015975"><ele>133.0</ele><time>2026-05-02T10:07:12.217Z</time></trkpt><trkpt lat="45.8300646" lon="11.7015295"><ele>133.0</ele><time>2026-05-02T10:07:14.217Z</time></trkpt><trkpt lat="45.8301283" lon="11.7014521"><ele>133.0</ele><time>2026-05-02T10:07:16.216Z</time></trkpt><trkpt lat="45.830136" lon="11.7013163"><ele>132.85714285714286</ele><time>2026-05-02T10:07:18.217Z</time></trkpt><trkpt lat="45.83016" lon="11.7012158"><ele>132.71428571428572</ele><time>2026-05-02T10:07:20.217Z</time></trkpt><trkpt lat="45.8302374" lon="11.7012152"><ele>132.57142857142856</ele><time>2026-05-02T10:07:22.217Z</time></trkpt><trkpt lat="45.8303043" lon="11.7012094"><ele>132.42857142857144</ele><time>2026-05-02T10:07:24.216Z</time></trkpt><trkpt lat="45.8303611" lon="11.7011412"><ele>132.28571428571428</ele><time>2026-05-02T10:07:26.217Z</time></trkpt><trkpt lat="45.8304044" lon="11.7010506"><ele>132.14285714285714</ele><time>2026-05-02T10:07:28.217Z</time></trkpt><trkpt lat="45.830443" lon="11.7009666"><ele>132.0</ele><time>2026-05-02T10:07:31.217Z</time></trkpt><trkpt lat="45.8304789" lon="11.700869"><ele>132.0</ele><time>2026-05-02T10:07:35.217Z</time></trkpt><trkpt lat="45.8305304" lon="11.7007838"><ele>132.0</ele><time>2026-05-02T10:07:39.216Z</time></trkpt><trkpt lat="45.8305745" lon="11.7007061"><ele>132.0</ele><time>2026-05-02T10:07:41.217Z</time></trkpt><trkpt lat="45.8305956" lon="11.7006021"><ele>132.0</ele><time>2026-05-02T10:07:43.217Z</time></trkpt><trkpt lat="45.8306114" lon="11.7005"><ele>132.0</ele><time>2026-05-02T10:07:45.217Z</time></trkpt><trkpt lat="45.8306323" lon="11.700395"><ele>132.0</ele><time>2026-05-02T10:07:47.217Z</time></trkpt><trkpt lat="45.8306609" lon="11.700294"><ele>132.0</ele><time>2026-05-02T10:07:49.216Z</time></trkpt><trkpt lat="45.8307002" lon="11.7002116"><ele>132.33333333333334</ele><time>2026-05-02T10:07:51.217Z</time></trkpt><trkpt lat="45.8307451" lon="11.7001235"><ele>132.66666666666666</ele><time>2026-05-02T10:07:53.217Z</time></trkpt><trkpt lat="45.8307945" lon="11.7000254"><ele>133.0</ele><time>2026-05-02T10:07:55.217Z</time></trkpt><trkpt lat="45.8308251" lon="11.6999456"><ele>133.33333333333331</ele><time>2026-05-02T10:07:57.216Z</time></trkpt><trkpt lat="45.8308631" lon="11.6998274"><ele>133.66666666666666</ele><time>2026-05-02T10:07:59.216Z</time></trkpt><trkpt lat="45.8309012" lon="11.6996783"><ele>134.0</ele><time>2026-05-02T10:08:01.217Z</time></trkpt><trkpt lat="45.8309412" lon="11.6995381"><ele>133.4</ele><time>2026-05-02T10:08:03.216Z</time></trkpt><trkpt lat="45.8309842" lon="11.6994045"><ele>132.8</ele><time>2026-05-02T10:08:05.218Z</time></trkpt><trkpt lat="45.8310157" lon="11.6992717"><ele>132.2</ele><time>2026-05-02T10:08:07.218Z</time></trkpt><trkpt lat="45.8310597" lon="11.6991446"><ele>131.6</ele><time>2026-05-02T10:08:09.217Z</time></trkpt><trkpt lat="45.8310969" lon="11.6990031"><ele>131.0</ele><time>2026-05-02T10:08:11.218Z</time></trkpt><trkpt lat="45.8311391" lon="11.6988652"><ele>131.0</ele><time>2026-05-02T10:08:13.218Z</time></trkpt><trkpt lat="45.8311917" lon="11.6987319"><ele>131.0</ele><time>2026-05-02T10:08:15.217Z</time></trkpt><trkpt lat="45.8312498" lon="11.6985894"><ele>131.0</ele><time>2026-05-02T10:08:17.218Z</time></trkpt><trkpt lat="45.8312992" lon="11.6984424"><ele>131.0</ele><time>2026-05-02T10:08:19.218Z</time></trkpt><trkpt lat="45.8313481" lon="11.698288"><ele>131.4</ele><time>2026-05-02T10:08:21.218Z</time></trkpt><trkpt lat="45.8313927" lon="11.6981454"><ele>131.8</ele><time>2026-05-02T10:08:23.218Z</time></trkpt><trkpt lat="45.831449" lon="11.6980209"><ele>132.20000000000002</ele><time>2026-05-02T10:08:25.218Z</time></trkpt><trkpt lat="45.8314993" lon="11.6978916"><ele>132.6</ele><time>2026-05-02T10:08:27.217Z</time></trkpt><trkpt lat="45.8315376" lon="11.6977957"><ele>133.0</ele><time>2026-05-02T10:08:29.217Z</time></trkpt><trkpt lat="45.8315864" lon="11.6977001"><ele>132.83333333333334</ele><time>2026-05-02T10:08:33.218Z</time></trkpt><trkpt lat="45.8316469" lon="11.6976136"><ele>132.66666666666669</ele><time>2026-05-02T10:08:36.217Z</time></trkpt><trkpt lat="45.8317046" lon="11.6975581"><ele>132.5</ele><time>2026-05-02T10:08:38.217Z</time></trkpt><trkpt lat="45.8317705" lon="11.6974974"><ele>132.33333333333334</ele><time>2026-05-02T10:08:41.217Z</time></trkpt><trkpt lat="45.8318238" lon="11.6974005"><ele>132.16666666666666</ele><time>2026-05-02T10:08:44.218Z</time></trkpt><trkpt lat="45.8318942" lon="11.6973251"><ele>132.0</ele><time>2026-05-02T10:08:47.218Z</time></trkpt><trkpt lat="45.8319611" lon="11.6972433"><ele>132.0</ele><time>2026-05-02T10:08:50.218Z</time></trkpt><trkpt lat="45.8320238" lon="11.6971531"><ele>132.0</ele><time>2026-05-02T10:08:53.217Z</time></trkpt><trkpt lat="45.8320724" lon="11.6970915"><ele>132.0</ele><time>2026-05-02T10:08:55.218Z</time></trkpt><trkpt lat="45.832118" lon="11.6970217"><ele>132.0</ele><time>2026-05-02T10:08:57.218Z</time></trkpt><trkpt lat="45.8321644" lon="11.6969527"><ele>132.0</ele><time>2026-05-02T10:08:59.217Z</time></trkpt><trkpt lat="45.8321992" lon="11.696858"><ele>132.0</ele><time>2026-05-02T10:09:02.218Z</time></trkpt><trkpt lat="45.8322216" lon="11.6967709"><ele>132.0</ele><time>2026-05-02T10:09:05.217Z</time></trkpt><trkpt lat="45.8322828" lon="11.6967135"><ele>132.83333333333334</ele><time>2026-05-02T10:09:07.218Z</time></trkpt><trkpt lat="45.8323335" lon="11.6966463"><ele>133.66666666666666</ele><time>2026-05-02T10:09:09.218Z</time></trkpt><trkpt lat="45.8323869" lon="11.6965752"><ele>134.5</ele><time>2026-05-02T10:09:11.218Z</time></trkpt><trkpt lat="45.8324455" lon="11.6965169"><ele>135.33333333333331</ele><time>2026-05-02T10:09:13.218Z</time></trkpt><trkpt lat="45.8325062" lon="11.696462"><ele>136.16666666666666</ele><time>2026-05-02T10:09:15.217Z</time></trkpt><trkpt lat="45.8325727" lon="11.6963888"><ele>137.0</ele><time>2026-05-02T10:09:17.217Z</time></trkpt><trkpt lat="45.8326383" lon="11.6963176"><ele>136.83333333333331</ele><time>2026-05-02T10:09:19.218Z</time></trkpt><trkpt lat="45.8327082" lon="11.6962454"><ele>136.66666666666666</ele><time>2026-05-02T10:09:21.219Z</time></trkpt><trkpt lat="45.8327751" lon="11.6961641"><ele>136.5</ele><time>2026-05-02T10:09:23.219Z</time></trkpt><trkpt lat="45.8328443" lon="11.6960852"><ele>136.33333333333334</ele><time>2026-05-02T10:09:25.218Z</time></trkpt><trkpt lat="45.8329073" lon="11.6960017"><ele>136.16666666666669</ele><time>2026-05-02T10:09:27.219Z</time></trkpt><trkpt lat="45.8329777" lon="11.6959293"><ele>136.0</ele><time>2026-05-02T10:09:29.219Z</time></trkpt><trkpt lat="45.8330345" lon="11.69588"><ele>136.0</ele><time>2026-05-02T10:09:31.219Z</time></trkpt><trkpt lat="45.8330904" lon="11.6958098"><ele>136.0</ele><time>2026-05-02T10:09:33.218Z</time></trkpt><trkpt lat="45.8331437" lon="11.6957391"><ele>136.0</ele><time>2026-05-02T10:09:35.219Z</time></trkpt><trkpt lat="45.8331854" lon="11.6956431"><ele>136.0</ele><time>2026-05-02T10:09:37.219Z</time></trkpt><trkpt lat="45.8332287" lon="11.6955383"><ele>136.0</ele><time>2026-05-02T10:09:39.219Z</time></trkpt><trkpt lat="45.8332647" lon="11.6954408"><ele>136.0</ele><time>2026-05-02T10:09:41.219Z</time></trkpt><trkpt lat="45.8332934" lon="11.6953358"><ele>135.5</ele><time>2026-05-02T10:09:43.219Z</time></trkpt><trkpt lat="45.8333273" lon="11.6952472"><ele>135.0</ele><time>2026-05-02T10:09:45.219Z</time></trkpt><trkpt lat="45.8333807" lon="11.6951719"><ele>134.5</ele><time>2026-05-02T10:09:47.218Z</time></trkpt><trkpt lat="45.8334726" lon="11.6951864"><ele>134.0</ele><time>2026-05-02T10:09:49.219Z</time></trkpt><trkpt lat="45.8335642" lon="11.6951474"><ele>133.5</ele><time>2026-05-02T10:09:51.218Z</time></trkpt><trkpt lat="45.8336534" lon="11.6950582"><ele>133.0</ele><time>2026-05-02T10:09:53.218Z</time></trkpt><trkpt lat="45.8337424" lon="11.6949782"><ele>133.0</ele><time>2026-05-02T10:09:55.218Z</time></trkpt><trkpt lat="45.8337917" lon="11.6949146"><ele>133.0</ele><time>2026-05-02T10:09:56.219Z</time></trkpt><trkpt lat="45.8338441" lon="11.6948501"><ele>133.0</ele><time>2026-05-02T10:09:57.219Z</time></trkpt><trkpt lat="45.8339019" lon="11.6947863"><ele>133.0</ele><time>2026-05-02T10:09:58.219Z</time></trkpt><trkpt lat="45.8339625" lon="11.6947253"><ele>133.0</ele><time>2026-05-02T10:09:59.219Z</time></trkpt><trkpt lat="45.8340274" lon="11.6946775"><ele>133.0</ele><time>2026-05-02T10:10:00.219Z</time></trkpt><trkpt lat="45.8340935" lon="11.6946289"><ele>133.0</ele><time>2026-05-02T10:10:01.219Z</time></trkpt><trkpt lat="45.834154" lon="11.69458"><ele>133.0</ele><time>2026-05-02T10:10:02.219Z</time></trkpt><trkpt lat="45.8342133" lon="11.6945254"><ele>133.0</ele><time>2026-05-02T10:10:03.218Z</time></trkpt><trkpt lat="45.8342676" lon="11.6944727"><ele>133.0</ele><time>2026-05-02T10:10:04.219Z</time></trkpt><trkpt lat="45.8343217" lon="11.6944207"><ele>133.0</ele><time>2026-05-02T10:10:05.218Z</time></trkpt><trkpt lat="45.8344205" lon="11.6943203"><ele>133.0</ele><time>2026-05-02T10:10:07.219Z</time></trkpt><trkpt lat="45.8345189" lon="11.6942302"><ele>133.0</ele><time>2026-05-02T10:10:09.219Z</time></trkpt><trkpt lat="45.8346" lon="11.6941505"><ele>133.16666666666669</ele><time>2026-05-02T10:10:11.219Z</time></trkpt><trkpt lat="45.8346724" lon="11.6940651"><ele>133.33333333333334</ele><time>2026-05-02T10:10:13.218Z</time></trkpt><trkpt lat="45.8347439" lon="11.6939814"><ele>133.5</ele><time>2026-05-02T10:10:15.218Z</time></trkpt><trkpt lat="45.8348095" lon="11.6939105"><ele>133.66666666666666</ele><time>2026-05-02T10:10:17.219Z</time></trkpt><trkpt lat="45.8348735" lon="11.6938253"><ele>133.83333333333331</ele><time>2026-05-02T10:10:19.219Z</time></trkpt><trkpt lat="45.8349356" lon="11.6937517"><ele>134.0</ele><time>2026-05-02T10:10:21.218Z</time></trkpt><trkpt lat="45.8350097" lon="11.6936631"><ele>134.4</ele><time>2026-05-02T10:10:23.219Z</time></trkpt><trkpt lat="45.8350786" lon="11.6935739"><ele>134.8</ele><time>2026-05-02T10:10:25.219Z</time></trkpt><trkpt lat="45.8351481" lon="11.6934704"><ele>135.2</ele><time>2026-05-02T10:10:27.219Z</time></trkpt><trkpt lat="45.8352096" lon="11.6933534"><ele>135.6</ele><time>2026-05-02T10:10:29.219Z</time></trkpt><trkpt lat="45.8352707" lon="11.6932548"><ele>136.0</ele><time>2026-05-02T10:10:31.218Z</time></trkpt><trkpt lat="45.8353404" lon="11.6931686"><ele>135.2</ele><time>2026-05-02T10:10:33.22Z</time></trkpt><trkpt lat="45.8354093" lon="11.6930708"><ele>134.39999999999998</ele><time>2026-05-02T10:10:35.22Z</time></trkpt><trkpt lat="45.8354861" lon="11.6929677"><ele>133.6</ele><time>2026-05-02T10:10:37.22Z</time></trkpt><trkpt lat="45.8355581" lon="11.6928633"><ele>132.79999999999998</ele><time>2026-05-02T10:10:39.219Z</time></trkpt><trkpt lat="45.835616" lon="11.6927656"><ele>132.0</ele><time>2026-05-02T10:10:41.22Z</time></trkpt><trkpt lat="45.8356787" lon="11.6926692"><ele>132.0</ele><time>2026-05-02T10:10:43.22Z</time></trkpt><trkpt lat="45.8357403" lon="11.6925461"><ele>132.0</ele><time>2026-05-02T10:10:45.22Z</time></trkpt><trkpt lat="45.8358101" lon="11.6924284"><ele>132.0</ele><time>2026-05-02T10:10:47.22Z</time></trkpt><trkpt lat="45.8358756" lon="11.6923136"><ele>132.0</ele><time>2026-05-02T10:10:49.22Z</time></trkpt><trkpt lat="45.835939" lon="11.6922025"><ele>132.0</ele><time>2026-05-02T10:10:51.22Z</time></trkpt><trkpt lat="45.8359936" lon="11.69208"><ele>132.6</ele><time>2026-05-02T10:10:53.219Z</time></trkpt><trkpt lat="45.8360281" lon="11.692003"><ele>133.2</ele><time>2026-05-02T10:10:54.219Z</time></trkpt><trkpt lat="45.8360858" lon="11.6918762"><ele>133.8</ele><time>2026-05-02T10:10:56.22Z</time></trkpt><trkpt lat="45.8361391" lon="11.6917639"><ele>134.4</ele><time>2026-05-02T10:10:58.22Z</time></trkpt><trkpt lat="45.8362013" lon="11.6916562"><ele>135.0</ele><time>2026-05-02T10:11:00.22Z</time></trkpt><trkpt lat="45.8362647" lon="11.6915471"><ele>135.0</ele><time>2026-05-02T10:11:02.22Z</time></trkpt><trkpt lat="45.8363269" lon="11.6914363"><ele>135.0</ele><time>2026-05-02T10:11:04.22Z</time></trkpt><trkpt lat="45.8363808" lon="11.6913256"><ele>135.0</ele><time>2026-05-02T10:11:06.219Z</time></trkpt><trkpt lat="45.8364252" lon="11.6912286"><ele>135.0</ele><time>2026-05-02T10:11:08.22Z</time></trkpt><trkpt lat="45.8364787" lon="11.691153"><ele>135.0</ele><time>2026-05-02T10:11:10.22Z</time></trkpt><trkpt lat="45.8365328" lon="11.6910822"><ele>135.0</ele><time>2026-05-02T10:11:12.22Z</time></trkpt><trkpt lat="45.836589" lon="11.6909642"><ele>135.0</ele><time>2026-05-02T10:11:14.219Z</time></trkpt><trkpt lat="45.8366455" lon="11.6908392"><ele>135.0</ele><time>2026-05-02T10:11:16.22Z</time></trkpt><trkpt lat="45.8367003" lon="11.6907142"><ele>135.0</ele><time>2026-05-02T10:11:18.22Z</time></trkpt><trkpt lat="45.8367579" lon="11.690577"><ele>135.0</ele><time>2026-05-02T10:11:20.22Z</time></trkpt><trkpt lat="45.8368051" lon="11.6904611"><ele>135.0</ele><time>2026-05-02T10:11:22.219Z</time></trkpt><trkpt lat="45.8368528" lon="11.6903456"><ele>135.2</ele><time>2026-05-02T10:11:24.22Z</time></trkpt><trkpt lat="45.8368957" lon="11.6902221"><ele>135.4</ele><time>2026-05-02T10:11:26.22Z</time></trkpt><trkpt lat="45.8369446" lon="11.6900935"><ele>135.6</ele><time>2026-05-02T10:11:28.22Z</time></trkpt><trkpt lat="45.8369923" lon="11.6899722"><ele>135.8</ele><time>2026-05-02T10:11:30.22Z</time></trkpt><trkpt lat="45.8370343" lon="11.6898595"><ele>136.0</ele><time>2026-05-02T10:11:32.219Z</time></trkpt><trkpt lat="45.8370792" lon="11.6897565"><ele>136.0</ele><time>2026-05-02T10:11:34.22Z</time></trkpt><trkpt lat="45.8371282" lon="11.6896426"><ele>136.0</ele><time>2026-05-02T10:11:36.219Z</time></trkpt><trkpt lat="45.8371846" lon="11.6895021"><ele>136.0</ele><time>2026-05-02T10:11:38.22Z</time></trkpt><trkpt lat="45.8372227" lon="11.689427"><ele>136.0</ele><time>2026-05-02T10:11:39.219Z</time></trkpt><trkpt lat="45.8372794" lon="11.6892986"><ele>136.0</ele><time>2026-05-02T10:11:41.219Z</time></trkpt><trkpt lat="45.8373355" lon="11.6891627"><ele>136.0</ele><time>2026-05-02T10:11:43.22Z</time></trkpt><trkpt lat="45.837395" lon="11.6890357"><ele>136.0</ele><time>2026-05-02T10:11:45.22Z</time></trkpt><trkpt lat="45.8374506" lon="11.6889159"><ele>136.0</ele><time>2026-05-02T10:11:47.22Z</time></trkpt><trkpt lat="45.8375001" lon="11.6887998"><ele>136.0</ele><time>2026-05-02T10:11:49.221Z</time></trkpt><trkpt lat="45.8375478" lon="11.6886964"><ele>136.0</ele><time>2026-05-02T10:11:51.22Z</time></trkpt><trkpt lat="45.8376213" lon="11.6885262"><ele>135.2</ele><time>2026-05-02T10:11:54.221Z</time></trkpt><trkpt lat="45.8376778" lon="11.6884142"><ele>134.39999999999998</ele><time>2026-05-02T10:11:56.221Z</time></trkpt><trkpt lat="45.8377328" lon="11.6882968"><ele>133.6</ele><time>2026-05-02T10:11:58.221Z</time></trkpt><trkpt lat="45.8377913" lon="11.6881807"><ele>132.79999999999998</ele><time>2026-05-02T10:12:00.22Z</time></trkpt><trkpt lat="45.8378586" lon="11.6880698"><ele>132.0</ele><time>2026-05-02T10:12:02.221Z</time></trkpt><trkpt lat="45.8379093" lon="11.6879412"><ele>132.0</ele><time>2026-05-02T10:12:04.221Z</time></trkpt><trkpt lat="45.8379512" lon="11.6878104"><ele>132.0</ele><time>2026-05-02T10:12:06.22Z</time></trkpt><trkpt lat="45.8380072" lon="11.6876795"><ele>132.0</ele><time>2026-05-02T10:12:08.221Z</time></trkpt><trkpt lat="45.8380683" lon="11.6875551"><ele>132.0</ele><time>2026-05-02T10:12:10.221Z</time></trkpt><trkpt lat="45.8381361" lon="11.6874395"><ele>132.0</ele><time>2026-05-02T10:12:12.221Z</time></trkpt><trkpt lat="45.8382034" lon="11.6873371"><ele>131.79999999999998</ele><time>2026-05-02T10:12:14.221Z</time></trkpt><trkpt lat="45.8382724" lon="11.6872328"><ele>131.6</ele><time>2026-05-02T10:12:16.221Z</time></trkpt><trkpt lat="45.838345" lon="11.6871346"><ele>131.39999999999998</ele><time>2026-05-02T10:12:18.221Z</time></trkpt><trkpt lat="45.8384161" lon="11.6870425"><ele>131.2</ele><time>2026-05-02T10:12:20.221Z</time></trkpt><trkpt lat="45.8384829" lon="11.6869325"><ele>131.0</ele><time>2026-05-02T10:12:22.22Z</time></trkpt><trkpt lat="45.8385559" lon="11.6868459"><ele>131.0</ele><time>2026-05-02T10:12:24.221Z</time></trkpt><trkpt lat="45.8386271" lon="11.6867438"><ele>131.0</ele><time>2026-05-02T10:12:26.221Z</time></trkpt><trkpt lat="45.8386894" lon="11.6866486"><ele>131.0</ele><time>2026-05-02T10:12:28.221Z</time></trkpt><trkpt lat="45.8387502" lon="11.6865391"><ele>131.0</ele><time>2026-05-02T10:12:30.22Z</time></trkpt><trkpt lat="45.8388092" lon="11.6864139"><ele>131.0</ele><time>2026-05-02T10:12:32.22Z</time></trkpt><trkpt lat="45.83887" lon="11.6862965"><ele>131.0</ele><time>2026-05-02T10:12:34.221Z</time></trkpt><trkpt lat="45.838942" lon="11.6861929"><ele>131.0</ele><time>2026-05-02T10:12:36.221Z</time></trkpt><trkpt lat="45.8390105" lon="11.6860898"><ele>131.0</ele><time>2026-05-02T10:12:38.221Z</time></trkpt><trkpt lat="45.8390753" lon="11.6859952"><ele>131.0</ele><time>2026-05-02T10:12:40.221Z</time></trkpt><trkpt lat="45.839148" lon="11.6859001"><ele>131.0</ele><time>2026-05-02T10:12:42.22Z</time></trkpt><trkpt lat="45.8392232" lon="11.68581"><ele>132.0</ele><time>2026-05-02T10:12:44.22Z</time></trkpt><trkpt lat="45.8393038" lon="11.6857369"><ele>133.0</ele><time>2026-05-02T10:12:46.22Z</time></trkpt><trkpt lat="45.8393799" lon="11.6856745"><ele>134.0</ele><time>2026-05-02T10:12:48.221Z</time></trkpt><trkpt lat="45.8394525" lon="11.6855958"><ele>135.0</ele><time>2026-05-02T10:12:50.221Z</time></trkpt><trkpt lat="45.8395259" lon="11.6855211"><ele>136.0</ele><time>2026-05-02T10:12:52.221Z</time></trkpt><trkpt lat="45.839592" lon="11.6854418"><ele>136.0</ele><time>2026-05-02T10:12:54.221Z</time></trkpt><trkpt lat="45.8396605" lon="11.6853457"><ele>136.0</ele><time>2026-05-02T10:12:56.221Z</time></trkpt><trkpt lat="45.8397307" lon="11.6852641"><ele>136.0</ele><time>2026-05-02T10:12:58.22Z</time></trkpt><trkpt lat="45.8398045" lon="11.6851765"><ele>136.0</ele><time>2026-05-02T10:13:00.221Z</time></trkpt><trkpt lat="45.8398785" lon="11.6850722"><ele>136.0</ele><time>2026-05-02T10:13:02.221Z</time></trkpt><trkpt lat="45.8399403" lon="11.6849573"><ele>136.0</ele><time>2026-05-02T10:13:04.221Z</time></trkpt><trkpt lat="45.8399946" lon="11.6848401"><ele>136.0</ele><time>2026-05-02T10:13:06.221Z</time></trkpt><trkpt lat="45.8400387" lon="11.684716"><ele>136.0</ele><time>2026-05-02T10:13:08.222Z</time></trkpt><trkpt lat="45.8400874" lon="11.6846092"><ele>136.0</ele><time>2026-05-02T10:13:10.222Z</time></trkpt><trkpt lat="45.840141" lon="11.6844721"><ele>136.0</ele><time>2026-05-02T10:13:12.222Z</time></trkpt><trkpt lat="45.8401975" lon="11.6843391"><ele>135.6</ele><time>2026-05-02T10:13:14.222Z</time></trkpt><trkpt lat="45.8402362" lon="11.6841971"><ele>135.2</ele><time>2026-05-02T10:13:16.222Z</time></trkpt><trkpt lat="45.8402773" lon="11.6840821"><ele>134.8</ele><time>2026-05-02T10:13:18.222Z</time></trkpt><trkpt lat="45.8403122" lon="11.6839692"><ele>134.4</ele><time>2026-05-02T10:13:20.222Z</time></trkpt><trkpt lat="45.840346" lon="11.6838388"><ele>134.0</ele><time>2026-05-02T10:13:22.222Z</time></trkpt><trkpt lat="45.8403813" lon="11.6836987"><ele>134.2</ele><time>2026-05-02T10:13:24.222Z</time></trkpt><trkpt lat="45.8404151" lon="11.6835743"><ele>134.4</ele><time>2026-05-02T10:13:26.222Z</time></trkpt><trkpt lat="45.840457" lon="11.6834393"><ele>134.6</ele><time>2026-05-02T10:13:28.221Z</time></trkpt><trkpt lat="45.8404974" lon="11.6833177"><ele>134.8</ele><time>2026-05-02T10:13:30.222Z</time></trkpt><trkpt lat="45.8405288" lon="11.6831857"><ele>135.0</ele><time>2026-05-02T10:13:32.222Z</time></trkpt><trkpt lat="45.8405578" lon="11.6830592"><ele>135.0</ele><time>2026-05-02T10:13:34.221Z</time></trkpt><trkpt lat="45.8405908" lon="11.6829212"><ele>135.0</ele><time>2026-05-02T10:13:36.222Z</time></trkpt><trkpt lat="45.8406232" lon="11.6827784"><ele>135.0</ele><time>2026-05-02T10:13:38.222Z</time></trkpt><trkpt lat="45.8406489" lon="11.6826831"><ele>135.0</ele><time>2026-05-02T10:13:40.222Z</time></trkpt><trkpt lat="45.8406772" lon="11.6826002"><ele>135.0</ele><time>2026-05-02T10:13:42.222Z</time></trkpt><trkpt lat="45.8407236" lon="11.6824787"><ele>135.0</ele><time>2026-05-02T10:13:45.222Z</time></trkpt><trkpt lat="45.8407386" lon="11.6823692"><ele>135.33333333333334</ele><time>2026-05-02T10:13:48.222Z</time></trkpt><trkpt lat="45.8407712" lon="11.682276"><ele>135.66666666666666</ele><time>2026-05-02T10:13:50.222Z</time></trkpt><trkpt lat="45.8407989" lon="11.6821511"><ele>136.0</ele><time>2026-05-02T10:13:53.222Z</time></trkpt><trkpt lat="45.8408346" lon="11.682023"><ele>136.33333333333331</ele><time>2026-05-02T10:13:56.222Z</time></trkpt><trkpt lat="45.8408626" lon="11.6819278"><ele>136.66666666666666</ele><time>2026-05-02T10:13:58.221Z</time></trkpt><trkpt lat="45.8408903" lon="11.6818167"><ele>137.0</ele><time>2026-05-02T10:14:00.222Z</time></trkpt><trkpt lat="45.8409187" lon="11.6816743"><ele>137.0</ele><time>2026-05-02T10:14:02.222Z</time></trkpt><trkpt lat="45.8409517" lon="11.6815428"><ele>137.0</ele><time>2026-05-02T10:14:04.221Z</time></trkpt><trkpt lat="45.8409764" lon="11.6814282"><ele>137.0</ele><time>2026-05-02T10:14:06.222Z</time></trkpt><trkpt lat="45.8409985" lon="11.6813129"><ele>137.0</ele><time>2026-05-02T10:14:08.222Z</time></trkpt><trkpt lat="45.84102" lon="11.6811864"><ele>137.0</ele><time>2026-05-02T10:14:10.221Z</time></trkpt><trkpt lat="45.8410422" lon="11.6810654"><ele>137.0</ele><time>2026-05-02T10:14:12.222Z</time></trkpt><trkpt lat="45.8410622" lon="11.6809638"><ele>137.14285714285717</ele><time>2026-05-02T10:14:14.222Z</time></trkpt><trkpt lat="45.8410874" lon="11.6808644"><ele>137.28571428571428</ele><time>2026-05-02T10:14:16.222Z</time></trkpt><trkpt lat="45.8411105" lon="11.6807719"><ele>137.42857142857144</ele><time>2026-05-02T10:14:18.221Z</time></trkpt><trkpt lat="45.8411376" lon="11.6806814"><ele>137.57142857142858</ele><time>2026-05-02T10:14:20.223Z</time></trkpt><trkpt lat="45.8411627" lon="11.6805619"><ele>137.71428571428572</ele><time>2026-05-02T10:14:22.223Z</time></trkpt><trkpt lat="45.841185" lon="11.6804527"><ele>137.85714285714286</ele><time>2026-05-02T10:14:24.222Z</time></trkpt><trkpt lat="45.8412125" lon="11.6803577"><ele>138.0</ele><time>2026-05-02T10:14:26.222Z</time></trkpt><trkpt lat="45.8412393" lon="11.6802349"><ele>138.0</ele><time>2026-05-02T10:14:28.222Z</time></trkpt><trkpt lat="45.8412621" lon="11.6801254"><ele>138.0</ele><time>2026-05-02T10:14:30.223Z</time></trkpt><trkpt lat="45.8412915" lon="11.6800072"><ele>138.0</ele><time>2026-05-02T10:14:32.223Z</time></trkpt><trkpt lat="45.8413159" lon="11.6798928"><ele>138.0</ele><time>2026-05-02T10:14:34.223Z</time></trkpt><trkpt lat="45.8413491" lon="11.6798005"><ele>138.0</ele><time>2026-05-02T10:14:36.222Z</time></trkpt><trkpt lat="45.8413779" lon="11.679698"><ele>138.0</ele><time>2026-05-02T10:14:38.222Z</time></trkpt><trkpt lat="45.8414118" lon="11.6796196"><ele>138.0</ele><time>2026-05-02T10:14:40.222Z</time></trkpt><trkpt lat="45.8414684" lon="11.6795349"><ele>138.0</ele><time>2026-05-02T10:14:42.223Z</time></trkpt><trkpt lat="45.8415277" lon="11.6794353"><ele>138.0</ele><time>2026-05-02T10:14:44.222Z</time></trkpt><trkpt lat="45.841576" lon="11.6793415"><ele>138.0</ele><time>2026-05-02T10:14:46.223Z</time></trkpt><trkpt lat="45.8416251" lon="11.6792408"><ele>138.0</ele><time>2026-05-02T10:14:48.222Z</time></trkpt><trkpt lat="45.8416807" lon="11.679137"><ele>138.0</ele><time>2026-05-02T10:14:50.223Z</time></trkpt><trkpt lat="45.8417408" lon="11.679061"><ele>137.6</ele><time>2026-05-02T10:14:52.222Z</time></trkpt><trkpt lat="45.8418046" lon="11.6789895"><ele>137.20000000000002</ele><time>2026-05-02T10:14:54.223Z</time></trkpt><trkpt lat="45.8418769" lon="11.678899"><ele>136.8</ele><time>2026-05-02T10:14:56.223Z</time></trkpt><trkpt lat="45.8419368" lon="11.6788153"><ele>136.4</ele><time>2026-05-02T10:14:58.223Z</time></trkpt><trkpt lat="45.8419879" lon="11.6786958"><ele>136.0</ele><time>2026-05-02T10:15:00.223Z</time></trkpt><trkpt lat="45.8420323" lon="11.6785792"><ele>136.0</ele><time>2026-05-02T10:15:02.223Z</time></trkpt><trkpt lat="45.842068" lon="11.6784601"><ele>136.0</ele><time>2026-05-02T10:15:04.223Z</time></trkpt><trkpt lat="45.8420846" lon="11.6783384"><ele>136.0</ele><time>2026-05-02T10:15:06.223Z</time></trkpt><trkpt lat="45.8420963" lon="11.6782318"><ele>136.0</ele><time>2026-05-02T10:15:08.222Z</time></trkpt><trkpt lat="45.8421085" lon="11.6781224"><ele>136.0</ele><time>2026-05-02T10:15:10.223Z</time></trkpt><trkpt lat="45.8421151" lon="11.6779994"><ele>136.0</ele><time>2026-05-02T10:15:12.223Z</time></trkpt><trkpt lat="45.8421334" lon="11.6778776"><ele>136.0</ele><time>2026-05-02T10:15:14.223Z</time></trkpt><trkpt lat="45.842152" lon="11.6777714"><ele>136.0</ele><time>2026-05-02T10:15:16.223Z</time></trkpt><trkpt lat="45.8421384" lon="11.6776616"><ele>136.0</ele><time>2026-05-02T10:15:18.222Z</time></trkpt><trkpt lat="45.8421297" lon="11.6775671"><ele>136.0</ele><time>2026-05-02T10:15:20.223Z</time></trkpt><trkpt lat="45.8421295" lon="11.6774627"><ele>136.0</ele><time>2026-05-02T10:15:22.223Z</time></trkpt><trkpt lat="45.8421856" lon="11.6773498"><ele>136.0</ele><time>2026-05-02T10:15:25.223Z</time></trkpt><trkpt lat="45.8422382" lon="11.6772648"><ele>136.57142857142856</ele><time>2026-05-02T10:15:27.223Z</time></trkpt><trkpt lat="45.8422901" lon="11.677187"><ele>137.14285714285714</ele><time>2026-05-02T10:15:29.223Z</time></trkpt><trkpt lat="45.8423374" lon="11.6771139"><ele>137.71428571428572</ele><time>2026-05-02T10:15:31.223Z</time></trkpt><trkpt lat="45.8423945" lon="11.6770317"><ele>138.28571428571428</ele><time>2026-05-02T10:15:33.222Z</time></trkpt><trkpt lat="45.8424562" lon="11.6769681"><ele>138.85714285714286</ele><time>2026-05-02T10:15:35.223Z</time></trkpt><trkpt lat="45.8425068" lon="11.6768979"><ele>139.42857142857142</ele><time>2026-05-02T10:15:37.224Z</time></trkpt><trkpt lat="45.8425614" lon="11.6768311"><ele>140.0</ele><time>2026-05-02T10:15:39.223Z</time></trkpt><trkpt lat="45.8426102" lon="11.6767506"><ele>140.16666666666666</ele><time>2026-05-02T10:15:41.223Z</time></trkpt><trkpt lat="45.8426601" lon="11.6766713"><ele>140.33333333333331</ele><time>2026-05-02T10:15:43.223Z</time></trkpt><trkpt lat="45.842711" lon="11.6765837"><ele>140.5</ele><time>2026-05-02T10:15:45.224Z</time></trkpt><trkpt lat="45.8427507" lon="11.6764848"><ele>140.66666666666666</ele><time>2026-05-02T10:15:47.224Z</time></trkpt><trkpt lat="45.8428002" lon="11.6764064"><ele>140.83333333333334</ele><time>2026-05-02T10:15:49.224Z</time></trkpt><trkpt lat="45.8428416" lon="11.6763117"><ele>141.0</ele><time>2026-05-02T10:15:52.223Z</time></trkpt><trkpt lat="45.8428945" lon="11.676222"><ele>141.0</ele><time>2026-05-02T10:15:55.223Z</time></trkpt><trkpt lat="45.8429456" lon="11.6761319"><ele>141.0</ele><time>2026-05-02T10:15:58.224Z</time></trkpt><trkpt lat="45.8429995" lon="11.6760651"><ele>141.0</ele><time>2026-05-02T10:16:01.224Z</time></trkpt><trkpt lat="45.8430696" lon="11.675997"><ele>141.0</ele><time>2026-05-02T10:16:05.224Z</time></trkpt><trkpt lat="45.843142" lon="11.6759396"><ele>141.0</ele><time>2026-05-02T10:16:08.223Z</time></trkpt><trkpt lat="45.8432206" lon="11.6758821"><ele>141.0</ele><time>2026-05-02T10:16:10.224Z</time></trkpt><trkpt lat="45.8432986" lon="11.675817"><ele>140.83333333333334</ele><time>2026-05-02T10:16:12.224Z</time></trkpt><trkpt lat="45.8433602" lon="11.67575"><ele>140.66666666666666</ele><time>2026-05-02T10:16:14.224Z</time></trkpt><trkpt lat="45.8434141" lon="11.675671"><ele>140.5</ele><time>2026-05-02T10:16:16.224Z</time></trkpt><trkpt lat="45.8434695" lon="11.6755882"><ele>140.33333333333331</ele><time>2026-05-02T10:16:18.224Z</time></trkpt><trkpt lat="45.843535" lon="11.6755148"><ele>140.16666666666666</ele><time>2026-05-02T10:16:20.224Z</time></trkpt><trkpt lat="45.8436098" lon="11.6754443"><ele>140.0</ele><time>2026-05-02T10:16:22.223Z</time></trkpt><trkpt lat="45.8436881" lon="11.6753508"><ele>140.0</ele><time>2026-05-02T10:16:24.224Z</time></trkpt><trkpt lat="45.8437567" lon="11.6752734"><ele>140.0</ele><time>2026-05-02T10:16:26.224Z</time></trkpt><trkpt lat="45.8438259" lon="11.6751961"><ele>140.0</ele><time>2026-05-02T10:16:28.224Z</time></trkpt><trkpt lat="45.8438797" lon="11.6751235"><ele>140.0</ele><time>2026-05-02T10:16:30.224Z</time></trkpt><trkpt lat="45.8439542" lon="11.6750703"><ele>140.0</ele><time>2026-05-02T10:16:33.223Z</time></trkpt><trkpt lat="45.844034" lon="11.6749901"><ele>140.0</ele><time>2026-05-02T10:16:36.224Z</time></trkpt><trkpt lat="45.844099" lon="11.6749278"><ele>140.0</ele><time>2026-05-02T10:16:38.224Z</time></trkpt><trkpt lat="45.8441772" lon="11.6748443"><ele>140.0</ele><time>2026-05-02T10:16:40.224Z</time></trkpt><trkpt lat="45.8442531" lon="11.6747613"><ele>140.0</ele><time>2026-05-02T10:16:42.224Z</time></trkpt><trkpt lat="45.8443132" lon="11.6746909"><ele>140.0</ele><time>2026-05-02T10:16:44.224Z</time></trkpt><trkpt lat="45.8443792" lon="11.6746242"><ele>140.0</ele><time>2026-05-02T10:16:46.224Z</time></trkpt><trkpt lat="45.8444268" lon="11.6745592"><ele>140.0</ele><time>2026-05-02T10:16:48.224Z</time></trkpt><trkpt lat="45.8444699" lon="11.674484"><ele>140.33333333333331</ele><time>2026-05-02T10:16:50.223Z</time></trkpt><trkpt lat="45.8445185" lon="11.6744108"><ele>140.66666666666666</ele><time>2026-05-02T10:16:52.223Z</time></trkpt><trkpt lat="45.8445732" lon="11.6743356"><ele>141.0</ele><time>2026-05-02T10:16:54.224Z</time></trkpt><trkpt lat="45.8446343" lon="11.6742423"><ele>141.33333333333334</ele><time>2026-05-02T10:16:57.225Z</time></trkpt><trkpt lat="45.8446903" lon="11.6741826"><ele>141.66666666666669</ele><time>2026-05-02T10:17:00.224Z</time></trkpt><trkpt lat="45.8447525" lon="11.6741213"><ele>142.0</ele><time>2026-05-02T10:17:03.225Z</time></trkpt><trkpt lat="45.8448147" lon="11.6740338"><ele>142.0</ele><time>2026-05-02T10:17:06.225Z</time></trkpt><trkpt lat="45.8448824" lon="11.6739444"><ele>142.0</ele><time>2026-05-02T10:17:09.224Z</time></trkpt><trkpt lat="45.8449156" lon="11.6738631"><ele>142.0</ele><time>2026-05-02T10:17:11.225Z</time></trkpt><trkpt lat="45.8449552" lon="11.6737625"><ele>142.0</ele><time>2026-05-02T10:17:13.225Z</time></trkpt><trkpt lat="45.8450077" lon="11.6736717"><ele>142.0</ele><time>2026-05-02T10:17:15.225Z</time></trkpt><trkpt lat="45.8450432" lon="11.673572"><ele>142.0</ele><time>2026-05-02T10:17:17.225Z</time></trkpt><trkpt lat="45.8450698" lon="11.6734878"><ele>142.0</ele><time>2026-05-02T10:17:19.225Z</time></trkpt><trkpt lat="45.8451066" lon="11.6733927"><ele>142.0</ele><time>2026-05-02T10:17:21.225Z</time></trkpt><trkpt lat="45.8451617" lon="11.6732921"><ele>142.0</ele><time>2026-05-02T10:17:23.225Z</time></trkpt><trkpt lat="45.8452065" lon="11.6732134"><ele>142.0</ele><time>2026-05-02T10:17:25.225Z</time></trkpt><trkpt lat="45.8452607" lon="11.6731235"><ele>142.0</ele><time>2026-05-02T10:17:27.225Z</time></trkpt><trkpt lat="45.8453051" lon="11.673015"><ele>142.0</ele><time>2026-05-02T10:17:29.225Z</time></trkpt><trkpt lat="45.8453495" lon="11.6729093"><ele>142.0</ele><time>2026-05-02T10:17:31.225Z</time></trkpt><trkpt lat="45.8453871" lon="11.672808"><ele>142.0</ele><time>2026-05-02T10:17:33.225Z</time></trkpt><trkpt lat="45.8454207" lon="11.6727176"><ele>142.0</ele><time>2026-05-02T10:17:35.225Z</time></trkpt><trkpt lat="45.8454573" lon="11.6726135"><ele>142.0</ele><time>2026-05-02T10:17:37.225Z</time></trkpt><trkpt lat="45.8454991" lon="11.6725248"><ele>142.0</ele><time>2026-05-02T10:17:39.225Z</time></trkpt><trkpt lat="45.8455431" lon="11.6724361"><ele>142.0</ele><time>2026-05-02T10:17:41.225Z</time></trkpt><trkpt lat="45.8455805" lon="11.6723275"><ele>141.79999999999998</ele><time>2026-05-02T10:17:43.225Z</time></trkpt><trkpt lat="45.8456382" lon="11.6722154"><ele>141.6</ele><time>2026-05-02T10:17:46.224Z</time></trkpt><trkpt lat="45.8456821" lon="11.6721156"><ele>141.39999999999998</ele><time>2026-05-02T10:17:48.224Z</time></trkpt><trkpt lat="45.8457298" lon="11.6719956"><ele>141.2</ele><time>2026-05-02T10:17:50.225Z</time></trkpt><trkpt lat="45.8457798" lon="11.6718859"><ele>141.0</ele><time>2026-05-02T10:17:52.225Z</time></trkpt><trkpt lat="45.8458234" lon="11.671785"><ele>141.28571428571428</ele><time>2026-05-02T10:17:54.225Z</time></trkpt><trkpt lat="45.8458604" lon="11.6717049"><ele>141.57142857142856</ele><time>2026-05-02T10:17:56.224Z</time></trkpt><trkpt lat="45.8458955" lon="11.671619"><ele>141.85714285714283</ele><time>2026-05-02T10:17:58.224Z</time></trkpt><trkpt lat="45.8459281" lon="11.671532"><ele>142.14285714285714</ele><time>2026-05-02T10:18:00.224Z</time></trkpt><trkpt lat="45.8459625" lon="11.6714304"><ele>142.42857142857142</ele><time>2026-05-02T10:18:02.225Z</time></trkpt><trkpt lat="45.8460039" lon="11.6713446"><ele>142.7142857142857</ele><time>2026-05-02T10:18:04.225Z</time></trkpt><trkpt lat="45.8460525" lon="11.6712434"><ele>143.0</ele><time>2026-05-02T10:18:06.225Z</time></trkpt><trkpt lat="45.8461001" lon="11.6711272"><ele>142.83333333333331</ele><time>2026-05-02T10:18:08.224Z</time></trkpt><trkpt lat="45.8461352" lon="11.671025"><ele>142.66666666666666</ele><time>2026-05-02T10:18:10.225Z</time></trkpt><trkpt lat="45.846169" lon="11.6709222"><ele>142.5</ele><time>2026-05-02T10:18:12.225Z</time></trkpt><trkpt lat="45.8462032" lon="11.6708338"><ele>142.33333333333334</ele><time>2026-05-02T10:18:14.225Z</time></trkpt><trkpt lat="45.8462503" lon="11.6707423"><ele>142.16666666666669</ele><time>2026-05-02T10:18:16.226Z</time></trkpt><trkpt lat="45.8462859" lon="11.6706404"><ele>142.0</ele><time>2026-05-02T10:18:18.225Z</time></trkpt><trkpt lat="45.8463346" lon="11.6705285"><ele>142.0</ele><time>2026-05-02T10:18:20.226Z</time></trkpt><trkpt lat="45.8463711" lon="11.6704278"><ele>142.0</ele><time>2026-05-02T10:18:23.226Z</time></trkpt><trkpt lat="45.8463975" lon="11.6703434"><ele>142.0</ele><time>2026-05-02T10:18:25.226Z</time></trkpt><trkpt lat="45.8464144" lon="11.6702549"><ele>142.0</ele><time>2026-05-02T10:18:27.226Z</time></trkpt><trkpt lat="45.8464222" lon="11.6701651"><ele>142.0</ele><time>2026-05-02T10:18:29.226Z</time></trkpt><trkpt lat="45.8464354" lon="11.670067"><ele>142.0</ele><time>2026-05-02T10:18:31.226Z</time></trkpt><trkpt lat="45.8464707" lon="11.6699642"><ele>142.0</ele><time>2026-05-02T10:18:33.226Z</time></trkpt><trkpt lat="45.8465202" lon="11.6698699"><ele>142.28571428571428</ele><time>2026-05-02T10:18:35.226Z</time></trkpt><trkpt lat="45.846559" lon="11.6697857"><ele>142.57142857142856</ele><time>2026-05-02T10:18:37.226Z</time></trkpt><trkpt lat="45.8465884" lon="11.6697022"><ele>142.85714285714286</ele><time>2026-05-02T10:18:39.226Z</time></trkpt><trkpt lat="45.846638" lon="11.6696375"><ele>143.14285714285714</ele><time>2026-05-02T10:18:41.226Z</time></trkpt><trkpt lat="45.846684" lon="11.6695728"><ele>143.42857142857144</ele><time>2026-05-02T10:18:43.226Z</time></trkpt><trkpt lat="45.8467252" lon="11.6694955"><ele>143.71428571428572</ele><time>2026-05-02T10:18:45.226Z</time></trkpt><trkpt lat="45.8467733" lon="11.6694251"><ele>144.0</ele><time>2026-05-02T10:18:47.226Z</time></trkpt><trkpt lat="45.8468223" lon="11.66934"><ele>143.16666666666666</ele><time>2026-05-02T10:18:49.225Z</time></trkpt><trkpt lat="45.8468687" lon="11.6692503"><ele>142.33333333333334</ele><time>2026-05-02T10:18:51.226Z</time></trkpt><trkpt lat="45.8469201" lon="11.6691571"><ele>141.5</ele><time>2026-05-02T10:18:53.226Z</time></trkpt><trkpt lat="45.8469685" lon="11.6690676"><ele>140.66666666666669</ele><time>2026-05-02T10:18:55.226Z</time></trkpt><trkpt lat="45.8470136" lon="11.6689723"><ele>139.83333333333334</ele><time>2026-05-02T10:18:57.226Z</time></trkpt><trkpt lat="45.8470346" lon="11.6688842"><ele>139.0</ele><time>2026-05-02T10:18:59.225Z</time></trkpt><trkpt lat="45.847021" lon="11.6687779"><ele>139.0</ele><time>2026-05-02T10:19:02.226Z</time></trkpt><trkpt lat="45.8469599" lon="11.6687181"><ele>139.0</ele><time>2026-05-02T10:19:05.225Z</time></trkpt><trkpt lat="45.8469164" lon="11.668647"><ele>139.0</ele><time>2026-05-02T10:19:08.225Z</time></trkpt><trkpt lat="45.8468534" lon="11.6686726"><ele>139.0</ele><time>2026-05-02T10:19:19.226Z</time></trkpt><trkpt lat="45.8468059" lon="11.6685741"><ele>139.0</ele><time>2026-05-02T10:19:23.226Z</time></trkpt><trkpt lat="45.8467335" lon="11.6684931"><ele>139.0</ele><time>2026-05-02T10:19:26.225Z</time></trkpt><trkpt lat="45.8466632" lon="11.6684783"><ele>139.28571428571428</ele><time>2026-05-02T10:19:28.226Z</time></trkpt><trkpt lat="45.8465961" lon="11.6684638"><ele>139.57142857142858</ele><time>2026-05-02T10:19:30.225Z</time></trkpt><trkpt lat="45.8465237" lon="11.6684749"><ele>139.85714285714286</ele><time>2026-05-02T10:19:32.227Z</time></trkpt><trkpt lat="45.8464622" lon="11.6685483"><ele>140.14285714285714</ele><time>2026-05-02T10:19:35.226Z</time></trkpt><trkpt lat="45.8464718" lon="11.6686479"><ele>140.42857142857142</ele><time>2026-05-02T10:19:37.227Z</time></trkpt><trkpt lat="45.8464514" lon="11.6687541"><ele>140.71428571428572</ele><time>2026-05-02T10:19:42.226Z</time></trkpt><trkpt lat="45.8464117" lon="11.6686546"><ele>141.0</ele><time>2026-05-02T10:19:46.226Z</time></trkpt><trkpt lat="45.8464165" lon="11.6685557"><ele>141.0</ele><time>2026-05-02T10:19:48.227Z</time></trkpt><trkpt lat="45.8464111" lon="11.6684464"><ele>141.0</ele><time>2026-05-02T10:19:50.227Z</time></trkpt><trkpt lat="45.8464096" lon="11.6683355"><ele>141.0</ele><time>2026-05-02T10:19:52.226Z</time></trkpt><trkpt lat="45.8463969" lon="11.6682176"><ele>141.0</ele><time>2026-05-02T10:19:54.226Z</time></trkpt><trkpt lat="45.8463867" lon="11.6681007"><ele>141.0</ele><time>2026-05-02T10:19:56.227Z</time></trkpt><trkpt lat="45.8463652" lon="11.6679916"><ele>141.0</ele><time>2026-05-02T10:19:58.226Z</time></trkpt><trkpt lat="45.8463565" lon="11.6678992"><ele>141.0</ele><time>2026-05-02T10:20:00.226Z</time></trkpt><trkpt lat="45.8464096" lon="11.667826"><ele>141.0</ele><time>2026-05-02T10:20:04.226Z</time></trkpt><trkpt lat="45.8464959" lon="11.6678328"><ele>141.0</ele><time>2026-05-02T10:20:07.227Z</time></trkpt><trkpt lat="45.8465928" lon="11.6677903"><ele>141.0</ele><time>2026-05-02T10:20:10.227Z</time></trkpt><trkpt lat="45.8466682" lon="11.6678202"><ele>141.0</ele><time>2026-05-02T10:20:12.226Z</time></trkpt><trkpt lat="45.8467475" lon="11.6678732"><ele>141.0</ele><time>2026-05-02T10:20:14.227Z</time></trkpt><trkpt lat="45.8468275" lon="11.6679384"><ele>141.4</ele><time>2026-05-02T10:20:16.227Z</time></trkpt><trkpt lat="45.846918" lon="11.6680075"><ele>141.8</ele><time>2026-05-02T10:20:18.227Z</time></trkpt><trkpt lat="45.8469835" lon="11.6680706"><ele>142.20000000000002</ele><time>2026-05-02T10:20:20.227Z</time></trkpt><trkpt lat="45.8470486" lon="11.6681641"><ele>142.6</ele><time>2026-05-02T10:20:22.227Z</time></trkpt><trkpt lat="45.8471062" lon="11.6682746"><ele>143.0</ele><time>2026-05-02T10:20:24.227Z</time></trkpt><trkpt lat="45.8471506" lon="11.6683888"><ele>143.0</ele><time>2026-05-02T10:20:26.227Z</time></trkpt><trkpt lat="45.8471945" lon="11.6684773"><ele>143.0</ele><time>2026-05-02T10:20:28.227Z</time></trkpt><trkpt lat="45.8472383" lon="11.6685641"><ele>143.0</ele><time>2026-05-02T10:20:30.227Z</time></trkpt><trkpt lat="45.8472715" lon="11.6686523"><ele>143.0</ele><time>2026-05-02T10:20:32.227Z</time></trkpt><trkpt lat="45.8473435" lon="11.6687476"><ele>143.0</ele><time>2026-05-02T10:20:35.227Z</time></trkpt><trkpt lat="45.8474204" lon="11.6687938"><ele>143.0</ele><time>2026-05-02T10:20:37.226Z</time></trkpt><trkpt lat="45.847496" lon="11.6688342"><ele>142.33333333333331</ele><time>2026-05-02T10:20:39.227Z</time></trkpt><trkpt lat="45.8475663" lon="11.6688376"><ele>141.66666666666666</ele><time>2026-05-02T10:20:41.227Z</time></trkpt><trkpt lat="45.8476406" lon="11.6688477"><ele>141.0</ele><time>2026-05-02T10:20:43.227Z</time></trkpt><trkpt lat="45.8477199" lon="11.6688694"><ele>140.33333333333334</ele><time>2026-05-02T10:20:45.227Z</time></trkpt><trkpt lat="45.8478185" lon="11.6688883"><ele>139.66666666666669</ele><time>2026-05-02T10:20:47.228Z</time></trkpt><trkpt lat="45.8479109" lon="11.6688847"><ele>139.0</ele><time>2026-05-02T10:20:49.228Z</time></trkpt><trkpt lat="45.8479994" lon="11.6688534"><ele>139.0</ele><time>2026-05-02T10:20:51.227Z</time></trkpt><trkpt lat="45.8480549" lon="11.668788"><ele>139.0</ele><time>2026-05-02T10:20:53.228Z</time></trkpt><trkpt lat="45.8481072" lon="11.6687153"><ele>139.0</ele><time>2026-05-02T10:20:55.227Z</time></trkpt><trkpt lat="45.8481738" lon="11.6686591"><ele>139.0</ele><time>2026-05-02T10:20:57.227Z</time></trkpt><trkpt lat="45.8482423" lon="11.668598"><ele>139.0</ele><time>2026-05-02T10:20:59.228Z</time></trkpt><trkpt lat="45.8483049" lon="11.6685705"><ele>139.0</ele><time>2026-05-02T10:21:01.228Z</time></trkpt><trkpt lat="45.8483754" lon="11.6685601"><ele>139.0</ele><time>2026-05-02T10:21:03.228Z</time></trkpt><trkpt lat="45.84845" lon="11.6685687"><ele>139.83333333333334</ele><time>2026-05-02T10:21:05.228Z</time></trkpt><trkpt lat="45.8485263" lon="11.668574"><ele>140.66666666666669</ele><time>2026-05-02T10:21:07.228Z</time></trkpt><trkpt lat="45.848615" lon="11.6685641"><ele>141.5</ele><time>2026-05-02T10:21:09.228Z</time></trkpt><trkpt lat="45.8487076" lon="11.6685646"><ele>142.33333333333334</ele><time>2026-05-02T10:21:11.228Z</time></trkpt><trkpt lat="45.8487977" lon="11.6685534"><ele>143.16666666666666</ele><time>2026-05-02T10:21:13.227Z</time></trkpt><trkpt lat="45.8488835" lon="11.6685346"><ele>144.0</ele><time>2026-05-02T10:21:15.228Z</time></trkpt><trkpt lat="45.8489583" lon="11.6685228"><ele>144.0</ele><time>2026-05-02T10:21:17.228Z</time></trkpt><trkpt lat="45.8490334" lon="11.6685209"><ele>144.0</ele><time>2026-05-02T10:21:19.228Z</time></trkpt><trkpt lat="45.8491104" lon="11.6685109"><ele>144.0</ele><time>2026-05-02T10:21:21.228Z</time></trkpt><trkpt lat="45.8491838" lon="11.6684906"><ele>144.0</ele><time>2026-05-02T10:21:23.227Z</time></trkpt><trkpt lat="45.8492675" lon="11.6684627"><ele>144.0</ele><time>2026-05-02T10:21:25.228Z</time></trkpt><trkpt lat="45.8493446" lon="11.6684339"><ele>144.0</ele><time>2026-05-02T10:21:27.227Z</time></trkpt><trkpt lat="45.8494249" lon="11.6684134"><ele>143.66666666666666</ele><time>2026-05-02T10:21:29.228Z</time></trkpt><trkpt lat="45.8494966" lon="11.6683971"><ele>143.33333333333334</ele><time>2026-05-02T10:21:31.228Z</time></trkpt><trkpt lat="45.8495689" lon="11.6683943"><ele>143.0</ele><time>2026-05-02T10:21:33.227Z</time></trkpt><trkpt lat="45.8496447" lon="11.6684008"><ele>142.66666666666669</ele><time>2026-05-02T10:21:35.228Z</time></trkpt><trkpt lat="45.8497259" lon="11.6683973"><ele>142.33333333333334</ele><time>2026-05-02T10:21:37.228Z</time></trkpt><trkpt lat="45.8498172" lon="11.6683807"><ele>142.0</ele><time>2026-05-02T10:21:39.228Z</time></trkpt><trkpt lat="45.8499058" lon="11.6683692"><ele>142.0</ele><time>2026-05-02T10:21:41.228Z</time></trkpt><trkpt lat="45.8499824" lon="11.6683437"><ele>142.0</ele><time>2026-05-02T10:21:43.228Z</time></trkpt><trkpt lat="45.8500582" lon="11.6683142"><ele>142.0</ele><time>2026-05-02T10:21:45.228Z</time></trkpt><trkpt lat="45.8501205" lon="11.668274"><ele>142.0</ele><time>2026-05-02T10:21:47.228Z</time></trkpt><trkpt lat="45.8501765" lon="11.6682208"><ele>142.0</ele><time>2026-05-02T10:21:49.228Z</time></trkpt><trkpt lat="45.8502359" lon="11.6681737"><ele>142.0</ele><time>2026-05-02T10:21:51.228Z</time></trkpt><trkpt lat="45.8502943" lon="11.6681316"><ele>142.0</ele><time>2026-05-02T10:21:53.228Z</time></trkpt><trkpt lat="45.8503591" lon="11.6680865"><ele>141.71428571428572</ele><time>2026-05-02T10:21:55.228Z</time></trkpt><trkpt lat="45.8504238" lon="11.6680387"><ele>141.42857142857142</ele><time>2026-05-02T10:21:57.228Z</time></trkpt><trkpt lat="45.8505007" lon="11.6679917"><ele>141.14285714285714</ele><time>2026-05-02T10:21:59.227Z</time></trkpt><trkpt lat="45.8505624" lon="11.6679573"><ele>140.85714285714286</ele><time>2026-05-02T10:22:01.227Z</time></trkpt><trkpt lat="45.8506233" lon="11.6679195"><ele>140.57142857142856</ele><time>2026-05-02T10:22:03.229Z</time></trkpt><trkpt lat="45.8506924" lon="11.6678648"><ele>140.28571428571428</ele><time>2026-05-02T10:22:05.228Z</time></trkpt><trkpt lat="45.8507584" lon="11.667807"><ele>140.0</ele><time>2026-05-02T10:22:07.228Z</time></trkpt><trkpt lat="45.8508116" lon="11.6677522"><ele>140.57142857142858</ele><time>2026-05-02T10:22:09.229Z</time></trkpt><trkpt lat="45.8508637" lon="11.6676779"><ele>141.14285714285714</ele><time>2026-05-02T10:22:12.229Z</time></trkpt><trkpt lat="45.8509233" lon="11.6676341"><ele>141.71428571428572</ele><time>2026-05-02T10:22:15.229Z</time></trkpt><trkpt lat="45.8509757" lon="11.6675572"><ele>142.28571428571428</ele><time>2026-05-02T10:22:18.228Z</time></trkpt><trkpt lat="45.8510256" lon="11.6674916"><ele>142.85714285714286</ele><time>2026-05-02T10:22:20.229Z</time></trkpt><trkpt lat="45.8510801" lon="11.6674396"><ele>143.42857142857144</ele><time>2026-05-02T10:22:22.229Z</time></trkpt><trkpt lat="45.851137" lon="11.6673886"><ele>144.0</ele><time>2026-05-02T10:22:24.228Z</time></trkpt><trkpt lat="45.8511875" lon="11.6673188"><ele>144.5</ele><time>2026-05-02T10:22:26.229Z</time></trkpt><trkpt lat="45.8512503" lon="11.6672479"><ele>145.0</ele><time>2026-05-02T10:22:28.229Z</time></trkpt><trkpt lat="45.8513046" lon="11.6671854"><ele>145.5</ele><time>2026-05-02T10:22:30.228Z</time></trkpt><trkpt lat="45.8513807" lon="11.6671287"><ele>146.0</ele><time>2026-05-02T10:22:33.229Z</time></trkpt><trkpt lat="45.8514406" lon="11.6670747"><ele>146.5</ele><time>2026-05-02T10:22:35.229Z</time></trkpt><trkpt lat="45.8515006" lon="11.6670018"><ele>147.0</ele><time>2026-05-02T10:22:37.229Z</time></trkpt><trkpt lat="45.8515715" lon="11.6669205"><ele>147.0</ele><time>2026-05-02T10:22:39.229Z</time></trkpt><trkpt lat="45.8516256" lon="11.6668626"><ele>147.0</ele><time>2026-05-02T10:22:41.229Z</time></trkpt><trkpt lat="45.8516826" lon="11.6668057"><ele>147.0</ele><time>2026-05-02T10:22:43.229Z</time></trkpt><trkpt lat="45.8517399" lon="11.6667527"><ele>147.0</ele><time>2026-05-02T10:22:45.229Z</time></trkpt><trkpt lat="45.8517892" lon="11.6666899"><ele>147.0</ele><time>2026-05-02T10:22:47.229Z</time></trkpt><trkpt lat="45.8518667" lon="11.6666187"><ele>147.0</ele><time>2026-05-02T10:22:50.228Z</time></trkpt><trkpt lat="45.8519522" lon="11.6665399"><ele>146.85714285714286</ele><time>2026-05-02T10:22:53.229Z</time></trkpt><trkpt lat="45.8520272" lon="11.6664541"><ele>146.71428571428572</ele><time>2026-05-02T10:22:55.229Z</time></trkpt><trkpt lat="45.852077" lon="11.6663912"><ele>146.57142857142856</ele><time>2026-05-02T10:22:57.229Z</time></trkpt><trkpt lat="45.8521212" lon="11.666323"><ele>146.42857142857144</ele><time>2026-05-02T10:22:59.229Z</time></trkpt><trkpt lat="45.8521794" lon="11.666241"><ele>146.28571428571428</ele><time>2026-05-02T10:23:02.229Z</time></trkpt><trkpt lat="45.8522288" lon="11.6661706"><ele>146.14285714285714</ele><time>2026-05-02T10:23:05.228Z</time></trkpt><trkpt lat="45.8522711" lon="11.6661021"><ele>146.0</ele><time>2026-05-02T10:23:07.229Z</time></trkpt><trkpt lat="45.8523516" lon="11.6660335"><ele>146.0</ele><time>2026-05-02T10:23:10.229Z</time></trkpt><trkpt lat="45.8524185" lon="11.665982"><ele>146.0</ele><time>2026-05-02T10:23:12.228Z</time></trkpt><trkpt lat="45.8524862" lon="11.6659092"><ele>146.0</ele><time>2026-05-02T10:23:14.229Z</time></trkpt><trkpt lat="45.8525685" lon="11.6658363"><ele>146.0</ele><time>2026-05-02T10:23:17.228Z</time></trkpt><trkpt lat="45.8526311" lon="11.6657955"><ele>146.0</ele><time>2026-05-02T10:23:19.23Z</time></trkpt><trkpt lat="45.8526916" lon="11.6657659"><ele>146.0</ele><time>2026-05-02T10:23:21.23Z</time></trkpt><trkpt lat="45.8527665" lon="11.6657026"><ele>146.16666666666666</ele><time>2026-05-02T10:23:24.23Z</time></trkpt><trkpt lat="45.8527967" lon="11.6656097"><ele>146.33333333333331</ele><time>2026-05-02T10:23:26.23Z</time></trkpt><trkpt lat="45.8527851" lon="11.6655125"><ele>146.5</ele><time>2026-05-02T10:23:30.229Z</time></trkpt><trkpt lat="45.8527376" lon="11.6654257"><ele>146.66666666666666</ele><time>2026-05-02T10:23:34.23Z</time></trkpt><trkpt lat="45.8527005" lon="11.6653048"><ele>146.83333333333334</ele><time>2026-05-02T10:23:37.23Z</time></trkpt><trkpt lat="45.8526652" lon="11.6652035"><ele>147.0</ele><time>2026-05-02T10:23:40.229Z</time></trkpt><trkpt lat="45.8526301" lon="11.6651098"><ele>147.16666666666666</ele><time>2026-05-02T10:23:43.23Z</time></trkpt><trkpt lat="45.852595" lon="11.6650112"><ele>147.33333333333334</ele><time>2026-05-02T10:23:46.23Z</time></trkpt><trkpt lat="45.8526346" lon="11.6649404"><ele>147.5</ele><time>2026-05-02T10:24:12.229Z</time></trkpt><trkpt lat="45.8527152" lon="11.6648818"><ele>147.66666666666669</ele><time>2026-05-02T10:24:16.23Z</time></trkpt><trkpt lat="45.8527893" lon="11.6648394"><ele>147.83333333333334</ele><time>2026-05-02T10:24:19.23Z</time></trkpt><trkpt lat="45.8528686" lon="11.6647778"><ele>148.0</ele><time>2026-05-02T10:24:22.229Z</time></trkpt><trkpt lat="45.8529259" lon="11.6647172"><ele>148.0</ele><time>2026-05-02T10:24:25.23Z</time></trkpt><trkpt lat="45.852979" lon="11.6646142"><ele>148.0</ele><time>2026-05-02T10:24:28.23Z</time></trkpt><trkpt lat="45.8530272" lon="11.6645552"><ele>148.0</ele><time>2026-05-02T10:24:30.23Z</time></trkpt><trkpt lat="45.8530709" lon="11.6644725"><ele>148.0</ele><time>2026-05-02T10:24:32.23Z</time></trkpt><trkpt lat="45.8531138" lon="11.6643918"><ele>148.0</ele><time>2026-05-02T10:24:34.23Z</time></trkpt><trkpt lat="45.8531558" lon="11.6642908"><ele>148.0</ele><time>2026-05-02T10:24:36.231Z</time></trkpt><trkpt lat="45.8531872" lon="11.6641893"><ele>148.16666666666669</ele><time>2026-05-02T10:24:38.23Z</time></trkpt><trkpt lat="45.8532293" lon="11.664097"><ele>148.33333333333334</ele><time>2026-05-02T10:24:40.231Z</time></trkpt><trkpt lat="45.8532797" lon="11.6640375"><ele>148.5</ele><time>2026-05-02T10:24:42.231Z</time></trkpt><trkpt lat="45.8533397" lon="11.6639912"><ele>148.66666666666666</ele><time>2026-05-02T10:24:44.231Z</time></trkpt><trkpt lat="45.8534214" lon="11.6639025"><ele>148.83333333333331</ele><time>2026-05-02T10:24:46.231Z</time></trkpt><trkpt lat="45.8534927" lon="11.6638326"><ele>149.0</ele><time>2026-05-02T10:24:48.23Z</time></trkpt><trkpt lat="45.8535588" lon="11.663785"><ele>148.33333333333331</ele><time>2026-05-02T10:24:50.23Z</time></trkpt><trkpt lat="45.8536182" lon="11.6637441"><ele>147.66666666666666</ele><time>2026-05-02T10:24:52.231Z</time></trkpt><trkpt lat="45.8536927" lon="11.6636828"><ele>147.0</ele><time>2026-05-02T10:24:54.182Z</time></trkpt><trkpt lat="45.8537585" lon="11.6636401"><ele>146.33333333333334</ele><time>2026-05-02T10:24:56.197Z</time></trkpt><trkpt lat="45.8538264" lon="11.6635831"><ele>145.66666666666669</ele><time>2026-05-02T10:24:58.259Z</time></trkpt><trkpt lat="45.8538978" lon="11.6635167"><ele>145.0</ele><time>2026-05-02T10:25:00.273Z</time></trkpt><trkpt lat="45.8539743" lon="11.6634547"><ele>145.4</ele><time>2026-05-02T10:25:02.287Z</time></trkpt><trkpt lat="45.8540551" lon="11.6633953"><ele>145.8</ele><time>2026-05-02T10:25:04.301Z</time></trkpt><trkpt lat="45.8541437" lon="11.6633305"><ele>146.2</ele><time>2026-05-02T10:25:06.23Z</time></trkpt><trkpt lat="45.8542314" lon="11.663263"><ele>146.6</ele><time>2026-05-02T10:25:08.231Z</time></trkpt><trkpt lat="45.8543232" lon="11.6631829"><ele>147.0</ele><time>2026-05-02T10:25:10.231Z</time></trkpt><trkpt lat="45.8544128" lon="11.6631051"><ele>147.0</ele><time>2026-05-02T10:25:12.231Z</time></trkpt><trkpt lat="45.8545061" lon="11.6630222"><ele>147.0</ele><time>2026-05-02T10:25:14.231Z</time></trkpt><trkpt lat="45.8546094" lon="11.6629399"><ele>147.0</ele><time>2026-05-02T10:25:16.23Z</time></trkpt><trkpt lat="45.8546704" lon="11.6629106"><ele>147.0</ele><time>2026-05-02T10:25:17.231Z</time></trkpt><trkpt lat="45.8547333" lon="11.6628784"><ele>147.0</ele><time>2026-05-02T10:25:18.231Z</time></trkpt><trkpt lat="45.8547958" lon="11.6628359"><ele>147.0</ele><time>2026-05-02T10:25:19.23Z</time></trkpt><trkpt lat="45.854858" lon="11.6627873"><ele>146.83333333333334</ele><time>2026-05-02T10:25:20.23Z</time></trkpt><trkpt lat="45.8549238" lon="11.6627314"><ele>146.66666666666666</ele><time>2026-05-02T10:25:21.231Z</time></trkpt><trkpt lat="45.8549956" lon="11.662672"><ele>146.5</ele><time>2026-05-02T10:25:22.23Z</time></trkpt><trkpt lat="45.8550658" lon="11.6626169"><ele>146.33333333333331</ele><time>2026-05-02T10:25:23.231Z</time></trkpt><trkpt lat="45.8551357" lon="11.6625628"><ele>146.16666666666666</ele><time>2026-05-02T10:25:24.231Z</time></trkpt><trkpt lat="45.8551973" lon="11.6625167"><ele>146.0</ele><time>2026-05-02T10:25:25.23Z</time></trkpt><trkpt lat="45.85526" lon="11.662479"><ele>146.0</ele><time>2026-05-02T10:25:26.231Z</time></trkpt><trkpt lat="45.8553174" lon="11.6624406"><ele>146.0</ele><time>2026-05-02T10:25:27.231Z</time></trkpt><trkpt lat="45.8553786" lon="11.6623952"><ele>146.0</ele><time>2026-05-02T10:25:28.231Z</time></trkpt><trkpt lat="45.8554364" lon="11.6623515"><ele>146.0</ele><time>2026-05-02T10:25:29.231Z</time></trkpt><trkpt lat="45.8554992" lon="11.6623038"><ele>146.0</ele><time>2026-05-02T10:25:30.231Z</time></trkpt><trkpt lat="45.8555622" lon="11.6622535"><ele>146.0</ele><time>2026-05-02T10:25:31.231Z</time></trkpt><trkpt lat="45.8556229" lon="11.6622062"><ele>146.0</ele><time>2026-05-02T10:25:32.231Z</time></trkpt><trkpt lat="45.8556826" lon="11.6621569"><ele>146.0</ele><time>2026-05-02T10:25:33.231Z</time></trkpt><trkpt lat="45.8557403" lon="11.6621071"><ele>146.0</ele><time>2026-05-02T10:25:34.231Z</time></trkpt><trkpt lat="45.8557969" lon="11.6620628"><ele>146.0</ele><time>2026-05-02T10:25:35.231Z</time></trkpt><trkpt lat="45.8558535" lon="11.6620187"><ele>146.0</ele><time>2026-05-02T10:25:36.231Z</time></trkpt><trkpt lat="45.8559117" lon="11.6619697"><ele>146.0</ele><time>2026-05-02T10:25:37.23Z</time></trkpt><trkpt lat="45.8559677" lon="11.6619212"><ele>146.0</ele><time>2026-05-02T10:25:38.231Z</time></trkpt><trkpt lat="45.8560258" lon="11.6618791"><ele>146.0</ele><time>2026-05-02T10:25:39.231Z</time></trkpt><trkpt lat="45.8560828" lon="11.6618369"><ele>146.6</ele><time>2026-05-02T10:25:40.231Z</time></trkpt><trkpt lat="45.8561606" lon="11.661739"><ele>147.2</ele><time>2026-05-02T10:25:42.231Z</time></trkpt><trkpt lat="45.8562209" lon="11.6615925"><ele>147.8</ele><time>2026-05-02T10:25:44.231Z</time></trkpt><trkpt lat="45.8562666" lon="11.6614659"><ele>148.4</ele><time>2026-05-02T10:25:46.231Z</time></trkpt><trkpt lat="45.8562998" lon="11.6613447"><ele>149.0</ele><time>2026-05-02T10:25:48.231Z</time></trkpt><trkpt lat="45.8563374" lon="11.6612128"><ele>148.6</ele><time>2026-05-02T10:25:50.23Z</time></trkpt><trkpt lat="45.8563741" lon="11.6610848"><ele>148.2</ele><time>2026-05-02T10:25:52.23Z</time></trkpt><trkpt lat="45.8564136" lon="11.6609735"><ele>147.79999999999998</ele><time>2026-05-02T10:25:54.232Z</time></trkpt><trkpt lat="45.8564559" lon="11.660847"><ele>147.4</ele><time>2026-05-02T10:25:56.232Z</time></trkpt><trkpt lat="45.8565007" lon="11.6607285"><ele>147.0</ele><time>2026-05-02T10:25:58.232Z</time></trkpt><trkpt lat="45.8565359" lon="11.6606055"><ele>147.0</ele><time>2026-05-02T10:26:00.232Z</time></trkpt><trkpt lat="45.8565667" lon="11.6604895"><ele>147.0</ele><time>2026-05-02T10:26:02.231Z</time></trkpt><trkpt lat="45.8566076" lon="11.660363"><ele>147.0</ele><time>2026-05-02T10:26:04.232Z</time></trkpt><trkpt lat="45.8566376" lon="11.6602452"><ele>147.0</ele><time>2026-05-02T10:26:06.231Z</time></trkpt><trkpt lat="45.8566713" lon="11.6601339"><ele>147.0</ele><time>2026-05-02T10:26:08.232Z</time></trkpt><trkpt lat="45.8567165" lon="11.660019"><ele>147.0</ele><time>2026-05-02T10:26:10.232Z</time></trkpt><trkpt lat="45.8567538" lon="11.6598971"><ele>147.33333333333334</ele><time>2026-05-02T10:26:12.232Z</time></trkpt><trkpt lat="45.8567804" lon="11.6597732"><ele>147.66666666666666</ele><time>2026-05-02T10:26:14.232Z</time></trkpt><trkpt lat="45.8568232" lon="11.6596701"><ele>148.0</ele><time>2026-05-02T10:26:16.232Z</time></trkpt><trkpt lat="45.8568587" lon="11.6595632"><ele>148.33333333333331</ele><time>2026-05-02T10:26:18.232Z</time></trkpt><trkpt lat="45.8568978" lon="11.6594554"><ele>148.66666666666666</ele><time>2026-05-02T10:26:20.231Z</time></trkpt><trkpt lat="45.8569405" lon="11.6593773"><ele>149.0</ele><time>2026-05-02T10:26:22.232Z</time></trkpt><trkpt lat="45.8570043" lon="11.6592946"><ele>149.42857142857142</ele><time>2026-05-02T10:26:24.232Z</time></trkpt><trkpt lat="45.8570675" lon="11.6592299"><ele>149.85714285714283</ele><time>2026-05-02T10:26:26.232Z</time></trkpt><trkpt lat="45.8571346" lon="11.6591692"><ele>150.28571428571428</ele><time>2026-05-02T10:26:28.231Z</time></trkpt><trkpt lat="45.8571986" lon="11.6591312"><ele>150.71428571428572</ele><time>2026-05-02T10:26:30.232Z</time></trkpt><trkpt lat="45.8572796" lon="11.6590934"><ele>151.14285714285717</ele><time>2026-05-02T10:26:32.231Z</time></trkpt><trkpt lat="45.8573387" lon="11.6590608"><ele>151.57142857142856</ele><time>2026-05-02T10:26:34.231Z</time></trkpt><trkpt lat="45.8574018" lon="11.6590154"><ele>152.0</ele><time>2026-05-02T10:26:36.232Z</time></trkpt><trkpt lat="45.8574936" lon="11.6589593"><ele>152.0</ele><time>2026-05-02T10:26:38.232Z</time></trkpt><trkpt lat="45.857599" lon="11.6589061"><ele>152.0</ele><time>2026-05-02T10:26:40.232Z</time></trkpt><trkpt lat="45.8577157" lon="11.6588652"><ele>152.0</ele><time>2026-05-02T10:26:42.232Z</time></trkpt><trkpt lat="45.8577786" lon="11.6588505"><ele>152.0</ele><time>2026-05-02T10:26:43.232Z</time></trkpt><trkpt lat="45.8578425" lon="11.658835"><ele>152.0</ele><time>2026-05-02T10:26:44.232Z</time></trkpt><trkpt lat="45.8579605" lon="11.6587958"><ele>152.0</ele><time>2026-05-02T10:26:46.232Z</time></trkpt><trkpt lat="45.8580762" lon="11.6587498"><ele>152.0</ele><time>2026-05-02T10:26:48.232Z</time></trkpt><trkpt lat="45.8581838" lon="11.6587271"><ele>152.0</ele><time>2026-05-02T10:26:50.231Z</time></trkpt><trkpt lat="45.858299" lon="11.6586827"><ele>152.0</ele><time>2026-05-02T10:26:52.232Z</time></trkpt><trkpt lat="45.8584045" lon="11.6586474"><ele>151.79999999999998</ele><time>2026-05-02T10:26:54.232Z</time></trkpt><trkpt lat="45.8585037" lon="11.6586229"><ele>151.6</ele><time>2026-05-02T10:26:56.232Z</time></trkpt><trkpt lat="45.8586195" lon="11.6586111"><ele>151.39999999999998</ele><time>2026-05-02T10:26:58.232Z</time></trkpt><trkpt lat="45.8587319" lon="11.658598"><ele>151.2</ele><time>2026-05-02T10:27:00.231Z</time></trkpt><trkpt lat="45.8588412" lon="11.6585819"><ele>151.0</ele><time>2026-05-02T10:27:02.232Z</time></trkpt><trkpt lat="45.8589453" lon="11.6585597"><ele>151.0</ele><time>2026-05-02T10:27:04.232Z</time></trkpt><trkpt lat="45.8590423" lon="11.6585281"><ele>151.0</ele><time>2026-05-02T10:27:06.231Z</time></trkpt><trkpt lat="45.85914" lon="11.6584977"><ele>151.0</ele><time>2026-05-02T10:27:08.232Z</time></trkpt><trkpt lat="45.8592253" lon="11.6584756"><ele>151.0</ele><time>2026-05-02T10:27:10.233Z</time></trkpt><trkpt lat="45.8593117" lon="11.6584649"><ele>151.0</ele><time>2026-05-02T10:27:12.233Z</time></trkpt><trkpt lat="45.8593973" lon="11.658443"><ele>150.83333333333334</ele><time>2026-05-02T10:27:14.233Z</time></trkpt><trkpt lat="45.8594808" lon="11.6584279"><ele>150.66666666666669</ele><time>2026-05-02T10:27:16.232Z</time></trkpt><trkpt lat="45.8595661" lon="11.6584274"><ele>150.5</ele><time>2026-05-02T10:27:18.232Z</time></trkpt><trkpt lat="45.8596539" lon="11.6584273"><ele>150.33333333333334</ele><time>2026-05-02T10:27:20.232Z</time></trkpt><trkpt lat="45.8597315" lon="11.6584111"><ele>150.16666666666666</ele><time>2026-05-02T10:27:22.233Z</time></trkpt><trkpt lat="45.8598052" lon="11.6584177"><ele>150.0</ele><time>2026-05-02T10:27:24.232Z</time></trkpt><trkpt lat="45.8598817" lon="11.6584317"><ele>150.0</ele><time>2026-05-02T10:27:26.233Z</time></trkpt><trkpt lat="45.8599694" lon="11.6584163"><ele>150.0</ele><time>2026-05-02T10:27:28.233Z</time></trkpt><trkpt lat="45.8600602" lon="11.6584083"><ele>150.0</ele><time>2026-05-02T10:27:30.233Z</time></trkpt><trkpt lat="45.8601504" lon="11.6583901"><ele>150.0</ele><time>2026-05-02T10:27:32.233Z</time></trkpt><trkpt lat="45.8602481" lon="11.6583805"><ele>150.0</ele><time>2026-05-02T10:27:34.233Z</time></trkpt><trkpt lat="45.8603241" lon="11.6583721"><ele>150.0</ele><time>2026-05-02T10:27:36.233Z</time></trkpt><trkpt lat="45.8604037" lon="11.6582938"><ele>150.83333333333334</ele><time>2026-05-02T10:27:39.233Z</time></trkpt><trkpt lat="45.8604452" lon="11.6581836"><ele>151.66666666666666</ele><time>2026-05-02T10:27:41.233Z</time></trkpt><trkpt lat="45.8604588" lon="11.6580844"><ele>152.5</ele><time>2026-05-02T10:27:43.233Z</time></trkpt><trkpt lat="45.8604692" lon="11.657962"><ele>153.33333333333331</ele><time>2026-05-02T10:27:46.233Z</time></trkpt><trkpt lat="45.8604894" lon="11.6578619"><ele>154.16666666666666</ele><time>2026-05-02T10:27:49.233Z</time></trkpt><trkpt lat="45.8604883" lon="11.6577521"><ele>155.0</ele><time>2026-05-02T10:27:52.233Z</time></trkpt><trkpt lat="45.86047" lon="11.6576533"><ele>156.57142857142858</ele><time>2026-05-02T10:27:56.232Z</time></trkpt><trkpt lat="45.8604644" lon="11.6575606"><ele>158.14285714285714</ele><time>2026-05-02T10:27:58.232Z</time></trkpt><trkpt lat="45.8604591" lon="11.6574703"><ele>159.71428571428572</ele><time>2026-05-02T10:28:00.233Z</time></trkpt><trkpt lat="45.8604473" lon="11.6573814"><ele>161.28571428571428</ele><time>2026-05-02T10:28:02.232Z</time></trkpt><trkpt lat="45.8604125" lon="11.6572969"><ele>162.85714285714286</ele><time>2026-05-02T10:28:05.233Z</time></trkpt><trkpt lat="45.8603546" lon="11.6572411"><ele>164.42857142857142</ele><time>2026-05-02T10:28:09.232Z</time></trkpt><trkpt lat="45.86028" lon="11.6572045"><ele>166.0</ele><time>2026-05-02T10:28:12.232Z</time></trkpt><trkpt lat="45.8602221" lon="11.6571514"><ele>166.0</ele><time>2026-05-02T10:28:15.232Z</time></trkpt><trkpt lat="45.8601727" lon="11.6570687"><ele>166.0</ele><time>2026-05-02T10:28:18.232Z</time></trkpt><trkpt lat="45.860125" lon="11.6569929"><ele>166.0</ele><time>2026-05-02T10:28:22.234Z</time></trkpt><trkpt lat="45.8600668" lon="11.6569369"><ele>166.0</ele><time>2026-05-02T10:28:26.309Z</time></trkpt><trkpt lat="45.8599897" lon="11.6568996"><ele>166.0</ele><time>2026-05-02T10:28:30.236Z</time></trkpt><trkpt lat="45.8599143" lon="11.6568909"><ele>166.0</ele><time>2026-05-02T10:28:34.263Z</time></trkpt><trkpt lat="45.8598634" lon="11.6569543"><ele>166.0</ele><time>2026-05-02T10:28:37.285Z</time></trkpt><trkpt lat="45.8598297" lon="11.6570473"><ele>164.85714285714286</ele><time>2026-05-02T10:28:40.305Z</time></trkpt><trkpt lat="45.8597829" lon="11.6571173"><ele>163.71428571428572</ele><time>2026-05-02T10:28:43.234Z</time></trkpt><trkpt lat="45.8597398" lon="11.6571883"><ele>162.57142857142858</ele><time>2026-05-02T10:28:46.245Z</time></trkpt><trkpt lat="45.8596894" lon="11.6572671"><ele>161.42857142857144</ele><time>2026-05-02T10:28:49.266Z</time></trkpt><trkpt lat="45.8596325" lon="11.6573141"><ele>160.28571428571428</ele><time>2026-05-02T10:28:52.287Z</time></trkpt><trkpt lat="45.8595795" lon="11.6573952"><ele>159.14285714285717</ele><time>2026-05-02T10:28:56.315Z</time></trkpt><trkpt lat="45.8595247" lon="11.6574525"><ele>158.0</ele><time>2026-05-02T10:29:00.242Z</time></trkpt><trkpt lat="45.8594599" lon="11.6575184"><ele>158.0</ele><time>2026-05-02T10:29:04.269Z</time></trkpt><trkpt lat="45.8594009" lon="11.657588"><ele>158.0</ele><time>2026-05-02T10:29:08.207Z</time></trkpt><trkpt lat="45.8593451" lon="11.6576565"><ele>158.0</ele><time>2026-05-02T10:29:12.234Z</time></trkpt><trkpt lat="45.8592841" lon="11.6577374"><ele>158.0</ele><time>2026-05-02T10:29:16.234Z</time></trkpt><trkpt lat="45.859226" lon="11.6578009"><ele>158.0</ele><time>2026-05-02T10:29:20.233Z</time></trkpt><trkpt lat="45.8591707" lon="11.6578801"><ele>158.0</ele><time>2026-05-02T10:29:24.234Z</time></trkpt><trkpt lat="45.8591075" lon="11.6579187"><ele>157.00000000000003</ele><time>2026-05-02T10:29:28.234Z</time></trkpt><trkpt lat="45.8590268" lon="11.6579387"><ele>156.0</ele><time>2026-05-02T10:29:32.234Z</time></trkpt><trkpt lat="45.8589578" lon="11.6579552"><ele>155.0</ele><time>2026-05-02T10:29:36.234Z</time></trkpt><trkpt lat="45.8588927" lon="11.657975"><ele>154.0</ele><time>2026-05-02T10:29:40.235Z</time></trkpt><trkpt lat="45.858829" lon="11.6579874"><ele>153.0</ele><time>2026-05-02T10:29:44.235Z</time></trkpt><trkpt lat="45.8587518" lon="11.6580171"><ele>152.00000000000003</ele><time>2026-05-02T10:29:48.235Z</time></trkpt><trkpt lat="45.8586743" lon="11.6580433"><ele>151.0</ele><time>2026-05-02T10:29:52.235Z</time></trkpt><trkpt lat="45.8586054" lon="11.6580477"><ele>151.0</ele><time>2026-05-02T10:29:56.235Z</time></trkpt><trkpt lat="45.8585399" lon="11.6580172"><ele>151.0</ele><time>2026-05-02T10:30:00.235Z</time></trkpt><trkpt lat="45.8586121" lon="11.6579621"><ele>151.0</ele><time>2026-05-02T10:30:10.235Z</time></trkpt></trkseg><trkseg><trkpt lat="45.8586286" lon="11.6578785"><ele>151.0</ele><time>2026-05-02T10:46:02.26Z</time></trkpt><trkpt lat="45.8586942" lon="11.6578639"><ele>151.0</ele><time>2026-05-02T10:46:05.298Z</time></trkpt><trkpt lat="45.8587786" lon="11.6578653"><ele>151.0</ele><time>2026-05-02T10:46:07.246Z</time></trkpt><trkpt lat="45.8588651" lon="11.6578664"><ele>151.0</ele><time>2026-05-02T10:46:10.247Z</time></trkpt><trkpt lat="45.8589363" lon="11.6578453"><ele>151.0</ele><time>2026-05-02T10:46:12.247Z</time></trkpt><trkpt lat="45.8590091" lon="11.6578146"><ele>151.0</ele><time>2026-05-02T10:46:14.246Z</time></trkpt><trkpt lat="45.859082" lon="11.6577747"><ele>152.16666666666669</ele><time>2026-05-02T10:46:16.247Z</time></trkpt><trkpt lat="45.8591522" lon="11.6577258"><ele>153.33333333333334</ele><time>2026-05-02T10:46:18.247Z</time></trkpt><trkpt lat="45.8592256" lon="11.6576525"><ele>154.5</ele><time>2026-05-02T10:46:20.247Z</time></trkpt><trkpt lat="45.8592814" lon="11.6575759"><ele>155.66666666666666</ele><time>2026-05-02T10:46:22.246Z</time></trkpt><trkpt lat="45.8593279" lon="11.6574924"><ele>156.83333333333331</ele><time>2026-05-02T10:46:24.247Z</time></trkpt><trkpt lat="45.8593631" lon="11.6574098"><ele>158.0</ele><time>2026-05-02T10:46:26.247Z</time></trkpt><trkpt lat="45.8593979" lon="11.6573341"><ele>158.00000000000003</ele><time>2026-05-02T10:46:28.246Z</time></trkpt><trkpt lat="45.8594328" lon="11.6572478"><ele>158.0</ele><time>2026-05-02T10:46:30.247Z</time></trkpt><trkpt lat="45.859467" lon="11.6571613"><ele>158.0</ele><time>2026-05-02T10:46:32.247Z</time></trkpt><trkpt lat="45.8595079" lon="11.6570678"><ele>158.0</ele><time>2026-05-02T10:46:34.248Z</time></trkpt><trkpt lat="45.8595476" lon="11.6569781"><ele>158.0</ele><time>2026-05-02T10:46:36.247Z</time></trkpt><trkpt lat="45.8595894" lon="11.6568835"><ele>158.00000000000003</ele><time>2026-05-02T10:46:38.247Z</time></trkpt><trkpt lat="45.8596294" lon="11.6568001"><ele>158.0</ele><time>2026-05-02T10:46:40.248Z</time></trkpt><trkpt lat="45.8596754" lon="11.6567338"><ele>159.85714285714286</ele><time>2026-05-02T10:46:42.248Z</time></trkpt><trkpt lat="45.8597322" lon="11.6566891"><ele>161.71428571428572</ele><time>2026-05-02T10:46:44.248Z</time></trkpt><trkpt lat="45.8597932" lon="11.6566457"><ele>163.57142857142856</ele><time>2026-05-02T10:46:46.247Z</time></trkpt><trkpt lat="45.8598595" lon="11.6566162"><ele>165.42857142857144</ele><time>2026-05-02T10:46:48.248Z</time></trkpt><trkpt lat="45.859939" lon="11.6565999"><ele>167.28571428571428</ele><time>2026-05-02T10:46:50.247Z</time></trkpt><trkpt lat="45.8600022" lon="11.6565859"><ele>169.14285714285714</ele><time>2026-05-02T10:46:52.247Z</time></trkpt><trkpt lat="45.8600814" lon="11.656539"><ele>171.0</ele><time>2026-05-02T10:46:55.247Z</time></trkpt><trkpt lat="45.8601665" lon="11.6565166"><ele>171.16666666666666</ele><time>2026-05-02T10:46:58.248Z</time></trkpt><trkpt lat="45.8602464" lon="11.6564592"><ele>171.33333333333334</ele><time>2026-05-02T10:47:01.248Z</time></trkpt><trkpt lat="45.8603188" lon="11.6564132"><ele>171.5</ele><time>2026-05-02T10:47:03.248Z</time></trkpt><trkpt lat="45.8603897" lon="11.6563651"><ele>171.66666666666669</ele><time>2026-05-02T10:47:05.248Z</time></trkpt><trkpt lat="45.8604528" lon="11.6563116"><ele>171.83333333333334</ele><time>2026-05-02T10:47:07.247Z</time></trkpt><trkpt lat="45.8605111" lon="11.6562649"><ele>172.0</ele><time>2026-05-02T10:47:09.247Z</time></trkpt><trkpt lat="45.8605616" lon="11.6562055"><ele>172.0</ele><time>2026-05-02T10:47:11.247Z</time></trkpt><trkpt lat="45.8606432" lon="11.6561292"><ele>172.0</ele><time>2026-05-02T10:47:14.248Z</time></trkpt><trkpt lat="45.8606984" lon="11.6560746"><ele>172.0</ele><time>2026-05-02T10:47:16.248Z</time></trkpt><trkpt lat="45.8607725" lon="11.6560056"><ele>172.0</ele><time>2026-05-02T10:47:19.247Z</time></trkpt><trkpt lat="45.860844" lon="11.6559437"><ele>172.0</ele><time>2026-05-02T10:47:21.335Z</time></trkpt><trkpt lat="45.8609205" lon="11.6558757"><ele>172.0</ele><time>2026-05-02T10:47:24.255Z</time></trkpt><trkpt lat="45.8609715" lon="11.6558199"><ele>175.5</ele><time>2026-05-02T10:47:26.268Z</time></trkpt><trkpt lat="45.8610365" lon="11.6557286"><ele>179.0</ele><time>2026-05-02T10:47:29.289Z</time></trkpt><trkpt lat="45.8610921" lon="11.6556219"><ele>182.5</ele><time>2026-05-02T10:47:32.311Z</time></trkpt><trkpt lat="45.8611287" lon="11.6554955"><ele>186.0</ele><time>2026-05-02T10:47:35.332Z</time></trkpt><trkpt lat="45.8611356" lon="11.6553923"><ele>189.49999999999997</ele><time>2026-05-02T10:47:37.346Z</time></trkpt><trkpt lat="45.861142" lon="11.6552976"><ele>193.0</ele><time>2026-05-02T10:47:39.258Z</time></trkpt><trkpt lat="45.8611549" lon="11.6552018"><ele>193.00000000000003</ele><time>2026-05-02T10:47:41.273Z</time></trkpt><trkpt lat="45.8611711" lon="11.6551053"><ele>193.0</ele><time>2026-05-02T10:47:43.287Z</time></trkpt><trkpt lat="45.8611926" lon="11.6550077"><ele>193.0</ele><time>2026-05-02T10:47:45.301Z</time></trkpt><trkpt lat="45.8612203" lon="11.6549116"><ele>193.0</ele><time>2026-05-02T10:47:47.315Z</time></trkpt><trkpt lat="45.8612545" lon="11.6548147"><ele>193.0</ele><time>2026-05-02T10:47:49.328Z</time></trkpt><trkpt lat="45.8612981" lon="11.6547397"><ele>193.00000000000003</ele><time>2026-05-02T10:47:51.235Z</time></trkpt><trkpt lat="45.8613511" lon="11.6546848"><ele>193.0</ele><time>2026-05-02T10:47:53.256Z</time></trkpt><trkpt lat="45.8614065" lon="11.6546215"><ele>193.16666666666666</ele><time>2026-05-02T10:47:55.269Z</time></trkpt><trkpt lat="45.8614569" lon="11.6545406"><ele>193.33333333333331</ele><time>2026-05-02T10:47:57.283Z</time></trkpt><trkpt lat="45.861491" lon="11.6544306"><ele>193.5</ele><time>2026-05-02T10:47:59.297Z</time></trkpt><trkpt lat="45.861509" lon="11.6543025"><ele>193.66666666666669</ele><time>2026-05-02T10:48:01.311Z</time></trkpt><trkpt lat="45.8615284" lon="11.6541811"><ele>193.83333333333334</ele><time>2026-05-02T10:48:03.302Z</time></trkpt><trkpt lat="45.8615546" lon="11.6540586"><ele>194.0</ele><time>2026-05-02T10:48:05.338Z</time></trkpt><trkpt lat="45.8615749" lon="11.6539363"><ele>194.00000000000003</ele><time>2026-05-02T10:48:07.251Z</time></trkpt><trkpt lat="45.8615926" lon="11.6538096"><ele>194.0</ele><time>2026-05-02T10:48:09.266Z</time></trkpt><trkpt lat="45.8616098" lon="11.6536863"><ele>194.0</ele><time>2026-05-02T10:48:11.279Z</time></trkpt><trkpt lat="45.8616294" lon="11.653551"><ele>194.0</ele><time>2026-05-02T10:48:13.249Z</time></trkpt><trkpt lat="45.8616431" lon="11.6534333"><ele>194.00000000000003</ele><time>2026-05-02T10:48:15.249Z</time></trkpt><trkpt lat="45.8616628" lon="11.6533263"><ele>194.0</ele><time>2026-05-02T10:48:17.249Z</time></trkpt><trkpt lat="45.8616829" lon="11.6532193"><ele>194.00000000000003</ele><time>2026-05-02T10:48:19.249Z</time></trkpt><trkpt lat="45.8617075" lon="11.6531066"><ele>194.0</ele><time>2026-05-02T10:48:21.249Z</time></trkpt><trkpt lat="45.861733" lon="11.6529957"><ele>194.0</ele><time>2026-05-02T10:48:23.249Z</time></trkpt><trkpt lat="45.8617534" lon="11.6528996"><ele>194.0</ele><time>2026-05-02T10:48:25.249Z</time></trkpt><trkpt lat="45.8617758" lon="11.6528057"><ele>194.00000000000003</ele><time>2026-05-02T10:48:27.248Z</time></trkpt><trkpt lat="45.8618049" lon="11.6527042"><ele>194.0</ele><time>2026-05-02T10:48:29.248Z</time></trkpt><trkpt lat="45.8618213" lon="11.6526037"><ele>196.42857142857142</ele><time>2026-05-02T10:48:31.249Z</time></trkpt><trkpt lat="45.8618424" lon="11.6524838"><ele>198.85714285714286</ele><time>2026-05-02T10:48:33.249Z</time></trkpt><trkpt lat="45.8618722" lon="11.6523848"><ele>201.28571428571428</ele><time>2026-05-02T10:48:35.249Z</time></trkpt><trkpt lat="45.8619112" lon="11.6523089"><ele>203.71428571428572</ele><time>2026-05-02T10:48:37.249Z</time></trkpt><trkpt lat="45.8619557" lon="11.6522384"><ele>206.14285714285717</ele><time>2026-05-02T10:48:39.249Z</time></trkpt><trkpt lat="45.8620052" lon="11.6521792"><ele>208.57142857142858</ele><time>2026-05-02T10:48:41.249Z</time></trkpt><trkpt lat="45.8620751" lon="11.6520982"><ele>211.0</ele><time>2026-05-02T10:48:44.249Z</time></trkpt><trkpt lat="45.8621505" lon="11.652033"><ele>210.99999999999997</ele><time>2026-05-02T10:48:47.249Z</time></trkpt><trkpt lat="45.8622333" lon="11.6519641"><ele>211.0</ele><time>2026-05-02T10:48:49.249Z</time></trkpt><trkpt lat="45.8622934" lon="11.6519032"><ele>211.0</ele><time>2026-05-02T10:48:51.248Z</time></trkpt><trkpt lat="45.8623539" lon="11.6518303"><ele>211.0</ele><time>2026-05-02T10:48:53.249Z</time></trkpt><trkpt lat="45.8624121" lon="11.6517642"><ele>210.99999999999997</ele><time>2026-05-02T10:48:56.25Z</time></trkpt><trkpt lat="45.8624843" lon="11.6516904"><ele>211.0</ele><time>2026-05-02T10:48:59.25Z</time></trkpt><trkpt lat="45.862562" lon="11.6516177"><ele>213.49999999999997</ele><time>2026-05-02T10:49:02.25Z</time></trkpt><trkpt lat="45.8626179" lon="11.6515732"><ele>216.0</ele><time>2026-05-02T10:49:04.25Z</time></trkpt><trkpt lat="45.8626812" lon="11.6515135"><ele>218.5</ele><time>2026-05-02T10:49:07.25Z</time></trkpt><trkpt lat="45.862767" lon="11.6514413"><ele>221.0</ele><time>2026-05-02T10:49:10.249Z</time></trkpt><trkpt lat="45.862846" lon="11.6513847"><ele>223.49999999999997</ele><time>2026-05-02T10:49:13.25Z</time></trkpt><trkpt lat="45.8629234" lon="11.6513111"><ele>226.0</ele><time>2026-05-02T10:49:16.25Z</time></trkpt><trkpt lat="45.8629824" lon="11.651235"><ele>225.99999999999997</ele><time>2026-05-02T10:49:19.25Z</time></trkpt><trkpt lat="45.8630377" lon="11.6511724"><ele>226.0</ele><time>2026-05-02T10:49:21.25Z</time></trkpt><trkpt lat="45.8630989" lon="11.6510954"><ele>226.0</ele><time>2026-05-02T10:49:24.249Z</time></trkpt><trkpt lat="45.8631509" lon="11.6510392"><ele>226.0</ele><time>2026-05-02T10:49:26.284Z</time></trkpt><trkpt lat="45.8632136" lon="11.6509474"><ele>225.99999999999997</ele><time>2026-05-02T10:49:29.319Z</time></trkpt><trkpt lat="45.8632752" lon="11.6508611"><ele>226.0</ele><time>2026-05-02T10:49:32.34Z</time></trkpt><trkpt lat="45.8633316" lon="11.6507854"><ele>224.49999999999997</ele><time>2026-05-02T10:49:35.259Z</time></trkpt><trkpt lat="45.8634006" lon="11.6507128"><ele>223.0</ele><time>2026-05-02T10:49:38.281Z</time></trkpt><trkpt lat="45.8634701" lon="11.6506518"><ele>221.5</ele><time>2026-05-02T10:49:41.301Z</time></trkpt><trkpt lat="45.8635296" lon="11.6505919"><ele>220.0</ele><time>2026-05-02T10:49:44.323Z</time></trkpt><trkpt lat="45.8635862" lon="11.6505326"><ele>218.49999999999997</ele><time>2026-05-02T10:49:47.268Z</time></trkpt><trkpt lat="45.8636545" lon="11.650473"><ele>217.0</ele><time>2026-05-02T10:49:50.289Z</time></trkpt><trkpt lat="45.8637213" lon="11.6504095"><ele>218.66666666666666</ele><time>2026-05-02T10:49:53.31Z</time></trkpt><trkpt lat="45.8637834" lon="11.6503482"><ele>220.33333333333331</ele><time>2026-05-02T10:49:56.33Z</time></trkpt><trkpt lat="45.8638419" lon="11.650254"><ele>222.0</ele><time>2026-05-02T10:49:59.377Z</time></trkpt><trkpt lat="45.8638998" lon="11.6501538"><ele>223.66666666666669</ele><time>2026-05-02T10:50:02.297Z</time></trkpt><trkpt lat="45.8639577" lon="11.650052"><ele>225.33333333333334</ele><time>2026-05-02T10:50:05.345Z</time></trkpt><trkpt lat="45.864009" lon="11.6499536"><ele>227.0</ele><time>2026-05-02T10:50:08.407Z</time></trkpt><trkpt lat="45.8640586" lon="11.6498705"><ele>227.0</ele><time>2026-05-02T10:50:11.359Z</time></trkpt><trkpt lat="45.8641103" lon="11.6497991"><ele>227.00000000000003</ele><time>2026-05-02T10:50:14.38Z</time></trkpt><trkpt lat="45.864162" lon="11.6497397"><ele>227.0</ele><time>2026-05-02T10:50:18.307Z</time></trkpt><trkpt lat="45.8642132" lon="11.6496865"><ele>227.0</ele><time>2026-05-02T10:50:21.327Z</time></trkpt><trkpt lat="45.864277" lon="11.6496206"><ele>227.00000000000003</ele><time>2026-05-02T10:50:24.349Z</time></trkpt><trkpt lat="45.8643347" lon="11.6495817"><ele>227.0</ele><time>2026-05-02T10:50:27.369Z</time></trkpt><trkpt lat="45.864405" lon="11.6495521"><ele>227.0</ele><time>2026-05-02T10:50:30.389Z</time></trkpt><trkpt lat="45.8644831" lon="11.6495299"><ele>228.14285714285717</ele><time>2026-05-02T10:50:34.244Z</time></trkpt><trkpt lat="45.864548" lon="11.6495122"><ele>229.2857142857143</ele><time>2026-05-02T10:50:37.337Z</time></trkpt><trkpt lat="45.8646155" lon="11.6494868"><ele>230.42857142857144</ele><time>2026-05-02T10:50:40.359Z</time></trkpt><trkpt lat="45.8646799" lon="11.6494634"><ele>231.57142857142856</ele><time>2026-05-02T10:50:43.281Z</time></trkpt><trkpt lat="45.8647501" lon="11.6494478"><ele>232.7142857142857</ele><time>2026-05-02T10:50:46.299Z</time></trkpt><trkpt lat="45.8648296" lon="11.6494369"><ele>233.85714285714283</ele><time>2026-05-02T10:50:49.319Z</time></trkpt><trkpt lat="45.8649068" lon="11.6494343"><ele>235.0</ele><time>2026-05-02T10:50:52.341Z</time></trkpt><trkpt lat="45.8649825" lon="11.6494315"><ele>236.0</ele><time>2026-05-02T10:50:55.361Z</time></trkpt><trkpt lat="45.8650508" lon="11.6494239"><ele>236.99999999999997</ele><time>2026-05-02T10:50:58.382Z</time></trkpt><trkpt lat="45.8651287" lon="11.6494105"><ele>238.0</ele><time>2026-05-02T10:51:02.309Z</time></trkpt><trkpt lat="45.8651938" lon="11.6493955"><ele>239.0</ele><time>2026-05-02T10:51:05.34Z</time></trkpt><trkpt lat="45.8652563" lon="11.6493819"><ele>239.99999999999997</ele><time>2026-05-02T10:51:08.349Z</time></trkpt><trkpt lat="45.865329" lon="11.6493639"><ele>241.0</ele><time>2026-05-02T10:51:11.37Z</time></trkpt><trkpt lat="45.865397" lon="11.6492886"><ele>242.0</ele><time>2026-05-02T10:51:14.392Z</time></trkpt><trkpt lat="45.8654583" lon="11.6491997"><ele>239.16666666666669</ele><time>2026-05-02T10:51:17.31Z</time></trkpt><trkpt lat="45.8655153" lon="11.649103"><ele>236.33333333333334</ele><time>2026-05-02T10:51:20.332Z</time></trkpt><trkpt lat="45.8655643" lon="11.649006"><ele>233.5</ele><time>2026-05-02T10:51:23.352Z</time></trkpt><trkpt lat="45.8656268" lon="11.6489229"><ele>230.66666666666669</ele><time>2026-05-02T10:51:26.373Z</time></trkpt><trkpt lat="45.8656903" lon="11.6488426"><ele>227.83333333333334</ele><time>2026-05-02T10:51:29.394Z</time></trkpt><trkpt lat="45.8657511" lon="11.6487729"><ele>225.0</ele><time>2026-05-02T10:51:32.314Z</time></trkpt><trkpt lat="45.8658141" lon="11.6486957"><ele>227.0</ele><time>2026-05-02T10:51:35.334Z</time></trkpt><trkpt lat="45.8658502" lon="11.6485968"><ele>229.0</ele><time>2026-05-02T10:51:38.355Z</time></trkpt><trkpt lat="45.865862" lon="11.6484726"><ele>231.0</ele><time>2026-05-02T10:51:41.328Z</time></trkpt><trkpt lat="45.8658805" lon="11.6483544"><ele>233.0</ele><time>2026-05-02T10:51:44.395Z</time></trkpt><trkpt lat="45.8659178" lon="11.6482487"><ele>235.0</ele><time>2026-05-02T10:51:47.316Z</time></trkpt><trkpt lat="45.8659712" lon="11.6481623"><ele>237.0</ele><time>2026-05-02T10:51:50.407Z</time></trkpt><trkpt lat="45.8660316" lon="11.6480855"><ele>237.57142857142856</ele><time>2026-05-02T10:51:53.357Z</time></trkpt><trkpt lat="45.8660978" lon="11.6480357"><ele>238.14285714285714</ele><time>2026-05-02T10:51:56.378Z</time></trkpt><trkpt lat="45.8661578" lon="11.6479687"><ele>238.71428571428572</ele><time>2026-05-02T10:51:59.398Z</time></trkpt><trkpt lat="45.8662073" lon="11.6478855"><ele>239.28571428571428</ele><time>2026-05-02T10:52:02.317Z</time></trkpt><trkpt lat="45.8662532" lon="11.6478018"><ele>239.8571428571429</ele><time>2026-05-02T10:52:05.337Z</time></trkpt><trkpt lat="45.8662882" lon="11.6477066"><ele>240.42857142857144</ele><time>2026-05-02T10:52:08.359Z</time></trkpt><trkpt lat="45.8663116" lon="11.6476136"><ele>241.0</ele><time>2026-05-02T10:52:11.379Z</time></trkpt><trkpt lat="45.866328" lon="11.6475096"><ele>239.85714285714286</ele><time>2026-05-02T10:52:14.299Z</time></trkpt><trkpt lat="45.8663555" lon="11.6474063"><ele>238.71428571428572</ele><time>2026-05-02T10:52:17.32Z</time></trkpt><trkpt lat="45.8663888" lon="11.6473084"><ele>237.57142857142858</ele><time>2026-05-02T10:52:20.34Z</time></trkpt><trkpt lat="45.8664283" lon="11.6472203"><ele>236.42857142857144</ele><time>2026-05-02T10:52:23.361Z</time></trkpt><trkpt lat="45.8664811" lon="11.6471664"><ele>235.28571428571428</ele><time>2026-05-02T10:52:26.253Z</time></trkpt><trkpt lat="45.8665402" lon="11.6470911"><ele>234.14285714285717</ele><time>2026-05-02T10:52:29.253Z</time></trkpt><trkpt lat="45.866597" lon="11.647026"><ele>233.0</ele><time>2026-05-02T10:52:32.253Z</time></trkpt><trkpt lat="45.8666537" lon="11.6469434"><ele>233.0</ele><time>2026-05-02T10:52:35.253Z</time></trkpt><trkpt lat="45.8667044" lon="11.6468658"><ele>233.0</ele><time>2026-05-02T10:52:38.252Z</time></trkpt><trkpt lat="45.86674" lon="11.6467743"><ele>233.0</ele><time>2026-05-02T10:52:41.253Z</time></trkpt><trkpt lat="45.8667678" lon="11.6466757"><ele>233.0</ele><time>2026-05-02T10:52:44.253Z</time></trkpt><trkpt lat="45.8668122" lon="11.6465831"><ele>233.0</ele><time>2026-05-02T10:52:47.253Z</time></trkpt><trkpt lat="45.8668771" lon="11.6466357"><ele>233.0</ele><time>2026-05-02T10:52:51.253Z</time></trkpt><trkpt lat="45.8668795" lon="11.6467287"><ele>233.0</ele><time>2026-05-02T10:52:54.252Z</time></trkpt><trkpt lat="45.8668875" lon="11.6468345"><ele>235.0</ele><time>2026-05-02T10:52:58.253Z</time></trkpt><trkpt lat="45.8668816" lon="11.646938"><ele>237.0</ele><time>2026-05-02T10:53:02.253Z</time></trkpt><trkpt lat="45.8668733" lon="11.6470406"><ele>239.0</ele><time>2026-05-02T10:53:06.253Z</time></trkpt><trkpt lat="45.8668765" lon="11.6471411"><ele>241.0</ele><time>2026-05-02T10:53:10.253Z</time></trkpt><trkpt lat="45.8668646" lon="11.6472457"><ele>243.0</ele><time>2026-05-02T10:53:15.253Z</time></trkpt><trkpt lat="45.8668639" lon="11.6473425"><ele>245.0</ele><time>2026-05-02T10:53:19.253Z</time></trkpt><trkpt lat="45.8668673" lon="11.6474475"><ele>247.0</ele><time>2026-05-02T10:53:24.253Z</time></trkpt><trkpt lat="45.8668629" lon="11.6475491"><ele>246.14285714285717</ele><time>2026-05-02T10:53:28.253Z</time></trkpt><trkpt lat="45.8668389" lon="11.6476416"><ele>245.28571428571428</ele><time>2026-05-02T10:53:32.254Z</time></trkpt><trkpt lat="45.866821" lon="11.6477432"><ele>244.42857142857144</ele><time>2026-05-02T10:53:36.253Z</time></trkpt><trkpt lat="45.8667956" lon="11.6478432"><ele>243.57142857142858</ele><time>2026-05-02T10:53:40.253Z</time></trkpt><trkpt lat="45.8667656" lon="11.6479371"><ele>242.71428571428572</ele><time>2026-05-02T10:53:45.253Z</time></trkpt><trkpt lat="45.8667399" lon="11.648026"><ele>241.85714285714286</ele><time>2026-05-02T10:53:49.254Z</time></trkpt><trkpt lat="45.8666987" lon="11.6481233"><ele>241.0</ele><time>2026-05-02T10:53:54.254Z</time></trkpt><trkpt lat="45.8666607" lon="11.6481984"><ele>241.0</ele><time>2026-05-02T10:53:57.254Z</time></trkpt><trkpt lat="45.8666263" lon="11.6482971"><ele>241.00000000000003</ele><time>2026-05-02T10:54:02.254Z</time></trkpt><trkpt lat="45.8665885" lon="11.6483837"><ele>241.0</ele><time>2026-05-02T10:54:06.254Z</time></trkpt><trkpt lat="45.8665599" lon="11.6484671"><ele>241.0</ele><time>2026-05-02T10:54:10.254Z</time></trkpt><trkpt lat="45.866513" lon="11.6485333"><ele>241.00000000000003</ele><time>2026-05-02T10:54:14.253Z</time></trkpt><trkpt lat="45.866454" lon="11.648583"><ele>241.0</ele><time>2026-05-02T10:54:19.254Z</time></trkpt><trkpt lat="45.8663946" lon="11.6486356"><ele>241.0</ele><time>2026-05-02T10:54:24.254Z</time></trkpt><trkpt lat="45.8663367" lon="11.6486808"><ele>245.57142857142858</ele><time>2026-05-02T10:54:28.253Z</time></trkpt><trkpt lat="45.8662907" lon="11.6487554"><ele>250.14285714285717</ele><time>2026-05-02T10:54:32.254Z</time></trkpt><trkpt lat="45.8662467" lon="11.6488522"><ele>254.71428571428572</ele><time>2026-05-02T10:54:37.254Z</time></trkpt><trkpt lat="45.8662384" lon="11.6489499"><ele>259.2857142857143</ele><time>2026-05-02T10:54:41.254Z</time></trkpt><trkpt lat="45.8662146" lon="11.6490412"><ele>263.8571428571429</ele><time>2026-05-02T10:54:46.255Z</time></trkpt><trkpt lat="45.866184" lon="11.6491309"><ele>268.42857142857144</ele><time>2026-05-02T10:54:50.255Z</time></trkpt><trkpt lat="45.8661226" lon="11.6491943"><ele>273.0</ele><time>2026-05-02T10:54:55.255Z</time></trkpt><trkpt lat="45.8660697" lon="11.6492642"><ele>273.0</ele><time>2026-05-02T10:55:00.323Z</time></trkpt><trkpt lat="45.8660185" lon="11.6493463"><ele>273.0</ele><time>2026-05-02T10:55:05.265Z</time></trkpt><trkpt lat="45.8659766" lon="11.6494164"><ele>273.0</ele><time>2026-05-02T10:55:09.292Z</time></trkpt><trkpt lat="45.8659403" lon="11.6494993"><ele>273.0</ele><time>2026-05-02T10:55:13.336Z</time></trkpt><trkpt lat="45.8658956" lon="11.6495885"><ele>273.0</ele><time>2026-05-02T10:55:18.268Z</time></trkpt><trkpt lat="45.865861" lon="11.6496671"><ele>273.0</ele><time>2026-05-02T10:55:22.297Z</time></trkpt><trkpt lat="45.8658301" lon="11.6497461"><ele>273.0</ele><time>2026-05-02T10:55:26.324Z</time></trkpt><trkpt lat="45.8657874" lon="11.6498303"><ele>271.14285714285717</ele><time>2026-05-02T10:55:31.257Z</time></trkpt><trkpt lat="45.865762" lon="11.6499278"><ele>269.2857142857143</ele><time>2026-05-02T10:55:37.297Z</time></trkpt><trkpt lat="45.865758" lon="11.6500307"><ele>267.42857142857144</ele><time>2026-05-02T10:55:41.325Z</time></trkpt><trkpt lat="45.8658114" lon="11.6500808"><ele>265.57142857142856</ele><time>2026-05-02T10:55:47.265Z</time></trkpt><trkpt lat="45.8658755" lon="11.6500443"><ele>263.7142857142857</ele><time>2026-05-02T10:55:51.293Z</time></trkpt><trkpt lat="45.8659022" lon="11.6499543"><ele>261.8571428571429</ele><time>2026-05-02T10:55:53.377Z</time></trkpt><trkpt lat="45.8659325" lon="11.6498713"><ele>260.0</ele><time>2026-05-02T10:55:55.319Z</time></trkpt><trkpt lat="45.8659591" lon="11.649777"><ele>262.1666666666667</ele><time>2026-05-02T10:55:58.341Z</time></trkpt><trkpt lat="45.8659834" lon="11.6496756"><ele>264.33333333333337</ele><time>2026-05-02T10:56:02.268Z</time></trkpt><trkpt lat="45.866015" lon="11.6495831"><ele>266.5</ele><time>2026-05-02T10:56:06.295Z</time></trkpt><trkpt lat="45.8660561" lon="11.6494903"><ele>268.6666666666667</ele><time>2026-05-02T10:56:11.34Z</time></trkpt><trkpt lat="45.8661333" lon="11.6494519"><ele>270.8333333333333</ele><time>2026-05-02T10:56:15.256Z</time></trkpt><trkpt lat="45.8662142" lon="11.6494643"><ele>273.0</ele><time>2026-05-02T10:56:19.256Z</time></trkpt><trkpt lat="45.866282" lon="11.6494549"><ele>273.0</ele><time>2026-05-02T10:56:23.255Z</time></trkpt><trkpt lat="45.8663271" lon="11.6493891"><ele>273.0</ele><time>2026-05-02T10:56:27.256Z</time></trkpt><trkpt lat="45.8663664" lon="11.6492819"><ele>273.0</ele><time>2026-05-02T10:56:30.255Z</time></trkpt><trkpt lat="45.8663741" lon="11.6491868"><ele>273.0</ele><time>2026-05-02T10:56:34.256Z</time></trkpt><trkpt lat="45.8663891" lon="11.6490735"><ele>273.0</ele><time>2026-05-02T10:56:39.256Z</time></trkpt><trkpt lat="45.8664123" lon="11.6489712"><ele>273.0</ele><time>2026-05-02T10:56:43.256Z</time></trkpt><trkpt lat="45.8664507" lon="11.6488921"><ele>273.0</ele><time>2026-05-02T10:56:47.256Z</time></trkpt><trkpt lat="45.8665177" lon="11.6488587"><ele>273.0</ele><time>2026-05-02T10:56:51.257Z</time></trkpt><trkpt lat="45.8665878" lon="11.6488257"><ele>273.0</ele><time>2026-05-02T10:56:55.257Z</time></trkpt><trkpt lat="45.8666567" lon="11.6488171"><ele>273.0</ele><time>2026-05-02T10:56:58.257Z</time></trkpt><trkpt lat="45.8667279" lon="11.64879"><ele>273.0</ele><time>2026-05-02T10:57:02.257Z</time></trkpt><trkpt lat="45.8667826" lon="11.6487376"><ele>273.0</ele><time>2026-05-02T10:57:06.257Z</time></trkpt><trkpt lat="45.8668416" lon="11.6486675"><ele>273.0</ele><time>2026-05-02T10:57:10.256Z</time></trkpt><trkpt lat="45.8669038" lon="11.6485812"><ele>273.0</ele><time>2026-05-02T10:57:14.256Z</time></trkpt><trkpt lat="45.8669252" lon="11.6484792"><ele>278.57142857142856</ele><time>2026-05-02T10:57:17.257Z</time></trkpt><trkpt lat="45.8669559" lon="11.6483938"><ele>284.1428571428571</ele><time>2026-05-02T10:57:20.257Z</time></trkpt><trkpt lat="45.8669917" lon="11.6482948"><ele>289.7142857142857</ele><time>2026-05-02T10:57:24.257Z</time></trkpt><trkpt lat="45.8670232" lon="11.6482106"><ele>295.2857142857143</ele><time>2026-05-02T10:57:27.257Z</time></trkpt><trkpt lat="45.8670791" lon="11.6481167"><ele>300.85714285714283</ele><time>2026-05-02T10:57:31.257Z</time></trkpt><trkpt lat="45.8671129" lon="11.6480404"><ele>306.42857142857144</ele><time>2026-05-02T10:57:34.256Z</time></trkpt><trkpt lat="45.8671535" lon="11.6479539"><ele>312.0</ele><time>2026-05-02T10:57:38.257Z</time></trkpt><trkpt lat="45.8671665" lon="11.6478609"><ele>307.2857142857143</ele><time>2026-05-02T10:57:42.257Z</time></trkpt><trkpt lat="45.8671756" lon="11.6477569"><ele>302.57142857142856</ele><time>2026-05-02T10:57:46.257Z</time></trkpt><trkpt lat="45.8671931" lon="11.6476529"><ele>297.85714285714283</ele><time>2026-05-02T10:57:50.257Z</time></trkpt><trkpt lat="45.8672486" lon="11.647591"><ele>293.1428571428571</ele><time>2026-05-02T10:57:54.257Z</time></trkpt><trkpt lat="45.8672896" lon="11.647499"><ele>288.42857142857144</ele><time>2026-05-02T10:57:58.257Z</time></trkpt><trkpt lat="45.8673037" lon="11.6474063"><ele>283.71428571428567</ele><time>2026-05-02T10:58:01.258Z</time></trkpt><trkpt lat="45.8672832" lon="11.6473144"><ele>279.0</ele><time>2026-05-02T10:58:04.258Z</time></trkpt><trkpt lat="45.8672704" lon="11.6471967"><ele>279.0</ele><time>2026-05-02T10:58:08.258Z</time></trkpt><trkpt lat="45.8672761" lon="11.6470822"><ele>279.0</ele><time>2026-05-02T10:58:12.257Z</time></trkpt><trkpt lat="45.8673173" lon="11.6469814"><ele>279.0</ele><time>2026-05-02T10:58:16.257Z</time></trkpt><trkpt lat="45.8673767" lon="11.6470557"><ele>279.0</ele><time>2026-05-02T10:58:21.258Z</time></trkpt><trkpt lat="45.8673642" lon="11.6471729"><ele>279.0</ele><time>2026-05-02T10:58:25.258Z</time></trkpt><trkpt lat="45.8673702" lon="11.6472814"><ele>279.0</ele><time>2026-05-02T10:58:29.258Z</time></trkpt><trkpt lat="45.8674077" lon="11.6473863"><ele>278.99999999999994</ele><time>2026-05-02T10:58:33.257Z</time></trkpt><trkpt lat="45.867421" lon="11.6474915"><ele>279.0</ele><time>2026-05-02T10:58:37.258Z</time></trkpt><trkpt lat="45.867414" lon="11.6475954"><ele>279.0</ele><time>2026-05-02T10:58:41.257Z</time></trkpt><trkpt lat="45.8673684" lon="11.6476951"><ele>279.0</ele><time>2026-05-02T10:58:45.258Z</time></trkpt><trkpt lat="45.8673319" lon="11.6477693"><ele>279.0</ele><time>2026-05-02T10:58:48.258Z</time></trkpt><trkpt lat="45.8673252" lon="11.6478647"><ele>278.99999999999994</ele><time>2026-05-02T10:58:52.258Z</time></trkpt><trkpt lat="45.8673465" lon="11.6479658"><ele>279.0</ele><time>2026-05-02T10:58:56.258Z</time></trkpt><trkpt lat="45.8673361" lon="11.6480704"><ele>283.71428571428567</ele><time>2026-05-02T10:59:00.257Z</time></trkpt><trkpt lat="45.8672746" lon="11.6481481"><ele>288.42857142857144</ele><time>2026-05-02T10:59:04.258Z</time></trkpt><trkpt lat="45.8672119" lon="11.6481933"><ele>293.1428571428571</ele><time>2026-05-02T10:59:08.258Z</time></trkpt><trkpt lat="45.8671626" lon="11.6482521"><ele>297.85714285714283</ele><time>2026-05-02T10:59:11.259Z</time></trkpt><trkpt lat="45.867112" lon="11.6483357"><ele>302.57142857142856</ele><time>2026-05-02T10:59:15.259Z</time></trkpt><trkpt lat="45.8670979" lon="11.6484313"><ele>307.2857142857143</ele><time>2026-05-02T10:59:19.259Z</time></trkpt><trkpt lat="45.8670974" lon="11.648535"><ele>312.0</ele><time>2026-05-02T10:59:23.258Z</time></trkpt><trkpt lat="45.867083" lon="11.6486326"><ele>316.8571428571429</ele><time>2026-05-02T10:59:27.259Z</time></trkpt><trkpt lat="45.8670529" lon="11.6487229"><ele>321.71428571428567</ele><time>2026-05-02T10:59:31.258Z</time></trkpt><trkpt lat="45.8670011" lon="11.6487805"><ele>326.57142857142856</ele><time>2026-05-02T10:59:34.259Z</time></trkpt><trkpt lat="45.8669203" lon="11.648803"><ele>331.42857142857144</ele><time>2026-05-02T10:59:38.259Z</time></trkpt><trkpt lat="45.8668586" lon="11.6488264"><ele>336.28571428571433</ele><time>2026-05-02T10:59:41.259Z</time></trkpt><trkpt lat="45.8668062" lon="11.6488972"><ele>341.1428571428571</ele><time>2026-05-02T10:59:45.259Z</time></trkpt><trkpt lat="45.8667528" lon="11.6489644"><ele>346.0</ele><time>2026-05-02T10:59:49.259Z</time></trkpt><trkpt lat="45.8666994" lon="11.6490178"><ele>342.2857142857143</ele><time>2026-05-02T10:59:53.259Z</time></trkpt><trkpt lat="45.8666416" lon="11.6490699"><ele>338.5714285714286</ele><time>2026-05-02T10:59:57.258Z</time></trkpt><trkpt lat="45.8665874" lon="11.6491501"><ele>334.8571428571429</ele><time>2026-05-02T11:00:02.259Z</time></trkpt><trkpt lat="45.8665517" lon="11.649228"><ele>331.1428571428571</ele><time>2026-05-02T11:00:06.258Z</time></trkpt><trkpt lat="45.8665534" lon="11.6493341"><ele>327.42857142857144</ele><time>2026-05-02T11:00:10.259Z</time></trkpt><trkpt lat="45.8665736" lon="11.6494431"><ele>323.7142857142857</ele><time>2026-05-02T11:00:14.258Z</time></trkpt><trkpt lat="45.8666123" lon="11.6495443"><ele>320.0</ele><time>2026-05-02T11:00:18.259Z</time></trkpt><trkpt lat="45.8666246" lon="11.6496427"><ele>320.0</ele><time>2026-05-02T11:00:21.259Z</time></trkpt><trkpt lat="45.8665866" lon="11.64973"><ele>320.0</ele><time>2026-05-02T11:00:26.26Z</time></trkpt><trkpt lat="45.8665234" lon="11.649754"><ele>320.0</ele><time>2026-05-02T11:00:29.26Z</time></trkpt><trkpt lat="45.8664599" lon="11.6497506"><ele>320.0</ele><time>2026-05-02T11:00:32.26Z</time></trkpt><trkpt lat="45.8663818" lon="11.6497785"><ele>320.0</ele><time>2026-05-02T11:00:36.26Z</time></trkpt><trkpt lat="45.8663109" lon="11.6498358"><ele>320.0</ele><time>2026-05-02T11:00:40.259Z</time></trkpt><trkpt lat="45.8662669" lon="11.6499083"><ele>320.0</ele><time>2026-05-02T11:00:44.259Z</time></trkpt><trkpt lat="45.8662252" lon="11.6499868"><ele>320.0</ele><time>2026-05-02T11:00:48.259Z</time></trkpt><trkpt lat="45.86619" lon="11.6500667"><ele>320.0</ele><time>2026-05-02T11:00:52.26Z</time></trkpt><trkpt lat="45.8661434" lon="11.6501388"><ele>320.0</ele><time>2026-05-02T11:00:56.26Z</time></trkpt><trkpt lat="45.8660818" lon="11.6501983"><ele>320.0</ele><time>2026-05-02T11:01:00.286Z</time></trkpt><trkpt lat="45.8660285" lon="11.6502707"><ele>320.0</ele><time>2026-05-02T11:01:04.314Z</time></trkpt><trkpt lat="45.8659808" lon="11.6503582"><ele>320.0</ele><time>2026-05-02T11:01:09.349Z</time></trkpt><trkpt lat="45.8659348" lon="11.6504484"><ele>320.0</ele><time>2026-05-02T11:01:14.283Z</time></trkpt><trkpt lat="45.8658788" lon="11.6505027"><ele>319.85714285714283</ele><time>2026-05-02T11:01:18.311Z</time></trkpt><trkpt lat="45.865816" lon="11.6505673"><ele>319.7142857142857</ele><time>2026-05-02T11:01:23.346Z</time></trkpt><trkpt lat="45.8657503" lon="11.6506207"><ele>319.57142857142856</ele><time>2026-05-02T11:01:28.38Z</time></trkpt><trkpt lat="45.8656722" lon="11.6506422"><ele>319.42857142857144</ele><time>2026-05-02T11:01:33.315Z</time></trkpt><trkpt lat="45.8656115" lon="11.6507065"><ele>319.2857142857143</ele><time>2026-05-02T11:01:36.334Z</time></trkpt><trkpt lat="45.8655561" lon="11.6507561"><ele>319.14285714285717</ele><time>2026-05-02T11:01:39.261Z</time></trkpt><trkpt lat="45.8654909" lon="11.6507731"><ele>319.0</ele><time>2026-05-02T11:01:42.277Z</time></trkpt><trkpt lat="45.8654185" lon="11.650788"><ele>319.0</ele><time>2026-05-02T11:01:47.311Z</time></trkpt><trkpt lat="45.8653514" lon="11.6508032"><ele>319.0</ele><time>2026-05-02T11:01:49.261Z</time></trkpt><trkpt lat="45.8652835" lon="11.6507827"><ele>319.0</ele><time>2026-05-02T11:01:53.261Z</time></trkpt><trkpt lat="45.8652186" lon="11.6508222"><ele>319.0</ele><time>2026-05-02T11:01:57.261Z</time></trkpt><trkpt lat="45.8651887" lon="11.6509142"><ele>319.0</ele><time>2026-05-02T11:02:01.261Z</time></trkpt><trkpt lat="45.8651683" lon="11.6510086"><ele>319.0</ele><time>2026-05-02T11:02:05.261Z</time></trkpt><trkpt lat="45.8651499" lon="11.65111"><ele>319.0</ele><time>2026-05-02T11:02:09.261Z</time></trkpt><trkpt lat="45.8651192" lon="11.6511923"><ele>321.14285714285717</ele><time>2026-05-02T11:02:12.261Z</time></trkpt><trkpt lat="45.8650631" lon="11.6512728"><ele>323.2857142857143</ele><time>2026-05-02T11:02:17.261Z</time></trkpt><trkpt lat="45.8649875" lon="11.6512979"><ele>325.42857142857144</ele><time>2026-05-02T11:02:21.261Z</time></trkpt><trkpt lat="45.8649251" lon="11.6512844"><ele>327.57142857142856</ele><time>2026-05-02T11:02:24.261Z</time></trkpt><trkpt lat="45.8648576" lon="11.6512881"><ele>329.7142857142857</ele><time>2026-05-02T11:02:28.261Z</time></trkpt><trkpt lat="45.8647847" lon="11.6513259"><ele>331.85714285714283</ele><time>2026-05-02T11:02:33.261Z</time></trkpt><trkpt lat="45.8647133" lon="11.6513834"><ele>334.0</ele><time>2026-05-02T11:02:38.26Z</time></trkpt><trkpt lat="45.8646406" lon="11.6514172"><ele>334.0</ele><time>2026-05-02T11:02:42.262Z</time></trkpt><trkpt lat="45.8645711" lon="11.6514338"><ele>334.0</ele><time>2026-05-02T11:02:46.262Z</time></trkpt><trkpt lat="45.8645078" lon="11.6514663"><ele>334.0</ele><time>2026-05-02T11:02:50.262Z</time></trkpt><trkpt lat="45.8644538" lon="11.6515519"><ele>334.0</ele><time>2026-05-02T11:02:54.262Z</time></trkpt><trkpt lat="45.864399" lon="11.6516337"><ele>334.0</ele><time>2026-05-02T11:02:58.262Z</time></trkpt><trkpt lat="45.8643775" lon="11.6517365"><ele>334.0</ele><time>2026-05-02T11:03:02.262Z</time></trkpt><trkpt lat="45.8643641" lon="11.651842"><ele>334.0</ele><time>2026-05-02T11:03:07.262Z</time></trkpt><trkpt lat="45.8643315" lon="11.6519464"><ele>332.85714285714283</ele><time>2026-05-02T11:03:12.262Z</time></trkpt><trkpt lat="45.8642732" lon="11.6520037"><ele>331.7142857142857</ele><time>2026-05-02T11:03:16.261Z</time></trkpt><trkpt lat="45.864209" lon="11.6520153"><ele>330.57142857142856</ele><time>2026-05-02T11:03:20.262Z</time></trkpt><trkpt lat="45.8641376" lon="11.6520165"><ele>329.42857142857144</ele><time>2026-05-02T11:03:24.262Z</time></trkpt><trkpt lat="45.8640724" lon="11.6520634"><ele>328.2857142857143</ele><time>2026-05-02T11:03:28.262Z</time></trkpt><trkpt lat="45.8640097" lon="11.6521309"><ele>327.14285714285717</ele><time>2026-05-02T11:03:32.262Z</time></trkpt><trkpt lat="45.8639506" lon="11.6522125"><ele>326.0</ele><time>2026-05-02T11:03:36.262Z</time></trkpt><trkpt lat="45.8639032" lon="11.6523009"><ele>326.0</ele><time>2026-05-02T11:03:40.261Z</time></trkpt><trkpt lat="45.8639278" lon="11.652392"><ele>326.0</ele><time>2026-05-02T11:03:44.262Z</time></trkpt><trkpt lat="45.8640047" lon="11.6523659"><ele>326.0</ele><time>2026-05-02T11:03:48.261Z</time></trkpt><trkpt lat="45.8640597" lon="11.6522829"><ele>326.0</ele><time>2026-05-02T11:03:51.262Z</time></trkpt><trkpt lat="45.8640887" lon="11.6522009"><ele>326.0</ele><time>2026-05-02T11:03:54.262Z</time></trkpt><trkpt lat="45.8641419" lon="11.6521342"><ele>326.0</ele><time>2026-05-02T11:03:58.263Z</time></trkpt><trkpt lat="45.8642225" lon="11.6521302"><ele>326.0</ele><time>2026-05-02T11:04:03.262Z</time></trkpt><trkpt lat="45.8642915" lon="11.6521309"><ele>327.33333333333337</ele><time>2026-05-02T11:04:07.262Z</time></trkpt><trkpt lat="45.8643637" lon="11.6521417"><ele>328.6666666666667</ele><time>2026-05-02T11:04:11.262Z</time></trkpt><trkpt lat="45.8644088" lon="11.6520445"><ele>330.0</ele><time>2026-05-02T11:04:15.262Z</time></trkpt><trkpt lat="45.8644366" lon="11.6519388"><ele>331.3333333333333</ele><time>2026-05-02T11:04:19.263Z</time></trkpt><trkpt lat="45.8644627" lon="11.6518296"><ele>332.66666666666663</ele><time>2026-05-02T11:04:22.263Z</time></trkpt><trkpt lat="45.8644932" lon="11.6517321"><ele>334.0</ele><time>2026-05-02T11:04:26.263Z</time></trkpt><trkpt lat="45.8645579" lon="11.6516739"><ele>334.0</ele><time>2026-05-02T11:04:31.263Z</time></trkpt><trkpt lat="45.8646335" lon="11.6516751"><ele>334.0</ele><time>2026-05-02T11:04:35.263Z</time></trkpt><trkpt lat="45.8647125" lon="11.6516829"><ele>334.0</ele><time>2026-05-02T11:04:39.263Z</time></trkpt><trkpt lat="45.8647934" lon="11.6516721"><ele>334.0</ele><time>2026-05-02T11:04:43.263Z</time></trkpt><trkpt lat="45.864868" lon="11.6516431"><ele>334.0</ele><time>2026-05-02T11:04:47.263Z</time></trkpt><trkpt lat="45.8649313" lon="11.6515786"><ele>334.0</ele><time>2026-05-02T11:04:51.263Z</time></trkpt><trkpt lat="45.8649856" lon="11.651521"><ele>334.0</ele><time>2026-05-02T11:04:55.263Z</time></trkpt><trkpt lat="45.8650525" lon="11.6514649"><ele>334.0</ele><time>2026-05-02T11:05:00.263Z</time></trkpt><trkpt lat="45.8651329" lon="11.6514803"><ele>334.0</ele><time>2026-05-02T11:05:04.264Z</time></trkpt><trkpt lat="45.8652008" lon="11.651495"><ele>334.0</ele><time>2026-05-02T11:05:08.264Z</time></trkpt><trkpt lat="45.8652786" lon="11.651473"><ele>334.0</ele><time>2026-05-02T11:05:12.264Z</time></trkpt><trkpt lat="45.8653362" lon="11.6514103"><ele>334.0</ele><time>2026-05-02T11:05:17.264Z</time></trkpt><trkpt lat="45.8653641" lon="11.6513232"><ele>334.0</ele><time>2026-05-02T11:05:21.263Z</time></trkpt><trkpt lat="45.8653716" lon="11.6512084"><ele>331.85714285714283</ele><time>2026-05-02T11:05:26.264Z</time></trkpt><trkpt lat="45.8653968" lon="11.6511144"><ele>329.7142857142857</ele><time>2026-05-02T11:05:30.264Z</time></trkpt><trkpt lat="45.8654587" lon="11.6510883"><ele>327.57142857142856</ele><time>2026-05-02T11:05:34.263Z</time></trkpt><trkpt lat="45.8655285" lon="11.6510573"><ele>325.42857142857144</ele><time>2026-05-02T11:05:38.264Z</time></trkpt><trkpt lat="45.8655973" lon="11.6510334"><ele>323.2857142857143</ele><time>2026-05-02T11:05:42.263Z</time></trkpt><trkpt lat="45.8656666" lon="11.6510304"><ele>321.14285714285717</ele><time>2026-05-02T11:05:46.264Z</time></trkpt><trkpt lat="45.8657333" lon="11.6510082"><ele>319.0</ele><time>2026-05-02T11:05:50.264Z</time></trkpt><trkpt lat="45.8657995" lon="11.6509746"><ele>319.0</ele><time>2026-05-02T11:05:54.264Z</time></trkpt><trkpt lat="45.8658624" lon="11.650923"><ele>319.0</ele><time>2026-05-02T11:05:58.264Z</time></trkpt><trkpt lat="45.8659216" lon="11.6508788"><ele>319.0</ele><time>2026-05-02T11:06:02.264Z</time></trkpt><trkpt lat="45.8659685" lon="11.6508104"><ele>319.0</ele><time>2026-05-02T11:06:05.264Z</time></trkpt><trkpt lat="45.8660368" lon="11.6507635"><ele>319.0</ele><time>2026-05-02T11:06:10.265Z</time></trkpt><trkpt lat="45.8661052" lon="11.6507564"><ele>319.0</ele><time>2026-05-02T11:06:13.265Z</time></trkpt><trkpt lat="45.8661725" lon="11.6507493"><ele>319.0</ele><time>2026-05-02T11:06:17.265Z</time></trkpt><trkpt lat="45.8662234" lon="11.6506898"><ele>319.14285714285717</ele><time>2026-05-02T11:06:21.265Z</time></trkpt><trkpt lat="45.8662662" lon="11.6506213"><ele>319.2857142857143</ele><time>2026-05-02T11:06:25.265Z</time></trkpt><trkpt lat="45.8663349" lon="11.6505567"><ele>319.42857142857144</ele><time>2026-05-02T11:06:29.264Z</time></trkpt><trkpt lat="45.8663982" lon="11.6505054"><ele>319.57142857142856</ele><time>2026-05-02T11:06:33.265Z</time></trkpt><trkpt lat="45.8664507" lon="11.6504268"><ele>319.7142857142857</ele><time>2026-05-02T11:06:37.264Z</time></trkpt><trkpt lat="45.8664996" lon="11.6503464"><ele>319.85714285714283</ele><time>2026-05-02T11:06:41.265Z</time></trkpt><trkpt lat="45.8665625" lon="11.6503135"><ele>320.0</ele><time>2026-05-02T11:06:45.265Z</time></trkpt><trkpt lat="45.8666252" lon="11.6502715"><ele>320.0</ele><time>2026-05-02T11:06:49.264Z</time></trkpt><trkpt lat="45.8666954" lon="11.6502706"><ele>320.0</ele><time>2026-05-02T11:06:53.264Z</time></trkpt><trkpt lat="45.8667631" lon="11.6502464"><ele>320.0</ele><time>2026-05-02T11:06:56.265Z</time></trkpt><trkpt lat="45.8668303" lon="11.6502392"><ele>320.0</ele><time>2026-05-02T11:07:00.265Z</time></trkpt><trkpt lat="45.8669063" lon="11.6502436"><ele>320.0</ele><time>2026-05-02T11:07:05.265Z</time></trkpt><trkpt lat="45.8669705" lon="11.6502452"><ele>320.0</ele><time>2026-05-02T11:07:09.265Z</time></trkpt><trkpt lat="45.8670375" lon="11.6502092"><ele>320.0</ele><time>2026-05-02T11:07:13.265Z</time></trkpt><trkpt lat="45.8670757" lon="11.6501313"><ele>330.0</ele><time>2026-05-02T11:07:17.264Z</time></trkpt><trkpt lat="45.8670834" lon="11.6500248"><ele>340.0</ele><time>2026-05-02T11:07:23.265Z</time></trkpt><trkpt lat="45.867084" lon="11.6499212"><ele>350.0</ele><time>2026-05-02T11:07:27.265Z</time></trkpt><trkpt lat="45.8670949" lon="11.6498152"><ele>360.0</ele><time>2026-05-02T11:07:31.265Z</time></trkpt><trkpt lat="45.8671172" lon="11.6496968"><ele>370.0</ele><time>2026-05-02T11:07:35.265Z</time></trkpt><trkpt lat="45.8671321" lon="11.6496035"><ele>380.0</ele><time>2026-05-02T11:07:38.266Z</time></trkpt><trkpt lat="45.8671451" lon="11.6494874"><ele>375.14285714285717</ele><time>2026-05-02T11:07:42.266Z</time></trkpt><trkpt lat="45.8672009" lon="11.6494135"><ele>370.28571428571433</ele><time>2026-05-02T11:07:47.266Z</time></trkpt><trkpt lat="45.8672678" lon="11.6493792"><ele>365.42857142857144</ele><time>2026-05-02T11:07:52.266Z</time></trkpt><trkpt lat="45.8673327" lon="11.6493261"><ele>360.57142857142856</ele><time>2026-05-02T11:07:56.266Z</time></trkpt><trkpt lat="45.8673996" lon="11.6492754"><ele>355.7142857142857</ele><time>2026-05-02T11:08:00.266Z</time></trkpt><trkpt lat="45.8674343" lon="11.649189"><ele>350.85714285714283</ele><time>2026-05-02T11:08:04.265Z</time></trkpt><trkpt lat="45.8674572" lon="11.6490849"><ele>346.0</ele><time>2026-05-02T11:08:08.266Z</time></trkpt><trkpt lat="45.8674731" lon="11.6489793"><ele>346.0</ele><time>2026-05-02T11:08:12.266Z</time></trkpt><trkpt lat="45.8675165" lon="11.6488904"><ele>346.0</ele><time>2026-05-02T11:08:17.266Z</time></trkpt><trkpt lat="45.8675527" lon="11.6488103"><ele>346.0</ele><time>2026-05-02T11:08:21.267Z</time></trkpt><trkpt lat="45.8676059" lon="11.648753"><ele>346.0</ele><time>2026-05-02T11:08:25.265Z</time></trkpt><trkpt lat="45.8676515" lon="11.6486821"><ele>346.0</ele><time>2026-05-02T11:08:29.266Z</time></trkpt><trkpt lat="45.867703" lon="11.6486279"><ele>346.0</ele><time>2026-05-02T11:08:33.267Z</time></trkpt><trkpt lat="45.8677525" lon="11.6485557"><ele>346.0</ele><time>2026-05-02T11:08:37.266Z</time></trkpt><trkpt lat="45.8677927" lon="11.6484769"><ele>350.4285714285714</ele><time>2026-05-02T11:08:41.267Z</time></trkpt><trkpt lat="45.8678409" lon="11.6484182"><ele>354.8571428571429</ele><time>2026-05-02T11:08:44.267Z</time></trkpt><trkpt lat="45.8678831" lon="11.6483361"><ele>359.2857142857143</ele><time>2026-05-02T11:08:48.267Z</time></trkpt><trkpt lat="45.8679336" lon="11.6482585"><ele>363.71428571428567</ele><time>2026-05-02T11:08:53.267Z</time></trkpt><trkpt lat="45.8679935" lon="11.6481849"><ele>368.1428571428571</ele><time>2026-05-02T11:08:58.267Z</time></trkpt><trkpt lat="45.8680471" lon="11.648124"><ele>372.57142857142856</ele><time>2026-05-02T11:09:02.267Z</time></trkpt><trkpt lat="45.8680995" lon="11.6480469"><ele>377.0</ele><time>2026-05-02T11:09:06.267Z</time></trkpt><trkpt lat="45.8681567" lon="11.647994"><ele>376.99999999999994</ele><time>2026-05-02T11:09:10.267Z</time></trkpt><trkpt lat="45.8681966" lon="11.6479131"><ele>377.0</ele><time>2026-05-02T11:09:14.267Z</time></trkpt><trkpt lat="45.8682464" lon="11.6478482"><ele>377.0</ele><time>2026-05-02T11:09:18.267Z</time></trkpt><trkpt lat="45.8682864" lon="11.6477505"><ele>377.0</ele><time>2026-05-02T11:09:23.267Z</time></trkpt><trkpt lat="45.868325" lon="11.647661"><ele>377.0</ele><time>2026-05-02T11:09:27.267Z</time></trkpt><trkpt lat="45.8683786" lon="11.6476045"><ele>376.99999999999994</ele><time>2026-05-02T11:09:31.266Z</time></trkpt><trkpt lat="45.8684053" lon="11.6475196"><ele>377.0</ele><time>2026-05-02T11:09:34.267Z</time></trkpt><trkpt lat="45.8684457" lon="11.647428"><ele>377.83333333333337</ele><time>2026-05-02T11:09:39.267Z</time></trkpt><trkpt lat="45.868504" lon="11.6473577"><ele>378.6666666666667</ele><time>2026-05-02T11:09:44.268Z</time></trkpt><trkpt lat="45.8685701" lon="11.6473051"><ele>379.5</ele><time>2026-05-02T11:09:49.267Z</time></trkpt><trkpt lat="45.8686364" lon="11.6472723"><ele>380.3333333333333</ele><time>2026-05-02T11:09:54.268Z</time></trkpt><trkpt lat="45.8687054" lon="11.6472807"><ele>381.16666666666663</ele><time>2026-05-02T11:09:58.268Z</time></trkpt><trkpt lat="45.8687923" lon="11.6473026"><ele>382.0</ele><time>2026-05-02T11:10:08.268Z</time></trkpt><trkpt lat="45.8688599" lon="11.6472542"><ele>382.0</ele><time>2026-05-02T11:10:23.268Z</time></trkpt><trkpt lat="45.8689257" lon="11.6472628"><ele>382.0</ele><time>2026-05-02T11:10:27.268Z</time></trkpt><trkpt lat="45.8690035" lon="11.6472429"><ele>382.0</ele><time>2026-05-02T11:10:32.268Z</time></trkpt><trkpt lat="45.8690692" lon="11.6472552"><ele>382.0</ele><time>2026-05-02T11:10:36.268Z</time></trkpt><trkpt lat="45.8691346" lon="11.6472584"><ele>382.0</ele><time>2026-05-02T11:10:40.268Z</time></trkpt><trkpt lat="45.8692092" lon="11.6472565"><ele>382.0</ele><time>2026-05-02T11:10:44.268Z</time></trkpt><trkpt lat="45.8692749" lon="11.6472668"><ele>382.0</ele><time>2026-05-02T11:10:48.268Z</time></trkpt><trkpt lat="45.8693518" lon="11.6472579"><ele>382.0</ele><time>2026-05-02T11:10:52.268Z</time></trkpt><trkpt lat="45.869417" lon="11.647282"><ele>382.0</ele><time>2026-05-02T11:10:56.269Z</time></trkpt><trkpt lat="45.8695027" lon="11.6472922"><ele>382.0</ele><time>2026-05-02T11:11:00.269Z</time></trkpt><trkpt lat="45.8694867" lon="11.6473891"><ele>382.0</ele><time>2026-05-02T11:11:04.269Z</time></trkpt><trkpt lat="45.8694056" lon="11.6473855"><ele>382.0</ele><time>2026-05-02T11:11:07.269Z</time></trkpt><trkpt lat="45.8693385" lon="11.6473808"><ele>382.0</ele><time>2026-05-02T11:11:11.268Z</time></trkpt><trkpt lat="45.8692665" lon="11.6473526"><ele>382.0</ele><time>2026-05-02T11:11:15.268Z</time></trkpt><trkpt lat="45.8692009" lon="11.6473366"><ele>382.0</ele><time>2026-05-02T11:11:19.269Z</time></trkpt><trkpt lat="45.8691248" lon="11.6473491"><ele>382.0</ele><time>2026-05-02T11:11:23.269Z</time></trkpt><trkpt lat="45.8690621" lon="11.6473585"><ele>382.0</ele><time>2026-05-02T11:11:27.269Z</time></trkpt><trkpt lat="45.8689864" lon="11.6474014"><ele>382.0</ele><time>2026-05-02T11:11:32.269Z</time></trkpt><trkpt lat="45.8689145" lon="11.6474285"><ele>382.0</ele><time>2026-05-02T11:11:37.269Z</time></trkpt><trkpt lat="45.8688479" lon="11.6474463"><ele>382.0</ele><time>2026-05-02T11:11:41.269Z</time></trkpt><trkpt lat="45.8687692" lon="11.6474648"><ele>382.0</ele><time>2026-05-02T11:11:48.268Z</time></trkpt><trkpt lat="45.8686972" lon="11.6475105"><ele>382.0</ele><time>2026-05-02T11:11:53.269Z</time></trkpt><trkpt lat="45.8686596" lon="11.6475869"><ele>382.0</ele><time>2026-05-02T11:11:56.269Z</time></trkpt><trkpt lat="45.8686244" lon="11.647672"><ele>382.0</ele><time>2026-05-02T11:12:00.268Z</time></trkpt><trkpt lat="45.8685955" lon="11.647763"><ele>382.0</ele><time>2026-05-02T11:12:04.268Z</time></trkpt><trkpt lat="45.8685715" lon="11.6478533"><ele>382.0</ele><time>2026-05-02T11:12:08.27Z</time></trkpt><trkpt lat="45.8685486" lon="11.6479549"><ele>382.0</ele><time>2026-05-02T11:12:13.27Z</time></trkpt><trkpt lat="45.8685017" lon="11.648034"><ele>382.0</ele><time>2026-05-02T11:12:18.27Z</time></trkpt><trkpt lat="45.86847" lon="11.6481218"><ele>381.2857142857143</ele><time>2026-05-02T11:12:22.27Z</time></trkpt><trkpt lat="45.8684336" lon="11.6481974"><ele>380.57142857142856</ele><time>2026-05-02T11:12:26.27Z</time></trkpt><trkpt lat="45.8683875" lon="11.6482783"><ele>379.85714285714283</ele><time>2026-05-02T11:12:31.27Z</time></trkpt><trkpt lat="45.8683476" lon="11.6483765"><ele>379.1428571428571</ele><time>2026-05-02T11:12:36.27Z</time></trkpt><trkpt lat="45.8683023" lon="11.6484492"><ele>378.42857142857144</ele><time>2026-05-02T11:12:40.27Z</time></trkpt><trkpt lat="45.8682532" lon="11.6485277"><ele>377.71428571428567</ele><time>2026-05-02T11:12:45.27Z</time></trkpt><trkpt lat="45.8681987" lon="11.6485927"><ele>377.0</ele><time>2026-05-02T11:12:49.27Z</time></trkpt><trkpt lat="45.8681521" lon="11.648685"><ele>382.57142857142856</ele><time>2026-05-02T11:12:54.27Z</time></trkpt><trkpt lat="45.8681149" lon="11.6487622"><ele>388.1428571428571</ele><time>2026-05-02T11:12:58.27Z</time></trkpt><trkpt lat="45.8680662" lon="11.6488466"><ele>393.71428571428567</ele><time>2026-05-02T11:13:03.27Z</time></trkpt><trkpt lat="45.8680205" lon="11.648939"><ele>399.2857142857143</ele><time>2026-05-02T11:13:08.269Z</time></trkpt><trkpt lat="45.867976" lon="11.6490332"><ele>404.8571428571429</ele><time>2026-05-02T11:13:13.27Z</time></trkpt><trkpt lat="45.867919" lon="11.6490974"><ele>410.4285714285714</ele><time>2026-05-02T11:13:17.271Z</time></trkpt><trkpt lat="45.8678844" lon="11.6491891"><ele>416.0</ele><time>2026-05-02T11:13:21.27Z</time></trkpt><trkpt lat="45.8678501" lon="11.6492689"><ele>416.0</ele><time>2026-05-02T11:13:25.271Z</time></trkpt><trkpt lat="45.8678322" lon="11.6493766"><ele>416.0</ele><time>2026-05-02T11:13:29.271Z</time></trkpt><trkpt lat="45.8678159" lon="11.6494709"><ele>416.0</ele><time>2026-05-02T11:13:33.271Z</time></trkpt><trkpt lat="45.8678236" lon="11.6495785"><ele>416.0</ele><time>2026-05-02T11:13:37.27Z</time></trkpt><trkpt lat="45.8678106" lon="11.6496766"><ele>416.0</ele><time>2026-05-02T11:13:41.271Z</time></trkpt><trkpt lat="45.8677945" lon="11.6497675"><ele>416.0</ele><time>2026-05-02T11:13:45.271Z</time></trkpt><trkpt lat="45.8677492" lon="11.6498382"><ele>416.0</ele><time>2026-05-02T11:13:49.271Z</time></trkpt><trkpt lat="45.8676932" lon="11.6498881"><ele>419.85714285714283</ele><time>2026-05-02T11:13:52.271Z</time></trkpt><trkpt lat="45.8676227" lon="11.6499212"><ele>423.7142857142857</ele><time>2026-05-02T11:13:56.271Z</time></trkpt><trkpt lat="45.8676033" lon="11.6500233"><ele>427.57142857142856</ele><time>2026-05-02T11:14:00.271Z</time></trkpt><trkpt lat="45.8676469" lon="11.6500948"><ele>431.42857142857144</ele><time>2026-05-02T11:14:03.27Z</time></trkpt><trkpt lat="45.8677167" lon="11.650025"><ele>435.28571428571433</ele><time>2026-05-02T11:14:06.271Z</time></trkpt><trkpt lat="45.867769" lon="11.6499597"><ele>439.14285714285717</ele><time>2026-05-02T11:14:09.27Z</time></trkpt><trkpt lat="45.8678086" lon="11.6498697"><ele>443.0</ele><time>2026-05-02T11:14:12.27Z</time></trkpt><trkpt lat="45.8678471" lon="11.6497926"><ele>443.0</ele><time>2026-05-02T11:14:15.271Z</time></trkpt><trkpt lat="45.8678627" lon="11.6497044"><ele>443.0</ele><time>2026-05-02T11:14:18.271Z</time></trkpt><trkpt lat="45.8678746" lon="11.6495943"><ele>443.0</ele><time>2026-05-02T11:14:22.271Z</time></trkpt><trkpt lat="45.8678763" lon="11.6495038"><ele>443.0</ele><time>2026-05-02T11:14:25.272Z</time></trkpt><trkpt lat="45.8678958" lon="11.649409"><ele>443.0</ele><time>2026-05-02T11:14:29.272Z</time></trkpt><trkpt lat="45.8679222" lon="11.6493252"><ele>443.0</ele><time>2026-05-02T11:14:33.272Z</time></trkpt><trkpt lat="45.8679806" lon="11.6492479"><ele>443.0</ele><time>2026-05-02T11:14:38.272Z</time></trkpt><trkpt lat="45.8680472" lon="11.6491913"><ele>439.14285714285717</ele><time>2026-05-02T11:14:43.272Z</time></trkpt><trkpt lat="45.8680915" lon="11.6491193"><ele>435.28571428571433</ele><time>2026-05-02T11:14:47.272Z</time></trkpt><trkpt lat="45.8681487" lon="11.6490715"><ele>431.42857142857144</ele><time>2026-05-02T11:14:51.272Z</time></trkpt><trkpt lat="45.8682028" lon="11.6489923"><ele>427.57142857142856</ele><time>2026-05-02T11:14:55.271Z</time></trkpt><trkpt lat="45.8682621" lon="11.6489283"><ele>423.7142857142857</ele><time>2026-05-02T11:15:00.272Z</time></trkpt><trkpt lat="45.8683122" lon="11.6488649"><ele>419.85714285714283</ele><time>2026-05-02T11:15:04.272Z</time></trkpt><trkpt lat="45.8683598" lon="11.6487979"><ele>416.0</ele><time>2026-05-02T11:15:08.272Z</time></trkpt><trkpt lat="45.868418" lon="11.6487582"><ele>417.1428571428571</ele><time>2026-05-02T11:15:12.271Z</time></trkpt><trkpt lat="45.8684742" lon="11.648716"><ele>418.28571428571433</ele><time>2026-05-02T11:15:16.272Z</time></trkpt><trkpt lat="45.8685367" lon="11.6486646"><ele>419.42857142857144</ele><time>2026-05-02T11:15:21.272Z</time></trkpt><trkpt lat="45.8686037" lon="11.6486067"><ele>420.57142857142856</ele><time>2026-05-02T11:15:27.272Z</time></trkpt><trkpt lat="45.8686586" lon="11.648545"><ele>421.71428571428567</ele><time>2026-05-02T11:15:31.273Z</time></trkpt><trkpt lat="45.8687097" lon="11.6484909"><ele>422.8571428571429</ele><time>2026-05-02T11:15:35.273Z</time></trkpt><trkpt lat="45.8687551" lon="11.6484202"><ele>424.0</ele><time>2026-05-02T11:15:39.273Z</time></trkpt><trkpt lat="45.8688122" lon="11.6483458"><ele>424.0</ele><time>2026-05-02T11:15:44.273Z</time></trkpt><trkpt lat="45.8688663" lon="11.6482948"><ele>424.0</ele><time>2026-05-02T11:15:48.273Z</time></trkpt><trkpt lat="45.8689365" lon="11.6482362"><ele>424.0</ele><time>2026-05-02T11:15:52.273Z</time></trkpt><trkpt lat="45.8690053" lon="11.6482006"><ele>424.0</ele><time>2026-05-02T11:15:56.273Z</time></trkpt><trkpt lat="45.869071" lon="11.6481688"><ele>424.0</ele><time>2026-05-02T11:16:00.272Z</time></trkpt><trkpt lat="45.8691392" lon="11.6481471"><ele>424.0</ele><time>2026-05-02T11:16:04.273Z</time></trkpt><trkpt lat="45.8692117" lon="11.6481295"><ele>424.0</ele><time>2026-05-02T11:16:08.272Z</time></trkpt><trkpt lat="45.8692785" lon="11.6481091"><ele>427.6666666666667</ele><time>2026-05-02T11:16:12.273Z</time></trkpt><trkpt lat="45.869357" lon="11.648103"><ele>431.33333333333337</ele><time>2026-05-02T11:16:17.272Z</time></trkpt><trkpt lat="45.8694389" lon="11.6481203"><ele>435.0</ele><time>2026-05-02T11:16:21.273Z</time></trkpt><trkpt lat="45.8695154" lon="11.648124"><ele>438.66666666666663</ele><time>2026-05-02T11:16:25.273Z</time></trkpt><trkpt lat="45.8695855" lon="11.6481344"><ele>442.3333333333333</ele><time>2026-05-02T11:16:29.273Z</time></trkpt><trkpt lat="45.8696622" lon="11.648168"><ele>446.0</ele><time>2026-05-02T11:16:33.273Z</time></trkpt><trkpt lat="45.8695906" lon="11.6481852"><ele>446.0</ele><time>2026-05-02T11:16:43.273Z</time></trkpt><trkpt lat="45.8695165" lon="11.6481724"><ele>446.0</ele><time>2026-05-02T11:16:48.273Z</time></trkpt><trkpt lat="45.8694568" lon="11.6481433"><ele>446.0</ele><time>2026-05-02T11:16:51.273Z</time></trkpt><trkpt lat="45.8693822" lon="11.6481508"><ele>446.0</ele><time>2026-05-02T11:16:55.274Z</time></trkpt><trkpt lat="45.8693118" lon="11.6481563"><ele>446.0</ele><time>2026-05-02T11:17:00.274Z</time></trkpt><trkpt lat="45.8692527" lon="11.648193"><ele>446.0</ele><time>2026-05-02T11:17:04.274Z</time></trkpt><trkpt lat="45.8691878" lon="11.6482377"><ele>446.0</ele><time>2026-05-02T11:17:08.274Z</time></trkpt><trkpt lat="45.8691349" lon="11.648305"><ele>448.2857142857143</ele><time>2026-05-02T11:17:12.274Z</time></trkpt><trkpt lat="45.8690749" lon="11.6483576"><ele>450.57142857142856</ele><time>2026-05-02T11:17:16.274Z</time></trkpt><trkpt lat="45.8690279" lon="11.6484204"><ele>452.8571428571429</ele><time>2026-05-02T11:17:19.274Z</time></trkpt><trkpt lat="45.8689662" lon="11.6484812"><ele>455.1428571428571</ele><time>2026-05-02T11:17:23.274Z</time></trkpt><trkpt lat="45.868899" lon="11.6485338"><ele>457.42857142857144</ele><time>2026-05-02T11:17:27.273Z</time></trkpt><trkpt lat="45.8688643" lon="11.6486224"><ele>459.7142857142857</ele><time>2026-05-02T11:17:31.274Z</time></trkpt><trkpt lat="45.8688238" lon="11.6487116"><ele>462.0</ele><time>2026-05-02T11:17:36.274Z</time></trkpt><trkpt lat="45.868763" lon="11.6487801"><ele>462.0</ele><time>2026-05-02T11:17:41.273Z</time></trkpt><trkpt lat="45.8687137" lon="11.6488783"><ele>462.0</ele><time>2026-05-02T11:17:45.274Z</time></trkpt><trkpt lat="45.8686612" lon="11.6489407"><ele>462.0</ele><time>2026-05-02T11:17:49.273Z</time></trkpt><trkpt lat="45.8686" lon="11.6490033"><ele>462.0</ele><time>2026-05-02T11:17:53.273Z</time></trkpt><trkpt lat="45.8685392" lon="11.6490364"><ele>462.0</ele><time>2026-05-02T11:17:58.274Z</time></trkpt><trkpt lat="45.8684965" lon="11.6491064"><ele>462.0</ele><time>2026-05-02T11:18:03.274Z</time></trkpt><trkpt lat="45.8684697" lon="11.6491903"><ele>462.0</ele><time>2026-05-02T11:18:07.275Z</time></trkpt><trkpt lat="45.8684369" lon="11.6492893"><ele>459.2857142857143</ele><time>2026-05-02T11:18:12.275Z</time></trkpt><trkpt lat="45.8684159" lon="11.649378"><ele>456.57142857142856</ele><time>2026-05-02T11:18:17.275Z</time></trkpt><trkpt lat="45.8683802" lon="11.6494618"><ele>453.8571428571429</ele><time>2026-05-02T11:18:21.275Z</time></trkpt><trkpt lat="45.868324" lon="11.6495208"><ele>451.1428571428571</ele><time>2026-05-02T11:18:25.275Z</time></trkpt><trkpt lat="45.8682842" lon="11.6496106"><ele>448.42857142857144</ele><time>2026-05-02T11:18:30.274Z</time></trkpt><trkpt lat="45.8682484" lon="11.6496887"><ele>445.7142857142857</ele><time>2026-05-02T11:18:34.275Z</time></trkpt><trkpt lat="45.8682365" lon="11.6497777"><ele>443.0</ele><time>2026-05-02T11:18:37.274Z</time></trkpt><trkpt lat="45.8682234" lon="11.6498844"><ele>443.0</ele><time>2026-05-02T11:18:41.274Z</time></trkpt><trkpt lat="45.8682255" lon="11.649984"><ele>443.0</ele><time>2026-05-02T11:18:45.275Z</time></trkpt><trkpt lat="45.8682135" lon="11.6500813"><ele>443.0</ele><time>2026-05-02T11:18:49.275Z</time></trkpt><trkpt lat="45.8682909" lon="11.6500718"><ele>443.0</ele><time>2026-05-02T11:18:55.274Z</time></trkpt><trkpt lat="45.8683172" lon="11.6499732"><ele>443.0</ele><time>2026-05-02T11:18:58.275Z</time></trkpt><trkpt lat="45.8683206" lon="11.6498705"><ele>443.0</ele><time>2026-05-02T11:19:01.275Z</time></trkpt><trkpt lat="45.8683183" lon="11.6497767"><ele>443.0</ele><time>2026-05-02T11:19:04.275Z</time></trkpt><trkpt lat="45.8683486" lon="11.6496721"><ele>443.0</ele><time>2026-05-02T11:19:08.275Z</time></trkpt><trkpt lat="45.8683896" lon="11.6495772"><ele>443.0</ele><time>2026-05-02T11:19:12.276Z</time></trkpt><trkpt lat="45.8684384" lon="11.6494989"><ele>443.0</ele><time>2026-05-02T11:19:16.276Z</time></trkpt><trkpt lat="45.8684811" lon="11.6494034"><ele>443.0</ele><time>2026-05-02T11:19:20.276Z</time></trkpt><trkpt lat="45.8685165" lon="11.6493025"><ele>443.0</ele><time>2026-05-02T11:19:24.276Z</time></trkpt><trkpt lat="45.8685612" lon="11.6492335"><ele>443.0</ele><time>2026-05-02T11:19:28.276Z</time></trkpt><trkpt lat="45.8686205" lon="11.6491855"><ele>443.0</ele><time>2026-05-02T11:19:32.325Z</time></trkpt><trkpt lat="45.8686926" lon="11.6491541"><ele>445.7142857142857</ele><time>2026-05-02T11:19:36.353Z</time></trkpt><trkpt lat="45.8687565" lon="11.6491382"><ele>448.42857142857144</ele><time>2026-05-02T11:19:40.279Z</time></trkpt><trkpt lat="45.8688296" lon="11.6490972"><ele>451.1428571428571</ele><time>2026-05-02T11:19:45.315Z</time></trkpt><trkpt lat="45.8688844" lon="11.649032"><ele>453.8571428571429</ele><time>2026-05-02T11:19:49.343Z</time></trkpt><trkpt lat="45.8689499" lon="11.6489772"><ele>456.57142857142856</ele><time>2026-05-02T11:19:53.371Z</time></trkpt><trkpt lat="45.8690188" lon="11.6489244"><ele>459.2857142857143</ele><time>2026-05-02T11:19:58.305Z</time></trkpt><trkpt lat="45.8690864" lon="11.6488831"><ele>462.0</ele><time>2026-05-02T11:20:01.276Z</time></trkpt><trkpt lat="45.8691543" lon="11.648821"><ele>462.0</ele><time>2026-05-02T11:20:05.276Z</time></trkpt><trkpt lat="45.8692156" lon="11.6487853"><ele>462.0</ele><time>2026-05-02T11:20:09.275Z</time></trkpt><trkpt lat="45.8692794" lon="11.6487486"><ele>462.0</ele><time>2026-05-02T11:20:14.276Z</time></trkpt><trkpt lat="45.8693359" lon="11.6486755"><ele>462.0</ele><time>2026-05-02T11:20:18.276Z</time></trkpt><trkpt lat="45.8694072" lon="11.6486329"><ele>462.0</ele><time>2026-05-02T11:20:23.277Z</time></trkpt><trkpt lat="45.8694752" lon="11.6486293"><ele>462.0</ele><time>2026-05-02T11:20:27.276Z</time></trkpt><trkpt lat="45.869549" lon="11.6486189"><ele>462.0</ele><time>2026-05-02T11:20:31.277Z</time></trkpt><trkpt lat="45.8696152" lon="11.6486227"><ele>459.7142857142857</ele><time>2026-05-02T11:20:35.276Z</time></trkpt><trkpt lat="45.8696838" lon="11.6485949"><ele>457.42857142857144</ele><time>2026-05-02T11:20:40.277Z</time></trkpt><trkpt lat="45.8697512" lon="11.6485601"><ele>455.1428571428571</ele><time>2026-05-02T11:20:43.277Z</time></trkpt><trkpt lat="45.8698155" lon="11.6485614"><ele>452.8571428571429</ele><time>2026-05-02T11:20:46.276Z</time></trkpt><trkpt lat="45.8698825" lon="11.6485227"><ele>450.57142857142856</ele><time>2026-05-02T11:20:51.277Z</time></trkpt><trkpt lat="45.8699547" lon="11.6485279"><ele>448.2857142857143</ele><time>2026-05-02T11:20:54.276Z</time></trkpt><trkpt lat="45.8700266" lon="11.6485252"><ele>446.0</ele><time>2026-05-02T11:20:58.277Z</time></trkpt><trkpt lat="45.8700923" lon="11.6485007"><ele>452.1428571428571</ele><time>2026-05-02T11:21:03.277Z</time></trkpt><trkpt lat="45.8701512" lon="11.6484526"><ele>458.2857142857143</ele><time>2026-05-02T11:21:07.277Z</time></trkpt><trkpt lat="45.8702093" lon="11.648397"><ele>464.42857142857144</ele><time>2026-05-02T11:21:11.277Z</time></trkpt><trkpt lat="45.8702775" lon="11.6483624"><ele>470.57142857142856</ele><time>2026-05-02T11:21:15.276Z</time></trkpt><trkpt lat="45.8703269" lon="11.6482879"><ele>476.7142857142858</ele><time>2026-05-02T11:21:22.276Z</time></trkpt><trkpt lat="45.8703546" lon="11.6481864"><ele>482.8571428571429</ele><time>2026-05-02T11:21:27.276Z</time></trkpt><trkpt lat="45.8703907" lon="11.6480915"><ele>489.0</ele><time>2026-05-02T11:21:31.276Z</time></trkpt><trkpt lat="45.8704317" lon="11.6479986"><ele>489.0</ele><time>2026-05-02T11:21:36.277Z</time></trkpt><trkpt lat="45.8704521" lon="11.6479069"><ele>489.00000000000006</ele><time>2026-05-02T11:21:39.278Z</time></trkpt><trkpt lat="45.8704804" lon="11.6478215"><ele>489.0</ele><time>2026-05-02T11:21:43.277Z</time></trkpt><trkpt lat="45.8705162" lon="11.6477207"><ele>489.0</ele><time>2026-05-02T11:21:47.278Z</time></trkpt><trkpt lat="45.8705745" lon="11.6476508"><ele>489.00000000000006</ele><time>2026-05-02T11:21:51.278Z</time></trkpt><trkpt lat="45.8706436" lon="11.6476244"><ele>489.0</ele><time>2026-05-02T11:21:56.278Z</time></trkpt><trkpt lat="45.8707051" lon="11.6476005"><ele>489.0</ele><time>2026-05-02T11:22:01.278Z</time></trkpt><trkpt lat="45.8707713" lon="11.6476033"><ele>490.14285714285717</ele><time>2026-05-02T11:22:05.277Z</time></trkpt><trkpt lat="45.8708426" lon="11.6476009"><ele>491.28571428571433</ele><time>2026-05-02T11:22:09.278Z</time></trkpt><trkpt lat="45.8709147" lon="11.6476003"><ele>492.42857142857144</ele><time>2026-05-02T11:22:13.278Z</time></trkpt><trkpt lat="45.8709934" lon="11.6475828"><ele>493.57142857142856</ele><time>2026-05-02T11:22:18.278Z</time></trkpt><trkpt lat="45.8710553" lon="11.6475511"><ele>494.7142857142857</ele><time>2026-05-02T11:22:22.278Z</time></trkpt><trkpt lat="45.8711094" lon="11.6474721"><ele>495.8571428571429</ele><time>2026-05-02T11:22:26.278Z</time></trkpt><trkpt lat="45.8711557" lon="11.6474033"><ele>497.0</ele><time>2026-05-02T11:22:30.278Z</time></trkpt><trkpt lat="45.8711872" lon="11.6473221"><ele>497.0</ele><time>2026-05-02T11:22:34.278Z</time></trkpt><trkpt lat="45.8712489" lon="11.6472794"><ele>497.0</ele><time>2026-05-02T11:22:39.277Z</time></trkpt><trkpt lat="45.8713043" lon="11.6472251"><ele>497.0</ele><time>2026-05-02T11:22:43.279Z</time></trkpt><trkpt lat="45.8713526" lon="11.6471619"><ele>497.0</ele><time>2026-05-02T11:22:48.279Z</time></trkpt><trkpt lat="45.8713669" lon="11.6470695"><ele>497.0</ele><time>2026-05-02T11:22:51.279Z</time></trkpt><trkpt lat="45.8714041" lon="11.6469934"><ele>497.0</ele><time>2026-05-02T11:22:55.279Z</time></trkpt><trkpt lat="45.8714354" lon="11.6468998"><ele>497.0</ele><time>2026-05-02T11:22:59.279Z</time></trkpt><trkpt lat="45.8714792" lon="11.6468239"><ele>494.0</ele><time>2026-05-02T11:23:03.279Z</time></trkpt><trkpt lat="45.8715342" lon="11.6467586"><ele>491.0</ele><time>2026-05-02T11:23:07.279Z</time></trkpt><trkpt lat="45.8715987" lon="11.6467485"><ele>488.0</ele><time>2026-05-02T11:23:11.279Z</time></trkpt><trkpt lat="45.8716619" lon="11.6467407"><ele>485.0</ele><time>2026-05-02T11:23:15.278Z</time></trkpt><trkpt lat="45.8717422" lon="11.6467507"><ele>482.0</ele><time>2026-05-02T11:23:19.279Z</time></trkpt><trkpt lat="45.8718172" lon="11.6467233"><ele>479.0</ele><time>2026-05-02T11:23:23.279Z</time></trkpt><trkpt lat="45.8718855" lon="11.6467245"><ele>476.0</ele><time>2026-05-02T11:23:27.279Z</time></trkpt><trkpt lat="45.8719495" lon="11.6467362"><ele>476.0</ele><time>2026-05-02T11:23:31.279Z</time></trkpt><trkpt lat="45.8720187" lon="11.646768"><ele>476.0</ele><time>2026-05-02T11:23:35.279Z</time></trkpt><trkpt lat="45.8721073" lon="11.6467867"><ele>476.0</ele><time>2026-05-02T11:23:40.279Z</time></trkpt><trkpt lat="45.8721776" lon="11.6467984"><ele>476.0</ele><time>2026-05-02T11:23:44.279Z</time></trkpt><trkpt lat="45.8722555" lon="11.646797"><ele>476.0</ele><time>2026-05-02T11:23:49.279Z</time></trkpt><trkpt lat="45.8723209" lon="11.6468104"><ele>476.0</ele><time>2026-05-02T11:23:53.28Z</time></trkpt><trkpt lat="45.8723838" lon="11.6468478"><ele>476.0</ele><time>2026-05-02T11:23:57.28Z</time></trkpt><trkpt lat="45.8723191" lon="11.6468931"><ele>476.0</ele><time>2026-05-02T11:24:00.28Z</time></trkpt><trkpt lat="45.8722525" lon="11.6468726"><ele>476.0</ele><time>2026-05-02T11:24:03.279Z</time></trkpt><trkpt lat="45.8721875" lon="11.646849"><ele>476.0</ele><time>2026-05-02T11:24:07.28Z</time></trkpt><trkpt lat="45.8721179" lon="11.6468596"><ele>476.0</ele><time>2026-05-02T11:24:11.28Z</time></trkpt><trkpt lat="45.8720396" lon="11.6468393"><ele>476.0</ele><time>2026-05-02T11:24:16.28Z</time></trkpt><trkpt lat="45.8719733" lon="11.6468303"><ele>476.0</ele><time>2026-05-02T11:24:19.28Z</time></trkpt><trkpt lat="45.8718977" lon="11.6467918"><ele>476.0</ele><time>2026-05-02T11:24:23.28Z</time></trkpt><trkpt lat="45.8718306" lon="11.6468008"><ele>479.0</ele><time>2026-05-02T11:24:26.279Z</time></trkpt><trkpt lat="45.8717652" lon="11.6468169"><ele>482.0</ele><time>2026-05-02T11:24:29.28Z</time></trkpt><trkpt lat="45.8717016" lon="11.646824"><ele>485.0</ele><time>2026-05-02T11:24:33.279Z</time></trkpt><trkpt lat="45.8716295" lon="11.6468461"><ele>488.0</ele><time>2026-05-02T11:24:37.279Z</time></trkpt><trkpt lat="45.8715675" lon="11.6469029"><ele>491.0</ele><time>2026-05-02T11:24:41.28Z</time></trkpt><trkpt lat="45.8715421" lon="11.646996"><ele>494.0</ele><time>2026-05-02T11:24:45.28Z</time></trkpt><trkpt lat="45.8715192" lon="11.6471011"><ele>497.0</ele><time>2026-05-02T11:24:50.28Z</time></trkpt><trkpt lat="45.871517" lon="11.6472154"><ele>497.0</ele><time>2026-05-02T11:24:54.279Z</time></trkpt><trkpt lat="45.8714672" lon="11.6472869"><ele>497.0</ele><time>2026-05-02T11:24:58.28Z</time></trkpt><trkpt lat="45.8714167" lon="11.6473635"><ele>497.0</ele><time>2026-05-02T11:25:03.281Z</time></trkpt><trkpt lat="45.8713756" lon="11.6474646"><ele>497.0</ele><time>2026-05-02T11:25:08.281Z</time></trkpt><trkpt lat="45.8713281" lon="11.6475369"><ele>497.0</ele><time>2026-05-02T11:25:12.281Z</time></trkpt><trkpt lat="45.8712745" lon="11.647608"><ele>497.0</ele><time>2026-05-02T11:25:16.281Z</time></trkpt><trkpt lat="45.8712175" lon="11.6476742"><ele>497.0</ele><time>2026-05-02T11:25:20.281Z</time></trkpt><trkpt lat="45.8711587" lon="11.6477396"><ele>497.0</ele><time>2026-05-02T11:25:24.281Z</time></trkpt><trkpt lat="45.8710893" lon="11.6477798"><ele>497.0</ele><time>2026-05-02T11:25:28.281Z</time></trkpt><trkpt lat="45.8710369" lon="11.6478421"><ele>497.0</ele><time>2026-05-02T11:25:31.281Z</time></trkpt><trkpt lat="45.8709751" lon="11.6478596"><ele>497.0</ele><time>2026-05-02T11:25:34.281Z</time></trkpt><trkpt lat="45.8709031" lon="11.6478969"><ele>497.0</ele><time>2026-05-02T11:25:39.354Z</time></trkpt><trkpt lat="45.8708319" lon="11.647946"><ele>497.0</ele><time>2026-05-02T11:25:44.387Z</time></trkpt><trkpt lat="45.8707873" lon="11.6480407"><ele>497.0</ele><time>2026-05-02T11:25:49.322Z</time></trkpt><trkpt lat="45.8707748" lon="11.6481472"><ele>495.66666666666663</ele><time>2026-05-02T11:25:53.365Z</time></trkpt><trkpt lat="45.8707514" lon="11.6482599"><ele>494.3333333333333</ele><time>2026-05-02T11:25:57.292Z</time></trkpt><trkpt lat="45.8707412" lon="11.6483794"><ele>493.0</ele><time>2026-05-02T11:26:01.32Z</time></trkpt><trkpt lat="45.8707546" lon="11.6484754"><ele>491.66666666666663</ele><time>2026-05-02T11:26:05.348Z</time></trkpt><trkpt lat="45.8707762" lon="11.6485693"><ele>490.3333333333333</ele><time>2026-05-02T11:26:08.369Z</time></trkpt><trkpt lat="45.8708014" lon="11.6486953"><ele>489.0</ele><time>2026-05-02T11:26:11.383Z</time></trkpt><trkpt lat="45.8707928" lon="11.6487964"><ele>492.28571428571433</ele><time>2026-05-02T11:26:14.31Z</time></trkpt><trkpt lat="45.8707632" lon="11.6488786"><ele>495.5714285714286</ele><time>2026-05-02T11:26:18.337Z</time></trkpt><trkpt lat="45.8706952" lon="11.6489116"><ele>498.8571428571429</ele><time>2026-05-02T11:26:23.288Z</time></trkpt><trkpt lat="45.870619" lon="11.6489648"><ele>502.1428571428571</ele><time>2026-05-02T11:26:28.322Z</time></trkpt><trkpt lat="45.8705355" lon="11.6490001"><ele>505.4285714285714</ele><time>2026-05-02T11:26:32.35Z</time></trkpt><trkpt lat="45.8704748" lon="11.6490387"><ele>508.71428571428567</ele><time>2026-05-02T11:26:36.378Z</time></trkpt><trkpt lat="45.8704117" lon="11.6490741"><ele>512.0</ele><time>2026-05-02T11:26:39.298Z</time></trkpt><trkpt lat="45.8703526" lon="11.6491306"><ele>511.99999999999994</ele><time>2026-05-02T11:26:44.333Z</time></trkpt><trkpt lat="45.8702788" lon="11.6491979"><ele>512.0</ele><time>2026-05-02T11:26:47.354Z</time></trkpt><trkpt lat="45.8702116" lon="11.6492483"><ele>512.0</ele><time>2026-05-02T11:26:51.381Z</time></trkpt><trkpt lat="45.8701455" lon="11.6492991"><ele>512.0</ele><time>2026-05-02T11:26:54.301Z</time></trkpt><trkpt lat="45.8700945" lon="11.6493634"><ele>511.99999999999994</ele><time>2026-05-02T11:26:59.336Z</time></trkpt><trkpt lat="45.8700385" lon="11.6494358"><ele>512.0</ele><time>2026-05-02T11:27:04.37Z</time></trkpt><trkpt lat="45.8699744" lon="11.6495096"><ele>512.0</ele><time>2026-05-02T11:27:09.305Z</time></trkpt><trkpt lat="45.8699174" lon="11.6495515"><ele>511.99999999999994</ele><time>2026-05-02T11:27:12.282Z</time></trkpt><trkpt lat="45.869861" lon="11.6495947"><ele>512.0</ele><time>2026-05-02T11:27:16.282Z</time></trkpt><trkpt lat="45.8697885" lon="11.6496478"><ele>512.0</ele><time>2026-05-02T11:27:20.283Z</time></trkpt><trkpt lat="45.8697284" lon="11.6497133"><ele>511.99999999999994</ele><time>2026-05-02T11:27:25.283Z</time></trkpt><trkpt lat="45.8696602" lon="11.6497417"><ele>512.0</ele><time>2026-05-02T11:27:30.283Z</time></trkpt><trkpt lat="45.8695984" lon="11.6497765"><ele>512.0</ele><time>2026-05-02T11:27:34.282Z</time></trkpt><trkpt lat="45.8695337" lon="11.6498114"><ele>512.0</ele><time>2026-05-02T11:27:38.283Z</time></trkpt><trkpt lat="45.8694664" lon="11.6498453"><ele>511.99999999999994</ele><time>2026-05-02T11:27:42.283Z</time></trkpt><trkpt lat="45.869393" lon="11.6498756"><ele>512.0</ele><time>2026-05-02T11:27:46.283Z</time></trkpt><trkpt lat="45.869323" lon="11.6499074"><ele>512.0</ele><time>2026-05-02T11:27:51.283Z</time></trkpt><trkpt lat="45.8692601" lon="11.6499377"><ele>511.99999999999994</ele><time>2026-05-02T11:27:56.283Z</time></trkpt><trkpt lat="45.8691988" lon="11.6499918"><ele>512.0</ele><time>2026-05-02T11:28:00.282Z</time></trkpt><trkpt lat="45.8691277" lon="11.6500385"><ele>512.0</ele><time>2026-05-02T11:28:05.283Z</time></trkpt><trkpt lat="45.8690741" lon="11.6500947"><ele>512.0</ele><time>2026-05-02T11:28:09.283Z</time></trkpt><trkpt lat="45.8690614" lon="11.65019"><ele>511.99999999999994</ele><time>2026-05-02T11:28:13.283Z</time></trkpt><trkpt lat="45.8691268" lon="11.6502365"><ele>512.0</ele><time>2026-05-02T11:28:18.283Z</time></trkpt><trkpt lat="45.8691913" lon="11.6501928"><ele>512.0</ele><time>2026-05-02T11:28:21.282Z</time></trkpt><trkpt lat="45.8692624" lon="11.6501559"><ele>511.99999999999994</ele><time>2026-05-02T11:28:25.282Z</time></trkpt><trkpt lat="45.8693253" lon="11.650102"><ele>512.0</ele><time>2026-05-02T11:28:29.283Z</time></trkpt><trkpt lat="45.8693861" lon="11.6500745"><ele>512.0</ele><time>2026-05-02T11:28:33.284Z</time></trkpt><trkpt lat="45.8694649" lon="11.6500597"><ele>512.0</ele><time>2026-05-02T11:28:38.284Z</time></trkpt><trkpt lat="45.8695333" lon="11.6500501"><ele>511.99999999999994</ele><time>2026-05-02T11:28:42.284Z</time></trkpt><trkpt lat="45.8696107" lon="11.6500368"><ele>512.0</ele><time>2026-05-02T11:28:47.283Z</time></trkpt><trkpt lat="45.8696814" lon="11.6500232"><ele>512.0</ele><time>2026-05-02T11:28:51.284Z</time></trkpt><trkpt lat="45.8697463" lon="11.6499913"><ele>511.99999999999994</ele><time>2026-05-02T11:28:55.284Z</time></trkpt><trkpt lat="45.8698161" lon="11.649956"><ele>512.0</ele><time>2026-05-02T11:28:59.284Z</time></trkpt><trkpt lat="45.8698786" lon="11.6499437"><ele>512.0</ele><time>2026-05-02T11:29:03.283Z</time></trkpt><trkpt lat="45.8699445" lon="11.6499436"><ele>512.0</ele><time>2026-05-02T11:29:07.284Z</time></trkpt><trkpt lat="45.8700114" lon="11.6499173"><ele>511.99999999999994</ele><time>2026-05-02T11:29:11.284Z</time></trkpt><trkpt lat="45.8700819" lon="11.6498991"><ele>512.0</ele><time>2026-05-02T11:29:16.284Z</time></trkpt><trkpt lat="45.8701511" lon="11.649869"><ele>512.0</ele><time>2026-05-02T11:29:21.284Z</time></trkpt><trkpt lat="45.8702252" lon="11.6498282"><ele>511.99999999999994</ele><time>2026-05-02T11:29:25.284Z</time></trkpt><trkpt lat="45.8702966" lon="11.6497928"><ele>512.0</ele><time>2026-05-02T11:29:29.284Z</time></trkpt><trkpt lat="45.8703485" lon="11.6497399"><ele>512.0</ele><time>2026-05-02T11:29:34.283Z</time></trkpt><trkpt lat="45.8704193" lon="11.6496778"><ele>512.0</ele><time>2026-05-02T11:29:39.285Z</time></trkpt><trkpt lat="45.8704812" lon="11.6496416"><ele>511.99999999999994</ele><time>2026-05-02T11:29:43.285Z</time></trkpt><trkpt lat="45.8705619" lon="11.6496252"><ele>512.0</ele><time>2026-05-02T11:29:46.284Z</time></trkpt><trkpt lat="45.8706331" lon="11.6495936"><ele>512.0</ele><time>2026-05-02T11:29:51.285Z</time></trkpt><trkpt lat="45.8706936" lon="11.6495339"><ele>511.99999999999994</ele><time>2026-05-02T11:29:55.285Z</time></trkpt><trkpt lat="45.8707415" lon="11.6494535"><ele>512.0</ele><time>2026-05-02T11:30:00.285Z</time></trkpt><trkpt lat="45.8708024" lon="11.6494107"><ele>512.0</ele><time>2026-05-02T11:30:05.285Z</time></trkpt><trkpt lat="45.8708681" lon="11.6493715"><ele>512.0</ele><time>2026-05-02T11:30:09.284Z</time></trkpt><trkpt lat="45.8709306" lon="11.6493452"><ele>511.99999999999994</ele><time>2026-05-02T11:30:13.285Z</time></trkpt><trkpt lat="45.8709941" lon="11.6493157"><ele>512.0</ele><time>2026-05-02T11:30:17.285Z</time></trkpt><trkpt lat="45.8710626" lon="11.6492767"><ele>512.0</ele><time>2026-05-02T11:30:21.285Z</time></trkpt><trkpt lat="45.8711233" lon="11.6491961"><ele>511.99999999999994</ele><time>2026-05-02T11:30:26.285Z</time></trkpt><trkpt lat="45.8711698" lon="11.6490964"><ele>512.0</ele><time>2026-05-02T11:30:31.285Z</time></trkpt><trkpt lat="45.8711876" lon="11.6489917"><ele>512.0</ele><time>2026-05-02T11:30:35.285Z</time></trkpt><trkpt lat="45.8712065" lon="11.6488942"><ele>515.2857142857142</ele><time>2026-05-02T11:30:39.285Z</time></trkpt><trkpt lat="45.8712228" lon="11.6487876"><ele>518.5714285714286</ele><time>2026-05-02T11:30:43.285Z</time></trkpt><trkpt lat="45.8712676" lon="11.6487187"><ele>521.8571428571429</ele><time>2026-05-02T11:30:47.285Z</time></trkpt><trkpt lat="45.8712886" lon="11.6486296"><ele>525.1428571428571</ele><time>2026-05-02T11:30:51.286Z</time></trkpt><trkpt lat="45.8713311" lon="11.6485264"><ele>528.4285714285714</ele><time>2026-05-02T11:30:55.286Z</time></trkpt><trkpt lat="45.8713988" lon="11.6485241"><ele>531.7142857142857</ele><time>2026-05-02T11:30:59.286Z</time></trkpt><trkpt lat="45.8713914" lon="11.6486267"><ele>535.0</ele><time>2026-05-02T11:31:02.286Z</time></trkpt><trkpt lat="45.8713467" lon="11.6487037"><ele>537.4285714285714</ele><time>2026-05-02T11:31:05.285Z</time></trkpt><trkpt lat="45.8713074" lon="11.6487962"><ele>539.8571428571429</ele><time>2026-05-02T11:31:09.286Z</time></trkpt><trkpt lat="45.8713005" lon="11.6488977"><ele>542.2857142857143</ele><time>2026-05-02T11:31:13.286Z</time></trkpt><trkpt lat="45.8712773" lon="11.6489886"><ele>544.7142857142858</ele><time>2026-05-02T11:31:17.286Z</time></trkpt><trkpt lat="45.8712852" lon="11.649097"><ele>547.1428571428572</ele><time>2026-05-02T11:31:21.286Z</time></trkpt><trkpt lat="45.8713093" lon="11.6491871"><ele>549.5714285714286</ele><time>2026-05-02T11:31:26.286Z</time></trkpt><trkpt lat="45.8712925" lon="11.6492842"><ele>552.0</ele><time>2026-05-02T11:31:30.286Z</time></trkpt><trkpt lat="45.8712506" lon="11.6493824"><ele>552.0</ele><time>2026-05-02T11:31:35.286Z</time></trkpt><trkpt lat="45.87119" lon="11.6494428"><ele>552.0</ele><time>2026-05-02T11:31:39.285Z</time></trkpt><trkpt lat="45.8711187" lon="11.6495002"><ele>552.0</ele><time>2026-05-02T11:31:43.286Z</time></trkpt><trkpt lat="45.8710588" lon="11.6495764"><ele>552.0</ele><time>2026-05-02T11:31:48.286Z</time></trkpt><trkpt lat="45.871012" lon="11.6496416"><ele>552.0</ele><time>2026-05-02T11:31:51.286Z</time></trkpt><trkpt lat="45.8709476" lon="11.6496988"><ele>552.0</ele><time>2026-05-02T11:31:55.285Z</time></trkpt><trkpt lat="45.8708828" lon="11.6497612"><ele>553.7142857142858</ele><time>2026-05-02T11:31:59.286Z</time></trkpt><trkpt lat="45.8708293" lon="11.6498386"><ele>555.4285714285714</ele><time>2026-05-02T11:32:03.287Z</time></trkpt><trkpt lat="45.870781" lon="11.6499266"><ele>557.1428571428571</ele><time>2026-05-02T11:32:08.287Z</time></trkpt><trkpt lat="45.8707382" lon="11.6499973"><ele>558.8571428571429</ele><time>2026-05-02T11:32:11.287Z</time></trkpt><trkpt lat="45.8706996" lon="11.6500912"><ele>560.5714285714286</ele><time>2026-05-02T11:32:15.286Z</time></trkpt><trkpt lat="45.8706549" lon="11.6501738"><ele>562.2857142857143</ele><time>2026-05-02T11:32:19.286Z</time></trkpt><trkpt lat="45.8706139" lon="11.6502486"><ele>564.0</ele><time>2026-05-02T11:32:23.287Z</time></trkpt><trkpt lat="45.8705532" lon="11.650313"><ele>564.0</ele><time>2026-05-02T11:32:27.286Z</time></trkpt><trkpt lat="45.8704887" lon="11.6503603"><ele>564.0</ele><time>2026-05-02T11:32:31.287Z</time></trkpt><trkpt lat="45.8708293" lon="11.6498386"><ele>564.0</ele><time>2026-05-02T11:32:03.287Z</time></trkpt><trkpt lat="45.870781" lon="11.6499266"><ele>564.0</ele><time>2026-05-02T11:32:08.287Z</time></trkpt><trkpt lat="45.8707382" lon="11.6499973"><ele>564.0</ele><time>2026-05-02T11:32:11.287Z</time></trkpt><trkpt lat="45.8706996" lon="11.6500912"><ele>564.0</ele><time>2026-05-02T11:32:15.286Z</time></trkpt><trkpt lat="45.8706549" lon="11.6501738"><ele>564.0</ele><time>2026-05-02T11:32:19.286Z</time></trkpt><trkpt lat="45.8706139" lon="11.6502486"><ele>564.0</ele><time>2026-05-02T11:32:23.287Z</time></trkpt><trkpt lat="45.8705532" lon="11.650313"><ele>564.0</ele><time>2026-05-02T11:32:27.286Z</time></trkpt><trkpt lat="45.8704887" lon="11.6503603"><ele>564.0</ele><time>2026-05-02T11:32:31.287Z</time></trkpt><trkpt lat="45.8704302" lon="11.6504088"><ele>564.0</ele><time>2026-05-02T11:32:35.287Z</time></trkpt><trkpt lat="45.8703865" lon="11.6504908"><ele>564.0</ele><time>2026-05-02T11:32:40.287Z</time></trkpt><trkpt lat="45.8704424" lon="11.6505568"><ele>564.0</ele><time>2026-05-02T11:32:45.286Z</time></trkpt><trkpt lat="45.870503" lon="11.6504681"><ele>564.0</ele><time>2026-05-02T11:32:48.287Z</time></trkpt><trkpt lat="45.8705519" lon="11.650411"><ele>564.0</ele><time>2026-05-02T11:32:51.287Z</time></trkpt><trkpt lat="45.8706129" lon="11.6503549"><ele>564.0</ele><time>2026-05-02T11:32:55.287Z</time></trkpt><trkpt lat="45.8706697" lon="11.650279"><ele>565.0</ele><time>2026-05-02T11:32:59.332Z</time></trkpt><trkpt lat="45.8707324" lon="11.6502205"><ele>566.0</ele><time>2026-05-02T11:33:03.359Z</time></trkpt><trkpt lat="45.8707828" lon="11.6501599"><ele>567.0</ele><time>2026-05-02T11:33:07.388Z</time></trkpt><trkpt lat="45.8708486" lon="11.6500937"><ele>568.0</ele><time>2026-05-02T11:33:11.315Z</time></trkpt><trkpt lat="45.8709136" lon="11.6500393"><ele>569.0</ele><time>2026-05-02T11:33:16.349Z</time></trkpt><trkpt lat="45.8709609" lon="11.6499678"><ele>570.0</ele><time>2026-05-02T11:33:20.376Z</time></trkpt><trkpt lat="45.8710236" lon="11.6498875"><ele>571.0</ele><time>2026-05-02T11:33:24.303Z</time></trkpt><trkpt lat="45.8710817" lon="11.6498261"><ele>571.0</ele><time>2026-05-02T11:33:27.287Z</time></trkpt><trkpt lat="45.8711427" lon="11.6497709"><ele>571.0</ele><time>2026-05-02T11:33:31.288Z</time></trkpt><trkpt lat="45.8712075" lon="11.6497266"><ele>571.0</ele><time>2026-05-02T11:33:35.288Z</time></trkpt><trkpt lat="45.8712621" lon="11.6496785"><ele>571.0</ele><time>2026-05-02T11:33:39.288Z</time></trkpt><trkpt lat="45.8713225" lon="11.649641"><ele>571.0</ele><time>2026-05-02T11:33:43.288Z</time></trkpt><trkpt lat="45.8714005" lon="11.6496088"><ele>571.0</ele><time>2026-05-02T11:33:47.288Z</time></trkpt><trkpt lat="45.8714598" lon="11.649555"><ele>571.0</ele><time>2026-05-02T11:33:51.288Z</time></trkpt><trkpt lat="45.8715096" lon="11.649466"><ele>568.2857142857143</ele><time>2026-05-02T11:33:55.288Z</time></trkpt><trkpt lat="45.8715249" lon="11.6493587"><ele>565.5714285714286</ele><time>2026-05-02T11:33:59.288Z</time></trkpt><trkpt lat="45.8715284" lon="11.6492621"><ele>562.8571428571429</ele><time>2026-05-02T11:34:03.288Z</time></trkpt><trkpt lat="45.8715436" lon="11.6491632"><ele>560.1428571428571</ele><time>2026-05-02T11:34:07.287Z</time></trkpt><trkpt lat="45.8715626" lon="11.6490718"><ele>557.4285714285714</ele><time>2026-05-02T11:34:11.328Z</time></trkpt><trkpt lat="45.8715933" lon="11.6489737"><ele>554.7142857142858</ele><time>2026-05-02T11:34:15.357Z</time></trkpt><trkpt lat="45.8716382" lon="11.6488911"><ele>552.0</ele><time>2026-05-02T11:34:19.383Z</time></trkpt><trkpt lat="45.8716908" lon="11.6488055"><ele>552.0</ele><time>2026-05-02T11:34:23.311Z</time></trkpt><trkpt lat="45.8717394" lon="11.648715"><ele>552.0</ele><time>2026-05-02T11:34:27.338Z</time></trkpt><trkpt lat="45.8717648" lon="11.6486123"><ele>552.0</ele><time>2026-05-02T11:34:31.367Z</time></trkpt><trkpt lat="45.8718151" lon="11.6486734"><ele>552.0</ele><time>2026-05-02T11:34:37.308Z</time></trkpt><trkpt lat="45.8717704" lon="11.6487385"><ele>552.0</ele><time>2026-05-02T11:34:40.329Z</time></trkpt><trkpt lat="45.8717241" lon="11.6488288"><ele>552.0</ele><time>2026-05-02T11:34:44.357Z</time></trkpt><trkpt lat="45.8717011" lon="11.6489421"><ele>552.0</ele><time>2026-05-02T11:34:48.384Z</time></trkpt><trkpt lat="45.8716713" lon="11.649037"><ele>552.0</ele><time>2026-05-02T11:34:52.312Z</time></trkpt><trkpt lat="45.8716558" lon="11.6491402"><ele>552.0</ele><time>2026-05-02T11:34:56.34Z</time></trkpt><trkpt lat="45.8716515" lon="11.6492448"><ele>552.0</ele><time>2026-05-02T11:35:00.367Z</time></trkpt><trkpt lat="45.8716521" lon="11.6493497"><ele>552.0</ele><time>2026-05-02T11:35:04.295Z</time></trkpt><trkpt lat="45.8716739" lon="11.6494485"><ele>552.0</ele><time>2026-05-02T11:35:08.323Z</time></trkpt><trkpt lat="45.8716802" lon="11.6495549"><ele>552.0</ele><time>2026-05-02T11:35:12.35Z</time></trkpt><trkpt lat="45.8716298" lon="11.6496295"><ele>552.0</ele><time>2026-05-02T11:35:16.378Z</time></trkpt><trkpt lat="45.8715746" lon="11.6497034"><ele>554.7142857142858</ele><time>2026-05-02T11:35:21.313Z</time></trkpt><trkpt lat="45.8715162" lon="11.6497445"><ele>557.4285714285714</ele><time>2026-05-02T11:35:25.341Z</time></trkpt><trkpt lat="45.8714443" lon="11.6498157"><ele>560.1428571428571</ele><time>2026-05-02T11:35:29.369Z</time></trkpt><trkpt lat="45.8713966" lon="11.6498749"><ele>562.8571428571429</ele><time>2026-05-02T11:35:32.29Z</time></trkpt><trkpt lat="45.8713553" lon="11.6499708"><ele>565.5714285714286</ele><time>2026-05-02T11:35:36.317Z</time></trkpt><trkpt lat="45.8713263" lon="11.6500816"><ele>568.2857142857143</ele><time>2026-05-02T11:35:40.248Z</time></trkpt><trkpt lat="45.8712953" lon="11.6501732"><ele>571.0</ele><time>2026-05-02T11:35:44.371Z</time></trkpt><trkpt lat="45.8712613" lon="11.6502617"><ele>570.0</ele><time>2026-05-02T11:35:48.299Z</time></trkpt><trkpt lat="45.8712293" lon="11.6503585"><ele>569.0</ele><time>2026-05-02T11:35:52.327Z</time></trkpt><trkpt lat="45.8711728" lon="11.6504411"><ele>568.0</ele><time>2026-05-02T11:35:57.362Z</time></trkpt><trkpt lat="45.8711208" lon="11.6505122"><ele>567.0</ele><time>2026-05-02T11:36:01.29Z</time></trkpt><trkpt lat="45.8710755" lon="11.6505906"><ele>566.0</ele><time>2026-05-02T11:36:05.316Z</time></trkpt><trkpt lat="45.8710232" lon="11.6506554"><ele>565.0</ele><time>2026-05-02T11:36:10.352Z</time></trkpt><trkpt lat="45.8709724" lon="11.6507103"><ele>564.0</ele><time>2026-05-02T11:36:14.38Z</time></trkpt><trkpt lat="45.8709164" lon="11.6507584"><ele>564.0</ele><time>2026-05-02T11:36:17.3Z</time></trkpt><trkpt lat="45.8708658" lon="11.6508172"><ele>564.0</ele><time>2026-05-02T11:36:20.321Z</time></trkpt><trkpt lat="45.8708174" lon="11.6508897"><ele>564.0</ele><time>2026-05-02T11:36:24.349Z</time></trkpt><trkpt lat="45.8707609" lon="11.6509577"><ele>564.0</ele><time>2026-05-02T11:36:28.289Z</time></trkpt><trkpt lat="45.8707115" lon="11.651035"><ele>564.0</ele><time>2026-05-02T11:36:33.289Z</time></trkpt><trkpt lat="45.8706511" lon="11.6510768"><ele>564.0</ele><time>2026-05-02T11:36:37.29Z</time></trkpt><trkpt lat="45.8705863" lon="11.6511034"><ele>564.0</ele><time>2026-05-02T11:36:40.29Z</time></trkpt><trkpt lat="45.8705242" lon="11.6511226"><ele>568.8571428571429</ele><time>2026-05-02T11:36:43.291Z</time></trkpt><trkpt lat="45.8704443" lon="11.6511631"><ele>573.7142857142857</ele><time>2026-05-02T11:36:47.291Z</time></trkpt><trkpt lat="45.8703721" lon="11.6511758"><ele>578.5714285714286</ele><time>2026-05-02T11:36:51.291Z</time></trkpt><trkpt lat="45.8702931" lon="11.6511705"><ele>583.4285714285714</ele><time>2026-05-02T11:36:56.291Z</time></trkpt><trkpt lat="45.8702203" lon="11.65117"><ele>588.2857142857143</ele><time>2026-05-02T11:37:00.291Z</time></trkpt><trkpt lat="45.8701534" lon="11.6511773"><ele>593.1428571428571</ele><time>2026-05-02T11:37:04.29Z</time></trkpt><trkpt lat="45.8701195" lon="11.6512644"><ele>598.0</ele><time>2026-05-02T11:37:08.291Z</time></trkpt><trkpt lat="45.8701507" lon="11.6513653"><ele>598.0</ele><time>2026-05-02T11:37:12.291Z</time></trkpt><trkpt lat="45.8702205" lon="11.6513883"><ele>598.0</ele><time>2026-05-02T11:37:15.29Z</time></trkpt><trkpt lat="45.8702873" lon="11.6513596"><ele>598.0</ele><time>2026-05-02T11:37:18.291Z</time></trkpt><trkpt lat="45.870364" lon="11.6513259"><ele>598.0</ele><time>2026-05-02T11:37:22.291Z</time></trkpt><trkpt lat="45.8704317" lon="11.6512799"><ele>598.0</ele><time>2026-05-02T11:37:26.291Z</time></trkpt><trkpt lat="45.8704951" lon="11.6512627"><ele>598.0</ele><time>2026-05-02T11:37:30.291Z</time></trkpt><trkpt lat="45.8705704" lon="11.6512414"><ele>598.0</ele><time>2026-05-02T11:37:35.29Z</time></trkpt><trkpt lat="45.8706456" lon="11.6512357"><ele>598.0</ele><time>2026-05-02T11:37:39.291Z</time></trkpt><trkpt lat="45.8707163" lon="11.6512255"><ele>598.0</ele><time>2026-05-02T11:37:43.29Z</time></trkpt><trkpt lat="45.8707946" lon="11.6511957"><ele>598.0</ele><time>2026-05-02T11:37:47.29Z</time></trkpt><trkpt lat="45.8708576" lon="11.6511631"><ele>598.0</ele><time>2026-05-02T11:37:50.291Z</time></trkpt><trkpt lat="45.8709295" lon="11.6511235"><ele>598.0</ele><time>2026-05-02T11:37:54.291Z</time></trkpt><trkpt lat="45.8710059" lon="11.6510852"><ele>598.0</ele><time>2026-05-02T11:37:58.292Z</time></trkpt><trkpt lat="45.8710665" lon="11.6510359"><ele>598.0</ele><time>2026-05-02T11:38:02.292Z</time></trkpt><trkpt lat="45.8711234" lon="11.6509845"><ele>598.0</ele><time>2026-05-02T11:38:06.292Z</time></trkpt><trkpt lat="45.8711869" lon="11.6509284"><ele>598.0</ele><time>2026-05-02T11:38:11.292Z</time></trkpt><trkpt lat="45.8712381" lon="11.6508736"><ele>598.0</ele><time>2026-05-02T11:38:14.292Z</time></trkpt><trkpt lat="45.8712952" lon="11.6508277"><ele>598.0</ele><time>2026-05-02T11:38:18.292Z</time></trkpt><trkpt lat="45.8713613" lon="11.650762"><ele>598.0</ele><time>2026-05-02T11:38:22.291Z</time></trkpt><trkpt lat="45.8714068" lon="11.6506857"><ele>598.0</ele><time>2026-05-02T11:38:26.291Z</time></trkpt><trkpt lat="45.8714516" lon="11.6506009"><ele>598.0</ele><time>2026-05-02T11:38:30.292Z</time></trkpt><trkpt lat="45.871494" lon="11.6505181"><ele>598.0</ele><time>2026-05-02T11:38:34.292Z</time></trkpt><trkpt lat="45.8715563" lon="11.6504569"><ele>598.0</ele><time>2026-05-02T11:38:38.292Z</time></trkpt><trkpt lat="45.8716107" lon="11.6504016"><ele>598.0</ele><time>2026-05-02T11:38:43.292Z</time></trkpt><trkpt lat="45.8716551" lon="11.6503187"><ele>598.0</ele><time>2026-05-02T11:38:47.292Z</time></trkpt><trkpt lat="45.8717154" lon="11.6502623"><ele>598.0</ele><time>2026-05-02T11:38:50.292Z</time></trkpt><trkpt lat="45.871781" lon="11.650188"><ele>598.0</ele><time>2026-05-02T11:38:55.292Z</time></trkpt><trkpt lat="45.871824" lon="11.6501161"><ele>598.0</ele><time>2026-05-02T11:38:59.291Z</time></trkpt><trkpt lat="45.8718832" lon="11.650061"><ele>600.0</ele><time>2026-05-02T11:39:04.292Z</time></trkpt><trkpt lat="45.871942" lon="11.6500087"><ele>602.0</ele><time>2026-05-02T11:39:09.293Z</time></trkpt><trkpt lat="45.8720189" lon="11.6499978"><ele>604.0</ele><time>2026-05-02T11:39:15.293Z</time></trkpt><trkpt lat="45.8720913" lon="11.6499279"><ele>606.0</ele><time>2026-05-02T11:39:19.293Z</time></trkpt><trkpt lat="45.8721392" lon="11.6498449"><ele>608.0</ele><time>2026-05-02T11:39:23.292Z</time></trkpt><trkpt lat="45.872142" lon="11.6497504"><ele>610.0</ele><time>2026-05-02T11:39:28.293Z</time></trkpt><trkpt lat="45.8721396" lon="11.6496434"><ele>612.0</ele><time>2026-05-02T11:39:34.293Z</time></trkpt><trkpt lat="45.8721525" lon="11.6495396"><ele>609.4285714285714</ele><time>2026-05-02T11:39:39.293Z</time></trkpt><trkpt lat="45.8721749" lon="11.6494544"><ele>606.8571428571429</ele><time>2026-05-02T11:39:42.293Z</time></trkpt><trkpt lat="45.8722177" lon="11.6493732"><ele>604.2857142857143</ele><time>2026-05-02T11:39:46.293Z</time></trkpt><trkpt lat="45.8722513" lon="11.6492827"><ele>601.7142857142858</ele><time>2026-05-02T11:39:50.292Z</time></trkpt><trkpt lat="45.8723011" lon="11.6491981"><ele>599.1428571428572</ele><time>2026-05-02T11:39:54.293Z</time></trkpt><trkpt lat="45.8723475" lon="11.6491171"><ele>596.5714285714286</ele><time>2026-05-02T11:39:58.292Z</time></trkpt><trkpt lat="45.8723993" lon="11.6490613"><ele>594.0</ele><time>2026-05-02T11:40:02.293Z</time></trkpt><trkpt lat="45.8724483" lon="11.6489887"><ele>594.0</ele><time>2026-05-02T11:40:07.293Z</time></trkpt><trkpt lat="45.8725014" lon="11.6489354"><ele>594.0</ele><time>2026-05-02T11:40:12.292Z</time></trkpt><trkpt lat="45.8725529" lon="11.6488773"><ele>594.0</ele><time>2026-05-02T11:40:15.292Z</time></trkpt><trkpt lat="45.8726155" lon="11.648824"><ele>594.0</ele><time>2026-05-02T11:40:20.293Z</time></trkpt><trkpt lat="45.8726786" lon="11.6487984"><ele>594.0</ele><time>2026-05-02T11:40:25.294Z</time></trkpt><trkpt lat="45.8727409" lon="11.6487804"><ele>594.0</ele><time>2026-05-02T11:40:29.294Z</time></trkpt><trkpt lat="45.8728052" lon="11.6487659"><ele>594.0</ele><time>2026-05-02T11:40:34.293Z</time></trkpt><trkpt lat="45.8728693" lon="11.6487448"><ele>593.7142857142858</ele><time>2026-05-02T11:40:39.294Z</time></trkpt><trkpt lat="45.8729516" lon="11.648738"><ele>593.4285714285714</ele><time>2026-05-02T11:40:44.294Z</time></trkpt><trkpt lat="45.8730147" lon="11.6487411"><ele>593.1428571428571</ele><time>2026-05-02T11:40:47.293Z</time></trkpt><trkpt lat="45.8730992" lon="11.6487245"><ele>592.8571428571429</ele><time>2026-05-02T11:40:51.294Z</time></trkpt><trkpt lat="45.8731671" lon="11.6487028"><ele>592.5714285714286</ele><time>2026-05-02T11:40:55.294Z</time></trkpt><trkpt lat="45.8732314" lon="11.6486823"><ele>592.2857142857143</ele><time>2026-05-02T11:40:59.294Z</time></trkpt><trkpt lat="45.8732906" lon="11.64863"><ele>592.0</ele><time>2026-05-02T11:41:02.293Z</time></trkpt><trkpt lat="45.8733526" lon="11.6485846"><ele>592.0</ele><time>2026-05-02T11:41:06.294Z</time></trkpt><trkpt lat="45.873413" lon="11.6485284"><ele>592.0</ele><time>2026-05-02T11:41:10.294Z</time></trkpt><trkpt lat="45.873463" lon="11.648463"><ele>592.0</ele><time>2026-05-02T11:41:14.294Z</time></trkpt><trkpt lat="45.8735269" lon="11.6484288"><ele>592.0</ele><time>2026-05-02T11:41:18.294Z</time></trkpt><trkpt lat="45.8735844" lon="11.6483752"><ele>592.0</ele><time>2026-05-02T11:41:22.294Z</time></trkpt><trkpt lat="45.8736531" lon="11.6483458"><ele>592.0</ele><time>2026-05-02T11:41:27.294Z</time></trkpt><trkpt lat="45.8737239" lon="11.6483061"><ele>592.0</ele><time>2026-05-02T11:41:32.295Z</time></trkpt><trkpt lat="45.8737866" lon="11.6482974"><ele>598.1428571428571</ele><time>2026-05-02T11:41:36.295Z</time></trkpt><trkpt lat="45.8738555" lon="11.6482863"><ele>604.2857142857142</ele><time>2026-05-02T11:41:39.294Z</time></trkpt><trkpt lat="45.8739194" lon="11.6482379"><ele>610.4285714285713</ele><time>2026-05-02T11:41:43.294Z</time></trkpt><trkpt lat="45.8739543" lon="11.648138"><ele>616.5714285714286</ele><time>2026-05-02T11:41:47.295Z</time></trkpt><trkpt lat="45.8739647" lon="11.6480373"><ele>622.7142857142857</ele><time>2026-05-02T11:41:50.295Z</time></trkpt><trkpt lat="45.8739741" lon="11.6479281"><ele>628.8571428571428</ele><time>2026-05-02T11:41:55.295Z</time></trkpt><trkpt lat="45.8740286" lon="11.6479851"><ele>635.0</ele><time>2026-05-02T11:42:02.295Z</time></trkpt><trkpt lat="45.873997" lon="11.6480822"><ele>634.9999999999999</ele><time>2026-05-02T11:42:06.295Z</time></trkpt><trkpt lat="45.8739616" lon="11.6481691"><ele>635.0</ele><time>2026-05-02T11:42:10.295Z</time></trkpt><trkpt lat="45.8739196" lon="11.6482664"><ele>635.0</ele><time>2026-05-02T11:42:14.295Z</time></trkpt><trkpt lat="45.8738607" lon="11.6483061"><ele>635.0</ele><time>2026-05-02T11:42:17.295Z</time></trkpt><trkpt lat="45.8737872" lon="11.6483345"><ele>635.0</ele><time>2026-05-02T11:42:21.294Z</time></trkpt><trkpt lat="45.8737058" lon="11.6483364"><ele>634.9999999999999</ele><time>2026-05-02T11:42:25.294Z</time></trkpt><trkpt lat="45.8736397" lon="11.6483642"><ele>635.0</ele><time>2026-05-02T11:42:29.333Z</time></trkpt><trkpt lat="45.8735749" lon="11.6483978"><ele>634.9999999999999</ele><time>2026-05-02T11:42:33.361Z</time></trkpt><trkpt lat="45.8735365" lon="11.6484753"><ele>635.0</ele><time>2026-05-02T11:42:37.389Z</time></trkpt><trkpt lat="45.8734984" lon="11.648563"><ele>635.0</ele><time>2026-05-02T11:42:41.317Z</time></trkpt><trkpt lat="45.87346" lon="11.648651"><ele>635.0</ele><time>2026-05-02T11:42:45.254Z</time></trkpt><trkpt lat="45.8734192" lon="11.6487407"><ele>635.0</ele><time>2026-05-02T11:42:50.379Z</time></trkpt><trkpt lat="45.8733758" lon="11.648826"><ele>634.9999999999999</ele><time>2026-05-02T11:42:54.306Z</time></trkpt><trkpt lat="45.8733022" lon="11.6488835"><ele>635.0</ele><time>2026-05-02T11:42:58.335Z</time></trkpt><trkpt lat="45.8732442" lon="11.6489228"><ele>634.7142857142857</ele><time>2026-05-02T11:43:02.363Z</time></trkpt><trkpt lat="45.8731805" lon="11.6489664"><ele>634.4285714285714</ele><time>2026-05-02T11:43:05.383Z</time></trkpt><trkpt lat="45.8731163" lon="11.6490043"><ele>634.1428571428571</ele><time>2026-05-02T11:43:08.303Z</time></trkpt><trkpt lat="45.8730503" lon="11.6490319"><ele>633.8571428571429</ele><time>2026-05-02T11:43:11.325Z</time></trkpt><trkpt lat="45.8729862" lon="11.6490325"><ele>633.5714285714286</ele><time>2026-05-02T11:43:14.345Z</time></trkpt><trkpt lat="45.8729049" lon="11.6490579"><ele>633.2857142857142</ele><time>2026-05-02T11:43:18.374Z</time></trkpt><trkpt lat="45.8728577" lon="11.649138"><ele>633.0</ele><time>2026-05-02T11:43:23.408Z</time></trkpt><trkpt lat="45.8728158" lon="11.649223"><ele>633.0</ele><time>2026-05-02T11:43:27.336Z</time></trkpt><trkpt lat="45.8727648" lon="11.6492991"><ele>633.0</ele><time>2026-05-02T11:43:31.296Z</time></trkpt><trkpt lat="45.8727194" lon="11.6493839"><ele>633.0</ele><time>2026-05-02T11:43:35.296Z</time></trkpt><trkpt lat="45.8726844" lon="11.6494631"><ele>633.0</ele><time>2026-05-02T11:43:38.296Z</time></trkpt><trkpt lat="45.872663" lon="11.6495551"><ele>633.0</ele><time>2026-05-02T11:43:42.295Z</time></trkpt><trkpt lat="45.8726519" lon="11.6496613"><ele>633.0</ele><time>2026-05-02T11:43:47.296Z</time></trkpt><trkpt lat="45.8726443" lon="11.6497631"><ele>633.0</ele><time>2026-05-02T11:43:52.297Z</time></trkpt><trkpt lat="45.8726306" lon="11.6498544"><ele>636.5714285714286</ele><time>2026-05-02T11:43:56.297Z</time></trkpt><trkpt lat="45.8726443" lon="11.6499639"><ele>640.1428571428571</ele><time>2026-05-02T11:44:01.297Z</time></trkpt><trkpt lat="45.872687" lon="11.6500551"><ele>643.7142857142858</ele><time>2026-05-02T11:44:05.297Z</time></trkpt><trkpt lat="45.8727171" lon="11.6501445"><ele>647.2857142857142</ele><time>2026-05-02T11:44:09.296Z</time></trkpt><trkpt lat="45.8727597" lon="11.6502129"><ele>650.8571428571429</ele><time>2026-05-02T11:44:13.297Z</time></trkpt><trkpt lat="45.8727509" lon="11.6503063"><ele>654.4285714285714</ele><time>2026-05-02T11:44:16.297Z</time></trkpt><trkpt lat="45.872751" lon="11.6504149"><ele>658.0</ele><time>2026-05-02T11:44:21.297Z</time></trkpt><trkpt lat="45.8727299" lon="11.6505064"><ele>660.4285714285714</ele><time>2026-05-02T11:44:25.297Z</time></trkpt><trkpt lat="45.8726649" lon="11.6505852"><ele>662.8571428571429</ele><time>2026-05-02T11:44:29.297Z</time></trkpt><trkpt lat="45.8726052" lon="11.650632"><ele>665.2857142857142</ele><time>2026-05-02T11:44:33.377Z</time></trkpt><trkpt lat="45.872535" lon="11.6506439"><ele>667.7142857142858</ele><time>2026-05-02T11:44:37.304Z</time></trkpt><trkpt lat="45.8724611" lon="11.650635"><ele>670.1428571428571</ele><time>2026-05-02T11:44:41.332Z</time></trkpt><trkpt lat="45.8723888" lon="11.6506216"><ele>672.5714285714286</ele><time>2026-05-02T11:44:44.352Z</time></trkpt><trkpt lat="45.8723281" lon="11.6506473"><ele>675.0</ele><time>2026-05-02T11:44:48.381Z</time></trkpt><trkpt lat="45.8722853" lon="11.6507258"><ele>672.8571428571429</ele><time>2026-05-02T11:44:52.308Z</time></trkpt><trkpt lat="45.8722517" lon="11.650808"><ele>670.7142857142858</ele><time>2026-05-02T11:44:56.336Z</time></trkpt><trkpt lat="45.8722159" lon="11.650887"><ele>668.5714285714287</ele><time>2026-05-02T11:44:59.357Z</time></trkpt><trkpt lat="45.8721842" lon="11.6509766"><ele>666.4285714285714</ele><time>2026-05-02T11:45:03.385Z</time></trkpt><trkpt lat="45.8721413" lon="11.6510724"><ele>664.2857142857143</ele><time>2026-05-02T11:45:08.318Z</time></trkpt><trkpt lat="45.8720998" lon="11.6511502"><ele>662.1428571428572</ele><time>2026-05-02T11:45:12.347Z</time></trkpt><trkpt lat="45.8720516" lon="11.6512684"><ele>660.0</ele><time>2026-05-02T11:45:15.298Z</time></trkpt><trkpt lat="45.8720256" lon="11.6513571"><ele>660.0</ele><time>2026-05-02T11:45:19.298Z</time></trkpt><trkpt lat="45.8719939" lon="11.6514692"><ele>660.0</ele><time>2026-05-02T11:45:23.298Z</time></trkpt><trkpt lat="45.8719568" lon="11.6515458"><ele>660.0</ele><time>2026-05-02T11:45:28.298Z</time></trkpt><trkpt lat="45.8719011" lon="11.6516367"><ele>660.0</ele><time>2026-05-02T11:45:33.298Z</time></trkpt><trkpt lat="45.8718479" lon="11.6517128"><ele>660.0</ele><time>2026-05-02T11:45:37.298Z</time></trkpt><trkpt lat="45.871815" lon="11.6518115"><ele>660.0</ele><time>2026-05-02T11:45:42.298Z</time></trkpt><trkpt lat="45.8717745" lon="11.6519096"><ele>656.4285714285714</ele><time>2026-05-02T11:45:47.298Z</time></trkpt><trkpt lat="45.8717309" lon="11.652006"><ele>652.8571428571429</ele><time>2026-05-02T11:45:52.298Z</time></trkpt><trkpt lat="45.8716951" lon="11.6521081"><ele>649.2857142857142</ele><time>2026-05-02T11:45:58.297Z</time></trkpt><trkpt lat="45.8716343" lon="11.6521951"><ele>645.7142857142858</ele><time>2026-05-02T11:46:02.298Z</time></trkpt><trkpt lat="45.8715926" lon="11.6522643"><ele>642.1428571428571</ele><time>2026-05-02T11:46:06.297Z</time></trkpt><trkpt lat="45.8715329" lon="11.6523264"><ele>638.5714285714286</ele><time>2026-05-02T11:46:13.299Z</time></trkpt><trkpt lat="45.8714744" lon="11.6523682"><ele>635.0</ele><time>2026-05-02T11:46:17.298Z</time></trkpt><trkpt lat="45.8714118" lon="11.6524176"><ele>634.9999999999999</ele><time>2026-05-02T11:46:22.299Z</time></trkpt><trkpt lat="45.8713766" lon="11.6525183"><ele>635.0</ele><time>2026-05-02T11:46:26.299Z</time></trkpt><trkpt lat="45.8714069" lon="11.6526224"><ele>635.0</ele><time>2026-05-02T11:46:30.299Z</time></trkpt><trkpt lat="45.8714803" lon="11.6526078"><ele>635.0</ele><time>2026-05-02T11:46:34.299Z</time></trkpt><trkpt lat="45.8715339" lon="11.6525373"><ele>635.0</ele><time>2026-05-02T11:46:39.299Z</time></trkpt><trkpt lat="45.871602" lon="11.6524838"><ele>634.9999999999999</ele><time>2026-05-02T11:46:44.299Z</time></trkpt><trkpt lat="45.871647" lon="11.6524173"><ele>635.0</ele><time>2026-05-02T11:46:48.299Z</time></trkpt><trkpt lat="45.871709" lon="11.652367"><ele>634.9999999999999</ele><time>2026-05-02T11:46:52.299Z</time></trkpt><trkpt lat="45.8717613" lon="11.6522962"><ele>635.0</ele><time>2026-05-02T11:46:56.298Z</time></trkpt><trkpt lat="45.8718198" lon="11.6522229"><ele>635.0</ele><time>2026-05-02T11:47:01.299Z</time></trkpt><trkpt lat="45.8718837" lon="11.6521766"><ele>635.0</ele><time>2026-05-02T11:47:06.299Z</time></trkpt><trkpt lat="45.871929" lon="11.6521124"><ele>635.0</ele><time>2026-05-02T11:47:10.299Z</time></trkpt><trkpt lat="45.8719785" lon="11.6520232"><ele>634.9999999999999</ele><time>2026-05-02T11:47:14.299Z</time></trkpt><trkpt lat="45.8720336" lon="11.6519494"><ele>635.0</ele><time>2026-05-02T11:47:18.299Z</time></trkpt><trkpt lat="45.8720823" lon="11.6518593"><ele>638.5714285714286</ele><time>2026-05-02T11:47:23.299Z</time></trkpt><trkpt lat="45.8721392" lon="11.6517922"><ele>642.1428571428571</ele><time>2026-05-02T11:47:28.3Z</time></trkpt><trkpt lat="45.8721978" lon="11.6517195"><ele>645.7142857142858</ele><time>2026-05-02T11:47:33.299Z</time></trkpt><trkpt lat="45.8722476" lon="11.6516377"><ele>649.2857142857142</ele><time>2026-05-02T11:47:38.3Z</time></trkpt><trkpt lat="45.8722954" lon="11.6515487"><ele>652.8571428571429</ele><time>2026-05-02T11:47:43.3Z</time></trkpt><trkpt lat="45.8723506" lon="11.6514886"><ele>656.4285714285714</ele><time>2026-05-02T11:47:48.3Z</time></trkpt><trkpt lat="45.8724086" lon="11.6514197"><ele>660.0</ele><time>2026-05-02T11:47:53.3Z</time></trkpt><trkpt lat="45.8724598" lon="11.6513459"><ele>660.0000000000001</ele><time>2026-05-02T11:47:58.3Z</time></trkpt><trkpt lat="45.8725261" lon="11.6512887"><ele>660.0</ele><time>2026-05-02T11:48:03.299Z</time></trkpt><trkpt lat="45.8725923" lon="11.6512466"><ele>660.0</ele><time>2026-05-02T11:48:07.3Z</time></trkpt><trkpt lat="45.872656" lon="11.6512254"><ele>660.0</ele><time>2026-05-02T11:48:11.3Z</time></trkpt><trkpt lat="45.8727327" lon="11.6512164"><ele>660.0</ele><time>2026-05-02T11:48:16.3Z</time></trkpt><trkpt lat="45.8727954" lon="11.6512063"><ele>660.0000000000001</ele><time>2026-05-02T11:48:20.3Z</time></trkpt><trkpt lat="45.8728651" lon="11.6512032"><ele>660.0</ele><time>2026-05-02T11:48:25.3Z</time></trkpt><trkpt lat="45.8729474" lon="11.6511689"><ele>662.5</ele><time>2026-05-02T11:48:30.299Z</time></trkpt><trkpt lat="45.8730233" lon="11.6511597"><ele>665.0</ele><time>2026-05-02T11:48:34.299Z</time></trkpt><trkpt lat="45.873098" lon="11.6511323"><ele>667.5</ele><time>2026-05-02T11:48:39.301Z</time></trkpt><trkpt lat="45.8731552" lon="11.6510636"><ele>670.0</ele><time>2026-05-02T11:48:45.301Z</time></trkpt><trkpt lat="45.8731984" lon="11.6509695"><ele>672.5</ele><time>2026-05-02T11:48:49.301Z</time></trkpt><trkpt lat="45.8732187" lon="11.6508603"><ele>675.0</ele><time>2026-05-02T11:48:53.301Z</time></trkpt><trkpt lat="45.8732257" lon="11.6507482"><ele>675.0</ele><time>2026-05-02T11:48:59.301Z</time></trkpt><trkpt lat="45.8732526" lon="11.6506576"><ele>675.0</ele><time>2026-05-02T11:49:05.301Z</time></trkpt><trkpt lat="45.8732451" lon="11.6505585"><ele>675.0</ele><time>2026-05-02T11:49:11.3Z</time></trkpt><trkpt lat="45.8732312" lon="11.6504492"><ele>675.0</ele><time>2026-05-02T11:49:16.301Z</time></trkpt><trkpt lat="45.873246" lon="11.6503456"><ele>675.0</ele><time>2026-05-02T11:49:21.301Z</time></trkpt><trkpt lat="45.8732785" lon="11.6502502"><ele>675.0</ele><time>2026-05-02T11:49:25.301Z</time></trkpt><trkpt lat="45.8733346" lon="11.6501917"><ele>675.0</ele><time>2026-05-02T11:49:28.301Z</time></trkpt><trkpt lat="45.8733912" lon="11.6501291"><ele>678.8571428571429</ele><time>2026-05-02T11:49:32.301Z</time></trkpt><trkpt lat="45.8734467" lon="11.6500766"><ele>682.7142857142858</ele><time>2026-05-02T11:49:36.301Z</time></trkpt><trkpt lat="45.8735146" lon="11.6500159"><ele>686.5714285714287</ele><time>2026-05-02T11:49:41.301Z</time></trkpt><trkpt lat="45.8735767" lon="11.6499938"><ele>690.4285714285714</ele><time>2026-05-02T11:49:45.301Z</time></trkpt><trkpt lat="45.8736361" lon="11.649957"><ele>694.2857142857143</ele><time>2026-05-02T11:49:49.302Z</time></trkpt><trkpt lat="45.8737014" lon="11.6499242"><ele>698.1428571428572</ele><time>2026-05-02T11:49:54.301Z</time></trkpt><trkpt lat="45.873765" lon="11.6498762"><ele>702.0</ele><time>2026-05-02T11:49:59.301Z</time></trkpt><trkpt lat="45.8738266" lon="11.6498291"><ele>702.0000000000001</ele><time>2026-05-02T11:50:04.302Z</time></trkpt><trkpt lat="45.8738815" lon="11.6497836"><ele>702.0</ele><time>2026-05-02T11:50:08.302Z</time></trkpt><trkpt lat="45.8739349" lon="11.6496981"><ele>702.0</ele><time>2026-05-02T11:50:12.302Z</time></trkpt><trkpt lat="45.8739814" lon="11.6496363"><ele>702.0</ele><time>2026-05-02T11:50:16.302Z</time></trkpt><trkpt lat="45.8740323" lon="11.6495687"><ele>702.0</ele><time>2026-05-02T11:50:20.302Z</time></trkpt><trkpt lat="45.8741051" lon="11.6495421"><ele>702.0000000000001</ele><time>2026-05-02T11:50:25.302Z</time></trkpt><trkpt lat="45.8741498" lon="11.6494564"><ele>702.0</ele><time>2026-05-02T11:50:29.302Z</time></trkpt><trkpt lat="45.8741965" lon="11.6493866"><ele>703.0000000000001</ele><time>2026-05-02T11:50:33.302Z</time></trkpt><trkpt lat="45.8742606" lon="11.6493757"><ele>704.0</ele><time>2026-05-02T11:50:37.302Z</time></trkpt><trkpt lat="45.8743231" lon="11.6493545"><ele>705.0</ele><time>2026-05-02T11:50:41.302Z</time></trkpt><trkpt lat="45.8743883" lon="11.6492664"><ele>706.0</ele><time>2026-05-02T11:50:45.302Z</time></trkpt><trkpt lat="45.8744456" lon="11.6491966"><ele>707.0</ele><time>2026-05-02T11:50:49.301Z</time></trkpt><trkpt lat="45.874524" lon="11.6492039"><ele>708.0000000000001</ele><time>2026-05-02T11:50:55.302Z</time></trkpt><trkpt lat="45.8745919" lon="11.6491783"><ele>709.0</ele><time>2026-05-02T11:50:59.303Z</time></trkpt><trkpt lat="45.874652" lon="11.6491164"><ele>709.0</ele><time>2026-05-02T11:51:05.302Z</time></trkpt><trkpt lat="45.8746745" lon="11.6490317"><ele>709.0</ele><time>2026-05-02T11:51:10.303Z</time></trkpt><trkpt lat="45.874709" lon="11.6489423"><ele>709.0</ele><time>2026-05-02T11:51:14.303Z</time></trkpt><trkpt lat="45.8747182" lon="11.6488438"><ele>709.0</ele><time>2026-05-02T11:51:18.303Z</time></trkpt><trkpt lat="45.8747493" lon="11.6487222"><ele>709.0</ele><time>2026-05-02T11:51:22.303Z</time></trkpt><trkpt lat="45.8748022" lon="11.6486258"><ele>709.0</ele><time>2026-05-02T11:51:25.303Z</time></trkpt><trkpt lat="45.8748743" lon="11.6485658"><ele>711.1428571428572</ele><time>2026-05-02T11:51:29.303Z</time></trkpt><trkpt lat="45.8749295" lon="11.6485215"><ele>713.2857142857143</ele><time>2026-05-02T11:51:32.302Z</time></trkpt><trkpt lat="45.8749913" lon="11.6484837"><ele>715.4285714285714</ele><time>2026-05-02T11:51:36.302Z</time></trkpt><trkpt lat="45.8750539" lon="11.648452"><ele>717.5714285714287</ele><time>2026-05-02T11:51:40.303Z</time></trkpt><trkpt lat="45.8751154" lon="11.6484108"><ele>719.7142857142857</ele><time>2026-05-02T11:51:44.303Z</time></trkpt><trkpt lat="45.8751767" lon="11.6483729"><ele>721.8571428571429</ele><time>2026-05-02T11:51:48.303Z</time></trkpt><trkpt lat="45.8752346" lon="11.6483083"><ele>724.0</ele><time>2026-05-02T11:51:52.302Z</time></trkpt><trkpt lat="45.8752994" lon="11.6482589"><ele>724.0</ele><time>2026-05-02T11:51:56.302Z</time></trkpt><trkpt lat="45.8753593" lon="11.6482243"><ele>724.0</ele><time>2026-05-02T11:51:59.303Z</time></trkpt><trkpt lat="45.8754414" lon="11.6482209"><ele>724.0</ele><time>2026-05-02T11:52:03.303Z</time></trkpt><trkpt lat="45.8755098" lon="11.6482371"><ele>724.0</ele><time>2026-05-02T11:52:06.303Z</time></trkpt><trkpt lat="45.875579" lon="11.6482301"><ele>724.0</ele><time>2026-05-02T11:52:09.302Z</time></trkpt><trkpt lat="45.8756468" lon="11.6482143"><ele>724.0</ele><time>2026-05-02T11:52:12.303Z</time></trkpt><trkpt lat="45.8757138" lon="11.6481516"><ele>724.0</ele><time>2026-05-02T11:52:15.304Z</time></trkpt><trkpt lat="45.8757553" lon="11.6480414"><ele>724.0</ele><time>2026-05-02T11:52:18.304Z</time></trkpt><trkpt lat="45.8757811" lon="11.647946"><ele>724.0</ele><time>2026-05-02T11:52:21.304Z</time></trkpt><trkpt lat="45.875806" lon="11.6478308"><ele>724.0</ele><time>2026-05-02T11:52:24.304Z</time></trkpt><trkpt lat="45.8758431" lon="11.6477304"><ele>724.0</ele><time>2026-05-02T11:52:27.304Z</time></trkpt><trkpt lat="45.8759133" lon="11.6477167"><ele>724.0</ele><time>2026-05-02T11:52:31.304Z</time></trkpt><trkpt lat="45.8759115" lon="11.6478262"><ele>724.0</ele><time>2026-05-02T11:52:34.303Z</time></trkpt><trkpt lat="45.8758704" lon="11.6478965"><ele>724.0</ele><time>2026-05-02T11:52:37.304Z</time></trkpt><trkpt lat="45.875834" lon="11.6479846"><ele>724.0</ele><time>2026-05-02T11:52:40.303Z</time></trkpt><trkpt lat="45.8757898" lon="11.6480597"><ele>724.0</ele><time>2026-05-02T11:52:43.304Z</time></trkpt><trkpt lat="45.8757138" lon="11.6481204"><ele>724.0</ele><time>2026-05-02T11:52:46.303Z</time></trkpt><trkpt lat="45.8756721" lon="11.648212"><ele>724.0</ele><time>2026-05-02T11:52:49.304Z</time></trkpt><trkpt lat="45.8756058" lon="11.6482404"><ele>724.0</ele><time>2026-05-02T11:52:52.304Z</time></trkpt><trkpt lat="45.8755434" lon="11.6482641"><ele>724.0</ele><time>2026-05-02T11:52:55.304Z</time></trkpt><trkpt lat="45.875467" lon="11.6482856"><ele>724.0</ele><time>2026-05-02T11:52:58.303Z</time></trkpt><trkpt lat="45.8754025" lon="11.6483146"><ele>724.0</ele><time>2026-05-02T11:53:01.303Z</time></trkpt><trkpt lat="45.8753323" lon="11.6483737"><ele>724.0</ele><time>2026-05-02T11:53:04.304Z</time></trkpt><trkpt lat="45.8752721" lon="11.6484452"><ele>724.0</ele><time>2026-05-02T11:53:07.304Z</time></trkpt><trkpt lat="45.8752299" lon="11.6485235"><ele>724.0</ele><time>2026-05-02T11:53:10.304Z</time></trkpt><trkpt lat="45.8751882" lon="11.6485942"><ele>724.0</ele><time>2026-05-02T11:53:13.304Z</time></trkpt><trkpt lat="45.8751296" lon="11.648675"><ele>724.0</ele><time>2026-05-02T11:53:17.304Z</time></trkpt><trkpt lat="45.8750784" lon="11.6487356"><ele>724.0</ele><time>2026-05-02T11:53:20.304Z</time></trkpt><trkpt lat="45.8750308" lon="11.6487991"><ele>721.8571428571429</ele><time>2026-05-02T11:53:23.305Z</time></trkpt><trkpt lat="45.875001" lon="11.6488901"><ele>719.7142857142857</ele><time>2026-05-02T11:53:26.305Z</time></trkpt><trkpt lat="45.8749981" lon="11.6489967"><ele>717.5714285714287</ele><time>2026-05-02T11:53:29.305Z</time></trkpt><trkpt lat="45.8750121" lon="11.6490887"><ele>715.4285714285714</ele><time>2026-05-02T11:53:32.305Z</time></trkpt><trkpt lat="45.8750222" lon="11.6491784"><ele>713.2857142857143</ele><time>2026-05-02T11:53:35.304Z</time></trkpt><trkpt lat="45.8750073" lon="11.6492979"><ele>711.1428571428572</ele><time>2026-05-02T11:53:39.305Z</time></trkpt><trkpt lat="45.8749773" lon="11.649382"><ele>709.0</ele><time>2026-05-02T11:53:42.305Z</time></trkpt><trkpt lat="45.8749343" lon="11.6494667"><ele>715.5</ele><time>2026-05-02T11:53:45.304Z</time></trkpt><trkpt lat="45.8748849" lon="11.6495299"><ele>722.0</ele><time>2026-05-02T11:53:48.305Z</time></trkpt><trkpt lat="45.8748489" lon="11.6496125"><ele>728.5</ele><time>2026-05-02T11:53:51.305Z</time></trkpt><trkpt lat="45.8748398" lon="11.6497198"><ele>735.0</ele><time>2026-05-02T11:53:54.305Z</time></trkpt><trkpt lat="45.8749031" lon="11.649752"><ele>741.5</ele><time>2026-05-02T11:53:57.305Z</time></trkpt><trkpt lat="45.8749758" lon="11.6496703"><ele>748.0</ele><time>2026-05-02T11:54:00.305Z</time></trkpt><trkpt lat="45.8750087" lon="11.6495441"><ele>749.0</ele><time>2026-05-02T11:54:03.305Z</time></trkpt><trkpt lat="45.8750413" lon="11.6494319"><ele>750.0</ele><time>2026-05-02T11:54:06.304Z</time></trkpt><trkpt lat="45.8750652" lon="11.6493373"><ele>751.0</ele><time>2026-05-02T11:54:09.305Z</time></trkpt><trkpt lat="45.8750976" lon="11.6492202"><ele>752.0</ele><time>2026-05-02T11:54:13.304Z</time></trkpt><trkpt lat="45.8751254" lon="11.6491156"><ele>753.0</ele><time>2026-05-02T11:54:16.304Z</time></trkpt><trkpt lat="45.875155" lon="11.6490046"><ele>754.0</ele><time>2026-05-02T11:54:20.305Z</time></trkpt><trkpt lat="45.8752083" lon="11.6489242"><ele>753.9999999999999</ele><time>2026-05-02T11:54:24.305Z</time></trkpt><trkpt lat="45.8752642" lon="11.6488793"><ele>754.0</ele><time>2026-05-02T11:54:28.305Z</time></trkpt><trkpt lat="45.8753227" lon="11.6488402"><ele>754.0</ele><time>2026-05-02T11:54:31.306Z</time></trkpt><trkpt lat="45.8753976" lon="11.6488095"><ele>754.0</ele><time>2026-05-02T11:54:35.306Z</time></trkpt><trkpt lat="45.8754711" lon="11.6487754"><ele>754.0</ele><time>2026-05-02T11:54:39.306Z</time></trkpt><trkpt lat="45.8755464" lon="11.6487373"><ele>753.9999999999999</ele><time>2026-05-02T11:54:43.306Z</time></trkpt><trkpt lat="45.8756097" lon="11.6487189"><ele>754.0</ele><time>2026-05-02T11:54:46.306Z</time></trkpt><trkpt lat="45.8756742" lon="11.6487205"><ele>754.0</ele><time>2026-05-02T11:54:49.306Z</time></trkpt><trkpt lat="45.8757575" lon="11.6486805"><ele>754.0</ele><time>2026-05-02T11:54:53.305Z</time></trkpt><trkpt lat="45.8758134" lon="11.6486337"><ele>754.0</ele><time>2026-05-02T11:54:56.306Z</time></trkpt><trkpt lat="45.875872" lon="11.6485447"><ele>754.0</ele><time>2026-05-02T11:55:00.306Z</time></trkpt><trkpt lat="45.8759086" lon="11.6484628"><ele>754.0</ele><time>2026-05-02T11:55:03.306Z</time></trkpt><trkpt lat="45.8759399" lon="11.6483577"><ele>754.0</ele><time>2026-05-02T11:55:06.306Z</time></trkpt><trkpt lat="45.875958" lon="11.6482562"><ele>755.1666666666667</ele><time>2026-05-02T11:55:09.305Z</time></trkpt><trkpt lat="45.8759958" lon="11.6481571"><ele>756.3333333333334</ele><time>2026-05-02T11:55:12.306Z</time></trkpt><trkpt lat="45.8760304" lon="11.6480715"><ele>757.5</ele><time>2026-05-02T11:55:14.306Z</time></trkpt><trkpt lat="45.8760872" lon="11.6479828"><ele>758.6666666666666</ele><time>2026-05-02T11:55:18.305Z</time></trkpt><trkpt lat="45.8761423" lon="11.6479237"><ele>759.8333333333333</ele><time>2026-05-02T11:55:21.305Z</time></trkpt><trkpt lat="45.8762267" lon="11.6479052"><ele>761.0</ele><time>2026-05-02T11:55:25.306Z</time></trkpt><trkpt lat="45.8762978" lon="11.6479158"><ele>761.0</ele><time>2026-05-02T11:55:28.305Z</time></trkpt><trkpt lat="45.8763809" lon="11.6479389"><ele>761.0</ele><time>2026-05-02T11:55:32.305Z</time></trkpt><trkpt lat="45.8764452" lon="11.6479554"><ele>761.0</ele><time>2026-05-02T11:55:35.306Z</time></trkpt><trkpt lat="45.876522" lon="11.6479975"><ele>761.0</ele><time>2026-05-02T11:55:38.305Z</time></trkpt><trkpt lat="45.8765967" lon="11.6479985"><ele>761.0</ele><time>2026-05-02T11:55:41.307Z</time></trkpt><trkpt lat="45.8766643" lon="11.6479716"><ele>761.0</ele><time>2026-05-02T11:55:44.306Z</time></trkpt><trkpt lat="45.8767338" lon="11.6479196"><ele>761.3333333333333</ele><time>2026-05-02T11:55:48.307Z</time></trkpt><trkpt lat="45.8767922" lon="11.6478711"><ele>761.6666666666666</ele><time>2026-05-02T11:55:52.307Z</time></trkpt><trkpt lat="45.8768368" lon="11.6478031"><ele>762.0</ele><time>2026-05-02T11:55:58.307Z</time></trkpt><trkpt lat="45.8769392" lon="11.6476638"><ele>762.3333333333334</ele><time>2026-05-02T11:56:01.306Z</time></trkpt><trkpt lat="45.8769968" lon="11.6475962"><ele>762.6666666666667</ele><time>2026-05-02T11:56:03.306Z</time></trkpt><trkpt lat="45.8770264" lon="11.6475131"><ele>763.0</ele><time>2026-05-02T11:56:05.307Z</time></trkpt><trkpt lat="45.8770523" lon="11.6474234"><ele>763.0</ele><time>2026-05-02T11:56:07.307Z</time></trkpt><trkpt lat="45.8770834" lon="11.6473401"><ele>763.0</ele><time>2026-05-02T11:56:10.307Z</time></trkpt><trkpt lat="45.8770916" lon="11.6472341"><ele>763.0</ele><time>2026-05-02T11:56:14.307Z</time></trkpt><trkpt lat="45.8771079" lon="11.6471242"><ele>763.0</ele><time>2026-05-02T11:56:18.306Z</time></trkpt><trkpt lat="45.8771499" lon="11.6470096"><ele>763.0</ele><time>2026-05-02T11:56:22.307Z</time></trkpt><trkpt lat="45.8771957" lon="11.6469283"><ele>763.0</ele><time>2026-05-02T11:56:25.307Z</time></trkpt><trkpt lat="45.8772571" lon="11.6468731"><ele>761.5714285714286</ele><time>2026-05-02T11:56:28.307Z</time></trkpt><trkpt lat="45.8773238" lon="11.6468186"><ele>760.1428571428571</ele><time>2026-05-02T11:56:32.307Z</time></trkpt><trkpt lat="45.8773827" lon="11.6467786"><ele>758.7142857142858</ele><time>2026-05-02T11:56:35.307Z</time></trkpt><trkpt lat="45.877444" lon="11.6467505"><ele>757.2857142857142</ele><time>2026-05-02T11:56:38.306Z</time></trkpt><trkpt lat="45.8775134" lon="11.6467266"><ele>755.8571428571429</ele><time>2026-05-02T11:56:42.366Z</time></trkpt><trkpt lat="45.877576" lon="11.6467035"><ele>754.4285714285714</ele><time>2026-05-02T11:56:46.395Z</time></trkpt><trkpt lat="45.8776484" lon="11.6466926"><ele>753.0</ele><time>2026-05-02T11:56:50.322Z</time></trkpt><trkpt lat="45.8777316" lon="11.6466871"><ele>753.0</ele><time>2026-05-02T11:56:54.349Z</time></trkpt><trkpt lat="45.8778029" lon="11.6467139"><ele>753.0</ele><time>2026-05-02T11:56:58.392Z</time></trkpt><trkpt lat="45.877867" lon="11.6467361"><ele>753.0</ele><time>2026-05-02T11:57:00.308Z</time></trkpt><trkpt lat="45.8779279" lon="11.6467702"><ele>753.0</ele><time>2026-05-02T11:57:03.307Z</time></trkpt><trkpt lat="45.8779962" lon="11.6468097"><ele>753.0</ele><time>2026-05-02T11:57:07.308Z</time></trkpt><trkpt lat="45.8780644" lon="11.6468417"><ele>753.0</ele><time>2026-05-02T11:57:10.308Z</time></trkpt><trkpt lat="45.8781279" lon="11.6468668"><ele>753.0</ele><time>2026-05-02T11:57:13.308Z</time></trkpt><trkpt lat="45.8782025" lon="11.6468694"><ele>753.0</ele><time>2026-05-02T11:57:17.308Z</time></trkpt><trkpt lat="45.8782771" lon="11.646839"><ele>753.0</ele><time>2026-05-02T11:57:21.308Z</time></trkpt><trkpt lat="45.8783468" lon="11.6468156"><ele>753.0</ele><time>2026-05-02T11:57:25.307Z</time></trkpt><trkpt lat="45.8784029" lon="11.6467625"><ele>753.0</ele><time>2026-05-02T11:57:30.308Z</time></trkpt><trkpt lat="45.8784675" lon="11.6466981"><ele>753.0</ele><time>2026-05-02T11:57:35.308Z</time></trkpt><trkpt lat="45.8785341" lon="11.6466379"><ele>753.0</ele><time>2026-05-02T11:57:39.308Z</time></trkpt><trkpt lat="45.878599" lon="11.6465648"><ele>758.5714285714286</ele><time>2026-05-02T11:57:43.308Z</time></trkpt><trkpt lat="45.8786436" lon="11.6464891"><ele>764.1428571428571</ele><time>2026-05-02T11:57:46.308Z</time></trkpt><trkpt lat="45.8787044" lon="11.6464417"><ele>769.7142857142858</ele><time>2026-05-02T11:57:50.308Z</time></trkpt><trkpt lat="45.8787696" lon="11.6463958"><ele>775.2857142857142</ele><time>2026-05-02T11:57:54.308Z</time></trkpt><trkpt lat="45.8788468" lon="11.6463848"><ele>780.8571428571428</ele><time>2026-05-02T11:57:58.309Z</time></trkpt><trkpt lat="45.8789175" lon="11.64636"><ele>786.4285714285714</ele><time>2026-05-02T11:58:03.308Z</time></trkpt><trkpt lat="45.8789808" lon="11.6463579"><ele>792.0</ele><time>2026-05-02T11:58:07.308Z</time></trkpt><trkpt lat="45.8790553" lon="11.6463349"><ele>792.0</ele><time>2026-05-02T11:58:12.309Z</time></trkpt><trkpt lat="45.8791227" lon="11.6463325"><ele>792.0</ele><time>2026-05-02T11:58:16.308Z</time></trkpt><trkpt lat="45.8791749" lon="11.6462813"><ele>792.0</ele><time>2026-05-02T11:58:19.309Z</time></trkpt><trkpt lat="45.8792468" lon="11.6462536"><ele>792.0</ele><time>2026-05-02T11:58:24.309Z</time></trkpt><trkpt lat="45.8793086" lon="11.646194"><ele>792.0</ele><time>2026-05-02T11:58:28.308Z</time></trkpt><trkpt lat="45.8793509" lon="11.6461024"><ele>792.0</ele><time>2026-05-02T11:58:32.309Z</time></trkpt><trkpt lat="45.8793781" lon="11.6460112"><ele>792.0</ele><time>2026-05-02T11:58:36.309Z</time></trkpt><trkpt lat="45.8793967" lon="11.6459033"><ele>793.8571428571429</ele><time>2026-05-02T11:58:40.308Z</time></trkpt><trkpt lat="45.8793999" lon="11.645795"><ele>795.7142857142857</ele><time>2026-05-02T11:58:44.308Z</time></trkpt><trkpt lat="45.8794237" lon="11.6457001"><ele>797.5714285714286</ele><time>2026-05-02T11:58:48.309Z</time></trkpt><trkpt lat="45.8794703" lon="11.645633"><ele>799.4285714285714</ele><time>2026-05-02T11:58:52.308Z</time></trkpt><trkpt lat="45.8795261" lon="11.6455723"><ele>801.2857142857142</ele><time>2026-05-02T11:58:56.309Z</time></trkpt><trkpt lat="45.8795974" lon="11.6455123"><ele>803.1428571428571</ele><time>2026-05-02T11:59:00.309Z</time></trkpt><trkpt lat="45.8796564" lon="11.645455"><ele>805.0</ele><time>2026-05-02T11:59:04.31Z</time></trkpt><trkpt lat="45.8797205" lon="11.6454073"><ele>805.0</ele><time>2026-05-02T11:59:08.31Z</time></trkpt><trkpt lat="45.8797926" lon="11.6453491"><ele>805.0</ele><time>2026-05-02T11:59:12.309Z</time></trkpt><trkpt lat="45.879844" lon="11.6452814"><ele>805.0</ele><time>2026-05-02T11:59:16.309Z</time></trkpt><trkpt lat="45.8798765" lon="11.6451954"><ele>805.0</ele><time>2026-05-02T11:59:20.31Z</time></trkpt><trkpt lat="45.8799016" lon="11.6450965"><ele>805.0</ele><time>2026-05-02T11:59:24.31Z</time></trkpt><trkpt lat="45.8799278" lon="11.6450009"><ele>805.0</ele><time>2026-05-02T11:59:28.31Z</time></trkpt><trkpt lat="45.8799919" lon="11.6449371"><ele>805.0</ele><time>2026-05-02T11:59:33.31Z</time></trkpt><trkpt lat="45.8800556" lon="11.6448908"><ele>805.4285714285714</ele><time>2026-05-02T11:59:37.309Z</time></trkpt><trkpt lat="45.8801169" lon="11.6448576"><ele>805.8571428571429</ele><time>2026-05-02T11:59:41.31Z</time></trkpt><trkpt lat="45.8801715" lon="11.6447969"><ele>806.2857142857142</ele><time>2026-05-02T11:59:45.31Z</time></trkpt><trkpt lat="45.8802223" lon="11.6447383"><ele>806.7142857142858</ele><time>2026-05-02T11:59:49.309Z</time></trkpt><trkpt lat="45.880281" lon="11.6446927"><ele>807.1428571428571</ele><time>2026-05-02T11:59:53.309Z</time></trkpt><trkpt lat="45.8803421" lon="11.6446678"><ele>807.5714285714286</ele><time>2026-05-02T11:59:57.31Z</time></trkpt><trkpt lat="45.8803959" lon="11.6446182"><ele>808.0</ele><time>2026-05-02T12:00:01.31Z</time></trkpt><trkpt lat="45.8804686" lon="11.6445687"><ele>808.0</ele><time>2026-05-02T12:00:06.31Z</time></trkpt><trkpt lat="45.8805304" lon="11.6445115"><ele>808.0</ele><time>2026-05-02T12:00:11.311Z</time></trkpt><trkpt lat="45.8806031" lon="11.644504"><ele>808.0</ele><time>2026-05-02T12:00:15.31Z</time></trkpt><trkpt lat="45.8806797" lon="11.6445026"><ele>808.0</ele><time>2026-05-02T12:00:18.311Z</time></trkpt><trkpt lat="45.8807391" lon="11.6444356"><ele>808.0</ele><time>2026-05-02T12:00:24.311Z</time></trkpt><trkpt lat="45.8807731" lon="11.6443545"><ele>808.0</ele><time>2026-05-02T12:00:28.31Z</time></trkpt><trkpt lat="45.8808441" lon="11.6443115"><ele>808.0</ele><time>2026-05-02T12:00:33.31Z</time></trkpt><trkpt lat="45.8809146" lon="11.6443533"><ele>805.4285714285714</ele><time>2026-05-02T12:00:37.311Z</time></trkpt><trkpt lat="45.8809882" lon="11.6443518"><ele>802.8571428571429</ele><time>2026-05-02T12:00:44.336Z</time></trkpt><trkpt lat="45.8810514" lon="11.6443546"><ele>800.2857142857142</ele><time>2026-05-02T12:00:48.364Z</time></trkpt><trkpt lat="45.8811184" lon="11.6443336"><ele>797.7142857142858</ele><time>2026-05-02T12:00:52.391Z</time></trkpt><trkpt lat="45.8811804" lon="11.6442961"><ele>795.1428571428572</ele><time>2026-05-02T12:00:57.316Z</time></trkpt><trkpt lat="45.8812538" lon="11.6442359"><ele>792.5714285714286</ele><time>2026-05-02T12:01:02.36Z</time></trkpt><trkpt lat="45.8813267" lon="11.6442418"><ele>790.0</ele><time>2026-05-02T12:01:03.311Z</time></trkpt><trkpt lat="45.8813913" lon="11.6442378"><ele>790.0</ele><time>2026-05-02T12:01:08.31Z</time></trkpt><trkpt lat="45.8814619" lon="11.6442165"><ele>790.0</ele><time>2026-05-02T12:01:14.31Z</time></trkpt><trkpt lat="45.8815225" lon="11.6441665"><ele>790.0</ele><time>2026-05-02T12:01:19.311Z</time></trkpt><trkpt lat="45.8815819" lon="11.6441259"><ele>790.0</ele><time>2026-05-02T12:01:24.312Z</time></trkpt><trkpt lat="45.8816465" lon="11.6440819"><ele>790.0</ele><time>2026-05-02T12:01:29.312Z</time></trkpt><trkpt lat="45.8817141" lon="11.6440312"><ele>790.0</ele><time>2026-05-02T12:01:34.311Z</time></trkpt><trkpt lat="45.8817763" lon="11.6439885"><ele>790.0</ele><time>2026-05-02T12:01:38.311Z</time></trkpt><trkpt lat="45.8818374" lon="11.6439517"><ele>793.5714285714286</ele><time>2026-05-02T12:01:42.312Z</time></trkpt><trkpt lat="45.8818984" lon="11.6439256"><ele>797.1428571428572</ele><time>2026-05-02T12:01:46.312Z</time></trkpt><trkpt lat="45.8819607" lon="11.6438792"><ele>800.7142857142858</ele><time>2026-05-02T12:01:50.312Z</time></trkpt><trkpt lat="45.8820118" lon="11.6438202"><ele>804.2857142857142</ele><time>2026-05-02T12:01:54.312Z</time></trkpt><trkpt lat="45.8820706" lon="11.6437727"><ele>807.8571428571429</ele><time>2026-05-02T12:01:58.312Z</time></trkpt><trkpt lat="45.8821264" lon="11.6437224"><ele>811.4285714285714</ele><time>2026-05-02T12:02:02.311Z</time></trkpt><trkpt lat="45.8821872" lon="11.6436665"><ele>815.0</ele><time>2026-05-02T12:02:06.312Z</time></trkpt><trkpt lat="45.8822551" lon="11.6436303"><ele>815.0</ele><time>2026-05-02T12:02:10.312Z</time></trkpt><trkpt lat="45.8823208" lon="11.6435606"><ele>815.0</ele><time>2026-05-02T12:02:14.312Z</time></trkpt><trkpt lat="45.8823751" lon="11.6434749"><ele>815.0</ele><time>2026-05-02T12:02:17.313Z</time></trkpt><trkpt lat="45.8824087" lon="11.6433984"><ele>815.0</ele><time>2026-05-02T12:02:20.312Z</time></trkpt><trkpt lat="45.8824176" lon="11.6432945"><ele>815.0</ele><time>2026-05-02T12:02:25.312Z</time></trkpt><trkpt lat="45.8823987" lon="11.6432048"><ele>815.0</ele><time>2026-05-02T12:02:29.312Z</time></trkpt><trkpt lat="45.8823591" lon="11.6431142"><ele>815.0</ele><time>2026-05-02T12:02:34.313Z</time></trkpt><trkpt lat="45.882322" lon="11.6430332"><ele>815.0</ele><time>2026-05-02T12:02:38.313Z</time></trkpt><trkpt lat="45.8822674" lon="11.6429704"><ele>815.0</ele><time>2026-05-02T12:02:42.313Z</time></trkpt><trkpt lat="45.8822039" lon="11.6429395"><ele>815.0</ele><time>2026-05-02T12:02:48.312Z</time></trkpt><trkpt lat="45.8821285" lon="11.6429282"><ele>815.0</ele><time>2026-05-02T12:02:53.313Z</time></trkpt><trkpt lat="45.8820594" lon="11.6429379"><ele>815.0</ele><time>2026-05-02T12:02:57.313Z</time></trkpt><trkpt lat="45.88199" lon="11.6429626"><ele>815.0</ele><time>2026-05-02T12:03:01.313Z</time></trkpt><trkpt lat="45.8819158" lon="11.642992"><ele>815.0</ele><time>2026-05-02T12:03:05.312Z</time></trkpt><trkpt lat="45.8818508" lon="11.6430021"><ele>815.0</ele><time>2026-05-02T12:03:09.313Z</time></trkpt><trkpt lat="45.8817692" lon="11.6429969"><ele>815.0</ele><time>2026-05-02T12:03:13.313Z</time></trkpt><trkpt lat="45.8816988" lon="11.6429862"><ele>815.0</ele><time>2026-05-02T12:03:16.312Z</time></trkpt><trkpt lat="45.8816356" lon="11.6429891"><ele>815.0</ele><time>2026-05-02T12:03:19.312Z</time></trkpt><trkpt lat="45.8815632" lon="11.6429665"><ele>815.0</ele><time>2026-05-02T12:03:23.313Z</time></trkpt><trkpt lat="45.8814897" lon="11.6429423"><ele>815.0</ele><time>2026-05-02T12:03:27.313Z</time></trkpt><trkpt lat="45.8814116" lon="11.6429291"><ele>815.0</ele><time>2026-05-02T12:03:31.313Z</time></trkpt><trkpt lat="45.8813221" lon="11.642918"><ele>815.7142857142857</ele><time>2026-05-02T12:03:35.313Z</time></trkpt><trkpt lat="45.8812563" lon="11.6429075"><ele>816.4285714285713</ele><time>2026-05-02T12:03:40.312Z</time></trkpt><trkpt lat="45.881192" lon="11.6428964"><ele>817.1428571428571</ele><time>2026-05-02T12:03:44.314Z</time></trkpt><trkpt lat="45.881126" lon="11.6428822"><ele>817.8571428571429</ele><time>2026-05-02T12:03:48.313Z</time></trkpt><trkpt lat="45.8810539" lon="11.6428567"><ele>818.5714285714286</ele><time>2026-05-02T12:03:52.314Z</time></trkpt><trkpt lat="45.8809975" lon="11.6428145"><ele>819.2857142857143</ele><time>2026-05-02T12:03:56.314Z</time></trkpt><trkpt lat="45.8809243" lon="11.6427725"><ele>820.0</ele><time>2026-05-02T12:04:02.314Z</time></trkpt><trkpt lat="45.8808885" lon="11.6426914"><ele>820.0</ele><time>2026-05-02T12:04:06.313Z</time></trkpt><trkpt lat="45.8808325" lon="11.6426377"><ele>820.0</ele><time>2026-05-02T12:04:12.314Z</time></trkpt><trkpt lat="45.880768" lon="11.6425677"><ele>820.0</ele><time>2026-05-02T12:04:16.313Z</time></trkpt><trkpt lat="45.8806941" lon="11.6425492"><ele>820.0</ele><time>2026-05-02T12:04:21.314Z</time></trkpt><trkpt lat="45.8806464" lon="11.6424803"><ele>820.0</ele><time>2026-05-02T12:04:26.314Z</time></trkpt><trkpt lat="45.8805704" lon="11.6424398"><ele>820.0</ele><time>2026-05-02T12:04:31.314Z</time></trkpt><trkpt lat="45.8804949" lon="11.6424327"><ele>820.0</ele><time>2026-05-02T12:04:36.314Z</time></trkpt><trkpt lat="45.8804259" lon="11.6424394"><ele>820.0</ele><time>2026-05-02T12:04:40.315Z</time></trkpt><trkpt lat="45.8803538" lon="11.6424244"><ele>820.0</ele><time>2026-05-02T12:04:44.314Z</time></trkpt><trkpt lat="45.8802838" lon="11.6424544"><ele>820.0</ele><time>2026-05-02T12:04:48.315Z</time></trkpt><trkpt lat="45.8802106" lon="11.6424761"><ele>820.0</ele><time>2026-05-02T12:04:53.315Z</time></trkpt><trkpt lat="45.880152" lon="11.6424371"><ele>820.0</ele><time>2026-05-02T12:05:00.315Z</time></trkpt><trkpt lat="45.8800995" lon="11.6423592"><ele>820.0</ele><time>2026-05-02T12:05:05.315Z</time></trkpt><trkpt lat="45.8800761" lon="11.6422648"><ele>820.0</ele><time>2026-05-02T12:05:10.315Z</time></trkpt><trkpt lat="45.8800333" lon="11.6421668"><ele>822.7142857142858</ele><time>2026-05-02T12:05:15.315Z</time></trkpt><trkpt lat="45.8799725" lon="11.6420931"><ele>825.4285714285713</ele><time>2026-05-02T12:05:20.315Z</time></trkpt><trkpt lat="45.8799138" lon="11.642025"><ele>828.1428571428571</ele><time>2026-05-02T12:05:24.315Z</time></trkpt><trkpt lat="45.8798691" lon="11.6419364"><ele>830.8571428571429</ele><time>2026-05-02T12:05:29.314Z</time></trkpt><trkpt lat="45.8798194" lon="11.6418528"><ele>833.5714285714287</ele><time>2026-05-02T12:05:33.315Z</time></trkpt><trkpt lat="45.8797567" lon="11.6417967"><ele>836.2857142857142</ele><time>2026-05-02T12:05:40.315Z</time></trkpt><trkpt lat="45.8796903" lon="11.6417775"><ele>839.0</ele><time>2026-05-02T12:05:45.315Z</time></trkpt><trkpt lat="45.879612" lon="11.6417703"><ele>839.0</ele><time>2026-05-02T12:05:51.314Z</time></trkpt><trkpt lat="45.879544" lon="11.6417528"><ele>839.0</ele><time>2026-05-02T12:05:55.316Z</time></trkpt><trkpt lat="45.8794714" lon="11.6417825"><ele>839.0</ele><time>2026-05-02T12:06:00.316Z</time></trkpt><trkpt lat="45.8794042" lon="11.641804"><ele>839.0</ele><time>2026-05-02T12:06:05.316Z</time></trkpt><trkpt lat="45.8793352" lon="11.6418161"><ele>839.0</ele><time>2026-05-02T12:06:10.316Z</time></trkpt><trkpt lat="45.8792753" lon="11.6418533"><ele>839.0</ele><time>2026-05-02T12:06:14.316Z</time></trkpt><trkpt lat="45.8792021" lon="11.6418433"><ele>839.0</ele><time>2026-05-02T12:06:19.316Z</time></trkpt><trkpt lat="45.879185" lon="11.6417461"><ele>839.0</ele><time>2026-05-02T12:06:23.316Z</time></trkpt><trkpt lat="45.8792495" lon="11.6417218"><ele>839.0</ele><time>2026-05-02T12:06:27.316Z</time></trkpt><trkpt lat="45.879315" lon="11.6417427"><ele>839.0</ele><time>2026-05-02T12:06:32.315Z</time></trkpt><trkpt lat="45.8793759" lon="11.6417165"><ele>839.0</ele><time>2026-05-02T12:06:36.316Z</time></trkpt><trkpt lat="45.8794533" lon="11.6416976"><ele>839.0</ele><time>2026-05-02T12:06:41.316Z</time></trkpt><trkpt lat="45.8795213" lon="11.6416577"><ele>839.0</ele><time>2026-05-02T12:06:46.315Z</time></trkpt><trkpt lat="45.8795797" lon="11.6416166"><ele>839.0</ele><time>2026-05-02T12:06:53.316Z</time></trkpt><trkpt lat="45.8796572" lon="11.6415861"><ele>839.0</ele><time>2026-05-02T12:06:56.317Z</time></trkpt><trkpt lat="45.8797282" lon="11.6415754"><ele>839.0</ele><time>2026-05-02T12:07:03.316Z</time></trkpt><trkpt lat="45.879806" lon="11.6415918"><ele>839.0</ele><time>2026-05-02T12:07:10.317Z</time></trkpt><trkpt lat="45.8798679" lon="11.641575"><ele>839.0</ele><time>2026-05-02T12:07:14.317Z</time></trkpt><trkpt lat="45.8799178" lon="11.6416339"><ele>839.0</ele><time>2026-05-02T12:07:20.317Z</time></trkpt><trkpt lat="45.8799841" lon="11.6416388"><ele>839.0</ele><time>2026-05-02T12:07:24.317Z</time></trkpt><trkpt lat="45.8800423" lon="11.6417062"><ele>839.0</ele><time>2026-05-02T12:07:30.317Z</time></trkpt><trkpt lat="45.8800832" lon="11.6417865"><ele>836.2857142857142</ele><time>2026-05-02T12:07:35.316Z</time></trkpt><trkpt lat="45.8801416" lon="11.641853"><ele>833.5714285714287</ele><time>2026-05-02T12:07:40.317Z</time></trkpt><trkpt lat="45.8801928" lon="11.6419255"><ele>830.8571428571429</ele><time>2026-05-02T12:07:48.317Z</time></trkpt><trkpt lat="45.8802504" lon="11.6419825"><ele>828.1428571428571</ele><time>2026-05-02T12:07:55.317Z</time></trkpt><trkpt lat="45.88032" lon="11.6419862"><ele>825.4285714285713</ele><time>2026-05-02T12:08:00.317Z</time></trkpt><trkpt lat="45.880391" lon="11.6419904"><ele>822.7142857142858</ele><time>2026-05-02T12:08:07.317Z</time></trkpt><trkpt lat="45.8804572" lon="11.6419619"><ele>820.0</ele><time>2026-05-02T12:08:13.317Z</time></trkpt><trkpt lat="45.8805199" lon="11.6419507"><ele>820.0</ele><time>2026-05-02T12:08:18.318Z</time></trkpt><trkpt lat="45.8805858" lon="11.6419152"><ele>820.0</ele><time>2026-05-02T12:08:24.317Z</time></trkpt><trkpt lat="45.8806496" lon="11.6419195"><ele>820.0</ele><time>2026-05-02T12:08:29.318Z</time></trkpt><trkpt lat="45.8807198" lon="11.6419473"><ele>820.0</ele><time>2026-05-02T12:08:34.317Z</time></trkpt><trkpt lat="45.880785" lon="11.6419669"><ele>820.0</ele><time>2026-05-02T12:08:38.318Z</time></trkpt><trkpt lat="45.8808508" lon="11.6420215"><ele>820.0</ele><time>2026-05-02T12:08:47.317Z</time></trkpt><trkpt lat="45.8809163" lon="11.6420555"><ele>820.0</ele><time>2026-05-02T12:08:53.317Z</time></trkpt><trkpt lat="45.8809736" lon="11.6421101"><ele>823.8571428571429</ele><time>2026-05-02T12:08:58.318Z</time></trkpt><trkpt lat="45.8810344" lon="11.6421616"><ele>827.7142857142857</ele><time>2026-05-02T12:09:04.319Z</time></trkpt><trkpt lat="45.8810956" lon="11.6421841"><ele>831.5714285714286</ele><time>2026-05-02T12:09:10.319Z</time></trkpt><trkpt lat="45.8811594" lon="11.6422235"><ele>835.4285714285714</ele><time>2026-05-02T12:09:15.319Z</time></trkpt><trkpt lat="45.8812257" lon="11.6422189"><ele>839.2857142857142</ele><time>2026-05-02T12:09:21.319Z</time></trkpt><trkpt lat="45.8812781" lon="11.6422698"><ele>843.1428571428571</ele><time>2026-05-02T12:09:25.319Z</time></trkpt><trkpt lat="45.8813401" lon="11.6422917"><ele>847.0</ele><time>2026-05-02T12:09:30.319Z</time></trkpt><trkpt lat="45.8814032" lon="11.6423009"><ele>847.0</ele><time>2026-05-02T12:09:35.319Z</time></trkpt><trkpt lat="45.8814608" lon="11.6423596"><ele>847.0</ele><time>2026-05-02T12:09:41.319Z</time></trkpt><trkpt lat="45.881527" lon="11.6423962"><ele>847.0</ele><time>2026-05-02T12:09:48.319Z</time></trkpt><trkpt lat="45.881596" lon="11.6424054"><ele>847.0</ele><time>2026-05-02T12:09:53.319Z</time></trkpt><trkpt lat="45.8816586" lon="11.6424352"><ele>847.0</ele><time>2026-05-02T12:09:57.319Z</time></trkpt><trkpt lat="45.8817254" lon="11.6424721"><ele>847.0</ele><time>2026-05-02T12:10:05.319Z</time></trkpt><trkpt lat="45.8817953" lon="11.6424687"><ele>847.0</ele><time>2026-05-02T12:10:11.32Z</time></trkpt><trkpt lat="45.8818606" lon="11.6424896"><ele>849.4285714285714</ele><time>2026-05-02T12:10:17.32Z</time></trkpt><trkpt lat="45.8819262" lon="11.6425056"><ele>851.8571428571429</ele><time>2026-05-02T12:10:22.319Z</time></trkpt><trkpt lat="45.8819907" lon="11.6424769"><ele>854.2857142857142</ele><time>2026-05-02T12:10:28.319Z</time></trkpt><trkpt lat="45.8820585" lon="11.642471"><ele>856.7142857142858</ele><time>2026-05-02T12:10:35.32Z</time></trkpt><trkpt lat="45.8821321" lon="11.6424557"><ele>859.1428571428571</ele><time>2026-05-02T12:10:41.32Z</time></trkpt><trkpt lat="45.8821965" lon="11.6424158"><ele>861.5714285714286</ele><time>2026-05-02T12:10:47.32Z</time></trkpt><trkpt lat="45.8822512" lon="11.64236"><ele>864.0</ele><time>2026-05-02T12:10:52.32Z</time></trkpt><trkpt lat="45.8823181" lon="11.6423147"><ele>864.0</ele><time>2026-05-02T12:10:57.319Z</time></trkpt><trkpt lat="45.8823804" lon="11.6422741"><ele>864.0</ele><time>2026-05-02T12:11:02.32Z</time></trkpt><trkpt lat="45.8824528" lon="11.6422437"><ele>864.0</ele><time>2026-05-02T12:11:07.32Z</time></trkpt><trkpt lat="45.8825049" lon="11.642192"><ele>864.0</ele><time>2026-05-02T12:11:12.321Z</time></trkpt><trkpt lat="45.8825761" lon="11.6421689"><ele>864.0</ele><time>2026-05-02T12:11:16.321Z</time></trkpt><trkpt lat="45.882634" lon="11.6422064"><ele>864.0</ele><time>2026-05-02T12:11:32.321Z</time></trkpt><trkpt lat="45.8827289" lon="11.6422767"><ele>861.3333333333334</ele><time>2026-05-02T12:11:35.321Z</time></trkpt><trkpt lat="45.8828054" lon="11.6423494"><ele>858.6666666666667</ele><time>2026-05-02T12:11:37.321Z</time></trkpt><trkpt lat="45.8828653" lon="11.6423823"><ele>856.0</ele><time>2026-05-02T12:11:38.32Z</time></trkpt><trkpt lat="45.8829274" lon="11.6425087"><ele>853.3333333333334</ele><time>2026-05-02T12:11:40.321Z</time></trkpt><trkpt lat="45.882962" lon="11.6426419"><ele>850.6666666666667</ele><time>2026-05-02T12:11:42.32Z</time></trkpt><trkpt lat="45.8829825" lon="11.6427541"><ele>848.0</ele><time>2026-05-02T12:11:47.32Z</time></trkpt><trkpt lat="45.8830344" lon="11.6428181"><ele>848.0</ele><time>2026-05-02T12:11:52.321Z</time></trkpt><trkpt lat="45.883097" lon="11.6428428"><ele>848.0</ele><time>2026-05-02T12:11:57.321Z</time></trkpt><trkpt lat="45.8831741" lon="11.6428379"><ele>848.0</ele><time>2026-05-02T12:12:01.321Z</time></trkpt><trkpt lat="45.8832375" lon="11.6428233"><ele>848.0</ele><time>2026-05-02T12:12:05.32Z</time></trkpt><trkpt lat="45.8832998" lon="11.6428048"><ele>848.0</ele><time>2026-05-02T12:12:09.321Z</time></trkpt><trkpt lat="45.8833726" lon="11.6428005"><ele>848.0</ele><time>2026-05-02T12:12:14.321Z</time></trkpt><trkpt lat="45.8834523" lon="11.6427966"><ele>848.0</ele><time>2026-05-02T12:12:18.32Z</time></trkpt><trkpt lat="45.8835367" lon="11.6427799"><ele>850.8571428571429</ele><time>2026-05-02T12:12:22.322Z</time></trkpt><trkpt lat="45.8835923" lon="11.642823"><ele>853.7142857142857</ele><time>2026-05-02T12:12:29.322Z</time></trkpt><trkpt lat="45.8836604" lon="11.6428229"><ele>856.5714285714286</ele><time>2026-05-02T12:12:34.322Z</time></trkpt><trkpt lat="45.8837241" lon="11.6428158"><ele>859.4285714285714</ele><time>2026-05-02T12:12:39.321Z</time></trkpt><trkpt lat="45.8837895" lon="11.6428164"><ele>862.2857142857142</ele><time>2026-05-02T12:12:45.322Z</time></trkpt><trkpt lat="45.8838753" lon="11.6428386"><ele>865.1428571428571</ele><time>2026-05-02T12:12:49.322Z</time></trkpt><trkpt lat="45.8839536" lon="11.6428311"><ele>868.0</ele><time>2026-05-02T12:12:54.322Z</time></trkpt><trkpt lat="45.884027" lon="11.642844"><ele>868.0</ele><time>2026-05-02T12:12:58.322Z</time></trkpt><trkpt lat="45.8840945" lon="11.6428155"><ele>868.0</ele><time>2026-05-02T12:13:03.322Z</time></trkpt><trkpt lat="45.884159" lon="11.6428376"><ele>868.0</ele><time>2026-05-02T12:13:09.322Z</time></trkpt><trkpt lat="45.884226" lon="11.6428626"><ele>868.0</ele><time>2026-05-02T12:13:16.321Z</time></trkpt><trkpt lat="45.8842972" lon="11.6428703"><ele>868.0</ele><time>2026-05-02T12:13:20.322Z</time></trkpt><trkpt lat="45.8843698" lon="11.6428888"><ele>868.0</ele><time>2026-05-02T12:13:25.323Z</time></trkpt><trkpt lat="45.8844261" lon="11.6428336"><ele>868.0</ele><time>2026-05-02T12:13:31.323Z</time></trkpt><trkpt lat="45.8844992" lon="11.6428392"><ele>872.1428571428571</ele><time>2026-05-02T12:13:37.322Z</time></trkpt><trkpt lat="45.8845679" lon="11.6427924"><ele>876.2857142857142</ele><time>2026-05-02T12:13:42.323Z</time></trkpt><trkpt lat="45.8846409" lon="11.6427541"><ele>880.4285714285714</ele><time>2026-05-02T12:13:48.323Z</time></trkpt><trkpt lat="45.8846823" lon="11.6426842"><ele>884.5714285714286</ele><time>2026-05-02T12:13:52.323Z</time></trkpt><trkpt lat="45.8847391" lon="11.6426365"><ele>888.7142857142857</ele><time>2026-05-02T12:13:56.323Z</time></trkpt><trkpt lat="45.884805" lon="11.6426414"><ele>892.8571428571429</ele><time>2026-05-02T12:14:00.323Z</time></trkpt><trkpt lat="45.8848569" lon="11.6425809"><ele>897.0</ele><time>2026-05-02T12:14:04.323Z</time></trkpt><trkpt lat="45.8849238" lon="11.64253"><ele>897.0</ele><time>2026-05-02T12:14:09.323Z</time></trkpt><trkpt lat="45.8849891" lon="11.6424954"><ele>897.0</ele><time>2026-05-02T12:14:13.322Z</time></trkpt><trkpt lat="45.8850513" lon="11.6424779"><ele>897.0</ele><time>2026-05-02T12:14:17.322Z</time></trkpt><trkpt lat="45.8851152" lon="11.6424511"><ele>897.0</ele><time>2026-05-02T12:14:22.323Z</time></trkpt><trkpt lat="45.8851868" lon="11.6424584"><ele>897.0</ele><time>2026-05-02T12:14:26.323Z</time></trkpt><trkpt lat="45.8852499" lon="11.6424674"><ele>897.0</ele><time>2026-05-02T12:14:29.322Z</time></trkpt><trkpt lat="45.885323" lon="11.6424896"><ele>897.0</ele><time>2026-05-02T12:14:32.324Z</time></trkpt><trkpt lat="45.8853956" lon="11.6425037"><ele>896.7142857142858</ele><time>2026-05-02T12:14:36.324Z</time></trkpt><trkpt lat="45.8854683" lon="11.6424719"><ele>896.4285714285713</ele><time>2026-05-02T12:14:40.324Z</time></trkpt><trkpt lat="45.8855335" lon="11.6424454"><ele>896.1428571428571</ele><time>2026-05-02T12:14:46.324Z</time></trkpt><trkpt lat="45.8855976" lon="11.6424601"><ele>895.8571428571429</ele><time>2026-05-02T12:14:51.324Z</time></trkpt><trkpt lat="45.8856671" lon="11.6424753"><ele>895.5714285714287</ele><time>2026-05-02T12:14:57.323Z</time></trkpt><trkpt lat="45.8857435" lon="11.6425177"><ele>895.2857142857142</ele><time>2026-05-02T12:15:03.324Z</time></trkpt><trkpt lat="45.8858054" lon="11.642538"><ele>895.0</ele><time>2026-05-02T12:15:06.324Z</time></trkpt><trkpt lat="45.8858688" lon="11.642555"><ele>895.5714285714286</ele><time>2026-05-02T12:15:09.324Z</time></trkpt><trkpt lat="45.8859427" lon="11.6425767"><ele>896.1428571428571</ele><time>2026-05-02T12:15:14.324Z</time></trkpt><trkpt lat="45.8860157" lon="11.6425861"><ele>896.7142857142857</ele><time>2026-05-02T12:15:19.324Z</time></trkpt><trkpt lat="45.8860851" lon="11.6425988"><ele>897.2857142857142</ele><time>2026-05-02T12:15:24.323Z</time></trkpt><trkpt lat="45.8861527" lon="11.6426158"><ele>897.8571428571429</ele><time>2026-05-02T12:15:28.324Z</time></trkpt><trkpt lat="45.8862253" lon="11.6426253"><ele>898.4285714285713</ele><time>2026-05-02T12:15:33.324Z</time></trkpt><trkpt lat="45.8862968" lon="11.6426027"><ele>898.9999999999999</ele><time>2026-05-02T12:15:39.351Z</time></trkpt><trkpt lat="45.8863426" lon="11.6425174"><ele>898.9999999999999</ele><time>2026-05-02T12:15:44.384Z</time></trkpt><trkpt lat="45.8864095" lon="11.6424877"><ele>899.0</ele><time>2026-05-02T12:15:49.419Z</time></trkpt><trkpt lat="45.8864699" lon="11.6424336"><ele>898.9999999999999</ele><time>2026-05-02T12:15:55.359Z</time></trkpt><trkpt lat="45.8865383" lon="11.6423975"><ele>898.9999999999999</ele><time>2026-05-02T12:16:01.399Z</time></trkpt><trkpt lat="45.886614" lon="11.6423734"><ele>899.0</ele><time>2026-05-02T12:16:06.433Z</time></trkpt><trkpt lat="45.8866878" lon="11.6423595"><ele>898.9999999999999</ele><time>2026-05-02T12:16:12.375Z</time></trkpt><trkpt lat="45.8867568" lon="11.6423382"><ele>898.9999999999999</ele><time>2026-05-02T12:16:17.408Z</time></trkpt><trkpt lat="45.8868257" lon="11.6423591"><ele>899.142857142857</ele><time>2026-05-02T12:16:22.343Z</time></trkpt><trkpt lat="45.8868969" lon="11.6423466"><ele>899.2857142857142</ele><time>2026-05-02T12:16:27.377Z</time></trkpt><trkpt lat="45.8869763" lon="11.6423284"><ele>899.4285714285714</ele><time>2026-05-02T12:16:33.418Z</time></trkpt><trkpt lat="45.8870399" lon="11.642321"><ele>899.5714285714286</ele><time>2026-05-02T12:16:39.358Z</time></trkpt><trkpt lat="45.8871126" lon="11.6423133"><ele>899.7142857142858</ele><time>2026-05-02T12:16:45.399Z</time></trkpt><trkpt lat="45.8871793" lon="11.6423023"><ele>899.857142857143</ele><time>2026-05-02T12:16:49.427Z</time></trkpt><trkpt lat="45.8872401" lon="11.642259"><ele>900.0000000000001</ele><time>2026-05-02T12:16:54.36Z</time></trkpt><trkpt lat="45.887309" lon="11.6422143"><ele>900.0000000000001</ele><time>2026-05-02T12:16:59.393Z</time></trkpt><trkpt lat="45.8873587" lon="11.6421587"><ele>900.0</ele><time>2026-05-02T12:17:03.355Z</time></trkpt><trkpt lat="45.8874028" lon="11.6420743"><ele>900.0000000000001</ele><time>2026-05-02T12:17:08.413Z</time></trkpt><trkpt lat="45.8874601" lon="11.6420219"><ele>900.0000000000001</ele><time>2026-05-02T12:17:13.346Z</time></trkpt><trkpt lat="45.8875102" lon="11.6419585"><ele>900.0</ele><time>2026-05-02T12:17:18.407Z</time></trkpt><trkpt lat="45.8875705" lon="11.6419133"><ele>900.0000000000001</ele><time>2026-05-02T12:17:24.326Z</time></trkpt><trkpt lat="45.8876277" lon="11.6418687"><ele>900.0000000000001</ele><time>2026-05-02T12:17:29.326Z</time></trkpt><trkpt lat="45.8876901" lon="11.6418194"><ele>901.0000000000001</ele><time>2026-05-02T12:17:33.326Z</time></trkpt><trkpt lat="45.887745" lon="11.6417569"><ele>902.0</ele><time>2026-05-02T12:17:37.326Z</time></trkpt><trkpt lat="45.8877965" lon="11.6416786"><ele>903.0000000000001</ele><time>2026-05-02T12:17:42.369Z</time></trkpt><trkpt lat="45.8878472" lon="11.6416131"><ele>904.0000000000001</ele><time>2026-05-02T12:17:46.395Z</time></trkpt><trkpt lat="45.8879224" lon="11.6415917"><ele>905.0</ele><time>2026-05-02T12:17:51.33Z</time></trkpt><trkpt lat="45.8879903" lon="11.6416004"><ele>906.0000000000001</ele><time>2026-05-02T12:17:56.364Z</time></trkpt><trkpt lat="45.8880582" lon="11.6415825"><ele>907.0000000000001</ele><time>2026-05-02T12:18:02.404Z</time></trkpt><trkpt lat="45.8881247" lon="11.6415668"><ele>907.0000000000001</ele><time>2026-05-02T12:18:08.345Z</time></trkpt><trkpt lat="45.8882035" lon="11.6415611"><ele>907.0</ele><time>2026-05-02T12:18:14.385Z</time></trkpt><trkpt lat="45.8882755" lon="11.6415499"><ele>907.0000000000001</ele><time>2026-05-02T12:18:18.412Z</time></trkpt><trkpt lat="45.8883375" lon="11.6415296"><ele>907.0000000000001</ele><time>2026-05-02T12:18:21.332Z</time></trkpt><trkpt lat="45.888402" lon="11.6415246"><ele>907.0</ele><time>2026-05-02T12:18:25.359Z</time></trkpt><trkpt lat="45.8884802" lon="11.6414996"><ele>907.0000000000001</ele><time>2026-05-02T12:18:29.387Z</time></trkpt><trkpt lat="45.8885466" lon="11.6414602"><ele>907.0000000000001</ele><time>2026-05-02T12:18:33.415Z</time></trkpt><trkpt lat="45.8886055" lon="11.6414208"><ele>906.5714285714287</ele><time>2026-05-02T12:18:36.334Z</time></trkpt><trkpt lat="45.8886843" lon="11.6414011"><ele>906.1428571428571</ele><time>2026-05-02T12:18:40.362Z</time></trkpt><trkpt lat="45.8887635" lon="11.6413836"><ele>905.7142857142858</ele><time>2026-05-02T12:18:44.388Z</time></trkpt><trkpt lat="45.8888377" lon="11.641355"><ele>905.2857142857143</ele><time>2026-05-02T12:18:48.416Z</time></trkpt><trkpt lat="45.8889053" lon="11.6413181"><ele>904.8571428571429</ele><time>2026-05-02T12:18:52.342Z</time></trkpt><trkpt lat="45.8889683" lon="11.6412841"><ele>904.4285714285714</ele><time>2026-05-02T12:18:56.37Z</time></trkpt><trkpt lat="45.8890354" lon="11.6412682"><ele>904.0</ele><time>2026-05-02T12:19:00.397Z</time></trkpt><trkpt lat="45.889107" lon="11.6412632"><ele>903.9999999999999</ele><time>2026-05-02T12:19:04.424Z</time></trkpt><trkpt lat="45.889174" lon="11.6412154"><ele>904.0</ele><time>2026-05-02T12:19:08.35Z</time></trkpt><trkpt lat="45.8892504" lon="11.6411976"><ele>904.0</ele><time>2026-05-02T12:19:12.378Z</time></trkpt><trkpt lat="45.8893232" lon="11.6411791"><ele>904.0</ele><time>2026-05-02T12:19:17.412Z</time></trkpt><trkpt lat="45.8893919" lon="11.6411592"><ele>903.9999999999999</ele><time>2026-05-02T12:19:22.344Z</time></trkpt><trkpt lat="45.8894708" lon="11.6411341"><ele>904.0</ele><time>2026-05-02T12:19:27.378Z</time></trkpt><trkpt lat="45.8895448" lon="11.6411017"><ele>906.3333333333333</ele><time>2026-05-02T12:19:31.328Z</time></trkpt><trkpt lat="45.8896305" lon="11.6410779"><ele>908.6666666666666</ele><time>2026-05-02T12:19:35.328Z</time></trkpt><trkpt lat="45.8897119" lon="11.6410414"><ele>911.0</ele><time>2026-05-02T12:19:38.328Z</time></trkpt><trkpt lat="45.8897907" lon="11.6410135"><ele>913.3333333333333</ele><time>2026-05-02T12:19:41.328Z</time></trkpt><trkpt lat="45.889865" lon="11.6410011"><ele>915.6666666666666</ele><time>2026-05-02T12:19:44.328Z</time></trkpt><trkpt lat="45.8899511" lon="11.6409725"><ele>918.0</ele><time>2026-05-02T12:19:47.328Z</time></trkpt><trkpt lat="45.8900238" lon="11.6409569"><ele>918.0</ele><time>2026-05-02T12:19:51.327Z</time></trkpt><trkpt lat="45.8900893" lon="11.6409477"><ele>918.0</ele><time>2026-05-02T12:19:55.328Z</time></trkpt><trkpt lat="45.8901755" lon="11.6409358"><ele>918.0</ele><time>2026-05-02T12:20:00.328Z</time></trkpt><trkpt lat="45.8902429" lon="11.6409233"><ele>918.0</ele><time>2026-05-02T12:20:04.328Z</time></trkpt><trkpt lat="45.8903127" lon="11.6408988"><ele>918.0</ele><time>2026-05-02T12:20:08.329Z</time></trkpt><trkpt lat="45.8903869" lon="11.6408775"><ele>918.0</ele><time>2026-05-02T12:20:12.329Z</time></trkpt><trkpt lat="45.8904654" lon="11.6408594"><ele>918.0</ele><time>2026-05-02T12:20:16.329Z</time></trkpt><trkpt lat="45.890534" lon="11.6408338"><ele>918.5714285714287</ele><time>2026-05-02T12:20:21.329Z</time></trkpt><trkpt lat="45.8906068" lon="11.6408199"><ele>919.1428571428571</ele><time>2026-05-02T12:20:27.329Z</time></trkpt><trkpt lat="45.8906745" lon="11.6407892"><ele>919.7142857142858</ele><time>2026-05-02T12:20:33.328Z</time></trkpt><trkpt lat="45.8907484" lon="11.6407496"><ele>920.2857142857143</ele><time>2026-05-02T12:20:38.329Z</time></trkpt><trkpt lat="45.8908046" lon="11.6407013"><ele>920.8571428571429</ele><time>2026-05-02T12:20:42.328Z</time></trkpt><trkpt lat="45.8908762" lon="11.6406811"><ele>921.4285714285714</ele><time>2026-05-02T12:20:48.329Z</time></trkpt><trkpt lat="45.8909441" lon="11.6406813"><ele>922.0</ele><time>2026-05-02T12:20:52.329Z</time></trkpt><trkpt lat="45.891002" lon="11.6406393"><ele>922.2857142857143</ele><time>2026-05-02T12:20:56.329Z</time></trkpt><trkpt lat="45.8910751" lon="11.6406385"><ele>922.5714285714287</ele><time>2026-05-02T12:21:00.329Z</time></trkpt><trkpt lat="45.8911473" lon="11.640681"><ele>922.8571428571429</ele><time>2026-05-02T12:21:04.33Z</time></trkpt><trkpt lat="45.8912228" lon="11.6407036"><ele>923.1428571428571</ele><time>2026-05-02T12:21:08.33Z</time></trkpt><trkpt lat="45.8912866" lon="11.640716"><ele>923.4285714285714</ele><time>2026-05-02T12:21:13.33Z</time></trkpt><trkpt lat="45.8913617" lon="11.6407642"><ele>923.7142857142858</ele><time>2026-05-02T12:21:18.329Z</time></trkpt><trkpt lat="45.8914311" lon="11.6407771"><ele>924.0</ele><time>2026-05-02T12:21:22.33Z</time></trkpt><trkpt lat="45.8915035" lon="11.6407918"><ele>924.0</ele><time>2026-05-02T12:21:28.33Z</time></trkpt><trkpt lat="45.891572" lon="11.6407866"><ele>924.0</ele><time>2026-05-02T12:21:32.33Z</time></trkpt><trkpt lat="45.8916369" lon="11.6407778"><ele>924.0</ele><time>2026-05-02T12:21:36.329Z</time></trkpt><trkpt lat="45.8917072" lon="11.6407682"><ele>924.0</ele><time>2026-05-02T12:21:41.33Z</time></trkpt><trkpt lat="45.8917698" lon="11.6407794"><ele>924.0</ele><time>2026-05-02T12:21:44.33Z</time></trkpt><trkpt lat="45.8918406" lon="11.640787"><ele>924.0</ele><time>2026-05-02T12:21:48.33Z</time></trkpt><trkpt lat="45.8919068" lon="11.6407568"><ele>924.0</ele><time>2026-05-02T12:21:52.329Z</time></trkpt><trkpt lat="45.8919627" lon="11.6407145"><ele>924.4285714285714</ele><time>2026-05-02T12:21:57.329Z</time></trkpt><trkpt lat="45.8920331" lon="11.6406835"><ele>924.8571428571429</ele><time>2026-05-02T12:22:03.331Z</time></trkpt><trkpt lat="45.8920964" lon="11.6406438"><ele>925.2857142857142</ele><time>2026-05-02T12:22:08.33Z</time></trkpt><trkpt lat="45.8921599" lon="11.640601"><ele>925.7142857142857</ele><time>2026-05-02T12:22:13.331Z</time></trkpt><trkpt lat="45.8922237" lon="11.6405535"><ele>926.1428571428571</ele><time>2026-05-02T12:22:18.33Z</time></trkpt><trkpt lat="45.8922854" lon="11.640501"><ele>926.5714285714284</ele><time>2026-05-02T12:22:23.331Z</time></trkpt><trkpt lat="45.8923346" lon="11.6404436"><ele>926.9999999999999</ele><time>2026-05-02T12:22:27.331Z</time></trkpt><trkpt lat="45.8923955" lon="11.6403691"><ele>926.9999999999999</ele><time>2026-05-02T12:22:32.331Z</time></trkpt><trkpt lat="45.892444" lon="11.6403013"><ele>927.0</ele><time>2026-05-02T12:22:36.331Z</time></trkpt><trkpt lat="45.8924995" lon="11.6402297"><ele>926.9999999999999</ele><time>2026-05-02T12:22:40.331Z</time></trkpt><trkpt lat="45.8925394" lon="11.6401592"><ele>926.9999999999999</ele><time>2026-05-02T12:22:44.331Z</time></trkpt><trkpt lat="45.892603" lon="11.6400937"><ele>927.0</ele><time>2026-05-02T12:22:48.331Z</time></trkpt><trkpt lat="45.8926598" lon="11.6400472"><ele>926.9999999999999</ele><time>2026-05-02T12:22:52.331Z</time></trkpt><trkpt lat="45.8927172" lon="11.6399701"><ele>926.9999999999999</ele><time>2026-05-02T12:22:57.331Z</time></trkpt><trkpt lat="45.8927708" lon="11.6399119"><ele>928.142857142857</ele><time>2026-05-02T12:23:01.331Z</time></trkpt><trkpt lat="45.8928246" lon="11.639824"><ele>929.2857142857142</ele><time>2026-05-02T12:23:05.33Z</time></trkpt><trkpt lat="45.8928798" lon="11.6397492"><ele>930.4285714285714</ele><time>2026-05-02T12:23:10.33Z</time></trkpt><trkpt lat="45.8929172" lon="11.6396719"><ele>931.5714285714286</ele><time>2026-05-02T12:23:14.331Z</time></trkpt><trkpt lat="45.892969" lon="11.6395902"><ele>932.7142857142858</ele><time>2026-05-02T12:23:18.332Z</time></trkpt><trkpt lat="45.8930169" lon="11.6395293"><ele>933.857142857143</ele><time>2026-05-02T12:23:22.332Z</time></trkpt><trkpt lat="45.8930578" lon="11.6394591"><ele>935.0000000000001</ele><time>2026-05-02T12:23:25.331Z</time></trkpt><trkpt lat="45.893094" lon="11.6393824"><ele>939.1428571428573</ele><time>2026-05-02T12:23:29.331Z</time></trkpt><trkpt lat="45.8931521" lon="11.6393146"><ele>943.2857142857143</ele><time>2026-05-02T12:23:34.332Z</time></trkpt><trkpt lat="45.8932178" lon="11.6393069"><ele>947.4285714285716</ele><time>2026-05-02T12:23:37.332Z</time></trkpt><trkpt lat="45.8932943" lon="11.6393223"><ele>951.5714285714287</ele><time>2026-05-02T12:23:43.332Z</time></trkpt><trkpt lat="45.8933584" lon="11.6393543"><ele>955.7142857142858</ele><time>2026-05-02T12:23:48.332Z</time></trkpt><trkpt lat="45.893424" lon="11.6393853"><ele>959.8571428571429</ele><time>2026-05-02T12:23:53.332Z</time></trkpt><trkpt lat="45.893511" lon="11.6394079"><ele>964.0</ele><time>2026-05-02T12:23:58.332Z</time></trkpt><trkpt lat="45.8935767" lon="11.6394029"><ele>964.1428571428572</ele><time>2026-05-02T12:24:01.332Z</time></trkpt><trkpt lat="45.8936578" lon="11.6394025"><ele>964.2857142857144</ele><time>2026-05-02T12:24:05.332Z</time></trkpt><trkpt lat="45.8937359" lon="11.6394075"><ele>964.4285714285714</ele><time>2026-05-02T12:24:10.332Z</time></trkpt><trkpt lat="45.8938107" lon="11.6394313"><ele>964.5714285714287</ele><time>2026-05-02T12:24:16.332Z</time></trkpt><trkpt lat="45.8938763" lon="11.6394571"><ele>964.7142857142858</ele><time>2026-05-02T12:24:21.331Z</time></trkpt><trkpt lat="45.8939419" lon="11.6394925"><ele>964.8571428571429</ele><time>2026-05-02T12:24:26.333Z</time></trkpt><trkpt lat="45.8940076" lon="11.6395147"><ele>965.0</ele><time>2026-05-02T12:24:31.333Z</time></trkpt><trkpt lat="45.8940857" lon="11.6394969"><ele>961.1428571428571</ele><time>2026-05-02T12:24:37.332Z</time></trkpt><trkpt lat="45.8941524" lon="11.6395149"><ele>957.2857142857143</ele><time>2026-05-02T12:24:41.333Z</time></trkpt><trkpt lat="45.8942189" lon="11.6394953"><ele>953.4285714285714</ele><time>2026-05-02T12:24:45.333Z</time></trkpt><trkpt lat="45.8942896" lon="11.6395029"><ele>949.5714285714286</ele><time>2026-05-02T12:24:50.333Z</time></trkpt><trkpt lat="45.8943656" lon="11.6395178"><ele>945.7142857142858</ele><time>2026-05-02T12:24:55.333Z</time></trkpt><trkpt lat="45.8944309" lon="11.6394995"><ele>941.8571428571429</ele><time>2026-05-02T12:25:00.333Z</time></trkpt><trkpt lat="45.8944972" lon="11.6395057"><ele>938.0</ele><time>2026-05-02T12:25:04.333Z</time></trkpt><trkpt lat="45.8945863" lon="11.6394902"><ele>937.7142857142858</ele><time>2026-05-02T12:25:08.333Z</time></trkpt><trkpt lat="45.8946512" lon="11.6394847"><ele>937.4285714285714</ele><time>2026-05-02T12:25:12.333Z</time></trkpt><trkpt lat="45.8947151" lon="11.639432"><ele>937.1428571428571</ele><time>2026-05-02T12:25:17.333Z</time></trkpt><trkpt lat="45.8947817" lon="11.6393852"><ele>936.8571428571429</ele><time>2026-05-02T12:25:22.333Z</time></trkpt><trkpt lat="45.894836" lon="11.6393236"><ele>936.5714285714287</ele><time>2026-05-02T12:25:27.333Z</time></trkpt><trkpt lat="45.8949021" lon="11.6393003"><ele>936.2857142857143</ele><time>2026-05-02T12:25:33.334Z</time></trkpt><trkpt lat="45.8949294" lon="11.6392115"><ele>936.0</ele><time>2026-05-02T12:25:37.333Z</time></trkpt><trkpt lat="45.8949571" lon="11.6391121"><ele>938.8571428571429</ele><time>2026-05-02T12:25:43.334Z</time></trkpt><trkpt lat="45.8949831" lon="11.6390172"><ele>941.7142857142858</ele><time>2026-05-02T12:25:47.334Z</time></trkpt><trkpt lat="45.8950033" lon="11.6389097"><ele>944.5714285714287</ele><time>2026-05-02T12:25:51.334Z</time></trkpt><trkpt lat="45.8950167" lon="11.6388012"><ele>947.4285714285716</ele><time>2026-05-02T12:25:55.333Z</time></trkpt><trkpt lat="45.8950118" lon="11.638704"><ele>950.2857142857143</ele><time>2026-05-02T12:26:00.334Z</time></trkpt><trkpt lat="45.895032" lon="11.6386015"><ele>953.1428571428573</ele><time>2026-05-02T12:26:04.333Z</time></trkpt><trkpt lat="45.8950283" lon="11.6385084"><ele>956.0000000000001</ele><time>2026-05-02T12:26:08.334Z</time></trkpt><trkpt lat="45.8950246" lon="11.6384071"><ele>957.857142857143</ele><time>2026-05-02T12:26:12.334Z</time></trkpt><trkpt lat="45.895032" lon="11.6383153"><ele>959.7142857142858</ele><time>2026-05-02T12:26:16.333Z</time></trkpt><trkpt lat="45.895016" lon="11.6382119"><ele>961.5714285714286</ele><time>2026-05-02T12:26:20.333Z</time></trkpt><trkpt lat="45.8950178" lon="11.6381134"><ele>963.4285714285714</ele><time>2026-05-02T12:26:24.333Z</time></trkpt><trkpt lat="45.8950262" lon="11.6379989"><ele>965.2857142857142</ele><time>2026-05-02T12:26:29.334Z</time></trkpt><trkpt lat="45.8950427" lon="11.6378929"><ele>967.142857142857</ele><time>2026-05-02T12:26:34.333Z</time></trkpt><trkpt lat="45.8950332" lon="11.6377968"><ele>968.9999999999999</ele><time>2026-05-02T12:26:39.334Z</time></trkpt><trkpt lat="45.8950249" lon="11.6377052"><ele>969.9999999999999</ele><time>2026-05-02T12:26:43.335Z</time></trkpt><trkpt lat="45.8950251" lon="11.6375947"><ele>971.0</ele><time>2026-05-02T12:27:54.339Z</time></trkpt><trkpt lat="45.8950319" lon="11.6374698"><ele>971.9999999999999</ele><time>2026-05-02T12:27:57.36Z</time></trkpt><trkpt lat="45.8950089" lon="11.637379"><ele>972.9999999999999</ele><time>2026-05-02T12:28:01.387Z</time></trkpt><trkpt lat="45.894974" lon="11.6372858"><ele>974.0</ele><time>2026-05-02T12:28:05.415Z</time></trkpt><trkpt lat="45.8949531" lon="11.6371901"><ele>974.9999999999999</ele><time>2026-05-02T12:28:09.342Z</time></trkpt><trkpt lat="45.894944" lon="11.637096"><ele>975.9999999999999</ele><time>2026-05-02T12:28:13.369Z</time></trkpt><trkpt lat="45.8949425" lon="11.6370035"><ele>976.4285714285713</ele><time>2026-05-02T12:28:17.396Z</time></trkpt><trkpt lat="45.8949172" lon="11.6369161"><ele>976.8571428571429</ele><time>2026-05-02T12:28:21.336Z</time></trkpt><trkpt lat="45.8948902" lon="11.6368201"><ele>977.2857142857142</ele><time>2026-05-02T12:28:25.351Z</time></trkpt><trkpt lat="45.8948861" lon="11.6367142"><ele>977.7142857142857</ele><time>2026-05-02T12:28:29.378Z</time></trkpt><trkpt lat="45.8948806" lon="11.6366234"><ele>978.1428571428571</ele><time>2026-05-02T12:28:33.405Z</time></trkpt><trkpt lat="45.8948624" lon="11.6365168"><ele>978.5714285714286</ele><time>2026-05-02T12:28:38.339Z</time></trkpt><trkpt lat="45.8948464" lon="11.6364137"><ele>979.0</ele><time>2026-05-02T12:28:43.373Z</time></trkpt><trkpt lat="45.8948385" lon="11.636304"><ele>979.0</ele><time>2026-05-02T12:28:48.406Z</time></trkpt><trkpt lat="45.8948292" lon="11.636196"><ele>979.0</ele><time>2026-05-02T12:28:53.341Z</time></trkpt><trkpt lat="45.8948396" lon="11.6361018"><ele>979.0</ele><time>2026-05-02T12:28:58.374Z</time></trkpt><trkpt lat="45.8948502" lon="11.6359951"><ele>979.0</ele><time>2026-05-02T12:29:03.409Z</time></trkpt><trkpt lat="45.8948571" lon="11.6358991"><ele>979.0</ele><time>2026-05-02T12:29:08.341Z</time></trkpt><trkpt lat="45.8948585" lon="11.6357968"><ele>979.0</ele><time>2026-05-02T12:29:13.376Z</time></trkpt><trkpt lat="45.8948483" lon="11.6357058"><ele>979.0</ele><time>2026-05-02T12:29:17.403Z</time></trkpt><trkpt lat="45.8948369" lon="11.6356113"><ele>979.4285714285713</ele><time>2026-05-02T12:29:21.43Z</time></trkpt><trkpt lat="45.8948171" lon="11.6355229"><ele>979.8571428571429</ele><time>2026-05-02T12:29:25.357Z</time></trkpt><trkpt lat="45.8948057" lon="11.6354316"><ele>980.2857142857142</ele><time>2026-05-02T12:29:29.383Z</time></trkpt><trkpt lat="45.8947989" lon="11.6353408"><ele>980.7142857142857</ele><time>2026-05-02T12:29:33.411Z</time></trkpt><trkpt lat="45.8948282" lon="11.6352416"><ele>981.1428571428571</ele><time>2026-05-02T12:29:38.344Z</time></trkpt><trkpt lat="45.8948774" lon="11.6351826"><ele>981.5714285714286</ele><time>2026-05-02T12:29:42.371Z</time></trkpt><trkpt lat="45.8949186" lon="11.635107"><ele>982.0</ele><time>2026-05-02T12:29:46.398Z</time></trkpt><trkpt lat="45.8949626" lon="11.6350328"><ele>981.7142857142857</ele><time>2026-05-02T12:29:50.424Z</time></trkpt><trkpt lat="45.8949996" lon="11.634948"><ele>981.4285714285713</ele><time>2026-05-02T12:29:54.352Z</time></trkpt><trkpt lat="45.8950243" lon="11.6348587"><ele>981.1428571428571</ele><time>2026-05-02T12:29:58.379Z</time></trkpt><trkpt lat="45.8950394" lon="11.6347696"><ele>980.8571428571429</ele><time>2026-05-02T12:30:02.406Z</time></trkpt><trkpt lat="45.8950728" lon="11.6346752"><ele>980.5714285714286</ele><time>2026-05-02T12:30:07.339Z</time></trkpt><trkpt lat="45.8951094" lon="11.6345819"><ele>980.2857142857142</ele><time>2026-05-02T12:30:11.365Z</time></trkpt><trkpt lat="45.8951483" lon="11.6344962"><ele>980.0</ele><time>2026-05-02T12:30:14.386Z</time></trkpt><trkpt lat="45.8952013" lon="11.6344265"><ele>980.8571428571429</ele><time>2026-05-02T12:30:18.412Z</time></trkpt><trkpt lat="45.8952448" lon="11.6343598"><ele>981.7142857142858</ele><time>2026-05-02T12:30:23.346Z</time></trkpt><trkpt lat="45.8953101" lon="11.6343088"><ele>982.5714285714286</ele><time>2026-05-02T12:30:28.379Z</time></trkpt><trkpt lat="45.8953715" lon="11.6342737"><ele>983.4285714285714</ele><time>2026-05-02T12:30:32.406Z</time></trkpt><trkpt lat="45.8954363" lon="11.6342327"><ele>984.2857142857143</ele><time>2026-05-02T12:30:36.338Z</time></trkpt><trkpt lat="45.8955013" lon="11.6341899"><ele>985.1428571428571</ele><time>2026-05-02T12:30:40.359Z</time></trkpt><trkpt lat="45.8955652" lon="11.6341502"><ele>986.0</ele><time>2026-05-02T12:30:44.386Z</time></trkpt><trkpt lat="45.8956248" lon="11.6340853"><ele>986.0</ele><time>2026-05-02T12:30:49.419Z</time></trkpt><trkpt lat="45.895689" lon="11.6340344"><ele>986.0</ele><time>2026-05-02T12:30:54.353Z</time></trkpt><trkpt lat="45.8957457" lon="11.6339908"><ele>986.0</ele><time>2026-05-02T12:30:58.378Z</time></trkpt><trkpt lat="45.8958143" lon="11.6339369"><ele>986.0</ele><time>2026-05-02T12:31:03.413Z</time></trkpt><trkpt lat="45.8958676" lon="11.6338884"><ele>986.0</ele><time>2026-05-02T12:31:07.339Z</time></trkpt><trkpt lat="45.8959263" lon="11.6338389"><ele>986.0</ele><time>2026-05-02T12:31:12.373Z</time></trkpt><trkpt lat="45.8960004" lon="11.6337902"><ele>986.0</ele><time>2026-05-02T12:31:17.406Z</time></trkpt><trkpt lat="45.896071" lon="11.6337409"><ele>989.4285714285713</ele><time>2026-05-02T12:31:21.338Z</time></trkpt><trkpt lat="45.8961337" lon="11.6336938"><ele>992.8571428571429</ele><time>2026-05-02T12:31:25.358Z</time></trkpt><trkpt lat="45.8961953" lon="11.6336474"><ele>996.2857142857142</ele><time>2026-05-02T12:31:29.41Z</time></trkpt><trkpt lat="45.8962585" lon="11.6336476"><ele>999.7142857142857</ele><time>2026-05-02T12:31:33.35Z</time></trkpt><trkpt lat="45.8963304" lon="11.6337117"><ele>1003.1428571428571</ele><time>2026-05-02T12:31:37.339Z</time></trkpt><trkpt lat="45.8963656" lon="11.633815"><ele>1006.5714285714286</ele><time>2026-05-02T12:31:41.339Z</time></trkpt><trkpt lat="45.8963903" lon="11.6339064"><ele>1010.0</ele><time>2026-05-02T12:31:45.339Z</time></trkpt><trkpt lat="45.8963949" lon="11.6340177"><ele>1010.0</ele><time>2026-05-02T12:31:50.339Z</time></trkpt><trkpt lat="45.8963945" lon="11.6341176"><ele>1009.9999999999999</ele><time>2026-05-02T12:31:54.339Z</time></trkpt><trkpt lat="45.8963906" lon="11.6342169"><ele>1010.0</ele><time>2026-05-02T12:31:58.338Z</time></trkpt><trkpt lat="45.8963886" lon="11.6343102"><ele>1010.0</ele><time>2026-05-02T12:32:02.34Z</time></trkpt><trkpt lat="45.8963869" lon="11.6344104"><ele>1009.9999999999999</ele><time>2026-05-02T12:32:07.339Z</time></trkpt><trkpt lat="45.8963763" lon="11.6345164"><ele>1010.0</ele><time>2026-05-02T12:32:12.34Z</time></trkpt><trkpt lat="45.8963719" lon="11.634614"><ele>1010.0</ele><time>2026-05-02T12:32:17.34Z</time></trkpt><trkpt lat="45.896374" lon="11.6347133"><ele>1010.1428571428571</ele><time>2026-05-02T12:32:22.34Z</time></trkpt><trkpt lat="45.8963746" lon="11.6348101"><ele>1010.2857142857142</ele><time>2026-05-02T12:32:27.339Z</time></trkpt><trkpt lat="45.8963676" lon="11.6349114"><ele>1010.4285714285713</ele><time>2026-05-02T12:32:32.339Z</time></trkpt><trkpt lat="45.8963624" lon="11.6350137"><ele>1010.5714285714284</ele><time>2026-05-02T12:32:37.34Z</time></trkpt><trkpt lat="45.8963648" lon="11.635119"><ele>1010.7142857142857</ele><time>2026-05-02T12:32:42.34Z</time></trkpt><trkpt lat="45.8963666" lon="11.6352255"><ele>1010.8571428571427</ele><time>2026-05-02T12:32:47.339Z</time></trkpt><trkpt lat="45.8963726" lon="11.6353168"><ele>1010.9999999999999</ele><time>2026-05-02T12:32:52.34Z</time></trkpt><trkpt lat="45.8963784" lon="11.6354229"><ele>1011.142857142857</ele><time>2026-05-02T12:32:56.339Z</time></trkpt><trkpt lat="45.8963779" lon="11.6355216"><ele>1011.2857142857142</ele><time>2026-05-02T12:33:00.34Z</time></trkpt><trkpt lat="45.8963716" lon="11.6356216"><ele>1011.4285714285714</ele><time>2026-05-02T12:33:05.339Z</time></trkpt><trkpt lat="45.8963911" lon="11.6357235"><ele>1011.5714285714286</ele><time>2026-05-02T12:33:10.341Z</time></trkpt><trkpt lat="45.8963886" lon="11.6358246"><ele>1011.7142857142858</ele><time>2026-05-02T12:33:15.34Z</time></trkpt><trkpt lat="45.8964133" lon="11.6359279"><ele>1011.857142857143</ele><time>2026-05-02T12:33:20.341Z</time></trkpt><trkpt lat="45.8964301" lon="11.6360317"><ele>1012.0000000000001</ele><time>2026-05-02T12:33:25.341Z</time></trkpt><trkpt lat="45.8964371" lon="11.6361396"><ele>1011.1428571428573</ele><time>2026-05-02T12:33:30.341Z</time></trkpt><trkpt lat="45.8964545" lon="11.6362343"><ele>1010.2857142857143</ele><time>2026-05-02T12:33:35.341Z</time></trkpt><trkpt lat="45.8964864" lon="11.6363298"><ele>1009.4285714285716</ele><time>2026-05-02T12:33:40.341Z</time></trkpt><trkpt lat="45.8965208" lon="11.6364247"><ele>1008.5714285714287</ele><time>2026-05-02T12:33:45.341Z</time></trkpt><trkpt lat="45.8965524" lon="11.6365204"><ele>1007.7142857142858</ele><time>2026-05-02T12:33:49.341Z</time></trkpt><trkpt lat="45.8966078" lon="11.6365813"><ele>1006.8571428571429</ele><time>2026-05-02T12:33:54.34Z</time></trkpt><trkpt lat="45.8966426" lon="11.6366699"><ele>1006.0</ele><time>2026-05-02T12:33:58.34Z</time></trkpt><trkpt lat="45.8966675" lon="11.6367538"><ele>1006.0</ele><time>2026-05-02T12:34:02.341Z</time></trkpt><trkpt lat="45.8966927" lon="11.6368471"><ele>1006.0000000000001</ele><time>2026-05-02T12:34:08.341Z</time></trkpt><trkpt lat="45.8967176" lon="11.636943"><ele>1006.0</ele><time>2026-05-02T12:34:14.342Z</time></trkpt><trkpt lat="45.8967532" lon="11.6370398"><ele>1006.0</ele><time>2026-05-02T12:34:19.341Z</time></trkpt><trkpt lat="45.8967716" lon="11.6371464"><ele>1006.0000000000001</ele><time>2026-05-02T12:34:25.342Z</time></trkpt><trkpt lat="45.8968231" lon="11.6372125"><ele>1006.0</ele><time>2026-05-02T12:34:30.341Z</time></trkpt><trkpt lat="45.8968785" lon="11.6372576"><ele>1006.0</ele><time>2026-05-02T12:34:34.342Z</time></trkpt><trkpt lat="45.8969364" lon="11.6373278"><ele>1008.1428571428572</ele><time>2026-05-02T12:34:40.342Z</time></trkpt><trkpt lat="45.8969805" lon="11.6373933"><ele>1010.2857142857144</ele><time>2026-05-02T12:34:44.341Z</time></trkpt><trkpt lat="45.8970205" lon="11.6374746"><ele>1012.4285714285714</ele><time>2026-05-02T12:34:49.341Z</time></trkpt><trkpt lat="45.8970747" lon="11.6375433"><ele>1014.5714285714287</ele><time>2026-05-02T12:34:55.342Z</time></trkpt><trkpt lat="45.8971235" lon="11.637608"><ele>1016.7142857142858</ele><time>2026-05-02T12:35:00.341Z</time></trkpt><trkpt lat="45.8971688" lon="11.6376819"><ele>1018.8571428571429</ele><time>2026-05-02T12:35:06.341Z</time></trkpt><trkpt lat="45.8972407" lon="11.6377309"><ele>1021.0</ele><time>2026-05-02T12:35:10.342Z</time></trkpt><trkpt lat="45.8973007" lon="11.6377645"><ele>1021.0</ele><time>2026-05-02T12:35:13.343Z</time></trkpt><trkpt lat="45.8973628" lon="11.6377857"><ele>1021.0</ele><time>2026-05-02T12:35:20.343Z</time></trkpt><trkpt lat="45.897442" lon="11.6377966"><ele>1021.0</ele><time>2026-05-02T12:35:26.342Z</time></trkpt><trkpt lat="45.8975119" lon="11.6377858"><ele>1021.0</ele><time>2026-05-02T12:35:30.343Z</time></trkpt><trkpt lat="45.897575" lon="11.6377919"><ele>1021.0</ele><time>2026-05-02T12:35:35.343Z</time></trkpt><trkpt lat="45.8976351" lon="11.6378256"><ele>1021.0</ele><time>2026-05-02T12:35:41.342Z</time></trkpt><trkpt lat="45.8977037" lon="11.6377783"><ele>1021.0</ele><time>2026-05-02T12:35:45.343Z</time></trkpt><trkpt lat="45.8977841" lon="11.637765"><ele>1022.1428571428571</ele><time>2026-05-02T12:35:49.343Z</time></trkpt><trkpt lat="45.8978511" lon="11.637778"><ele>1023.2857142857143</ele><time>2026-05-02T12:35:53.343Z</time></trkpt><trkpt lat="45.897914" lon="11.6377922"><ele>1024.4285714285716</ele><time>2026-05-02T12:35:58.343Z</time></trkpt><trkpt lat="45.8979783" lon="11.6377991"><ele>1025.5714285714284</ele><time>2026-05-02T12:36:04.342Z</time></trkpt><trkpt lat="45.8980526" lon="11.6377789"><ele>1026.7142857142858</ele><time>2026-05-02T12:36:12.343Z</time></trkpt><trkpt lat="45.8981153" lon="11.6377555"><ele>1027.857142857143</ele><time>2026-05-02T12:36:18.344Z</time></trkpt><trkpt lat="45.8981578" lon="11.6376715"><ele>1029.0</ele><time>2026-05-02T12:36:22.343Z</time></trkpt><trkpt lat="45.8982206" lon="11.6376551"><ele>1029.0</ele><time>2026-05-02T12:36:27.344Z</time></trkpt><trkpt lat="45.8982926" lon="11.637644"><ele>1029.0</ele><time>2026-05-02T12:36:32.344Z</time></trkpt><trkpt lat="45.8983617" lon="11.6376239"><ele>1029.0</ele><time>2026-05-02T12:36:37.343Z</time></trkpt><trkpt lat="45.8984273" lon="11.6376015"><ele>1029.0</ele><time>2026-05-02T12:36:41.344Z</time></trkpt><trkpt lat="45.8985033" lon="11.6375843"><ele>1029.0</ele><time>2026-05-02T12:36:46.344Z</time></trkpt><trkpt lat="45.8985658" lon="11.6375462"><ele>1029.0</ele><time>2026-05-02T12:36:55.344Z</time></trkpt><trkpt lat="45.8986201" lon="11.6374975"><ele>1029.0</ele><time>2026-05-02T12:36:59.343Z</time></trkpt><trkpt lat="45.8986847" lon="11.6374705"><ele>1028.142857142857</ele><time>2026-05-02T12:37:04.344Z</time></trkpt><trkpt lat="45.8987503" lon="11.6374265"><ele>1027.2857142857142</ele><time>2026-05-02T12:37:10.345Z</time></trkpt><trkpt lat="45.8988155" lon="11.6373863"><ele>1026.4285714285716</ele><time>2026-05-02T12:37:16.345Z</time></trkpt><trkpt lat="45.8988818" lon="11.6373738"><ele>1025.5714285714284</ele><time>2026-05-02T12:37:21.345Z</time></trkpt><trkpt lat="45.8989516" lon="11.6373458"><ele>1024.7142857142858</ele><time>2026-05-02T12:37:26.344Z</time></trkpt><trkpt lat="45.8990111" lon="11.6372711"><ele>1023.8571428571429</ele><time>2026-05-02T12:37:31.345Z</time></trkpt><trkpt lat="45.8990798" lon="11.6372629"><ele>1023.0</ele><time>2026-05-02T12:37:36.344Z</time></trkpt><trkpt lat="45.899145" lon="11.6372236"><ele>1023.0</ele><time>2026-05-02T12:37:41.345Z</time></trkpt><trkpt lat="45.8992129" lon="11.6371793"><ele>1023.0</ele><time>2026-05-02T12:37:47.344Z</time></trkpt><trkpt lat="45.8992779" lon="11.6371447"><ele>1023.0</ele><time>2026-05-02T12:37:53.345Z</time></trkpt><trkpt lat="45.8993372" lon="11.6371099"><ele>1023.0</ele><time>2026-05-02T12:37:58.344Z</time></trkpt><trkpt lat="45.8994035" lon="11.637061"><ele>1023.0</ele><time>2026-05-02T12:38:04.345Z</time></trkpt><trkpt lat="45.8994651" lon="11.6370213"><ele>1023.0</ele><time>2026-05-02T12:38:09.344Z</time></trkpt><trkpt lat="45.8995275" lon="11.6369723"><ele>1023.0</ele><time>2026-05-02T12:38:15.344Z</time></trkpt><trkpt lat="45.8995894" lon="11.6369384"><ele>1025.4285714285716</ele><time>2026-05-02T12:38:20.346Z</time></trkpt><trkpt lat="45.8996533" lon="11.6369017"><ele>1027.857142857143</ele><time>2026-05-02T12:38:25.346Z</time></trkpt><trkpt lat="45.899721" lon="11.6368521"><ele>1030.2857142857142</ele><time>2026-05-02T12:38:30.346Z</time></trkpt><trkpt lat="45.8997779" lon="11.6368016"><ele>1032.7142857142858</ele><time>2026-05-02T12:38:35.345Z</time></trkpt><trkpt lat="45.8998511" lon="11.6367724"><ele>1035.142857142857</ele><time>2026-05-02T12:38:40.346Z</time></trkpt><trkpt lat="45.8999153" lon="11.636723"><ele>1037.5714285714287</ele><time>2026-05-02T12:38:45.346Z</time></trkpt><trkpt lat="45.8999825" lon="11.6366972"><ele>1040.0</ele><time>2026-05-02T12:38:49.345Z</time></trkpt><trkpt lat="45.9000549" lon="11.6366528"><ele>1038.857142857143</ele><time>2026-05-02T12:38:54.346Z</time></trkpt><trkpt lat="45.9001162" lon="11.6366162"><ele>1037.7142857142858</ele><time>2026-05-02T12:38:58.441Z</time></trkpt><trkpt lat="45.9001681" lon="11.6365644"><ele>1036.5714285714284</ele><time>2026-05-02T12:39:02.366Z</time></trkpt><trkpt lat="45.9002184" lon="11.6364989"><ele>1035.4285714285716</ele><time>2026-05-02T12:39:06.393Z</time></trkpt><trkpt lat="45.9002816" lon="11.6364729"><ele>1034.2857142857142</ele><time>2026-05-02T12:39:10.42Z</time></trkpt><trkpt lat="45.9003266" lon="11.6363931"><ele>1033.142857142857</ele><time>2026-05-02T12:39:15.354Z</time></trkpt><trkpt lat="45.9003847" lon="11.6363282"><ele>1032.0</ele><time>2026-05-02T12:39:20.388Z</time></trkpt><trkpt lat="45.9004428" lon="11.6362509"><ele>1031.9999999999998</ele><time>2026-05-02T12:39:25.421Z</time></trkpt><trkpt lat="45.900494" lon="11.6361652"><ele>1032.0</ele><time>2026-05-02T12:39:30.354Z</time></trkpt><trkpt lat="45.9005507" lon="11.6361053"><ele>1032.0</ele><time>2026-05-02T12:39:34.381Z</time></trkpt><trkpt lat="45.9005754" lon="11.6360165"><ele>1032.0</ele><time>2026-05-02T12:39:38.407Z</time></trkpt><trkpt lat="45.9005888" lon="11.6359197"><ele>1032.0</ele><time>2026-05-02T12:39:42.435Z</time></trkpt><trkpt lat="45.9005894" lon="11.635825"><ele>1031.9999999999998</ele><time>2026-05-02T12:39:46.362Z</time></trkpt><trkpt lat="45.9005967" lon="11.6357193"><ele>1032.0</ele><time>2026-05-02T12:39:51.394Z</time></trkpt><trkpt lat="45.9006373" lon="11.6356334"><ele>1032.8571428571427</ele><time>2026-05-02T12:39:56.429Z</time></trkpt><trkpt lat="45.9006256" lon="11.6355394"><ele>1033.7142857142858</ele><time>2026-05-02T12:40:00.354Z</time></trkpt><trkpt lat="45.9006133" lon="11.6354501"><ele>1034.5714285714284</ele><time>2026-05-02T12:40:04.381Z</time></trkpt><trkpt lat="45.9006112" lon="11.6353574"><ele>1035.4285714285713</ele><time>2026-05-02T12:40:08.408Z</time></trkpt><trkpt lat="45.9006178" lon="11.6352628"><ele>1036.2857142857142</ele><time>2026-05-02T12:40:12.436Z</time></trkpt><trkpt lat="45.9006097" lon="11.6351719"><ele>1037.142857142857</ele><time>2026-05-02T12:40:16.362Z</time></trkpt><trkpt lat="45.9005805" lon="11.6350744"><ele>1038.0</ele><time>2026-05-02T12:40:21.395Z</time></trkpt><trkpt lat="45.9005477" lon="11.6349738"><ele>1038.0</ele><time>2026-05-02T12:40:26.428Z</time></trkpt><trkpt lat="45.900522" lon="11.6348754"><ele>1038.0</ele><time>2026-05-02T12:40:31.362Z</time></trkpt><trkpt lat="45.9005112" lon="11.6347717"><ele>1038.0</ele><time>2026-05-02T12:40:35.389Z</time></trkpt><trkpt lat="45.900495" lon="11.6346634"><ele>1038.0</ele><time>2026-05-02T12:40:39.416Z</time></trkpt><trkpt lat="45.9004524" lon="11.6345848"><ele>1038.0</ele><time>2026-05-02T12:40:44.349Z</time></trkpt><trkpt lat="45.9004284" lon="11.6344922"><ele>1038.0</ele><time>2026-05-02T12:40:49.382Z</time></trkpt><trkpt lat="45.9004048" lon="11.6344029"><ele>1038.0</ele><time>2026-05-02T12:40:53.409Z</time></trkpt><trkpt lat="45.90038" lon="11.6343161"><ele>1037.0</ele><time>2026-05-02T12:40:57.435Z</time></trkpt><trkpt lat="45.9003559" lon="11.6342295"><ele>1036.0</ele><time>2026-05-02T12:41:01.362Z</time></trkpt><trkpt lat="45.9003166" lon="11.6341358"><ele>1035.0</ele><time>2026-05-02T12:41:05.389Z</time></trkpt><trkpt lat="45.9002663" lon="11.634061"><ele>1034.0</ele><time>2026-05-02T12:41:09.415Z</time></trkpt><trkpt lat="45.9002344" lon="11.6339812"><ele>1033.0</ele><time>2026-05-02T12:41:13.35Z</time></trkpt><trkpt lat="45.9001888" lon="11.6339177"><ele>1032.0</ele><time>2026-05-02T12:41:17.378Z</time></trkpt><trkpt lat="45.9001416" lon="11.6338458"><ele>1031.0</ele><time>2026-05-02T12:41:21.413Z</time></trkpt><trkpt lat="45.9001065" lon="11.6337645"><ele>1035.857142857143</ele><time>2026-05-02T12:41:25.44Z</time></trkpt><trkpt lat="45.900065" lon="11.6336759"><ele>1040.7142857142856</ele><time>2026-05-02T12:41:29.366Z</time></trkpt><trkpt lat="45.900028" lon="11.6335972"><ele>1045.5714285714284</ele><time>2026-05-02T12:41:32.385Z</time></trkpt><trkpt lat="45.8999921" lon="11.6334917"><ele>1050.4285714285713</ele><time>2026-05-02T12:41:36.438Z</time></trkpt><trkpt lat="45.8999531" lon="11.6334161"><ele>1055.2857142857142</ele><time>2026-05-02T12:41:39.357Z</time></trkpt><trkpt lat="45.8999113" lon="11.6333399"><ele>1060.142857142857</ele><time>2026-05-02T12:41:42.378Z</time></trkpt><trkpt lat="45.8998672" lon="11.6332417"><ele>1065.0</ele><time>2026-05-02T12:41:46.405Z</time></trkpt><trkpt lat="45.8998209" lon="11.6331693"><ele>1065.0</ele><time>2026-05-02T12:41:49.349Z</time></trkpt><trkpt lat="45.8997875" lon="11.6330859"><ele>1065.0</ele><time>2026-05-02T12:41:54.349Z</time></trkpt><trkpt lat="45.8997314" lon="11.6330132"><ele>1065.0</ele><time>2026-05-02T12:41:59.349Z</time></trkpt><trkpt lat="45.8996871" lon="11.6329305"><ele>1065.0</ele><time>2026-05-02T12:42:03.349Z</time></trkpt><trkpt lat="45.8996522" lon="11.6328365"><ele>1065.0</ele><time>2026-05-02T12:42:08.349Z</time></trkpt><trkpt lat="45.8996078" lon="11.6327511"><ele>1065.0</ele><time>2026-05-02T12:42:13.349Z</time></trkpt><trkpt lat="45.8995573" lon="11.6326716"><ele>1065.0</ele><time>2026-05-02T12:42:18.349Z</time></trkpt><trkpt lat="45.8995012" lon="11.6325897"><ele>1064.4285714285716</ele><time>2026-05-02T12:42:23.35Z</time></trkpt><trkpt lat="45.8994605" lon="11.6325178"><ele>1063.857142857143</ele><time>2026-05-02T12:42:27.35Z</time></trkpt><trkpt lat="45.8994176" lon="11.6324248"><ele>1063.2857142857142</ele><time>2026-05-02T12:42:31.349Z</time></trkpt><trkpt lat="45.8993684" lon="11.6323581"><ele>1062.7142857142858</ele><time>2026-05-02T12:42:35.357Z</time></trkpt><trkpt lat="45.8993073" lon="11.632312"><ele>1062.142857142857</ele><time>2026-05-02T12:42:39.384Z</time></trkpt><trkpt lat="45.8992421" lon="11.6322568"><ele>1061.5714285714287</ele><time>2026-05-02T12:42:43.41Z</time></trkpt><trkpt lat="45.8991891" lon="11.6321944"><ele>1061.0</ele><time>2026-05-02T12:42:47.437Z</time></trkpt><trkpt lat="45.8991432" lon="11.632126"><ele>1063.4285714285716</ele><time>2026-05-02T12:42:51.364Z</time></trkpt><trkpt lat="45.8990977" lon="11.6320369"><ele>1065.857142857143</ele><time>2026-05-02T12:42:56.396Z</time></trkpt><trkpt lat="45.8990681" lon="11.631956"><ele>1068.2857142857142</ele><time>2026-05-02T12:43:00.424Z</time></trkpt><trkpt lat="45.8990118" lon="11.6318937"><ele>1070.7142857142858</ele><time>2026-05-02T12:43:05.356Z</time></trkpt><trkpt lat="45.8989947" lon="11.6318001"><ele>1073.142857142857</ele><time>2026-05-02T12:43:09.384Z</time></trkpt><trkpt lat="45.8989786" lon="11.6316894"><ele>1075.5714285714287</ele><time>2026-05-02T12:43:13.411Z</time></trkpt><trkpt lat="45.8989584" lon="11.6315913"><ele>1078.0</ele><time>2026-05-02T12:43:17.438Z</time></trkpt><trkpt lat="45.8989431" lon="11.6314926"><ele>1078.0</ele><time>2026-05-02T12:43:21.364Z</time></trkpt><trkpt lat="45.8989052" lon="11.6313993"><ele>1078.0</ele><time>2026-05-02T12:43:25.391Z</time></trkpt><trkpt lat="45.8988816" lon="11.6312974"><ele>1078.0</ele><time>2026-05-02T12:43:29.417Z</time></trkpt><trkpt lat="45.8989325" lon="11.631204"><ele>1078.0</ele><time>2026-05-02T12:43:33.444Z</time></trkpt><trkpt lat="45.8989841" lon="11.6311239"><ele>1078.0</ele><time>2026-05-02T12:43:37.371Z</time></trkpt><trkpt lat="45.8990027" lon="11.6310226"><ele>1078.0</ele><time>2026-05-02T12:43:41.397Z</time></trkpt><trkpt lat="45.8990227" lon="11.6309345"><ele>1078.0</ele><time>2026-05-02T12:43:45.424Z</time></trkpt><trkpt lat="45.8990806" lon="11.6308927"><ele>1077.857142857143</ele><time>2026-05-02T12:43:49.451Z</time></trkpt><trkpt lat="45.89914" lon="11.6308418"><ele>1077.7142857142858</ele><time>2026-05-02T12:43:53.376Z</time></trkpt><trkpt lat="45.8992008" lon="11.6307836"><ele>1077.5714285714284</ele><time>2026-05-02T12:43:57.404Z</time></trkpt><trkpt lat="45.8992268" lon="11.6306944"><ele>1077.4285714285716</ele><time>2026-05-02T12:44:01.43Z</time></trkpt><trkpt lat="45.8992907" lon="11.6306327"><ele>1077.2857142857142</ele><time>2026-05-02T12:44:06.363Z</time></trkpt><trkpt lat="45.8993505" lon="11.63059"><ele>1077.142857142857</ele><time>2026-05-02T12:44:10.391Z</time></trkpt><trkpt lat="45.8994037" lon="11.6305183"><ele>1077.0</ele><time>2026-05-02T12:44:14.418Z</time></trkpt><trkpt lat="45.8994647" lon="11.6304694"><ele>1077.2857142857142</ele><time>2026-05-02T12:44:18.445Z</time></trkpt><trkpt lat="45.8995298" lon="11.6304389"><ele>1077.5714285714287</ele><time>2026-05-02T12:44:22.371Z</time></trkpt><trkpt lat="45.8995851" lon="11.6303673"><ele>1077.857142857143</ele><time>2026-05-02T12:44:26.397Z</time></trkpt><trkpt lat="45.899638" lon="11.630305"><ele>1078.142857142857</ele><time>2026-05-02T12:44:30.425Z</time></trkpt><trkpt lat="45.8997043" lon="11.6302701"><ele>1078.4285714285713</ele><time>2026-05-02T12:44:35.382Z</time></trkpt><trkpt lat="45.8997627" lon="11.6302227"><ele>1078.7142857142858</ele><time>2026-05-02T12:44:39.41Z</time></trkpt><trkpt lat="45.8998235" lon="11.6301752"><ele>1079.0</ele><time>2026-05-02T12:44:43.436Z</time></trkpt><trkpt lat="45.8998933" lon="11.6301298"><ele>1079.0</ele><time>2026-05-02T12:44:48.395Z</time></trkpt><trkpt lat="45.8999612" lon="11.6300922"><ele>1079.0</ele><time>2026-05-02T12:44:53.428Z</time></trkpt><trkpt lat="45.9000306" lon="11.6300758"><ele>1079.0</ele><time>2026-05-02T12:44:58.361Z</time></trkpt><trkpt lat="45.9000886" lon="11.6300083"><ele>1079.0</ele><time>2026-05-02T12:45:03.395Z</time></trkpt><trkpt lat="45.9001482" lon="11.6299666"><ele>1079.0</ele><time>2026-05-02T12:45:07.422Z</time></trkpt><trkpt lat="45.9002092" lon="11.6299155"><ele>1079.0</ele><time>2026-05-02T12:45:11.449Z</time></trkpt><trkpt lat="45.9002661" lon="11.6298746"><ele>1079.0</ele><time>2026-05-02T12:45:16.383Z</time></trkpt><trkpt lat="45.9002027" lon="11.6298418"><ele>1079.0</ele><time>2026-05-02T12:45:21.416Z</time></trkpt><trkpt lat="45.9001195" lon="11.6298642"><ele>1079.0</ele><time>2026-05-02T12:45:24.436Z</time></trkpt><trkpt lat="45.9000397" lon="11.62985"><ele>1079.0</ele><time>2026-05-02T12:45:27.356Z</time></trkpt><trkpt lat="45.8999719" lon="11.6298635"><ele>1079.0</ele><time>2026-05-02T12:45:30.376Z</time></trkpt><trkpt lat="45.8999082" lon="11.6298857"><ele>1079.0</ele><time>2026-05-02T12:45:33.396Z</time></trkpt><trkpt lat="45.8998442" lon="11.6299105"><ele>1079.0</ele><time>2026-05-02T12:45:36.435Z</time></trkpt><trkpt lat="45.8997638" lon="11.6299256"><ele>1079.0</ele><time>2026-05-02T12:45:39.437Z</time></trkpt><trkpt lat="45.8996851" lon="11.6299464"><ele>1079.0</ele><time>2026-05-02T12:45:42.356Z</time></trkpt><trkpt lat="45.8996038" lon="11.6299724"><ele>1079.0</ele><time>2026-05-02T12:45:45.377Z</time></trkpt><trkpt lat="45.8995172" lon="11.6299752"><ele>1079.0</ele><time>2026-05-02T12:45:48.397Z</time></trkpt><trkpt lat="45.8994262" lon="11.6299806"><ele>1079.0</ele><time>2026-05-02T12:45:51.416Z</time></trkpt><trkpt lat="45.8993535" lon="11.6299967"><ele>1079.0</ele><time>2026-05-02T12:45:54.438Z</time></trkpt><trkpt lat="45.8992826" lon="11.6300236"><ele>1079.0</ele><time>2026-05-02T12:45:57.357Z</time></trkpt><trkpt lat="45.8992196" lon="11.6300484"><ele>1080.3333333333335</ele><time>2026-05-02T12:46:00.376Z</time></trkpt><trkpt lat="45.8991263" lon="11.6300587"><ele>1081.6666666666667</ele><time>2026-05-02T12:46:04.352Z</time></trkpt><trkpt lat="45.8990621" lon="11.6300623"><ele>1083.0</ele><time>2026-05-02T12:46:07.352Z</time></trkpt><trkpt lat="45.8989736" lon="11.6300903"><ele>1084.3333333333333</ele><time>2026-05-02T12:46:10.353Z</time></trkpt><trkpt lat="45.8988952" lon="11.6301192"><ele>1085.6666666666665</ele><time>2026-05-02T12:46:14.352Z</time></trkpt><trkpt lat="45.8988206" lon="11.6301518"><ele>1087.0</ele><time>2026-05-02T12:46:18.353Z</time></trkpt><trkpt lat="45.8987512" lon="11.6301662"><ele>1087.0</ele><time>2026-05-02T12:46:22.352Z</time></trkpt><trkpt lat="45.8986763" lon="11.6301938"><ele>1087.0</ele><time>2026-05-02T12:46:26.353Z</time></trkpt><trkpt lat="45.8985983" lon="11.630209"><ele>1087.0</ele><time>2026-05-02T12:46:29.352Z</time></trkpt><trkpt lat="45.8985279" lon="11.6302321"><ele>1087.0</ele><time>2026-05-02T12:46:33.354Z</time></trkpt><trkpt lat="45.898464" lon="11.6302607"><ele>1087.0</ele><time>2026-05-02T12:46:35.354Z</time></trkpt><trkpt lat="45.898382" lon="11.6303166"><ele>1087.0</ele><time>2026-05-02T12:46:39.354Z</time></trkpt><trkpt lat="45.8983074" lon="11.6303116"><ele>1087.7142857142858</ele><time>2026-05-02T12:46:42.354Z</time></trkpt><trkpt lat="45.8982334" lon="11.6303297"><ele>1088.4285714285713</ele><time>2026-05-02T12:46:45.353Z</time></trkpt><trkpt lat="45.8981689" lon="11.6303325"><ele>1089.142857142857</ele><time>2026-05-02T12:46:47.354Z</time></trkpt><trkpt lat="45.89808" lon="11.6303505"><ele>1089.857142857143</ele><time>2026-05-02T12:46:50.354Z</time></trkpt><trkpt lat="45.8980114" lon="11.6303638"><ele>1090.5714285714284</ele><time>2026-05-02T12:46:52.354Z</time></trkpt><trkpt lat="45.8979412" lon="11.6304015"><ele>1091.2857142857142</ele><time>2026-05-02T12:46:54.354Z</time></trkpt><trkpt lat="45.8978669" lon="11.630423"><ele>1092.0</ele><time>2026-05-02T12:46:56.354Z</time></trkpt><trkpt lat="45.8977886" lon="11.6304518"><ele>1092.0</ele><time>2026-05-02T12:46:58.354Z</time></trkpt><trkpt lat="45.8977141" lon="11.6304931"><ele>1092.0</ele><time>2026-05-02T12:47:00.353Z</time></trkpt><trkpt lat="45.8976532" lon="11.6305307"><ele>1092.0</ele><time>2026-05-02T12:47:02.353Z</time></trkpt><trkpt lat="45.8975862" lon="11.6305608"><ele>1092.0</ele><time>2026-05-02T12:47:04.353Z</time></trkpt><trkpt lat="45.8975239" lon="11.6305932"><ele>1092.0</ele><time>2026-05-02T12:47:06.353Z</time></trkpt><trkpt lat="45.8974606" lon="11.6306251"><ele>1092.0</ele><time>2026-05-02T12:47:08.354Z</time></trkpt><trkpt lat="45.8973913" lon="11.6306456"><ele>1092.0</ele><time>2026-05-02T12:47:11.354Z</time></trkpt><trkpt lat="45.8973231" lon="11.6306487"><ele>1091.8</ele><time>2026-05-02T12:47:13.354Z</time></trkpt><trkpt lat="45.8972374" lon="11.6306695"><ele>1091.6</ele><time>2026-05-02T12:47:15.354Z</time></trkpt><trkpt lat="45.8971406" lon="11.630678"><ele>1091.3999999999999</ele><time>2026-05-02T12:47:17.354Z</time></trkpt><trkpt lat="45.8970516" lon="11.6306989"><ele>1091.2</ele><time>2026-05-02T12:47:19.354Z</time></trkpt><trkpt lat="45.8969628" lon="11.6306931"><ele>1091.0</ele><time>2026-05-02T12:47:21.354Z</time></trkpt><trkpt lat="45.8968694" lon="11.6307065"><ele>1091.0</ele><time>2026-05-02T12:47:23.354Z</time></trkpt><trkpt lat="45.8967715" lon="11.6307221"><ele>1091.0</ele><time>2026-05-02T12:47:25.354Z</time></trkpt><trkpt lat="45.8966791" lon="11.6307404"><ele>1091.0</ele><time>2026-05-02T12:47:27.354Z</time></trkpt><trkpt lat="45.896584" lon="11.630749"><ele>1091.0</ele><time>2026-05-02T12:47:29.354Z</time></trkpt><trkpt lat="45.8965127" lon="11.6307237"><ele>1091.0</ele><time>2026-05-02T12:47:31.355Z</time></trkpt><trkpt lat="45.8964572" lon="11.6306366"><ele>1091.0</ele><time>2026-05-02T12:47:34.355Z</time></trkpt><trkpt lat="45.8963907" lon="11.6306497"><ele>1089.8333333333335</ele><time>2026-05-02T12:47:38.354Z</time></trkpt><trkpt lat="45.8963417" lon="11.6307244"><ele>1088.6666666666667</ele><time>2026-05-02T12:47:41.355Z</time></trkpt><trkpt lat="45.8962687" lon="11.6307808"><ele>1087.5</ele><time>2026-05-02T12:47:44.355Z</time></trkpt><trkpt lat="45.8962109" lon="11.6308351"><ele>1086.3333333333333</ele><time>2026-05-02T12:47:46.355Z</time></trkpt><trkpt lat="45.8961379" lon="11.63089"><ele>1085.1666666666665</ele><time>2026-05-02T12:47:48.355Z</time></trkpt><trkpt lat="45.8960512" lon="11.6309039"><ele>1084.0</ele><time>2026-05-02T12:47:50.355Z</time></trkpt><trkpt lat="45.8959705" lon="11.6308987"><ele>1083.4285714285713</ele><time>2026-05-02T12:47:52.354Z</time></trkpt><trkpt lat="45.8958959" lon="11.6308963"><ele>1082.857142857143</ele><time>2026-05-02T12:47:54.355Z</time></trkpt><trkpt lat="45.8958296" lon="11.6309201"><ele>1082.2857142857142</ele><time>2026-05-02T12:47:56.355Z</time></trkpt><trkpt lat="45.8957598" lon="11.630948"><ele>1081.7142857142858</ele><time>2026-05-02T12:47:59.355Z</time></trkpt><trkpt lat="45.8956826" lon="11.6309792"><ele>1081.142857142857</ele><time>2026-05-02T12:48:02.355Z</time></trkpt><trkpt lat="45.8956407" lon="11.6309101"><ele>1080.5714285714284</ele><time>2026-05-02T12:48:08.354Z</time></trkpt><trkpt lat="45.8956236" lon="11.6307985"><ele>1080.0</ele><time>2026-05-02T12:48:12.354Z</time></trkpt><trkpt lat="45.8955906" lon="11.6306988"><ele>1080.0</ele><time>2026-05-02T12:48:40.356Z</time></trkpt></trkseg><trkseg><trkpt lat="45.8956468" lon="11.630923"><ele>1080.0</ele><time>2026-05-02T13:08:47.374Z</time></trkpt><trkpt lat="45.8957118" lon="11.6309736"><ele>1080.0</ele><time>2026-05-02T13:08:53.373Z</time></trkpt><trkpt lat="45.8957991" lon="11.6309554"><ele>1080.0</ele><time>2026-05-02T13:08:57.375Z</time></trkpt><trkpt lat="45.8958756" lon="11.6309273"><ele>1080.0</ele><time>2026-05-02T13:09:00.375Z</time></trkpt><trkpt lat="45.8959678" lon="11.6308936"><ele>1080.0</ele><time>2026-05-02T13:09:03.374Z</time></trkpt><trkpt lat="45.8960341" lon="11.6308901"><ele>1080.0</ele><time>2026-05-02T13:09:05.374Z</time></trkpt><trkpt lat="45.8961105" lon="11.6308923"><ele>1080.5714285714284</ele><time>2026-05-02T13:09:07.375Z</time></trkpt><trkpt lat="45.8961765" lon="11.6308695"><ele>1081.142857142857</ele><time>2026-05-02T13:09:09.375Z</time></trkpt><trkpt lat="45.8962346" lon="11.6308194"><ele>1081.7142857142858</ele><time>2026-05-02T13:09:11.375Z</time></trkpt><trkpt lat="45.8962995" lon="11.6307783"><ele>1082.2857142857142</ele><time>2026-05-02T13:09:13.374Z</time></trkpt><trkpt lat="45.8963693" lon="11.6307407"><ele>1082.857142857143</ele><time>2026-05-02T13:09:15.375Z</time></trkpt><trkpt lat="45.8964208" lon="11.6306763"><ele>1083.4285714285713</ele><time>2026-05-02T13:09:17.375Z</time></trkpt><trkpt lat="45.8964536" lon="11.6305851"><ele>1084.0</ele><time>2026-05-02T13:09:19.375Z</time></trkpt><trkpt lat="45.8964871" lon="11.630483"><ele>1084.0</ele><time>2026-05-02T13:09:21.375Z</time></trkpt><trkpt lat="45.8965306" lon="11.6303549"><ele>1084.0</ele><time>2026-05-02T13:09:23.375Z</time></trkpt><trkpt lat="45.8965974" lon="11.6302288"><ele>1084.0</ele><time>2026-05-02T13:09:25.375Z</time></trkpt><trkpt lat="45.8966836" lon="11.6301146"><ele>1084.0</ele><time>2026-05-02T13:09:27.375Z</time></trkpt><trkpt lat="45.8967647" lon="11.6299945"><ele>1084.0</ele><time>2026-05-02T13:09:29.374Z</time></trkpt><trkpt lat="45.8968553" lon="11.6298774"><ele>1084.7142857142858</ele><time>2026-05-02T13:09:31.374Z</time></trkpt><trkpt lat="45.8969045" lon="11.6298178"><ele>1085.4285714285716</ele><time>2026-05-02T13:09:32.374Z</time></trkpt><trkpt lat="45.8969519" lon="11.6297544"><ele>1086.1428571428573</ele><time>2026-05-02T13:09:33.375Z</time></trkpt><trkpt lat="45.8970031" lon="11.6296899"><ele>1086.857142857143</ele><time>2026-05-02T13:09:34.375Z</time></trkpt><trkpt lat="45.8970537" lon="11.629626"><ele>1087.5714285714287</ele><time>2026-05-02T13:09:35.375Z</time></trkpt><trkpt lat="45.8971055" lon="11.6295617"><ele>1088.2857142857144</ele><time>2026-05-02T13:09:36.375Z</time></trkpt><trkpt lat="45.8971574" lon="11.6294978"><ele>1089.0</ele><time>2026-05-02T13:09:37.374Z</time></trkpt><trkpt lat="45.897209" lon="11.6294356"><ele>1088.2857142857144</ele><time>2026-05-02T13:09:38.375Z</time></trkpt><trkpt lat="45.8972626" lon="11.6293745"><ele>1087.5714285714287</ele><time>2026-05-02T13:09:39.375Z</time></trkpt><trkpt lat="45.8973163" lon="11.6293153"><ele>1086.857142857143</ele><time>2026-05-02T13:09:40.375Z</time></trkpt><trkpt lat="45.8973701" lon="11.6292585"><ele>1086.1428571428573</ele><time>2026-05-02T13:09:41.374Z</time></trkpt><trkpt lat="45.8974242" lon="11.6292032"><ele>1085.4285714285716</ele><time>2026-05-02T13:09:42.375Z</time></trkpt><trkpt lat="45.8974786" lon="11.6291469"><ele>1084.7142857142858</ele><time>2026-05-02T13:09:43.375Z</time></trkpt><trkpt lat="45.8975329" lon="11.6290931"><ele>1084.0</ele><time>2026-05-02T13:09:44.375Z</time></trkpt><trkpt lat="45.8975864" lon="11.6290366"><ele>1084.0</ele><time>2026-05-02T13:09:45.375Z</time></trkpt><trkpt lat="45.8976417" lon="11.6289808"><ele>1084.0</ele><time>2026-05-02T13:09:46.375Z</time></trkpt><trkpt lat="45.8976955" lon="11.6289205"><ele>1084.0</ele><time>2026-05-02T13:09:47.375Z</time></trkpt><trkpt lat="45.8977525" lon="11.6288655"><ele>1084.0</ele><time>2026-05-02T13:09:48.375Z</time></trkpt><trkpt lat="45.8978117" lon="11.6288068"><ele>1084.0</ele><time>2026-05-02T13:09:49.375Z</time></trkpt><trkpt lat="45.8978722" lon="11.6287448"><ele>1084.0</ele><time>2026-05-02T13:09:50.374Z</time></trkpt><trkpt lat="45.8979377" lon="11.6286933"><ele>1084.0</ele><time>2026-05-02T13:09:51.375Z</time></trkpt><trkpt lat="45.8980085" lon="11.6286543"><ele>1081.0</ele><time>2026-05-02T13:09:52.375Z</time></trkpt><trkpt lat="45.8980813" lon="11.6286182"><ele>1078.0</ele><time>2026-05-02T13:09:53.375Z</time></trkpt><trkpt lat="45.8981534" lon="11.6285793"><ele>1075.0</ele><time>2026-05-02T13:09:54.375Z</time></trkpt><trkpt lat="45.8982273" lon="11.6285413"><ele>1072.0</ele><time>2026-05-02T13:09:55.375Z</time></trkpt><trkpt lat="45.8983022" lon="11.6285009"><ele>1069.0</ele><time>2026-05-02T13:09:56.375Z</time></trkpt><trkpt lat="45.8983766" lon="11.6284592"><ele>1066.0</ele><time>2026-05-02T13:09:57.375Z</time></trkpt><trkpt lat="45.8984519" lon="11.6284164"><ele>1066.0</ele><time>2026-05-02T13:09:58.374Z</time></trkpt><trkpt lat="45.898524" lon="11.6283714"><ele>1066.0</ele><time>2026-05-02T13:09:59.374Z</time></trkpt><trkpt lat="45.8985966" lon="11.6283205"><ele>1066.0</ele><time>2026-05-02T13:10:00.375Z</time></trkpt><trkpt lat="45.8986733" lon="11.6282641"><ele>1066.0</ele><time>2026-05-02T13:10:01.375Z</time></trkpt><trkpt lat="45.8987496" lon="11.628204"><ele>1066.0</ele><time>2026-05-02T13:10:02.374Z</time></trkpt><trkpt lat="45.8988303" lon="11.628141"><ele>1066.0</ele><time>2026-05-02T13:10:03.375Z</time></trkpt><trkpt lat="45.8989128" lon="11.6280845"><ele>1066.0</ele><time>2026-05-02T13:10:04.375Z</time></trkpt><trkpt lat="45.8989927" lon="11.6280321"><ele>1066.0</ele><time>2026-05-02T13:10:05.376Z</time></trkpt><trkpt lat="45.8990696" lon="11.6279774"><ele>1066.0</ele><time>2026-05-02T13:10:06.376Z</time></trkpt><trkpt lat="45.899147" lon="11.6279225"><ele>1066.0</ele><time>2026-05-02T13:10:07.376Z</time></trkpt><trkpt lat="45.8992219" lon="11.6278642"><ele>1066.0</ele><time>2026-05-02T13:10:08.375Z</time></trkpt><trkpt lat="45.8992897" lon="11.6277985"><ele>1066.0</ele><time>2026-05-02T13:10:09.376Z</time></trkpt><trkpt lat="45.8993403" lon="11.6277191"><ele>1066.4285714285713</ele><time>2026-05-02T13:10:10.376Z</time></trkpt><trkpt lat="45.8993742" lon="11.6276258"><ele>1066.8571428571427</ele><time>2026-05-02T13:10:11.376Z</time></trkpt><trkpt lat="45.899385" lon="11.6275206"><ele>1067.2857142857142</ele><time>2026-05-02T13:10:12.376Z</time></trkpt><trkpt lat="45.8993763" lon="11.627413"><ele>1067.7142857142858</ele><time>2026-05-02T13:10:13.376Z</time></trkpt><trkpt lat="45.8993514" lon="11.6273124"><ele>1068.1428571428573</ele><time>2026-05-02T13:10:14.376Z</time></trkpt><trkpt lat="45.8993238" lon="11.6272155"><ele>1068.5714285714287</ele><time>2026-05-02T13:10:15.376Z</time></trkpt><trkpt lat="45.8992983" lon="11.6271191"><ele>1069.0</ele><time>2026-05-02T13:10:16.376Z</time></trkpt><trkpt lat="45.8992842" lon="11.627025"><ele>1069.857142857143</ele><time>2026-05-02T13:10:17.375Z</time></trkpt><trkpt lat="45.8992887" lon="11.6269318"><ele>1070.7142857142858</ele><time>2026-05-02T13:10:18.376Z</time></trkpt><trkpt lat="45.8993055" lon="11.6268407"><ele>1071.5714285714287</ele><time>2026-05-02T13:10:19.376Z</time></trkpt><trkpt lat="45.8993297" lon="11.626754"><ele>1072.4285714285716</ele><time>2026-05-02T13:10:20.376Z</time></trkpt><trkpt lat="45.8993605" lon="11.6266703"><ele>1073.2857142857142</ele><time>2026-05-02T13:10:21.376Z</time></trkpt><trkpt lat="45.8993934" lon="11.6265894"><ele>1074.1428571428573</ele><time>2026-05-02T13:10:22.376Z</time></trkpt><trkpt lat="45.8994265" lon="11.6265063"><ele>1075.0</ele><time>2026-05-02T13:10:23.376Z</time></trkpt><trkpt lat="45.8994556" lon="11.626421"><ele>1075.0000000000002</ele><time>2026-05-02T13:10:24.375Z</time></trkpt><trkpt lat="45.8994819" lon="11.6263347"><ele>1075.0</ele><time>2026-05-02T13:10:25.375Z</time></trkpt><trkpt lat="45.8994991" lon="11.6262399"><ele>1075.0</ele><time>2026-05-02T13:10:26.376Z</time></trkpt><trkpt lat="45.8995161" lon="11.6261409"><ele>1075.0</ele><time>2026-05-02T13:10:27.375Z</time></trkpt><trkpt lat="45.8995308" lon="11.6260391"><ele>1075.0</ele><time>2026-05-02T13:10:28.375Z</time></trkpt><trkpt lat="45.899546" lon="11.6259351"><ele>1075.0000000000002</ele><time>2026-05-02T13:10:29.376Z</time></trkpt><trkpt lat="45.8995597" lon="11.6258315"><ele>1075.0</ele><time>2026-05-02T13:10:30.376Z</time></trkpt><trkpt lat="45.8995673" lon="11.6257265"><ele>1073.5</ele><time>2026-05-02T13:10:31.376Z</time></trkpt><trkpt lat="45.8995781" lon="11.6256209"><ele>1072.0</ele><time>2026-05-02T13:10:32.376Z</time></trkpt><trkpt lat="45.8995907" lon="11.6255111"><ele>1070.5</ele><time>2026-05-02T13:10:33.376Z</time></trkpt><trkpt lat="45.8996133" lon="11.6254028"><ele>1069.0</ele><time>2026-05-02T13:10:34.375Z</time></trkpt><trkpt lat="45.8996482" lon="11.6253062"><ele>1067.5</ele><time>2026-05-02T13:10:35.376Z</time></trkpt><trkpt lat="45.8996951" lon="11.6252206"><ele>1066.0</ele><time>2026-05-02T13:10:36.375Z</time></trkpt><trkpt lat="45.8997533" lon="11.6251457"><ele>1064.1666666666665</ele><time>2026-05-02T13:10:37.376Z</time></trkpt><trkpt lat="45.8998228" lon="11.6250837"><ele>1062.3333333333333</ele><time>2026-05-02T13:10:38.376Z</time></trkpt><trkpt lat="45.8999032" lon="11.6250402"><ele>1060.5</ele><time>2026-05-02T13:10:39.376Z</time></trkpt><trkpt lat="45.8999894" lon="11.6250167"><ele>1058.6666666666667</ele><time>2026-05-02T13:10:40.376Z</time></trkpt><trkpt lat="45.9000765" lon="11.6250126"><ele>1056.8333333333335</ele><time>2026-05-02T13:10:41.376Z</time></trkpt><trkpt lat="45.9001658" lon="11.6250256"><ele>1055.0</ele><time>2026-05-02T13:10:42.375Z</time></trkpt><trkpt lat="45.9002567" lon="11.6250299"><ele>1055.0</ele><time>2026-05-02T13:10:43.376Z</time></trkpt><trkpt lat="45.9003422" lon="11.6250342"><ele>1055.0</ele><time>2026-05-02T13:10:44.376Z</time></trkpt><trkpt lat="45.900429" lon="11.6250328"><ele>1055.0</ele><time>2026-05-02T13:10:45.376Z</time></trkpt><trkpt lat="45.9005097" lon="11.6250185"><ele>1055.0</ele><time>2026-05-02T13:10:46.376Z</time></trkpt><trkpt lat="45.9005843" lon="11.6249777"><ele>1055.0</ele><time>2026-05-02T13:10:47.376Z</time></trkpt><trkpt lat="45.9006494" lon="11.6249078"><ele>1055.0</ele><time>2026-05-02T13:10:48.376Z</time></trkpt><trkpt lat="45.9006974" lon="11.624813"><ele>1055.0</ele><time>2026-05-02T13:10:49.376Z</time></trkpt><trkpt lat="45.9007284" lon="11.6247018"><ele>1055.0</ele><time>2026-05-02T13:10:50.376Z</time></trkpt><trkpt lat="45.9007404" lon="11.6245795"><ele>1055.0</ele><time>2026-05-02T13:10:51.376Z</time></trkpt><trkpt lat="45.9007348" lon="11.6244539"><ele>1055.0</ele><time>2026-05-02T13:10:52.375Z</time></trkpt><trkpt lat="45.9007214" lon="11.624332"><ele>1055.0</ele><time>2026-05-02T13:10:53.375Z</time></trkpt><trkpt lat="45.9007053" lon="11.6242116"><ele>1055.0</ele><time>2026-05-02T13:10:54.376Z</time></trkpt><trkpt lat="45.9006933" lon="11.6240949"><ele>1054.3333333333335</ele><time>2026-05-02T13:10:55.376Z</time></trkpt><trkpt lat="45.9006806" lon="11.6239773"><ele>1053.6666666666667</ele><time>2026-05-02T13:10:56.376Z</time></trkpt><trkpt lat="45.9006682" lon="11.6238608"><ele>1053.0</ele><time>2026-05-02T13:10:57.376Z</time></trkpt><trkpt lat="45.9006577" lon="11.6237454"><ele>1052.3333333333333</ele><time>2026-05-02T13:10:58.375Z</time></trkpt><trkpt lat="45.9006495" lon="11.623633"><ele>1051.6666666666665</ele><time>2026-05-02T13:10:59.376Z</time></trkpt><trkpt lat="45.9006405" lon="11.6235148"><ele>1051.0</ele><time>2026-05-02T13:11:00.376Z</time></trkpt><trkpt lat="45.9006421" lon="11.6233976"><ele>1050.8333333333333</ele><time>2026-05-02T13:11:01.376Z</time></trkpt><trkpt lat="45.9006499" lon="11.6232831"><ele>1050.6666666666665</ele><time>2026-05-02T13:11:02.376Z</time></trkpt><trkpt lat="45.9006613" lon="11.623168"><ele>1050.5</ele><time>2026-05-02T13:11:03.376Z</time></trkpt><trkpt lat="45.900674" lon="11.6230545"><ele>1050.3333333333333</ele><time>2026-05-02T13:11:04.376Z</time></trkpt><trkpt lat="45.9006888" lon="11.6229422"><ele>1050.1666666666667</ele><time>2026-05-02T13:11:05.376Z</time></trkpt><trkpt lat="45.900703" lon="11.6228325"><ele>1050.0</ele><time>2026-05-02T13:11:06.376Z</time></trkpt><trkpt lat="45.9007163" lon="11.6227206"><ele>1050.8333333333333</ele><time>2026-05-02T13:11:07.376Z</time></trkpt><trkpt lat="45.9007202" lon="11.6226072"><ele>1051.6666666666667</ele><time>2026-05-02T13:11:08.375Z</time></trkpt><trkpt lat="45.9007222" lon="11.6224961"><ele>1052.5</ele><time>2026-05-02T13:11:09.376Z</time></trkpt><trkpt lat="45.9007172" lon="11.6223896"><ele>1053.3333333333335</ele><time>2026-05-02T13:11:10.376Z</time></trkpt><trkpt lat="45.900705" lon="11.6222849"><ele>1054.1666666666667</ele><time>2026-05-02T13:11:11.377Z</time></trkpt><trkpt lat="45.9006869" lon="11.6221824"><ele>1055.0</ele><time>2026-05-02T13:11:12.377Z</time></trkpt><trkpt lat="45.9006636" lon="11.6220844"><ele>1055.0</ele><time>2026-05-02T13:11:13.377Z</time></trkpt><trkpt lat="45.9006362" lon="11.6219887"><ele>1055.0</ele><time>2026-05-02T13:11:14.377Z</time></trkpt><trkpt lat="45.9006006" lon="11.6218951"><ele>1055.0</ele><time>2026-05-02T13:11:15.377Z</time></trkpt><trkpt lat="45.9005581" lon="11.6218059"><ele>1055.0</ele><time>2026-05-02T13:11:16.377Z</time></trkpt><trkpt lat="45.900509" lon="11.6217192"><ele>1055.0</ele><time>2026-05-02T13:11:17.377Z</time></trkpt><trkpt lat="45.9004562" lon="11.6216348"><ele>1055.0</ele><time>2026-05-02T13:11:18.377Z</time></trkpt><trkpt lat="45.9003996" lon="11.6215531"><ele>1055.8333333333335</ele><time>2026-05-02T13:11:19.377Z</time></trkpt><trkpt lat="45.9003434" lon="11.6214768"><ele>1056.6666666666667</ele><time>2026-05-02T13:11:20.377Z</time></trkpt><trkpt lat="45.9002885" lon="11.621402"><ele>1057.5</ele><time>2026-05-02T13:11:21.376Z</time></trkpt><trkpt lat="45.9002348" lon="11.6213275"><ele>1058.3333333333333</ele><time>2026-05-02T13:11:22.377Z</time></trkpt><trkpt lat="45.9001827" lon="11.6212509"><ele>1059.1666666666665</ele><time>2026-05-02T13:11:23.377Z</time></trkpt><trkpt lat="45.9001322" lon="11.6211714"><ele>1060.0</ele><time>2026-05-02T13:11:24.377Z</time></trkpt><trkpt lat="45.9000794" lon="11.6210933"><ele>1055.8333333333333</ele><time>2026-05-02T13:11:25.377Z</time></trkpt><trkpt lat="45.9000253" lon="11.6210173"><ele>1051.6666666666665</ele><time>2026-05-02T13:11:26.377Z</time></trkpt><trkpt lat="45.8999715" lon="11.6209409"><ele>1047.5</ele><time>2026-05-02T13:11:27.377Z</time></trkpt><trkpt lat="45.8999177" lon="11.6208673"><ele>1043.3333333333333</ele><time>2026-05-02T13:11:28.377Z</time></trkpt><trkpt lat="45.8998635" lon="11.6207937"><ele>1039.1666666666667</ele><time>2026-05-02T13:11:29.377Z</time></trkpt><trkpt lat="45.8998087" lon="11.6207192"><ele>1035.0</ele><time>2026-05-02T13:11:30.377Z</time></trkpt><trkpt lat="45.8997574" lon="11.6206417"><ele>1035.0</ele><time>2026-05-02T13:11:31.377Z</time></trkpt><trkpt lat="45.8997066" lon="11.6205626"><ele>1035.0</ele><time>2026-05-02T13:11:32.377Z</time></trkpt><trkpt lat="45.8996556" lon="11.6204865"><ele>1035.0</ele><time>2026-05-02T13:11:33.377Z</time></trkpt><trkpt lat="45.8996052" lon="11.6204107"><ele>1035.0</ele><time>2026-05-02T13:11:34.377Z</time></trkpt><trkpt lat="45.8995541" lon="11.6203368"><ele>1035.0</ele><time>2026-05-02T13:11:35.377Z</time></trkpt><trkpt lat="45.8995028" lon="11.6202657"><ele>1035.0</ele><time>2026-05-02T13:11:36.377Z</time></trkpt><trkpt lat="45.8994504" lon="11.6201956"><ele>1035.0</ele><time>2026-05-02T13:11:37.377Z</time></trkpt><trkpt lat="45.8993991" lon="11.6201237"><ele>1036.6666666666667</ele><time>2026-05-02T13:11:38.377Z</time></trkpt><trkpt lat="45.8993492" lon="11.6200525"><ele>1038.3333333333333</ele><time>2026-05-02T13:11:39.377Z</time></trkpt><trkpt lat="45.8993023" lon="11.6199805"><ele>1040.0</ele><time>2026-05-02T13:11:40.376Z</time></trkpt><trkpt lat="45.8992547" lon="11.6199097"><ele>1041.6666666666665</ele><time>2026-05-02T13:11:41.377Z</time></trkpt><trkpt lat="45.8992073" lon="11.6198413"><ele>1043.3333333333333</ele><time>2026-05-02T13:11:42.377Z</time></trkpt><trkpt lat="45.8991614" lon="11.6197766"><ele>1045.0</ele><time>2026-05-02T13:11:43.377Z</time></trkpt><trkpt lat="45.8990777" lon="11.6196534"><ele>1044.8</ele><time>2026-05-02T13:11:45.376Z</time></trkpt><trkpt lat="45.8989965" lon="11.6195377"><ele>1044.6</ele><time>2026-05-02T13:11:47.377Z</time></trkpt><trkpt lat="45.8989136" lon="11.6194298"><ele>1044.4</ele><time>2026-05-02T13:11:49.376Z</time></trkpt><trkpt lat="45.8988368" lon="11.6193228"><ele>1044.2</ele><time>2026-05-02T13:11:51.377Z</time></trkpt><trkpt lat="45.8987651" lon="11.6192198"><ele>1044.0</ele><time>2026-05-02T13:11:53.377Z</time></trkpt><trkpt lat="45.8986939" lon="11.6191163"><ele>1044.0</ele><time>2026-05-02T13:11:55.376Z</time></trkpt><trkpt lat="45.8986204" lon="11.6190086"><ele>1044.0</ele><time>2026-05-02T13:11:57.377Z</time></trkpt><trkpt lat="45.8985453" lon="11.6188976"><ele>1044.0</ele><time>2026-05-02T13:11:59.376Z</time></trkpt><trkpt lat="45.8984684" lon="11.6187808"><ele>1044.0</ele><time>2026-05-02T13:12:01.377Z</time></trkpt><trkpt lat="45.8983948" lon="11.6186554"><ele>1044.0</ele><time>2026-05-02T13:12:03.376Z</time></trkpt><trkpt lat="45.8983221" lon="11.6185212"><ele>1042.25</ele><time>2026-05-02T13:12:05.377Z</time></trkpt><trkpt lat="45.8982462" lon="11.6183851"><ele>1040.5</ele><time>2026-05-02T13:12:07.377Z</time></trkpt><trkpt lat="45.8981761" lon="11.6182426"><ele>1038.75</ele><time>2026-05-02T13:12:09.377Z</time></trkpt><trkpt lat="45.8981055" lon="11.618096"><ele>1037.0</ele><time>2026-05-02T13:12:11.377Z</time></trkpt><trkpt lat="45.8980342" lon="11.6179513"><ele>1041.0</ele><time>2026-05-02T13:12:13.377Z</time></trkpt><trkpt lat="45.8979641" lon="11.6178114"><ele>1045.0</ele><time>2026-05-02T13:12:15.377Z</time></trkpt><trkpt lat="45.8978822" lon="11.6176839"><ele>1049.0</ele><time>2026-05-02T13:12:17.377Z</time></trkpt><trkpt lat="45.897772" lon="11.6176105"><ele>1053.0</ele><time>2026-05-02T13:12:19.377Z</time></trkpt><trkpt lat="45.8977087" lon="11.6175811"><ele>1057.0</ele><time>2026-05-02T13:12:20.378Z</time></trkpt><trkpt lat="45.8976476" lon="11.6175515"><ele>1053.1666666666665</ele><time>2026-05-02T13:12:21.377Z</time></trkpt><trkpt lat="45.8975833" lon="11.6175323"><ele>1049.3333333333333</ele><time>2026-05-02T13:12:22.378Z</time></trkpt><trkpt lat="45.8975188" lon="11.6175162"><ele>1045.5</ele><time>2026-05-02T13:12:23.378Z</time></trkpt><trkpt lat="45.8974543" lon="11.617504"><ele>1041.6666666666667</ele><time>2026-05-02T13:12:24.378Z</time></trkpt><trkpt lat="45.8973324" lon="11.6174706"><ele>1037.8333333333335</ele><time>2026-05-02T13:12:26.378Z</time></trkpt><trkpt lat="45.8972129" lon="11.6174227"><ele>1034.0</ele><time>2026-05-02T13:12:28.378Z</time></trkpt><trkpt lat="45.8970988" lon="11.6173563"><ele>1034.0</ele><time>2026-05-02T13:12:30.378Z</time></trkpt><trkpt lat="45.8969908" lon="11.617281"><ele>1034.0</ele><time>2026-05-02T13:12:32.378Z</time></trkpt><trkpt lat="45.8968869" lon="11.6172082"><ele>1034.0</ele><time>2026-05-02T13:12:34.377Z</time></trkpt><trkpt lat="45.8967975" lon="11.6171212"><ele>1034.0</ele><time>2026-05-02T13:12:36.378Z</time></trkpt><trkpt lat="45.8967148" lon="11.6170255"><ele>1034.8</ele><time>2026-05-02T13:12:38.378Z</time></trkpt><trkpt lat="45.8966311" lon="11.6169345"><ele>1035.6000000000001</ele><time>2026-05-02T13:12:40.377Z</time></trkpt><trkpt lat="45.8965481" lon="11.6168432"><ele>1036.4</ele><time>2026-05-02T13:12:42.377Z</time></trkpt><trkpt lat="45.8964642" lon="11.6167525"><ele>1037.2</ele><time>2026-05-02T13:12:44.378Z</time></trkpt><trkpt lat="45.8963777" lon="11.6166628"><ele>1038.0</ele><time>2026-05-02T13:12:46.378Z</time></trkpt><trkpt lat="45.8962879" lon="11.6165754"><ele>1038.0</ele><time>2026-05-02T13:12:48.378Z</time></trkpt><trkpt lat="45.8961961" lon="11.6164841"><ele>1038.0</ele><time>2026-05-02T13:12:50.378Z</time></trkpt><trkpt lat="45.8961038" lon="11.6163934"><ele>1038.0</ele><time>2026-05-02T13:12:52.378Z</time></trkpt><trkpt lat="45.8960115" lon="11.6162984"><ele>1038.0</ele><time>2026-05-02T13:12:54.378Z</time></trkpt><trkpt lat="45.8959154" lon="11.616203"><ele>1038.25</ele><time>2026-05-02T13:12:56.378Z</time></trkpt><trkpt lat="45.8958153" lon="11.616101"><ele>1038.5</ele><time>2026-05-02T13:12:58.378Z</time></trkpt><trkpt lat="45.8957162" lon="11.6159936"><ele>1038.75</ele><time>2026-05-02T13:13:00.378Z</time></trkpt><trkpt lat="45.8956175" lon="11.6158906"><ele>1039.0</ele><time>2026-05-02T13:13:02.377Z</time></trkpt><trkpt lat="45.8955186" lon="11.6157884"><ele>1039.0</ele><time>2026-05-02T13:13:04.378Z</time></trkpt><trkpt lat="45.8954172" lon="11.6156944"><ele>1039.0</ele><time>2026-05-02T13:13:06.377Z</time></trkpt><trkpt lat="45.8953101" lon="11.6156094"><ele>1039.0</ele><time>2026-05-02T13:13:08.378Z</time></trkpt><trkpt lat="45.8952012" lon="11.6155306"><ele>1039.0</ele><time>2026-05-02T13:13:10.378Z</time></trkpt><trkpt lat="45.8950913" lon="11.6154523"><ele>1039.5714285714284</ele><time>2026-05-02T13:13:12.378Z</time></trkpt><trkpt lat="45.8950341" lon="11.6154137"><ele>1040.142857142857</ele><time>2026-05-02T13:13:13.378Z</time></trkpt><trkpt lat="45.8949748" lon="11.6153768"><ele>1040.7142857142858</ele><time>2026-05-02T13:13:14.378Z</time></trkpt><trkpt lat="45.8949135" lon="11.6153441"><ele>1041.2857142857142</ele><time>2026-05-02T13:13:15.378Z</time></trkpt><trkpt lat="45.8948512" lon="11.615313"><ele>1041.857142857143</ele><time>2026-05-02T13:13:16.378Z</time></trkpt><trkpt lat="45.8947873" lon="11.6152843"><ele>1042.4285714285713</ele><time>2026-05-02T13:13:17.378Z</time></trkpt><trkpt lat="45.8947233" lon="11.6152566"><ele>1043.0</ele><time>2026-05-02T13:13:18.378Z</time></trkpt><trkpt lat="45.8946595" lon="11.6152276"><ele>1043.0</ele><time>2026-05-02T13:13:19.378Z</time></trkpt><trkpt lat="45.8945971" lon="11.6151964"><ele>1043.0</ele><time>2026-05-02T13:13:20.378Z</time></trkpt><trkpt lat="45.894535" lon="11.6151677"><ele>1043.0</ele><time>2026-05-02T13:13:21.378Z</time></trkpt><trkpt lat="45.8944744" lon="11.61514"><ele>1043.0</ele><time>2026-05-02T13:13:22.378Z</time></trkpt><trkpt lat="45.8943549" lon="11.6150883"><ele>1043.0</ele><time>2026-05-02T13:13:24.377Z</time></trkpt><trkpt lat="45.8942403" lon="11.6150394"><ele>1043.0</ele><time>2026-05-02T13:13:26.377Z</time></trkpt><trkpt lat="45.8941249" lon="11.6149816"><ele>1040.5714285714287</ele><time>2026-05-02T13:13:28.377Z</time></trkpt><trkpt lat="45.8940586" lon="11.6149627"><ele>1038.142857142857</ele><time>2026-05-02T13:13:29.379Z</time></trkpt><trkpt lat="45.8939989" lon="11.6149339"><ele>1035.7142857142858</ele><time>2026-05-02T13:13:30.378Z</time></trkpt><trkpt lat="45.89388" lon="11.6148961"><ele>1033.2857142857142</ele><time>2026-05-02T13:13:32.379Z</time></trkpt><trkpt lat="45.8938154" lon="11.6148974"><ele>1030.857142857143</ele><time>2026-05-02T13:13:33.379Z</time></trkpt><trkpt lat="45.8937516" lon="11.6149099"><ele>1028.4285714285716</ele><time>2026-05-02T13:13:34.379Z</time></trkpt><trkpt lat="45.8936885" lon="11.6149339"><ele>1026.0</ele><time>2026-05-02T13:13:35.378Z</time></trkpt><trkpt lat="45.8936269" lon="11.6149681"><ele>1026.0000000000002</ele><time>2026-05-02T13:13:36.378Z</time></trkpt><trkpt lat="45.8935662" lon="11.6150073"><ele>1026.0</ele><time>2026-05-02T13:13:37.379Z</time></trkpt><trkpt lat="45.8935087" lon="11.6150586"><ele>1026.0</ele><time>2026-05-02T13:13:38.379Z</time></trkpt><trkpt lat="45.8934546" lon="11.6151153"><ele>1026.0</ele><time>2026-05-02T13:13:39.379Z</time></trkpt><trkpt lat="45.8934022" lon="11.6151706"><ele>1026.0</ele><time>2026-05-02T13:13:40.379Z</time></trkpt><trkpt lat="45.8933514" lon="11.6152263"><ele>1026.0000000000002</ele><time>2026-05-02T13:13:41.378Z</time></trkpt><trkpt lat="45.8933002" lon="11.6152829"><ele>1026.0</ele><time>2026-05-02T13:13:42.379Z</time></trkpt><trkpt lat="45.8932492" lon="11.6153384"><ele>1022.8</ele><time>2026-05-02T13:13:43.379Z</time></trkpt><trkpt lat="45.8931974" lon="11.6153908"><ele>1019.5999999999999</ele><time>2026-05-02T13:13:44.379Z</time></trkpt><trkpt lat="45.893146" lon="11.615444"><ele>1016.4</ele><time>2026-05-02T13:13:45.379Z</time></trkpt><trkpt lat="45.8930432" lon="11.6155503"><ele>1013.2</ele><time>2026-05-02T13:13:47.379Z</time></trkpt><trkpt lat="45.8929439" lon="11.615654"><ele>1010.0</ele><time>2026-05-02T13:13:49.379Z</time></trkpt><trkpt lat="45.8928477" lon="11.6157555"><ele>1010.0</ele><time>2026-05-02T13:13:51.378Z</time></trkpt><trkpt lat="45.8927521" lon="11.6158473"><ele>1010.0</ele><time>2026-05-02T13:13:53.379Z</time></trkpt><trkpt lat="45.8926619" lon="11.6159399"><ele>1010.0</ele><time>2026-05-02T13:13:55.379Z</time></trkpt><trkpt lat="45.8925728" lon="11.6160302"><ele>1010.0</ele><time>2026-05-02T13:13:57.379Z</time></trkpt><trkpt lat="45.8924766" lon="11.6161223"><ele>1009.4</ele><time>2026-05-02T13:13:59.379Z</time></trkpt><trkpt lat="45.8923723" lon="11.6162076"><ele>1008.8</ele><time>2026-05-02T13:14:01.379Z</time></trkpt><trkpt lat="45.892264" lon="11.6162792"><ele>1008.2</ele><time>2026-05-02T13:14:03.378Z</time></trkpt><trkpt lat="45.8921494" lon="11.6163409"><ele>1007.6</ele><time>2026-05-02T13:14:05.379Z</time></trkpt><trkpt lat="45.8920904" lon="11.616374"><ele>1007.0</ele><time>2026-05-02T13:14:06.379Z</time></trkpt><trkpt lat="45.8920303" lon="11.6164071"><ele>1007.0</ele><time>2026-05-02T13:14:07.379Z</time></trkpt><trkpt lat="45.89197" lon="11.6164363"><ele>1007.0</ele><time>2026-05-02T13:14:08.378Z</time></trkpt><trkpt lat="45.8919108" lon="11.6164672"><ele>1007.0</ele><time>2026-05-02T13:14:09.379Z</time></trkpt><trkpt lat="45.891792" lon="11.6165273"><ele>1007.0</ele><time>2026-05-02T13:14:11.379Z</time></trkpt><trkpt lat="45.8917314" lon="11.6165568"><ele>1007.0</ele><time>2026-05-02T13:14:12.379Z</time></trkpt><trkpt lat="45.8916713" lon="11.6165881"><ele>1007.0</ele><time>2026-05-02T13:14:13.379Z</time></trkpt><trkpt lat="45.8916121" lon="11.6166193"><ele>1007.0</ele><time>2026-05-02T13:14:14.379Z</time></trkpt><trkpt lat="45.8914931" lon="11.6166581"><ele>1009.1666666666667</ele><time>2026-05-02T13:14:16.379Z</time></trkpt><trkpt lat="45.8913702" lon="11.6166828"><ele>1011.3333333333334</ele><time>2026-05-02T13:14:18.378Z</time></trkpt><trkpt lat="45.8913051" lon="11.6166999"><ele>1013.5</ele><time>2026-05-02T13:14:19.378Z</time></trkpt><trkpt lat="45.8912394" lon="11.6167137"><ele>1015.6666666666667</ele><time>2026-05-02T13:14:20.378Z</time></trkpt><trkpt lat="45.8911745" lon="11.6167255"><ele>1017.8333333333334</ele><time>2026-05-02T13:14:21.379Z</time></trkpt><trkpt lat="45.8911097" lon="11.6167415"><ele>1020.0</ele><time>2026-05-02T13:14:22.379Z</time></trkpt><trkpt lat="45.8910445" lon="11.6167594"><ele>1020.0</ele><time>2026-05-02T13:14:23.379Z</time></trkpt><trkpt lat="45.8909766" lon="11.6167728"><ele>1020.0000000000001</ele><time>2026-05-02T13:14:24.379Z</time></trkpt><trkpt lat="45.8908984" lon="11.6167829"><ele>1020.0</ele><time>2026-05-02T13:14:25.379Z</time></trkpt><trkpt lat="45.8908311" lon="11.6167678"><ele>1020.0</ele><time>2026-05-02T13:14:26.378Z</time></trkpt><trkpt lat="45.8907734" lon="11.6167206"><ele>1020.0000000000001</ele><time>2026-05-02T13:14:27.379Z</time></trkpt><trkpt lat="45.890744" lon="11.6166145"><ele>1020.0</ele><time>2026-05-02T13:14:28.379Z</time></trkpt><trkpt lat="45.8907274" lon="11.6165094"><ele>1020.0</ele><time>2026-05-02T13:14:29.378Z</time></trkpt><trkpt lat="45.8907192" lon="11.6164169"><ele>1020.6</ele><time>2026-05-02T13:14:30.379Z</time></trkpt><trkpt lat="45.8907216" lon="11.6163265"><ele>1021.2</ele><time>2026-05-02T13:14:31.378Z</time></trkpt><trkpt lat="45.8907719" lon="11.616161"><ele>1021.8</ele><time>2026-05-02T13:14:33.378Z</time></trkpt><trkpt lat="45.8908534" lon="11.6160328"><ele>1022.4</ele><time>2026-05-02T13:14:35.38Z</time></trkpt><trkpt lat="45.8909435" lon="11.6159394"><ele>1023.0</ele><time>2026-05-02T13:14:37.38Z</time></trkpt><trkpt lat="45.8910463" lon="11.6158848"><ele>1023.0</ele><time>2026-05-02T13:14:39.38Z</time></trkpt><trkpt lat="45.8911519" lon="11.6158273"><ele>1023.0</ele><time>2026-05-02T13:14:41.379Z</time></trkpt><trkpt lat="45.8912592" lon="11.615766"><ele>1023.0</ele><time>2026-05-02T13:14:43.38Z</time></trkpt><trkpt lat="45.8913659" lon="11.6156898"><ele>1023.0</ele><time>2026-05-02T13:14:45.38Z</time></trkpt><trkpt lat="45.8914739" lon="11.6156021"><ele>1023.0</ele><time>2026-05-02T13:14:47.38Z</time></trkpt><trkpt lat="45.8915298" lon="11.6155546"><ele>1023.0</ele><time>2026-05-02T13:14:48.379Z</time></trkpt><trkpt lat="45.8915865" lon="11.6155067"><ele>1023.0</ele><time>2026-05-02T13:14:49.38Z</time></trkpt><trkpt lat="45.8916397" lon="11.6154538"><ele>1023.0</ele><time>2026-05-02T13:14:50.38Z</time></trkpt><trkpt lat="45.8916912" lon="11.615399"><ele>1023.0</ele><time>2026-05-02T13:14:51.38Z</time></trkpt><trkpt lat="45.891792" lon="11.6152897"><ele>1023.0</ele><time>2026-05-02T13:14:53.38Z</time></trkpt><trkpt lat="45.8918816" lon="11.6151729"><ele>1023.2857142857143</ele><time>2026-05-02T13:14:55.379Z</time></trkpt><trkpt lat="45.8919607" lon="11.6150344"><ele>1023.5714285714284</ele><time>2026-05-02T13:14:57.38Z</time></trkpt><trkpt lat="45.8920012" lon="11.6149627"><ele>1023.8571428571428</ele><time>2026-05-02T13:14:58.38Z</time></trkpt><trkpt lat="45.8920385" lon="11.6148865"><ele>1024.142857142857</ele><time>2026-05-02T13:14:59.38Z</time></trkpt><trkpt lat="45.8920728" lon="11.6148052"><ele>1024.4285714285713</ele><time>2026-05-02T13:15:00.38Z</time></trkpt><trkpt lat="45.8921044" lon="11.6147225"><ele>1024.7142857142856</ele><time>2026-05-02T13:15:01.379Z</time></trkpt><trkpt lat="45.8921339" lon="11.6146422"><ele>1025.0</ele><time>2026-05-02T13:15:02.38Z</time></trkpt><trkpt lat="45.892187" lon="11.6144862"><ele>1025.0</ele><time>2026-05-02T13:15:04.38Z</time></trkpt><trkpt lat="45.892229" lon="11.6143312"><ele>1025.0</ele><time>2026-05-02T13:15:06.38Z</time></trkpt><trkpt lat="45.8922487" lon="11.614154"><ele>1025.0</ele><time>2026-05-02T13:15:08.38Z</time></trkpt><trkpt lat="45.8922478" lon="11.6140557"><ele>1025.0</ele><time>2026-05-02T13:15:09.38Z</time></trkpt><trkpt lat="45.8922463" lon="11.613957"><ele>1025.0</ele><time>2026-05-02T13:15:10.38Z</time></trkpt><trkpt lat="45.8922397" lon="11.6138558"><ele>1025.0</ele><time>2026-05-02T13:15:11.38Z</time></trkpt><trkpt lat="45.8922333" lon="11.6137557"><ele>1024.9999999999998</ele><time>2026-05-02T13:15:12.38Z</time></trkpt><trkpt lat="45.8922246" lon="11.6136557"><ele>1025.0</ele><time>2026-05-02T13:15:13.38Z</time></trkpt><trkpt lat="45.8922099" lon="11.6135546"><ele>1025.0</ele><time>2026-05-02T13:15:14.38Z</time></trkpt><trkpt lat="45.892195" lon="11.6134541"><ele>1025.0</ele><time>2026-05-02T13:15:15.38Z</time></trkpt><trkpt lat="45.8921807" lon="11.6133565"><ele>1025.0</ele><time>2026-05-02T13:15:16.379Z</time></trkpt><trkpt lat="45.8921654" lon="11.6132627"><ele>1024.9999999999998</ele><time>2026-05-02T13:15:17.38Z</time></trkpt><trkpt lat="45.8921494" lon="11.6131701"><ele>1025.0</ele><time>2026-05-02T13:15:18.379Z</time></trkpt><trkpt lat="45.8921275" lon="11.613077"><ele>1025.8571428571427</ele><time>2026-05-02T13:15:19.38Z</time></trkpt><trkpt lat="45.892099" lon="11.612985"><ele>1026.7142857142858</ele><time>2026-05-02T13:15:20.38Z</time></trkpt><trkpt lat="45.892069" lon="11.6128979"><ele>1027.5714285714284</ele><time>2026-05-02T13:15:21.38Z</time></trkpt><trkpt lat="45.8920415" lon="11.6128101"><ele>1028.4285714285713</ele><time>2026-05-02T13:15:22.38Z</time></trkpt><trkpt lat="45.8920132" lon="11.6127259"><ele>1029.2857142857142</ele><time>2026-05-02T13:15:23.379Z</time></trkpt><trkpt lat="45.8919934" lon="11.612633"><ele>1030.142857142857</ele><time>2026-05-02T13:15:24.379Z</time></trkpt><trkpt lat="45.8919793" lon="11.6125386"><ele>1031.0</ele><time>2026-05-02T13:15:25.38Z</time></trkpt><trkpt lat="45.8919664" lon="11.612444"><ele>1031.0</ele><time>2026-05-02T13:15:26.379Z</time></trkpt><trkpt lat="45.8919542" lon="11.6123512"><ele>1031.0</ele><time>2026-05-02T13:15:27.379Z</time></trkpt><trkpt lat="45.8919443" lon="11.6122579"><ele>1031.0</ele><time>2026-05-02T13:15:28.38Z</time></trkpt><trkpt lat="45.8919387" lon="11.6121646"><ele>1031.0</ele><time>2026-05-02T13:15:29.379Z</time></trkpt><trkpt lat="45.8919478" lon="11.6120706"><ele>1031.0</ele><time>2026-05-02T13:15:30.38Z</time></trkpt><trkpt lat="45.8919694" lon="11.6119782"><ele>1031.0</ele><time>2026-05-02T13:15:31.38Z</time></trkpt><trkpt lat="45.8919949" lon="11.6118866"><ele>1031.0</ele><time>2026-05-02T13:15:32.379Z</time></trkpt><trkpt lat="45.892028" lon="11.6118"><ele>1029.0</ele><time>2026-05-02T13:15:33.38Z</time></trkpt><trkpt lat="45.8920622" lon="11.6117125"><ele>1027.0</ele><time>2026-05-02T13:15:34.379Z</time></trkpt><trkpt lat="45.8921006" lon="11.6116303"><ele>1025.0</ele><time>2026-05-02T13:15:35.38Z</time></trkpt><trkpt lat="45.8921415" lon="11.6115518"><ele>1023.0</ele><time>2026-05-02T13:15:36.379Z</time></trkpt><trkpt lat="45.8921824" lon="11.611482"><ele>1021.0000000000001</ele><time>2026-05-02T13:15:37.38Z</time></trkpt><trkpt lat="45.8922693" lon="11.6113663"><ele>1019.0</ele><time>2026-05-02T13:15:39.38Z</time></trkpt><trkpt lat="45.8923646" lon="11.6112738"><ele>1019.0</ele><time>2026-05-02T13:15:41.381Z</time></trkpt><trkpt lat="45.8924645" lon="11.6112081"><ele>1019.0000000000001</ele><time>2026-05-02T13:15:43.381Z</time></trkpt><trkpt lat="45.8925698" lon="11.6111687"><ele>1019.0000000000001</ele><time>2026-05-02T13:15:45.38Z</time></trkpt><trkpt lat="45.8926585" lon="11.6111279"><ele>1019.0</ele><time>2026-05-02T13:15:47.38Z</time></trkpt><trkpt lat="45.8927317" lon="11.6110972"><ele>1019.0</ele><time>2026-05-02T13:15:49.381Z</time></trkpt><trkpt lat="45.8928051" lon="11.6110758"><ele>1019.0000000000001</ele><time>2026-05-02T13:15:51.381Z</time></trkpt><trkpt lat="45.8928854" lon="11.6110449"><ele>1019.0</ele><time>2026-05-02T13:15:53.38Z</time></trkpt><trkpt lat="45.8929707" lon="11.611005"><ele>1019.0</ele><time>2026-05-02T13:15:55.381Z</time></trkpt><trkpt lat="45.8930569" lon="11.6109861"><ele>1019.0</ele><time>2026-05-02T13:15:57.38Z</time></trkpt><trkpt lat="45.8931237" lon="11.6109532"><ele>1019.0000000000001</ele><time>2026-05-02T13:15:59.381Z</time></trkpt><trkpt lat="45.893182" lon="11.6108954"><ele>1019.0</ele><time>2026-05-02T13:16:01.381Z</time></trkpt><trkpt lat="45.8933225" lon="11.6108543"><ele>1019.0000000000001</ele><time>2026-05-02T13:16:03.381Z</time></trkpt><trkpt lat="45.8932651" lon="11.6107813"><ele>1019.0</ele><time>2026-05-02T13:16:08.381Z</time></trkpt><trkpt lat="45.8931717" lon="11.610853"><ele>1019.0</ele><time>2026-05-02T13:16:10.381Z</time></trkpt><trkpt lat="45.8931034" lon="11.6109017"><ele>1019.0</ele><time>2026-05-02T13:16:12.381Z</time></trkpt><trkpt lat="45.8930232" lon="11.610932"><ele>1019.0000000000001</ele><time>2026-05-02T13:16:14.38Z</time></trkpt><trkpt lat="45.8929409" lon="11.6109563"><ele>1019.0</ele><time>2026-05-02T13:16:16.381Z</time></trkpt><trkpt lat="45.8928567" lon="11.6109778"><ele>1019.0000000000001</ele><time>2026-05-02T13:16:18.38Z</time></trkpt><trkpt lat="45.8927759" lon="11.6110128"><ele>1019.0</ele><time>2026-05-02T13:16:20.381Z</time></trkpt><trkpt lat="45.8926977" lon="11.611049"><ele>1019.0</ele><time>2026-05-02T13:16:22.381Z</time></trkpt><trkpt lat="45.8926196" lon="11.6110827"><ele>1019.0</ele><time>2026-05-02T13:16:24.381Z</time></trkpt><trkpt lat="45.8925512" lon="11.611117"><ele>1019.0000000000001</ele><time>2026-05-02T13:16:26.381Z</time></trkpt><trkpt lat="45.8924914" lon="11.611162"><ele>1019.0</ele><time>2026-05-02T13:16:28.381Z</time></trkpt><trkpt lat="45.8924205" lon="11.6112034"><ele>1019.0000000000001</ele><time>2026-05-02T13:16:31.381Z</time></trkpt><trkpt lat="45.8923585" lon="11.6112416"><ele>1019.0</ele><time>2026-05-02T13:16:34.381Z</time></trkpt><trkpt lat="45.8924271" lon="11.6112217"><ele>1019.0</ele><time>2026-05-02T13:16:53.382Z</time></trkpt><trkpt lat="45.8925229" lon="11.6111574"><ele>1019.0</ele><time>2026-05-02T13:16:56.396Z</time></trkpt><trkpt lat="45.8925989" lon="11.6111282"><ele>1019.0000000000001</ele><time>2026-05-02T13:16:58.411Z</time></trkpt><trkpt lat="45.8926775" lon="11.6111063"><ele>1019.0</ele><time>2026-05-02T13:17:00.424Z</time></trkpt><trkpt lat="45.8927483" lon="11.611074"><ele>1019.0000000000001</ele><time>2026-05-02T13:17:02.437Z</time></trkpt><trkpt lat="45.8928231" lon="11.6110673"><ele>1019.0</ele><time>2026-05-02T13:17:04.45Z</time></trkpt><trkpt lat="45.8928953" lon="11.6110481"><ele>1019.0</ele><time>2026-05-02T13:17:06.399Z</time></trkpt><trkpt lat="45.8929718" lon="11.6110131"><ele>1019.0</ele><time>2026-05-02T13:17:08.381Z</time></trkpt><trkpt lat="45.8930529" lon="11.6109835"><ele>1019.0000000000001</ele><time>2026-05-02T13:17:10.375Z</time></trkpt><trkpt lat="45.8931405" lon="11.6109472"><ele>1019.0</ele><time>2026-05-02T13:17:12.404Z</time></trkpt><trkpt lat="45.8932275" lon="11.6108759"><ele>1019.0</ele><time>2026-05-02T13:17:14.382Z</time></trkpt><trkpt lat="45.8933139" lon="11.6108122"><ele>1019.0000000000001</ele><time>2026-05-02T13:17:16.382Z</time></trkpt><trkpt lat="45.8934042" lon="11.6107462"><ele>1019.0000000000001</ele><time>2026-05-02T13:17:18.382Z</time></trkpt><trkpt lat="45.8935072" lon="11.6106909"><ele>1019.0</ele><time>2026-05-02T13:17:20.382Z</time></trkpt><trkpt lat="45.8936117" lon="11.6106271"><ele>1019.0</ele><time>2026-05-02T13:17:22.382Z</time></trkpt><trkpt lat="45.8937145" lon="11.610548"><ele>1018.6</ele><time>2026-05-02T13:17:24.381Z</time></trkpt><trkpt lat="45.8938149" lon="11.6104679"><ele>1018.2</ele><time>2026-05-02T13:17:26.382Z</time></trkpt><trkpt lat="45.8939076" lon="11.6103722"><ele>1017.8000000000001</ele><time>2026-05-02T13:17:28.382Z</time></trkpt><trkpt lat="45.8939843" lon="11.6102608"><ele>1017.4000000000001</ele><time>2026-05-02T13:17:30.382Z</time></trkpt><trkpt lat="45.8940546" lon="11.6101468"><ele>1017.0</ele><time>2026-05-02T13:17:32.381Z</time></trkpt><trkpt lat="45.8941241" lon="11.6100293"><ele>1017.0</ele><time>2026-05-02T13:17:34.381Z</time></trkpt><trkpt lat="45.894195" lon="11.6099189"><ele>1017.0</ele><time>2026-05-02T13:17:36.382Z</time></trkpt><trkpt lat="45.8942592" lon="11.6097977"><ele>1017.0</ele><time>2026-05-02T13:17:38.382Z</time></trkpt><trkpt lat="45.8943228" lon="11.6096926"><ele>1017.0</ele><time>2026-05-02T13:17:40.381Z</time></trkpt><trkpt lat="45.894377" lon="11.6095689"><ele>1017.0</ele><time>2026-05-02T13:17:42.382Z</time></trkpt><trkpt lat="45.8944183" lon="11.6094404"><ele>1022.75</ele><time>2026-05-02T13:17:44.381Z</time></trkpt><trkpt lat="45.8944525" lon="11.6092974"><ele>1028.5</ele><time>2026-05-02T13:17:46.382Z</time></trkpt><trkpt lat="45.894474" lon="11.6091354"><ele>1034.25</ele><time>2026-05-02T13:17:48.382Z</time></trkpt><trkpt lat="45.8944881" lon="11.6089576"><ele>1040.0</ele><time>2026-05-02T13:17:50.382Z</time></trkpt><trkpt lat="45.8944913" lon="11.6087795"><ele>1039.0</ele><time>2026-05-02T13:17:52.382Z</time></trkpt><trkpt lat="45.8944942" lon="11.6086041"><ele>1038.0</ele><time>2026-05-02T13:17:54.382Z</time></trkpt><trkpt lat="45.8945011" lon="11.6084361"><ele>1037.0</ele><time>2026-05-02T13:17:56.383Z</time></trkpt><trkpt lat="45.8945019" lon="11.6082748"><ele>1036.0</ele><time>2026-05-02T13:17:58.382Z</time></trkpt><trkpt lat="45.8945079" lon="11.6081207"><ele>1036.0</ele><time>2026-05-02T13:18:00.383Z</time></trkpt><trkpt lat="45.8945148" lon="11.6079665"><ele>1036.0</ele><time>2026-05-02T13:18:02.382Z</time></trkpt><trkpt lat="45.8945197" lon="11.6078043"><ele>1036.0</ele><time>2026-05-02T13:18:04.382Z</time></trkpt><trkpt lat="45.8945389" lon="11.6076585"><ele>1036.0</ele><time>2026-05-02T13:18:06.382Z</time></trkpt><trkpt lat="45.8945266" lon="11.6075599"><ele>1036.0</ele><time>2026-05-02T13:18:08.383Z</time></trkpt><trkpt lat="45.8944653" lon="11.6076"><ele>1036.0</ele><time>2026-05-02T13:18:11.383Z</time></trkpt><trkpt lat="45.8944358" lon="11.6077049"><ele>1036.0</ele><time>2026-05-02T13:18:13.383Z</time></trkpt><trkpt lat="45.8943753" lon="11.6078236"><ele>1036.0</ele><time>2026-05-02T13:18:15.383Z</time></trkpt><trkpt lat="45.8943392" lon="11.6079491"><ele>1036.0</ele><time>2026-05-02T13:18:17.383Z</time></trkpt><trkpt lat="45.8943086" lon="11.6080838"><ele>1036.0</ele><time>2026-05-02T13:18:19.383Z</time></trkpt><trkpt lat="45.8942802" lon="11.608216"><ele>1036.0</ele><time>2026-05-02T13:18:21.383Z</time></trkpt><trkpt lat="45.8942561" lon="11.6083427"><ele>1036.0</ele><time>2026-05-02T13:18:23.383Z</time></trkpt><trkpt lat="45.8942307" lon="11.6084614"><ele>1036.0</ele><time>2026-05-02T13:18:25.383Z</time></trkpt><trkpt lat="45.8941974" lon="11.608565"><ele>1036.0</ele><time>2026-05-02T13:18:27.383Z</time></trkpt><trkpt lat="45.8941641" lon="11.6086839"><ele>1036.0</ele><time>2026-05-02T13:18:29.383Z</time></trkpt><trkpt lat="45.8941299" lon="11.6087925"><ele>1036.0</ele><time>2026-05-02T13:18:31.382Z</time></trkpt><trkpt lat="45.8941143" lon="11.6089092"><ele>1029.6666666666665</ele><time>2026-05-02T13:18:33.383Z</time></trkpt><trkpt lat="45.8940976" lon="11.609019"><ele>1023.3333333333333</ele><time>2026-05-02T13:18:35.383Z</time></trkpt><trkpt lat="45.8940495" lon="11.6090867"><ele>1017.0</ele><time>2026-05-02T13:18:37.383Z</time></trkpt><trkpt lat="45.893976" lon="11.6090886"><ele>1010.6666666666667</ele><time>2026-05-02T13:18:40.382Z</time></trkpt><trkpt lat="45.8939636" lon="11.6089948"><ele>1004.3333333333334</ele><time>2026-05-02T13:18:42.382Z</time></trkpt><trkpt lat="45.8939735" lon="11.6088564"><ele>998.0</ele><time>2026-05-02T13:18:44.383Z</time></trkpt><trkpt lat="45.8939705" lon="11.608723"><ele>996.8</ele><time>2026-05-02T13:18:46.383Z</time></trkpt><trkpt lat="45.8939598" lon="11.6085829"><ele>995.5999999999999</ele><time>2026-05-02T13:18:48.382Z</time></trkpt><trkpt lat="45.8939443" lon="11.6084542"><ele>994.4000000000001</ele><time>2026-05-02T13:18:50.382Z</time></trkpt><trkpt lat="45.8939192" lon="11.6083146"><ele>993.2</ele><time>2026-05-02T13:18:52.383Z</time></trkpt><trkpt lat="45.8938792" lon="11.6081779"><ele>992.0</ele><time>2026-05-02T13:18:54.382Z</time></trkpt><trkpt lat="45.8938581" lon="11.6080646"><ele>992.0</ele><time>2026-05-02T13:18:56.383Z</time></trkpt><trkpt lat="45.8938401" lon="11.6079409"><ele>992.0</ele><time>2026-05-02T13:18:58.383Z</time></trkpt><trkpt lat="45.8938231" lon="11.6077665"><ele>992.0</ele><time>2026-05-02T13:19:00.383Z</time></trkpt><trkpt lat="45.8938216" lon="11.6075913"><ele>992.0</ele><time>2026-05-02T13:19:02.382Z</time></trkpt><trkpt lat="45.89384" lon="11.6074721"><ele>992.0</ele><time>2026-05-02T13:19:04.384Z</time></trkpt><trkpt lat="45.893878" lon="11.6073162"><ele>991.6666666666667</ele><time>2026-05-02T13:19:06.383Z</time></trkpt><trkpt lat="45.8939282" lon="11.6071766"><ele>991.3333333333334</ele><time>2026-05-02T13:19:08.384Z</time></trkpt><trkpt lat="45.8939774" lon="11.6070576"><ele>991.0</ele><time>2026-05-02T13:19:10.383Z</time></trkpt><trkpt lat="45.8940152" lon="11.6069467"><ele>990.6666666666667</ele><time>2026-05-02T13:19:12.384Z</time></trkpt><trkpt lat="45.8940198" lon="11.6068486"><ele>990.3333333333334</ele><time>2026-05-02T13:19:14.384Z</time></trkpt><trkpt lat="45.8940213" lon="11.6067541"><ele>990.0</ele><time>2026-05-02T13:19:16.384Z</time></trkpt><trkpt lat="45.8940192" lon="11.6066445"><ele>989.0</ele><time>2026-05-02T13:19:18.384Z</time></trkpt><trkpt lat="45.8939311" lon="11.6066809"><ele>988.0</ele><time>2026-05-02T13:22:13.386Z</time></trkpt><trkpt lat="45.8938974" lon="11.6065757"><ele>987.0</ele><time>2026-05-02T13:22:29.386Z</time></trkpt><trkpt lat="45.8939217" lon="11.6064443"><ele>986.0</ele><time>2026-05-02T13:22:32.386Z</time></trkpt><trkpt lat="45.8939293" lon="11.6063376"><ele>985.0</ele><time>2026-05-02T13:22:34.386Z</time></trkpt><trkpt lat="45.8939347" lon="11.606229"><ele>984.0</ele><time>2026-05-02T13:22:36.387Z</time></trkpt><trkpt lat="45.8939365" lon="11.6061028"><ele>983.4000000000001</ele><time>2026-05-02T13:22:38.386Z</time></trkpt><trkpt lat="45.8939316" lon="11.6059652"><ele>982.8000000000001</ele><time>2026-05-02T13:22:40.386Z</time></trkpt><trkpt lat="45.8939175" lon="11.6058076"><ele>982.1999999999999</ele><time>2026-05-02T13:22:42.387Z</time></trkpt><trkpt lat="45.8939104" lon="11.6056501"><ele>981.5999999999999</ele><time>2026-05-02T13:22:44.387Z</time></trkpt><trkpt lat="45.8939018" lon="11.6054866"><ele>981.0</ele><time>2026-05-02T13:22:46.387Z</time></trkpt><trkpt lat="45.8939022" lon="11.6053147"><ele>979.1999999999999</ele><time>2026-05-02T13:22:48.387Z</time></trkpt><trkpt lat="45.893902" lon="11.6051407"><ele>977.3999999999999</ele><time>2026-05-02T13:22:50.387Z</time></trkpt><trkpt lat="45.8939171" lon="11.6049785"><ele>975.6</ele><time>2026-05-02T13:22:52.387Z</time></trkpt><trkpt lat="45.893958" lon="11.604842"><ele>973.8</ele><time>2026-05-02T13:22:54.386Z</time></trkpt><trkpt lat="45.8940048" lon="11.6047257"><ele>972.0</ele><time>2026-05-02T13:22:56.387Z</time></trkpt><trkpt lat="45.8940634" lon="11.6046307"><ele>972.0</ele><time>2026-05-02T13:22:58.386Z</time></trkpt><trkpt lat="45.8941246" lon="11.6045631"><ele>972.0</ele><time>2026-05-02T13:23:00.386Z</time></trkpt><trkpt lat="45.8941805" lon="11.6045004"><ele>972.0</ele><time>2026-05-02T13:23:02.387Z</time></trkpt><trkpt lat="45.8942404" lon="11.604435"><ele>972.0</ele><time>2026-05-02T13:23:04.387Z</time></trkpt><trkpt lat="45.8942968" lon="11.6043679"><ele>972.0</ele><time>2026-05-02T13:23:06.387Z</time></trkpt><trkpt lat="45.8943559" lon="11.6042671"><ele>972.0</ele><time>2026-05-02T13:23:09.386Z</time></trkpt><trkpt lat="45.8944026" lon="11.6041902"><ele>974.1666666666666</ele><time>2026-05-02T13:23:11.387Z</time></trkpt><trkpt lat="45.8944645" lon="11.6041271"><ele>976.3333333333333</ele><time>2026-05-02T13:23:13.386Z</time></trkpt><trkpt lat="45.8945275" lon="11.6040564"><ele>978.5</ele><time>2026-05-02T13:23:15.387Z</time></trkpt><trkpt lat="45.8945829" lon="11.6039848"><ele>980.6666666666666</ele><time>2026-05-02T13:23:17.386Z</time></trkpt><trkpt lat="45.8946294" lon="11.6039012"><ele>982.8333333333333</ele><time>2026-05-02T13:23:19.386Z</time></trkpt><trkpt lat="45.8946787" lon="11.6038094"><ele>985.0</ele><time>2026-05-02T13:23:21.387Z</time></trkpt><trkpt lat="45.8947286" lon="11.603708"><ele>979.6</ele><time>2026-05-02T13:23:23.387Z</time></trkpt><trkpt lat="45.8947781" lon="11.6035876"><ele>974.2</ele><time>2026-05-02T13:23:25.387Z</time></trkpt><trkpt lat="45.894833" lon="11.6034506"><ele>968.8</ele><time>2026-05-02T13:23:27.387Z</time></trkpt><trkpt lat="45.8948917" lon="11.6032953"><ele>963.4</ele><time>2026-05-02T13:23:29.387Z</time></trkpt><trkpt lat="45.8949207" lon="11.6032104"><ele>958.0</ele><time>2026-05-02T13:23:30.387Z</time></trkpt><trkpt lat="45.8949515" lon="11.6031193"><ele>957.9999999999999</ele><time>2026-05-02T13:23:31.387Z</time></trkpt><trkpt lat="45.8949844" lon="11.6030282"><ele>958.0</ele><time>2026-05-02T13:23:32.387Z</time></trkpt><trkpt lat="45.8950159" lon="11.6029373"><ele>958.0</ele><time>2026-05-02T13:23:33.387Z</time></trkpt><trkpt lat="45.8950356" lon="11.6028415"><ele>958.0</ele><time>2026-05-02T13:23:34.387Z</time></trkpt><trkpt lat="45.8950515" lon="11.6027456"><ele>957.9999999999999</ele><time>2026-05-02T13:23:35.386Z</time></trkpt><trkpt lat="45.895063" lon="11.6026559"><ele>958.0</ele><time>2026-05-02T13:23:36.387Z</time></trkpt><trkpt lat="45.8950884" lon="11.6024798"><ele>956.3333333333333</ele><time>2026-05-02T13:23:38.387Z</time></trkpt><trkpt lat="45.8950991" lon="11.6023846"><ele>954.6666666666666</ele><time>2026-05-02T13:23:39.387Z</time></trkpt><trkpt lat="45.8950929" lon="11.6022834"><ele>953.0</ele><time>2026-05-02T13:23:40.387Z</time></trkpt><trkpt lat="45.8950735" lon="11.60219"><ele>951.3333333333333</ele><time>2026-05-02T13:23:41.387Z</time></trkpt><trkpt lat="45.8949857" lon="11.6020728"><ele>949.6666666666666</ele><time>2026-05-02T13:23:43.386Z</time></trkpt><trkpt lat="45.8949104" lon="11.6020343"><ele>948.0</ele><time>2026-05-02T13:23:45.386Z</time></trkpt><trkpt lat="45.8948422" lon="11.602071"><ele>948.0</ele><time>2026-05-02T13:23:48.387Z</time></trkpt><trkpt lat="45.8947603" lon="11.6020588"><ele>948.0</ele><time>2026-05-02T13:23:50.388Z</time></trkpt><trkpt lat="45.8946787" lon="11.6020732"><ele>948.0</ele><time>2026-05-02T13:23:52.387Z</time></trkpt><trkpt lat="45.8945837" lon="11.6020968"><ele>948.0</ele><time>2026-05-02T13:23:54.388Z</time></trkpt><trkpt lat="45.8944895" lon="11.6021093"><ele>948.0</ele><time>2026-05-02T13:23:56.388Z</time></trkpt><trkpt lat="45.894401" lon="11.602114"><ele>948.0</ele><time>2026-05-02T13:23:58.388Z</time></trkpt><trkpt lat="45.8943252" lon="11.6021222"><ele>947.6666666666666</ele><time>2026-05-02T13:24:00.388Z</time></trkpt><trkpt lat="45.8942397" lon="11.6021162"><ele>947.3333333333333</ele><time>2026-05-02T13:24:02.387Z</time></trkpt><trkpt lat="45.894152" lon="11.6020699"><ele>947.0</ele><time>2026-05-02T13:24:04.388Z</time></trkpt><trkpt lat="45.8940654" lon="11.60204"><ele>946.6666666666666</ele><time>2026-05-02T13:24:06.388Z</time></trkpt><trkpt lat="45.8939768" lon="11.601984"><ele>946.3333333333333</ele><time>2026-05-02T13:24:08.388Z</time></trkpt><trkpt lat="45.8939056" lon="11.6019256"><ele>946.0</ele><time>2026-05-02T13:24:10.388Z</time></trkpt><trkpt lat="45.8938467" lon="11.6018534"><ele>945.9999999999999</ele><time>2026-05-02T13:24:12.388Z</time></trkpt><trkpt lat="45.8937995" lon="11.601774"><ele>946.0</ele><time>2026-05-02T13:24:14.388Z</time></trkpt><trkpt lat="45.8937645" lon="11.6016976"><ele>946.0</ele><time>2026-05-02T13:24:16.388Z</time></trkpt><trkpt lat="45.8936836" lon="11.6016537"><ele>946.0</ele><time>2026-05-02T13:24:19.388Z</time></trkpt><trkpt lat="45.8936107" lon="11.6016861"><ele>945.9999999999999</ele><time>2026-05-02T13:24:21.388Z</time></trkpt><trkpt lat="45.8935294" lon="11.601751"><ele>946.0</ele><time>2026-05-02T13:24:23.388Z</time></trkpt><trkpt lat="45.8934603" lon="11.6018328"><ele>941.3333333333333</ele><time>2026-05-02T13:24:25.388Z</time></trkpt><trkpt lat="45.8934192" lon="11.6019425"><ele>936.6666666666666</ele><time>2026-05-02T13:24:27.387Z</time></trkpt><trkpt lat="45.8933898" lon="11.6020634"><ele>932.0</ele><time>2026-05-02T13:24:29.388Z</time></trkpt><trkpt lat="45.8933839" lon="11.6021736"><ele>927.3333333333333</ele><time>2026-05-02T13:24:31.388Z</time></trkpt><trkpt lat="45.8933973" lon="11.6022721"><ele>922.6666666666666</ele><time>2026-05-02T13:24:33.388Z</time></trkpt><trkpt lat="45.8934145" lon="11.6023635"><ele>918.0</ele><time>2026-05-02T13:24:35.387Z</time></trkpt><trkpt lat="45.8933934" lon="11.6024619"><ele>917.6666666666666</ele><time>2026-05-02T13:24:38.388Z</time></trkpt><trkpt lat="45.8933247" lon="11.602452"><ele>917.3333333333333</ele><time>2026-05-02T13:24:40.388Z</time></trkpt><trkpt lat="45.8932458" lon="11.6024382"><ele>917.0</ele><time>2026-05-02T13:24:42.388Z</time></trkpt><trkpt lat="45.8931667" lon="11.6024359"><ele>916.6666666666666</ele><time>2026-05-02T13:24:44.388Z</time></trkpt><trkpt lat="45.8930986" lon="11.6024201"><ele>916.3333333333333</ele><time>2026-05-02T13:24:46.388Z</time></trkpt><trkpt lat="45.8930183" lon="11.6023665"><ele>916.0</ele><time>2026-05-02T13:24:49.388Z</time></trkpt><trkpt lat="45.8929648" lon="11.6022931"><ele>916.0</ele><time>2026-05-02T13:24:51.388Z</time></trkpt><trkpt lat="45.8929124" lon="11.6021889"><ele>915.9999999999999</ele><time>2026-05-02T13:24:53.388Z</time></trkpt><trkpt lat="45.8928675" lon="11.6020712"><ele>915.9999999999999</ele><time>2026-05-02T13:24:55.388Z</time></trkpt><trkpt lat="45.8928104" lon="11.601955"><ele>916.0</ele><time>2026-05-02T13:24:57.388Z</time></trkpt><trkpt lat="45.8927515" lon="11.6018318"><ele>916.0</ele><time>2026-05-02T13:24:59.389Z</time></trkpt><trkpt lat="45.8926905" lon="11.6017004"><ele>916.3333333333333</ele><time>2026-05-02T13:25:01.389Z</time></trkpt><trkpt lat="45.8926393" lon="11.6015725"><ele>916.6666666666666</ele><time>2026-05-02T13:25:03.388Z</time></trkpt><trkpt lat="45.8926016" lon="11.6014596"><ele>917.0</ele><time>2026-05-02T13:25:05.389Z</time></trkpt><trkpt lat="45.8925456" lon="11.6013743"><ele>917.3333333333333</ele><time>2026-05-02T13:25:07.388Z</time></trkpt><trkpt lat="45.8924568" lon="11.6013631"><ele>917.6666666666666</ele><time>2026-05-02T13:25:09.388Z</time></trkpt><trkpt lat="45.8923843" lon="11.6014363"><ele>918.0</ele><time>2026-05-02T13:25:11.388Z</time></trkpt><trkpt lat="45.8923374" lon="11.6015321"><ele>915.2</ele><time>2026-05-02T13:25:13.388Z</time></trkpt><trkpt lat="45.8922976" lon="11.601628"><ele>912.4</ele><time>2026-05-02T13:25:15.388Z</time></trkpt><trkpt lat="45.8922552" lon="11.6017281"><ele>909.6000000000001</ele><time>2026-05-02T13:25:17.388Z</time></trkpt><trkpt lat="45.8921893" lon="11.6018649"><ele>906.8000000000001</ele><time>2026-05-02T13:25:19.389Z</time></trkpt><trkpt lat="45.8921164" lon="11.6020116"><ele>904.0</ele><time>2026-05-02T13:25:21.388Z</time></trkpt><trkpt lat="45.892072" lon="11.602089"><ele>904.0</ele><time>2026-05-02T13:25:22.389Z</time></trkpt><trkpt lat="45.892029" lon="11.602167"><ele>904.0</ele><time>2026-05-02T13:25:23.389Z</time></trkpt><trkpt lat="45.8919858" lon="11.6022442"><ele>904.0</ele><time>2026-05-02T13:25:24.389Z</time></trkpt><trkpt lat="45.8919423" lon="11.6023219"><ele>904.0</ele><time>2026-05-02T13:25:25.389Z</time></trkpt><trkpt lat="45.891898" lon="11.6024043"><ele>904.0</ele><time>2026-05-02T13:25:26.389Z</time></trkpt><trkpt lat="45.891856" lon="11.6024892"><ele>904.0</ele><time>2026-05-02T13:25:27.389Z</time></trkpt><trkpt lat="45.8918123" lon="11.6025722"><ele>904.0</ele><time>2026-05-02T13:25:28.388Z</time></trkpt><trkpt lat="45.8917707" lon="11.6026541"><ele>900.9999999999999</ele><time>2026-05-02T13:25:29.389Z</time></trkpt><trkpt lat="45.8917328" lon="11.6027349"><ele>898.0</ele><time>2026-05-02T13:25:30.389Z</time></trkpt><trkpt lat="45.8916937" lon="11.6028115"><ele>895.0</ele><time>2026-05-02T13:25:31.389Z</time></trkpt><trkpt lat="45.8916311" lon="11.6029492"><ele>892.0</ele><time>2026-05-02T13:25:33.389Z</time></trkpt><trkpt lat="45.8915848" lon="11.6030785"><ele>888.9999999999999</ele><time>2026-05-02T13:25:35.389Z</time></trkpt><trkpt lat="45.8915279" lon="11.6031829"><ele>886.0</ele><time>2026-05-02T13:25:37.389Z</time></trkpt><trkpt lat="45.8914351" lon="11.6031982"><ele>886.0</ele><time>2026-05-02T13:25:39.388Z</time></trkpt><trkpt lat="45.8913413" lon="11.6031364"><ele>885.9999999999999</ele><time>2026-05-02T13:25:41.389Z</time></trkpt><trkpt lat="45.8912585" lon="11.6030633"><ele>885.9999999999999</ele><time>2026-05-02T13:25:43.388Z</time></trkpt><trkpt lat="45.8911917" lon="11.6029609"><ele>886.0</ele><time>2026-05-02T13:25:45.389Z</time></trkpt><trkpt lat="45.8911229" lon="11.6028507"><ele>886.0</ele><time>2026-05-02T13:25:47.389Z</time></trkpt><trkpt lat="45.8910568" lon="11.6027381"><ele>886.0</ele><time>2026-05-02T13:25:49.389Z</time></trkpt><trkpt lat="45.8910011" lon="11.6026203"><ele>885.9999999999999</ele><time>2026-05-02T13:25:51.389Z</time></trkpt><trkpt lat="45.8909435" lon="11.6025189"><ele>885.9999999999999</ele><time>2026-05-02T13:25:53.389Z</time></trkpt><trkpt lat="45.8908993" lon="11.6024156"><ele>886.0</ele><time>2026-05-02T13:25:55.389Z</time></trkpt><trkpt lat="45.8908604" lon="11.6022987"><ele>886.0</ele><time>2026-05-02T13:25:57.388Z</time></trkpt><trkpt lat="45.8908148" lon="11.6021881"><ele>882.4</ele><time>2026-05-02T13:25:59.388Z</time></trkpt><trkpt lat="45.8907676" lon="11.6020724"><ele>878.8</ele><time>2026-05-02T13:26:01.388Z</time></trkpt><trkpt lat="45.8907188" lon="11.6020086"><ele>875.1999999999999</ele><time>2026-05-02T13:26:03.389Z</time></trkpt><trkpt lat="45.890629" lon="11.6020717"><ele>871.5999999999999</ele><time>2026-05-02T13:26:05.389Z</time></trkpt><trkpt lat="45.8905724" lon="11.6021865"><ele>868.0</ele><time>2026-05-02T13:26:07.39Z</time></trkpt><trkpt lat="45.8905142" lon="11.6023035"><ele>868.0</ele><time>2026-05-02T13:26:09.39Z</time></trkpt><trkpt lat="45.8904491" lon="11.6024145"><ele>868.0</ele><time>2026-05-02T13:26:11.39Z</time></trkpt><trkpt lat="45.890379" lon="11.6025285"><ele>868.0</ele><time>2026-05-02T13:26:13.39Z</time></trkpt><trkpt lat="45.890298" lon="11.6026442"><ele>868.0</ele><time>2026-05-02T13:26:15.389Z</time></trkpt><trkpt lat="45.8902091" lon="11.6027702"><ele>868.0</ele><time>2026-05-02T13:26:17.389Z</time></trkpt><trkpt lat="45.8901622" lon="11.6028358"><ele>868.1428571428571</ele><time>2026-05-02T13:26:18.389Z</time></trkpt><trkpt lat="45.890114" lon="11.6029041"><ele>868.2857142857142</ele><time>2026-05-02T13:26:19.39Z</time></trkpt><trkpt lat="45.8900626" lon="11.602971"><ele>868.4285714285714</ele><time>2026-05-02T13:26:20.39Z</time></trkpt><trkpt lat="45.8900106" lon="11.603042"><ele>868.5714285714286</ele><time>2026-05-02T13:26:21.389Z</time></trkpt><trkpt lat="45.8899582" lon="11.6031127"><ele>868.7142857142857</ele><time>2026-05-02T13:26:22.389Z</time></trkpt><trkpt lat="45.8899053" lon="11.6031857"><ele>868.8571428571429</ele><time>2026-05-02T13:26:23.39Z</time></trkpt><trkpt lat="45.8898552" lon="11.6032564"><ele>869.0</ele><time>2026-05-02T13:26:24.39Z</time></trkpt><trkpt lat="45.8898055" lon="11.6033238"><ele>867.0000000000001</ele><time>2026-05-02T13:26:25.39Z</time></trkpt><trkpt lat="45.8897573" lon="11.6033905"><ele>865.0</ele><time>2026-05-02T13:26:26.39Z</time></trkpt><trkpt lat="45.8897105" lon="11.6034573"><ele>863.0</ele><time>2026-05-02T13:26:27.39Z</time></trkpt><trkpt lat="45.8896638" lon="11.6035223"><ele>861.0</ele><time>2026-05-02T13:26:28.39Z</time></trkpt><trkpt lat="45.8896169" lon="11.6035874"><ele>859.0000000000001</ele><time>2026-05-02T13:26:29.39Z</time></trkpt><trkpt lat="45.889528" lon="11.603714"><ele>857.0</ele><time>2026-05-02T13:26:31.39Z</time></trkpt><trkpt lat="45.8894433" lon="11.6038345"><ele>856.6</ele><time>2026-05-02T13:26:33.39Z</time></trkpt><trkpt lat="45.8893556" lon="11.6039397"><ele>856.2</ele><time>2026-05-02T13:26:35.389Z</time></trkpt><trkpt lat="45.8892828" lon="11.6040363"><ele>855.8</ele><time>2026-05-02T13:26:37.39Z</time></trkpt><trkpt lat="45.8892133" lon="11.604131"><ele>855.4</ele><time>2026-05-02T13:26:39.39Z</time></trkpt><trkpt lat="45.889139" lon="11.6042282"><ele>855.0</ele><time>2026-05-02T13:26:41.39Z</time></trkpt><trkpt lat="45.8890677" lon="11.6043245"><ele>852.4</ele><time>2026-05-02T13:26:43.39Z</time></trkpt><trkpt lat="45.8889956" lon="11.6044213"><ele>849.8</ele><time>2026-05-02T13:26:45.39Z</time></trkpt><trkpt lat="45.8889221" lon="11.6045181"><ele>847.2</ele><time>2026-05-02T13:26:47.389Z</time></trkpt><trkpt lat="45.8888501" lon="11.604614"><ele>844.6</ele><time>2026-05-02T13:26:49.39Z</time></trkpt><trkpt lat="45.888777" lon="11.6047142"><ele>842.0</ele><time>2026-05-02T13:26:51.389Z</time></trkpt><trkpt lat="45.8886989" lon="11.6048188"><ele>840.6</ele><time>2026-05-02T13:26:53.389Z</time></trkpt><trkpt lat="45.8886206" lon="11.6049259"><ele>839.2</ele><time>2026-05-02T13:26:55.39Z</time></trkpt><trkpt lat="45.888543" lon="11.6050251"><ele>837.8</ele><time>2026-05-02T13:26:57.39Z</time></trkpt><trkpt lat="45.8884682" lon="11.6051216"><ele>836.4</ele><time>2026-05-02T13:26:59.39Z</time></trkpt><trkpt lat="45.8883987" lon="11.605217"><ele>835.0</ele><time>2026-05-02T13:27:01.389Z</time></trkpt><trkpt lat="45.8883411" lon="11.6053448"><ele>841.3333333333333</ele><time>2026-05-02T13:27:03.39Z</time></trkpt><trkpt lat="45.8883229" lon="11.6054982"><ele>847.6666666666666</ele><time>2026-05-02T13:27:05.389Z</time></trkpt><trkpt lat="45.8883202" lon="11.6056429"><ele>854.0</ele><time>2026-05-02T13:27:07.39Z</time></trkpt><trkpt lat="45.8883199" lon="11.605762"><ele>860.3333333333333</ele><time>2026-05-02T13:27:09.389Z</time></trkpt><trkpt lat="45.888317" lon="11.6058599"><ele>866.6666666666666</ele><time>2026-05-02T13:27:11.389Z</time></trkpt><trkpt lat="45.8883118" lon="11.6059515"><ele>873.0</ele><time>2026-05-02T13:27:13.39Z</time></trkpt><trkpt lat="45.8883127" lon="11.6060429"><ele>872.1428571428571</ele><time>2026-05-02T13:27:15.391Z</time></trkpt><trkpt lat="45.8883191" lon="11.6061674"><ele>871.2857142857142</ele><time>2026-05-02T13:27:18.39Z</time></trkpt><trkpt lat="45.8883126" lon="11.6062722"><ele>870.4285714285713</ele><time>2026-05-02T13:27:21.391Z</time></trkpt><trkpt lat="45.8883158" lon="11.6063743"><ele>869.5714285714286</ele><time>2026-05-02T13:27:24.391Z</time></trkpt><trkpt lat="45.8883031" lon="11.6064719"><ele>868.7142857142858</ele><time>2026-05-02T13:27:27.391Z</time></trkpt><trkpt lat="45.8882756" lon="11.6065556"><ele>867.8571428571428</ele><time>2026-05-02T13:27:30.391Z</time></trkpt><trkpt lat="45.8882403" lon="11.6066481"><ele>867.0</ele><time>2026-05-02T13:27:34.391Z</time></trkpt><trkpt lat="45.8881918" lon="11.6067362"><ele>867.0</ele><time>2026-05-02T13:27:39.391Z</time></trkpt><trkpt lat="45.8881339" lon="11.6067859"><ele>867.0</ele><time>2026-05-02T13:27:43.391Z</time></trkpt><trkpt lat="45.8880797" lon="11.6068459"><ele>867.0</ele><time>2026-05-02T13:27:46.391Z</time></trkpt><trkpt lat="45.8880226" lon="11.6069326"><ele>867.0</ele><time>2026-05-02T13:27:50.391Z</time></trkpt><trkpt lat="45.8879652" lon="11.6070149"><ele>867.0</ele><time>2026-05-02T13:27:54.39Z</time></trkpt><trkpt lat="45.8879154" lon="11.6070706"><ele>867.0</ele><time>2026-05-02T13:27:57.391Z</time></trkpt><trkpt lat="45.887845" lon="11.6071278"><ele>867.0</ele><time>2026-05-02T13:28:01.391Z</time></trkpt><trkpt lat="45.8877781" lon="11.6071744"><ele>866.4285714285714</ele><time>2026-05-02T13:28:05.391Z</time></trkpt><trkpt lat="45.8877112" lon="11.6072225"><ele>865.8571428571429</ele><time>2026-05-02T13:28:09.391Z</time></trkpt><trkpt lat="45.8876462" lon="11.6072751"><ele>865.2857142857143</ele><time>2026-05-02T13:28:13.391Z</time></trkpt><trkpt lat="45.8875936" lon="11.6073326"><ele>864.7142857142858</ele><time>2026-05-02T13:28:17.391Z</time></trkpt><trkpt lat="45.8875308" lon="11.6073868"><ele>864.1428571428571</ele><time>2026-05-02T13:28:21.392Z</time></trkpt><trkpt lat="45.8874634" lon="11.6074249"><ele>863.5714285714287</ele><time>2026-05-02T13:28:25.392Z</time></trkpt><trkpt lat="45.8873924" lon="11.6074729"><ele>863.0</ele><time>2026-05-02T13:28:29.392Z</time></trkpt><trkpt lat="45.8873171" lon="11.6075228"><ele>863.0000000000001</ele><time>2026-05-02T13:28:33.392Z</time></trkpt><trkpt lat="45.8872514" lon="11.6075689"><ele>863.0</ele><time>2026-05-02T13:28:37.391Z</time></trkpt><trkpt lat="45.8871837" lon="11.6076274"><ele>863.0</ele><time>2026-05-02T13:28:41.392Z</time></trkpt><trkpt lat="45.8871215" lon="11.6076708"><ele>863.0</ele><time>2026-05-02T13:28:44.392Z</time></trkpt><trkpt lat="45.8870443" lon="11.6077216"><ele>863.0000000000001</ele><time>2026-05-02T13:28:48.391Z</time></trkpt><trkpt lat="45.8869685" lon="11.6077681"><ele>863.0</ele><time>2026-05-02T13:28:52.392Z</time></trkpt><trkpt lat="45.8869031" lon="11.6077819"><ele>863.0000000000001</ele><time>2026-05-02T13:28:55.392Z</time></trkpt><trkpt lat="45.8868293" lon="11.6077886"><ele>863.0</ele><time>2026-05-02T13:28:58.391Z</time></trkpt><trkpt lat="45.8867514" lon="11.6077937"><ele>863.0</ele><time>2026-05-02T13:29:03.408Z</time></trkpt><trkpt lat="45.8866797" lon="11.6077967"><ele>863.0</ele><time>2026-05-02T13:29:05.421Z</time></trkpt><trkpt lat="45.8866138" lon="11.6078057"><ele>863.0</ele><time>2026-05-02T13:29:07.435Z</time></trkpt><trkpt lat="45.8865325" lon="11.6077859"><ele>863.0000000000001</ele><time>2026-05-02T13:29:10.454Z</time></trkpt><trkpt lat="45.8864632" lon="11.607761"><ele>863.0</ele><time>2026-05-02T13:29:13.474Z</time></trkpt><trkpt lat="45.8864017" lon="11.6077285"><ele>865.8571428571429</ele><time>2026-05-02T13:29:16.393Z</time></trkpt><trkpt lat="45.8863401" lon="11.6076833"><ele>868.7142857142858</ele><time>2026-05-02T13:29:19.413Z</time></trkpt><trkpt lat="45.8862867" lon="11.6076321"><ele>871.5714285714287</ele><time>2026-05-02T13:29:22.432Z</time></trkpt><trkpt lat="45.8862239" lon="11.6075921"><ele>874.4285714285714</ele><time>2026-05-02T13:29:25.453Z</time></trkpt><trkpt lat="45.886159" lon="11.6075577"><ele>877.2857142857142</ele><time>2026-05-02T13:29:28.473Z</time></trkpt><trkpt lat="45.8860895" lon="11.6075204"><ele>880.1428571428572</ele><time>2026-05-02T13:29:31.393Z</time></trkpt><trkpt lat="45.8860207" lon="11.6074859"><ele>883.0</ele><time>2026-05-02T13:29:34.412Z</time></trkpt><trkpt lat="45.8859541" lon="11.6074492"><ele>883.2857142857143</ele><time>2026-05-02T13:29:37.43Z</time></trkpt><trkpt lat="45.8858845" lon="11.6074087"><ele>883.5714285714286</ele><time>2026-05-02T13:29:40.45Z</time></trkpt><trkpt lat="45.8858154" lon="11.6073718"><ele>883.8571428571429</ele><time>2026-05-02T13:29:43.47Z</time></trkpt><trkpt lat="45.8857464" lon="11.6073455"><ele>884.1428571428571</ele><time>2026-05-02T13:29:46.393Z</time></trkpt><trkpt lat="45.8856726" lon="11.6073338"><ele>884.4285714285713</ele><time>2026-05-02T13:29:49.41Z</time></trkpt><trkpt lat="45.8856067" lon="11.6073338"><ele>884.7142857142857</ele><time>2026-05-02T13:29:52.43Z</time></trkpt><trkpt lat="45.8855425" lon="11.6073499"><ele>885.0</ele><time>2026-05-02T13:29:55.45Z</time></trkpt><trkpt lat="45.8854779" lon="11.6073863"><ele>885.0</ele><time>2026-05-02T13:29:58.469Z</time></trkpt><trkpt lat="45.8854167" lon="11.6074293"><ele>885.0</ele><time>2026-05-02T13:30:01.393Z</time></trkpt><trkpt lat="45.8853599" lon="11.6074741"><ele>885.0</ele><time>2026-05-02T13:30:04.408Z</time></trkpt><trkpt lat="45.8853078" lon="11.6075306"><ele>885.0</ele><time>2026-05-02T13:30:07.428Z</time></trkpt><trkpt lat="45.8852461" lon="11.6075951"><ele>885.0</ele><time>2026-05-02T13:30:10.448Z</time></trkpt><trkpt lat="45.8851887" lon="11.6076672"><ele>885.0</ele><time>2026-05-02T13:30:13.468Z</time></trkpt><trkpt lat="45.8851279" lon="11.6077455"><ele>885.0</ele><time>2026-05-02T13:30:16.393Z</time></trkpt><trkpt lat="45.8850759" lon="11.6078374"><ele>885.2857142857142</ele><time>2026-05-02T13:30:19.407Z</time></trkpt><trkpt lat="45.8850346" lon="11.6079149"><ele>885.5714285714286</ele><time>2026-05-02T13:30:22.427Z</time></trkpt><trkpt lat="45.8849838" lon="11.6079848"><ele>885.8571428571429</ele><time>2026-05-02T13:30:25.446Z</time></trkpt><trkpt lat="45.8849327" lon="11.6080407"><ele>886.1428571428571</ele><time>2026-05-02T13:30:28.465Z</time></trkpt><trkpt lat="45.8848693" lon="11.6081246"><ele>886.4285714285714</ele><time>2026-05-02T13:30:31.43Z</time></trkpt><trkpt lat="45.8848206" lon="11.6081969"><ele>886.7142857142857</ele><time>2026-05-02T13:30:33.399Z</time></trkpt><trkpt lat="45.8847699" lon="11.6082563"><ele>887.0</ele><time>2026-05-02T13:30:35.412Z</time></trkpt><trkpt lat="45.8846976" lon="11.6083268"><ele>887.0000000000001</ele><time>2026-05-02T13:30:38.432Z</time></trkpt><trkpt lat="45.8846344" lon="11.608393"><ele>887.0</ele><time>2026-05-02T13:30:41.451Z</time></trkpt><trkpt lat="45.8845686" lon="11.6084574"><ele>887.0</ele><time>2026-05-02T13:30:44.471Z</time></trkpt><trkpt lat="45.884508" lon="11.6085177"><ele>887.0</ele><time>2026-05-02T13:30:47.394Z</time></trkpt><trkpt lat="45.8844429" lon="11.6085728"><ele>887.0000000000001</ele><time>2026-05-02T13:30:50.41Z</time></trkpt><trkpt lat="45.8843789" lon="11.6086219"><ele>887.0</ele><time>2026-05-02T13:30:53.43Z</time></trkpt><trkpt lat="45.8843085" lon="11.6086681"><ele>887.8333333333334</ele><time>2026-05-02T13:30:56.449Z</time></trkpt><trkpt lat="45.8842402" lon="11.6087152"><ele>888.6666666666667</ele><time>2026-05-02T13:30:59.469Z</time></trkpt><trkpt lat="45.8841762" lon="11.6087653"><ele>889.5</ele><time>2026-05-02T13:31:02.393Z</time></trkpt><trkpt lat="45.884111" lon="11.6088226"><ele>890.3333333333333</ele><time>2026-05-02T13:31:05.408Z</time></trkpt><trkpt lat="45.884049" lon="11.6088681"><ele>891.1666666666666</ele><time>2026-05-02T13:31:08.428Z</time></trkpt><trkpt lat="45.883975" lon="11.6089071"><ele>892.0</ele><time>2026-05-02T13:31:11.447Z</time></trkpt><trkpt lat="45.8838968" lon="11.608946"><ele>891.9999999999999</ele><time>2026-05-02T13:31:14.37Z</time></trkpt><trkpt lat="45.8838172" lon="11.6089662"><ele>892.0</ele><time>2026-05-02T13:31:17.394Z</time></trkpt><trkpt lat="45.883741" lon="11.6089467"><ele>892.0</ele><time>2026-05-02T13:31:20.406Z</time></trkpt><trkpt lat="45.8836704" lon="11.6089297"><ele>892.0</ele><time>2026-05-02T13:31:23.426Z</time></trkpt><trkpt lat="45.8836005" lon="11.6088962"><ele>891.9999999999999</ele><time>2026-05-02T13:31:26.445Z</time></trkpt><trkpt lat="45.8835276" lon="11.6088695"><ele>892.0</ele><time>2026-05-02T13:31:29.465Z</time></trkpt><trkpt lat="45.8834583" lon="11.6088405"><ele>891.1428571428571</ele><time>2026-05-02T13:31:32.395Z</time></trkpt><trkpt lat="45.8833892" lon="11.6088003"><ele>890.2857142857142</ele><time>2026-05-02T13:31:35.403Z</time></trkpt><trkpt lat="45.8833208" lon="11.6087664"><ele>889.4285714285714</ele><time>2026-05-02T13:31:38.424Z</time></trkpt><trkpt lat="45.8832578" lon="11.6087392"><ele>888.5714285714286</ele><time>2026-05-02T13:31:41.443Z</time></trkpt><trkpt lat="45.8831911" lon="11.6087"><ele>887.7142857142858</ele><time>2026-05-02T13:31:44.462Z</time></trkpt><trkpt lat="45.8831278" lon="11.6086496"><ele>886.8571428571429</ele><time>2026-05-02T13:31:47.483Z</time></trkpt><trkpt lat="45.8830638" lon="11.608579"><ele>886.0</ele><time>2026-05-02T13:31:50.401Z</time></trkpt><trkpt lat="45.8829919" lon="11.6085154"><ele>889.1666666666666</ele><time>2026-05-02T13:31:53.42Z</time></trkpt><trkpt lat="45.8829289" lon="11.6084439"><ele>892.3333333333333</ele><time>2026-05-02T13:31:56.441Z</time></trkpt><trkpt lat="45.882868" lon="11.60836"><ele>895.5</ele><time>2026-05-02T13:31:59.461Z</time></trkpt><trkpt lat="45.8828057" lon="11.6082788"><ele>898.6666666666667</ele><time>2026-05-02T13:32:02.395Z</time></trkpt><trkpt lat="45.8827436" lon="11.6081811"><ele>901.8333333333334</ele><time>2026-05-02T13:32:05.399Z</time></trkpt><trkpt lat="45.8826893" lon="11.6080942"><ele>905.0</ele><time>2026-05-02T13:32:08.419Z</time></trkpt><trkpt lat="45.8826423" lon="11.6080114"><ele>905.0000000000001</ele><time>2026-05-02T13:32:11.438Z</time></trkpt><trkpt lat="45.8826069" lon="11.6079143"><ele>905.0</ele><time>2026-05-02T13:32:14.458Z</time></trkpt><trkpt lat="45.8825627" lon="11.607822"><ele>905.0</ele><time>2026-05-02T13:32:17.478Z</time></trkpt><trkpt lat="45.882521" lon="11.6077345"><ele>905.0</ele><time>2026-05-02T13:32:20.396Z</time></trkpt><trkpt lat="45.882481" lon="11.60764"><ele>905.0000000000001</ele><time>2026-05-02T13:32:23.417Z</time></trkpt><trkpt lat="45.8824394" lon="11.6075486"><ele>905.0</ele><time>2026-05-02T13:32:26.437Z</time></trkpt><trkpt lat="45.8823937" lon="11.6074559"><ele>905.5000000000001</ele><time>2026-05-02T13:32:29.433Z</time></trkpt><trkpt lat="45.8823409" lon="11.6073658"><ele>906.0</ele><time>2026-05-02T13:32:32.394Z</time></trkpt><trkpt lat="45.8822916" lon="11.6072854"><ele>906.5</ele><time>2026-05-02T13:32:35.396Z</time></trkpt><trkpt lat="45.8822319" lon="11.6072082"><ele>907.0</ele><time>2026-05-02T13:32:38.415Z</time></trkpt><trkpt lat="45.8821706" lon="11.6071394"><ele>907.5000000000001</ele><time>2026-05-02T13:32:41.434Z</time></trkpt><trkpt lat="45.882091" lon="11.6071028"><ele>908.0</ele><time>2026-05-02T13:32:44.413Z</time></trkpt><trkpt lat="45.881999" lon="11.6070875"><ele>908.0000000000001</ele><time>2026-05-02T13:32:47.493Z</time></trkpt><trkpt lat="45.8819264" lon="11.6070666"><ele>908.0</ele><time>2026-05-02T13:32:50.396Z</time></trkpt><trkpt lat="45.8818533" lon="11.6070757"><ele>908.0</ele><time>2026-05-02T13:32:53.413Z</time></trkpt><trkpt lat="45.8817762" lon="11.6070943"><ele>908.0</ele><time>2026-05-02T13:32:56.432Z</time></trkpt><trkpt lat="45.8817022" lon="11.6071462"><ele>908.0000000000001</ele><time>2026-05-02T13:32:59.452Z</time></trkpt><trkpt lat="45.8816342" lon="11.6071972"><ele>908.0</ele><time>2026-05-02T13:33:02.472Z</time></trkpt><trkpt lat="45.881572" lon="11.6072717"><ele>907.8333333333334</ele><time>2026-05-02T13:33:05.494Z</time></trkpt><trkpt lat="45.8815155" lon="11.6073515"><ele>907.6666666666667</ele><time>2026-05-02T13:33:08.411Z</time></trkpt><trkpt lat="45.8814682" lon="11.6074464"><ele>907.5</ele><time>2026-05-02T13:33:11.431Z</time></trkpt><trkpt lat="45.8814306" lon="11.6075432"><ele>907.3333333333333</ele><time>2026-05-02T13:33:14.451Z</time></trkpt><trkpt lat="45.8814078" lon="11.6076382"><ele>907.1666666666666</ele><time>2026-05-02T13:33:17.471Z</time></trkpt><trkpt lat="45.8813954" lon="11.6077396"><ele>907.0</ele><time>2026-05-02T13:33:20.396Z</time></trkpt><trkpt lat="45.8813918" lon="11.6078472"><ele>906.857142857143</ele><time>2026-05-02T13:33:23.409Z</time></trkpt><trkpt lat="45.8813808" lon="11.6079559"><ele>906.7142857142858</ele><time>2026-05-02T13:33:26.428Z</time></trkpt><trkpt lat="45.8813766" lon="11.6080656"><ele>906.5714285714286</ele><time>2026-05-02T13:33:29.448Z</time></trkpt><trkpt lat="45.8813834" lon="11.6081654"><ele>906.4285714285714</ele><time>2026-05-02T13:33:32.469Z</time></trkpt><trkpt lat="45.8813793" lon="11.6082699"><ele>906.2857142857142</ele><time>2026-05-02T13:33:35.391Z</time></trkpt><trkpt lat="45.8813716" lon="11.6083714"><ele>906.142857142857</ele><time>2026-05-02T13:33:38.407Z</time></trkpt><trkpt lat="45.8813632" lon="11.608478"><ele>905.9999999999999</ele><time>2026-05-02T13:33:41.428Z</time></trkpt><trkpt lat="45.8813538" lon="11.6085968"><ele>904.5</ele><time>2026-05-02T13:33:44.447Z</time></trkpt><trkpt lat="45.881336" lon="11.6087103"><ele>903.0</ele><time>2026-05-02T13:33:47.468Z</time></trkpt><trkpt lat="45.881317" lon="11.6088256"><ele>901.5</ele><time>2026-05-02T13:33:50.397Z</time></trkpt><trkpt lat="45.8812909" lon="11.608932"><ele>900.0</ele><time>2026-05-02T13:33:53.396Z</time></trkpt><trkpt lat="45.8812682" lon="11.609037"><ele>898.5</ele><time>2026-05-02T13:33:56.397Z</time></trkpt><trkpt lat="45.8812397" lon="11.6091322"><ele>897.0</ele><time>2026-05-02T13:33:59.397Z</time></trkpt><trkpt lat="45.8811961" lon="11.6092229"><ele>897.0</ele><time>2026-05-02T13:34:02.397Z</time></trkpt><trkpt lat="45.8811554" lon="11.6093157"><ele>897.0</ele><time>2026-05-02T13:34:05.397Z</time></trkpt><trkpt lat="45.8811013" lon="11.6094145"><ele>897.0</ele><time>2026-05-02T13:34:08.396Z</time></trkpt><trkpt lat="45.8810501" lon="11.6095108"><ele>897.0</ele><time>2026-05-02T13:34:11.425Z</time></trkpt><trkpt lat="45.8809978" lon="11.6096115"><ele>897.0</ele><time>2026-05-02T13:34:14.444Z</time></trkpt><trkpt lat="45.8809512" lon="11.6096973"><ele>897.0</ele><time>2026-05-02T13:34:17.464Z</time></trkpt><trkpt lat="45.8809065" lon="11.6097659"><ele>900.2857142857143</ele><time>2026-05-02T13:34:20.484Z</time></trkpt><trkpt lat="45.880849" lon="11.6098445"><ele>903.5714285714284</ele><time>2026-05-02T13:34:24.41Z</time></trkpt><trkpt lat="45.8808019" lon="11.6099438"><ele>906.8571428571428</ele><time>2026-05-02T13:34:28.388Z</time></trkpt><trkpt lat="45.8807578" lon="11.6100155"><ele>910.1428571428571</ele><time>2026-05-02T13:34:31.456Z</time></trkpt><trkpt lat="45.8806975" lon="11.6100987"><ele>913.4285714285713</ele><time>2026-05-02T13:34:35.482Z</time></trkpt><trkpt lat="45.8806452" lon="11.6101559"><ele>916.7142857142856</ele><time>2026-05-02T13:34:38.401Z</time></trkpt><trkpt lat="45.8805978" lon="11.6102191"><ele>919.9999999999999</ele><time>2026-05-02T13:34:41.421Z</time></trkpt><trkpt lat="45.8805244" lon="11.6103111"><ele>917.5714285714284</ele><time>2026-05-02T13:34:44.441Z</time></trkpt><trkpt lat="45.8804553" lon="11.6103745"><ele>915.1428571428571</ele><time>2026-05-02T13:34:47.459Z</time></trkpt><trkpt lat="45.8803946" lon="11.6104149"><ele>912.7142857142857</ele><time>2026-05-02T13:34:50.48Z</time></trkpt><trkpt lat="45.8803418" lon="11.6104642"><ele>910.2857142857142</ele><time>2026-05-02T13:34:54.405Z</time></trkpt><trkpt lat="45.8802735" lon="11.6105154"><ele>907.8571428571429</ele><time>2026-05-02T13:34:58.29Z</time></trkpt><trkpt lat="45.8802262" lon="11.6105885"><ele>905.4285714285714</ele><time>2026-05-02T13:35:01.451Z</time></trkpt><trkpt lat="45.8801744" lon="11.6106547"><ele>903.0</ele><time>2026-05-02T13:35:05.478Z</time></trkpt><trkpt lat="45.8801215" lon="11.6107235"><ele>906.1428571428571</ele><time>2026-05-02T13:35:09.404Z</time></trkpt><trkpt lat="45.8800521" lon="11.610792"><ele>909.2857142857142</ele><time>2026-05-02T13:35:13.43Z</time></trkpt><trkpt lat="45.8799959" lon="11.6108502"><ele>912.4285714285714</ele><time>2026-05-02T13:35:16.448Z</time></trkpt><trkpt lat="45.8799372" lon="11.6108994"><ele>915.5714285714286</ele><time>2026-05-02T13:35:19.469Z</time></trkpt><trkpt lat="45.8798623" lon="11.610959"><ele>918.7142857142857</ele><time>2026-05-02T13:35:23.454Z</time></trkpt><trkpt lat="45.8798065" lon="11.6110122"><ele>921.8571428571429</ele><time>2026-05-02T13:35:26.414Z</time></trkpt><trkpt lat="45.8797527" lon="11.6110735"><ele>925.0</ele><time>2026-05-02T13:35:29.434Z</time></trkpt><trkpt lat="45.8796945" lon="11.6111249"><ele>923.2857142857143</ele><time>2026-05-02T13:35:32.454Z</time></trkpt><trkpt lat="45.8796342" lon="11.611174"><ele>921.5714285714284</ele><time>2026-05-02T13:35:35.432Z</time></trkpt><trkpt lat="45.8795626" lon="11.6112475"><ele>919.8571428571428</ele><time>2026-05-02T13:35:39.5Z</time></trkpt><trkpt lat="45.879504" lon="11.6113029"><ele>918.1428571428571</ele><time>2026-05-02T13:35:42.419Z</time></trkpt><trkpt lat="45.8794505" lon="11.6113588"><ele>916.4285714285713</ele><time>2026-05-02T13:35:45.438Z</time></trkpt><trkpt lat="45.879399" lon="11.6114135"><ele>914.7142857142856</ele><time>2026-05-02T13:35:48.41Z</time></trkpt><trkpt lat="45.8793505" lon="11.6114735"><ele>912.9999999999999</ele><time>2026-05-02T13:35:51.478Z</time></trkpt><trkpt lat="45.8793038" lon="11.6115433"><ele>915.7142857142856</ele><time>2026-05-02T13:35:54.399Z</time></trkpt><trkpt lat="45.8792502" lon="11.6116082"><ele>918.4285714285713</ele><time>2026-05-02T13:35:57.352Z</time></trkpt><trkpt lat="45.879203" lon="11.6116753"><ele>921.1428571428571</ele><time>2026-05-02T13:36:00.436Z</time></trkpt><trkpt lat="45.8791627" lon="11.6117652"><ele>923.8571428571428</ele><time>2026-05-02T13:36:04.462Z</time></trkpt><trkpt lat="45.8791343" lon="11.611849"><ele>926.5714285714284</ele><time>2026-05-02T13:36:07.482Z</time></trkpt><trkpt lat="45.8791179" lon="11.61196"><ele>929.2857142857143</ele><time>2026-05-02T13:36:11.408Z</time></trkpt><trkpt lat="45.8791105" lon="11.612056"><ele>932.0</ele><time>2026-05-02T13:36:14.428Z</time></trkpt><trkpt lat="45.8791003" lon="11.6121649"><ele>932.0</ele><time>2026-05-02T13:36:18.453Z</time></trkpt><trkpt lat="45.8790966" lon="11.6122739"><ele>932.0</ele><time>2026-05-02T13:36:22.48Z</time></trkpt><trkpt lat="45.8790606" lon="11.6123773"><ele>932.0</ele><time>2026-05-02T13:36:26.406Z</time></trkpt><trkpt lat="45.8790208" lon="11.6124594"><ele>932.0</ele><time>2026-05-02T13:36:29.426Z</time></trkpt><trkpt lat="45.878979" lon="11.6125353"><ele>932.0</ele><time>2026-05-02T13:36:32.414Z</time></trkpt><trkpt lat="45.8789404" lon="11.6126214"><ele>932.0</ele><time>2026-05-02T13:36:35.451Z</time></trkpt><trkpt lat="45.8788963" lon="11.612697"><ele>932.0</ele><time>2026-05-02T13:36:38.395Z</time></trkpt><trkpt lat="45.8788434" lon="11.6127517"><ele>932.0</ele><time>2026-05-02T13:36:41.403Z</time></trkpt><trkpt lat="45.8787838" lon="11.6128114"><ele>932.0</ele><time>2026-05-02T13:36:44.423Z</time></trkpt><trkpt lat="45.8787203" lon="11.6128519"><ele>932.0</ele><time>2026-05-02T13:36:47.444Z</time></trkpt><trkpt lat="45.8786528" lon="11.6128756"><ele>932.0</ele><time>2026-05-02T13:36:50.464Z</time></trkpt><trkpt lat="45.8785861" lon="11.6129266"><ele>932.0</ele><time>2026-05-02T13:36:53.483Z</time></trkpt><trkpt lat="45.878526" lon="11.6129617"><ele>932.0</ele><time>2026-05-02T13:36:55.399Z</time></trkpt><trkpt lat="45.8784589" lon="11.6129904"><ele>932.0</ele><time>2026-05-02T13:36:57.395Z</time></trkpt><trkpt lat="45.8783745" lon="11.6130024"><ele>931.5000000000001</ele><time>2026-05-02T13:36:59.423Z</time></trkpt><trkpt lat="45.878286" lon="11.6130231"><ele>931.0</ele><time>2026-05-02T13:37:01.455Z</time></trkpt><trkpt lat="45.8782006" lon="11.6130616"><ele>930.5</ele><time>2026-05-02T13:37:03.449Z</time></trkpt><trkpt lat="45.878124" lon="11.6131111"><ele>930.0</ele><time>2026-05-02T13:37:05.462Z</time></trkpt><trkpt lat="45.8780525" lon="11.6131474"><ele>929.5000000000001</ele><time>2026-05-02T13:37:07.476Z</time></trkpt><trkpt lat="45.8779839" lon="11.6131382"><ele>929.0</ele><time>2026-05-02T13:37:09.449Z</time></trkpt><trkpt lat="45.8779158" lon="11.6130768"><ele>929.0</ele><time>2026-05-02T13:37:11.4Z</time></trkpt><trkpt lat="45.8778416" lon="11.6129629"><ele>929.0000000000001</ele><time>2026-05-02T13:37:13.4Z</time></trkpt><trkpt lat="45.8777621" lon="11.6128719"><ele>929.0000000000001</ele><time>2026-05-02T13:37:15.4Z</time></trkpt><trkpt lat="45.8776866" lon="11.6127764"><ele>929.0</ele><time>2026-05-02T13:37:17.4Z</time></trkpt><trkpt lat="45.8776039" lon="11.6127051"><ele>929.0</ele><time>2026-05-02T13:37:19.4Z</time></trkpt><trkpt lat="45.8775171" lon="11.6126576"><ele>929.4000000000001</ele><time>2026-05-02T13:37:21.399Z</time></trkpt><trkpt lat="45.8774264" lon="11.6126289"><ele>929.8000000000001</ele><time>2026-05-02T13:37:23.4Z</time></trkpt><trkpt lat="45.8773285" lon="11.612614"><ele>930.1999999999999</ele><time>2026-05-02T13:37:25.399Z</time></trkpt><trkpt lat="45.8772251" lon="11.6126164"><ele>930.5999999999999</ele><time>2026-05-02T13:37:27.399Z</time></trkpt><trkpt lat="45.8771222" lon="11.6126162"><ele>931.0</ele><time>2026-05-02T13:37:29.4Z</time></trkpt><trkpt lat="45.8770266" lon="11.6125889"><ele>931.0</ele><time>2026-05-02T13:37:31.4Z</time></trkpt><trkpt lat="45.8769308" lon="11.6125652"><ele>930.9999999999999</ele><time>2026-05-02T13:37:33.4Z</time></trkpt><trkpt lat="45.8768472" lon="11.6125239"><ele>930.9999999999999</ele><time>2026-05-02T13:37:35.4Z</time></trkpt><trkpt lat="45.8767645" lon="11.6124798"><ele>931.0</ele><time>2026-05-02T13:37:37.399Z</time></trkpt><trkpt lat="45.8766838" lon="11.6124259"><ele>931.0</ele><time>2026-05-02T13:37:39.4Z</time></trkpt><trkpt lat="45.8765985" lon="11.6123768"><ele>928.8</ele><time>2026-05-02T13:37:41.4Z</time></trkpt><trkpt lat="45.8765065" lon="11.6123168"><ele>926.5999999999999</ele><time>2026-05-02T13:37:43.4Z</time></trkpt><trkpt lat="45.8764148" lon="11.6122447"><ele>924.4</ele><time>2026-05-02T13:37:45.4Z</time></trkpt><trkpt lat="45.8763301" lon="11.6121629"><ele>922.2</ele><time>2026-05-02T13:37:47.4Z</time></trkpt><trkpt lat="45.8762572" lon="11.6120978"><ele>920.0</ele><time>2026-05-02T13:37:49.401Z</time></trkpt><trkpt lat="45.8761737" lon="11.612015"><ele>919.3333333333334</ele><time>2026-05-02T13:37:51.401Z</time></trkpt><trkpt lat="45.876073" lon="11.6119328"><ele>918.6666666666667</ele><time>2026-05-02T13:37:53.401Z</time></trkpt><trkpt lat="45.8759669" lon="11.6118347"><ele>918.0</ele><time>2026-05-02T13:37:55.401Z</time></trkpt><trkpt lat="45.875914" lon="11.611784"><ele>917.3333333333333</ele><time>2026-05-02T13:37:56.401Z</time></trkpt><trkpt lat="45.8758646" lon="11.6117247"><ele>916.6666666666666</ele><time>2026-05-02T13:37:57.401Z</time></trkpt><trkpt lat="45.8758235" lon="11.6116537"><ele>916.0</ele><time>2026-05-02T13:37:58.4Z</time></trkpt><trkpt lat="45.8757874" lon="11.6115725"><ele>916.0</ele><time>2026-05-02T13:37:59.401Z</time></trkpt><trkpt lat="45.8757491" lon="11.6114943"><ele>916.0</ele><time>2026-05-02T13:38:00.401Z</time></trkpt><trkpt lat="45.875701" lon="11.6114309"><ele>916.0</ele><time>2026-05-02T13:38:01.4Z</time></trkpt><trkpt lat="45.875646" lon="11.6113762"><ele>916.0</ele><time>2026-05-02T13:38:02.401Z</time></trkpt><trkpt lat="45.8755871" lon="11.6113385"><ele>916.0</ele><time>2026-05-02T13:38:03.401Z</time></trkpt><trkpt lat="45.8755236" lon="11.6113135"><ele>916.0</ele><time>2026-05-02T13:38:04.401Z</time></trkpt><trkpt lat="45.8754581" lon="11.6112994"><ele>916.0</ele><time>2026-05-02T13:38:05.4Z</time></trkpt><trkpt lat="45.8753952" lon="11.6112952"><ele>916.0</ele><time>2026-05-02T13:38:06.401Z</time></trkpt><trkpt lat="45.8752767" lon="11.611288"><ele>916.0</ele><time>2026-05-02T13:38:08.401Z</time></trkpt><trkpt lat="45.8751628" lon="11.6112661"><ele>916.0</ele><time>2026-05-02T13:38:10.401Z</time></trkpt><trkpt lat="45.8750463" lon="11.611275"><ele>916.0</ele><time>2026-05-02T13:38:12.401Z</time></trkpt><trkpt lat="45.8749348" lon="11.6112853"><ele>913.5</ele><time>2026-05-02T13:38:14.401Z</time></trkpt><trkpt lat="45.8748223" lon="11.6113298"><ele>911.0</ele><time>2026-05-02T13:38:16.401Z</time></trkpt><trkpt lat="45.8747086" lon="11.6113672"><ele>908.5</ele><time>2026-05-02T13:38:18.401Z</time></trkpt><trkpt lat="45.8745901" lon="11.6113752"><ele>906.0</ele><time>2026-05-02T13:38:20.401Z</time></trkpt><trkpt lat="45.8744713" lon="11.6113528"><ele>906.0</ele><time>2026-05-02T13:38:22.401Z</time></trkpt><trkpt lat="45.8743505" lon="11.6113261"><ele>906.0</ele><time>2026-05-02T13:38:24.401Z</time></trkpt><trkpt lat="45.8742337" lon="11.6112895"><ele>906.0</ele><time>2026-05-02T13:38:26.401Z</time></trkpt><trkpt lat="45.8741207" lon="11.6112425"><ele>906.0</ele><time>2026-05-02T13:38:28.401Z</time></trkpt><trkpt lat="45.874009" lon="11.6112252"><ele>906.4</ele><time>2026-05-02T13:38:30.401Z</time></trkpt><trkpt lat="45.8739218" lon="11.6112946"><ele>906.8</ele><time>2026-05-02T13:38:32.401Z</time></trkpt><trkpt lat="45.8738991" lon="11.6114022"><ele>907.1999999999999</ele><time>2026-05-02T13:38:33.401Z</time></trkpt><trkpt lat="45.8739307" lon="11.6115766"><ele>907.5999999999999</ele><time>2026-05-02T13:38:35.401Z</time></trkpt><trkpt lat="45.874001" lon="11.6117028"><ele>908.0</ele><time>2026-05-02T13:38:37.401Z</time></trkpt><trkpt lat="45.8740734" lon="11.6118216"><ele>908.0</ele><time>2026-05-02T13:38:39.401Z</time></trkpt><trkpt lat="45.8741322" lon="11.6119367"><ele>908.0</ele><time>2026-05-02T13:38:41.4Z</time></trkpt><trkpt lat="45.8741506" lon="11.6120651"><ele>908.0</ele><time>2026-05-02T13:38:43.401Z</time></trkpt><trkpt lat="45.8741296" lon="11.6121908"><ele>908.0</ele><time>2026-05-02T13:38:45.401Z</time></trkpt><trkpt lat="45.8741119" lon="11.612323"><ele>908.0</ele><time>2026-05-02T13:38:47.401Z</time></trkpt><trkpt lat="45.8741157" lon="11.6124677"><ele>908.5000000000001</ele><time>2026-05-02T13:38:49.401Z</time></trkpt><trkpt lat="45.8741312" lon="11.6126037"><ele>909.0</ele><time>2026-05-02T13:38:51.401Z</time></trkpt><trkpt lat="45.8741563" lon="11.6127284"><ele>909.5</ele><time>2026-05-02T13:38:53.402Z</time></trkpt><trkpt lat="45.8741893" lon="11.612832"><ele>910.0</ele><time>2026-05-02T13:38:55.402Z</time></trkpt><trkpt lat="45.8742272" lon="11.6129204"><ele>910.5000000000001</ele><time>2026-05-02T13:38:57.401Z</time></trkpt><trkpt lat="45.8742723" lon="11.6130005"><ele>911.0</ele><time>2026-05-02T13:38:59.402Z</time></trkpt><trkpt lat="45.8743317" lon="11.6130523"><ele>909.8333333333334</ele><time>2026-05-02T13:39:01.401Z</time></trkpt><trkpt lat="45.874395" lon="11.613098"><ele>908.6666666666667</ele><time>2026-05-02T13:39:03.402Z</time></trkpt><trkpt lat="45.8744742" lon="11.6131635"><ele>907.5</ele><time>2026-05-02T13:39:06.402Z</time></trkpt><trkpt lat="45.8745368" lon="11.6132386"><ele>906.3333333333333</ele><time>2026-05-02T13:39:09.402Z</time></trkpt><trkpt lat="45.8745751" lon="11.6133244"><ele>905.1666666666666</ele><time>2026-05-02T13:39:12.402Z</time></trkpt><trkpt lat="45.874584" lon="11.6134237"><ele>904.0</ele><time>2026-05-02T13:39:16.402Z</time></trkpt><trkpt lat="45.8745797" lon="11.6135306"><ele>904.0</ele><time>2026-05-02T13:39:21.402Z</time></trkpt><trkpt lat="45.874572" lon="11.6136325"><ele>904.0</ele><time>2026-05-02T13:39:25.402Z</time></trkpt><trkpt lat="45.874558" lon="11.6137267"><ele>904.0</ele><time>2026-05-02T13:39:30.401Z</time></trkpt><trkpt lat="45.8745227" lon="11.613824"><ele>904.0</ele><time>2026-05-02T13:39:35.402Z</time></trkpt><trkpt lat="45.8745091" lon="11.6139176"><ele>904.0</ele><time>2026-05-02T13:39:40.402Z</time></trkpt><trkpt lat="45.8744891" lon="11.6140174"><ele>904.0</ele><time>2026-05-02T13:39:45.402Z</time></trkpt><trkpt lat="45.8744694" lon="11.6141221"><ele>904.0</ele><time>2026-05-02T13:39:50.402Z</time></trkpt><trkpt lat="45.8744694" lon="11.6142149"><ele>905.5714285714287</ele><time>2026-05-02T13:39:54.402Z</time></trkpt><trkpt lat="45.8744601" lon="11.614316"><ele>907.1428571428571</ele><time>2026-05-02T13:39:59.402Z</time></trkpt><trkpt lat="45.8744551" lon="11.6144072"><ele>908.7142857142858</ele><time>2026-05-02T13:40:04.403Z</time></trkpt><trkpt lat="45.8744557" lon="11.614511"><ele>910.2857142857143</ele><time>2026-05-02T13:40:09.403Z</time></trkpt><trkpt lat="45.8744998" lon="11.6145822"><ele>911.8571428571429</ele><time>2026-05-02T13:40:15.403Z</time></trkpt><trkpt lat="45.8745682" lon="11.6146331"><ele>913.4285714285714</ele><time>2026-05-02T13:40:20.403Z</time></trkpt><trkpt lat="45.8746407" lon="11.6146711"><ele>915.0</ele><time>2026-05-02T13:40:24.403Z</time></trkpt><trkpt lat="45.8747021" lon="11.6147147"><ele>917.2857142857143</ele><time>2026-05-02T13:40:28.403Z</time></trkpt><trkpt lat="45.8747602" lon="11.6147763"><ele>919.5714285714287</ele><time>2026-05-02T13:40:32.403Z</time></trkpt><trkpt lat="45.8748133" lon="11.6148605"><ele>921.8571428571429</ele><time>2026-05-02T13:40:37.402Z</time></trkpt><trkpt lat="45.8748657" lon="11.614933"><ele>924.1428571428571</ele><time>2026-05-02T13:40:41.403Z</time></trkpt><trkpt lat="45.8748948" lon="11.6150191"><ele>926.4285714285714</ele><time>2026-05-02T13:40:46.403Z</time></trkpt><trkpt lat="45.8749233" lon="11.6151016"><ele>928.7142857142858</ele><time>2026-05-02T13:40:50.402Z</time></trkpt><trkpt lat="45.8749394" lon="11.6151985"><ele>931.0</ele><time>2026-05-02T13:40:55.403Z</time></trkpt><trkpt lat="45.8749369" lon="11.6152914"><ele>933.1428571428571</ele><time>2026-05-02T13:41:00.404Z</time></trkpt><trkpt lat="45.8749414" lon="11.6154016"><ele>935.2857142857142</ele><time>2026-05-02T13:41:05.404Z</time></trkpt><trkpt lat="45.8749409" lon="11.6155011"><ele>937.4285714285714</ele><time>2026-05-02T13:41:10.404Z</time></trkpt><trkpt lat="45.8749416" lon="11.6155935"><ele>939.5714285714286</ele><time>2026-05-02T13:41:15.404Z</time></trkpt><trkpt lat="45.8749658" lon="11.6156788"><ele>941.7142857142857</ele><time>2026-05-02T13:41:19.403Z</time></trkpt><trkpt lat="45.8750015" lon="11.6157711"><ele>943.8571428571429</ele><time>2026-05-02T13:41:24.404Z</time></trkpt><trkpt lat="45.8750427" lon="11.6158539"><ele>946.0</ele><time>2026-05-02T13:41:29.404Z</time></trkpt><trkpt lat="45.8751011" lon="11.6159265"><ele>942.8571428571429</ele><time>2026-05-02T13:41:34.403Z</time></trkpt><trkpt lat="45.875138" lon="11.6160102"><ele>939.7142857142857</ele><time>2026-05-02T13:41:40.404Z</time></trkpt><trkpt lat="45.8751497" lon="11.6161001"><ele>936.5714285714286</ele><time>2026-05-02T13:41:46.404Z</time></trkpt><trkpt lat="45.8751881" lon="11.6161749"><ele>933.4285714285714</ele><time>2026-05-02T13:41:51.404Z</time></trkpt><trkpt lat="45.8752327" lon="11.6162538"><ele>930.2857142857142</ele><time>2026-05-02T13:41:56.404Z</time></trkpt><trkpt lat="45.8752653" lon="11.6163518"><ele>927.1428571428571</ele><time>2026-05-02T13:42:02.404Z</time></trkpt><trkpt lat="45.8752765" lon="11.6164569"><ele>924.0</ele><time>2026-05-02T13:42:07.404Z</time></trkpt><trkpt lat="45.8752562" lon="11.6165602"><ele>924.0</ele><time>2026-05-02T13:42:13.404Z</time></trkpt><trkpt lat="45.8752048" lon="11.6166444"><ele>924.0</ele><time>2026-05-02T13:42:19.405Z</time></trkpt><trkpt lat="45.8751739" lon="11.6167394"><ele>924.0</ele><time>2026-05-02T13:42:24.405Z</time></trkpt><trkpt lat="45.8751241" lon="11.6168068"><ele>924.0</ele><time>2026-05-02T13:42:29.405Z</time></trkpt><trkpt lat="45.8750823" lon="11.6168753"><ele>924.0</ele><time>2026-05-02T13:42:36.405Z</time></trkpt><trkpt lat="45.8750498" lon="11.6169581"><ele>924.0</ele><time>2026-05-02T13:42:42.405Z</time></trkpt><trkpt lat="45.8750116" lon="11.6170386"><ele>924.0</ele><time>2026-05-02T13:42:48.405Z</time></trkpt><trkpt lat="45.8749737" lon="11.6171115"><ele>925.8571428571429</ele><time>2026-05-02T13:42:54.405Z</time></trkpt><trkpt lat="45.8749271" lon="11.6171919"><ele>927.7142857142858</ele><time>2026-05-02T13:42:58.405Z</time></trkpt><trkpt lat="45.87487" lon="11.617253"><ele>929.5714285714286</ele><time>2026-05-02T13:43:03.405Z</time></trkpt><trkpt lat="45.8748153" lon="11.6173166"><ele>931.4285714285714</ele><time>2026-05-02T13:43:08.404Z</time></trkpt><trkpt lat="45.8747562" lon="11.6173769"><ele>933.2857142857143</ele><time>2026-05-02T13:43:13.405Z</time></trkpt><trkpt lat="45.8746977" lon="11.6174213"><ele>935.1428571428571</ele><time>2026-05-02T13:43:18.406Z</time></trkpt><trkpt lat="45.8746439" lon="11.6174733"><ele>937.0</ele><time>2026-05-02T13:43:22.406Z</time></trkpt><trkpt lat="45.8745835" lon="11.6175378"><ele>937.0</ele><time>2026-05-02T13:43:54.406Z</time></trkpt><trkpt lat="45.8745153" lon="11.6175495"><ele>937.0</ele><time>2026-05-02T13:43:59.406Z</time></trkpt><trkpt lat="45.8744498" lon="11.6175659"><ele>937.0</ele><time>2026-05-02T13:44:04.406Z</time></trkpt><trkpt lat="45.8743854" lon="11.6175617"><ele>937.0</ele><time>2026-05-02T13:44:08.406Z</time></trkpt><trkpt lat="45.8743167" lon="11.6175762"><ele>937.0</ele><time>2026-05-02T13:44:12.406Z</time></trkpt><trkpt lat="45.8742467" lon="11.6175657"><ele>937.0</ele><time>2026-05-02T13:44:17.406Z</time></trkpt><trkpt lat="45.87417" lon="11.6175658"><ele>937.0</ele><time>2026-05-02T13:44:22.406Z</time></trkpt><trkpt lat="45.8740968" lon="11.6175658"><ele>940.4285714285713</ele><time>2026-05-02T13:44:27.406Z</time></trkpt><trkpt lat="45.8740353" lon="11.6175957"><ele>943.8571428571429</ele><time>2026-05-02T13:44:31.406Z</time></trkpt><trkpt lat="45.8739614" lon="11.6176109"><ele>947.2857142857142</ele><time>2026-05-02T13:44:36.407Z</time></trkpt><trkpt lat="45.8738866" lon="11.6176199"><ele>950.7142857142857</ele><time>2026-05-02T13:44:41.407Z</time></trkpt><trkpt lat="45.8738102" lon="11.6176145"><ele>954.1428571428571</ele><time>2026-05-02T13:44:47.407Z</time></trkpt><trkpt lat="45.8737474" lon="11.6175641"><ele>957.5714285714286</ele><time>2026-05-02T13:44:53.407Z</time></trkpt><trkpt lat="45.8736965" lon="11.617492"><ele>961.0</ele><time>2026-05-02T13:44:59.406Z</time></trkpt><trkpt lat="45.8736367" lon="11.6174406"><ele>961.0</ele><time>2026-05-02T13:45:04.406Z</time></trkpt><trkpt lat="45.8735831" lon="11.6173696"><ele>960.9999999999999</ele><time>2026-05-02T13:45:09.406Z</time></trkpt><trkpt lat="45.8735308" lon="11.6172932"><ele>961.0</ele><time>2026-05-02T13:45:15.406Z</time></trkpt><trkpt lat="45.8734807" lon="11.6172283"><ele>961.0</ele><time>2026-05-02T13:45:20.407Z</time></trkpt><trkpt lat="45.8734128" lon="11.6171973"><ele>960.9999999999999</ele><time>2026-05-02T13:45:26.407Z</time></trkpt><trkpt lat="45.8733429" lon="11.6171926"><ele>961.0</ele><time>2026-05-02T13:45:30.407Z</time></trkpt><trkpt lat="45.8732713" lon="11.6171804"><ele>961.0</ele><time>2026-05-02T13:45:36.407Z</time></trkpt><trkpt lat="45.8731987" lon="11.6171983"><ele>961.0</ele><time>2026-05-02T13:45:41.406Z</time></trkpt><trkpt lat="45.8731318" lon="11.617197"><ele>960.9999999999999</ele><time>2026-05-02T13:45:45.407Z</time></trkpt><trkpt lat="45.8730691" lon="11.6172311"><ele>961.0</ele><time>2026-05-02T13:45:50.408Z</time></trkpt><trkpt lat="45.8730059" lon="11.6172672"><ele>961.0</ele><time>2026-05-02T13:45:55.408Z</time></trkpt><trkpt lat="45.8729474" lon="11.6173073"><ele>960.9999999999999</ele><time>2026-05-02T13:45:58.408Z</time></trkpt><trkpt lat="45.8728832" lon="11.6173306"><ele>961.0</ele><time>2026-05-02T13:46:03.408Z</time></trkpt><trkpt lat="45.8728127" lon="11.6173572"><ele>961.0</ele><time>2026-05-02T13:46:08.408Z</time></trkpt><trkpt lat="45.8727393" lon="11.6173684"><ele>961.0</ele><time>2026-05-02T13:46:14.407Z</time></trkpt><trkpt lat="45.8726686" lon="11.6173372"><ele>960.9999999999999</ele><time>2026-05-02T13:46:19.408Z</time></trkpt><trkpt lat="45.87259" lon="11.6173424"><ele>961.0</ele><time>2026-05-02T13:46:25.408Z</time></trkpt><trkpt lat="45.8725283" lon="11.6173915"><ele>961.0</ele><time>2026-05-02T13:46:30.408Z</time></trkpt><trkpt lat="45.8724536" lon="11.6174049"><ele>960.9999999999999</ele><time>2026-05-02T13:46:35.408Z</time></trkpt><trkpt lat="45.8723954" lon="11.6174483"><ele>961.0</ele><time>2026-05-02T13:46:40.408Z</time></trkpt><trkpt lat="45.8723257" lon="11.6174809"><ele>961.0</ele><time>2026-05-02T13:46:45.408Z</time></trkpt><trkpt lat="45.8722692" lon="11.617535"><ele>962.8571428571428</ele><time>2026-05-02T13:46:49.408Z</time></trkpt><trkpt lat="45.8722072" lon="11.6176012"><ele>964.7142857142856</ele><time>2026-05-02T13:46:53.407Z</time></trkpt><trkpt lat="45.8721488" lon="11.6176443"><ele>966.5714285714286</ele><time>2026-05-02T13:46:56.408Z</time></trkpt><trkpt lat="45.8721021" lon="11.617709"><ele>968.4285714285713</ele><time>2026-05-02T13:47:00.408Z</time></trkpt><trkpt lat="45.8720409" lon="11.6177362"><ele>970.2857142857142</ele><time>2026-05-02T13:47:05.409Z</time></trkpt><trkpt lat="45.8719758" lon="11.6177789"><ele>972.1428571428571</ele><time>2026-05-02T13:47:11.408Z</time></trkpt><trkpt lat="45.8719162" lon="11.6178109"><ele>974.0</ele><time>2026-05-02T13:47:15.409Z</time></trkpt><trkpt lat="45.871852" lon="11.6178783"><ele>972.4285714285714</ele><time>2026-05-02T13:47:20.409Z</time></trkpt><trkpt lat="45.8717932" lon="11.6179234"><ele>970.8571428571429</ele><time>2026-05-02T13:47:25.408Z</time></trkpt><trkpt lat="45.8717352" lon="11.6179733"><ele>969.2857142857143</ele><time>2026-05-02T13:47:30.409Z</time></trkpt><trkpt lat="45.8716698" lon="11.6180114"><ele>967.7142857142858</ele><time>2026-05-02T13:47:35.409Z</time></trkpt><trkpt lat="45.8716071" lon="11.6180465"><ele>966.1428571428571</ele><time>2026-05-02T13:47:41.409Z</time></trkpt><trkpt lat="45.871542" lon="11.6180765"><ele>964.5714285714287</ele><time>2026-05-02T13:47:46.408Z</time></trkpt><trkpt lat="45.8714807" lon="11.6181103"><ele>963.0000000000001</ele><time>2026-05-02T13:47:51.409Z</time></trkpt><trkpt lat="45.871417" lon="11.6181486"><ele>963.0000000000001</ele><time>2026-05-02T13:47:57.409Z</time></trkpt><trkpt lat="45.8713464" lon="11.6181729"><ele>963.0</ele><time>2026-05-02T13:48:03.409Z</time></trkpt><trkpt lat="45.8712857" lon="11.6182012"><ele>963.0000000000001</ele><time>2026-05-02T13:48:08.409Z</time></trkpt><trkpt lat="45.8712267" lon="11.6182362"><ele>963.0000000000001</ele><time>2026-05-02T13:48:13.409Z</time></trkpt><trkpt lat="45.8711649" lon="11.618261"><ele>963.0</ele><time>2026-05-02T13:48:19.409Z</time></trkpt><trkpt lat="45.8711198" lon="11.6183283"><ele>963.0000000000001</ele><time>2026-05-02T13:48:24.409Z</time></trkpt><trkpt lat="45.8710503" lon="11.6183564"><ele>963.0000000000001</ele><time>2026-05-02T13:48:31.41Z</time></trkpt><trkpt lat="45.8709848" lon="11.6183766"><ele>967.7142857142858</ele><time>2026-05-02T13:48:35.409Z</time></trkpt><trkpt lat="45.8709234" lon="11.6184149"><ele>972.4285714285714</ele><time>2026-05-02T13:48:40.409Z</time></trkpt><trkpt lat="45.8708515" lon="11.6184438"><ele>977.1428571428571</ele><time>2026-05-02T13:48:44.41Z</time></trkpt><trkpt lat="45.8707928" lon="11.6185214"><ele>981.8571428571429</ele><time>2026-05-02T13:48:50.41Z</time></trkpt><trkpt lat="45.8707271" lon="11.6185434"><ele>986.5714285714284</ele><time>2026-05-02T13:48:55.409Z</time></trkpt><trkpt lat="45.870672" lon="11.618602"><ele>991.2857142857142</ele><time>2026-05-02T13:48:59.41Z</time></trkpt><trkpt lat="45.8706008" lon="11.6186282"><ele>996.0</ele><time>2026-05-02T13:49:04.41Z</time></trkpt><trkpt lat="45.8705229" lon="11.6186215"><ele>996.0</ele><time>2026-05-02T13:49:09.41Z</time></trkpt><trkpt lat="45.8704448" lon="11.61861"><ele>995.9999999999999</ele><time>2026-05-02T13:49:15.409Z</time></trkpt><trkpt lat="45.8703741" lon="11.6186113"><ele>996.0</ele><time>2026-05-02T13:49:19.409Z</time></trkpt><trkpt lat="45.8702981" lon="11.6186279"><ele>996.0</ele><time>2026-05-02T13:49:23.41Z</time></trkpt><trkpt lat="45.8702339" lon="11.6186263"><ele>995.9999999999999</ele><time>2026-05-02T13:49:26.41Z</time></trkpt><trkpt lat="45.8701465" lon="11.6186387"><ele>996.0</ele><time>2026-05-02T13:49:29.411Z</time></trkpt><trkpt lat="45.8700854" lon="11.618668"><ele>996.0</ele><time>2026-05-02T13:49:32.41Z</time></trkpt><trkpt lat="45.8700082" lon="11.6186942"><ele>990.1666666666666</ele><time>2026-05-02T13:49:35.411Z</time></trkpt><trkpt lat="45.8699279" lon="11.6187237"><ele>984.3333333333333</ele><time>2026-05-02T13:49:38.41Z</time></trkpt><trkpt lat="45.8698649" lon="11.6187441"><ele>978.5</ele><time>2026-05-02T13:49:40.411Z</time></trkpt><trkpt lat="45.8697915" lon="11.6187744"><ele>972.6666666666666</ele><time>2026-05-02T13:49:43.411Z</time></trkpt><trkpt lat="45.8697027" lon="11.6187926"><ele>966.8333333333333</ele><time>2026-05-02T13:49:47.41Z</time></trkpt><trkpt lat="45.8696301" lon="11.6187885"><ele>961.0</ele><time>2026-05-02T13:49:50.411Z</time></trkpt><trkpt lat="45.8695572" lon="11.6187803"><ele>960.9999999999999</ele><time>2026-05-02T13:49:53.411Z</time></trkpt><trkpt lat="45.8694982" lon="11.6187469"><ele>961.0</ele><time>2026-05-02T13:49:55.411Z</time></trkpt><trkpt lat="45.8694295" lon="11.6187153"><ele>961.0</ele><time>2026-05-02T13:49:57.41Z</time></trkpt><trkpt lat="45.8693499" lon="11.6187037"><ele>961.0</ele><time>2026-05-02T13:49:59.411Z</time></trkpt><trkpt lat="45.8692651" lon="11.6187049"><ele>960.9999999999999</ele><time>2026-05-02T13:50:01.411Z</time></trkpt><trkpt lat="45.8691787" lon="11.6187144"><ele>961.0</ele><time>2026-05-02T13:50:03.411Z</time></trkpt><trkpt lat="45.8690913" lon="11.6187074"><ele>964.5999999999999</ele><time>2026-05-02T13:50:05.41Z</time></trkpt><trkpt lat="45.8690055" lon="11.618678"><ele>968.1999999999999</ele><time>2026-05-02T13:50:07.411Z</time></trkpt><trkpt lat="45.8689197" lon="11.6186539"><ele>971.8000000000001</ele><time>2026-05-02T13:50:09.411Z</time></trkpt><trkpt lat="45.8688295" lon="11.6186359"><ele>975.4000000000001</ele><time>2026-05-02T13:50:11.411Z</time></trkpt><trkpt lat="45.868726" lon="11.6186271"><ele>979.0</ele><time>2026-05-02T13:50:13.411Z</time></trkpt><trkpt lat="45.8686186" lon="11.6186364"><ele>979.0</ele><time>2026-05-02T13:50:15.411Z</time></trkpt><trkpt lat="45.8685104" lon="11.618657"><ele>979.0000000000001</ele><time>2026-05-02T13:50:17.411Z</time></trkpt><trkpt lat="45.8684042" lon="11.6186584"><ele>979.0000000000001</ele><time>2026-05-02T13:50:19.411Z</time></trkpt><trkpt lat="45.8682906" lon="11.6186411"><ele>979.0</ele><time>2026-05-02T13:50:21.411Z</time></trkpt><trkpt lat="45.8681852" lon="11.6185918"><ele>979.0</ele><time>2026-05-02T13:50:23.411Z</time></trkpt><trkpt lat="45.8680833" lon="11.618526"><ele>978.1666666666666</ele><time>2026-05-02T13:50:25.411Z</time></trkpt><trkpt lat="45.8680217" lon="11.6185"><ele>977.3333333333333</ele><time>2026-05-02T13:50:26.411Z</time></trkpt><trkpt lat="45.8679566" lon="11.6184747"><ele>976.5</ele><time>2026-05-02T13:50:27.411Z</time></trkpt><trkpt lat="45.8678906" lon="11.6184546"><ele>975.6666666666667</ele><time>2026-05-02T13:50:28.41Z</time></trkpt><trkpt lat="45.8678284" lon="11.618438"><ele>974.8333333333334</ele><time>2026-05-02T13:50:29.411Z</time></trkpt><trkpt lat="45.8677105" lon="11.618416"><ele>974.0</ele><time>2026-05-02T13:50:31.411Z</time></trkpt><trkpt lat="45.8676064" lon="11.6183944"><ele>974.0</ele><time>2026-05-02T13:50:33.411Z</time></trkpt><trkpt lat="45.8675063" lon="11.6183577"><ele>974.0000000000001</ele><time>2026-05-02T13:50:35.411Z</time></trkpt><trkpt lat="45.8674084" lon="11.6183182"><ele>974.0000000000001</ele><time>2026-05-02T13:50:37.411Z</time></trkpt><trkpt lat="45.8673222" lon="11.6182511"><ele>974.0</ele><time>2026-05-02T13:50:39.411Z</time></trkpt><trkpt lat="45.867262" lon="11.6181356"><ele>974.0</ele><time>2026-05-02T13:50:41.411Z</time></trkpt><trkpt lat="45.8672291" lon="11.6179839"><ele>974.0</ele><time>2026-05-02T13:50:43.412Z</time></trkpt><trkpt lat="45.8671824" lon="11.6178573"><ele>974.0000000000001</ele><time>2026-05-02T13:50:45.412Z</time></trkpt><trkpt lat="45.8671366" lon="11.6177203"><ele>974.0000000000001</ele><time>2026-05-02T13:50:47.412Z</time></trkpt><trkpt lat="45.86709" lon="11.6175968"><ele>974.0</ele><time>2026-05-02T13:50:49.412Z</time></trkpt><trkpt lat="45.8670234" lon="11.6174818"><ele>974.0</ele><time>2026-05-02T13:50:51.412Z</time></trkpt><trkpt lat="45.8669453" lon="11.6173574"><ele>974.0</ele><time>2026-05-02T13:50:53.412Z</time></trkpt><trkpt lat="45.8668522" lon="11.6172428"><ele>974.0000000000001</ele><time>2026-05-02T13:50:55.412Z</time></trkpt><trkpt lat="45.8667489" lon="11.6171935"><ele>974.0000000000001</ele><time>2026-05-02T13:50:57.412Z</time></trkpt><trkpt lat="45.8666549" lon="11.6172471"><ele>974.0</ele><time>2026-05-02T13:50:59.411Z</time></trkpt><trkpt lat="45.8665709" lon="11.6173605"><ele>974.0</ele><time>2026-05-02T13:51:01.412Z</time></trkpt><trkpt lat="45.8665309" lon="11.6174371"><ele>974.0</ele><time>2026-05-02T13:51:02.412Z</time></trkpt><trkpt lat="45.8664901" lon="11.6175083"><ele>974.0</ele><time>2026-05-02T13:51:03.412Z</time></trkpt><trkpt lat="45.8664434" lon="11.6175775"><ele>974.0</ele><time>2026-05-02T13:51:04.412Z</time></trkpt><trkpt lat="45.8663892" lon="11.6176597"><ele>974.0</ele><time>2026-05-02T13:51:05.411Z</time></trkpt><trkpt lat="45.8663381" lon="11.6177423"><ele>974.0</ele><time>2026-05-02T13:51:06.411Z</time></trkpt><trkpt lat="45.8662916" lon="11.6178299"><ele>974.0</ele><time>2026-05-02T13:51:07.411Z</time></trkpt><trkpt lat="45.8662442" lon="11.6179131"><ele>974.0</ele><time>2026-05-02T13:51:08.411Z</time></trkpt><trkpt lat="45.8661972" lon="11.6179819"><ele>972.8333333333334</ele><time>2026-05-02T13:51:09.411Z</time></trkpt><trkpt lat="45.8661234" lon="11.618012"><ele>971.6666666666667</ele><time>2026-05-02T13:51:11.412Z</time></trkpt><trkpt lat="45.8660527" lon="11.6179923"><ele>970.5</ele><time>2026-05-02T13:51:13.412Z</time></trkpt><trkpt lat="45.865963" lon="11.6178968"><ele>969.3333333333333</ele><time>2026-05-02T13:51:15.411Z</time></trkpt><trkpt lat="45.865913" lon="11.6178417"><ele>968.1666666666666</ele><time>2026-05-02T13:51:16.412Z</time></trkpt><trkpt lat="45.8658608" lon="11.6177803"><ele>967.0</ele><time>2026-05-02T13:51:17.412Z</time></trkpt><trkpt lat="45.8658055" lon="11.6177261"><ele>967.0</ele><time>2026-05-02T13:51:18.412Z</time></trkpt><trkpt lat="45.8656971" lon="11.617647"><ele>967.0</ele><time>2026-05-02T13:51:20.411Z</time></trkpt><trkpt lat="45.8655909" lon="11.6175561"><ele>967.0</ele><time>2026-05-02T13:51:22.412Z</time></trkpt><trkpt lat="45.8655338" lon="11.6175168"><ele>967.0</ele><time>2026-05-02T13:51:23.412Z</time></trkpt><trkpt lat="45.8654369" lon="11.6174298"><ele>967.0</ele><time>2026-05-02T13:51:25.411Z</time></trkpt><trkpt lat="45.8653504" lon="11.6173105"><ele>967.0</ele><time>2026-05-02T13:51:27.412Z</time></trkpt><trkpt lat="45.8652842" lon="11.6171951"><ele>967.0</ele><time>2026-05-02T13:51:29.411Z</time></trkpt><trkpt lat="45.865229" lon="11.6170594"><ele>967.0</ele><time>2026-05-02T13:51:31.411Z</time></trkpt><trkpt lat="45.8651863" lon="11.616912"><ele>967.0</ele><time>2026-05-02T13:51:33.412Z</time></trkpt><trkpt lat="45.8651456" lon="11.6167762"><ele>967.0</ele><time>2026-05-02T13:51:35.412Z</time></trkpt><trkpt lat="45.8650948" lon="11.6166455"><ele>966.3333333333333</ele><time>2026-05-02T13:51:37.412Z</time></trkpt><trkpt lat="45.8650408" lon="11.6165514"><ele>965.6666666666666</ele><time>2026-05-02T13:51:39.412Z</time></trkpt><trkpt lat="45.8649768" lon="11.6164889"><ele>965.0</ele><time>2026-05-02T13:51:41.412Z</time></trkpt><trkpt lat="45.8649173" lon="11.6164236"><ele>964.3333333333333</ele><time>2026-05-02T13:51:43.412Z</time></trkpt><trkpt lat="45.864847" lon="11.6163698"><ele>963.6666666666666</ele><time>2026-05-02T13:51:45.411Z</time></trkpt><trkpt lat="45.86476" lon="11.6163555"><ele>963.0</ele><time>2026-05-02T13:51:47.411Z</time></trkpt><trkpt lat="45.8646787" lon="11.6163857"><ele>963.0</ele><time>2026-05-02T13:51:49.412Z</time></trkpt><trkpt lat="45.864597" lon="11.6164399"><ele>963.0</ele><time>2026-05-02T13:51:51.412Z</time></trkpt><trkpt lat="45.8645193" lon="11.616457"><ele>963.0</ele><time>2026-05-02T13:51:53.411Z</time></trkpt><trkpt lat="45.8644371" lon="11.6164761"><ele>963.0</ele><time>2026-05-02T13:51:55.411Z</time></trkpt><trkpt lat="45.8643416" lon="11.6164571"><ele>963.0</ele><time>2026-05-02T13:51:57.413Z</time></trkpt><trkpt lat="45.864247" lon="11.6163983"><ele>962.4</ele><time>2026-05-02T13:51:59.412Z</time></trkpt><trkpt lat="45.8641697" lon="11.616294"><ele>961.8</ele><time>2026-05-02T13:52:01.413Z</time></trkpt><trkpt lat="45.8641246" lon="11.6161536"><ele>961.2</ele><time>2026-05-02T13:52:03.413Z</time></trkpt><trkpt lat="45.8641025" lon="11.6160003"><ele>960.6</ele><time>2026-05-02T13:52:05.412Z</time></trkpt><trkpt lat="45.8640671" lon="11.6158526"><ele>960.0</ele><time>2026-05-02T13:52:07.413Z</time></trkpt><trkpt lat="45.8640346" lon="11.6157205"><ele>960.0</ele><time>2026-05-02T13:52:09.413Z</time></trkpt><trkpt lat="45.8640062" lon="11.615596"><ele>960.0</ele><time>2026-05-02T13:52:11.412Z</time></trkpt><trkpt lat="45.8639859" lon="11.6154866"><ele>960.0</ele><time>2026-05-02T13:52:13.413Z</time></trkpt><trkpt lat="45.863977" lon="11.6153744"><ele>960.0</ele><time>2026-05-02T13:52:15.413Z</time></trkpt><trkpt lat="45.8639585" lon="11.6152725"><ele>960.0</ele><time>2026-05-02T13:52:17.413Z</time></trkpt><trkpt lat="45.8639287" lon="11.6151781"><ele>960.0</ele><time>2026-05-02T13:52:19.413Z</time></trkpt><trkpt lat="45.8638979" lon="11.6150923"><ele>961.7142857142858</ele><time>2026-05-02T13:52:21.413Z</time></trkpt><trkpt lat="45.863856" lon="11.6150163"><ele>963.4285714285713</ele><time>2026-05-02T13:52:23.413Z</time></trkpt><trkpt lat="45.8638148" lon="11.6149471"><ele>965.1428571428571</ele><time>2026-05-02T13:52:25.413Z</time></trkpt><trkpt lat="45.863764" lon="11.6148644"><ele>966.8571428571429</ele><time>2026-05-02T13:52:28.413Z</time></trkpt><trkpt lat="45.8637135" lon="11.614788"><ele>968.5714285714287</ele><time>2026-05-02T13:52:31.413Z</time></trkpt><trkpt lat="45.8636561" lon="11.6147034"><ele>970.2857142857142</ele><time>2026-05-02T13:52:35.413Z</time></trkpt><trkpt lat="45.8636114" lon="11.6146142"><ele>972.0</ele><time>2026-05-02T13:52:38.413Z</time></trkpt><trkpt lat="45.8635496" lon="11.6145522"><ele>971.5</ele><time>2026-05-02T13:52:41.413Z</time></trkpt><trkpt lat="45.8634837" lon="11.6144874"><ele>971.0</ele><time>2026-05-02T13:52:44.413Z</time></trkpt><trkpt lat="45.8634213" lon="11.6144223"><ele>970.5</ele><time>2026-05-02T13:52:47.413Z</time></trkpt><trkpt lat="45.8633607" lon="11.6143703"><ele>970.0</ele><time>2026-05-02T13:52:50.413Z</time></trkpt><trkpt lat="45.8632945" lon="11.6143176"><ele>969.5</ele><time>2026-05-02T13:52:55.413Z</time></trkpt><trkpt lat="45.8632158" lon="11.6143217"><ele>969.0</ele><time>2026-05-02T13:52:59.413Z</time></trkpt><trkpt lat="45.8631212" lon="11.6143733"><ele>969.0</ele><time>2026-05-02T13:53:02.413Z</time></trkpt><trkpt lat="45.8630447" lon="11.6144263"><ele>969.0000000000001</ele><time>2026-05-02T13:53:04.412Z</time></trkpt><trkpt lat="45.8629625" lon="11.614498"><ele>969.0000000000001</ele><time>2026-05-02T13:53:06.413Z</time></trkpt><trkpt lat="45.862882" lon="11.6145724"><ele>969.0</ele><time>2026-05-02T13:53:08.413Z</time></trkpt><trkpt lat="45.8628011" lon="11.6146102"><ele>969.0</ele><time>2026-05-02T13:53:10.414Z</time></trkpt><trkpt lat="45.8627073" lon="11.6146013"><ele>966.8000000000001</ele><time>2026-05-02T13:53:12.413Z</time></trkpt><trkpt lat="45.8626145" lon="11.6145803"><ele>964.6000000000001</ele><time>2026-05-02T13:53:14.414Z</time></trkpt><trkpt lat="45.8625302" lon="11.6145465"><ele>962.4</ele><time>2026-05-02T13:53:16.414Z</time></trkpt><trkpt lat="45.8624543" lon="11.6144667"><ele>960.2</ele><time>2026-05-02T13:53:18.414Z</time></trkpt><trkpt lat="45.8623851" lon="11.6143571"><ele>958.0</ele><time>2026-05-02T13:53:20.414Z</time></trkpt><trkpt lat="45.8623447" lon="11.6142026"><ele>958.0</ele><time>2026-05-02T13:53:22.413Z</time></trkpt><trkpt lat="45.8623419" lon="11.6140344"><ele>958.0</ele><time>2026-05-02T13:53:24.414Z</time></trkpt><trkpt lat="45.8623608" lon="11.6138868"><ele>958.0</ele><time>2026-05-02T13:53:26.414Z</time></trkpt><trkpt lat="45.8624037" lon="11.613757"><ele>958.0</ele><time>2026-05-02T13:53:28.414Z</time></trkpt><trkpt lat="45.8624248" lon="11.6136701"><ele>958.0</ele><time>2026-05-02T13:53:29.413Z</time></trkpt><trkpt lat="45.8624445" lon="11.6135823"><ele>957.0</ele><time>2026-05-02T13:53:30.414Z</time></trkpt><trkpt lat="45.8624748" lon="11.6134311"><ele>956.0</ele><time>2026-05-02T13:53:32.414Z</time></trkpt><trkpt lat="45.8625009" lon="11.6133442"><ele>955.0</ele><time>2026-05-02T13:53:33.414Z</time></trkpt><trkpt lat="45.8625588" lon="11.6131946"><ele>954.0</ele><time>2026-05-02T13:53:35.414Z</time></trkpt><trkpt lat="45.8626246" lon="11.613067"><ele>953.0</ele><time>2026-05-02T13:53:37.414Z</time></trkpt><trkpt lat="45.8626918" lon="11.6129745"><ele>955.8</ele><time>2026-05-02T13:53:39.414Z</time></trkpt><trkpt lat="45.8627452" lon="11.6128649"><ele>958.5999999999999</ele><time>2026-05-02T13:53:41.414Z</time></trkpt><trkpt lat="45.8627727" lon="11.6127188"><ele>961.4000000000001</ele><time>2026-05-02T13:53:43.414Z</time></trkpt><trkpt lat="45.8627979" lon="11.612572"><ele>964.2</ele><time>2026-05-02T13:53:45.414Z</time></trkpt><trkpt lat="45.8627863" lon="11.6124005"><ele>967.0</ele><time>2026-05-02T13:53:47.414Z</time></trkpt><trkpt lat="45.8627018" lon="11.6123055"><ele>967.0</ele><time>2026-05-02T13:53:49.414Z</time></trkpt><trkpt lat="45.8626323" lon="11.6122838"><ele>967.0</ele><time>2026-05-02T13:53:50.413Z</time></trkpt><trkpt lat="45.8625533" lon="11.6122957"><ele>967.0</ele><time>2026-05-02T13:53:51.414Z</time></trkpt><trkpt lat="45.8624789" lon="11.6123193"><ele>967.0</ele><time>2026-05-02T13:53:52.413Z</time></trkpt><trkpt lat="45.8624091" lon="11.6123575"><ele>967.0</ele><time>2026-05-02T13:53:53.414Z</time></trkpt><trkpt lat="45.8623477" lon="11.6124097"><ele>967.0</ele><time>2026-05-02T13:53:54.414Z</time></trkpt><trkpt lat="45.862288" lon="11.6124616"><ele>967.0</ele><time>2026-05-02T13:53:55.414Z</time></trkpt><trkpt lat="45.862227" lon="11.6125067"><ele>963.8333333333333</ele><time>2026-05-02T13:53:56.414Z</time></trkpt><trkpt lat="45.8621569" lon="11.6125594"><ele>960.6666666666666</ele><time>2026-05-02T13:53:57.414Z</time></trkpt><trkpt lat="45.8620854" lon="11.6126185"><ele>957.5</ele><time>2026-05-02T13:53:58.413Z</time></trkpt><trkpt lat="45.862014" lon="11.612672"><ele>954.3333333333333</ele><time>2026-05-02T13:53:59.414Z</time></trkpt><trkpt lat="45.8619398" lon="11.6127168"><ele>951.1666666666666</ele><time>2026-05-02T13:54:00.414Z</time></trkpt><trkpt lat="45.861859" lon="11.612747"><ele>948.0</ele><time>2026-05-02T13:54:01.413Z</time></trkpt><trkpt lat="45.8617838" lon="11.6127619"><ele>946.6666666666666</ele><time>2026-05-02T13:54:02.414Z</time></trkpt><trkpt lat="45.8617061" lon="11.6127498"><ele>945.3333333333333</ele><time>2026-05-02T13:54:03.413Z</time></trkpt><trkpt lat="45.8616412" lon="11.6127023"><ele>944.0</ele><time>2026-05-02T13:54:04.413Z</time></trkpt><trkpt lat="45.8615848" lon="11.6126238"><ele>942.6666666666666</ele><time>2026-05-02T13:54:05.414Z</time></trkpt><trkpt lat="45.8615494" lon="11.6125307"><ele>941.3333333333333</ele><time>2026-05-02T13:54:06.414Z</time></trkpt><trkpt lat="45.8615198" lon="11.6124331"><ele>940.0</ele><time>2026-05-02T13:54:07.414Z</time></trkpt><trkpt lat="45.8614857" lon="11.6123313"><ele>940.0</ele><time>2026-05-02T13:54:08.414Z</time></trkpt><trkpt lat="45.8614538" lon="11.6122316"><ele>939.9999999999999</ele><time>2026-05-02T13:54:09.414Z</time></trkpt><trkpt lat="45.8614188" lon="11.6121348"><ele>940.0</ele><time>2026-05-02T13:54:10.414Z</time></trkpt><trkpt lat="45.8613846" lon="11.6120377"><ele>940.0</ele><time>2026-05-02T13:54:11.414Z</time></trkpt><trkpt lat="45.861349" lon="11.6119474"><ele>939.9999999999999</ele><time>2026-05-02T13:54:12.414Z</time></trkpt><trkpt lat="45.8613111" lon="11.6118663"><ele>940.0</ele><time>2026-05-02T13:54:13.415Z</time></trkpt><trkpt lat="45.8612714" lon="11.6117885"><ele>940.0</ele><time>2026-05-02T13:54:14.415Z</time></trkpt><trkpt lat="45.8612298" lon="11.6117141"><ele>939.9999999999999</ele><time>2026-05-02T13:54:15.415Z</time></trkpt><trkpt lat="45.8611872" lon="11.6116384"><ele>940.0</ele><time>2026-05-02T13:54:16.415Z</time></trkpt><trkpt lat="45.8611452" lon="11.6115636"><ele>940.0</ele><time>2026-05-02T13:54:17.415Z</time></trkpt><trkpt lat="45.861102" lon="11.6114927"><ele>940.0</ele><time>2026-05-02T13:54:18.415Z</time></trkpt><trkpt lat="45.8610149" lon="11.6113634"><ele>939.9999999999999</ele><time>2026-05-02T13:54:20.415Z</time></trkpt><trkpt lat="45.8609376" lon="11.6112418"><ele>940.0</ele><time>2026-05-02T13:54:22.414Z</time></trkpt><trkpt lat="45.8608654" lon="11.6111299"><ele>939.9999999999999</ele><time>2026-05-02T13:54:24.415Z</time></trkpt><trkpt lat="45.8607939" lon="11.6110192"><ele>940.0</ele><time>2026-05-02T13:54:26.415Z</time></trkpt><trkpt lat="45.8607251" lon="11.6109212"><ele>940.0</ele><time>2026-05-02T13:54:28.415Z</time></trkpt><trkpt lat="45.8606692" lon="11.6108346"><ele>940.0</ele><time>2026-05-02T13:54:30.415Z</time></trkpt><trkpt lat="45.8606206" lon="11.6107518"><ele>939.9999999999999</ele><time>2026-05-02T13:54:32.414Z</time></trkpt><trkpt lat="45.8605721" lon="11.6106623"><ele>940.0</ele><time>2026-05-02T13:54:34.415Z</time></trkpt><trkpt lat="45.8605084" lon="11.6105628"><ele>939.9999999999999</ele><time>2026-05-02T13:54:36.414Z</time></trkpt><trkpt lat="45.8604485" lon="11.6104839"><ele>940.0</ele><time>2026-05-02T13:54:38.415Z</time></trkpt><trkpt lat="45.860405" lon="11.610402"><ele>940.0</ele><time>2026-05-02T13:54:40.415Z</time></trkpt><trkpt lat="45.8603441" lon="11.6103239"><ele>940.0</ele><time>2026-05-02T13:54:42.415Z</time></trkpt><trkpt lat="45.8602894" lon="11.6102451"><ele>939.9999999999999</ele><time>2026-05-02T13:54:44.415Z</time></trkpt><trkpt lat="45.8602462" lon="11.6101591"><ele>940.0</ele><time>2026-05-02T13:54:46.415Z</time></trkpt><trkpt lat="45.8602083" lon="11.6100766"><ele>940.6666666666666</ele><time>2026-05-02T13:54:48.415Z</time></trkpt><trkpt lat="45.8601643" lon="11.6099992"><ele>941.3333333333333</ele><time>2026-05-02T13:54:50.415Z</time></trkpt><trkpt lat="45.8601099" lon="11.6098962"><ele>942.0</ele><time>2026-05-02T13:54:53.414Z</time></trkpt><trkpt lat="45.860037" lon="11.6098325"><ele>942.6666666666667</ele><time>2026-05-02T13:54:56.414Z</time></trkpt><trkpt lat="45.859968" lon="11.6097552"><ele>943.3333333333334</ele><time>2026-05-02T13:54:59.414Z</time></trkpt><trkpt lat="45.8598952" lon="11.6096991"><ele>944.0</ele><time>2026-05-02T13:55:02.415Z</time></trkpt><trkpt lat="45.8598403" lon="11.6096406"><ele>945.0</ele><time>2026-05-02T13:55:05.415Z</time></trkpt><trkpt lat="45.859771" lon="11.6095808"><ele>946.0</ele><time>2026-05-02T13:55:08.414Z</time></trkpt><trkpt lat="45.8597093" lon="11.609532"><ele>947.0</ele><time>2026-05-02T13:55:11.415Z</time></trkpt><trkpt lat="45.8596376" lon="11.6094966"><ele>948.0</ele><time>2026-05-02T13:55:14.415Z</time></trkpt><trkpt lat="45.8595675" lon="11.6094707"><ele>949.0</ele><time>2026-05-02T13:55:17.415Z</time></trkpt><trkpt lat="45.8595035" lon="11.6094384"><ele>950.0</ele><time>2026-05-02T13:55:20.415Z</time></trkpt><trkpt lat="45.8594306" lon="11.6094145"><ele>951.0</ele><time>2026-05-02T13:55:23.415Z</time></trkpt><trkpt lat="45.8593561" lon="11.6093954"><ele>952.0</ele><time>2026-05-02T13:55:26.416Z</time></trkpt><trkpt lat="45.8592921" lon="11.6093746"><ele>953.0</ele><time>2026-05-02T13:55:29.416Z</time></trkpt><trkpt lat="45.8592245" lon="11.6093577"><ele>954.0</ele><time>2026-05-02T13:55:32.416Z</time></trkpt><trkpt lat="45.8591554" lon="11.6093391"><ele>955.0</ele><time>2026-05-02T13:55:35.416Z</time></trkpt><trkpt lat="45.8590716" lon="11.609327"><ele>956.0</ele><time>2026-05-02T13:55:38.416Z</time></trkpt><trkpt lat="45.8589872" lon="11.6093247"><ele>957.0</ele><time>2026-05-02T13:55:41.416Z</time></trkpt><trkpt lat="45.8589219" lon="11.6093206"><ele>958.0</ele><time>2026-05-02T13:55:43.416Z</time></trkpt><trkpt lat="45.8588561" lon="11.6093204"><ele>957.9999999999999</ele><time>2026-05-02T13:55:45.416Z</time></trkpt><trkpt lat="45.8587686" lon="11.6093557"><ele>958.0</ele><time>2026-05-02T13:55:48.415Z</time></trkpt><trkpt lat="45.8586799" lon="11.6093765"><ele>958.0</ele><time>2026-05-02T13:55:51.415Z</time></trkpt><trkpt lat="45.8585937" lon="11.6093783"><ele>958.0</ele><time>2026-05-02T13:55:54.415Z</time></trkpt><trkpt lat="45.8585187" lon="11.6093958"><ele>957.9999999999999</ele><time>2026-05-02T13:55:57.416Z</time></trkpt><trkpt lat="45.8584301" lon="11.6094118"><ele>958.0</ele><time>2026-05-02T13:56:00.416Z</time></trkpt><trkpt lat="45.8583453" lon="11.6094307"><ele>958.0</ele><time>2026-05-02T13:56:03.416Z</time></trkpt><trkpt lat="45.8582757" lon="11.6094359"><ele>958.0</ele><time>2026-05-02T13:56:05.416Z</time></trkpt><trkpt lat="45.858207" lon="11.609431"><ele>958.0</ele><time>2026-05-02T13:56:07.416Z</time></trkpt><trkpt lat="45.8581391" lon="11.6094235"><ele>958.0</ele><time>2026-05-02T13:56:09.415Z</time></trkpt><trkpt lat="45.8580634" lon="11.6093868"><ele>958.0</ele><time>2026-05-02T13:56:12.416Z</time></trkpt><trkpt lat="45.8579901" lon="11.6093407"><ele>958.0</ele><time>2026-05-02T13:56:15.416Z</time></trkpt><trkpt lat="45.8579222" lon="11.6092882"><ele>958.0</ele><time>2026-05-02T13:56:18.416Z</time></trkpt><trkpt lat="45.8578539" lon="11.6092398"><ele>958.0</ele><time>2026-05-02T13:56:21.417Z</time></trkpt><trkpt lat="45.8577831" lon="11.6091849"><ele>958.0</ele><time>2026-05-02T13:56:24.417Z</time></trkpt><trkpt lat="45.8577167" lon="11.6091357"><ele>958.0</ele><time>2026-05-02T13:56:27.417Z</time></trkpt><trkpt lat="45.8576477" lon="11.609085"><ele>958.0</ele><time>2026-05-02T13:56:30.417Z</time></trkpt><trkpt lat="45.8575758" lon="11.6090385"><ele>958.0</ele><time>2026-05-02T13:56:33.416Z</time></trkpt><trkpt lat="45.8575137" lon="11.6090052"><ele>958.0</ele><time>2026-05-02T13:56:36.416Z</time></trkpt><trkpt lat="45.8574558" lon="11.6089621"><ele>958.0</ele><time>2026-05-02T13:56:39.416Z</time></trkpt><trkpt lat="45.8573839" lon="11.6089153"><ele>956.6666666666666</ele><time>2026-05-02T13:56:43.416Z</time></trkpt><trkpt lat="45.8573086" lon="11.6088677"><ele>955.3333333333333</ele><time>2026-05-02T13:56:47.417Z</time></trkpt><trkpt lat="45.8572427" lon="11.6088187"><ele>954.0</ele><time>2026-05-02T13:56:51.416Z</time></trkpt><trkpt lat="45.8571752" lon="11.6087859"><ele>952.6666666666667</ele><time>2026-05-02T13:56:55.417Z</time></trkpt><trkpt lat="45.8571053" lon="11.6087348"><ele>951.3333333333334</ele><time>2026-05-02T13:56:59.416Z</time></trkpt><trkpt lat="45.857036" lon="11.608681"><ele>950.0</ele><time>2026-05-02T13:57:03.417Z</time></trkpt><trkpt lat="45.8569816" lon="11.6086299"><ele>951.5000000000001</ele><time>2026-05-02T13:57:06.417Z</time></trkpt><trkpt lat="45.8569191" lon="11.6085886"><ele>953.0</ele><time>2026-05-02T13:57:09.417Z</time></trkpt><trkpt lat="45.8568776" lon="11.6085152"><ele>954.5</ele><time>2026-05-02T13:57:12.416Z</time></trkpt><trkpt lat="45.856842" lon="11.6084306"><ele>956.0</ele><time>2026-05-02T13:57:15.417Z</time></trkpt><trkpt lat="45.8567983" lon="11.608338"><ele>957.5000000000001</ele><time>2026-05-02T13:57:18.417Z</time></trkpt><trkpt lat="45.856765" lon="11.6082291"><ele>959.0</ele><time>2026-05-02T13:57:21.417Z</time></trkpt><trkpt lat="45.8567306" lon="11.6081035"><ele>959.0000000000001</ele><time>2026-05-02T13:57:24.416Z</time></trkpt><trkpt lat="45.8566932" lon="11.6079918"><ele>959.0</ele><time>2026-05-02T13:57:27.417Z</time></trkpt><trkpt lat="45.856661" lon="11.6078896"><ele>959.0</ele><time>2026-05-02T13:57:30.418Z</time></trkpt><trkpt lat="45.856633" lon="11.6077868"><ele>959.0</ele><time>2026-05-02T13:57:33.418Z</time></trkpt><trkpt lat="45.8566008" lon="11.6076994"><ele>959.0000000000001</ele><time>2026-05-02T13:57:36.417Z</time></trkpt><trkpt lat="45.856574" lon="11.6076019"><ele>959.0</ele><time>2026-05-02T13:57:39.417Z</time></trkpt><trkpt lat="45.8565541" lon="11.6075018"><ele>960.2857142857142</ele><time>2026-05-02T13:57:42.418Z</time></trkpt><trkpt lat="45.8565176" lon="11.6073926"><ele>961.5714285714286</ele><time>2026-05-02T13:57:46.418Z</time></trkpt><trkpt lat="45.8564914" lon="11.6073041"><ele>962.8571428571429</ele><time>2026-05-02T13:57:49.418Z</time></trkpt><trkpt lat="45.8564428" lon="11.6072213"><ele>964.1428571428571</ele><time>2026-05-02T13:57:52.417Z</time></trkpt><trkpt lat="45.8564068" lon="11.6071237"><ele>965.4285714285713</ele><time>2026-05-02T13:57:55.418Z</time></trkpt><trkpt lat="45.8563727" lon="11.6070353"><ele>966.7142857142857</ele><time>2026-05-02T13:57:58.418Z</time></trkpt><trkpt lat="45.8563229" lon="11.6069548"><ele>968.0</ele><time>2026-05-02T13:58:01.418Z</time></trkpt><trkpt lat="45.8562852" lon="11.6068773"><ele>969.7142857142857</ele><time>2026-05-02T13:58:04.418Z</time></trkpt><trkpt lat="45.8562528" lon="11.6067943"><ele>971.4285714285713</ele><time>2026-05-02T13:58:07.417Z</time></trkpt><trkpt lat="45.8562082" lon="11.606719"><ele>973.1428571428571</ele><time>2026-05-02T13:58:10.417Z</time></trkpt><trkpt lat="45.8561548" lon="11.6066285"><ele>974.8571428571429</ele><time>2026-05-02T13:58:14.418Z</time></trkpt><trkpt lat="45.8561084" lon="11.606545"><ele>976.5714285714286</ele><time>2026-05-02T13:58:18.418Z</time></trkpt><trkpt lat="45.8560729" lon="11.6064467"><ele>978.2857142857142</ele><time>2026-05-02T13:58:22.417Z</time></trkpt><trkpt lat="45.8560162" lon="11.6063763"><ele>980.0</ele><time>2026-05-02T13:58:26.418Z</time></trkpt><trkpt lat="45.8559779" lon="11.6062953"><ele>979.1428571428571</ele><time>2026-05-02T13:58:30.418Z</time></trkpt><trkpt lat="45.8559402" lon="11.6062177"><ele>978.2857142857142</ele><time>2026-05-02T13:58:34.418Z</time></trkpt><trkpt lat="45.8558855" lon="11.606151"><ele>977.4285714285714</ele><time>2026-05-02T13:58:39.419Z</time></trkpt><trkpt lat="45.855832" lon="11.6060946"><ele>976.5714285714286</ele><time>2026-05-02T13:58:44.418Z</time></trkpt><trkpt lat="45.8557874" lon="11.6060276"><ele>975.7142857142857</ele><time>2026-05-02T13:58:48.418Z</time></trkpt><trkpt lat="45.8557214" lon="11.6059654"><ele>974.8571428571429</ele><time>2026-05-02T13:58:52.418Z</time></trkpt><trkpt lat="45.8556594" lon="11.605928"><ele>974.0</ele><time>2026-05-02T13:58:56.419Z</time></trkpt><trkpt lat="45.8555948" lon="11.6059134"><ele>974.0</ele><time>2026-05-02T13:59:00.419Z</time></trkpt><trkpt lat="45.8555341" lon="11.6058718"><ele>974.0</ele><time>2026-05-02T13:59:04.418Z</time></trkpt><trkpt lat="45.8554593" lon="11.6058256"><ele>974.0</ele><time>2026-05-02T13:59:08.419Z</time></trkpt><trkpt lat="45.8554071" lon="11.6057728"><ele>974.0</ele><time>2026-05-02T13:59:11.419Z</time></trkpt><trkpt lat="45.8553522" lon="11.6057179"><ele>974.0</ele><time>2026-05-02T13:59:14.418Z</time></trkpt><trkpt lat="45.8552993" lon="11.6056571"><ele>974.0</ele><time>2026-05-02T13:59:17.419Z</time></trkpt><trkpt lat="45.8552571" lon="11.6055867"><ele>974.0</ele><time>2026-05-02T13:59:20.419Z</time></trkpt><trkpt lat="45.8552317" lon="11.6055024"><ele>974.0</ele><time>2026-05-02T13:59:23.419Z</time></trkpt><trkpt lat="45.8551963" lon="11.6054122"><ele>974.0</ele><time>2026-05-02T13:59:26.419Z</time></trkpt><trkpt lat="45.8551706" lon="11.6053209"><ele>974.0</ele><time>2026-05-02T13:59:29.419Z</time></trkpt><trkpt lat="45.8551374" lon="11.6052439"><ele>974.0</ele><time>2026-05-02T13:59:32.418Z</time></trkpt><trkpt lat="45.855102" lon="11.6051575"><ele>974.0</ele><time>2026-05-02T13:59:35.419Z</time></trkpt><trkpt lat="45.8550612" lon="11.6050722"><ele>974.0</ele><time>2026-05-02T13:59:38.419Z</time></trkpt><trkpt lat="45.8550273" lon="11.6049796"><ele>974.0</ele><time>2026-05-02T13:59:41.42Z</time></trkpt><trkpt lat="45.8549821" lon="11.6048973"><ele>974.8333333333334</ele><time>2026-05-02T13:59:44.419Z</time></trkpt><trkpt lat="45.8549318" lon="11.6048097"><ele>975.6666666666667</ele><time>2026-05-02T13:59:47.42Z</time></trkpt><trkpt lat="45.8548768" lon="11.6047217"><ele>976.5</ele><time>2026-05-02T13:59:50.493Z</time></trkpt><trkpt lat="45.8548226" lon="11.6046539"><ele>977.3333333333333</ele><time>2026-05-02T13:59:53.42Z</time></trkpt><trkpt lat="45.8547671" lon="11.6045871"><ele>978.1666666666666</ele><time>2026-05-02T13:59:56.342Z</time></trkpt><trkpt lat="45.8547161" lon="11.6045018"><ele>979.0</ele><time>2026-05-02T13:59:59.453Z</time></trkpt><trkpt lat="45.8546689" lon="11.6044273"><ele>980.6666666666666</ele><time>2026-05-02T14:00:02.473Z</time></trkpt><trkpt lat="45.8546279" lon="11.6043427"><ele>982.3333333333333</ele><time>2026-05-02T14:00:05.492Z</time></trkpt><trkpt lat="45.8545827" lon="11.6042597"><ele>984.0</ele><time>2026-05-02T14:00:08.42Z</time></trkpt><trkpt lat="45.8545257" lon="11.6041887"><ele>985.6666666666667</ele><time>2026-05-02T14:00:11.432Z</time></trkpt><trkpt lat="45.8544533" lon="11.6041308"><ele>987.3333333333334</ele><time>2026-05-02T14:00:14.452Z</time></trkpt><trkpt lat="45.8543786" lon="11.6040772"><ele>989.0</ele><time>2026-05-02T14:00:17.472Z</time></trkpt><trkpt lat="45.8543073" lon="11.6040244"><ele>987.4285714285713</ele><time>2026-05-02T14:00:20.492Z</time></trkpt><trkpt lat="45.8542367" lon="11.6039755"><ele>985.8571428571428</ele><time>2026-05-02T14:00:23.42Z</time></trkpt><trkpt lat="45.8541683" lon="11.6039448"><ele>984.2857142857142</ele><time>2026-05-02T14:00:26.431Z</time></trkpt><trkpt lat="45.854108" lon="11.6039137"><ele>982.7142857142858</ele><time>2026-05-02T14:00:29.461Z</time></trkpt><trkpt lat="45.8540662" lon="11.6038457"><ele>981.1428571428572</ele><time>2026-05-02T14:00:32.423Z</time></trkpt><trkpt lat="45.8540053" lon="11.6037951"><ele>979.5714285714287</ele><time>2026-05-02T14:00:35.49Z</time></trkpt><trkpt lat="45.853927" lon="11.6037335"><ele>978.0</ele><time>2026-05-02T14:00:38.511Z</time></trkpt><trkpt lat="45.8538604" lon="11.6036805"><ele>977.1666666666666</ele><time>2026-05-02T14:00:41.42Z</time></trkpt><trkpt lat="45.8537817" lon="11.6036117"><ele>976.3333333333333</ele><time>2026-05-02T14:00:44.42Z</time></trkpt><trkpt lat="45.8537015" lon="11.6035544"><ele>975.5</ele><time>2026-05-02T14:00:47.42Z</time></trkpt><trkpt lat="45.8536275" lon="11.6035044"><ele>974.6666666666666</ele><time>2026-05-02T14:00:50.42Z</time></trkpt><trkpt lat="45.85354" lon="11.6034518"><ele>973.8333333333333</ele><time>2026-05-02T14:00:53.421Z</time></trkpt><trkpt lat="45.8534779" lon="11.6034117"><ele>973.0</ele><time>2026-05-02T14:00:55.421Z</time></trkpt><trkpt lat="45.8534134" lon="11.6033723"><ele>972.9999999999999</ele><time>2026-05-02T14:00:57.42Z</time></trkpt><trkpt lat="45.8533433" lon="11.6033452"><ele>973.0</ele><time>2026-05-02T14:00:59.421Z</time></trkpt><trkpt lat="45.8532634" lon="11.6033189"><ele>973.0</ele><time>2026-05-02T14:01:02.42Z</time></trkpt><trkpt lat="45.8531782" lon="11.6032976"><ele>973.0</ele><time>2026-05-02T14:01:05.421Z</time></trkpt><trkpt lat="45.8531058" lon="11.6032978"><ele>972.9999999999999</ele><time>2026-05-02T14:01:07.421Z</time></trkpt><trkpt lat="45.8530296" lon="11.6032948"><ele>973.0</ele><time>2026-05-02T14:01:09.421Z</time></trkpt><trkpt lat="45.8529566" lon="11.6033005"><ele>972.9999999999999</ele><time>2026-05-02T14:01:11.521Z</time></trkpt><trkpt lat="45.8528862" lon="11.6033063"><ele>973.0</ele><time>2026-05-02T14:01:13.342Z</time></trkpt><trkpt lat="45.8528009" lon="11.6033184"><ele>973.0</ele><time>2026-05-02T14:01:15.455Z</time></trkpt><trkpt lat="45.852722" lon="11.6033222"><ele>973.0</ele><time>2026-05-02T14:01:17.468Z</time></trkpt><trkpt lat="45.852648" lon="11.6033257"><ele>972.9999999999999</ele><time>2026-05-02T14:01:19.481Z</time></trkpt><trkpt lat="45.8525749" lon="11.6033278"><ele>973.0</ele><time>2026-05-02T14:01:21.495Z</time></trkpt><trkpt lat="45.8525035" lon="11.6033306"><ele>972.5714285714286</ele><time>2026-05-02T14:01:23.508Z</time></trkpt><trkpt lat="45.8524354" lon="11.6033425"><ele>972.1428571428571</ele><time>2026-05-02T14:01:25.421Z</time></trkpt><trkpt lat="45.8523628" lon="11.6033469"><ele>971.7142857142858</ele><time>2026-05-02T14:01:27.434Z</time></trkpt><trkpt lat="45.8522909" lon="11.6033532"><ele>971.2857142857143</ele><time>2026-05-02T14:01:29.447Z</time></trkpt><trkpt lat="45.8522208" lon="11.6033653"><ele>970.8571428571429</ele><time>2026-05-02T14:01:31.459Z</time></trkpt><trkpt lat="45.8521531" lon="11.6033768"><ele>970.4285714285716</ele><time>2026-05-02T14:01:33.474Z</time></trkpt><trkpt lat="45.8520828" lon="11.6033833"><ele>970.0000000000001</ele><time>2026-05-02T14:01:35.487Z</time></trkpt><trkpt lat="45.852009" lon="11.6033974"><ele>970.0000000000001</ele><time>2026-05-02T14:01:37.5Z</time></trkpt><trkpt lat="45.8519341" lon="11.6034077"><ele>970.0</ele><time>2026-05-02T14:01:39.551Z</time></trkpt><trkpt lat="45.8518355" lon="11.6034165"><ele>970.0000000000001</ele><time>2026-05-02T14:01:42.316Z</time></trkpt><trkpt lat="45.8517637" lon="11.6034258"><ele>970.0000000000001</ele><time>2026-05-02T14:01:44.446Z</time></trkpt><trkpt lat="45.8516974" lon="11.6034328"><ele>970.0</ele><time>2026-05-02T14:01:46.459Z</time></trkpt><trkpt lat="45.8516343" lon="11.603439"><ele>970.0000000000001</ele><time>2026-05-02T14:01:48.473Z</time></trkpt><trkpt lat="45.8515706" lon="11.6034464"><ele>970.0000000000001</ele><time>2026-05-02T14:01:50.486Z</time></trkpt><trkpt lat="45.8514843" lon="11.6034646"><ele>971.3333333333333</ele><time>2026-05-02T14:01:53.506Z</time></trkpt><trkpt lat="45.8514034" lon="11.6034731"><ele>972.6666666666666</ele><time>2026-05-02T14:01:56.425Z</time></trkpt><trkpt lat="45.8513401" lon="11.6034824"><ele>974.0</ele><time>2026-05-02T14:01:58.439Z</time></trkpt><trkpt lat="45.8512757" lon="11.603488"><ele>975.3333333333333</ele><time>2026-05-02T14:02:00.452Z</time></trkpt><trkpt lat="45.8512123" lon="11.603497"><ele>976.6666666666666</ele><time>2026-05-02T14:02:02.465Z</time></trkpt><trkpt lat="45.8511275" lon="11.6034966"><ele>978.0</ele><time>2026-05-02T14:02:05.485Z</time></trkpt><trkpt lat="45.8510342" lon="11.6035021"><ele>978.3333333333334</ele><time>2026-05-02T14:02:08.505Z</time></trkpt><trkpt lat="45.8509435" lon="11.6035023"><ele>978.6666666666667</ele><time>2026-05-02T14:02:11.423Z</time></trkpt><trkpt lat="45.8508569" lon="11.6035009"><ele>979.0</ele><time>2026-05-02T14:02:14.444Z</time></trkpt><trkpt lat="45.8507797" lon="11.6034936"><ele>979.3333333333334</ele><time>2026-05-02T14:02:17.464Z</time></trkpt><trkpt lat="45.8507152" lon="11.6034527"><ele>979.6666666666667</ele><time>2026-05-02T14:02:20.483Z</time></trkpt><trkpt lat="45.8506484" lon="11.6034184"><ele>980.0</ele><time>2026-05-02T14:02:23.504Z</time></trkpt><trkpt lat="45.8505786" lon="11.6033618"><ele>980.0</ele><time>2026-05-02T14:02:26.417Z</time></trkpt><trkpt lat="45.8505006" lon="11.6033133"><ele>980.0</ele><time>2026-05-02T14:02:29.443Z</time></trkpt><trkpt lat="45.8504333" lon="11.6032546"><ele>980.0</ele><time>2026-05-02T14:02:32.463Z</time></trkpt><trkpt lat="45.8503642" lon="11.6032085"><ele>980.0</ele><time>2026-05-02T14:02:35.483Z</time></trkpt><trkpt lat="45.8502984" lon="11.6031766"><ele>980.0</ele><time>2026-05-02T14:02:37.497Z</time></trkpt><trkpt lat="45.8502382" lon="11.6031331"><ele>980.0</ele><time>2026-05-02T14:02:39.51Z</time></trkpt><trkpt lat="45.8501769" lon="11.603082"><ele>980.0</ele><time>2026-05-02T14:02:42.428Z</time></trkpt><trkpt lat="45.8500883" lon="11.6030236"><ele>980.0000000000001</ele><time>2026-05-02T14:02:45.449Z</time></trkpt><trkpt lat="45.8500281" lon="11.6029861"><ele>980.0</ele><time>2026-05-02T14:02:47.421Z</time></trkpt><trkpt lat="45.8499471" lon="11.602925"><ele>980.0</ele><time>2026-05-02T14:02:50.421Z</time></trkpt><trkpt lat="45.8498686" lon="11.6028567"><ele>980.0</ele><time>2026-05-02T14:02:53.422Z</time></trkpt><trkpt lat="45.8497853" lon="11.6027977"><ele>980.0000000000001</ele><time>2026-05-02T14:02:56.422Z</time></trkpt><trkpt lat="45.8497146" lon="11.602742"><ele>980.0</ele><time>2026-05-02T14:02:59.422Z</time></trkpt><trkpt lat="45.849643" lon="11.6026878"><ele>979.6666666666667</ele><time>2026-05-02T14:03:02.421Z</time></trkpt><trkpt lat="45.8495776" lon="11.6026337"><ele>979.3333333333334</ele><time>2026-05-02T14:03:05.422Z</time></trkpt><trkpt lat="45.8495132" lon="11.602583"><ele>979.0</ele><time>2026-05-02T14:03:08.422Z</time></trkpt><trkpt lat="45.8494556" lon="11.6025217"><ele>978.6666666666667</ele><time>2026-05-02T14:03:11.423Z</time></trkpt><trkpt lat="45.8493876" lon="11.6024704"><ele>978.3333333333334</ele><time>2026-05-02T14:03:14.423Z</time></trkpt><trkpt lat="45.8493184" lon="11.6024152"><ele>978.0</ele><time>2026-05-02T14:03:17.423Z</time></trkpt><trkpt lat="45.8492505" lon="11.602336"><ele>978.0</ele><time>2026-05-02T14:03:20.422Z</time></trkpt><trkpt lat="45.849176" lon="11.6022765"><ele>978.0</ele><time>2026-05-02T14:03:23.423Z</time></trkpt><trkpt lat="45.8491066" lon="11.6022047"><ele>978.0</ele><time>2026-05-02T14:03:26.423Z</time></trkpt><trkpt lat="45.8490414" lon="11.6021325"><ele>978.0</ele><time>2026-05-02T14:03:29.423Z</time></trkpt><trkpt lat="45.8489785" lon="11.6020671"><ele>978.0</ele><time>2026-05-02T14:03:32.422Z</time></trkpt><trkpt lat="45.8489147" lon="11.6019999"><ele>978.0</ele><time>2026-05-02T14:03:35.423Z</time></trkpt><trkpt lat="45.848853" lon="11.6019309"><ele>980.8333333333334</ele><time>2026-05-02T14:03:38.423Z</time></trkpt><trkpt lat="45.8487883" lon="11.6018586"><ele>983.6666666666667</ele><time>2026-05-02T14:03:41.423Z</time></trkpt><trkpt lat="45.8487206" lon="11.6017883"><ele>986.5</ele><time>2026-05-02T14:03:44.438Z</time></trkpt><trkpt lat="45.8486592" lon="11.6017132"><ele>989.3333333333334</ele><time>2026-05-02T14:03:47.458Z</time></trkpt><trkpt lat="45.8485952" lon="11.6016432"><ele>992.1666666666667</ele><time>2026-05-02T14:03:50.379Z</time></trkpt><trkpt lat="45.8485334" lon="11.6015747"><ele>995.0</ele><time>2026-05-02T14:03:53.498Z</time></trkpt><trkpt lat="45.8484668" lon="11.601524"><ele>992.4285714285714</ele><time>2026-05-02T14:03:56.517Z</time></trkpt><trkpt lat="45.8483831" lon="11.6014958"><ele>989.8571428571429</ele><time>2026-05-02T14:03:59.437Z</time></trkpt><trkpt lat="45.8483202" lon="11.6014767"><ele>987.2857142857143</ele><time>2026-05-02T14:04:01.45Z</time></trkpt><trkpt lat="45.8482288" lon="11.6014739"><ele>984.7142857142858</ele><time>2026-05-02T14:04:04.469Z</time></trkpt><trkpt lat="45.8481658" lon="11.6014993"><ele>982.1428571428571</ele><time>2026-05-02T14:04:06.482Z</time></trkpt><trkpt lat="45.8480989" lon="11.6015264"><ele>979.5714285714287</ele><time>2026-05-02T14:04:08.497Z</time></trkpt><trkpt lat="45.8480354" lon="11.6015639"><ele>977.0000000000001</ele><time>2026-05-02T14:04:10.509Z</time></trkpt><trkpt lat="45.8479437" lon="11.6016026"><ele>977.0000000000001</ele><time>2026-05-02T14:04:13.429Z</time></trkpt><trkpt lat="45.8478796" lon="11.601619"><ele>977.0</ele><time>2026-05-02T14:04:15.479Z</time></trkpt><trkpt lat="45.8477912" lon="11.6016655"><ele>977.0</ele><time>2026-05-02T14:04:18.462Z</time></trkpt><trkpt lat="45.8477269" lon="11.6017016"><ele>977.0</ele><time>2026-05-02T14:04:21.482Z</time></trkpt><trkpt lat="45.8476374" lon="11.6017305"><ele>977.0000000000001</ele><time>2026-05-02T14:04:25.509Z</time></trkpt><trkpt lat="45.8475666" lon="11.6017459"><ele>977.0</ele><time>2026-05-02T14:04:27.522Z</time></trkpt><trkpt lat="45.8475018" lon="11.6017855"><ele>976.857142857143</ele><time>2026-05-02T14:04:29.424Z</time></trkpt><trkpt lat="45.8474391" lon="11.6018145"><ele>976.7142857142858</ele><time>2026-05-02T14:04:31.424Z</time></trkpt><trkpt lat="45.8473633" lon="11.601829"><ele>976.5714285714286</ele><time>2026-05-02T14:04:33.423Z</time></trkpt><trkpt lat="45.8472886" lon="11.6018545"><ele>976.4285714285714</ele><time>2026-05-02T14:04:35.424Z</time></trkpt><trkpt lat="45.8472196" lon="11.6018837"><ele>976.2857142857142</ele><time>2026-05-02T14:04:37.424Z</time></trkpt><trkpt lat="45.8471461" lon="11.6019103"><ele>976.142857142857</ele><time>2026-05-02T14:04:39.424Z</time></trkpt><trkpt lat="45.8470747" lon="11.6019313"><ele>975.9999999999999</ele><time>2026-05-02T14:04:41.424Z</time></trkpt><trkpt lat="45.8470052" lon="11.6019501"><ele>975.9999999999999</ele><time>2026-05-02T14:04:43.424Z</time></trkpt><trkpt lat="45.8469413" lon="11.6019685"><ele>976.0</ele><time>2026-05-02T14:04:45.424Z</time></trkpt><trkpt lat="45.8468588" lon="11.6020005"><ele>976.0</ele><time>2026-05-02T14:04:48.424Z</time></trkpt><trkpt lat="45.8467953" lon="11.6019983"><ele>976.0</ele><time>2026-05-02T14:04:50.424Z</time></trkpt><trkpt lat="45.8467052" lon="11.6020077"><ele>975.9999999999999</ele><time>2026-05-02T14:04:53.423Z</time></trkpt><trkpt lat="45.8466228" lon="11.6019993"><ele>976.0</ele><time>2026-05-02T14:04:56.423Z</time></trkpt><trkpt lat="45.8465393" lon="11.6019673"><ele>976.9999999999999</ele><time>2026-05-02T14:04:59.423Z</time></trkpt><trkpt lat="45.8464781" lon="11.6019446"><ele>978.0</ele><time>2026-05-02T14:05:01.424Z</time></trkpt><trkpt lat="45.8463934" lon="11.6018966"><ele>979.0</ele><time>2026-05-02T14:05:04.424Z</time></trkpt><trkpt lat="45.8463087" lon="11.6018616"><ele>980.0</ele><time>2026-05-02T14:05:07.424Z</time></trkpt><trkpt lat="45.8462369" lon="11.6018176"><ele>980.9999999999999</ele><time>2026-05-02T14:05:10.424Z</time></trkpt><trkpt lat="45.8461801" lon="11.6017702"><ele>982.0</ele><time>2026-05-02T14:05:12.424Z</time></trkpt><trkpt lat="45.8461041" lon="11.6017081"><ele>981.9999999999999</ele><time>2026-05-02T14:05:15.423Z</time></trkpt><trkpt lat="45.8460176" lon="11.6016836"><ele>982.0</ele><time>2026-05-02T14:05:18.424Z</time></trkpt><trkpt lat="45.8459381" lon="11.6016491"><ele>982.0</ele><time>2026-05-02T14:05:21.424Z</time></trkpt><trkpt lat="45.845867" lon="11.6015735"><ele>982.0</ele><time>2026-05-02T14:05:24.425Z</time></trkpt><trkpt lat="45.8458145" lon="11.60152"><ele>981.9999999999999</ele><time>2026-05-02T14:05:26.425Z</time></trkpt><trkpt lat="45.8457677" lon="11.6014476"><ele>982.0</ele><time>2026-05-02T14:05:28.425Z</time></trkpt><trkpt lat="45.8457032" lon="11.6013506"><ele>982.0</ele><time>2026-05-02T14:05:31.425Z</time></trkpt><trkpt lat="45.8456425" lon="11.6012633"><ele>981.9999999999999</ele><time>2026-05-02T14:05:34.425Z</time></trkpt><trkpt lat="45.8455959" lon="11.6011949"><ele>982.0</ele><time>2026-05-02T14:05:36.425Z</time></trkpt><trkpt lat="45.8455435" lon="11.6011303"><ele>982.0</ele><time>2026-05-02T14:05:38.425Z</time></trkpt><trkpt lat="45.8454846" lon="11.6010721"><ele>981.9999999999999</ele><time>2026-05-02T14:05:40.425Z</time></trkpt><trkpt lat="45.8454355" lon="11.6009934"><ele>982.0</ele><time>2026-05-02T14:05:42.424Z</time></trkpt><trkpt lat="45.8453753" lon="11.6009309"><ele>982.0</ele><time>2026-05-02T14:05:44.425Z</time></trkpt><trkpt lat="45.8453139" lon="11.6008676"><ele>981.8571428571428</ele><time>2026-05-02T14:05:46.425Z</time></trkpt><trkpt lat="45.8452603" lon="11.6007915"><ele>981.7142857142856</ele><time>2026-05-02T14:05:48.456Z</time></trkpt><trkpt lat="45.8452111" lon="11.6007151"><ele>981.5714285714286</ele><time>2026-05-02T14:05:50.468Z</time></trkpt><trkpt lat="45.8451656" lon="11.6006366"><ele>981.4285714285713</ele><time>2026-05-02T14:05:52.481Z</time></trkpt><trkpt lat="45.8451211" lon="11.6005635"><ele>981.2857142857142</ele><time>2026-05-02T14:05:54.397Z</time></trkpt><trkpt lat="45.8450808" lon="11.6004839"><ele>981.1428571428571</ele><time>2026-05-02T14:05:56.508Z</time></trkpt><trkpt lat="45.8450369" lon="11.6004151"><ele>981.0</ele><time>2026-05-02T14:05:58.425Z</time></trkpt><trkpt lat="45.8449883" lon="11.6003358"><ele>980.4285714285714</ele><time>2026-05-02T14:06:00.435Z</time></trkpt><trkpt lat="45.8449455" lon="11.6002541"><ele>979.8571428571429</ele><time>2026-05-02T14:06:02.448Z</time></trkpt><trkpt lat="45.8449051" lon="11.6001719"><ele>979.2857142857143</ele><time>2026-05-02T14:06:04.438Z</time></trkpt><trkpt lat="45.8448655" lon="11.6000982"><ele>978.7142857142858</ele><time>2026-05-02T14:06:06.475Z</time></trkpt><trkpt lat="45.8448053" lon="11.5999961"><ele>978.1428571428571</ele><time>2026-05-02T14:06:09.493Z</time></trkpt><trkpt lat="45.8447619" lon="11.5999213"><ele>977.5714285714287</ele><time>2026-05-02T14:06:11.442Z</time></trkpt><trkpt lat="45.8447183" lon="11.599835"><ele>977.0000000000001</ele><time>2026-05-02T14:06:13.443Z</time></trkpt><trkpt lat="45.8446691" lon="11.5997496"><ele>977.0000000000001</ele><time>2026-05-02T14:06:15.434Z</time></trkpt><trkpt lat="45.8446185" lon="11.5996619"><ele>977.0</ele><time>2026-05-02T14:06:17.447Z</time></trkpt><trkpt lat="45.8445733" lon="11.5995814"><ele>977.0000000000001</ele><time>2026-05-02T14:06:19.46Z</time></trkpt><trkpt lat="45.8445309" lon="11.5995037"><ele>977.0000000000001</ele><time>2026-05-02T14:06:21.473Z</time></trkpt><trkpt lat="45.8444973" lon="11.599417"><ele>977.0</ele><time>2026-05-02T14:06:23.487Z</time></trkpt><trkpt lat="45.8444739" lon="11.5993258"><ele>977.0000000000001</ele><time>2026-05-02T14:06:25.499Z</time></trkpt><trkpt lat="45.8444514" lon="11.5992389"><ele>977.0000000000001</ele><time>2026-05-02T14:06:27.513Z</time></trkpt><trkpt lat="45.8444346" lon="11.5991135"><ele>979.3333333333334</ele><time>2026-05-02T14:06:30.433Z</time></trkpt><trkpt lat="45.8444194" lon="11.5989858"><ele>981.6666666666667</ele><time>2026-05-02T14:06:33.451Z</time></trkpt><trkpt lat="45.8444012" lon="11.5988794"><ele>984.0</ele><time>2026-05-02T14:06:36.472Z</time></trkpt><trkpt lat="45.8443837" lon="11.5987589"><ele>986.3333333333333</ele><time>2026-05-02T14:06:40.498Z</time></trkpt><trkpt lat="45.8443715" lon="11.5986537"><ele>988.6666666666666</ele><time>2026-05-02T14:06:43.479Z</time></trkpt><trkpt lat="45.844351" lon="11.598555"><ele>991.0</ele><time>2026-05-02T14:06:45.426Z</time></trkpt><trkpt lat="45.8443199" lon="11.5984572"><ele>990.8333333333333</ele><time>2026-05-02T14:06:48.425Z</time></trkpt><trkpt lat="45.8442931" lon="11.5983476"><ele>990.6666666666666</ele><time>2026-05-02T14:06:51.425Z</time></trkpt><trkpt lat="45.8442606" lon="11.5982243"><ele>990.5</ele><time>2026-05-02T14:06:54.426Z</time></trkpt><trkpt lat="45.8442336" lon="11.5981157"><ele>990.3333333333333</ele><time>2026-05-02T14:06:57.426Z</time></trkpt><trkpt lat="45.8442095" lon="11.5980025"><ele>990.1666666666666</ele><time>2026-05-02T14:07:00.425Z</time></trkpt><trkpt lat="45.8441979" lon="11.5978789"><ele>990.0</ele><time>2026-05-02T14:07:03.426Z</time></trkpt><trkpt lat="45.8441895" lon="11.5977752"><ele>989.9999999999999</ele><time>2026-05-02T14:07:06.426Z</time></trkpt><trkpt lat="45.8441743" lon="11.5976708"><ele>990.0</ele><time>2026-05-02T14:07:09.426Z</time></trkpt><trkpt lat="45.8441491" lon="11.5975734"><ele>989.9999999999999</ele><time>2026-05-02T14:07:12.426Z</time></trkpt><trkpt lat="45.8441385" lon="11.5974638"><ele>989.9999999999999</ele><time>2026-05-02T14:07:15.426Z</time></trkpt><trkpt lat="45.8441184" lon="11.5973759"><ele>990.0</ele><time>2026-05-02T14:07:18.426Z</time></trkpt><trkpt lat="45.8440964" lon="11.597262"><ele>989.9999999999999</ele><time>2026-05-02T14:07:21.426Z</time></trkpt><trkpt lat="45.8440747" lon="11.597162"><ele>989.9999999999999</ele><time>2026-05-02T14:07:24.426Z</time></trkpt><trkpt lat="45.8440555" lon="11.5970526"><ele>989.5</ele><time>2026-05-02T14:07:27.425Z</time></trkpt><trkpt lat="45.8440237" lon="11.5969456"><ele>989.0</ele><time>2026-05-02T14:07:30.425Z</time></trkpt><trkpt lat="45.8439999" lon="11.5968397"><ele>988.5</ele><time>2026-05-02T14:07:33.427Z</time></trkpt><trkpt lat="45.84397" lon="11.596734"><ele>988.0</ele><time>2026-05-02T14:07:36.427Z</time></trkpt><trkpt lat="45.8439378" lon="11.5966398"><ele>987.5</ele><time>2026-05-02T14:07:39.427Z</time></trkpt><trkpt lat="45.8439088" lon="11.5965469"><ele>987.0</ele><time>2026-05-02T14:07:42.427Z</time></trkpt><trkpt lat="45.843872" lon="11.5964545"><ele>987.0</ele><time>2026-05-02T14:07:46.427Z</time></trkpt><trkpt lat="45.8438311" lon="11.5963524"><ele>987.0</ele><time>2026-05-02T14:07:50.426Z</time></trkpt><trkpt lat="45.8437903" lon="11.5962466"><ele>987.0</ele><time>2026-05-02T14:07:54.427Z</time></trkpt><trkpt lat="45.8437581" lon="11.5961597"><ele>987.0</ele><time>2026-05-02T14:07:57.427Z</time></trkpt><trkpt lat="45.8437215" lon="11.5960622"><ele>987.0</ele><time>2026-05-02T14:08:01.427Z</time></trkpt><trkpt lat="45.843696" lon="11.5959781"><ele>987.0</ele><time>2026-05-02T14:08:04.427Z</time></trkpt><trkpt lat="45.8436582" lon="11.5958917"><ele>987.0</ele><time>2026-05-02T14:08:08.427Z</time></trkpt><trkpt lat="45.8436226" lon="11.5957999"><ele>990.1666666666666</ele><time>2026-05-02T14:08:12.426Z</time></trkpt><trkpt lat="45.8435964" lon="11.5956998"><ele>993.3333333333333</ele><time>2026-05-02T14:08:16.427Z</time></trkpt><trkpt lat="45.8435676" lon="11.5955975"><ele>996.5</ele><time>2026-05-02T14:08:20.427Z</time></trkpt><trkpt lat="45.8435455" lon="11.59549"><ele>999.6666666666666</ele><time>2026-05-02T14:08:24.427Z</time></trkpt><trkpt lat="45.8435179" lon="11.5953852"><ele>1002.8333333333333</ele><time>2026-05-02T14:08:28.426Z</time></trkpt><trkpt lat="45.8434962" lon="11.5952829"><ele>1006.0</ele><time>2026-05-02T14:08:32.426Z</time></trkpt><trkpt lat="45.8434712" lon="11.5951909"><ele>1006.1428571428572</ele><time>2026-05-02T14:08:36.427Z</time></trkpt><trkpt lat="45.8434393" lon="11.5950954"><ele>1006.2857142857144</ele><time>2026-05-02T14:08:40.428Z</time></trkpt><trkpt lat="45.8433951" lon="11.5950057"><ele>1006.4285714285714</ele><time>2026-05-02T14:08:44.428Z</time></trkpt><trkpt lat="45.84335" lon="11.5949142"><ele>1006.5714285714287</ele><time>2026-05-02T14:08:49.428Z</time></trkpt><trkpt lat="45.8433062" lon="11.5948374"><ele>1006.7142857142858</ele><time>2026-05-02T14:08:53.427Z</time></trkpt><trkpt lat="45.8432628" lon="11.5947562"><ele>1006.8571428571429</ele><time>2026-05-02T14:08:57.427Z</time></trkpt><trkpt lat="45.843212" lon="11.5946987"><ele>1007.0</ele><time>2026-05-02T14:09:01.428Z</time></trkpt><trkpt lat="45.8431813" lon="11.5946144"><ele>1007.0</ele><time>2026-05-02T14:09:05.428Z</time></trkpt><trkpt lat="45.8431159" lon="11.5945523"><ele>1007.0</ele><time>2026-05-02T14:09:10.427Z</time></trkpt><trkpt lat="45.8430528" lon="11.5944929"><ele>1007.0</ele><time>2026-05-02T14:09:14.428Z</time></trkpt><trkpt lat="45.8429999" lon="11.5944267"><ele>1007.0</ele><time>2026-05-02T14:09:18.428Z</time></trkpt><trkpt lat="45.8429364" lon="11.5943674"><ele>1007.0</ele><time>2026-05-02T14:09:22.428Z</time></trkpt><trkpt lat="45.8428791" lon="11.5943151"><ele>1007.0</ele><time>2026-05-02T14:09:26.428Z</time></trkpt><trkpt lat="45.8428254" lon="11.5942414"><ele>1007.0</ele><time>2026-05-02T14:09:30.428Z</time></trkpt><trkpt lat="45.8427714" lon="11.5941692"><ele>1007.8571428571429</ele><time>2026-05-02T14:09:34.428Z</time></trkpt><trkpt lat="45.8427146" lon="11.5940833"><ele>1008.7142857142858</ele><time>2026-05-02T14:09:38.427Z</time></trkpt><trkpt lat="45.8426778" lon="11.5940059"><ele>1009.5714285714287</ele><time>2026-05-02T14:09:41.428Z</time></trkpt><trkpt lat="45.8426297" lon="11.5939379"><ele>1010.4285714285714</ele><time>2026-05-02T14:09:44.429Z</time></trkpt><trkpt lat="45.8425748" lon="11.5938728"><ele>1011.2857142857144</ele><time>2026-05-02T14:09:47.429Z</time></trkpt><trkpt lat="45.8425149" lon="11.5937979"><ele>1012.1428571428572</ele><time>2026-05-02T14:09:50.453Z</time></trkpt><trkpt lat="45.8424696" lon="11.5937286"><ele>1013.0</ele><time>2026-05-02T14:09:53.499Z</time></trkpt><trkpt lat="45.8424117" lon="11.593654"><ele>1013.8333333333334</ele><time>2026-05-02T14:09:57.499Z</time></trkpt><trkpt lat="45.842337" lon="11.5936"><ele>1014.6666666666667</ele><time>2026-05-02T14:10:01.526Z</time></trkpt><trkpt lat="45.8422633" lon="11.5935489"><ele>1015.5</ele><time>2026-05-02T14:10:05.452Z</time></trkpt><trkpt lat="45.8421958" lon="11.5934929"><ele>1016.3333333333333</ele><time>2026-05-02T14:10:09.429Z</time></trkpt><trkpt lat="45.8421435" lon="11.5934424"><ele>1017.1666666666666</ele><time>2026-05-02T14:10:12.429Z</time></trkpt><trkpt lat="45.8420782" lon="11.5933871"><ele>1018.0</ele><time>2026-05-02T14:10:16.429Z</time></trkpt><trkpt lat="45.8420246" lon="11.5933262"><ele>1017.9999999999999</ele><time>2026-05-02T14:10:20.45Z</time></trkpt><trkpt lat="45.8419747" lon="11.5932703"><ele>1018.0</ele><time>2026-05-02T14:10:23.47Z</time></trkpt><trkpt lat="45.8419199" lon="11.5932103"><ele>1017.9999999999999</ele><time>2026-05-02T14:10:26.49Z</time></trkpt><trkpt lat="45.8418781" lon="11.5931415"><ele>1017.9999999999999</ele><time>2026-05-02T14:10:29.51Z</time></trkpt><trkpt lat="45.8418272" lon="11.5930616"><ele>1018.0</ele><time>2026-05-02T14:10:33.435Z</time></trkpt><trkpt lat="45.8417702" lon="11.592984"><ele>1017.9999999999999</ele><time>2026-05-02T14:10:37.429Z</time></trkpt><trkpt lat="45.8417182" lon="11.5929034"><ele>1017.9999999999999</ele><time>2026-05-02T14:10:41.429Z</time></trkpt><trkpt lat="45.8416755" lon="11.5928147"><ele>1017.3333333333333</ele><time>2026-05-02T14:10:45.429Z</time></trkpt><trkpt lat="45.8416176" lon="11.5927324"><ele>1016.6666666666666</ele><time>2026-05-02T14:10:49.429Z</time></trkpt><trkpt lat="45.8415577" lon="11.5926557"><ele>1016.0</ele><time>2026-05-02T14:10:53.43Z</time></trkpt><trkpt lat="45.8415118" lon="11.5925877"><ele>1015.3333333333333</ele><time>2026-05-02T14:10:56.43Z</time></trkpt><trkpt lat="45.8414626" lon="11.592527"><ele>1014.6666666666666</ele><time>2026-05-02T14:10:59.43Z</time></trkpt><trkpt lat="45.8413913" lon="11.5924716"><ele>1014.0</ele><time>2026-05-02T14:11:03.429Z</time></trkpt><trkpt lat="45.8413157" lon="11.5924285"><ele>1014.0</ele><time>2026-05-02T14:11:07.43Z</time></trkpt><trkpt lat="45.8412583" lon="11.5923869"><ele>1014.0</ele><time>2026-05-02T14:11:10.43Z</time></trkpt><trkpt lat="45.8411846" lon="11.5923394"><ele>1014.0</ele><time>2026-05-02T14:11:14.43Z</time></trkpt><trkpt lat="45.8411125" lon="11.5922968"><ele>1014.0</ele><time>2026-05-02T14:11:17.43Z</time></trkpt><trkpt lat="45.841035" lon="11.5922506"><ele>1014.0</ele><time>2026-05-02T14:11:20.43Z</time></trkpt><trkpt lat="45.8409534" lon="11.5922112"><ele>1014.0</ele><time>2026-05-02T14:11:24.43Z</time></trkpt><trkpt lat="45.8408844" lon="11.5921845"><ele>1013.0</ele><time>2026-05-02T14:11:27.43Z</time></trkpt><trkpt lat="45.8408174" lon="11.592157"><ele>1012.0</ele><time>2026-05-02T14:11:30.43Z</time></trkpt><trkpt lat="45.8407439" lon="11.5921341"><ele>1011.0</ele><time>2026-05-02T14:11:33.43Z</time></trkpt><trkpt lat="45.8406682" lon="11.592118"><ele>1010.0</ele><time>2026-05-02T14:11:36.43Z</time></trkpt><trkpt lat="45.8405923" lon="11.5921152"><ele>1009.0</ele><time>2026-05-02T14:11:40.429Z</time></trkpt><trkpt lat="45.8405134" lon="11.5921129"><ele>1008.0</ele><time>2026-05-02T14:11:43.43Z</time></trkpt><trkpt lat="45.8404282" lon="11.5920873"><ele>1008.0</ele><time>2026-05-02T14:11:46.43Z</time></trkpt><trkpt lat="45.8403373" lon="11.5920913"><ele>1008.0</ele><time>2026-05-02T14:11:49.43Z</time></trkpt><trkpt lat="45.8402446" lon="11.5920937"><ele>1008.0</ele><time>2026-05-02T14:11:52.429Z</time></trkpt><trkpt lat="45.8401575" lon="11.5920909"><ele>1008.0</ele><time>2026-05-02T14:11:55.43Z</time></trkpt><trkpt lat="45.8400934" lon="11.5920821"><ele>1008.0</ele><time>2026-05-02T14:11:57.431Z</time></trkpt><trkpt lat="45.8400281" lon="11.5920729"><ele>1008.0</ele><time>2026-05-02T14:11:59.431Z</time></trkpt><trkpt lat="45.8399611" lon="11.5920476"><ele>1009.1428571428571</ele><time>2026-05-02T14:12:01.43Z</time></trkpt><trkpt lat="45.8398955" lon="11.5920145"><ele>1010.2857142857142</ele><time>2026-05-02T14:12:03.43Z</time></trkpt><trkpt lat="45.8398229" lon="11.5919863"><ele>1011.4285714285714</ele><time>2026-05-02T14:12:05.431Z</time></trkpt><trkpt lat="45.8397561" lon="11.5919457"><ele>1012.5714285714286</ele><time>2026-05-02T14:12:07.43Z</time></trkpt><trkpt lat="45.8396931" lon="11.5918974"><ele>1013.7142857142857</ele><time>2026-05-02T14:12:09.431Z</time></trkpt><trkpt lat="45.8396232" lon="11.5918507"><ele>1014.8571428571429</ele><time>2026-05-02T14:12:11.43Z</time></trkpt><trkpt lat="45.8395676" lon="11.5917982"><ele>1016.0</ele><time>2026-05-02T14:12:13.43Z</time></trkpt><trkpt lat="45.8395081" lon="11.5917429"><ele>1016.2857142857143</ele><time>2026-05-02T14:12:15.431Z</time></trkpt><trkpt lat="45.8394457" lon="11.591695"><ele>1016.5714285714284</ele><time>2026-05-02T14:12:17.431Z</time></trkpt><trkpt lat="45.8393905" lon="11.5916355"><ele>1016.8571428571428</ele><time>2026-05-02T14:12:19.43Z</time></trkpt><trkpt lat="45.8393368" lon="11.5915723"><ele>1017.1428571428571</ele><time>2026-05-02T14:12:21.431Z</time></trkpt><trkpt lat="45.8392832" lon="11.5915102"><ele>1017.4285714285713</ele><time>2026-05-02T14:12:23.431Z</time></trkpt><trkpt lat="45.8392383" lon="11.5914416"><ele>1017.7142857142856</ele><time>2026-05-02T14:12:25.43Z</time></trkpt><trkpt lat="45.8391935" lon="11.591374"><ele>1017.9999999999999</ele><time>2026-05-02T14:12:27.43Z</time></trkpt><trkpt lat="45.8391396" lon="11.5913177"><ele>1018.142857142857</ele><time>2026-05-02T14:12:29.431Z</time></trkpt><trkpt lat="45.8390879" lon="11.5912564"><ele>1018.2857142857142</ele><time>2026-05-02T14:12:31.431Z</time></trkpt><trkpt lat="45.8390342" lon="11.5911977"><ele>1018.4285714285714</ele><time>2026-05-02T14:12:33.43Z</time></trkpt><trkpt lat="45.8389809" lon="11.5911367"><ele>1018.5714285714286</ele><time>2026-05-02T14:12:35.431Z</time></trkpt><trkpt lat="45.8389327" lon="11.5910731"><ele>1018.7142857142858</ele><time>2026-05-02T14:12:37.431Z</time></trkpt><trkpt lat="45.8388857" lon="11.5910106"><ele>1018.857142857143</ele><time>2026-05-02T14:12:39.431Z</time></trkpt><trkpt lat="45.8388365" lon="11.5909413"><ele>1019.0000000000001</ele><time>2026-05-02T14:12:41.431Z</time></trkpt><trkpt lat="45.8387907" lon="11.5908652"><ele>1019.0000000000001</ele><time>2026-05-02T14:12:43.431Z</time></trkpt><trkpt lat="45.8387456" lon="11.5907972"><ele>1019.0</ele><time>2026-05-02T14:12:45.431Z</time></trkpt><trkpt lat="45.8387016" lon="11.5907061"><ele>1019.0</ele><time>2026-05-02T14:12:48.431Z</time></trkpt><trkpt lat="45.8386524" lon="11.5906216"><ele>1019.0</ele><time>2026-05-02T14:12:51.431Z</time></trkpt><trkpt lat="45.838605" lon="11.5905269"><ele>1019.0000000000001</ele><time>2026-05-02T14:12:54.431Z</time></trkpt><trkpt lat="45.8385533" lon="11.590439"><ele>1019.0</ele><time>2026-05-02T14:12:57.431Z</time></trkpt><trkpt lat="45.838507" lon="11.5903342"><ele>1017.5000000000001</ele><time>2026-05-02T14:13:00.43Z</time></trkpt><trkpt lat="45.8384569" lon="11.5902337"><ele>1016.0</ele><time>2026-05-02T14:13:03.431Z</time></trkpt><trkpt lat="45.8384058" lon="11.5901288"><ele>1014.5</ele><time>2026-05-02T14:13:06.432Z</time></trkpt><trkpt lat="45.8383617" lon="11.5900613"><ele>1013.0</ele><time>2026-05-02T14:13:08.432Z</time></trkpt><trkpt lat="45.8383222" lon="11.5899861"><ele>1011.5000000000001</ele><time>2026-05-02T14:13:10.432Z</time></trkpt><trkpt lat="45.838277" lon="11.5898829"><ele>1010.0</ele><time>2026-05-02T14:13:13.432Z</time></trkpt><trkpt lat="45.8382243" lon="11.589764"><ele>1010.0000000000001</ele><time>2026-05-02T14:13:16.432Z</time></trkpt><trkpt lat="45.8381722" lon="11.5896674"><ele>1010.0</ele><time>2026-05-02T14:13:18.432Z</time></trkpt><trkpt lat="45.8381316" lon="11.5895878"><ele>1010.0</ele><time>2026-05-02T14:13:20.432Z</time></trkpt><trkpt lat="45.8380849" lon="11.5894877"><ele>1010.0</ele><time>2026-05-02T14:13:23.432Z</time></trkpt><trkpt lat="45.8380425" lon="11.5893975"><ele>1010.0000000000001</ele><time>2026-05-02T14:13:25.431Z</time></trkpt><trkpt lat="45.838005" lon="11.5893142"><ele>1010.0</ele><time>2026-05-02T14:13:27.432Z</time></trkpt><trkpt lat="45.8379625" lon="11.5892199"><ele>1012.0000000000001</ele><time>2026-05-02T14:13:30.431Z</time></trkpt><trkpt lat="45.8379167" lon="11.5891388"><ele>1014.0</ele><time>2026-05-02T14:13:33.432Z</time></trkpt><trkpt lat="45.8378772" lon="11.5890637"><ele>1016.0</ele><time>2026-05-02T14:13:35.432Z</time></trkpt><trkpt lat="45.8378282" lon="11.588953"><ele>1018.0</ele><time>2026-05-02T14:13:38.432Z</time></trkpt><trkpt lat="45.8377787" lon="11.5888472"><ele>1020.0000000000001</ele><time>2026-05-02T14:13:41.432Z</time></trkpt><trkpt lat="45.8377242" lon="11.5887465"><ele>1022.0</ele><time>2026-05-02T14:13:44.431Z</time></trkpt><trkpt lat="45.8376734" lon="11.5886375"><ele>1023.5000000000001</ele><time>2026-05-02T14:13:47.432Z</time></trkpt><trkpt lat="45.8376365" lon="11.5885634"><ele>1025.0</ele><time>2026-05-02T14:13:49.432Z</time></trkpt><trkpt lat="45.8375956" lon="11.588493"><ele>1026.5</ele><time>2026-05-02T14:13:51.432Z</time></trkpt><trkpt lat="45.8375386" lon="11.5883918"><ele>1028.0</ele><time>2026-05-02T14:13:54.432Z</time></trkpt><trkpt lat="45.837495" lon="11.5882863"><ele>1029.5</ele><time>2026-05-02T14:13:57.431Z</time></trkpt><trkpt lat="45.8374564" lon="11.5881989"><ele>1031.0</ele><time>2026-05-02T14:14:00.431Z</time></trkpt><trkpt lat="45.8374085" lon="11.5881125"><ele>1028.3333333333335</ele><time>2026-05-02T14:14:03.432Z</time></trkpt><trkpt lat="45.8373622" lon="11.5880211"><ele>1025.6666666666667</ele><time>2026-05-02T14:14:06.432Z</time></trkpt><trkpt lat="45.8373114" lon="11.5879363"><ele>1023.0</ele><time>2026-05-02T14:14:09.433Z</time></trkpt><trkpt lat="45.8372616" lon="11.5878334"><ele>1020.3333333333333</ele><time>2026-05-02T14:14:12.433Z</time></trkpt><trkpt lat="45.8372111" lon="11.5877378"><ele>1017.6666666666666</ele><time>2026-05-02T14:14:15.432Z</time></trkpt><trkpt lat="45.8371693" lon="11.587625"><ele>1015.0</ele><time>2026-05-02T14:14:18.433Z</time></trkpt><trkpt lat="45.8371118" lon="11.5875224"><ele>1015.0</ele><time>2026-05-02T14:14:21.433Z</time></trkpt><trkpt lat="45.8370588" lon="11.5874138"><ele>1015.0</ele><time>2026-05-02T14:14:24.433Z</time></trkpt><trkpt lat="45.8370278" lon="11.5873312"><ele>1015.0</ele><time>2026-05-02T14:14:26.433Z</time></trkpt><trkpt lat="45.8369907" lon="11.5872545"><ele>1015.0</ele><time>2026-05-02T14:14:28.432Z</time></trkpt><trkpt lat="45.8369539" lon="11.5871791"><ele>1015.0</ele><time>2026-05-02T14:14:30.433Z</time></trkpt><trkpt lat="45.8369136" lon="11.5870982"><ele>1015.0</ele><time>2026-05-02T14:14:32.433Z</time></trkpt><trkpt lat="45.8368732" lon="11.5870245"><ele>1015.0</ele><time>2026-05-02T14:14:34.433Z</time></trkpt><trkpt lat="45.8368395" lon="11.5869469"><ele>1015.6666666666666</ele><time>2026-05-02T14:14:36.433Z</time></trkpt><trkpt lat="45.8367994" lon="11.5868723"><ele>1016.3333333333333</ele><time>2026-05-02T14:14:38.432Z</time></trkpt><trkpt lat="45.8367448" lon="11.5867685"><ele>1017.0</ele><time>2026-05-02T14:14:41.433Z</time></trkpt><trkpt lat="45.8366871" lon="11.5866693"><ele>1017.6666666666667</ele><time>2026-05-02T14:14:44.433Z</time></trkpt><trkpt lat="45.836623" lon="11.586575"><ele>1018.3333333333334</ele><time>2026-05-02T14:14:47.433Z</time></trkpt><trkpt lat="45.8365578" lon="11.5864979"><ele>1019.0</ele><time>2026-05-02T14:14:50.432Z</time></trkpt><trkpt lat="45.836489" lon="11.5864204"><ele>1019.0000000000001</ele><time>2026-05-02T14:14:53.433Z</time></trkpt><trkpt lat="45.8364218" lon="11.5863504"><ele>1019.0</ele><time>2026-05-02T14:14:56.433Z</time></trkpt><trkpt lat="45.8363524" lon="11.5862958"><ele>1019.0000000000001</ele><time>2026-05-02T14:14:59.432Z</time></trkpt><trkpt lat="45.8362961" lon="11.5862425"><ele>1019.0000000000001</ele><time>2026-05-02T14:15:02.433Z</time></trkpt><trkpt lat="45.8362368" lon="11.5861898"><ele>1019.0</ele><time>2026-05-02T14:15:05.432Z</time></trkpt><trkpt lat="45.8361739" lon="11.5861404"><ele>1019.0000000000001</ele><time>2026-05-02T14:15:08.433Z</time></trkpt><trkpt lat="45.8361193" lon="11.5860813"><ele>1019.0000000000001</ele><time>2026-05-02T14:15:11.432Z</time></trkpt><trkpt lat="45.8360529" lon="11.5860135"><ele>1020.6666666666667</ele><time>2026-05-02T14:15:15.433Z</time></trkpt><trkpt lat="45.8359945" lon="11.5859403"><ele>1022.3333333333334</ele><time>2026-05-02T14:15:19.434Z</time></trkpt><trkpt lat="45.8359353" lon="11.5858975"><ele>1024.0</ele><time>2026-05-02T14:15:22.434Z</time></trkpt><trkpt lat="45.8358677" lon="11.5858454"><ele>1025.6666666666667</ele><time>2026-05-02T14:15:26.434Z</time></trkpt><trkpt lat="45.8358054" lon="11.5857895"><ele>1027.3333333333333</ele><time>2026-05-02T14:15:30.434Z</time></trkpt><trkpt lat="45.8357322" lon="11.5857443"><ele>1029.0</ele><time>2026-05-02T14:15:34.434Z</time></trkpt><trkpt lat="45.8356605" lon="11.585688"><ele>1029.0</ele><time>2026-05-02T14:15:38.434Z</time></trkpt><trkpt lat="45.8355879" lon="11.5856308"><ele>1029.0</ele><time>2026-05-02T14:15:42.434Z</time></trkpt><trkpt lat="45.8355396" lon="11.5855696"><ele>1029.0</ele><time>2026-05-02T14:15:46.434Z</time></trkpt><trkpt lat="45.8354844" lon="11.5855178"><ele>1029.0</ele><time>2026-05-02T14:15:50.433Z</time></trkpt><trkpt lat="45.8354227" lon="11.585464"><ele>1029.0</ele><time>2026-05-02T14:15:54.434Z</time></trkpt><trkpt lat="45.835363" lon="11.5854055"><ele>1029.0</ele><time>2026-05-02T14:15:58.434Z</time></trkpt><trkpt lat="45.8353057" lon="11.5853359"><ele>1029.0</ele><time>2026-05-02T14:16:02.434Z</time></trkpt><trkpt lat="45.8352468" lon="11.5852856"><ele>1029.5714285714287</ele><time>2026-05-02T14:16:06.434Z</time></trkpt><trkpt lat="45.8351947" lon="11.5852296"><ele>1030.142857142857</ele><time>2026-05-02T14:16:10.434Z</time></trkpt><trkpt lat="45.8351424" lon="11.5851498"><ele>1030.7142857142858</ele><time>2026-05-02T14:16:14.434Z</time></trkpt><trkpt lat="45.8350839" lon="11.5850733"><ele>1031.2857142857142</ele><time>2026-05-02T14:16:18.434Z</time></trkpt><trkpt lat="45.8350289" lon="11.5849955"><ele>1031.857142857143</ele><time>2026-05-02T14:16:22.435Z</time></trkpt><trkpt lat="45.8349685" lon="11.5849386"><ele>1032.4285714285716</ele><time>2026-05-02T14:16:59.434Z</time></trkpt><trkpt lat="45.8349118" lon="11.5850162"><ele>1033.0</ele><time>2026-05-02T14:17:08.435Z</time></trkpt><trkpt lat="45.834934" lon="11.5851481"><ele>1033.0000000000002</ele><time>2026-05-02T14:17:11.435Z</time></trkpt><trkpt lat="45.8349726" lon="11.5852298"><ele>1033.0</ele><time>2026-05-02T14:17:13.434Z</time></trkpt><trkpt lat="45.8350123" lon="11.5853168"><ele>1033.0</ele><time>2026-05-02T14:17:15.434Z</time></trkpt><trkpt lat="45.8350552" lon="11.5854066"><ele>1033.0</ele><time>2026-05-02T14:17:17.435Z</time></trkpt><trkpt lat="45.835098" lon="11.585495"><ele>1033.0</ele><time>2026-05-02T14:17:19.435Z</time></trkpt><trkpt lat="45.8351459" lon="11.5855801"><ele>1033.0000000000002</ele><time>2026-05-02T14:17:21.435Z</time></trkpt><trkpt lat="45.8351934" lon="11.5856646"><ele>1033.0</ele><time>2026-05-02T14:17:23.435Z</time></trkpt><trkpt lat="45.8352399" lon="11.5857546"><ele>1032.4285714285716</ele><time>2026-05-02T14:17:25.442Z</time></trkpt><trkpt lat="45.8352858" lon="11.5858283"><ele>1031.857142857143</ele><time>2026-05-02T14:17:27.457Z</time></trkpt><trkpt lat="45.8353342" lon="11.5858923"><ele>1031.2857142857142</ele><time>2026-05-02T14:17:29.469Z</time></trkpt><trkpt lat="45.8353801" lon="11.5859542"><ele>1030.7142857142858</ele><time>2026-05-02T14:17:31.483Z</time></trkpt><trkpt lat="45.8354445" lon="11.5860319"><ele>1030.142857142857</ele><time>2026-05-02T14:17:34.503Z</time></trkpt><trkpt lat="45.8355051" lon="11.5860992"><ele>1029.5714285714287</ele><time>2026-05-02T14:17:37.522Z</time></trkpt><trkpt lat="45.8355665" lon="11.5861697"><ele>1029.0</ele><time>2026-05-02T14:17:41.449Z</time></trkpt><trkpt lat="45.8356164" lon="11.5862294"><ele>1030.7142857142858</ele><time>2026-05-02T14:17:44.468Z</time></trkpt><trkpt lat="45.8356677" lon="11.586313"><ele>1032.4285714285716</ele><time>2026-05-02T14:17:48.494Z</time></trkpt><trkpt lat="45.8357121" lon="11.5863863"><ele>1034.142857142857</ele><time>2026-05-02T14:17:51.515Z</time></trkpt><trkpt lat="45.8357556" lon="11.58646"><ele>1035.857142857143</ele><time>2026-05-02T14:17:54.436Z</time></trkpt><trkpt lat="45.8357943" lon="11.5865515"><ele>1037.5714285714287</ele><time>2026-05-02T14:17:57.454Z</time></trkpt><trkpt lat="45.8358482" lon="11.5866253"><ele>1039.2857142857142</ele><time>2026-05-02T14:18:01.436Z</time></trkpt><trkpt lat="45.835893" lon="11.5866937"><ele>1041.0</ele><time>2026-05-02T14:18:04.436Z</time></trkpt><trkpt lat="45.8359356" lon="11.5867664"><ele>1037.857142857143</ele><time>2026-05-02T14:18:07.436Z</time></trkpt><trkpt lat="45.8359736" lon="11.58686"><ele>1034.7142857142858</ele><time>2026-05-02T14:18:11.436Z</time></trkpt><trkpt lat="45.8360221" lon="11.5869567"><ele>1031.5714285714287</ele><time>2026-05-02T14:18:15.436Z</time></trkpt><trkpt lat="45.8360587" lon="11.5870428"><ele>1028.4285714285716</ele><time>2026-05-02T14:18:18.435Z</time></trkpt><trkpt lat="45.8360939" lon="11.5871354"><ele>1025.2857142857142</ele><time>2026-05-02T14:18:21.436Z</time></trkpt><trkpt lat="45.8361312" lon="11.5872219"><ele>1022.1428571428573</ele><time>2026-05-02T14:18:24.435Z</time></trkpt><trkpt lat="45.8361582" lon="11.587319"><ele>1019.0000000000001</ele><time>2026-05-02T14:18:27.436Z</time></trkpt><trkpt lat="45.8361863" lon="11.5874215"><ele>1019.0000000000001</ele><time>2026-05-02T14:18:30.436Z</time></trkpt><trkpt lat="45.8362119" lon="11.5875192"><ele>1019.0</ele><time>2026-05-02T14:18:33.435Z</time></trkpt><trkpt lat="45.8362408" lon="11.5876066"><ele>1019.0000000000001</ele><time>2026-05-02T14:18:36.437Z</time></trkpt><trkpt lat="45.8362727" lon="11.5876915"><ele>1019.0000000000001</ele><time>2026-05-02T14:18:39.437Z</time></trkpt><trkpt lat="45.8363009" lon="11.5877866"><ele>1019.0</ele><time>2026-05-02T14:18:42.437Z</time></trkpt><trkpt lat="45.8363352" lon="11.5878694"><ele>1019.0000000000001</ele><time>2026-05-02T14:18:45.437Z</time></trkpt><trkpt lat="45.8363602" lon="11.5879553"><ele>1019.0000000000001</ele><time>2026-05-02T14:18:48.437Z</time></trkpt><trkpt lat="45.836397" lon="11.5880695"><ele>1021.0000000000001</ele><time>2026-05-02T14:18:52.437Z</time></trkpt><trkpt lat="45.8364315" lon="11.5881627"><ele>1023.0</ele><time>2026-05-02T14:18:55.436Z</time></trkpt><trkpt lat="45.8364599" lon="11.5882501"><ele>1025.0</ele><time>2026-05-02T14:18:58.436Z</time></trkpt><trkpt lat="45.8364903" lon="11.5883379"><ele>1027.0</ele><time>2026-05-02T14:19:01.437Z</time></trkpt><trkpt lat="45.8365146" lon="11.5884426"><ele>1029.0</ele><time>2026-05-02T14:19:04.437Z</time></trkpt><trkpt lat="45.8365407" lon="11.5885527"><ele>1031.0000000000002</ele><time>2026-05-02T14:19:07.436Z</time></trkpt><trkpt lat="45.8365777" lon="11.5886311"><ele>1033.0</ele><time>2026-05-02T14:19:10.437Z</time></trkpt><trkpt lat="45.8366002" lon="11.5887179"><ele>1033.5714285714287</ele><time>2026-05-02T14:19:13.436Z</time></trkpt><trkpt lat="45.8366134" lon="11.5888158"><ele>1034.142857142857</ele><time>2026-05-02T14:19:16.437Z</time></trkpt><trkpt lat="45.8366209" lon="11.5889126"><ele>1034.7142857142858</ele><time>2026-05-02T14:19:19.436Z</time></trkpt><trkpt lat="45.8366132" lon="11.5890037"><ele>1035.2857142857142</ele><time>2026-05-02T14:19:22.437Z</time></trkpt><trkpt lat="45.8366121" lon="11.5891174"><ele>1035.857142857143</ele><time>2026-05-02T14:19:26.437Z</time></trkpt><trkpt lat="45.8366012" lon="11.5892225"><ele>1036.4285714285716</ele><time>2026-05-02T14:19:30.437Z</time></trkpt><trkpt lat="45.8365949" lon="11.5893239"><ele>1037.0</ele><time>2026-05-02T14:19:34.437Z</time></trkpt><trkpt lat="45.836585" lon="11.589434"><ele>1036.1666666666667</ele><time>2026-05-02T14:19:39.437Z</time></trkpt><trkpt lat="45.8365619" lon="11.5895227"><ele>1035.3333333333335</ele><time>2026-05-02T14:19:44.438Z</time></trkpt><trkpt lat="45.8365412" lon="11.5896263"><ele>1034.5</ele><time>2026-05-02T14:19:49.438Z</time></trkpt><trkpt lat="45.8365117" lon="11.5897318"><ele>1033.6666666666667</ele><time>2026-05-02T14:19:54.438Z</time></trkpt><trkpt lat="45.8364842" lon="11.5898202"><ele>1032.8333333333333</ele><time>2026-05-02T14:19:58.437Z</time></trkpt><trkpt lat="45.8364439" lon="11.5899174"><ele>1032.0</ele><time>2026-05-02T14:20:03.438Z</time></trkpt><trkpt lat="45.8364184" lon="11.5900342"><ele>1031.9999999999998</ele><time>2026-05-02T14:20:07.438Z</time></trkpt><trkpt lat="45.8363912" lon="11.5901219"><ele>1032.0</ele><time>2026-05-02T14:20:10.438Z</time></trkpt><trkpt lat="45.8363641" lon="11.5902057"><ele>1032.0</ele><time>2026-05-02T14:20:13.438Z</time></trkpt><trkpt lat="45.8363297" lon="11.5902947"><ele>1032.0</ele><time>2026-05-02T14:20:17.438Z</time></trkpt><trkpt lat="45.8363057" lon="11.5903852"><ele>1032.0</ele><time>2026-05-02T14:20:21.438Z</time></trkpt><trkpt lat="45.836277" lon="11.5904684"><ele>1031.9999999999998</ele><time>2026-05-02T14:20:24.437Z</time></trkpt><trkpt lat="45.8362311" lon="11.5905714"><ele>1032.0</ele><time>2026-05-02T14:20:28.437Z</time></trkpt><trkpt lat="45.8361967" lon="11.5906491"><ele>1031.4285714285713</ele><time>2026-05-02T14:20:31.438Z</time></trkpt><trkpt lat="45.8361577" lon="11.5907235"><ele>1030.857142857143</ele><time>2026-05-02T14:20:34.438Z</time></trkpt><trkpt lat="45.8361167" lon="11.5907957"><ele>1030.2857142857142</ele><time>2026-05-02T14:20:37.438Z</time></trkpt><trkpt lat="45.8360666" lon="11.5908915"><ele>1029.7142857142858</ele><time>2026-05-02T14:20:41.438Z</time></trkpt><trkpt lat="45.8360398" lon="11.5909744"><ele>1029.142857142857</ele><time>2026-05-02T14:20:44.438Z</time></trkpt><trkpt lat="45.836013" lon="11.5910588"><ele>1028.5714285714284</ele><time>2026-05-02T14:20:47.437Z</time></trkpt><trkpt lat="45.8359726" lon="11.5911332"><ele>1028.0</ele><time>2026-05-02T14:20:50.438Z</time></trkpt><trkpt lat="45.8359342" lon="11.5912156"><ele>1030.7142857142858</ele><time>2026-05-02T14:20:53.439Z</time></trkpt><trkpt lat="45.8358948" lon="11.591293"><ele>1033.4285714285716</ele><time>2026-05-02T14:20:56.439Z</time></trkpt><trkpt lat="45.8358472" lon="11.5913869"><ele>1036.1428571428573</ele><time>2026-05-02T14:21:00.439Z</time></trkpt><trkpt lat="45.8357984" lon="11.5914578"><ele>1038.857142857143</ele><time>2026-05-02T14:21:03.439Z</time></trkpt><trkpt lat="45.8357416" lon="11.5915422"><ele>1041.5714285714287</ele><time>2026-05-02T14:21:06.439Z</time></trkpt><trkpt lat="45.8356905" lon="11.5916021"><ele>1044.2857142857144</ele><time>2026-05-02T14:21:09.438Z</time></trkpt><trkpt lat="45.8356299" lon="11.5916636"><ele>1047.0</ele><time>2026-05-02T14:21:12.439Z</time></trkpt><trkpt lat="45.8355644" lon="11.591736"><ele>1047.0</ele><time>2026-05-02T14:21:16.439Z</time></trkpt><trkpt lat="45.8354967" lon="11.5918008"><ele>1047.0</ele><time>2026-05-02T14:21:20.493Z</time></trkpt><trkpt lat="45.8354418" lon="11.5918585"><ele>1047.0</ele><time>2026-05-02T14:21:23.512Z</time></trkpt><trkpt lat="45.835379" lon="11.5919349"><ele>1047.0</ele><time>2026-05-02T14:21:27.439Z</time></trkpt><trkpt lat="45.8353292" lon="11.5920295"><ele>1047.0</ele><time>2026-05-02T14:21:31.465Z</time></trkpt><trkpt lat="45.8352689" lon="11.592109"><ele>1047.0</ele><time>2026-05-02T14:21:35.491Z</time></trkpt><trkpt lat="45.8352154" lon="11.5921596"><ele>1048.2857142857144</ele><time>2026-05-02T14:21:38.511Z</time></trkpt><trkpt lat="45.8351655" lon="11.5922206"><ele>1049.5714285714287</ele><time>2026-05-02T14:21:41.53Z</time></trkpt><trkpt lat="45.8351199" lon="11.5922865"><ele>1050.857142857143</ele><time>2026-05-02T14:21:44.449Z</time></trkpt><trkpt lat="45.8350756" lon="11.5923523"><ele>1052.1428571428573</ele><time>2026-05-02T14:21:47.469Z</time></trkpt><trkpt lat="45.8350127" lon="11.592422"><ele>1053.4285714285716</ele><time>2026-05-02T14:21:51.495Z</time></trkpt><trkpt lat="45.8349625" lon="11.5924823"><ele>1054.7142857142858</ele><time>2026-05-02T14:21:55.521Z</time></trkpt><trkpt lat="45.8349003" lon="11.5925343"><ele>1056.0</ele><time>2026-05-02T14:21:59.447Z</time></trkpt><trkpt lat="45.8348216" lon="11.5925601"><ele>1056.0</ele><time>2026-05-02T14:22:03.474Z</time></trkpt><trkpt lat="45.8347552" lon="11.5926183"><ele>1056.0</ele><time>2026-05-02T14:22:07.5Z</time></trkpt><trkpt lat="45.8347118" lon="11.5926917"><ele>1056.0</ele><time>2026-05-02T14:22:10.52Z</time></trkpt><trkpt lat="45.8346545" lon="11.5927503"><ele>1056.0</ele><time>2026-05-02T14:22:14.445Z</time></trkpt><trkpt lat="45.8345969" lon="11.5928108"><ele>1056.0</ele><time>2026-05-02T14:22:18.47Z</time></trkpt><trkpt lat="45.8345321" lon="11.5928782"><ele>1056.0</ele><time>2026-05-02T14:22:22.498Z</time></trkpt><trkpt lat="45.8344669" lon="11.5929411"><ele>1056.0</ele><time>2026-05-02T14:22:26.523Z</time></trkpt><trkpt lat="45.8344062" lon="11.5929956"><ele>1055.7142857142858</ele><time>2026-05-02T14:22:31.456Z</time></trkpt><trkpt lat="45.8343468" lon="11.5930553"><ele>1055.4285714285716</ele><time>2026-05-02T14:22:35.482Z</time></trkpt><trkpt lat="45.8342796" lon="11.5931243"><ele>1055.1428571428573</ele><time>2026-05-02T14:22:39.508Z</time></trkpt><trkpt lat="45.8342128" lon="11.5931844"><ele>1054.857142857143</ele><time>2026-05-02T14:22:43.44Z</time></trkpt><trkpt lat="45.8341441" lon="11.5932406"><ele>1054.5714285714287</ele><time>2026-05-02T14:22:47.46Z</time></trkpt><trkpt lat="45.8340905" lon="11.5932886"><ele>1054.2857142857144</ele><time>2026-05-02T14:22:50.479Z</time></trkpt><trkpt lat="45.8340294" lon="11.5933383"><ele>1054.0</ele><time>2026-05-02T14:22:54.506Z</time></trkpt><trkpt lat="45.8339639" lon="11.5934061"><ele>1054.0000000000002</ele><time>2026-05-02T14:22:59.538Z</time></trkpt><trkpt lat="45.8339091" lon="11.5934595"><ele>1054.0</ele><time>2026-05-02T14:23:02.456Z</time></trkpt><trkpt lat="45.8338441" lon="11.5935222"><ele>1054.0</ele><time>2026-05-02T14:23:06.482Z</time></trkpt><trkpt lat="45.8337772" lon="11.5935889"><ele>1054.0</ele><time>2026-05-02T14:23:10.509Z</time></trkpt><trkpt lat="45.8337247" lon="11.593639"><ele>1054.0</ele><time>2026-05-02T14:23:13.528Z</time></trkpt><trkpt lat="45.8336612" lon="11.5937079"><ele>1054.0000000000002</ele><time>2026-05-02T14:23:17.454Z</time></trkpt><trkpt lat="45.8336036" lon="11.5937551"><ele>1054.0</ele><time>2026-05-02T14:23:20.474Z</time></trkpt><trkpt lat="45.8335369" lon="11.5938124"><ele>1054.3333333333333</ele><time>2026-05-02T14:23:24.501Z</time></trkpt><trkpt lat="45.8334738" lon="11.5938775"><ele>1054.6666666666665</ele><time>2026-05-02T14:23:27.52Z</time></trkpt><trkpt lat="45.8334048" lon="11.5939449"><ele>1055.0</ele><time>2026-05-02T14:23:30.441Z</time></trkpt><trkpt lat="45.8333333" lon="11.5940098"><ele>1055.3333333333333</ele><time>2026-05-02T14:23:33.459Z</time></trkpt><trkpt lat="45.8332633" lon="11.5940574"><ele>1055.6666666666667</ele><time>2026-05-02T14:23:36.479Z</time></trkpt><trkpt lat="45.8332032" lon="11.5941262"><ele>1056.0</ele><time>2026-05-02T14:23:39.499Z</time></trkpt><trkpt lat="45.8331383" lon="11.5941929"><ele>1056.0</ele><time>2026-05-02T14:23:42.518Z</time></trkpt><trkpt lat="45.8330773" lon="11.5942423"><ele>1056.0</ele><time>2026-05-02T14:23:45.44Z</time></trkpt><trkpt lat="45.8330129" lon="11.5943067"><ele>1056.0</ele><time>2026-05-02T14:23:48.457Z</time></trkpt><trkpt lat="45.8329353" lon="11.5943763"><ele>1056.0</ele><time>2026-05-02T14:23:51.495Z</time></trkpt><trkpt lat="45.8328794" lon="11.5944274"><ele>1056.0</ele><time>2026-05-02T14:23:53.49Z</time></trkpt><trkpt lat="45.8328221" lon="11.5944763"><ele>1056.0</ele><time>2026-05-02T14:23:55.503Z</time></trkpt><trkpt lat="45.8327669" lon="11.5945271"><ele>1056.0</ele><time>2026-05-02T14:23:57.516Z</time></trkpt><trkpt lat="45.8327148" lon="11.5945812"><ele>1056.1666666666667</ele><time>2026-05-02T14:23:59.529Z</time></trkpt><trkpt lat="45.8326641" lon="11.59464"><ele>1056.3333333333333</ele><time>2026-05-02T14:24:02.441Z</time></trkpt><trkpt lat="45.8325898" lon="11.5947049"><ele>1056.5</ele><time>2026-05-02T14:24:05.442Z</time></trkpt><trkpt lat="45.8325183" lon="11.5947678"><ele>1056.6666666666665</ele><time>2026-05-02T14:24:08.442Z</time></trkpt><trkpt lat="45.8324415" lon="11.5948417"><ele>1056.8333333333333</ele><time>2026-05-02T14:24:11.442Z</time></trkpt><trkpt lat="45.8323876" lon="11.5948908"><ele>1057.0</ele><time>2026-05-02T14:24:13.442Z</time></trkpt><trkpt lat="45.8323135" lon="11.5949683"><ele>1057.0</ele><time>2026-05-02T14:24:16.442Z</time></trkpt><trkpt lat="45.8322379" lon="11.5950453"><ele>1057.0</ele><time>2026-05-02T14:24:19.442Z</time></trkpt><trkpt lat="45.832186" lon="11.5950982"><ele>1057.0</ele><time>2026-05-02T14:24:21.442Z</time></trkpt><trkpt lat="45.8321085" lon="11.5951736"><ele>1057.0</ele><time>2026-05-02T14:24:24.442Z</time></trkpt><trkpt lat="45.8320365" lon="11.5952525"><ele>1057.0</ele><time>2026-05-02T14:24:27.442Z</time></trkpt><trkpt lat="45.8319668" lon="11.5953204"><ele>1057.0</ele><time>2026-05-02T14:24:30.442Z</time></trkpt><trkpt lat="45.8318967" lon="11.5953894"><ele>1057.0</ele><time>2026-05-02T14:24:33.442Z</time></trkpt><trkpt lat="45.8318305" lon="11.5954491"><ele>1057.0</ele><time>2026-05-02T14:24:36.442Z</time></trkpt><trkpt lat="45.831764" lon="11.5955162"><ele>1057.0</ele><time>2026-05-02T14:24:39.441Z</time></trkpt><trkpt lat="45.8316934" lon="11.5955784"><ele>1057.0</ele><time>2026-05-02T14:24:42.442Z</time></trkpt><trkpt lat="45.8316294" lon="11.5956418"><ele>1057.0</ele><time>2026-05-02T14:24:45.441Z</time></trkpt><trkpt lat="45.8315596" lon="11.5957119"><ele>1057.0</ele><time>2026-05-02T14:24:48.442Z</time></trkpt><trkpt lat="45.8315104" lon="11.5957683"><ele>1057.0</ele><time>2026-05-02T14:24:50.442Z</time></trkpt><trkpt lat="45.83145" lon="11.5958216"><ele>1057.0</ele><time>2026-05-02T14:24:52.477Z</time></trkpt><trkpt lat="45.8313783" lon="11.5958978"><ele>1057.0</ele><time>2026-05-02T14:24:55.497Z</time></trkpt><trkpt lat="45.8313046" lon="11.5959735"><ele>1057.0</ele><time>2026-05-02T14:24:58.516Z</time></trkpt><trkpt lat="45.8312511" lon="11.5960262"><ele>1057.0</ele><time>2026-05-02T14:25:00.529Z</time></trkpt><trkpt lat="45.8311729" lon="11.5961063"><ele>1057.0</ele><time>2026-05-02T14:25:03.492Z</time></trkpt><trkpt lat="45.8311038" lon="11.5961848"><ele>1057.0</ele><time>2026-05-02T14:25:06.469Z</time></trkpt><trkpt lat="45.8310344" lon="11.5962526"><ele>1057.0</ele><time>2026-05-02T14:25:09.456Z</time></trkpt><trkpt lat="45.8309589" lon="11.5963233"><ele>1057.0</ele><time>2026-05-02T14:25:12.509Z</time></trkpt><trkpt lat="45.8308955" lon="11.5964035"><ele>1057.0</ele><time>2026-05-02T14:25:15.528Z</time></trkpt><trkpt lat="45.8308384" lon="11.5964711"><ele>1057.0</ele><time>2026-05-02T14:25:18.448Z</time></trkpt><trkpt lat="45.8307761" lon="11.5965266"><ele>1057.0</ele><time>2026-05-02T14:25:21.435Z</time></trkpt><trkpt lat="45.830717" lon="11.5965923"><ele>1057.0</ele><time>2026-05-02T14:25:24.488Z</time></trkpt><trkpt lat="45.8306658" lon="11.5966624"><ele>1057.0</ele><time>2026-05-02T14:25:27.507Z</time></trkpt><trkpt lat="45.8306123" lon="11.5967303"><ele>1057.0</ele><time>2026-05-02T14:25:30.527Z</time></trkpt><trkpt lat="45.8305447" lon="11.5967968"><ele>1057.0</ele><time>2026-05-02T14:25:34.452Z</time></trkpt><trkpt lat="45.8304879" lon="11.5968468"><ele>1057.0</ele><time>2026-05-02T14:25:39.486Z</time></trkpt><trkpt lat="45.8304248" lon="11.5969166"><ele>1057.0</ele><time>2026-05-02T14:25:43.443Z</time></trkpt><trkpt lat="45.830365" lon="11.5969877"><ele>1057.0</ele><time>2026-05-02T14:25:48.443Z</time></trkpt><trkpt lat="45.8303051" lon="11.5970535"><ele>1057.857142857143</ele><time>2026-05-02T14:25:52.442Z</time></trkpt><trkpt lat="45.8302378" lon="11.5971207"><ele>1058.7142857142858</ele><time>2026-05-02T14:25:56.443Z</time></trkpt><trkpt lat="45.8301817" lon="11.5971832"><ele>1059.5714285714284</ele><time>2026-05-02T14:25:59.442Z</time></trkpt><trkpt lat="45.8301251" lon="11.5972366"><ele>1060.4285714285716</ele><time>2026-05-02T14:26:02.443Z</time></trkpt><trkpt lat="45.8300601" lon="11.5972965"><ele>1061.2857142857142</ele><time>2026-05-02T14:26:06.442Z</time></trkpt><trkpt lat="45.8300068" lon="11.5973526"><ele>1062.142857142857</ele><time>2026-05-02T14:26:09.443Z</time></trkpt><trkpt lat="45.8299475" lon="11.5974038"><ele>1063.0</ele><time>2026-05-02T14:26:12.443Z</time></trkpt><trkpt lat="45.8298742" lon="11.5974655"><ele>1063.0</ele><time>2026-05-02T14:26:15.444Z</time></trkpt><trkpt lat="45.8297941" lon="11.5975163"><ele>1063.0</ele><time>2026-05-02T14:26:18.454Z</time></trkpt><trkpt lat="45.8297352" lon="11.5975623"><ele>1063.0</ele><time>2026-05-02T14:26:20.45Z</time></trkpt><trkpt lat="45.829674" lon="11.5976108"><ele>1063.0</ele><time>2026-05-02T14:26:22.37Z</time></trkpt><trkpt lat="45.8296139" lon="11.5976482"><ele>1063.0</ele><time>2026-05-02T14:26:24.554Z</time></trkpt><trkpt lat="45.8295496" lon="11.5976613"><ele>1063.0</ele><time>2026-05-02T14:26:27.504Z</time></trkpt><trkpt lat="45.8294646" lon="11.597676"><ele>1063.0</ele><time>2026-05-02T14:26:31.444Z</time></trkpt><trkpt lat="45.8293979" lon="11.5977002"><ele>1063.0</ele><time>2026-05-02T14:26:34.443Z</time></trkpt><trkpt lat="45.829336" lon="11.5977187"><ele>1063.0</ele><time>2026-05-02T14:26:37.444Z</time></trkpt><trkpt lat="45.8292536" lon="11.5977547"><ele>1063.0</ele><time>2026-05-02T14:26:40.443Z</time></trkpt><trkpt lat="45.8291731" lon="11.5977821"><ele>1063.0</ele><time>2026-05-02T14:26:43.444Z</time></trkpt><trkpt lat="45.829089" lon="11.5977926"><ele>1063.0</ele><time>2026-05-02T14:26:46.444Z</time></trkpt><trkpt lat="45.8290026" lon="11.5978263"><ele>1063.0</ele><time>2026-05-02T14:26:49.444Z</time></trkpt><trkpt lat="45.8289314" lon="11.5978434"><ele>1063.0</ele><time>2026-05-02T14:26:51.444Z</time></trkpt><trkpt lat="45.82885" lon="11.5978613"><ele>1063.0</ele><time>2026-05-02T14:26:53.444Z</time></trkpt><trkpt lat="45.8287635" lon="11.5978862"><ele>1063.0</ele><time>2026-05-02T14:26:55.444Z</time></trkpt><trkpt lat="45.8286821" lon="11.5979139"><ele>1063.0</ele><time>2026-05-02T14:26:57.444Z</time></trkpt><trkpt lat="45.8286065" lon="11.5979427"><ele>1063.0</ele><time>2026-05-02T14:26:59.443Z</time></trkpt><trkpt lat="45.8285344" lon="11.5979701"><ele>1063.0</ele><time>2026-05-02T14:27:01.443Z</time></trkpt><trkpt lat="45.8284562" lon="11.5979976"><ele>1063.0</ele><time>2026-05-02T14:27:03.444Z</time></trkpt><trkpt lat="45.8283847" lon="11.5980224"><ele>1063.0</ele><time>2026-05-02T14:27:05.444Z</time></trkpt><trkpt lat="45.8283169" lon="11.5980461"><ele>1063.0</ele><time>2026-05-02T14:27:07.444Z</time></trkpt><trkpt lat="45.8282547" lon="11.5980701"><ele>1063.0</ele><time>2026-05-02T14:27:09.444Z</time></trkpt><trkpt lat="45.8281865" lon="11.5980986"><ele>1063.0</ele><time>2026-05-02T14:27:11.444Z</time></trkpt><trkpt lat="45.8281016" lon="11.5981257"><ele>1063.0</ele><time>2026-05-02T14:27:13.444Z</time></trkpt><trkpt lat="45.828022" lon="11.5981546"><ele>1063.0</ele><time>2026-05-02T14:27:15.444Z</time></trkpt><trkpt lat="45.8279475" lon="11.5981818"><ele>1063.0</ele><time>2026-05-02T14:27:17.443Z</time></trkpt><trkpt lat="45.8278771" lon="11.5982126"><ele>1063.0</ele><time>2026-05-02T14:27:19.444Z</time></trkpt><trkpt lat="45.8277977" lon="11.5982355"><ele>1063.0</ele><time>2026-05-02T14:27:21.444Z</time></trkpt><trkpt lat="45.8277127" lon="11.5982722"><ele>1063.0</ele><time>2026-05-02T14:27:23.444Z</time></trkpt><trkpt lat="45.8276311" lon="11.5983076"><ele>1063.0</ele><time>2026-05-02T14:27:25.445Z</time></trkpt><trkpt lat="45.8275513" lon="11.5983422"><ele>1063.0</ele><time>2026-05-02T14:27:27.445Z</time></trkpt><trkpt lat="45.8274747" lon="11.5983723"><ele>1064.3333333333333</ele><time>2026-05-02T14:27:29.445Z</time></trkpt><trkpt lat="45.8273996" lon="11.5983893"><ele>1065.6666666666665</ele><time>2026-05-02T14:27:31.445Z</time></trkpt><trkpt lat="45.8273298" lon="11.5984193"><ele>1067.0</ele><time>2026-05-02T14:27:33.445Z</time></trkpt><trkpt lat="45.827259" lon="11.5984465"><ele>1068.3333333333333</ele><time>2026-05-02T14:27:35.445Z</time></trkpt><trkpt lat="45.8271955" lon="11.5984708"><ele>1069.6666666666667</ele><time>2026-05-02T14:27:37.445Z</time></trkpt><trkpt lat="45.8271102" lon="11.5985389"><ele>1071.0</ele><time>2026-05-02T14:27:40.445Z</time></trkpt><trkpt lat="45.8270369" lon="11.5985962"><ele>1070.3999999999999</ele><time>2026-05-02T14:27:42.445Z</time></trkpt><trkpt lat="45.8269747" lon="11.5986963"><ele>1069.8</ele><time>2026-05-02T14:27:45.444Z</time></trkpt><trkpt lat="45.8269381" lon="11.5987882"><ele>1069.1999999999998</ele><time>2026-05-02T14:27:47.445Z</time></trkpt><trkpt lat="45.8268883" lon="11.5989006"><ele>1068.6</ele><time>2026-05-02T14:27:49.444Z</time></trkpt><trkpt lat="45.8268408" lon="11.5990455"><ele>1068.0</ele><time>2026-05-02T14:27:51.445Z</time></trkpt><trkpt lat="45.8267884" lon="11.5992154"><ele>1067.5714285714287</ele><time>2026-05-02T14:27:53.445Z</time></trkpt><trkpt lat="45.8267592" lon="11.5993053"><ele>1067.142857142857</ele><time>2026-05-02T14:27:54.445Z</time></trkpt><trkpt lat="45.8267298" lon="11.5994004"><ele>1066.7142857142858</ele><time>2026-05-02T14:27:55.445Z</time></trkpt><trkpt lat="45.8267045" lon="11.5994987"><ele>1066.2857142857142</ele><time>2026-05-02T14:27:56.444Z</time></trkpt><trkpt lat="45.8266781" lon="11.5995923"><ele>1065.857142857143</ele><time>2026-05-02T14:27:57.445Z</time></trkpt><trkpt lat="45.8266511" lon="11.599686"><ele>1065.4285714285716</ele><time>2026-05-02T14:27:58.445Z</time></trkpt><trkpt lat="45.8266202" lon="11.5997838"><ele>1065.0</ele><time>2026-05-02T14:27:59.445Z</time></trkpt><trkpt lat="45.8265867" lon="11.5998758"><ele>1064.7142857142858</ele><time>2026-05-02T14:28:00.445Z</time></trkpt><trkpt lat="45.8265541" lon="11.599968"><ele>1064.4285714285713</ele><time>2026-05-02T14:28:01.444Z</time></trkpt><trkpt lat="45.8265233" lon="11.6000599"><ele>1064.142857142857</ele><time>2026-05-02T14:28:02.445Z</time></trkpt><trkpt lat="45.8264928" lon="11.6001498"><ele>1063.857142857143</ele><time>2026-05-02T14:28:03.445Z</time></trkpt><trkpt lat="45.8264615" lon="11.6002369"><ele>1063.5714285714287</ele><time>2026-05-02T14:28:04.445Z</time></trkpt><trkpt lat="45.8264262" lon="11.6003258"><ele>1063.2857142857142</ele><time>2026-05-02T14:28:05.445Z</time></trkpt><trkpt lat="45.8263884" lon="11.6004089"><ele>1063.0</ele><time>2026-05-02T14:28:06.445Z</time></trkpt><trkpt lat="45.8263498" lon="11.6004948"><ele>1063.0</ele><time>2026-05-02T14:28:07.444Z</time></trkpt><trkpt lat="45.8263068" lon="11.6005824"><ele>1063.0</ele><time>2026-05-02T14:28:08.445Z</time></trkpt><trkpt lat="45.8262623" lon="11.6006732"><ele>1063.0</ele><time>2026-05-02T14:28:09.445Z</time></trkpt><trkpt lat="45.8262199" lon="11.6007659"><ele>1063.0</ele><time>2026-05-02T14:28:10.445Z</time></trkpt><trkpt lat="45.8261798" lon="11.6008591"><ele>1063.0</ele><time>2026-05-02T14:28:11.446Z</time></trkpt><trkpt lat="45.8261433" lon="11.6009529"><ele>1063.0</ele><time>2026-05-02T14:28:12.445Z</time></trkpt><trkpt lat="45.826103" lon="11.6010469"><ele>1063.0</ele><time>2026-05-02T14:28:13.445Z</time></trkpt><trkpt lat="45.826062" lon="11.6011391"><ele>1063.0</ele><time>2026-05-02T14:28:14.445Z</time></trkpt><trkpt lat="45.8260181" lon="11.6012313"><ele>1063.0</ele><time>2026-05-02T14:28:15.445Z</time></trkpt><trkpt lat="45.8259733" lon="11.6013215"><ele>1063.0</ele><time>2026-05-02T14:28:16.444Z</time></trkpt><trkpt lat="45.8259315" lon="11.6014049"><ele>1063.0</ele><time>2026-05-02T14:28:17.444Z</time></trkpt><trkpt lat="45.8258947" lon="11.6014862"><ele>1063.0</ele><time>2026-05-02T14:28:18.444Z</time></trkpt><trkpt lat="45.8258606" lon="11.6015682"><ele>1063.0</ele><time>2026-05-02T14:28:19.444Z</time></trkpt><trkpt lat="45.8258263" lon="11.6016488"><ele>1062.6</ele><time>2026-05-02T14:28:20.445Z</time></trkpt><trkpt lat="45.8257628" lon="11.601796"><ele>1062.1999999999998</ele><time>2026-05-02T14:28:22.445Z</time></trkpt><trkpt lat="45.825701" lon="11.6019287"><ele>1061.8</ele><time>2026-05-02T14:28:24.445Z</time></trkpt><trkpt lat="45.8256485" lon="11.6020466"><ele>1061.3999999999999</ele><time>2026-05-02T14:28:26.445Z</time></trkpt><trkpt lat="45.8256048" lon="11.6021551"><ele>1061.0</ele><time>2026-05-02T14:28:28.444Z</time></trkpt><trkpt lat="45.8255653" lon="11.6022424"><ele>1061.0000000000002</ele><time>2026-05-02T14:28:30.445Z</time></trkpt><trkpt lat="45.8255269" lon="11.602323"><ele>1061.0</ele><time>2026-05-02T14:28:32.445Z</time></trkpt><trkpt lat="45.8254925" lon="11.6024219"><ele>1061.0</ele><time>2026-05-02T14:28:34.446Z</time></trkpt><trkpt lat="45.825464" lon="11.6025071"><ele>1061.0</ele><time>2026-05-02T14:28:36.446Z</time></trkpt><trkpt lat="45.8254085" lon="11.602619"><ele>1061.0</ele><time>2026-05-02T14:28:39.445Z</time></trkpt><trkpt lat="45.8253688" lon="11.6026948"><ele>1061.0000000000002</ele><time>2026-05-02T14:28:41.446Z</time></trkpt><trkpt lat="45.8253253" lon="11.6027752"><ele>1061.0</ele><time>2026-05-02T14:28:43.446Z</time></trkpt><trkpt lat="45.8252845" lon="11.6028543"><ele>1061.2857142857144</ele><time>2026-05-02T14:28:45.446Z</time></trkpt><trkpt lat="45.8252312" lon="11.6029543"><ele>1061.5714285714287</ele><time>2026-05-02T14:28:48.446Z</time></trkpt><trkpt lat="45.8251932" lon="11.6030297"><ele>1061.857142857143</ele><time>2026-05-02T14:28:50.445Z</time></trkpt><trkpt lat="45.8251531" lon="11.6031146"><ele>1062.1428571428573</ele><time>2026-05-02T14:28:52.446Z</time></trkpt><trkpt lat="45.8251206" lon="11.6031986"><ele>1062.4285714285716</ele><time>2026-05-02T14:28:54.446Z</time></trkpt><trkpt lat="45.8250874" lon="11.6032868"><ele>1062.7142857142858</ele><time>2026-05-02T14:28:56.446Z</time></trkpt><trkpt lat="45.825058" lon="11.6033679"><ele>1063.0</ele><time>2026-05-02T14:28:58.446Z</time></trkpt><trkpt lat="45.8250361" lon="11.6034534"><ele>1062.1666666666665</ele><time>2026-05-02T14:29:00.446Z</time></trkpt><trkpt lat="45.824996" lon="11.603576"><ele>1061.3333333333333</ele><time>2026-05-02T14:29:03.445Z</time></trkpt><trkpt lat="45.8249519" lon="11.6036977"><ele>1060.5</ele><time>2026-05-02T14:29:06.446Z</time></trkpt><trkpt lat="45.8249164" lon="11.6037841"><ele>1059.6666666666667</ele><time>2026-05-02T14:29:08.446Z</time></trkpt><trkpt lat="45.8248848" lon="11.6038729"><ele>1058.8333333333335</ele><time>2026-05-02T14:29:10.445Z</time></trkpt><trkpt lat="45.8248568" lon="11.6039582"><ele>1058.0</ele><time>2026-05-02T14:29:12.446Z</time></trkpt><trkpt lat="45.8248307" lon="11.604048"><ele>1057.6666666666667</ele><time>2026-05-02T14:29:14.446Z</time></trkpt><trkpt lat="45.8247991" lon="11.6041432"><ele>1057.3333333333335</ele><time>2026-05-02T14:29:16.523Z</time></trkpt><trkpt lat="45.8247551" lon="11.6042614"><ele>1057.0</ele><time>2026-05-02T14:29:19.542Z</time></trkpt><trkpt lat="45.8247179" lon="11.6043836"><ele>1056.6666666666667</ele><time>2026-05-02T14:29:22.438Z</time></trkpt><trkpt lat="45.8246923" lon="11.604472"><ele>1056.3333333333333</ele><time>2026-05-02T14:29:24.417Z</time></trkpt><trkpt lat="45.8246597" lon="11.6045661"><ele>1056.0</ele><time>2026-05-02T14:29:26.488Z</time></trkpt><trkpt lat="45.8246225" lon="11.6046519"><ele>1056.0</ele><time>2026-05-02T14:29:28.501Z</time></trkpt><trkpt lat="45.8245854" lon="11.6047399"><ele>1056.0</ele><time>2026-05-02T14:29:30.514Z</time></trkpt><trkpt lat="45.8245487" lon="11.6048352"><ele>1056.0</ele><time>2026-05-02T14:29:32.527Z</time></trkpt><trkpt lat="45.8245128" lon="11.6049326"><ele>1056.0</ele><time>2026-05-02T14:29:34.475Z</time></trkpt><trkpt lat="45.8244756" lon="11.605026"><ele>1056.0</ele><time>2026-05-02T14:29:36.452Z</time></trkpt><trkpt lat="45.8244335" lon="11.60511"><ele>1056.0</ele><time>2026-05-02T14:29:38.466Z</time></trkpt><trkpt lat="45.8243831" lon="11.6051881"><ele>1056.0</ele><time>2026-05-02T14:29:40.479Z</time></trkpt><trkpt lat="45.8243344" lon="11.6052662"><ele>1055.5</ele><time>2026-05-02T14:29:42.492Z</time></trkpt><trkpt lat="45.8242826" lon="11.6053404"><ele>1055.0</ele><time>2026-05-02T14:29:44.558Z</time></trkpt><trkpt lat="45.8242165" lon="11.6054365"><ele>1054.5</ele><time>2026-05-02T14:29:47.526Z</time></trkpt><trkpt lat="45.824168" lon="11.6054988"><ele>1054.0</ele><time>2026-05-02T14:29:49.539Z</time></trkpt><trkpt lat="45.8240937" lon="11.6055785"><ele>1053.5</ele><time>2026-05-02T14:29:52.418Z</time></trkpt><trkpt lat="45.8240436" lon="11.605638"><ele>1053.0</ele><time>2026-05-02T14:29:54.471Z</time></trkpt><trkpt lat="45.8239904" lon="11.6057159"><ele>1053.0</ele><time>2026-05-02T14:29:57.446Z</time></trkpt><trkpt lat="45.8239346" lon="11.6057726"><ele>1053.0</ele><time>2026-05-02T14:29:59.447Z</time></trkpt><trkpt lat="45.8238881" lon="11.6058376"><ele>1053.0</ele><time>2026-05-02T14:30:01.447Z</time></trkpt><trkpt lat="45.8238454" lon="11.6059054"><ele>1053.0</ele><time>2026-05-02T14:30:03.447Z</time></trkpt><trkpt lat="45.8237722" lon="11.6059907"><ele>1053.0</ele><time>2026-05-02T14:30:06.446Z</time></trkpt><trkpt lat="45.8237" lon="11.6060788"><ele>1053.0</ele><time>2026-05-02T14:30:09.447Z</time></trkpt><trkpt lat="45.8236468" lon="11.6061351"><ele>1052.8333333333333</ele><time>2026-05-02T14:30:11.447Z</time></trkpt><trkpt lat="45.8235763" lon="11.6062208"><ele>1052.6666666666667</ele><time>2026-05-02T14:30:14.447Z</time></trkpt><trkpt lat="45.8235086" lon="11.6063039"><ele>1052.5</ele><time>2026-05-02T14:30:17.447Z</time></trkpt><trkpt lat="45.8234351" lon="11.6063891"><ele>1052.3333333333335</ele><time>2026-05-02T14:30:20.447Z</time></trkpt><trkpt lat="45.8233926" lon="11.6064576"><ele>1052.1666666666667</ele><time>2026-05-02T14:30:22.447Z</time></trkpt><trkpt lat="45.823329" lon="11.6065371"><ele>1052.0</ele><time>2026-05-02T14:30:25.447Z</time></trkpt><trkpt lat="45.8232641" lon="11.6066256"><ele>1052.5</ele><time>2026-05-02T14:30:28.447Z</time></trkpt><trkpt lat="45.8231988" lon="11.6067247"><ele>1053.0</ele><time>2026-05-02T14:30:31.447Z</time></trkpt><trkpt lat="45.8231547" lon="11.6067936"><ele>1053.5</ele><time>2026-05-02T14:30:33.447Z</time></trkpt><trkpt lat="45.8231024" lon="11.6068749"><ele>1054.0</ele><time>2026-05-02T14:30:35.447Z</time></trkpt><trkpt lat="45.823048" lon="11.6069556"><ele>1054.5</ele><time>2026-05-02T14:30:37.446Z</time></trkpt><trkpt lat="45.8229994" lon="11.6070316"><ele>1055.0</ele><time>2026-05-02T14:30:39.446Z</time></trkpt><trkpt lat="45.8229549" lon="11.607102"><ele>1055.0</ele><time>2026-05-02T14:30:41.447Z</time></trkpt><trkpt lat="45.8229067" lon="11.6071772"><ele>1055.0</ele><time>2026-05-02T14:30:43.448Z</time></trkpt><trkpt lat="45.8228524" lon="11.6072636"><ele>1055.0</ele><time>2026-05-02T14:30:45.448Z</time></trkpt><trkpt lat="45.8227982" lon="11.6073446"><ele>1055.0</ele><time>2026-05-02T14:30:47.448Z</time></trkpt><trkpt lat="45.8227426" lon="11.60743"><ele>1055.0</ele><time>2026-05-02T14:30:49.448Z</time></trkpt><trkpt lat="45.8226868" lon="11.6075153"><ele>1055.0</ele><time>2026-05-02T14:30:51.448Z</time></trkpt><trkpt lat="45.8226322" lon="11.6075985"><ele>1055.0</ele><time>2026-05-02T14:30:53.448Z</time></trkpt><trkpt lat="45.8225852" lon="11.6076712"><ele>1055.0</ele><time>2026-05-02T14:30:55.447Z</time></trkpt><trkpt lat="45.8225323" lon="11.6077462"><ele>1055.0</ele><time>2026-05-02T14:30:57.447Z</time></trkpt><trkpt lat="45.8224844" lon="11.6078186"><ele>1055.0</ele><time>2026-05-02T14:30:59.447Z</time></trkpt><trkpt lat="45.8224282" lon="11.6079028"><ele>1055.0</ele><time>2026-05-02T14:31:01.447Z</time></trkpt><trkpt lat="45.8223731" lon="11.6079795"><ele>1055.0</ele><time>2026-05-02T14:31:03.447Z</time></trkpt><trkpt lat="45.8223264" lon="11.6080563"><ele>1055.0</ele><time>2026-05-02T14:31:05.448Z</time></trkpt><trkpt lat="45.8222807" lon="11.6081249"><ele>1055.0</ele><time>2026-05-02T14:31:07.448Z</time></trkpt><trkpt lat="45.8222293" lon="11.6082033"><ele>1055.0</ele><time>2026-05-02T14:31:09.448Z</time></trkpt><trkpt lat="45.8221731" lon="11.6082912"><ele>1055.0</ele><time>2026-05-02T14:31:11.448Z</time></trkpt><trkpt lat="45.8221129" lon="11.60838"><ele>1055.0</ele><time>2026-05-02T14:31:13.448Z</time></trkpt><trkpt lat="45.8220522" lon="11.6084829"><ele>1055.0</ele><time>2026-05-02T14:31:15.447Z</time></trkpt><trkpt lat="45.8219819" lon="11.6085829"><ele>1055.0</ele><time>2026-05-02T14:31:17.448Z</time></trkpt><trkpt lat="45.8219147" lon="11.6086776"><ele>1055.1666666666667</ele><time>2026-05-02T14:31:19.447Z</time></trkpt><trkpt lat="45.8218477" lon="11.6087662"><ele>1055.3333333333335</ele><time>2026-05-02T14:31:21.448Z</time></trkpt><trkpt lat="45.8217762" lon="11.6088419"><ele>1055.5</ele><time>2026-05-02T14:31:23.448Z</time></trkpt><trkpt lat="45.8217082" lon="11.6089175"><ele>1055.6666666666667</ele><time>2026-05-02T14:31:25.448Z</time></trkpt><trkpt lat="45.8216431" lon="11.6089795"><ele>1055.8333333333333</ele><time>2026-05-02T14:31:27.447Z</time></trkpt><trkpt lat="45.8215698" lon="11.6090184"><ele>1056.0</ele><time>2026-05-02T14:31:29.448Z</time></trkpt><trkpt lat="45.8214861" lon="11.6090593"><ele>1055.6</ele><time>2026-05-02T14:31:31.448Z</time></trkpt><trkpt lat="45.821403" lon="11.6090945"><ele>1055.1999999999998</ele><time>2026-05-02T14:31:33.448Z</time></trkpt><trkpt lat="45.8213156" lon="11.6091316"><ele>1054.8000000000002</ele><time>2026-05-02T14:31:35.448Z</time></trkpt><trkpt lat="45.8212143" lon="11.6091572"><ele>1054.4</ele><time>2026-05-02T14:31:37.448Z</time></trkpt><trkpt lat="45.8211116" lon="11.609164"><ele>1054.0</ele><time>2026-05-02T14:31:39.447Z</time></trkpt><trkpt lat="45.8210061" lon="11.6091798"><ele>1053.75</ele><time>2026-05-02T14:31:41.448Z</time></trkpt><trkpt lat="45.8209018" lon="11.6092007"><ele>1053.5</ele><time>2026-05-02T14:31:43.448Z</time></trkpt><trkpt lat="45.8207894" lon="11.6092082"><ele>1053.25</ele><time>2026-05-02T14:31:45.447Z</time></trkpt><trkpt lat="45.8206696" lon="11.6092347"><ele>1053.0</ele><time>2026-05-02T14:31:47.448Z</time></trkpt><trkpt lat="45.8205512" lon="11.6092592"><ele>1053.0</ele><time>2026-05-02T14:31:49.448Z</time></trkpt><trkpt lat="45.8204278" lon="11.6092883"><ele>1053.0</ele><time>2026-05-02T14:31:51.448Z</time></trkpt><trkpt lat="45.8203627" lon="11.6093003"><ele>1053.0</ele><time>2026-05-02T14:31:52.448Z</time></trkpt><trkpt lat="45.8202972" lon="11.6093125"><ele>1053.0</ele><time>2026-05-02T14:31:53.448Z</time></trkpt><trkpt lat="45.8202288" lon="11.6093228"><ele>1053.0</ele><time>2026-05-02T14:31:54.448Z</time></trkpt><trkpt lat="45.8201581" lon="11.6093297"><ele>1053.0</ele><time>2026-05-02T14:31:55.448Z</time></trkpt><trkpt lat="45.8200837" lon="11.609343"><ele>1052.3333333333333</ele><time>2026-05-02T14:31:56.449Z</time></trkpt><trkpt lat="45.820008" lon="11.6093605"><ele>1051.6666666666667</ele><time>2026-05-02T14:31:57.448Z</time></trkpt><trkpt lat="45.8199328" lon="11.609377"><ele>1051.0</ele><time>2026-05-02T14:31:58.448Z</time></trkpt><trkpt lat="45.8198567" lon="11.6093898"><ele>1050.3333333333335</ele><time>2026-05-02T14:31:59.449Z</time></trkpt><trkpt lat="45.8197791" lon="11.6094014"><ele>1049.6666666666667</ele><time>2026-05-02T14:32:00.449Z</time></trkpt><trkpt lat="45.8196992" lon="11.609414"><ele>1049.0</ele><time>2026-05-02T14:32:01.449Z</time></trkpt><trkpt lat="45.8196154" lon="11.6094294"><ele>1049.0</ele><time>2026-05-02T14:32:02.449Z</time></trkpt><trkpt lat="45.8195284" lon="11.6094465"><ele>1049.0</ele><time>2026-05-02T14:32:03.448Z</time></trkpt><trkpt lat="45.8194454" lon="11.6094602"><ele>1049.0</ele><time>2026-05-02T14:32:04.448Z</time></trkpt><trkpt lat="45.8193637" lon="11.6094763"><ele>1049.0</ele><time>2026-05-02T14:32:05.449Z</time></trkpt><trkpt lat="45.8192846" lon="11.6094908"><ele>1049.0</ele><time>2026-05-02T14:32:06.448Z</time></trkpt><trkpt lat="45.8192082" lon="11.6095047"><ele>1049.0</ele><time>2026-05-02T14:32:07.449Z</time></trkpt><trkpt lat="45.8191316" lon="11.6095174"><ele>1050.3333333333335</ele><time>2026-05-02T14:32:08.449Z</time></trkpt><trkpt lat="45.8190545" lon="11.6095313"><ele>1051.6666666666667</ele><time>2026-05-02T14:32:09.449Z</time></trkpt><trkpt lat="45.8189762" lon="11.6095441"><ele>1053.0</ele><time>2026-05-02T14:32:10.449Z</time></trkpt><trkpt lat="45.8188957" lon="11.6095568"><ele>1054.3333333333333</ele><time>2026-05-02T14:32:11.449Z</time></trkpt><trkpt lat="45.818815" lon="11.6095681"><ele>1055.6666666666665</ele><time>2026-05-02T14:32:12.449Z</time></trkpt><trkpt lat="45.8187352" lon="11.6095776"><ele>1057.0</ele><time>2026-05-02T14:32:13.448Z</time></trkpt><trkpt lat="45.8186557" lon="11.609586"><ele>1057.0</ele><time>2026-05-02T14:32:14.449Z</time></trkpt><trkpt lat="45.8185794" lon="11.6095939"><ele>1057.0</ele><time>2026-05-02T14:32:15.448Z</time></trkpt><trkpt lat="45.818502" lon="11.6095932"><ele>1057.0</ele><time>2026-05-02T14:32:16.449Z</time></trkpt><trkpt lat="45.8184238" lon="11.6095873"><ele>1057.0</ele><time>2026-05-02T14:32:17.449Z</time></trkpt><trkpt lat="45.8183475" lon="11.6095806"><ele>1057.0</ele><time>2026-05-02T14:32:18.449Z</time></trkpt><trkpt lat="45.8182734" lon="11.6095768"><ele>1057.0</ele><time>2026-05-02T14:32:19.448Z</time></trkpt><trkpt lat="45.8181991" lon="11.6095729"><ele>1056.142857142857</ele><time>2026-05-02T14:32:20.449Z</time></trkpt><trkpt lat="45.8181276" lon="11.6095672"><ele>1055.2857142857142</ele><time>2026-05-02T14:32:21.449Z</time></trkpt><trkpt lat="45.8180583" lon="11.6095621"><ele>1054.4285714285716</ele><time>2026-05-02T14:32:22.449Z</time></trkpt><trkpt lat="45.8179867" lon="11.6095547"><ele>1053.5714285714284</ele><time>2026-05-02T14:32:23.449Z</time></trkpt><trkpt lat="45.817917" lon="11.6095443"><ele>1052.7142857142858</ele><time>2026-05-02T14:32:24.449Z</time></trkpt><trkpt lat="45.8178482" lon="11.6095364"><ele>1051.857142857143</ele><time>2026-05-02T14:32:25.449Z</time></trkpt><trkpt lat="45.8177781" lon="11.6095335"><ele>1051.0</ele><time>2026-05-02T14:32:26.449Z</time></trkpt><trkpt lat="45.8177129" lon="11.6095379"><ele>1051.0</ele><time>2026-05-02T14:32:27.449Z</time></trkpt><trkpt lat="45.817648" lon="11.6095404"><ele>1051.0</ele><time>2026-05-02T14:32:28.449Z</time></trkpt><trkpt lat="45.8175835" lon="11.6095389"><ele>1051.0</ele><time>2026-05-02T14:32:29.449Z</time></trkpt><trkpt lat="45.8175205" lon="11.609535"><ele>1051.0</ele><time>2026-05-02T14:32:30.449Z</time></trkpt><trkpt lat="45.817457" lon="11.6095308"><ele>1051.0</ele><time>2026-05-02T14:32:31.449Z</time></trkpt><trkpt lat="45.8173926" lon="11.6095282"><ele>1051.0</ele><time>2026-05-02T14:32:32.449Z</time></trkpt><trkpt lat="45.8173285" lon="11.6095248"><ele>1051.0</ele><time>2026-05-02T14:32:33.449Z</time></trkpt><trkpt lat="45.8172643" lon="11.6095203"><ele>1051.0</ele><time>2026-05-02T14:32:34.449Z</time></trkpt><trkpt lat="45.8171995" lon="11.6095168"><ele>1051.0</ele><time>2026-05-02T14:32:35.449Z</time></trkpt><trkpt lat="45.817135" lon="11.6095112"><ele>1051.0</ele><time>2026-05-02T14:32:36.449Z</time></trkpt><trkpt lat="45.8170692" lon="11.6095061"><ele>1051.0</ele><time>2026-05-02T14:32:37.449Z</time></trkpt><trkpt lat="45.8170045" lon="11.6095025"><ele>1051.0</ele><time>2026-05-02T14:32:38.449Z</time></trkpt><trkpt lat="45.8169409" lon="11.6095034"><ele>1051.0</ele><time>2026-05-02T14:32:39.449Z</time></trkpt><trkpt lat="45.8168162" lon="11.609497"><ele>1051.0</ele><time>2026-05-02T14:32:41.449Z</time></trkpt><trkpt lat="45.8166914" lon="11.6094745"><ele>1050.3999999999999</ele><time>2026-05-02T14:32:43.448Z</time></trkpt><trkpt lat="45.8165752" lon="11.6094585"><ele>1049.8</ele><time>2026-05-02T14:32:45.449Z</time></trkpt><trkpt lat="45.8164576" lon="11.6094386"><ele>1049.1999999999998</ele><time>2026-05-02T14:32:47.449Z</time></trkpt><trkpt lat="45.8163562" lon="11.609437"><ele>1048.6</ele><time>2026-05-02T14:32:49.449Z</time></trkpt><trkpt lat="45.8162479" lon="11.6094103"><ele>1048.0</ele><time>2026-05-02T14:32:51.449Z</time></trkpt><trkpt lat="45.8161416" lon="11.6093859"><ele>1048.0</ele><time>2026-05-02T14:32:53.449Z</time></trkpt><trkpt lat="45.8160449" lon="11.6093665"><ele>1048.0</ele><time>2026-05-02T14:32:55.448Z</time></trkpt><trkpt lat="45.8159424" lon="11.6093625"><ele>1048.0</ele><time>2026-05-02T14:32:57.448Z</time></trkpt><trkpt lat="45.8158485" lon="11.6093644"><ele>1048.0</ele><time>2026-05-02T14:32:59.448Z</time></trkpt><trkpt lat="45.8157653" lon="11.6093657"><ele>1048.0</ele><time>2026-05-02T14:33:01.449Z</time></trkpt><trkpt lat="45.8156742" lon="11.6093736"><ele>1048.2</ele><time>2026-05-02T14:33:03.449Z</time></trkpt><trkpt lat="45.8155869" lon="11.6094125"><ele>1048.4</ele><time>2026-05-02T14:33:05.45Z</time></trkpt><trkpt lat="45.8155075" lon="11.6094831"><ele>1048.6000000000001</ele><time>2026-05-02T14:33:07.45Z</time></trkpt><trkpt lat="45.8154345" lon="11.6096034"><ele>1048.8</ele><time>2026-05-02T14:33:09.449Z</time></trkpt><trkpt lat="45.8153622" lon="11.6097443"><ele>1049.0</ele><time>2026-05-02T14:33:11.45Z</time></trkpt><trkpt lat="45.8153302" lon="11.6098408"><ele>1049.0</ele><time>2026-05-02T14:33:12.45Z</time></trkpt><trkpt lat="45.81531" lon="11.609941"><ele>1049.0</ele><time>2026-05-02T14:33:13.449Z</time></trkpt><trkpt lat="45.8152981" lon="11.6100498"><ele>1049.0</ele><time>2026-05-02T14:33:14.45Z</time></trkpt><trkpt lat="45.8152913" lon="11.6101613"><ele>1049.0</ele><time>2026-05-02T14:33:15.45Z</time></trkpt><trkpt lat="45.815289" lon="11.6102814"><ele>1049.0</ele><time>2026-05-02T14:33:16.45Z</time></trkpt><trkpt lat="45.8152806" lon="11.6103943"><ele>1049.0</ele><time>2026-05-02T14:33:17.45Z</time></trkpt><trkpt lat="45.8152639" lon="11.6105085"><ele>1050.0</ele><time>2026-05-02T14:33:18.45Z</time></trkpt><trkpt lat="45.8152417" lon="11.6106139"><ele>1051.0</ele><time>2026-05-02T14:33:19.45Z</time></trkpt><trkpt lat="45.815219" lon="11.6107267"><ele>1052.0</ele><time>2026-05-02T14:33:20.45Z</time></trkpt><trkpt lat="45.8151954" lon="11.6108478"><ele>1053.0</ele><time>2026-05-02T14:33:21.449Z</time></trkpt><trkpt lat="45.8151679" lon="11.6109738"><ele>1054.0</ele><time>2026-05-02T14:33:22.45Z</time></trkpt><trkpt lat="45.8151322" lon="11.6110873"><ele>1055.0</ele><time>2026-05-02T14:33:23.449Z</time></trkpt><trkpt lat="45.8150945" lon="11.6111998"><ele>1051.0</ele><time>2026-05-02T14:33:24.449Z</time></trkpt><trkpt lat="45.8150515" lon="11.6112991"><ele>1047.0</ele><time>2026-05-02T14:33:25.45Z</time></trkpt><trkpt lat="45.8150038" lon="11.6114023"><ele>1043.0</ele><time>2026-05-02T14:33:26.45Z</time></trkpt><trkpt lat="45.8149601" lon="11.61151"><ele>1039.0</ele><time>2026-05-02T14:33:27.45Z</time></trkpt><trkpt lat="45.8149137" lon="11.6116233"><ele>1035.0</ele><time>2026-05-02T14:33:28.449Z</time></trkpt><trkpt lat="45.8148673" lon="11.6117327"><ele>1031.0</ele><time>2026-05-02T14:33:29.449Z</time></trkpt><trkpt lat="45.8148201" lon="11.6118492"><ele>1031.0</ele><time>2026-05-02T14:33:30.45Z</time></trkpt><trkpt lat="45.8147695" lon="11.6119615"><ele>1031.0</ele><time>2026-05-02T14:33:31.45Z</time></trkpt><trkpt lat="45.8147177" lon="11.6120762"><ele>1031.0</ele><time>2026-05-02T14:33:32.45Z</time></trkpt><trkpt lat="45.8146671" lon="11.6121953"><ele>1031.0</ele><time>2026-05-02T14:33:33.45Z</time></trkpt><trkpt lat="45.8146257" lon="11.6123108"><ele>1031.0</ele><time>2026-05-02T14:33:34.449Z</time></trkpt><trkpt lat="45.8145895" lon="11.6124354"><ele>1031.6</ele><time>2026-05-02T14:33:35.449Z</time></trkpt><trkpt lat="45.8145569" lon="11.6125676"><ele>1032.1999999999998</ele><time>2026-05-02T14:33:36.45Z</time></trkpt><trkpt lat="45.8145271" lon="11.6127028"><ele>1032.8000000000002</ele><time>2026-05-02T14:33:37.45Z</time></trkpt><trkpt lat="45.8144974" lon="11.6128379"><ele>1033.4</ele><time>2026-05-02T14:33:38.45Z</time></trkpt><trkpt lat="45.8144655" lon="11.6129714"><ele>1034.0</ele><time>2026-05-02T14:33:39.45Z</time></trkpt><trkpt lat="45.8144344" lon="11.6131048"><ele>1035.2</ele><time>2026-05-02T14:33:40.45Z</time></trkpt><trkpt lat="45.8144038" lon="11.6132373"><ele>1036.4</ele><time>2026-05-02T14:33:41.45Z</time></trkpt><trkpt lat="45.814371" lon="11.6133675"><ele>1037.6</ele><time>2026-05-02T14:33:42.45Z</time></trkpt><trkpt lat="45.8143367" lon="11.6135004"><ele>1038.8</ele><time>2026-05-02T14:33:43.45Z</time></trkpt><trkpt lat="45.8142996" lon="11.6136335"><ele>1040.0</ele><time>2026-05-02T14:33:44.45Z</time></trkpt><trkpt lat="45.8142586" lon="11.6137659"><ele>1035.8</ele><time>2026-05-02T14:33:45.45Z</time></trkpt><trkpt lat="45.8142149" lon="11.6138978"><ele>1031.6</ele><time>2026-05-02T14:33:46.45Z</time></trkpt><trkpt lat="45.8141687" lon="11.6140301"><ele>1027.4</ele><time>2026-05-02T14:33:47.45Z</time></trkpt><trkpt lat="45.814124" lon="11.6141599"><ele>1023.2</ele><time>2026-05-02T14:33:48.45Z</time></trkpt><trkpt lat="45.814079" lon="11.6142935"><ele>1019.0</ele><time>2026-05-02T14:33:49.45Z</time></trkpt><trkpt lat="45.8140277" lon="11.6144219"><ele>1020.0</ele><time>2026-05-02T14:33:50.45Z</time></trkpt><trkpt lat="45.8139758" lon="11.6145464"><ele>1021.0000000000001</ele><time>2026-05-02T14:33:51.45Z</time></trkpt><trkpt lat="45.8139243" lon="11.6146754"><ele>1022.0000000000001</ele><time>2026-05-02T14:33:52.45Z</time></trkpt><trkpt lat="45.8138701" lon="11.614802"><ele>1023.0</ele><time>2026-05-02T14:33:53.449Z</time></trkpt><trkpt lat="45.8138192" lon="11.6149281"><ele>1024.0</ele><time>2026-05-02T14:33:54.449Z</time></trkpt><trkpt lat="45.8137706" lon="11.6150561"><ele>1024.0</ele><time>2026-05-02T14:33:55.45Z</time></trkpt><trkpt lat="45.8137217" lon="11.61518"><ele>1024.0</ele><time>2026-05-02T14:33:56.449Z</time></trkpt><trkpt lat="45.813676" lon="11.6153039"><ele>1024.0</ele><time>2026-05-02T14:33:57.449Z</time></trkpt><trkpt lat="45.8136303" lon="11.6154288"><ele>1024.0</ele><time>2026-05-02T14:33:58.45Z</time></trkpt><trkpt lat="45.8135837" lon="11.6155525"><ele>1024.0</ele><time>2026-05-02T14:33:59.45Z</time></trkpt><trkpt lat="45.8135379" lon="11.6156793"><ele>1024.8</ele><time>2026-05-02T14:34:00.45Z</time></trkpt><trkpt lat="45.8134943" lon="11.6158101"><ele>1025.6000000000001</ele><time>2026-05-02T14:34:01.45Z</time></trkpt><trkpt lat="45.8134528" lon="11.615944"><ele>1026.4</ele><time>2026-05-02T14:34:02.45Z</time></trkpt><trkpt lat="45.813411" lon="11.6160783"><ele>1027.2</ele><time>2026-05-02T14:34:03.449Z</time></trkpt><trkpt lat="45.8133692" lon="11.6162192"><ele>1028.0</ele><time>2026-05-02T14:34:04.45Z</time></trkpt><trkpt lat="45.813328" lon="11.6163558"><ele>1025.2</ele><time>2026-05-02T14:34:05.45Z</time></trkpt><trkpt lat="45.8132838" lon="11.6164915"><ele>1022.4</ele><time>2026-05-02T14:34:06.45Z</time></trkpt><trkpt lat="45.8132407" lon="11.6166236"><ele>1019.6000000000001</ele><time>2026-05-02T14:34:07.45Z</time></trkpt><trkpt lat="45.8132012" lon="11.6167592"><ele>1016.8000000000001</ele><time>2026-05-02T14:34:08.45Z</time></trkpt><trkpt lat="45.8131589" lon="11.6168914"><ele>1014.0</ele><time>2026-05-02T14:34:09.45Z</time></trkpt><trkpt lat="45.81311" lon="11.6170192"><ele>1014.0</ele><time>2026-05-02T14:34:10.45Z</time></trkpt><trkpt lat="45.8130649" lon="11.6171467"><ele>1014.0000000000001</ele><time>2026-05-02T14:34:11.449Z</time></trkpt><trkpt lat="45.813021" lon="11.6172763"><ele>1014.0000000000001</ele><time>2026-05-02T14:34:12.449Z</time></trkpt><trkpt lat="45.8129814" lon="11.6174022"><ele>1014.0</ele><time>2026-05-02T14:34:13.451Z</time></trkpt><trkpt lat="45.8129384" lon="11.6175296"><ele>1014.0</ele><time>2026-05-02T14:34:14.451Z</time></trkpt><trkpt lat="45.8128961" lon="11.6176516"><ele>1014.0</ele><time>2026-05-02T14:34:15.451Z</time></trkpt><trkpt lat="45.8128526" lon="11.6177754"><ele>1014.0000000000001</ele><time>2026-05-02T14:34:16.451Z</time></trkpt><trkpt lat="45.8128078" lon="11.6179069"><ele>1014.0000000000001</ele><time>2026-05-02T14:34:17.451Z</time></trkpt><trkpt lat="45.8127628" lon="11.6180384"><ele>1014.0</ele><time>2026-05-02T14:34:18.45Z</time></trkpt><trkpt lat="45.8127197" lon="11.618169"><ele>1014.0</ele><time>2026-05-02T14:34:19.45Z</time></trkpt><trkpt lat="45.8126771" lon="11.6182924"><ele>1011.8000000000001</ele><time>2026-05-02T14:34:20.451Z</time></trkpt><trkpt lat="45.8126311" lon="11.6184129"><ele>1009.6000000000001</ele><time>2026-05-02T14:34:21.451Z</time></trkpt><trkpt lat="45.8125764" lon="11.61852"><ele>1007.4</ele><time>2026-05-02T14:34:22.451Z</time></trkpt><trkpt lat="45.8125115" lon="11.6186216"><ele>1005.2</ele><time>2026-05-02T14:34:23.451Z</time></trkpt><trkpt lat="45.8124327" lon="11.6187125"><ele>1003.0</ele><time>2026-05-02T14:34:24.451Z</time></trkpt><trkpt lat="45.8123478" lon="11.6187876"><ele>1003.0</ele><time>2026-05-02T14:34:25.451Z</time></trkpt><trkpt lat="45.8122621" lon="11.6188526"><ele>1003.0</ele><time>2026-05-02T14:34:26.451Z</time></trkpt><trkpt lat="45.8121749" lon="11.6189084"><ele>1003.0</ele><time>2026-05-02T14:34:27.451Z</time></trkpt><trkpt lat="45.8120882" lon="11.6189581"><ele>1003.0</ele><time>2026-05-02T14:34:28.451Z</time></trkpt><trkpt lat="45.8120029" lon="11.6190045"><ele>1003.0</ele><time>2026-05-02T14:34:29.451Z</time></trkpt><trkpt lat="45.811916" lon="11.6190521"><ele>1002.9999999999999</ele><time>2026-05-02T14:34:30.451Z</time></trkpt><trkpt lat="45.8118275" lon="11.6190943"><ele>1003.0</ele><time>2026-05-02T14:34:31.451Z</time></trkpt><trkpt lat="45.8117426" lon="11.6191354"><ele>1003.0</ele><time>2026-05-02T14:34:32.45Z</time></trkpt><trkpt lat="45.8116595" lon="11.6191785"><ele>1003.0</ele><time>2026-05-02T14:34:33.451Z</time></trkpt><trkpt lat="45.8115816" lon="11.6192185"><ele>1002.9999999999999</ele><time>2026-05-02T14:34:34.451Z</time></trkpt><trkpt lat="45.8114992" lon="11.6192539"><ele>1003.0</ele><time>2026-05-02T14:34:35.451Z</time></trkpt><trkpt lat="45.8114204" lon="11.6193023"><ele>1002.8333333333333</ele><time>2026-05-02T14:34:36.451Z</time></trkpt><trkpt lat="45.8113407" lon="11.6193518"><ele>1002.6666666666666</ele><time>2026-05-02T14:34:37.45Z</time></trkpt><trkpt lat="45.8112544" lon="11.6194008"><ele>1002.5</ele><time>2026-05-02T14:34:38.451Z</time></trkpt><trkpt lat="45.8111657" lon="11.6194403"><ele>1002.3333333333333</ele><time>2026-05-02T14:34:39.45Z</time></trkpt><trkpt lat="45.8110799" lon="11.6194785"><ele>1002.1666666666666</ele><time>2026-05-02T14:34:40.451Z</time></trkpt><trkpt lat="45.8109955" lon="11.6195076"><ele>1002.0</ele><time>2026-05-02T14:34:41.45Z</time></trkpt><trkpt lat="45.810903" lon="11.6195282"><ele>1002.0</ele><time>2026-05-02T14:34:42.451Z</time></trkpt><trkpt lat="45.8108079" lon="11.6195389"><ele>1002.0</ele><time>2026-05-02T14:34:43.451Z</time></trkpt><trkpt lat="45.8107116" lon="11.6195375"><ele>1002.0</ele><time>2026-05-02T14:34:44.451Z</time></trkpt><trkpt lat="45.8106236" lon="11.6195307"><ele>1002.0</ele><time>2026-05-02T14:34:45.45Z</time></trkpt><trkpt lat="45.8105346" lon="11.6195219"><ele>1002.0</ele><time>2026-05-02T14:34:46.451Z</time></trkpt><trkpt lat="45.810446" lon="11.6195182"><ele>1002.0</ele><time>2026-05-02T14:34:47.451Z</time></trkpt><trkpt lat="45.8103569" lon="11.6195128"><ele>1002.0</ele><time>2026-05-02T14:34:48.451Z</time></trkpt><trkpt lat="45.8102668" lon="11.6194996"><ele>1002.0</ele><time>2026-05-02T14:34:49.451Z</time></trkpt><trkpt lat="45.8101785" lon="11.6194866"><ele>1002.0</ele><time>2026-05-02T14:34:50.451Z</time></trkpt><trkpt lat="45.8100923" lon="11.6194799"><ele>1002.0</ele><time>2026-05-02T14:34:51.451Z</time></trkpt><trkpt lat="45.8100032" lon="11.6194669"><ele>1002.0</ele><time>2026-05-02T14:34:52.451Z</time></trkpt><trkpt lat="45.8099205" lon="11.6194544"><ele>997.5</ele><time>2026-05-02T14:34:53.451Z</time></trkpt><trkpt lat="45.8098393" lon="11.6194367"><ele>993.0</ele><time>2026-05-02T14:34:54.451Z</time></trkpt><trkpt lat="45.8097624" lon="11.6194191"><ele>988.5</ele><time>2026-05-02T14:34:55.451Z</time></trkpt><trkpt lat="45.8096757" lon="11.6194122"><ele>984.0</ele><time>2026-05-02T14:34:56.45Z</time></trkpt><trkpt lat="45.8095832" lon="11.6194107"><ele>979.5</ele><time>2026-05-02T14:34:57.451Z</time></trkpt><trkpt lat="45.8094978" lon="11.6194076"><ele>975.0</ele><time>2026-05-02T14:34:58.451Z</time></trkpt><trkpt lat="45.8094142" lon="11.6194014"><ele>975.0</ele><time>2026-05-02T14:34:59.451Z</time></trkpt><trkpt lat="45.8093357" lon="11.619399"><ele>975.0</ele><time>2026-05-02T14:35:00.451Z</time></trkpt><trkpt lat="45.8092586" lon="11.6194004"><ele>975.0</ele><time>2026-05-02T14:35:01.451Z</time></trkpt><trkpt lat="45.8091814" lon="11.6194134"><ele>975.0</ele><time>2026-05-02T14:35:02.451Z</time></trkpt><trkpt lat="45.8091042" lon="11.6194537"><ele>975.0</ele><time>2026-05-02T14:35:03.45Z</time></trkpt><trkpt lat="45.8090339" lon="11.61951"><ele>975.0</ele><time>2026-05-02T14:35:04.451Z</time></trkpt><trkpt lat="45.8089721" lon="11.6195851"><ele>977.0</ele><time>2026-05-02T14:35:05.45Z</time></trkpt><trkpt lat="45.8089146" lon="11.6196715"><ele>979.0</ele><time>2026-05-02T14:35:06.45Z</time></trkpt><trkpt lat="45.8088542" lon="11.6197619"><ele>981.0</ele><time>2026-05-02T14:35:07.451Z</time></trkpt><trkpt lat="45.8087903" lon="11.6198427"><ele>983.0</ele><time>2026-05-02T14:35:08.451Z</time></trkpt><trkpt lat="45.8087215" lon="11.6199089"><ele>985.0</ele><time>2026-05-02T14:35:09.451Z</time></trkpt><trkpt lat="45.8086449" lon="11.6199489"><ele>987.0</ele><time>2026-05-02T14:35:10.451Z</time></trkpt><trkpt lat="45.8085611" lon="11.619966"><ele>985.5</ele><time>2026-05-02T14:35:11.451Z</time></trkpt><trkpt lat="45.80847" lon="11.6199614"><ele>984.0</ele><time>2026-05-02T14:35:12.451Z</time></trkpt><trkpt lat="45.8083934" lon="11.6199205"><ele>982.5</ele><time>2026-05-02T14:35:13.451Z</time></trkpt><trkpt lat="45.8083196" lon="11.6198677"><ele>981.0</ele><time>2026-05-02T14:35:14.451Z</time></trkpt><trkpt lat="45.8082461" lon="11.6198031"><ele>979.5</ele><time>2026-05-02T14:35:15.451Z</time></trkpt><trkpt lat="45.8081661" lon="11.6197433"><ele>978.0</ele><time>2026-05-02T14:35:16.45Z</time></trkpt><trkpt lat="45.8080853" lon="11.6196895"><ele>978.0</ele><time>2026-05-02T14:35:17.451Z</time></trkpt><trkpt lat="45.8080052" lon="11.6196528"><ele>978.0</ele><time>2026-05-02T14:35:18.45Z</time></trkpt><trkpt lat="45.8079224" lon="11.6196226"><ele>978.0</ele><time>2026-05-02T14:35:19.451Z</time></trkpt><trkpt lat="45.8078391" lon="11.6196008"><ele>978.0</ele><time>2026-05-02T14:35:20.451Z</time></trkpt><trkpt lat="45.8077552" lon="11.6195872"><ele>978.0</ele><time>2026-05-02T14:35:21.452Z</time></trkpt><trkpt lat="45.8076691" lon="11.619577"><ele>978.0</ele><time>2026-05-02T14:35:22.451Z</time></trkpt><trkpt lat="45.8075834" lon="11.6195653"><ele>977.5</ele><time>2026-05-02T14:35:23.451Z</time></trkpt><trkpt lat="45.8074991" lon="11.6195493"><ele>977.0</ele><time>2026-05-02T14:35:24.452Z</time></trkpt><trkpt lat="45.8074171" lon="11.6195265"><ele>976.5</ele><time>2026-05-02T14:35:25.451Z</time></trkpt><trkpt lat="45.8073381" lon="11.6194917"><ele>976.0</ele><time>2026-05-02T14:35:26.452Z</time></trkpt><trkpt lat="45.8072622" lon="11.6194387"><ele>975.5</ele><time>2026-05-02T14:35:27.452Z</time></trkpt><trkpt lat="45.8071858" lon="11.6193796"><ele>975.0</ele><time>2026-05-02T14:35:28.452Z</time></trkpt><trkpt lat="45.8071072" lon="11.6193277"><ele>972.8333333333334</ele><time>2026-05-02T14:35:29.452Z</time></trkpt><trkpt lat="45.8070257" lon="11.6192892"><ele>970.6666666666667</ele><time>2026-05-02T14:35:30.452Z</time></trkpt><trkpt lat="45.8069436" lon="11.6192656"><ele>968.5</ele><time>2026-05-02T14:35:31.452Z</time></trkpt><trkpt lat="45.80686" lon="11.619257"><ele>966.3333333333334</ele><time>2026-05-02T14:35:32.452Z</time></trkpt><trkpt lat="45.8067789" lon="11.6192677"><ele>964.1666666666667</ele><time>2026-05-02T14:35:33.452Z</time></trkpt><trkpt lat="45.8066988" lon="11.6192904"><ele>962.0</ele><time>2026-05-02T14:35:34.452Z</time></trkpt><trkpt lat="45.8066249" lon="11.6193196"><ele>962.0000000000001</ele><time>2026-05-02T14:35:35.451Z</time></trkpt><trkpt lat="45.8065526" lon="11.6193594"><ele>962.0</ele><time>2026-05-02T14:35:36.452Z</time></trkpt><trkpt lat="45.8064797" lon="11.6194188"><ele>962.0</ele><time>2026-05-02T14:35:37.452Z</time></trkpt><trkpt lat="45.806413" lon="11.6194979"><ele>962.0</ele><time>2026-05-02T14:35:38.452Z</time></trkpt><trkpt lat="45.8063619" lon="11.6195947"><ele>962.0000000000001</ele><time>2026-05-02T14:35:39.452Z</time></trkpt><trkpt lat="45.8063221" lon="11.6197118"><ele>962.0</ele><time>2026-05-02T14:35:40.452Z</time></trkpt><trkpt lat="45.8062974" lon="11.6198354"><ele>962.3333333333334</ele><time>2026-05-02T14:35:41.451Z</time></trkpt><trkpt lat="45.8062854" lon="11.6199587"><ele>962.6666666666667</ele><time>2026-05-02T14:35:42.452Z</time></trkpt><trkpt lat="45.8062888" lon="11.6200825"><ele>963.0</ele><time>2026-05-02T14:35:43.452Z</time></trkpt><trkpt lat="45.8063055" lon="11.620209"><ele>963.3333333333333</ele><time>2026-05-02T14:35:44.452Z</time></trkpt><trkpt lat="45.8063366" lon="11.6203362"><ele>963.6666666666666</ele><time>2026-05-02T14:35:45.451Z</time></trkpt><trkpt lat="45.806372" lon="11.6204495"><ele>964.0</ele><time>2026-05-02T14:35:46.451Z</time></trkpt><trkpt lat="45.8064068" lon="11.6205609"><ele>963.9999999999999</ele><time>2026-05-02T14:35:47.451Z</time></trkpt><trkpt lat="45.8064375" lon="11.6206703"><ele>964.0</ele><time>2026-05-02T14:35:48.452Z</time></trkpt><trkpt lat="45.8064664" lon="11.620773"><ele>964.0</ele><time>2026-05-02T14:35:49.452Z</time></trkpt><trkpt lat="45.8064944" lon="11.6208725"><ele>964.0</ele><time>2026-05-02T14:35:50.452Z</time></trkpt><trkpt lat="45.8065114" lon="11.6209742"><ele>963.9999999999999</ele><time>2026-05-02T14:35:51.452Z</time></trkpt><trkpt lat="45.8065086" lon="11.6210792"><ele>964.0</ele><time>2026-05-02T14:35:52.452Z</time></trkpt><trkpt lat="45.8064821" lon="11.6211838"><ele>965.6666666666666</ele><time>2026-05-02T14:35:53.451Z</time></trkpt><trkpt lat="45.806435" lon="11.6212694"><ele>967.3333333333333</ele><time>2026-05-02T14:35:54.451Z</time></trkpt><trkpt lat="45.806373" lon="11.6213311"><ele>969.0</ele><time>2026-05-02T14:35:55.452Z</time></trkpt><trkpt lat="45.8063053" lon="11.6213772"><ele>970.6666666666667</ele><time>2026-05-02T14:35:56.451Z</time></trkpt><trkpt lat="45.8062351" lon="11.6214062"><ele>972.3333333333334</ele><time>2026-05-02T14:35:57.452Z</time></trkpt><trkpt lat="45.8061682" lon="11.6214122"><ele>974.0</ele><time>2026-05-02T14:35:58.452Z</time></trkpt><trkpt lat="45.8060479" lon="11.6214158"><ele>972.5000000000001</ele><time>2026-05-02T14:36:00.452Z</time></trkpt><trkpt lat="45.8059308" lon="11.6214135"><ele>971.0</ele><time>2026-05-02T14:36:02.451Z</time></trkpt><trkpt lat="45.8058677" lon="11.6214042"><ele>969.5</ele><time>2026-05-02T14:36:03.452Z</time></trkpt><trkpt lat="45.8058015" lon="11.6213964"><ele>968.0</ele><time>2026-05-02T14:36:04.452Z</time></trkpt><trkpt lat="45.8057295" lon="11.6213893"><ele>966.5000000000001</ele><time>2026-05-02T14:36:05.452Z</time></trkpt><trkpt lat="45.8056558" lon="11.6213884"><ele>965.0</ele><time>2026-05-02T14:36:06.451Z</time></trkpt><trkpt lat="45.8055813" lon="11.6213897"><ele>965.0000000000001</ele><time>2026-05-02T14:36:07.452Z</time></trkpt><trkpt lat="45.8055057" lon="11.6213924"><ele>965.0</ele><time>2026-05-02T14:36:08.452Z</time></trkpt><trkpt lat="45.8054276" lon="11.6213986"><ele>965.0</ele><time>2026-05-02T14:36:09.452Z</time></trkpt><trkpt lat="45.8053489" lon="11.6214112"><ele>965.0</ele><time>2026-05-02T14:36:10.452Z</time></trkpt><trkpt lat="45.805268" lon="11.6214314"><ele>965.0000000000001</ele><time>2026-05-02T14:36:11.452Z</time></trkpt><trkpt lat="45.8051865" lon="11.6214691"><ele>965.0</ele><time>2026-05-02T14:36:12.452Z</time></trkpt><trkpt lat="45.8051166" lon="11.6215301"><ele>964.8333333333334</ele><time>2026-05-02T14:36:13.452Z</time></trkpt><trkpt lat="45.8050588" lon="11.6216083"><ele>964.6666666666667</ele><time>2026-05-02T14:36:14.452Z</time></trkpt><trkpt lat="45.8050091" lon="11.6216982"><ele>964.5</ele><time>2026-05-02T14:36:15.452Z</time></trkpt><trkpt lat="45.8049513" lon="11.6217758"><ele>964.3333333333333</ele><time>2026-05-02T14:36:16.452Z</time></trkpt><trkpt lat="45.8049069" lon="11.6218588"><ele>964.1666666666666</ele><time>2026-05-02T14:36:17.452Z</time></trkpt><trkpt lat="45.8048395" lon="11.6219374"><ele>964.0</ele><time>2026-05-02T14:36:18.452Z</time></trkpt><trkpt lat="45.8047615" lon="11.6220012"><ele>963.9999999999999</ele><time>2026-05-02T14:36:19.452Z</time></trkpt><trkpt lat="45.8046721" lon="11.6220213"><ele>964.0</ele><time>2026-05-02T14:36:20.452Z</time></trkpt><trkpt lat="45.8045865" lon="11.6220173"><ele>964.0</ele><time>2026-05-02T14:36:21.452Z</time></trkpt><trkpt lat="45.8045138" lon="11.6220235"><ele>964.0</ele><time>2026-05-02T14:36:22.452Z</time></trkpt><trkpt lat="45.8044436" lon="11.6220331"><ele>963.9999999999999</ele><time>2026-05-02T14:36:23.452Z</time></trkpt><trkpt lat="45.8043717" lon="11.6220457"><ele>964.0</ele><time>2026-05-02T14:36:24.451Z</time></trkpt><trkpt lat="45.8042994" lon="11.6220656"><ele>959.9999999999999</ele><time>2026-05-02T14:36:25.451Z</time></trkpt><trkpt lat="45.8042308" lon="11.6220967"><ele>956.0</ele><time>2026-05-02T14:36:26.451Z</time></trkpt><trkpt lat="45.8041618" lon="11.6221361"><ele>952.0</ele><time>2026-05-02T14:36:27.453Z</time></trkpt><trkpt lat="45.8040934" lon="11.6221917"><ele>948.0</ele><time>2026-05-02T14:36:28.452Z</time></trkpt><trkpt lat="45.8040266" lon="11.6222563"><ele>943.9999999999999</ele><time>2026-05-02T14:36:29.453Z</time></trkpt><trkpt lat="45.8039611" lon="11.6223383"><ele>940.0</ele><time>2026-05-02T14:36:30.453Z</time></trkpt><trkpt lat="45.8038926" lon="11.6224201"><ele>939.9999999999999</ele><time>2026-05-02T14:36:31.453Z</time></trkpt><trkpt lat="45.8038215" lon="11.6225076"><ele>940.0</ele><time>2026-05-02T14:36:32.453Z</time></trkpt><trkpt lat="45.8037451" lon="11.6225902"><ele>940.0</ele><time>2026-05-02T14:36:33.452Z</time></trkpt><trkpt lat="45.8036747" lon="11.6226595"><ele>940.0</ele><time>2026-05-02T14:36:34.453Z</time></trkpt><trkpt lat="45.8036068" lon="11.6227232"><ele>939.9999999999999</ele><time>2026-05-02T14:36:35.453Z</time></trkpt><trkpt lat="45.8035383" lon="11.6227924"><ele>940.0</ele><time>2026-05-02T14:36:36.452Z</time></trkpt><trkpt lat="45.8034626" lon="11.6228659"><ele>938.3333333333333</ele><time>2026-05-02T14:36:37.453Z</time></trkpt><trkpt lat="45.803391" lon="11.6229353"><ele>936.6666666666666</ele><time>2026-05-02T14:36:38.452Z</time></trkpt><trkpt lat="45.8033259" lon="11.6230028"><ele>935.0</ele><time>2026-05-02T14:36:39.453Z</time></trkpt><trkpt lat="45.8032648" lon="11.6230648"><ele>933.3333333333333</ele><time>2026-05-02T14:36:40.452Z</time></trkpt><trkpt lat="45.8032048" lon="11.6231304"><ele>931.6666666666666</ele><time>2026-05-02T14:36:41.453Z</time></trkpt><trkpt lat="45.8031508" lon="11.6231886"><ele>930.0</ele><time>2026-05-02T14:36:42.453Z</time></trkpt><trkpt lat="45.8030612" lon="11.6232706"><ele>930.0</ele><time>2026-05-02T14:36:44.453Z</time></trkpt><trkpt lat="45.8029916" lon="11.623338"><ele>930.0</ele><time>2026-05-02T14:36:46.453Z</time></trkpt><trkpt lat="45.8029145" lon="11.6233958"><ele>930.0</ele><time>2026-05-02T14:36:48.453Z</time></trkpt><trkpt lat="45.8028048" lon="11.623402"><ele>930.0</ele><time>2026-05-02T14:36:50.453Z</time></trkpt><trkpt lat="45.8027194" lon="11.6232843"><ele>930.0</ele><time>2026-05-02T14:36:52.453Z</time></trkpt><trkpt lat="45.8026638" lon="11.6232042"><ele>928.8333333333334</ele><time>2026-05-02T14:36:54.452Z</time></trkpt><trkpt lat="45.8025684" lon="11.6231988"><ele>927.6666666666667</ele><time>2026-05-02T14:36:56.453Z</time></trkpt><trkpt lat="45.8024782" lon="11.6232346"><ele>926.5</ele><time>2026-05-02T14:36:58.453Z</time></trkpt><trkpt lat="45.802409" lon="11.623244"><ele>925.3333333333334</ele><time>2026-05-02T14:37:00.453Z</time></trkpt><trkpt lat="45.8023542" lon="11.6232971"><ele>924.1666666666667</ele><time>2026-05-02T14:38:44.453Z</time></trkpt><trkpt lat="45.8024139" lon="11.6233307"><ele>923.0</ele><time>2026-05-02T14:39:01.455Z</time></trkpt><trkpt lat="45.8024852" lon="11.6233002"><ele>923.0000000000001</ele><time>2026-05-02T14:39:03.455Z</time></trkpt><trkpt lat="45.8025437" lon="11.6232655"><ele>923.0</ele><time>2026-05-02T14:39:05.455Z</time></trkpt><trkpt lat="45.8026186" lon="11.6232538"><ele>923.0</ele><time>2026-05-02T14:39:08.455Z</time></trkpt><trkpt lat="45.8026971" lon="11.6232457"><ele>923.0</ele><time>2026-05-02T14:39:11.454Z</time></trkpt><trkpt lat="45.8027751" lon="11.6232425"><ele>923.0000000000001</ele><time>2026-05-02T14:39:14.455Z</time></trkpt><trkpt lat="45.8028644" lon="11.6231787"><ele>923.0</ele><time>2026-05-02T14:39:17.454Z</time></trkpt><trkpt lat="45.8029355" lon="11.6230846"><ele>922.2</ele><time>2026-05-02T14:39:19.455Z</time></trkpt><trkpt lat="45.8030163" lon="11.6230084"><ele>921.4</ele><time>2026-05-02T14:39:21.455Z</time></trkpt><trkpt lat="45.8031039" lon="11.6229134"><ele>920.6000000000001</ele><time>2026-05-02T14:39:23.455Z</time></trkpt><trkpt lat="45.8031973" lon="11.6228228"><ele>919.8000000000001</ele><time>2026-05-02T14:39:25.455Z</time></trkpt><trkpt lat="45.8032967" lon="11.6227316"><ele>919.0</ele><time>2026-05-02T14:39:27.455Z</time></trkpt><trkpt lat="45.8033961" lon="11.6226447"><ele>919.0</ele><time>2026-05-02T14:39:29.455Z</time></trkpt><trkpt lat="45.8034807" lon="11.6225193"><ele>919.0000000000001</ele><time>2026-05-02T14:39:31.455Z</time></trkpt><trkpt lat="45.8035247" lon="11.622453"><ele>919.0000000000001</ele><time>2026-05-02T14:39:32.454Z</time></trkpt><trkpt lat="45.8036154" lon="11.6223377"><ele>919.0</ele><time>2026-05-02T14:39:34.454Z</time></trkpt><trkpt lat="45.8036638" lon="11.6222788"><ele>919.0</ele><time>2026-05-02T14:39:35.454Z</time></trkpt><trkpt lat="45.8037489" lon="11.6221493"><ele>920.4000000000001</ele><time>2026-05-02T14:39:37.455Z</time></trkpt><trkpt lat="45.8038431" lon="11.6220408"><ele>921.8000000000001</ele><time>2026-05-02T14:39:39.455Z</time></trkpt><trkpt lat="45.8039346" lon="11.6219345"><ele>923.1999999999999</ele><time>2026-05-02T14:39:41.454Z</time></trkpt><trkpt lat="45.8040215" lon="11.6218378"><ele>924.5999999999999</ele><time>2026-05-02T14:39:43.455Z</time></trkpt><trkpt lat="45.8040957" lon="11.6217435"><ele>926.0</ele><time>2026-05-02T14:39:45.455Z</time></trkpt><trkpt lat="45.8041751" lon="11.6216493"><ele>926.0</ele><time>2026-05-02T14:39:47.455Z</time></trkpt><trkpt lat="45.8042514" lon="11.6215465"><ele>925.9999999999999</ele><time>2026-05-02T14:39:49.455Z</time></trkpt><trkpt lat="45.8043225" lon="11.6214275"><ele>925.9999999999999</ele><time>2026-05-02T14:39:51.456Z</time></trkpt><trkpt lat="45.8044044" lon="11.62133"><ele>926.0</ele><time>2026-05-02T14:39:53.454Z</time></trkpt><trkpt lat="45.8044857" lon="11.6212326"><ele>926.0</ele><time>2026-05-02T14:39:55.455Z</time></trkpt><trkpt lat="45.8045694" lon="11.621113"><ele>926.0</ele><time>2026-05-02T14:39:57.454Z</time></trkpt><trkpt lat="45.8046557" lon="11.6209954"><ele>926.0</ele><time>2026-05-02T14:39:59.455Z</time></trkpt><trkpt lat="45.8047548" lon="11.620884"><ele>926.0</ele><time>2026-05-02T14:40:01.454Z</time></trkpt><trkpt lat="45.8048587" lon="11.6207844"><ele>926.0</ele><time>2026-05-02T14:40:03.455Z</time></trkpt><trkpt lat="45.8049662" lon="11.6207166"><ele>926.0</ele><time>2026-05-02T14:40:05.456Z</time></trkpt><trkpt lat="45.8050753" lon="11.6206829"><ele>925.9999999999999</ele><time>2026-05-02T14:40:07.455Z</time></trkpt><trkpt lat="45.8051963" lon="11.6206471"><ele>925.9999999999999</ele><time>2026-05-02T14:40:09.456Z</time></trkpt><trkpt lat="45.8052578" lon="11.6206247"><ele>926.0</ele><time>2026-05-02T14:40:10.456Z</time></trkpt><trkpt lat="45.8053698" lon="11.6205863"><ele>926.0</ele><time>2026-05-02T14:40:12.456Z</time></trkpt><trkpt lat="45.8054697" lon="11.6205061"><ele>928.1999999999999</ele><time>2026-05-02T14:40:14.456Z</time></trkpt><trkpt lat="45.8055393" lon="11.6203803"><ele>930.3999999999999</ele><time>2026-05-02T14:40:16.456Z</time></trkpt><trkpt lat="45.8055612" lon="11.6202244"><ele>932.6</ele><time>2026-05-02T14:40:18.455Z</time></trkpt><trkpt lat="45.8055384" lon="11.6200653"><ele>934.8</ele><time>2026-05-02T14:40:20.455Z</time></trkpt><trkpt lat="45.8055184" lon="11.6199755"><ele>937.0</ele><time>2026-05-02T14:40:21.456Z</time></trkpt><trkpt lat="45.8055001" lon="11.6198853"><ele>936.9999999999999</ele><time>2026-05-02T14:40:22.456Z</time></trkpt><trkpt lat="45.8054765" lon="11.6197843"><ele>937.0</ele><time>2026-05-02T14:40:23.455Z</time></trkpt><trkpt lat="45.805454" lon="11.6196826"><ele>937.0</ele><time>2026-05-02T14:40:24.456Z</time></trkpt><trkpt lat="45.8054285" lon="11.6195759"><ele>937.0</ele><time>2026-05-02T14:40:25.456Z</time></trkpt><trkpt lat="45.8053996" lon="11.6194672"><ele>936.9999999999999</ele><time>2026-05-02T14:40:26.456Z</time></trkpt><trkpt lat="45.8053712" lon="11.6193624"><ele>937.0</ele><time>2026-05-02T14:40:27.455Z</time></trkpt><trkpt lat="45.805345" lon="11.6192601"><ele>936.8333333333333</ele><time>2026-05-02T14:40:28.456Z</time></trkpt><trkpt lat="45.8053209" lon="11.6191614"><ele>936.6666666666666</ele><time>2026-05-02T14:40:29.456Z</time></trkpt><trkpt lat="45.8052999" lon="11.6190656"><ele>936.5</ele><time>2026-05-02T14:40:30.455Z</time></trkpt><trkpt lat="45.8052758" lon="11.6189613"><ele>936.3333333333333</ele><time>2026-05-02T14:40:31.455Z</time></trkpt><trkpt lat="45.805249" lon="11.6188548"><ele>936.1666666666666</ele><time>2026-05-02T14:40:32.455Z</time></trkpt><trkpt lat="45.8052262" lon="11.6187473"><ele>936.0</ele><time>2026-05-02T14:40:33.456Z</time></trkpt><trkpt lat="45.8052088" lon="11.6186381"><ele>935.1666666666666</ele><time>2026-05-02T14:40:34.455Z</time></trkpt><trkpt lat="45.8051905" lon="11.618523"><ele>934.3333333333333</ele><time>2026-05-02T14:40:35.456Z</time></trkpt><trkpt lat="45.8051713" lon="11.618402"><ele>933.5</ele><time>2026-05-02T14:40:36.456Z</time></trkpt><trkpt lat="45.8051526" lon="11.6182821"><ele>932.6666666666666</ele><time>2026-05-02T14:40:37.456Z</time></trkpt><trkpt lat="45.8051382" lon="11.6181636"><ele>931.8333333333333</ele><time>2026-05-02T14:40:38.455Z</time></trkpt><trkpt lat="45.8051185" lon="11.6180408"><ele>931.0</ele><time>2026-05-02T14:40:39.456Z</time></trkpt><trkpt lat="45.805102" lon="11.6179141"><ele>926.3333333333333</ele><time>2026-05-02T14:40:40.456Z</time></trkpt><trkpt lat="45.805089" lon="11.6177938"><ele>921.6666666666666</ele><time>2026-05-02T14:40:41.455Z</time></trkpt><trkpt lat="45.8050789" lon="11.6176686"><ele>917.0</ele><time>2026-05-02T14:40:42.456Z</time></trkpt><trkpt lat="45.8050755" lon="11.6175401"><ele>912.3333333333333</ele><time>2026-05-02T14:40:43.455Z</time></trkpt><trkpt lat="45.8050759" lon="11.617409"><ele>907.6666666666666</ele><time>2026-05-02T14:40:44.456Z</time></trkpt><trkpt lat="45.8050776" lon="11.6172808"><ele>903.0</ele><time>2026-05-02T14:40:45.456Z</time></trkpt><trkpt lat="45.8050781" lon="11.6171507"><ele>903.0</ele><time>2026-05-02T14:40:46.456Z</time></trkpt><trkpt lat="45.8050778" lon="11.6170204"><ele>903.0</ele><time>2026-05-02T14:40:47.456Z</time></trkpt><trkpt lat="45.8050764" lon="11.6168952"><ele>903.0</ele><time>2026-05-02T14:40:48.455Z</time></trkpt><trkpt lat="45.8050782" lon="11.6167735"><ele>903.0</ele><time>2026-05-02T14:40:49.456Z</time></trkpt><trkpt lat="45.8050833" lon="11.6166516"><ele>903.0</ele><time>2026-05-02T14:40:50.456Z</time></trkpt><trkpt lat="45.8050884" lon="11.6165276"><ele>903.0</ele><time>2026-05-02T14:40:51.456Z</time></trkpt><trkpt lat="45.8050942" lon="11.6164031"><ele>902.5</ele><time>2026-05-02T14:40:52.456Z</time></trkpt><trkpt lat="45.805102" lon="11.616285"><ele>902.0</ele><time>2026-05-02T14:40:53.455Z</time></trkpt><trkpt lat="45.805104" lon="11.6161649"><ele>901.5</ele><time>2026-05-02T14:40:54.455Z</time></trkpt><trkpt lat="45.8051059" lon="11.6160498"><ele>901.0</ele><time>2026-05-02T14:40:55.455Z</time></trkpt><trkpt lat="45.8051051" lon="11.6159411"><ele>900.5</ele><time>2026-05-02T14:40:56.456Z</time></trkpt><trkpt lat="45.8050997" lon="11.6158318"><ele>900.0</ele><time>2026-05-02T14:40:57.455Z</time></trkpt><trkpt lat="45.8050869" lon="11.6157203"><ele>899.2857142857144</ele><time>2026-05-02T14:40:58.456Z</time></trkpt><trkpt lat="45.8050731" lon="11.6156176"><ele>898.5714285714287</ele><time>2026-05-02T14:40:59.455Z</time></trkpt><trkpt lat="45.8050534" lon="11.6155155"><ele>897.8571428571429</ele><time>2026-05-02T14:41:00.456Z</time></trkpt><trkpt lat="45.8050311" lon="11.6154149"><ele>897.1428571428572</ele><time>2026-05-02T14:41:01.456Z</time></trkpt><trkpt lat="45.8050051" lon="11.6153172"><ele>896.4285714285716</ele><time>2026-05-02T14:41:02.456Z</time></trkpt><trkpt lat="45.8049757" lon="11.615221"><ele>895.7142857142857</ele><time>2026-05-02T14:41:03.455Z</time></trkpt><trkpt lat="45.8049444" lon="11.6151254"><ele>895.0</ele><time>2026-05-02T14:41:04.456Z</time></trkpt><trkpt lat="45.8049101" lon="11.6150296"><ele>894.8333333333333</ele><time>2026-05-02T14:41:05.456Z</time></trkpt><trkpt lat="45.8048717" lon="11.6149357"><ele>894.6666666666666</ele><time>2026-05-02T14:41:06.456Z</time></trkpt><trkpt lat="45.8048281" lon="11.614836"><ele>894.5</ele><time>2026-05-02T14:41:07.457Z</time></trkpt><trkpt lat="45.8047847" lon="11.6147363"><ele>894.3333333333333</ele><time>2026-05-02T14:41:08.456Z</time></trkpt><trkpt lat="45.8047418" lon="11.6146355"><ele>894.1666666666666</ele><time>2026-05-02T14:41:09.456Z</time></trkpt><trkpt lat="45.8046966" lon="11.6145325"><ele>894.0</ele><time>2026-05-02T14:41:10.456Z</time></trkpt><trkpt lat="45.8046522" lon="11.6144278"><ele>892.5</ele><time>2026-05-02T14:41:11.456Z</time></trkpt><trkpt lat="45.804604" lon="11.6143243"><ele>891.0</ele><time>2026-05-02T14:41:12.455Z</time></trkpt><trkpt lat="45.8045495" lon="11.6142233"><ele>889.5</ele><time>2026-05-02T14:41:13.456Z</time></trkpt><trkpt lat="45.8044953" lon="11.6141287"><ele>888.0</ele><time>2026-05-02T14:41:14.456Z</time></trkpt><trkpt lat="45.8044431" lon="11.6140451"><ele>886.5</ele><time>2026-05-02T14:41:15.456Z</time></trkpt><trkpt lat="45.8043931" lon="11.6139629"><ele>885.0</ele><time>2026-05-02T14:41:16.455Z</time></trkpt><trkpt lat="45.8043424" lon="11.6138773"><ele>884.3333333333334</ele><time>2026-05-02T14:41:17.455Z</time></trkpt><trkpt lat="45.804291" lon="11.613792"><ele>883.6666666666667</ele><time>2026-05-02T14:41:18.457Z</time></trkpt><trkpt lat="45.8042369" lon="11.6137079"><ele>883.0</ele><time>2026-05-02T14:41:19.456Z</time></trkpt><trkpt lat="45.8041777" lon="11.6136273"><ele>882.3333333333334</ele><time>2026-05-02T14:41:20.457Z</time></trkpt><trkpt lat="45.8041198" lon="11.6135529"><ele>881.6666666666667</ele><time>2026-05-02T14:41:21.456Z</time></trkpt><trkpt lat="45.80406" lon="11.6134772"><ele>881.0</ele><time>2026-05-02T14:41:22.457Z</time></trkpt><trkpt lat="45.8040029" lon="11.6133951"><ele>880.8571428571428</ele><time>2026-05-02T14:41:23.456Z</time></trkpt><trkpt lat="45.8039462" lon="11.6133144"><ele>880.7142857142858</ele><time>2026-05-02T14:41:24.457Z</time></trkpt><trkpt lat="45.8038919" lon="11.6132351"><ele>880.5714285714286</ele><time>2026-05-02T14:41:25.457Z</time></trkpt><trkpt lat="45.8038402" lon="11.6131589"><ele>880.4285714285713</ele><time>2026-05-02T14:41:26.457Z</time></trkpt><trkpt lat="45.8037891" lon="11.6130809"><ele>880.2857142857142</ele><time>2026-05-02T14:41:27.457Z</time></trkpt><trkpt lat="45.8037443" lon="11.612999"><ele>880.1428571428571</ele><time>2026-05-02T14:41:28.457Z</time></trkpt><trkpt lat="45.8036965" lon="11.6129262"><ele>880.0</ele><time>2026-05-02T14:41:29.457Z</time></trkpt><trkpt lat="45.8036496" lon="11.6128503"><ele>879.4285714285713</ele><time>2026-05-02T14:41:30.457Z</time></trkpt><trkpt lat="45.8036065" lon="11.6127704"><ele>878.8571428571429</ele><time>2026-05-02T14:41:31.457Z</time></trkpt><trkpt lat="45.8035589" lon="11.6126941"><ele>878.2857142857142</ele><time>2026-05-02T14:41:32.457Z</time></trkpt><trkpt lat="45.8035132" lon="11.6126219"><ele>877.7142857142857</ele><time>2026-05-02T14:41:33.457Z</time></trkpt><trkpt lat="45.8034615" lon="11.6125472"><ele>877.1428571428571</ele><time>2026-05-02T14:41:34.456Z</time></trkpt><trkpt lat="45.803415" lon="11.6124749"><ele>876.5714285714286</ele><time>2026-05-02T14:41:35.457Z</time></trkpt><trkpt lat="45.8033722" lon="11.6123947"><ele>876.0</ele><time>2026-05-02T14:41:36.457Z</time></trkpt><trkpt lat="45.8033232" lon="11.6123145"><ele>876.0</ele><time>2026-05-02T14:41:37.457Z</time></trkpt><trkpt lat="45.8032782" lon="11.6122358"><ele>876.0</ele><time>2026-05-02T14:41:38.457Z</time></trkpt><trkpt lat="45.8032363" lon="11.6121538"><ele>876.0</ele><time>2026-05-02T14:41:39.457Z</time></trkpt><trkpt lat="45.8031977" lon="11.6120591"><ele>876.0</ele><time>2026-05-02T14:41:40.457Z</time></trkpt><trkpt lat="45.8031597" lon="11.611973"><ele>876.0</ele><time>2026-05-02T14:41:41.457Z</time></trkpt><trkpt lat="45.8031242" lon="11.6118816"><ele>876.0</ele><time>2026-05-02T14:41:42.456Z</time></trkpt><trkpt lat="45.8030854" lon="11.6117906"><ele>876.0</ele><time>2026-05-02T14:41:43.456Z</time></trkpt><trkpt lat="45.8030455" lon="11.6117012"><ele>875.5714285714286</ele><time>2026-05-02T14:41:44.457Z</time></trkpt><trkpt lat="45.8030058" lon="11.6116155"><ele>875.1428571428571</ele><time>2026-05-02T14:41:45.456Z</time></trkpt><trkpt lat="45.8029643" lon="11.6115342"><ele>874.7142857142857</ele><time>2026-05-02T14:41:46.456Z</time></trkpt><trkpt lat="45.8029241" lon="11.6114556"><ele>874.2857142857142</ele><time>2026-05-02T14:41:47.457Z</time></trkpt><trkpt lat="45.8028878" lon="11.6113745"><ele>873.8571428571429</ele><time>2026-05-02T14:41:48.457Z</time></trkpt><trkpt lat="45.8028466" lon="11.6113004"><ele>873.4285714285713</ele><time>2026-05-02T14:41:49.456Z</time></trkpt><trkpt lat="45.8028031" lon="11.6112247"><ele>873.0</ele><time>2026-05-02T14:41:50.457Z</time></trkpt><trkpt lat="45.8027593" lon="11.6111498"><ele>872.6666666666666</ele><time>2026-05-02T14:41:51.456Z</time></trkpt><trkpt lat="45.8027153" lon="11.6110725"><ele>872.3333333333333</ele><time>2026-05-02T14:41:52.457Z</time></trkpt><trkpt lat="45.8026727" lon="11.6109957"><ele>872.0</ele><time>2026-05-02T14:41:53.457Z</time></trkpt><trkpt lat="45.8026308" lon="11.6109236"><ele>871.6666666666666</ele><time>2026-05-02T14:41:54.457Z</time></trkpt><trkpt lat="45.8025524" lon="11.610792"><ele>871.3333333333333</ele><time>2026-05-02T14:41:56.456Z</time></trkpt><trkpt lat="45.8024839" lon="11.6106724"><ele>871.0</ele><time>2026-05-02T14:41:58.457Z</time></trkpt><trkpt lat="45.802412" lon="11.6105484"><ele>871.0</ele><time>2026-05-02T14:42:00.457Z</time></trkpt><trkpt lat="45.8023397" lon="11.610409"><ele>870.9999999999999</ele><time>2026-05-02T14:42:02.457Z</time></trkpt><trkpt lat="45.8022582" lon="11.6102854"><ele>870.9999999999999</ele><time>2026-05-02T14:42:04.457Z</time></trkpt><trkpt lat="45.8021771" lon="11.6101565"><ele>871.0</ele><time>2026-05-02T14:42:06.457Z</time></trkpt><trkpt lat="45.8021312" lon="11.6100902"><ele>871.0</ele><time>2026-05-02T14:42:07.457Z</time></trkpt><trkpt lat="45.8020808" lon="11.6100272"><ele>870.4285714285714</ele><time>2026-05-02T14:42:08.457Z</time></trkpt><trkpt lat="45.8020312" lon="11.60996"><ele>869.8571428571429</ele><time>2026-05-02T14:42:09.456Z</time></trkpt><trkpt lat="45.8019825" lon="11.6098865"><ele>869.2857142857142</ele><time>2026-05-02T14:42:10.456Z</time></trkpt><trkpt lat="45.8019317" lon="11.6098103"><ele>868.7142857142858</ele><time>2026-05-02T14:42:11.457Z</time></trkpt><trkpt lat="45.8018759" lon="11.6097299"><ele>868.1428571428572</ele><time>2026-05-02T14:42:12.457Z</time></trkpt><trkpt lat="45.8018245" lon="11.6096552"><ele>867.5714285714286</ele><time>2026-05-02T14:42:13.457Z</time></trkpt><trkpt lat="45.801779" lon="11.6095924"><ele>867.0</ele><time>2026-05-02T14:42:14.457Z</time></trkpt><trkpt lat="45.8016966" lon="11.6095189"><ele>866.6666666666666</ele><time>2026-05-02T14:42:16.457Z</time></trkpt><trkpt lat="45.8015885" lon="11.6095732"><ele>866.3333333333333</ele><time>2026-05-02T14:42:18.456Z</time></trkpt><trkpt lat="45.80155" lon="11.6096633"><ele>866.0</ele><time>2026-05-02T14:42:19.457Z</time></trkpt><trkpt lat="45.8015278" lon="11.6097721"><ele>865.6666666666666</ele><time>2026-05-02T14:42:20.456Z</time></trkpt><trkpt lat="45.8015303" lon="11.6098784"><ele>865.3333333333333</ele><time>2026-05-02T14:42:21.456Z</time></trkpt><trkpt lat="45.8015496" lon="11.6099887"><ele>865.0</ele><time>2026-05-02T14:42:22.457Z</time></trkpt><trkpt lat="45.801574" lon="11.6100895"><ele>865.0</ele><time>2026-05-02T14:42:23.457Z</time></trkpt><trkpt lat="45.8015986" lon="11.6101875"><ele>865.0</ele><time>2026-05-02T14:42:24.457Z</time></trkpt><trkpt lat="45.8016245" lon="11.6102833"><ele>865.0</ele><time>2026-05-02T14:42:25.457Z</time></trkpt><trkpt lat="45.8016499" lon="11.6103852"><ele>865.0</ele><time>2026-05-02T14:42:26.456Z</time></trkpt><trkpt lat="45.8016747" lon="11.6104857"><ele>865.0</ele><time>2026-05-02T14:42:27.458Z</time></trkpt><trkpt lat="45.8017004" lon="11.6105881"><ele>865.0</ele><time>2026-05-02T14:42:28.458Z</time></trkpt><trkpt lat="45.8017254" lon="11.6106948"><ele>865.0</ele><time>2026-05-02T14:42:29.458Z</time></trkpt><trkpt lat="45.8017537" lon="11.6108026"><ele>865.6666666666666</ele><time>2026-05-02T14:42:30.457Z</time></trkpt><trkpt lat="45.8017858" lon="11.6109138"><ele>866.3333333333333</ele><time>2026-05-02T14:42:31.458Z</time></trkpt><trkpt lat="45.801821" lon="11.6110175"><ele>867.0</ele><time>2026-05-02T14:42:32.457Z</time></trkpt><trkpt lat="45.801855" lon="11.6111228"><ele>867.6666666666667</ele><time>2026-05-02T14:42:33.458Z</time></trkpt><trkpt lat="45.8018901" lon="11.6112319"><ele>868.3333333333334</ele><time>2026-05-02T14:42:34.458Z</time></trkpt><trkpt lat="45.8019254" lon="11.6113415"><ele>869.0</ele><time>2026-05-02T14:42:35.458Z</time></trkpt><trkpt lat="45.8019627" lon="11.6114473"><ele>869.0000000000001</ele><time>2026-05-02T14:42:36.458Z</time></trkpt><trkpt lat="45.8020016" lon="11.6115524"><ele>869.0</ele><time>2026-05-02T14:42:37.458Z</time></trkpt><trkpt lat="45.8020399" lon="11.6116548"><ele>869.0</ele><time>2026-05-02T14:42:38.458Z</time></trkpt><trkpt lat="45.8020776" lon="11.6117495"><ele>869.0</ele><time>2026-05-02T14:42:39.458Z</time></trkpt><trkpt lat="45.802114" lon="11.6118392"><ele>869.0000000000001</ele><time>2026-05-02T14:42:40.458Z</time></trkpt><trkpt lat="45.8021469" lon="11.6119198"><ele>869.0</ele><time>2026-05-02T14:42:41.458Z</time></trkpt><trkpt lat="45.8022036" lon="11.6120555"><ele>869.0</ele><time>2026-05-02T14:42:43.457Z</time></trkpt><trkpt lat="45.8022457" lon="11.6121528"><ele>869.0</ele><time>2026-05-02T14:42:45.457Z</time></trkpt><trkpt lat="45.8022228" lon="11.6122399"><ele>869.0</ele><time>2026-05-02T14:42:47.457Z</time></trkpt><trkpt lat="45.8021303" lon="11.6122104"><ele>869.0</ele><time>2026-05-02T14:42:49.457Z</time></trkpt><trkpt lat="45.8020983" lon="11.6121273"><ele>869.0</ele><time>2026-05-02T14:42:50.458Z</time></trkpt><trkpt lat="45.8020622" lon="11.6120353"><ele>869.0</ele><time>2026-05-02T14:42:51.457Z</time></trkpt><trkpt lat="45.8020262" lon="11.6119556"><ele>869.0</ele><time>2026-05-02T14:42:52.457Z</time></trkpt><trkpt lat="45.8019518" lon="11.6118268"><ele>869.0</ele><time>2026-05-02T14:42:54.458Z</time></trkpt><trkpt lat="45.8018908" lon="11.6116921"><ele>869.0000000000001</ele><time>2026-05-02T14:42:56.458Z</time></trkpt><trkpt lat="45.8018208" lon="11.6115641"><ele>869.0000000000001</ele><time>2026-05-02T14:42:58.458Z</time></trkpt><trkpt lat="45.801742" lon="11.6114539"><ele>869.0</ele><time>2026-05-02T14:43:00.458Z</time></trkpt><trkpt lat="45.8016779" lon="11.6113298"><ele>869.0</ele><time>2026-05-02T14:43:02.458Z</time></trkpt><trkpt lat="45.8016047" lon="11.6112158"><ele>867.0</ele><time>2026-05-02T14:43:04.458Z</time></trkpt><trkpt lat="45.8015304" lon="11.6110952"><ele>865.0000000000001</ele><time>2026-05-02T14:43:06.457Z</time></trkpt><trkpt lat="45.8014584" lon="11.6109696"><ele>863.0000000000001</ele><time>2026-05-02T14:43:08.458Z</time></trkpt><trkpt lat="45.8013815" lon="11.6108462"><ele>861.0</ele><time>2026-05-02T14:43:10.458Z</time></trkpt><trkpt lat="45.8013418" lon="11.6107756"><ele>859.0</ele><time>2026-05-02T14:43:11.458Z</time></trkpt><trkpt lat="45.8013029" lon="11.6107041"><ele>858.9999999999999</ele><time>2026-05-02T14:43:12.458Z</time></trkpt><trkpt lat="45.8012614" lon="11.6106298"><ele>859.0</ele><time>2026-05-02T14:43:13.458Z</time></trkpt><trkpt lat="45.8012197" lon="11.610554"><ele>859.0</ele><time>2026-05-02T14:43:14.458Z</time></trkpt><trkpt lat="45.8011761" lon="11.6104791"><ele>859.0</ele><time>2026-05-02T14:43:15.457Z</time></trkpt><trkpt lat="45.8011336" lon="11.6104058"><ele>859.0</ele><time>2026-05-02T14:43:16.458Z</time></trkpt><trkpt lat="45.8010907" lon="11.6103277"><ele>858.9999999999999</ele><time>2026-05-02T14:43:17.458Z</time></trkpt><trkpt lat="45.801049" lon="11.6102474"><ele>859.0</ele><time>2026-05-02T14:43:18.458Z</time></trkpt><trkpt lat="45.8010041" lon="11.6101698"><ele>856.5714285714286</ele><time>2026-05-02T14:43:19.458Z</time></trkpt><trkpt lat="45.8009593" lon="11.6100911"><ele>854.1428571428571</ele><time>2026-05-02T14:43:20.458Z</time></trkpt><trkpt lat="45.8009151" lon="11.6100079"><ele>851.7142857142858</ele><time>2026-05-02T14:43:21.457Z</time></trkpt><trkpt lat="45.8008683" lon="11.6099293"><ele>849.2857142857142</ele><time>2026-05-02T14:43:22.458Z</time></trkpt><trkpt lat="45.8008231" lon="11.6098474"><ele>846.8571428571429</ele><time>2026-05-02T14:43:23.458Z</time></trkpt><trkpt lat="45.8007773" lon="11.6097641"><ele>844.4285714285714</ele><time>2026-05-02T14:43:24.458Z</time></trkpt><trkpt lat="45.8007383" lon="11.6096734"><ele>842.0</ele><time>2026-05-02T14:43:25.459Z</time></trkpt><trkpt lat="45.8007015" lon="11.609572"><ele>842.8333333333334</ele><time>2026-05-02T14:43:26.458Z</time></trkpt><trkpt lat="45.800675" lon="11.6094709"><ele>843.6666666666667</ele><time>2026-05-02T14:43:27.458Z</time></trkpt><trkpt lat="45.8006503" lon="11.609367"><ele>844.5</ele><time>2026-05-02T14:43:28.458Z</time></trkpt><trkpt lat="45.8006282" lon="11.6092594"><ele>845.3333333333333</ele><time>2026-05-02T14:43:29.458Z</time></trkpt><trkpt lat="45.8006115" lon="11.6091516"><ele>846.1666666666666</ele><time>2026-05-02T14:43:30.458Z</time></trkpt><trkpt lat="45.8005923" lon="11.6090389"><ele>847.0</ele><time>2026-05-02T14:43:31.457Z</time></trkpt><trkpt lat="45.8005715" lon="11.6089333"><ele>846.9999999999999</ele><time>2026-05-02T14:43:32.458Z</time></trkpt><trkpt lat="45.8005471" lon="11.6088346"><ele>847.0</ele><time>2026-05-02T14:43:33.458Z</time></trkpt><trkpt lat="45.800521" lon="11.6087405"><ele>847.0</ele><time>2026-05-02T14:43:34.458Z</time></trkpt><trkpt lat="45.800479" lon="11.6086429"><ele>847.0</ele><time>2026-05-02T14:43:35.458Z</time></trkpt><trkpt lat="45.8004362" lon="11.6085587"><ele>846.9999999999999</ele><time>2026-05-02T14:43:36.458Z</time></trkpt><trkpt lat="45.8003791" lon="11.6084588"><ele>847.0</ele><time>2026-05-02T14:43:37.459Z</time></trkpt><trkpt lat="45.800323" lon="11.6083711"><ele>847.1428571428571</ele><time>2026-05-02T14:43:38.458Z</time></trkpt><trkpt lat="45.8002697" lon="11.6082856"><ele>847.2857142857142</ele><time>2026-05-02T14:43:39.459Z</time></trkpt><trkpt lat="45.8002183" lon="11.6082059"><ele>847.4285714285714</ele><time>2026-05-02T14:43:40.459Z</time></trkpt><trkpt lat="45.8001722" lon="11.6081261"><ele>847.5714285714286</ele><time>2026-05-02T14:43:41.459Z</time></trkpt><trkpt lat="45.8001317" lon="11.6080464"><ele>847.7142857142857</ele><time>2026-05-02T14:43:42.459Z</time></trkpt><trkpt lat="45.8000826" lon="11.6079639"><ele>847.8571428571429</ele><time>2026-05-02T14:43:43.459Z</time></trkpt><trkpt lat="45.8000342" lon="11.6078814"><ele>848.0</ele><time>2026-05-02T14:43:44.459Z</time></trkpt><trkpt lat="45.7999867" lon="11.6077988"><ele>846.4285714285714</ele><time>2026-05-02T14:43:45.459Z</time></trkpt><trkpt lat="45.7999411" lon="11.6077213"><ele>844.8571428571428</ele><time>2026-05-02T14:43:46.459Z</time></trkpt><trkpt lat="45.7998961" lon="11.607641"><ele>843.2857142857142</ele><time>2026-05-02T14:43:47.458Z</time></trkpt><trkpt lat="45.7998591" lon="11.6075484"><ele>841.7142857142858</ele><time>2026-05-02T14:43:48.458Z</time></trkpt><trkpt lat="45.7998203" lon="11.6074612"><ele>840.1428571428571</ele><time>2026-05-02T14:43:49.458Z</time></trkpt><trkpt lat="45.799777" lon="11.6073667"><ele>838.5714285714286</ele><time>2026-05-02T14:43:50.459Z</time></trkpt><trkpt lat="45.7997333" lon="11.6072806"><ele>837.0</ele><time>2026-05-02T14:43:51.459Z</time></trkpt><trkpt lat="45.7996931" lon="11.607202"><ele>837.0</ele><time>2026-05-02T14:43:52.459Z</time></trkpt><trkpt lat="45.7996345" lon="11.6070744"><ele>837.0</ele><time>2026-05-02T14:43:54.459Z</time></trkpt><trkpt lat="45.7996263" lon="11.6069624"><ele>837.0</ele><time>2026-05-02T14:43:56.459Z</time></trkpt><trkpt lat="45.7996519" lon="11.6068085"><ele>837.0</ele><time>2026-05-02T14:43:58.459Z</time></trkpt><trkpt lat="45.7996706" lon="11.6066839"><ele>837.0</ele><time>2026-05-02T14:44:00.459Z</time></trkpt><trkpt lat="45.7996376" lon="11.6065695"><ele>837.25</ele><time>2026-05-02T14:44:02.459Z</time></trkpt><trkpt lat="45.7995769" lon="11.6064372"><ele>837.5</ele><time>2026-05-02T14:44:04.459Z</time></trkpt><trkpt lat="45.7994946" lon="11.6062994"><ele>837.75</ele><time>2026-05-02T14:44:06.459Z</time></trkpt><trkpt lat="45.7994056" lon="11.6061853"><ele>838.0</ele><time>2026-05-02T14:44:08.459Z</time></trkpt><trkpt lat="45.7992938" lon="11.6060843"><ele>836.8</ele><time>2026-05-02T14:44:10.459Z</time></trkpt><trkpt lat="45.7992367" lon="11.6060445"><ele>835.5999999999999</ele><time>2026-05-02T14:44:11.458Z</time></trkpt><trkpt lat="45.7991108" lon="11.6059877"><ele>834.4000000000001</ele><time>2026-05-02T14:44:13.458Z</time></trkpt><trkpt lat="45.799043" lon="11.6059661"><ele>833.2</ele><time>2026-05-02T14:44:14.459Z</time></trkpt><trkpt lat="45.7989786" lon="11.6059402"><ele>832.0</ele><time>2026-05-02T14:44:15.459Z</time></trkpt><trkpt lat="45.7988625" lon="11.6059024"><ele>832.0</ele><time>2026-05-02T14:44:17.458Z</time></trkpt><trkpt lat="45.7987421" lon="11.6058586"><ele>832.0</ele><time>2026-05-02T14:44:19.459Z</time></trkpt><trkpt lat="45.7986289" lon="11.6058054"><ele>832.0</ele><time>2026-05-02T14:44:21.458Z</time></trkpt><trkpt lat="45.7985413" lon="11.6057634"><ele>832.0</ele><time>2026-05-02T14:44:23.458Z</time></trkpt><trkpt lat="45.7984731" lon="11.6057679"><ele>832.0</ele><time>2026-05-02T14:44:25.459Z</time></trkpt><trkpt lat="45.7984206" lon="11.6058211"><ele>830.8</ele><time>2026-05-02T14:44:27.458Z</time></trkpt><trkpt lat="45.7984189" lon="11.605952"><ele>829.6</ele><time>2026-05-02T14:44:29.459Z</time></trkpt><trkpt lat="45.7984506" lon="11.6060669"><ele>828.4</ele><time>2026-05-02T14:44:31.459Z</time></trkpt><trkpt lat="45.7984677" lon="11.6061572"><ele>827.1999999999999</ele><time>2026-05-02T14:44:33.459Z</time></trkpt><trkpt lat="45.7984716" lon="11.6062601"><ele>826.0</ele><time>2026-05-02T14:44:37.459Z</time></trkpt><trkpt lat="45.7992926" lon="11.6076732"><ele>827.0</ele><time>2026-05-02T14:51:07.465Z</time></trkpt><trkpt lat="45.7993073" lon="11.6077612"><ele>828.0</ele><time>2026-05-02T14:51:08.465Z</time></trkpt><trkpt lat="45.7993321" lon="11.6078492"><ele>829.0</ele><time>2026-05-02T14:51:09.465Z</time></trkpt><trkpt lat="45.7993604" lon="11.6079369"><ele>830.0</ele><time>2026-05-02T14:51:10.465Z</time></trkpt><trkpt lat="45.7993917" lon="11.6080231"><ele>831.0</ele><time>2026-05-02T14:51:11.465Z</time></trkpt><trkpt lat="45.7994259" lon="11.6081035"><ele>832.0</ele><time>2026-05-02T14:51:12.465Z</time></trkpt><trkpt lat="45.7994561" lon="11.6081848"><ele>833.0</ele><time>2026-05-02T14:51:13.465Z</time></trkpt><trkpt lat="45.7995134" lon="11.608346"><ele>833.0</ele><time>2026-05-02T14:51:15.464Z</time></trkpt><trkpt lat="45.7995417" lon="11.6084296"><ele>833.0</ele><time>2026-05-02T14:51:16.465Z</time></trkpt><trkpt lat="45.7995689" lon="11.6085135"><ele>833.0</ele><time>2026-05-02T14:51:17.464Z</time></trkpt><trkpt lat="45.7995988" lon="11.6085959"><ele>833.0</ele><time>2026-05-02T14:51:18.465Z</time></trkpt><trkpt lat="45.7996302" lon="11.6086776"><ele>833.0</ele><time>2026-05-02T14:51:19.464Z</time></trkpt><trkpt lat="45.7996642" lon="11.6087599"><ele>833.0</ele><time>2026-05-02T14:51:20.465Z</time></trkpt><trkpt lat="45.7996956" lon="11.6088437"><ele>833.0</ele><time>2026-05-02T14:51:21.465Z</time></trkpt><trkpt lat="45.7997215" lon="11.6089338"><ele>831.8571428571429</ele><time>2026-05-02T14:51:22.464Z</time></trkpt><trkpt lat="45.7997481" lon="11.6090283"><ele>830.7142857142858</ele><time>2026-05-02T14:51:23.465Z</time></trkpt><trkpt lat="45.799775" lon="11.6091169"><ele>829.5714285714286</ele><time>2026-05-02T14:51:24.464Z</time></trkpt><trkpt lat="45.7997975" lon="11.6092109"><ele>828.4285714285714</ele><time>2026-05-02T14:51:25.465Z</time></trkpt><trkpt lat="45.799814" lon="11.6093084"><ele>827.2857142857143</ele><time>2026-05-02T14:51:26.465Z</time></trkpt><trkpt lat="45.7998223" lon="11.6094077"><ele>826.1428571428571</ele><time>2026-05-02T14:51:27.465Z</time></trkpt><trkpt lat="45.7998277" lon="11.6095067"><ele>825.0</ele><time>2026-05-02T14:51:28.465Z</time></trkpt><trkpt lat="45.7998344" lon="11.6095979"><ele>824.0</ele><time>2026-05-02T14:51:29.465Z</time></trkpt><trkpt lat="45.7998443" lon="11.6096899"><ele>823.0</ele><time>2026-05-02T14:51:30.465Z</time></trkpt><trkpt lat="45.7998594" lon="11.6097816"><ele>822.0</ele><time>2026-05-02T14:51:31.465Z</time></trkpt><trkpt lat="45.7998796" lon="11.6098718"><ele>821.0</ele><time>2026-05-02T14:51:32.464Z</time></trkpt><trkpt lat="45.799905" lon="11.6099607"><ele>820.0</ele><time>2026-05-02T14:51:33.465Z</time></trkpt><trkpt lat="45.7999351" lon="11.6100423"><ele>819.0</ele><time>2026-05-02T14:51:34.465Z</time></trkpt><trkpt lat="45.7999631" lon="11.610128"><ele>818.0</ele><time>2026-05-02T14:51:35.464Z</time></trkpt><trkpt lat="45.7999911" lon="11.6102139"><ele>818.0</ele><time>2026-05-02T14:51:36.465Z</time></trkpt><trkpt lat="45.8000251" lon="11.6102989"><ele>818.0</ele><time>2026-05-02T14:51:37.465Z</time></trkpt><trkpt lat="45.8000622" lon="11.6103825"><ele>818.0</ele><time>2026-05-02T14:51:38.465Z</time></trkpt><trkpt lat="45.8001014" lon="11.6104654"><ele>818.0</ele><time>2026-05-02T14:51:39.465Z</time></trkpt><trkpt lat="45.8001421" lon="11.6105483"><ele>818.0</ele><time>2026-05-02T14:51:40.465Z</time></trkpt><trkpt lat="45.8001808" lon="11.6106341"><ele>818.0</ele><time>2026-05-02T14:51:41.464Z</time></trkpt><trkpt lat="45.8002199" lon="11.6107193"><ele>818.0</ele><time>2026-05-02T14:51:42.466Z</time></trkpt><trkpt lat="45.8002571" lon="11.6108086"><ele>818.1666666666667</ele><time>2026-05-02T14:51:43.465Z</time></trkpt><trkpt lat="45.8002998" lon="11.6108958"><ele>818.3333333333334</ele><time>2026-05-02T14:51:44.466Z</time></trkpt><trkpt lat="45.8003456" lon="11.6109843"><ele>818.5</ele><time>2026-05-02T14:51:45.466Z</time></trkpt><trkpt lat="45.8003948" lon="11.611069"><ele>818.6666666666667</ele><time>2026-05-02T14:51:46.466Z</time></trkpt><trkpt lat="45.8004437" lon="11.6111545"><ele>818.8333333333334</ele><time>2026-05-02T14:51:47.466Z</time></trkpt><trkpt lat="45.800494" lon="11.6112382"><ele>819.0</ele><time>2026-05-02T14:51:48.466Z</time></trkpt><trkpt lat="45.8005407" lon="11.6113217"><ele>819.0</ele><time>2026-05-02T14:51:49.465Z</time></trkpt><trkpt lat="45.8005818" lon="11.6114084"><ele>819.0</ele><time>2026-05-02T14:51:50.465Z</time></trkpt><trkpt lat="45.8006205" lon="11.6114982"><ele>819.0</ele><time>2026-05-02T14:51:51.466Z</time></trkpt><trkpt lat="45.8006616" lon="11.6115808"><ele>819.0</ele><time>2026-05-02T14:51:52.466Z</time></trkpt><trkpt lat="45.8007052" lon="11.6116692"><ele>819.0</ele><time>2026-05-02T14:51:53.465Z</time></trkpt><trkpt lat="45.8007461" lon="11.6117547"><ele>819.0</ele><time>2026-05-02T14:51:54.466Z</time></trkpt><trkpt lat="45.8007899" lon="11.6118458"><ele>819.0</ele><time>2026-05-02T14:51:55.466Z</time></trkpt><trkpt lat="45.8008326" lon="11.6119395"><ele>821.2857142857143</ele><time>2026-05-02T14:51:56.466Z</time></trkpt><trkpt lat="45.8008715" lon="11.6120267"><ele>823.5714285714286</ele><time>2026-05-02T14:51:57.465Z</time></trkpt><trkpt lat="45.8009105" lon="11.6121141"><ele>825.8571428571429</ele><time>2026-05-02T14:51:58.466Z</time></trkpt><trkpt lat="45.8009527" lon="11.6122035"><ele>828.1428571428571</ele><time>2026-05-02T14:51:59.466Z</time></trkpt><trkpt lat="45.8009953" lon="11.612286"><ele>830.4285714285714</ele><time>2026-05-02T14:52:00.466Z</time></trkpt><trkpt lat="45.8010395" lon="11.6123746"><ele>832.7142857142858</ele><time>2026-05-02T14:52:01.466Z</time></trkpt><trkpt lat="45.80108" lon="11.6124655"><ele>835.0</ele><time>2026-05-02T14:52:02.466Z</time></trkpt><trkpt lat="45.801122" lon="11.6125521"><ele>835.0000000000001</ele><time>2026-05-02T14:52:03.465Z</time></trkpt><trkpt lat="45.801164" lon="11.612638"><ele>835.0</ele><time>2026-05-02T14:52:04.466Z</time></trkpt><trkpt lat="45.8012064" lon="11.6127267"><ele>835.0</ele><time>2026-05-02T14:52:05.465Z</time></trkpt><trkpt lat="45.8012439" lon="11.61281"><ele>835.0</ele><time>2026-05-02T14:52:06.466Z</time></trkpt><trkpt lat="45.801282" lon="11.612895"><ele>835.0</ele><time>2026-05-02T14:52:07.466Z</time></trkpt><trkpt lat="45.8013193" lon="11.6129793"><ele>835.0000000000001</ele><time>2026-05-02T14:52:08.466Z</time></trkpt><trkpt lat="45.801354" lon="11.6130651"><ele>835.0</ele><time>2026-05-02T14:52:09.465Z</time></trkpt><trkpt lat="45.8013834" lon="11.6131527"><ele>833.2857142857143</ele><time>2026-05-02T14:52:10.465Z</time></trkpt><trkpt lat="45.8014056" lon="11.6132441"><ele>831.5714285714286</ele><time>2026-05-02T14:52:11.466Z</time></trkpt><trkpt lat="45.8014176" lon="11.6133357"><ele>829.8571428571429</ele><time>2026-05-02T14:52:12.466Z</time></trkpt><trkpt lat="45.8014207" lon="11.6134334"><ele>828.1428571428571</ele><time>2026-05-02T14:52:13.466Z</time></trkpt><trkpt lat="45.8014175" lon="11.6135319"><ele>826.4285714285714</ele><time>2026-05-02T14:52:14.466Z</time></trkpt><trkpt lat="45.8014157" lon="11.6136244"><ele>824.7142857142858</ele><time>2026-05-02T14:52:15.466Z</time></trkpt><trkpt lat="45.8014288" lon="11.6137869"><ele>823.0</ele><time>2026-05-02T14:52:17.466Z</time></trkpt><trkpt lat="45.8014278" lon="11.6138934"><ele>820.4999999999999</ele><time>2026-05-02T14:52:20.466Z</time></trkpt><trkpt lat="45.8015007" lon="11.613948"><ele>818.0</ele><time>2026-05-02T14:53:01.467Z</time></trkpt><trkpt lat="45.801533" lon="11.6140344"><ele>815.5</ele><time>2026-05-02T14:53:03.467Z</time></trkpt><trkpt lat="45.8015638" lon="11.6141309"><ele>813.0</ele><time>2026-05-02T14:53:05.467Z</time></trkpt><trkpt lat="45.801608" lon="11.6142275"><ele>810.4999999999999</ele><time>2026-05-02T14:53:07.467Z</time></trkpt><trkpt lat="45.8016602" lon="11.6143364"><ele>808.0</ele><time>2026-05-02T14:53:09.466Z</time></trkpt><trkpt lat="45.801722" lon="11.6144531"><ele>810.4999999999999</ele><time>2026-05-02T14:53:11.467Z</time></trkpt><trkpt lat="45.8017754" lon="11.614553"><ele>813.0</ele><time>2026-05-02T14:53:13.467Z</time></trkpt><trkpt lat="45.8018281" lon="11.6146461"><ele>815.5</ele><time>2026-05-02T14:53:15.467Z</time></trkpt><trkpt lat="45.8018845" lon="11.6147463"><ele>818.0</ele><time>2026-05-02T14:53:17.467Z</time></trkpt><trkpt lat="45.8019452" lon="11.6148328"><ele>820.4999999999999</ele><time>2026-05-02T14:53:19.466Z</time></trkpt><trkpt lat="45.8020098" lon="11.6149244"><ele>823.0</ele><time>2026-05-02T14:53:21.467Z</time></trkpt><trkpt lat="45.8020648" lon="11.6150317"><ele>822.9999999999999</ele><time>2026-05-02T14:53:23.467Z</time></trkpt><trkpt lat="45.8021246" lon="11.6151121"><ele>823.0</ele><time>2026-05-02T14:53:25.466Z</time></trkpt><trkpt lat="45.8021803" lon="11.6151839"><ele>823.0</ele><time>2026-05-02T14:53:27.467Z</time></trkpt><trkpt lat="45.8022222" lon="11.615259"><ele>823.0</ele><time>2026-05-02T14:53:29.467Z</time></trkpt><trkpt lat="45.8022698" lon="11.6153541"><ele>822.9999999999999</ele><time>2026-05-02T14:53:31.466Z</time></trkpt><trkpt lat="45.8023232" lon="11.6154296"><ele>823.0</ele><time>2026-05-02T14:53:33.467Z</time></trkpt><trkpt lat="45.8023781" lon="11.6155131"><ele>819.8333333333333</ele><time>2026-05-02T14:53:35.467Z</time></trkpt><trkpt lat="45.8024357" lon="11.6155921"><ele>816.6666666666666</ele><time>2026-05-02T14:53:37.467Z</time></trkpt><trkpt lat="45.8024918" lon="11.6156754"><ele>813.5</ele><time>2026-05-02T14:53:39.467Z</time></trkpt><trkpt lat="45.8025521" lon="11.615753"><ele>810.3333333333333</ele><time>2026-05-02T14:53:41.467Z</time></trkpt><trkpt lat="45.8026134" lon="11.6158329"><ele>807.1666666666666</ele><time>2026-05-02T14:53:43.467Z</time></trkpt><trkpt lat="45.8026754" lon="11.6159118"><ele>804.0</ele><time>2026-05-02T14:53:45.466Z</time></trkpt><trkpt lat="45.8027382" lon="11.6160084"><ele>802.1666666666666</ele><time>2026-05-02T14:53:47.467Z</time></trkpt><trkpt lat="45.8027592" lon="11.6161329"><ele>800.3333333333333</ele><time>2026-05-02T14:53:49.466Z</time></trkpt><trkpt lat="45.8027201" lon="11.616278"><ele>798.5</ele><time>2026-05-02T14:53:51.467Z</time></trkpt><trkpt lat="45.8026813" lon="11.6164302"><ele>796.6666666666666</ele><time>2026-05-02T14:53:53.467Z</time></trkpt><trkpt lat="45.8026661" lon="11.6165188"><ele>794.8333333333333</ele><time>2026-05-02T14:53:54.466Z</time></trkpt><trkpt lat="45.8026553" lon="11.6166132"><ele>793.0</ele><time>2026-05-02T14:53:55.467Z</time></trkpt><trkpt lat="45.8026521" lon="11.6167107"><ele>793.0000000000001</ele><time>2026-05-02T14:53:56.466Z</time></trkpt><trkpt lat="45.8026515" lon="11.6168068"><ele>793.0</ele><time>2026-05-02T14:53:57.467Z</time></trkpt><trkpt lat="45.8026542" lon="11.6169106"><ele>793.0</ele><time>2026-05-02T14:53:58.466Z</time></trkpt><trkpt lat="45.8026538" lon="11.6170191"><ele>793.0</ele><time>2026-05-02T14:53:59.467Z</time></trkpt><trkpt lat="45.8026562" lon="11.6171244"><ele>793.0</ele><time>2026-05-02T14:54:00.467Z</time></trkpt><trkpt lat="45.8026661" lon="11.617229"><ele>793.0000000000001</ele><time>2026-05-02T14:54:01.467Z</time></trkpt><trkpt lat="45.8026865" lon="11.6173335"><ele>793.0</ele><time>2026-05-02T14:54:02.466Z</time></trkpt><trkpt lat="45.8027205" lon="11.6174419"><ele>797.3333333333333</ele><time>2026-05-02T14:54:03.467Z</time></trkpt><trkpt lat="45.8027661" lon="11.6175487"><ele>801.6666666666666</ele><time>2026-05-02T14:54:04.467Z</time></trkpt><trkpt lat="45.8028141" lon="11.6176529"><ele>806.0</ele><time>2026-05-02T14:54:05.467Z</time></trkpt><trkpt lat="45.8028612" lon="11.61775"><ele>810.3333333333333</ele><time>2026-05-02T14:54:06.466Z</time></trkpt><trkpt lat="45.8029026" lon="11.617842"><ele>814.6666666666666</ele><time>2026-05-02T14:54:07.467Z</time></trkpt><trkpt lat="45.8029388" lon="11.6179322"><ele>819.0</ele><time>2026-05-02T14:54:08.467Z</time></trkpt><trkpt lat="45.802966" lon="11.6180255"><ele>819.0</ele><time>2026-05-02T14:54:09.468Z</time></trkpt><trkpt lat="45.8029611" lon="11.6181256"><ele>819.0</ele><time>2026-05-02T14:54:10.467Z</time></trkpt><trkpt lat="45.802923" lon="11.6182306"><ele>819.0</ele><time>2026-05-02T14:54:11.468Z</time></trkpt><trkpt lat="45.8028588" lon="11.6183237"><ele>819.0</ele><time>2026-05-02T14:54:12.467Z</time></trkpt><trkpt lat="45.8027836" lon="11.6183949"><ele>819.0</ele><time>2026-05-02T14:54:13.468Z</time></trkpt><trkpt lat="45.8027041" lon="11.618467"><ele>819.0</ele><time>2026-05-02T14:54:14.467Z</time></trkpt><trkpt lat="45.8026426" lon="11.6185382"><ele>817.1666666666666</ele><time>2026-05-02T14:54:15.468Z</time></trkpt><trkpt lat="45.8025971" lon="11.6186316"><ele>815.3333333333333</ele><time>2026-05-02T14:54:16.468Z</time></trkpt><trkpt lat="45.802557" lon="11.6187268"><ele>813.5</ele><time>2026-05-02T14:54:17.468Z</time></trkpt><trkpt lat="45.80252" lon="11.6188256"><ele>811.6666666666666</ele><time>2026-05-02T14:54:18.468Z</time></trkpt><trkpt lat="45.8024796" lon="11.6189193"><ele>809.8333333333333</ele><time>2026-05-02T14:54:19.467Z</time></trkpt><trkpt lat="45.8024208" lon="11.618991"><ele>808.0</ele><time>2026-05-02T14:54:20.468Z</time></trkpt><trkpt lat="45.80234" lon="11.6190156"><ele>808.0</ele><time>2026-05-02T14:54:21.467Z</time></trkpt><trkpt lat="45.8022534" lon="11.6190013"><ele>808.0</ele><time>2026-05-02T14:54:22.468Z</time></trkpt><trkpt lat="45.8021655" lon="11.6189284"><ele>808.0</ele><time>2026-05-02T14:54:23.468Z</time></trkpt><trkpt lat="45.8020948" lon="11.6188484"><ele>808.0</ele><time>2026-05-02T14:54:24.468Z</time></trkpt><trkpt lat="45.8020308" lon="11.6187612"><ele>808.0</ele><time>2026-05-02T14:54:25.468Z</time></trkpt><trkpt lat="45.8019658" lon="11.6186825"><ele>804.4999999999999</ele><time>2026-05-02T14:54:26.468Z</time></trkpt><trkpt lat="45.8018965" lon="11.6186088"><ele>801.0</ele><time>2026-05-02T14:54:27.468Z</time></trkpt><trkpt lat="45.8018245" lon="11.6185324"><ele>797.5</ele><time>2026-05-02T14:54:28.468Z</time></trkpt><trkpt lat="45.8017539" lon="11.6184597"><ele>794.0</ele><time>2026-05-02T14:54:29.468Z</time></trkpt><trkpt lat="45.8016752" lon="11.6184071"><ele>790.4999999999999</ele><time>2026-05-02T14:54:30.468Z</time></trkpt><trkpt lat="45.8015984" lon="11.618375"><ele>787.0</ele><time>2026-05-02T14:54:31.468Z</time></trkpt><trkpt lat="45.8015192" lon="11.6183545"><ele>785.9999999999999</ele><time>2026-05-02T14:54:32.467Z</time></trkpt><trkpt lat="45.8014379" lon="11.6183432"><ele>785.0</ele><time>2026-05-02T14:54:33.468Z</time></trkpt><trkpt lat="45.8013542" lon="11.6183391"><ele>784.0</ele><time>2026-05-02T14:54:34.468Z</time></trkpt><trkpt lat="45.801273" lon="11.6183413"><ele>783.0</ele><time>2026-05-02T14:54:35.468Z</time></trkpt><trkpt lat="45.8011967" lon="11.6183495"><ele>781.9999999999999</ele><time>2026-05-02T14:54:36.468Z</time></trkpt><trkpt lat="45.8011206" lon="11.6183507"><ele>781.0</ele><time>2026-05-02T14:54:37.468Z</time></trkpt><trkpt lat="45.8010471" lon="11.6183505"><ele>780.4285714285714</ele><time>2026-05-02T14:54:38.468Z</time></trkpt><trkpt lat="45.8009707" lon="11.618356"><ele>779.8571428571429</ele><time>2026-05-02T14:54:39.467Z</time></trkpt><trkpt lat="45.8008958" lon="11.6183749"><ele>779.2857142857142</ele><time>2026-05-02T14:54:40.467Z</time></trkpt><trkpt lat="45.8008234" lon="11.6184052"><ele>778.7142857142858</ele><time>2026-05-02T14:54:41.468Z</time></trkpt><trkpt lat="45.8007509" lon="11.618437"><ele>778.1428571428571</ele><time>2026-05-02T14:54:42.468Z</time></trkpt><trkpt lat="45.800681" lon="11.618472"><ele>777.5714285714286</ele><time>2026-05-02T14:54:43.468Z</time></trkpt><trkpt lat="45.8006199" lon="11.6185205"><ele>777.0</ele><time>2026-05-02T14:54:44.468Z</time></trkpt><trkpt lat="45.8005626" lon="11.6185857"><ele>780.1666666666666</ele><time>2026-05-02T14:54:45.468Z</time></trkpt><trkpt lat="45.8005108" lon="11.6186649"><ele>783.3333333333333</ele><time>2026-05-02T14:54:46.468Z</time></trkpt><trkpt lat="45.800467" lon="11.6187577"><ele>786.5</ele><time>2026-05-02T14:54:47.468Z</time></trkpt><trkpt lat="45.8004319" lon="11.6188583"><ele>789.6666666666666</ele><time>2026-05-02T14:54:48.468Z</time></trkpt><trkpt lat="45.8003968" lon="11.6189574"><ele>792.8333333333333</ele><time>2026-05-02T14:54:49.468Z</time></trkpt><trkpt lat="45.8003558" lon="11.6190485"><ele>796.0</ele><time>2026-05-02T14:54:50.468Z</time></trkpt><trkpt lat="45.8003119" lon="11.6191314"><ele>795.9999999999999</ele><time>2026-05-02T14:54:51.468Z</time></trkpt><trkpt lat="45.8002686" lon="11.6192071"><ele>796.0</ele><time>2026-05-02T14:54:52.468Z</time></trkpt><trkpt lat="45.8001915" lon="11.6193305"><ele>796.0</ele><time>2026-05-02T14:54:54.467Z</time></trkpt><trkpt lat="45.8001465" lon="11.6192616"><ele>796.0</ele><time>2026-05-02T14:54:57.468Z</time></trkpt><trkpt lat="45.8002017" lon="11.6191554"><ele>795.9999999999999</ele><time>2026-05-02T14:54:59.468Z</time></trkpt><trkpt lat="45.8002675" lon="11.6190473"><ele>796.0</ele><time>2026-05-02T14:55:01.468Z</time></trkpt><trkpt lat="45.8003358" lon="11.6189183"><ele>796.0</ele><time>2026-05-02T14:55:03.468Z</time></trkpt><trkpt lat="45.8004073" lon="11.6187824"><ele>796.0</ele><time>2026-05-02T14:55:05.468Z</time></trkpt><trkpt lat="45.800456" lon="11.6186406"><ele>796.0</ele><time>2026-05-02T14:55:07.468Z</time></trkpt><trkpt lat="45.800512" lon="11.6185101"><ele>796.0</ele><time>2026-05-02T14:55:09.468Z</time></trkpt><trkpt lat="45.8005969" lon="11.6184004"><ele>793.8571428571428</ele><time>2026-05-02T14:55:11.468Z</time></trkpt><trkpt lat="45.8006512" lon="11.6183487"><ele>791.7142857142857</ele><time>2026-05-02T14:55:12.468Z</time></trkpt><trkpt lat="45.8007057" lon="11.6183003"><ele>789.5714285714286</ele><time>2026-05-02T14:55:13.468Z</time></trkpt><trkpt lat="45.8007641" lon="11.6182535"><ele>787.4285714285713</ele><time>2026-05-02T14:55:14.467Z</time></trkpt><trkpt lat="45.8008231" lon="11.6182145"><ele>785.2857142857143</ele><time>2026-05-02T14:55:15.468Z</time></trkpt><trkpt lat="45.8008826" lon="11.6181806"><ele>783.1428571428571</ele><time>2026-05-02T14:55:16.468Z</time></trkpt><trkpt lat="45.80095" lon="11.6181547"><ele>781.0</ele><time>2026-05-02T14:55:17.468Z</time></trkpt><trkpt lat="45.8010239" lon="11.6181312"><ele>780.9999999999999</ele><time>2026-05-02T14:55:18.469Z</time></trkpt><trkpt lat="45.8010992" lon="11.6181144"><ele>781.0</ele><time>2026-05-02T14:55:19.468Z</time></trkpt><trkpt lat="45.8011783" lon="11.6180958"><ele>781.0</ele><time>2026-05-02T14:55:20.469Z</time></trkpt><trkpt lat="45.8012545" lon="11.6180743"><ele>781.0</ele><time>2026-05-02T14:55:21.468Z</time></trkpt><trkpt lat="45.801327" lon="11.6180479"><ele>780.9999999999999</ele><time>2026-05-02T14:55:22.469Z</time></trkpt><trkpt lat="45.8013992" lon="11.6180232"><ele>781.0</ele><time>2026-05-02T14:55:23.469Z</time></trkpt><trkpt lat="45.8014679" lon="11.6180104"><ele>781.0</ele><time>2026-05-02T14:55:24.469Z</time></trkpt><trkpt lat="45.8015388" lon="11.6179997"><ele>781.0</ele><time>2026-05-02T14:55:25.469Z</time></trkpt><trkpt lat="45.8016129" lon="11.6179928"><ele>781.0</ele><time>2026-05-02T14:55:26.468Z</time></trkpt><trkpt lat="45.8016863" lon="11.6179895"><ele>781.0</ele><time>2026-05-02T14:55:27.469Z</time></trkpt><trkpt lat="45.8017627" lon="11.6180118"><ele>781.0</ele><time>2026-05-02T14:55:28.469Z</time></trkpt><trkpt lat="45.8018374" lon="11.6180336"><ele>781.0</ele><time>2026-05-02T14:55:29.468Z</time></trkpt><trkpt lat="45.8019062" lon="11.6180507"><ele>781.0</ele><time>2026-05-02T14:55:30.469Z</time></trkpt><trkpt lat="45.8019709" lon="11.6180551"><ele>781.8</ele><time>2026-05-02T14:55:31.469Z</time></trkpt><trkpt lat="45.8020792" lon="11.6180069"><ele>782.5999999999999</ele><time>2026-05-02T14:55:33.469Z</time></trkpt><trkpt lat="45.8021298" lon="11.6178509"><ele>783.4</ele><time>2026-05-02T14:55:35.469Z</time></trkpt><trkpt lat="45.8021377" lon="11.6177482"><ele>784.2</ele><time>2026-05-02T14:55:36.468Z</time></trkpt><trkpt lat="45.8021357" lon="11.6176345"><ele>785.0</ele><time>2026-05-02T14:55:37.468Z</time></trkpt><trkpt lat="45.8021277" lon="11.6175187"><ele>785.0</ele><time>2026-05-02T14:55:38.469Z</time></trkpt><trkpt lat="45.8021238" lon="11.6174155"><ele>785.0</ele><time>2026-05-02T14:55:39.469Z</time></trkpt><trkpt lat="45.8021215" lon="11.6173113"><ele>785.0</ele><time>2026-05-02T14:55:40.469Z</time></trkpt><trkpt lat="45.8021157" lon="11.6172129"><ele>785.0</ele><time>2026-05-02T14:55:41.468Z</time></trkpt><trkpt lat="45.8021036" lon="11.6171149"><ele>785.0</ele><time>2026-05-02T14:55:42.469Z</time></trkpt><trkpt lat="45.8020798" lon="11.6170113"><ele>785.0</ele><time>2026-05-02T14:55:43.469Z</time></trkpt><trkpt lat="45.8020502" lon="11.6169278"><ele>785.0</ele><time>2026-05-02T14:55:44.468Z</time></trkpt><trkpt lat="45.8020195" lon="11.6168339"><ele>786.1428571428572</ele><time>2026-05-02T14:55:45.469Z</time></trkpt><trkpt lat="45.8019976" lon="11.6167389"><ele>787.2857142857142</ele><time>2026-05-02T14:55:46.468Z</time></trkpt><trkpt lat="45.8019754" lon="11.6166449"><ele>788.4285714285714</ele><time>2026-05-02T14:55:47.468Z</time></trkpt><trkpt lat="45.8019545" lon="11.6165541"><ele>789.5714285714287</ele><time>2026-05-02T14:55:48.469Z</time></trkpt><trkpt lat="45.8019299" lon="11.6164614"><ele>790.7142857142858</ele><time>2026-05-02T14:55:49.468Z</time></trkpt><trkpt lat="45.8019027" lon="11.6163724"><ele>791.8571428571429</ele><time>2026-05-02T14:55:50.468Z</time></trkpt><trkpt lat="45.8018545" lon="11.6162895"><ele>793.0</ele><time>2026-05-02T14:55:51.468Z</time></trkpt><trkpt lat="45.8017937" lon="11.61621"><ele>789.5714285714287</ele><time>2026-05-02T14:55:52.468Z</time></trkpt><trkpt lat="45.8017323" lon="11.6161463"><ele>786.1428571428571</ele><time>2026-05-02T14:55:53.469Z</time></trkpt><trkpt lat="45.8016773" lon="11.6160825"><ele>782.7142857142858</ele><time>2026-05-02T14:55:54.469Z</time></trkpt><trkpt lat="45.8016327" lon="11.6160135"><ele>779.2857142857143</ele><time>2026-05-02T14:55:55.469Z</time></trkpt><trkpt lat="45.801589" lon="11.615941"><ele>775.8571428571429</ele><time>2026-05-02T14:55:56.469Z</time></trkpt><trkpt lat="45.8015448" lon="11.6158738"><ele>772.4285714285714</ele><time>2026-05-02T14:55:57.469Z</time></trkpt><trkpt lat="45.8014957" lon="11.6158043"><ele>769.0</ele><time>2026-05-02T14:55:58.468Z</time></trkpt><trkpt lat="45.8014474" lon="11.6157415"><ele>769.0</ele><time>2026-05-02T14:55:59.469Z</time></trkpt><trkpt lat="45.8013858" lon="11.6156866"><ele>769.0</ele><time>2026-05-02T14:56:00.469Z</time></trkpt><trkpt lat="45.8013241" lon="11.6156327"><ele>769.0</ele><time>2026-05-02T14:56:01.469Z</time></trkpt><trkpt lat="45.8012672" lon="11.6155588"><ele>769.0</ele><time>2026-05-02T14:56:02.468Z</time></trkpt><trkpt lat="45.8012164" lon="11.6154895"><ele>769.0</ele><time>2026-05-02T14:56:03.468Z</time></trkpt><trkpt lat="45.8011641" lon="11.615423"><ele>769.0</ele><time>2026-05-02T14:56:04.469Z</time></trkpt><trkpt lat="45.8010992" lon="11.6153582"><ele>769.0</ele><time>2026-05-02T14:56:05.469Z</time></trkpt><trkpt lat="45.8010335" lon="11.6152945"><ele>767.3333333333333</ele><time>2026-05-02T14:56:06.468Z</time></trkpt><trkpt lat="45.8009784" lon="11.6152346"><ele>765.6666666666666</ele><time>2026-05-02T14:56:07.469Z</time></trkpt><trkpt lat="45.8009216" lon="11.6151696"><ele>764.0</ele><time>2026-05-02T14:56:08.469Z</time></trkpt><trkpt lat="45.8008628" lon="11.6150984"><ele>762.3333333333333</ele><time>2026-05-02T14:56:09.468Z</time></trkpt><trkpt lat="45.8008044" lon="11.6150229"><ele>760.6666666666666</ele><time>2026-05-02T14:56:10.469Z</time></trkpt><trkpt lat="45.8007457" lon="11.6149449"><ele>759.0</ele><time>2026-05-02T14:56:11.469Z</time></trkpt><trkpt lat="45.8006876" lon="11.6148659"><ele>759.0</ele><time>2026-05-02T14:56:12.469Z</time></trkpt><trkpt lat="45.8006319" lon="11.6147889"><ele>759.0</ele><time>2026-05-02T14:56:13.468Z</time></trkpt><trkpt lat="45.8005809" lon="11.6147118"><ele>759.0</ele><time>2026-05-02T14:56:14.468Z</time></trkpt><trkpt lat="45.800532" lon="11.6146303"><ele>759.0</ele><time>2026-05-02T14:56:15.469Z</time></trkpt><trkpt lat="45.8004861" lon="11.614546"><ele>759.0</ele><time>2026-05-02T14:56:16.469Z</time></trkpt><trkpt lat="45.8004437" lon="11.6144592"><ele>759.0</ele><time>2026-05-02T14:56:17.468Z</time></trkpt><trkpt lat="45.8004049" lon="11.6143678"><ele>759.0</ele><time>2026-05-02T14:56:18.468Z</time></trkpt><trkpt lat="45.8003733" lon="11.6142724"><ele>761.0</ele><time>2026-05-02T14:56:19.469Z</time></trkpt><trkpt lat="45.8003499" lon="11.6141741"><ele>763.0</ele><time>2026-05-02T14:56:20.469Z</time></trkpt><trkpt lat="45.8003356" lon="11.6140736"><ele>765.0</ele><time>2026-05-02T14:56:21.469Z</time></trkpt><trkpt lat="45.8003341" lon="11.6139672"><ele>767.0</ele><time>2026-05-02T14:56:22.469Z</time></trkpt><trkpt lat="45.8003324" lon="11.6138579"><ele>769.0</ele><time>2026-05-02T14:56:23.468Z</time></trkpt><trkpt lat="45.8003128" lon="11.6137622"><ele>771.0</ele><time>2026-05-02T14:56:24.469Z</time></trkpt><trkpt lat="45.8002743" lon="11.6136636"><ele>773.0</ele><time>2026-05-02T14:56:25.469Z</time></trkpt><trkpt lat="45.8002206" lon="11.6135704"><ele>768.8333333333334</ele><time>2026-05-02T14:56:26.468Z</time></trkpt><trkpt lat="45.8001551" lon="11.6134855"><ele>764.6666666666667</ele><time>2026-05-02T14:56:27.469Z</time></trkpt><trkpt lat="45.8000872" lon="11.6134053"><ele>760.5</ele><time>2026-05-02T14:56:28.469Z</time></trkpt><trkpt lat="45.8000281" lon="11.613325"><ele>756.3333333333334</ele><time>2026-05-02T14:56:29.468Z</time></trkpt><trkpt lat="45.7999689" lon="11.6132411"><ele>752.1666666666667</ele><time>2026-05-02T14:56:30.468Z</time></trkpt><trkpt lat="45.7999094" lon="11.6131553"><ele>748.0</ele><time>2026-05-02T14:56:31.469Z</time></trkpt><trkpt lat="45.7998478" lon="11.6130713"><ele>748.0</ele><time>2026-05-02T14:56:32.47Z</time></trkpt><trkpt lat="45.7997886" lon="11.612991"><ele>748.0</ele><time>2026-05-02T14:56:33.47Z</time></trkpt><trkpt lat="45.7997306" lon="11.6129108"><ele>748.0</ele><time>2026-05-02T14:56:34.47Z</time></trkpt><trkpt lat="45.799674" lon="11.6128307"><ele>748.0</ele><time>2026-05-02T14:56:35.47Z</time></trkpt><trkpt lat="45.799617" lon="11.6127468"><ele>748.0</ele><time>2026-05-02T14:56:36.47Z</time></trkpt><trkpt lat="45.7995629" lon="11.6126544"><ele>748.0</ele><time>2026-05-02T14:56:37.47Z</time></trkpt><trkpt lat="45.7995128" lon="11.6125601"><ele>745.5</ele><time>2026-05-02T14:56:38.47Z</time></trkpt><trkpt lat="45.7994653" lon="11.6124638"><ele>743.0</ele><time>2026-05-02T14:56:39.469Z</time></trkpt><trkpt lat="45.799422" lon="11.6123696"><ele>740.5</ele><time>2026-05-02T14:56:40.47Z</time></trkpt><trkpt lat="45.7993764" lon="11.6122722"><ele>738.0</ele><time>2026-05-02T14:56:41.47Z</time></trkpt><trkpt lat="45.7993249" lon="11.6121761"><ele>735.5</ele><time>2026-05-02T14:56:42.47Z</time></trkpt><trkpt lat="45.7992683" lon="11.6120894"><ele>733.0</ele><time>2026-05-02T14:56:43.47Z</time></trkpt><trkpt lat="45.7992057" lon="11.6120098"><ele>736.3333333333334</ele><time>2026-05-02T14:56:44.47Z</time></trkpt><trkpt lat="45.7991413" lon="11.6119323"><ele>739.6666666666667</ele><time>2026-05-02T14:56:45.469Z</time></trkpt><trkpt lat="45.799076" lon="11.611847"><ele>743.0</ele><time>2026-05-02T14:56:46.47Z</time></trkpt><trkpt lat="45.7990104" lon="11.6117589"><ele>746.3333333333334</ele><time>2026-05-02T14:56:47.47Z</time></trkpt><trkpt lat="45.7989488" lon="11.6116748"><ele>749.6666666666666</ele><time>2026-05-02T14:56:48.469Z</time></trkpt><trkpt lat="45.7988861" lon="11.6116002"><ele>753.0</ele><time>2026-05-02T14:56:49.47Z</time></trkpt><trkpt lat="45.7988189" lon="11.6115282"><ele>753.0</ele><time>2026-05-02T14:56:50.469Z</time></trkpt><trkpt lat="45.7987515" lon="11.6114622"><ele>753.0</ele><time>2026-05-02T14:56:51.47Z</time></trkpt><trkpt lat="45.7986881" lon="11.6114026"><ele>753.0</ele><time>2026-05-02T14:56:52.47Z</time></trkpt><trkpt lat="45.798631" lon="11.6113524"><ele>753.0</ele><time>2026-05-02T14:56:53.47Z</time></trkpt><trkpt lat="45.7985372" lon="11.6112411"><ele>753.0</ele><time>2026-05-02T14:56:55.47Z</time></trkpt><trkpt lat="45.7984669" lon="11.6111265"><ele>753.0</ele><time>2026-05-02T14:56:57.47Z</time></trkpt><trkpt lat="45.798397" lon="11.6110734"><ele>753.0</ele><time>2026-05-02T14:56:59.47Z</time></trkpt><trkpt lat="45.7983458" lon="11.6111459"><ele>753.0</ele><time>2026-05-02T14:57:01.469Z</time></trkpt><trkpt lat="45.7983781" lon="11.6112783"><ele>753.0</ele><time>2026-05-02T14:57:03.47Z</time></trkpt><trkpt lat="45.7984834" lon="11.6113841"><ele>753.0</ele><time>2026-05-02T14:57:05.469Z</time></trkpt><trkpt lat="45.7985367" lon="11.6114488"><ele>753.0</ele><time>2026-05-02T14:57:06.47Z</time></trkpt><trkpt lat="45.7985876" lon="11.6115128"><ele>753.0</ele><time>2026-05-02T14:57:07.47Z</time></trkpt><trkpt lat="45.7986679" lon="11.6116408"><ele>753.0</ele><time>2026-05-02T14:57:09.47Z</time></trkpt><trkpt lat="45.7987565" lon="11.6117592"><ele>753.0</ele><time>2026-05-02T14:57:11.47Z</time></trkpt><trkpt lat="45.7988063" lon="11.6118193"><ele>753.0</ele><time>2026-05-02T14:57:12.47Z</time></trkpt><trkpt lat="45.7988498" lon="11.611893"><ele>753.0</ele><time>2026-05-02T14:57:13.47Z</time></trkpt><trkpt lat="45.7988859" lon="11.6119737"><ele>753.0</ele><time>2026-05-02T14:57:14.47Z</time></trkpt><trkpt lat="45.7989189" lon="11.6120648"><ele>749.6666666666666</ele><time>2026-05-02T14:57:15.47Z</time></trkpt><trkpt lat="45.7989574" lon="11.6121446"><ele>746.3333333333334</ele><time>2026-05-02T14:57:16.469Z</time></trkpt><trkpt lat="45.7990008" lon="11.6122276"><ele>743.0</ele><time>2026-05-02T14:57:17.469Z</time></trkpt><trkpt lat="45.7990486" lon="11.6123189"><ele>739.6666666666667</ele><time>2026-05-02T14:57:18.47Z</time></trkpt><trkpt lat="45.7990943" lon="11.6124186"><ele>736.3333333333334</ele><time>2026-05-02T14:57:19.469Z</time></trkpt><trkpt lat="45.7991343" lon="11.6125212"><ele>733.0</ele><time>2026-05-02T14:57:20.47Z</time></trkpt><trkpt lat="45.7991728" lon="11.61263"><ele>733.0</ele><time>2026-05-02T14:57:21.469Z</time></trkpt><trkpt lat="45.7992045" lon="11.6127416"><ele>733.0</ele><time>2026-05-02T14:57:22.47Z</time></trkpt><trkpt lat="45.7992301" lon="11.6128545"><ele>733.0</ele><time>2026-05-02T14:57:23.47Z</time></trkpt><trkpt lat="45.7992594" lon="11.6129649"><ele>733.0</ele><time>2026-05-02T14:57:24.469Z</time></trkpt><trkpt lat="45.7992912" lon="11.6130798"><ele>733.0</ele><time>2026-05-02T14:57:25.469Z</time></trkpt><trkpt lat="45.7993291" lon="11.613191"><ele>733.0</ele><time>2026-05-02T14:57:26.47Z</time></trkpt><trkpt lat="45.7993757" lon="11.6133047"><ele>733.3333333333334</ele><time>2026-05-02T14:57:27.47Z</time></trkpt><trkpt lat="45.7994234" lon="11.6134187"><ele>733.6666666666667</ele><time>2026-05-02T14:57:28.469Z</time></trkpt><trkpt lat="45.7994745" lon="11.6135258"><ele>734.0</ele><time>2026-05-02T14:57:29.47Z</time></trkpt><trkpt lat="45.7995276" lon="11.6136268"><ele>734.3333333333334</ele><time>2026-05-02T14:57:30.47Z</time></trkpt><trkpt lat="45.7995809" lon="11.6137257"><ele>734.6666666666666</ele><time>2026-05-02T14:57:31.47Z</time></trkpt><trkpt lat="45.7996302" lon="11.6138234"><ele>735.0</ele><time>2026-05-02T14:57:32.469Z</time></trkpt><trkpt lat="45.7996804" lon="11.6139153"><ele>735.0</ele><time>2026-05-02T14:57:33.47Z</time></trkpt><trkpt lat="45.7997219" lon="11.6140048"><ele>735.0</ele><time>2026-05-02T14:57:34.469Z</time></trkpt><trkpt lat="45.7997528" lon="11.6140917"><ele>735.0</ele><time>2026-05-02T14:57:35.47Z</time></trkpt><trkpt lat="45.7997673" lon="11.6141937"><ele>735.0</ele><time>2026-05-02T14:57:36.47Z</time></trkpt><trkpt lat="45.7997705" lon="11.6143025"><ele>735.0</ele><time>2026-05-02T14:57:37.47Z</time></trkpt><trkpt lat="45.7997656" lon="11.6144165"><ele>735.0</ele><time>2026-05-02T14:57:38.469Z</time></trkpt><trkpt lat="45.7997656" lon="11.6145308"><ele>732.2</ele><time>2026-05-02T14:57:39.47Z</time></trkpt><trkpt lat="45.7997804" lon="11.6146405"><ele>729.4</ele><time>2026-05-02T14:57:40.47Z</time></trkpt><trkpt lat="45.7998012" lon="11.6147479"><ele>726.5999999999999</ele><time>2026-05-02T14:57:41.47Z</time></trkpt><trkpt lat="45.7998236" lon="11.6148436"><ele>723.8</ele><time>2026-05-02T14:57:42.47Z</time></trkpt><trkpt lat="45.7998691" lon="11.6149996"><ele>721.0</ele><time>2026-05-02T14:57:44.471Z</time></trkpt><trkpt lat="45.7999043" lon="11.6151717"><ele>721.0</ele><time>2026-05-02T14:57:46.471Z</time></trkpt><trkpt lat="45.7999199" lon="11.6152638"><ele>721.0</ele><time>2026-05-02T14:57:47.471Z</time></trkpt><trkpt lat="45.7999398" lon="11.6153575"><ele>721.0</ele><time>2026-05-02T14:57:48.47Z</time></trkpt><trkpt lat="45.7999601" lon="11.6154489"><ele>721.0</ele><time>2026-05-02T14:57:49.471Z</time></trkpt><trkpt lat="45.7999834" lon="11.6155394"><ele>721.0</ele><time>2026-05-02T14:57:50.471Z</time></trkpt><trkpt lat="45.8000088" lon="11.6156261"><ele>721.0</ele><time>2026-05-02T14:57:51.471Z</time></trkpt><trkpt lat="45.8000379" lon="11.6157143"><ele>721.0</ele><time>2026-05-02T14:57:52.471Z</time></trkpt><trkpt lat="45.8000672" lon="11.6157992"><ele>722.4</ele><time>2026-05-02T14:57:53.47Z</time></trkpt><trkpt lat="45.8001138" lon="11.6159523"><ele>723.8</ele><time>2026-05-02T14:57:55.471Z</time></trkpt><trkpt lat="45.8001592" lon="11.616107"><ele>725.1999999999999</ele><time>2026-05-02T14:57:57.471Z</time></trkpt><trkpt lat="45.800182" lon="11.6162557"><ele>726.5999999999999</ele><time>2026-05-02T14:57:59.471Z</time></trkpt><trkpt lat="45.8002185" lon="11.6164038"><ele>728.0</ele><time>2026-05-02T14:58:01.47Z</time></trkpt><trkpt lat="45.8002627" lon="11.6165508"><ele>728.0</ele><time>2026-05-02T14:58:03.471Z</time></trkpt><trkpt lat="45.8002009" lon="11.6166968"><ele>728.0</ele><time>2026-05-02T14:58:05.47Z</time></trkpt><trkpt lat="45.8001387" lon="11.6167431"><ele>728.0</ele><time>2026-05-02T14:58:06.47Z</time></trkpt><trkpt lat="45.8000599" lon="11.6167652"><ele>728.0</ele><time>2026-05-02T14:58:07.471Z</time></trkpt><trkpt lat="45.7999831" lon="11.6167607"><ele>728.0</ele><time>2026-05-02T14:58:08.471Z</time></trkpt><trkpt lat="45.7999084" lon="11.6167572"><ele>728.0</ele><time>2026-05-02T14:58:09.471Z</time></trkpt><trkpt lat="45.799835" lon="11.6167614"><ele>726.0</ele><time>2026-05-02T14:58:10.471Z</time></trkpt><trkpt lat="45.7997587" lon="11.6167645"><ele>724.0</ele><time>2026-05-02T14:58:11.471Z</time></trkpt><trkpt lat="45.7996803" lon="11.6167643"><ele>722.0</ele><time>2026-05-02T14:58:12.471Z</time></trkpt><trkpt lat="45.7995971" lon="11.6167557"><ele>720.0</ele><time>2026-05-02T14:58:13.471Z</time></trkpt><trkpt lat="45.7995124" lon="11.6167291"><ele>718.0</ele><time>2026-05-02T14:58:14.471Z</time></trkpt><trkpt lat="45.7994373" lon="11.6166934"><ele>716.0</ele><time>2026-05-02T14:58:15.47Z</time></trkpt><trkpt lat="45.7993626" lon="11.616666"><ele>716.1428571428572</ele><time>2026-05-02T14:58:16.471Z</time></trkpt><trkpt lat="45.799289" lon="11.6166523"><ele>716.2857142857143</ele><time>2026-05-02T14:58:17.471Z</time></trkpt><trkpt lat="45.7992206" lon="11.6166378"><ele>716.4285714285714</ele><time>2026-05-02T14:58:18.471Z</time></trkpt><trkpt lat="45.7991594" lon="11.616586"><ele>716.5714285714287</ele><time>2026-05-02T14:58:19.471Z</time></trkpt><trkpt lat="45.7991166" lon="11.6165019"><ele>716.7142857142857</ele><time>2026-05-02T14:58:20.471Z</time></trkpt><trkpt lat="45.7990751" lon="11.6164145"><ele>716.8571428571429</ele><time>2026-05-02T14:58:21.471Z</time></trkpt><trkpt lat="45.7990398" lon="11.6163182"><ele>717.0</ele><time>2026-05-02T14:58:22.471Z</time></trkpt><trkpt lat="45.7990006" lon="11.6162187"><ele>715.4285714285714</ele><time>2026-05-02T14:58:23.47Z</time></trkpt><trkpt lat="45.798965" lon="11.6161309"><ele>713.8571428571429</ele><time>2026-05-02T14:58:24.471Z</time></trkpt><trkpt lat="45.7989277" lon="11.6160436"><ele>712.2857142857142</ele><time>2026-05-02T14:58:25.471Z</time></trkpt><trkpt lat="45.7988807" lon="11.6159803"><ele>710.7142857142858</ele><time>2026-05-02T14:58:26.471Z</time></trkpt><trkpt lat="45.7988297" lon="11.6159144"><ele>709.1428571428572</ele><time>2026-05-02T14:58:27.471Z</time></trkpt><trkpt lat="45.7987777" lon="11.6158635"><ele>707.5714285714286</ele><time>2026-05-02T14:58:28.471Z</time></trkpt><trkpt lat="45.7987107" lon="11.6158173"><ele>706.0</ele><time>2026-05-02T14:58:29.471Z</time></trkpt><trkpt lat="45.7986368" lon="11.6157615"><ele>706.0</ele><time>2026-05-02T14:58:30.471Z</time></trkpt><trkpt lat="45.7985609" lon="11.6157218"><ele>706.0</ele><time>2026-05-02T14:58:31.471Z</time></trkpt><trkpt lat="45.7984763" lon="11.6156741"><ele>706.0</ele><time>2026-05-02T14:58:32.47Z</time></trkpt><trkpt lat="45.7983916" lon="11.6156287"><ele>706.0</ele><time>2026-05-02T14:58:33.471Z</time></trkpt><trkpt lat="45.7983022" lon="11.6155974"><ele>706.0</ele><time>2026-05-02T14:58:34.471Z</time></trkpt><trkpt lat="45.7982122" lon="11.6155659"><ele>706.0</ele><time>2026-05-02T14:58:35.471Z</time></trkpt><trkpt lat="45.7981259" lon="11.615543"><ele>706.3333333333334</ele><time>2026-05-02T14:58:36.471Z</time></trkpt><trkpt lat="45.7980413" lon="11.6155377"><ele>706.6666666666667</ele><time>2026-05-02T14:58:37.471Z</time></trkpt><trkpt lat="45.7979513" lon="11.6155489"><ele>707.0</ele><time>2026-05-02T14:58:38.471Z</time></trkpt><trkpt lat="45.797853" lon="11.6155799"><ele>707.3333333333334</ele><time>2026-05-02T14:58:39.471Z</time></trkpt><trkpt lat="45.7977695" lon="11.6156298"><ele>707.6666666666666</ele><time>2026-05-02T14:58:40.471Z</time></trkpt><trkpt lat="45.7976948" lon="11.6156828"><ele>708.0</ele><time>2026-05-02T14:58:41.471Z</time></trkpt><trkpt lat="45.7976236" lon="11.6157203"><ele>708.0</ele><time>2026-05-02T14:58:42.471Z</time></trkpt><trkpt lat="45.7975042" lon="11.6157195"><ele>708.0</ele><time>2026-05-02T14:58:44.471Z</time></trkpt><trkpt lat="45.7974665" lon="11.6155392"><ele>708.0</ele><time>2026-05-02T14:58:46.47Z</time></trkpt><trkpt lat="45.7974575" lon="11.6154402"><ele>708.0</ele><time>2026-05-02T14:58:47.47Z</time></trkpt><trkpt lat="45.7973984" lon="11.6152768"><ele>708.0</ele><time>2026-05-02T14:58:49.471Z</time></trkpt><trkpt lat="45.7973321" lon="11.6151192"><ele>705.4285714285714</ele><time>2026-05-02T14:58:51.472Z</time></trkpt><trkpt lat="45.7973019" lon="11.6150346"><ele>702.8571428571428</ele><time>2026-05-02T14:58:52.471Z</time></trkpt><trkpt lat="45.7972705" lon="11.6149318"><ele>700.2857142857142</ele><time>2026-05-02T14:58:53.472Z</time></trkpt><trkpt lat="45.7972432" lon="11.6148325"><ele>697.7142857142858</ele><time>2026-05-02T14:58:54.471Z</time></trkpt><trkpt lat="45.7972103" lon="11.6147389"><ele>695.1428571428571</ele><time>2026-05-02T14:58:55.472Z</time></trkpt><trkpt lat="45.7971727" lon="11.6146524"><ele>692.5714285714286</ele><time>2026-05-02T14:58:56.472Z</time></trkpt><trkpt lat="45.7971293" lon="11.6145679"><ele>690.0</ele><time>2026-05-02T14:58:57.472Z</time></trkpt><trkpt lat="45.7970822" lon="11.6144828"><ele>690.1666666666666</ele><time>2026-05-02T14:58:58.472Z</time></trkpt><trkpt lat="45.7970285" lon="11.6143986"><ele>690.3333333333334</ele><time>2026-05-02T14:58:59.472Z</time></trkpt><trkpt lat="45.7969694" lon="11.6143187"><ele>690.5</ele><time>2026-05-02T14:59:00.472Z</time></trkpt><trkpt lat="45.7969079" lon="11.6142441"><ele>690.6666666666667</ele><time>2026-05-02T14:59:01.472Z</time></trkpt><trkpt lat="45.7968446" lon="11.6141758"><ele>690.8333333333334</ele><time>2026-05-02T14:59:02.472Z</time></trkpt><trkpt lat="45.7967793" lon="11.6141104"><ele>691.0</ele><time>2026-05-02T14:59:03.471Z</time></trkpt><trkpt lat="45.7967124" lon="11.6140476"><ele>691.0</ele><time>2026-05-02T14:59:04.472Z</time></trkpt><trkpt lat="45.7966393" lon="11.6139892"><ele>691.0</ele><time>2026-05-02T14:59:05.471Z</time></trkpt><trkpt lat="45.7965711" lon="11.6139403"><ele>691.0</ele><time>2026-05-02T14:59:06.472Z</time></trkpt><trkpt lat="45.7964936" lon="11.613888"><ele>691.0</ele><time>2026-05-02T14:59:07.471Z</time></trkpt><trkpt lat="45.796411" lon="11.613837"><ele>691.0</ele><time>2026-05-02T14:59:08.472Z</time></trkpt><trkpt lat="45.7963317" lon="11.6137909"><ele>691.0</ele><time>2026-05-02T14:59:09.472Z</time></trkpt><trkpt lat="45.7962483" lon="11.6137541"><ele>691.0</ele><time>2026-05-02T14:59:10.472Z</time></trkpt><trkpt lat="45.796166" lon="11.6137267"><ele>691.0</ele><time>2026-05-02T14:59:11.472Z</time></trkpt><trkpt lat="45.7960774" lon="11.6137129"><ele>691.0</ele><time>2026-05-02T14:59:12.472Z</time></trkpt><trkpt lat="45.7959965" lon="11.6137122"><ele>691.0</ele><time>2026-05-02T14:59:13.472Z</time></trkpt><trkpt lat="45.7959172" lon="11.6137165"><ele>691.0</ele><time>2026-05-02T14:59:14.472Z</time></trkpt><trkpt lat="45.795842" lon="11.6137267"><ele>691.0</ele><time>2026-05-02T14:59:15.472Z</time></trkpt><trkpt lat="45.7957645" lon="11.6137329"><ele>691.2857142857142</ele><time>2026-05-02T14:59:16.472Z</time></trkpt><trkpt lat="45.7956916" lon="11.6137273"><ele>691.5714285714286</ele><time>2026-05-02T14:59:17.472Z</time></trkpt><trkpt lat="45.795617" lon="11.6137236"><ele>691.8571428571429</ele><time>2026-05-02T14:59:18.472Z</time></trkpt><trkpt lat="45.7955429" lon="11.6137252"><ele>692.1428571428571</ele><time>2026-05-02T14:59:19.472Z</time></trkpt><trkpt lat="45.7954666" lon="11.6137292"><ele>692.4285714285714</ele><time>2026-05-02T14:59:20.471Z</time></trkpt><trkpt lat="45.7953977" lon="11.6137351"><ele>692.7142857142857</ele><time>2026-05-02T14:59:21.472Z</time></trkpt><trkpt lat="45.7953216" lon="11.6137402"><ele>693.0</ele><time>2026-05-02T14:59:22.471Z</time></trkpt><trkpt lat="45.7952486" lon="11.6137437"><ele>693.0</ele><time>2026-05-02T14:59:23.472Z</time></trkpt><trkpt lat="45.7951769" lon="11.6137507"><ele>693.0</ele><time>2026-05-02T14:59:24.472Z</time></trkpt><trkpt lat="45.7951078" lon="11.6137567"><ele>693.0</ele><time>2026-05-02T14:59:25.472Z</time></trkpt><trkpt lat="45.795041" lon="11.61376"><ele>693.0</ele><time>2026-05-02T14:59:26.472Z</time></trkpt><trkpt lat="45.7949739" lon="11.6137639"><ele>693.0</ele><time>2026-05-02T14:59:27.472Z</time></trkpt><trkpt lat="45.7949085" lon="11.6137792"><ele>693.0</ele><time>2026-05-02T14:59:28.472Z</time></trkpt><trkpt lat="45.7948424" lon="11.613807"><ele>693.0</ele><time>2026-05-02T14:59:29.472Z</time></trkpt><trkpt lat="45.7947746" lon="11.6138408"><ele>692.2857142857143</ele><time>2026-05-02T14:59:30.472Z</time></trkpt><trkpt lat="45.7947101" lon="11.613884"><ele>691.5714285714286</ele><time>2026-05-02T14:59:31.471Z</time></trkpt><trkpt lat="45.7946513" lon="11.6139339"><ele>690.8571428571429</ele><time>2026-05-02T14:59:32.472Z</time></trkpt><trkpt lat="45.7945983" lon="11.6139911"><ele>690.1428571428571</ele><time>2026-05-02T14:59:33.472Z</time></trkpt><trkpt lat="45.79455" lon="11.614056"><ele>689.4285714285714</ele><time>2026-05-02T14:59:34.472Z</time></trkpt><trkpt lat="45.794505" lon="11.6141237"><ele>688.7142857142858</ele><time>2026-05-02T14:59:35.472Z</time></trkpt><trkpt lat="45.7944589" lon="11.6141928"><ele>688.0</ele><time>2026-05-02T14:59:36.472Z</time></trkpt><trkpt lat="45.7944072" lon="11.6142589"><ele>688.0</ele><time>2026-05-02T14:59:37.471Z</time></trkpt><trkpt lat="45.7943521" lon="11.614315"><ele>688.0</ele><time>2026-05-02T14:59:38.471Z</time></trkpt><trkpt lat="45.7942409" lon="11.6143428"><ele>688.0</ele><time>2026-05-02T14:59:40.472Z</time></trkpt><trkpt lat="45.7941439" lon="11.614234"><ele>688.0</ele><time>2026-05-02T14:59:42.472Z</time></trkpt><trkpt lat="45.7940792" lon="11.614095"><ele>688.0</ele><time>2026-05-02T14:59:44.471Z</time></trkpt><trkpt lat="45.7940072" lon="11.6139728"><ele>686.8333333333334</ele><time>2026-05-02T14:59:46.472Z</time></trkpt><trkpt lat="45.7939376" lon="11.6138446"><ele>685.6666666666667</ele><time>2026-05-02T14:59:48.472Z</time></trkpt><trkpt lat="45.7938686" lon="11.6137137"><ele>684.5</ele><time>2026-05-02T14:59:50.472Z</time></trkpt><trkpt lat="45.7938264" lon="11.6136436"><ele>683.3333333333334</ele><time>2026-05-02T14:59:51.472Z</time></trkpt><trkpt lat="45.7937879" lon="11.6135706"><ele>682.1666666666666</ele><time>2026-05-02T14:59:52.472Z</time></trkpt><trkpt lat="45.7937499" lon="11.613493"><ele>681.0</ele><time>2026-05-02T14:59:53.472Z</time></trkpt><trkpt lat="45.7937073" lon="11.6134149"><ele>681.0000000000001</ele><time>2026-05-02T14:59:54.472Z</time></trkpt><trkpt lat="45.7936643" lon="11.6133389"><ele>681.0</ele><time>2026-05-02T14:59:55.472Z</time></trkpt><trkpt lat="45.7936211" lon="11.6132654"><ele>681.0</ele><time>2026-05-02T14:59:56.472Z</time></trkpt><trkpt lat="45.7935785" lon="11.6131918"><ele>681.0</ele><time>2026-05-02T14:59:57.471Z</time></trkpt><trkpt lat="45.7935324" lon="11.6131241"><ele>681.0</ele><time>2026-05-02T14:59:58.472Z</time></trkpt><trkpt lat="45.7934795" lon="11.613058"><ele>681.0000000000001</ele><time>2026-05-02T14:59:59.473Z</time></trkpt><trkpt lat="45.7934239" lon="11.6129975"><ele>681.0</ele><time>2026-05-02T15:00:00.472Z</time></trkpt><trkpt lat="45.7933598" lon="11.6129484"><ele>681.0</ele><time>2026-05-02T15:00:01.473Z</time></trkpt><trkpt lat="45.7932931" lon="11.6129235"><ele>681.0</ele><time>2026-05-02T15:00:02.473Z</time></trkpt><trkpt lat="45.79323" lon="11.6129098"><ele>681.0</ele><time>2026-05-02T15:00:03.473Z</time></trkpt><trkpt lat="45.7931074" lon="11.6129414"><ele>681.0</ele><time>2026-05-02T15:00:05.472Z</time></trkpt><trkpt lat="45.7930469" lon="11.6129856"><ele>681.0</ele><time>2026-05-02T15:00:06.473Z</time></trkpt><trkpt lat="45.7929932" lon="11.6130357"><ele>681.0</ele><time>2026-05-02T15:00:07.472Z</time></trkpt><trkpt lat="45.792889" lon="11.6131188"><ele>681.0</ele><time>2026-05-02T15:00:09.473Z</time></trkpt><trkpt lat="45.7927867" lon="11.6131624"><ele>681.0</ele><time>2026-05-02T15:00:11.473Z</time></trkpt><trkpt lat="45.7926812" lon="11.613095"><ele>681.0</ele><time>2026-05-02T15:00:13.472Z</time></trkpt><trkpt lat="45.7926057" lon="11.6129678"><ele>681.0</ele><time>2026-05-02T15:00:15.473Z</time></trkpt><trkpt lat="45.7925278" lon="11.6128624"><ele>681.0</ele><time>2026-05-02T15:00:17.473Z</time></trkpt><trkpt lat="45.7924639" lon="11.6127652"><ele>677.5999999999999</ele><time>2026-05-02T15:00:19.472Z</time></trkpt><trkpt lat="45.7924187" lon="11.6126539"><ele>674.2</ele><time>2026-05-02T15:00:21.473Z</time></trkpt><trkpt lat="45.792378" lon="11.612569"><ele>670.8</ele><time>2026-05-02T15:00:23.473Z</time></trkpt><trkpt lat="45.7924607" lon="11.6124918"><ele>667.4000000000001</ele><time>2026-05-02T15:00:26.472Z</time></trkpt><trkpt lat="45.7925643" lon="11.6125245"><ele>664.0</ele><time>2026-05-02T15:00:28.473Z</time></trkpt><trkpt lat="45.7926658" lon="11.6125628"><ele>663.0</ele><time>2026-05-02T15:00:30.472Z</time></trkpt><trkpt lat="45.7927841" lon="11.6125758"><ele>662.0</ele><time>2026-05-02T15:00:32.473Z</time></trkpt><trkpt lat="45.7929136" lon="11.6125913"><ele>661.0</ele><time>2026-05-02T15:00:34.473Z</time></trkpt><trkpt lat="45.7929809" lon="11.612603"><ele>660.0</ele><time>2026-05-02T15:00:35.472Z</time></trkpt><trkpt lat="45.7930506" lon="11.6126115"><ele>659.0</ele><time>2026-05-02T15:00:36.472Z</time></trkpt><trkpt lat="45.7931261" lon="11.6126123"><ele>659.0</ele><time>2026-05-02T15:00:37.472Z</time></trkpt><trkpt lat="45.7931993" lon="11.6126161"><ele>659.0</ele><time>2026-05-02T15:00:38.473Z</time></trkpt><trkpt lat="45.7932674" lon="11.6126256"><ele>659.0</ele><time>2026-05-02T15:00:39.473Z</time></trkpt><trkpt lat="45.7933383" lon="11.6126407"><ele>659.0</ele><time>2026-05-02T15:00:40.473Z</time></trkpt><trkpt lat="45.7934146" lon="11.6126505"><ele>659.0</ele><time>2026-05-02T15:00:41.473Z</time></trkpt><trkpt lat="45.7934918" lon="11.6126537"><ele>659.0</ele><time>2026-05-02T15:00:42.473Z</time></trkpt><trkpt lat="45.7935707" lon="11.6126572"><ele>659.0</ele><time>2026-05-02T15:00:43.473Z</time></trkpt><trkpt lat="45.7936513" lon="11.6126694"><ele>658.0</ele><time>2026-05-02T15:00:44.473Z</time></trkpt><trkpt lat="45.7937391" lon="11.6126832"><ele>657.0</ele><time>2026-05-02T15:00:45.472Z</time></trkpt><trkpt lat="45.7938304" lon="11.6126937"><ele>656.0</ele><time>2026-05-02T15:00:46.472Z</time></trkpt><trkpt lat="45.7939239" lon="11.6127004"><ele>655.0</ele><time>2026-05-02T15:00:47.473Z</time></trkpt><trkpt lat="45.7940196" lon="11.6126915"><ele>654.0</ele><time>2026-05-02T15:00:48.472Z</time></trkpt><trkpt lat="45.7941069" lon="11.6126612"><ele>654.0</ele><time>2026-05-02T15:00:49.473Z</time></trkpt><trkpt lat="45.7941975" lon="11.6126069"><ele>654.0</ele><time>2026-05-02T15:00:50.473Z</time></trkpt><trkpt lat="45.794285" lon="11.6125415"><ele>654.0</ele><time>2026-05-02T15:00:51.473Z</time></trkpt><trkpt lat="45.7943624" lon="11.6124572"><ele>654.0</ele><time>2026-05-02T15:00:52.473Z</time></trkpt><trkpt lat="45.7944227" lon="11.6123557"><ele>654.0</ele><time>2026-05-02T15:00:53.472Z</time></trkpt><trkpt lat="45.7944753" lon="11.6122501"><ele>654.1666666666666</ele><time>2026-05-02T15:00:54.473Z</time></trkpt><trkpt lat="45.7945225" lon="11.6121334"><ele>654.3333333333334</ele><time>2026-05-02T15:00:55.473Z</time></trkpt><trkpt lat="45.7945677" lon="11.6120216"><ele>654.5</ele><time>2026-05-02T15:00:56.473Z</time></trkpt><trkpt lat="45.7946154" lon="11.6119232"><ele>654.6666666666667</ele><time>2026-05-02T15:00:57.472Z</time></trkpt><trkpt lat="45.7946835" lon="11.6118579"><ele>654.8333333333334</ele><time>2026-05-02T15:00:58.473Z</time></trkpt><trkpt lat="45.7947662" lon="11.6118275"><ele>655.0</ele><time>2026-05-02T15:00:59.473Z</time></trkpt><trkpt lat="45.7948563" lon="11.6118223"><ele>654.1666666666667</ele><time>2026-05-02T15:01:00.472Z</time></trkpt><trkpt lat="45.7949474" lon="11.6118258"><ele>653.3333333333334</ele><time>2026-05-02T15:01:01.473Z</time></trkpt><trkpt lat="45.7950358" lon="11.6118414"><ele>652.5</ele><time>2026-05-02T15:01:02.473Z</time></trkpt><trkpt lat="45.795124" lon="11.6118488"><ele>651.6666666666666</ele><time>2026-05-02T15:01:03.473Z</time></trkpt><trkpt lat="45.7951973" lon="11.6118389"><ele>650.8333333333333</ele><time>2026-05-02T15:01:04.472Z</time></trkpt><trkpt lat="45.7952676" lon="11.6118256"><ele>650.0</ele><time>2026-05-02T15:01:05.472Z</time></trkpt><trkpt lat="45.7953322" lon="11.6117943"><ele>650.0</ele><time>2026-05-02T15:01:06.473Z</time></trkpt><trkpt lat="45.7953816" lon="11.6117318"><ele>650.0</ele><time>2026-05-02T15:01:07.473Z</time></trkpt><trkpt lat="45.7954026" lon="11.6116426"><ele>650.0</ele><time>2026-05-02T15:01:08.473Z</time></trkpt><trkpt lat="45.7953965" lon="11.6115307"><ele>650.0</ele><time>2026-05-02T15:01:09.474Z</time></trkpt><trkpt lat="45.7953552" lon="11.6114295"><ele>650.0</ele><time>2026-05-02T15:01:10.474Z</time></trkpt><trkpt lat="45.7952937" lon="11.6113442"><ele>650.0</ele><time>2026-05-02T15:01:11.473Z</time></trkpt><trkpt lat="45.7952287" lon="11.6112886"><ele>649.1666666666666</ele><time>2026-05-02T15:01:12.473Z</time></trkpt><trkpt lat="45.7951588" lon="11.6112398"><ele>648.3333333333333</ele><time>2026-05-02T15:01:13.474Z</time></trkpt><trkpt lat="45.7950895" lon="11.6111804"><ele>647.5</ele><time>2026-05-02T15:01:14.473Z</time></trkpt><trkpt lat="45.7950182" lon="11.6111148"><ele>646.6666666666666</ele><time>2026-05-02T15:01:15.474Z</time></trkpt><trkpt lat="45.7949483" lon="11.6110552"><ele>645.8333333333334</ele><time>2026-05-02T15:01:16.474Z</time></trkpt><trkpt lat="45.7948795" lon="11.6109967"><ele>645.0</ele><time>2026-05-02T15:01:17.473Z</time></trkpt><trkpt lat="45.7948105" lon="11.6109425"><ele>645.0</ele><time>2026-05-02T15:01:18.473Z</time></trkpt><trkpt lat="45.794742" lon="11.610888"><ele>645.0</ele><time>2026-05-02T15:01:19.474Z</time></trkpt><trkpt lat="45.7946727" lon="11.6108223"><ele>645.0</ele><time>2026-05-02T15:01:20.473Z</time></trkpt><trkpt lat="45.7946056" lon="11.6107653"><ele>645.0</ele><time>2026-05-02T15:01:21.474Z</time></trkpt><trkpt lat="45.7945424" lon="11.6107086"><ele>645.0</ele><time>2026-05-02T15:01:22.474Z</time></trkpt><trkpt lat="45.7944785" lon="11.6106556"><ele>645.0</ele><time>2026-05-02T15:01:23.473Z</time></trkpt><trkpt lat="45.7944083" lon="11.6106072"><ele>643.5</ele><time>2026-05-02T15:01:24.474Z</time></trkpt><trkpt lat="45.7943284" lon="11.6105623"><ele>642.0</ele><time>2026-05-02T15:01:25.473Z</time></trkpt><trkpt lat="45.7942502" lon="11.6105204"><ele>640.5</ele><time>2026-05-02T15:01:26.474Z</time></trkpt><trkpt lat="45.7941704" lon="11.6104794"><ele>639.0</ele><time>2026-05-02T15:01:27.474Z</time></trkpt><trkpt lat="45.7940885" lon="11.6104454"><ele>637.5</ele><time>2026-05-02T15:01:28.474Z</time></trkpt><trkpt lat="45.7940112" lon="11.6104043"><ele>636.0</ele><time>2026-05-02T15:01:29.473Z</time></trkpt><trkpt lat="45.7939381" lon="11.6103618"><ele>636.3333333333334</ele><time>2026-05-02T15:01:30.473Z</time></trkpt><trkpt lat="45.793863" lon="11.6103182"><ele>636.6666666666666</ele><time>2026-05-02T15:01:31.474Z</time></trkpt><trkpt lat="45.7937864" lon="11.610278"><ele>637.0</ele><time>2026-05-02T15:01:32.474Z</time></trkpt><trkpt lat="45.7937064" lon="11.6102438"><ele>637.3333333333333</ele><time>2026-05-02T15:01:33.474Z</time></trkpt><trkpt lat="45.7936206" lon="11.6102257"><ele>637.6666666666666</ele><time>2026-05-02T15:01:34.474Z</time></trkpt><trkpt lat="45.7935349" lon="11.6102195"><ele>638.0</ele><time>2026-05-02T15:01:35.473Z</time></trkpt><trkpt lat="45.7934487" lon="11.6102209"><ele>637.1666666666666</ele><time>2026-05-02T15:01:36.474Z</time></trkpt><trkpt lat="45.7933615" lon="11.6102248"><ele>636.3333333333333</ele><time>2026-05-02T15:01:37.473Z</time></trkpt><trkpt lat="45.7932768" lon="11.6102224"><ele>635.5</ele><time>2026-05-02T15:01:38.474Z</time></trkpt><trkpt lat="45.7931977" lon="11.6102233"><ele>634.6666666666666</ele><time>2026-05-02T15:01:39.474Z</time></trkpt><trkpt lat="45.7931191" lon="11.6102167"><ele>633.8333333333334</ele><time>2026-05-02T15:01:40.473Z</time></trkpt><trkpt lat="45.7930419" lon="11.6102083"><ele>633.0</ele><time>2026-05-02T15:01:41.473Z</time></trkpt><trkpt lat="45.792964" lon="11.610183"><ele>633.0</ele><time>2026-05-02T15:01:42.474Z</time></trkpt><trkpt lat="45.7928862" lon="11.6101367"><ele>633.0</ele><time>2026-05-02T15:01:43.474Z</time></trkpt><trkpt lat="45.7928213" lon="11.6100683"><ele>633.0</ele><time>2026-05-02T15:01:44.473Z</time></trkpt><trkpt lat="45.7927582" lon="11.6099859"><ele>633.0</ele><time>2026-05-02T15:01:45.474Z</time></trkpt><trkpt lat="45.7926866" lon="11.6098976"><ele>633.0</ele><time>2026-05-02T15:01:46.474Z</time></trkpt><trkpt lat="45.7926131" lon="11.6098265"><ele>633.0</ele><time>2026-05-02T15:01:47.473Z</time></trkpt><trkpt lat="45.7925439" lon="11.6097716"><ele>633.3333333333334</ele><time>2026-05-02T15:01:48.474Z</time></trkpt><trkpt lat="45.7924793" lon="11.6097216"><ele>633.6666666666666</ele><time>2026-05-02T15:01:49.473Z</time></trkpt><trkpt lat="45.7924158" lon="11.6096676"><ele>634.0</ele><time>2026-05-02T15:01:50.473Z</time></trkpt><trkpt lat="45.7923542" lon="11.6096074"><ele>634.3333333333333</ele><time>2026-05-02T15:01:51.474Z</time></trkpt><trkpt lat="45.792296" lon="11.6095492"><ele>634.6666666666666</ele><time>2026-05-02T15:01:52.474Z</time></trkpt><trkpt lat="45.7922415" lon="11.609498"><ele>635.0</ele><time>2026-05-02T15:01:53.474Z</time></trkpt><trkpt lat="45.7921243" lon="11.6094426"><ele>635.0</ele><time>2026-05-02T15:01:55.474Z</time></trkpt><trkpt lat="45.7920598" lon="11.6094321"><ele>635.0</ele><time>2026-05-02T15:01:56.473Z</time></trkpt><trkpt lat="45.7919968" lon="11.6094276"><ele>635.0</ele><time>2026-05-02T15:01:57.473Z</time></trkpt><trkpt lat="45.7919321" lon="11.6094163"><ele>635.0</ele><time>2026-05-02T15:01:58.474Z</time></trkpt><trkpt lat="45.7918039" lon="11.6093853"><ele>635.0</ele><time>2026-05-02T15:02:00.473Z</time></trkpt><trkpt lat="45.7917327" lon="11.609371"><ele>635.0</ele><time>2026-05-02T15:02:01.474Z</time></trkpt><trkpt lat="45.7916584" lon="11.6093619"><ele>634.5</ele><time>2026-05-02T15:02:02.474Z</time></trkpt><trkpt lat="45.7915846" lon="11.6093506"><ele>634.0</ele><time>2026-05-02T15:02:03.474Z</time></trkpt><trkpt lat="45.7915106" lon="11.6093346"><ele>633.5</ele><time>2026-05-02T15:02:04.474Z</time></trkpt><trkpt lat="45.7914347" lon="11.6093186"><ele>633.0</ele><time>2026-05-02T15:02:05.474Z</time></trkpt><trkpt lat="45.7913567" lon="11.6093028"><ele>632.5</ele><time>2026-05-02T15:02:06.473Z</time></trkpt><trkpt lat="45.7912761" lon="11.6092888"><ele>632.0</ele><time>2026-05-02T15:02:07.474Z</time></trkpt><trkpt lat="45.7911932" lon="11.609274"><ele>632.0</ele><time>2026-05-02T15:02:08.474Z</time></trkpt><trkpt lat="45.7911088" lon="11.6092559"><ele>632.0</ele><time>2026-05-02T15:02:09.474Z</time></trkpt><trkpt lat="45.791024" lon="11.6092346"><ele>632.0</ele><time>2026-05-02T15:02:10.474Z</time></trkpt><trkpt lat="45.790941" lon="11.6092152"><ele>632.0</ele><time>2026-05-02T15:02:11.474Z</time></trkpt><trkpt lat="45.7908553" lon="11.6091989"><ele>632.0</ele><time>2026-05-02T15:02:12.474Z</time></trkpt><trkpt lat="45.7907674" lon="11.6091886"><ele>632.0</ele><time>2026-05-02T15:02:13.474Z</time></trkpt><trkpt lat="45.7906805" lon="11.6091844"><ele>630.8333333333333</ele><time>2026-05-02T15:02:14.474Z</time></trkpt><trkpt lat="45.7905977" lon="11.6091833"><ele>629.6666666666666</ele><time>2026-05-02T15:02:15.473Z</time></trkpt><trkpt lat="45.7905162" lon="11.6091852"><ele>628.5</ele><time>2026-05-02T15:02:16.474Z</time></trkpt><trkpt lat="45.7904345" lon="11.609191"><ele>627.3333333333334</ele><time>2026-05-02T15:02:17.474Z</time></trkpt><trkpt lat="45.790353" lon="11.6091969"><ele>626.1666666666667</ele><time>2026-05-02T15:02:18.474Z</time></trkpt><trkpt lat="45.7902717" lon="11.6092054"><ele>625.0</ele><time>2026-05-02T15:02:19.475Z</time></trkpt><trkpt lat="45.7901841" lon="11.6092143"><ele>623.8333333333334</ele><time>2026-05-02T15:02:20.475Z</time></trkpt><trkpt lat="45.7900853" lon="11.6092097"><ele>622.6666666666667</ele><time>2026-05-02T15:02:21.475Z</time></trkpt><trkpt lat="45.7899958" lon="11.6091914"><ele>621.5</ele><time>2026-05-02T15:02:22.475Z</time></trkpt><trkpt lat="45.7899131" lon="11.6091596"><ele>620.3333333333334</ele><time>2026-05-02T15:02:23.475Z</time></trkpt><trkpt lat="45.7898374" lon="11.6091167"><ele>619.1666666666666</ele><time>2026-05-02T15:02:24.475Z</time></trkpt><trkpt lat="45.7897644" lon="11.609066"><ele>618.0</ele><time>2026-05-02T15:02:25.475Z</time></trkpt><trkpt lat="45.7896918" lon="11.6090167"><ele>618.0</ele><time>2026-05-02T15:02:26.475Z</time></trkpt><trkpt lat="45.7896127" lon="11.6089678"><ele>618.0</ele><time>2026-05-02T15:02:27.474Z</time></trkpt><trkpt lat="45.7895309" lon="11.6089177"><ele>618.0</ele><time>2026-05-02T15:02:28.475Z</time></trkpt><trkpt lat="45.789454" lon="11.6088742"><ele>618.0</ele><time>2026-05-02T15:02:29.475Z</time></trkpt><trkpt lat="45.7893834" lon="11.6088277"><ele>618.0</ele><time>2026-05-02T15:02:30.475Z</time></trkpt><trkpt lat="45.7893058" lon="11.6087785"><ele>618.0</ele><time>2026-05-02T15:02:31.475Z</time></trkpt><trkpt lat="45.7892283" lon="11.6087322"><ele>617.6666666666666</ele><time>2026-05-02T15:02:32.474Z</time></trkpt><trkpt lat="45.789154" lon="11.6086854"><ele>617.3333333333334</ele><time>2026-05-02T15:02:33.475Z</time></trkpt><trkpt lat="45.789078" lon="11.6086381"><ele>617.0</ele><time>2026-05-02T15:02:34.475Z</time></trkpt><trkpt lat="45.7890035" lon="11.6086026"><ele>616.6666666666667</ele><time>2026-05-02T15:02:35.475Z</time></trkpt><trkpt lat="45.7889298" lon="11.6085605"><ele>616.3333333333334</ele><time>2026-05-02T15:02:36.475Z</time></trkpt><trkpt lat="45.7888571" lon="11.6085147"><ele>616.0</ele><time>2026-05-02T15:02:37.474Z</time></trkpt><trkpt lat="45.7887899" lon="11.6084613"><ele>615.6666666666667</ele><time>2026-05-02T15:02:38.475Z</time></trkpt><trkpt lat="45.7887275" lon="11.6083792"><ele>615.3333333333334</ele><time>2026-05-02T15:02:39.475Z</time></trkpt><trkpt lat="45.7886698" lon="11.6082876"><ele>615.0</ele><time>2026-05-02T15:02:40.475Z</time></trkpt><trkpt lat="45.7886217" lon="11.6081947"><ele>614.6666666666666</ele><time>2026-05-02T15:02:41.475Z</time></trkpt><trkpt lat="45.7885811" lon="11.6080985"><ele>614.3333333333333</ele><time>2026-05-02T15:02:42.475Z</time></trkpt><trkpt lat="45.788544" lon="11.6079963"><ele>614.0</ele><time>2026-05-02T15:02:43.475Z</time></trkpt><trkpt lat="45.7885029" lon="11.6079015"><ele>614.8</ele><time>2026-05-02T15:02:44.475Z</time></trkpt><trkpt lat="45.788464" lon="11.6078155"><ele>615.5999999999999</ele><time>2026-05-02T15:02:45.474Z</time></trkpt><trkpt lat="45.788429" lon="11.6077344"><ele>616.4</ele><time>2026-05-02T15:02:46.475Z</time></trkpt><trkpt lat="45.7883689" lon="11.6075819"><ele>617.1999999999999</ele><time>2026-05-02T15:02:48.475Z</time></trkpt><trkpt lat="45.7883124" lon="11.6074303"><ele>618.0</ele><time>2026-05-02T15:02:50.475Z</time></trkpt><trkpt lat="45.7882465" lon="11.607287"><ele>618.0</ele><time>2026-05-02T15:02:52.475Z</time></trkpt><trkpt lat="45.7881743" lon="11.607142"><ele>618.0</ele><time>2026-05-02T15:02:54.475Z</time></trkpt><trkpt lat="45.7880958" lon="11.6070021"><ele>618.0</ele><time>2026-05-02T15:02:56.475Z</time></trkpt><trkpt lat="45.7880516" lon="11.6069324"><ele>618.0</ele><time>2026-05-02T15:02:57.475Z</time></trkpt><trkpt lat="45.7880082" lon="11.6068668"><ele>618.0</ele><time>2026-05-02T15:02:58.475Z</time></trkpt><trkpt lat="45.7879235" lon="11.6067295"><ele>618.3333333333334</ele><time>2026-05-02T15:03:00.475Z</time></trkpt><trkpt lat="45.7878799" lon="11.6066432"><ele>618.6666666666666</ele><time>2026-05-02T15:03:01.475Z</time></trkpt><trkpt lat="45.7878351" lon="11.6065557"><ele>619.0</ele><time>2026-05-02T15:03:02.475Z</time></trkpt><trkpt lat="45.7877923" lon="11.6064626"><ele>619.3333333333333</ele><time>2026-05-02T15:03:03.475Z</time></trkpt><trkpt lat="45.7877467" lon="11.6063639"><ele>619.6666666666666</ele><time>2026-05-02T15:03:04.474Z</time></trkpt><trkpt lat="45.7876992" lon="11.6062636"><ele>620.0</ele><time>2026-05-02T15:03:05.475Z</time></trkpt><trkpt lat="45.7876564" lon="11.6061629"><ele>619.5</ele><time>2026-05-02T15:03:06.475Z</time></trkpt><trkpt lat="45.7876244" lon="11.606061"><ele>619.0</ele><time>2026-05-02T15:03:07.475Z</time></trkpt><trkpt lat="45.7875974" lon="11.6059489"><ele>618.5</ele><time>2026-05-02T15:03:08.475Z</time></trkpt><trkpt lat="45.7875769" lon="11.6058369"><ele>618.0</ele><time>2026-05-02T15:03:09.475Z</time></trkpt><trkpt lat="45.787548" lon="11.605716"><ele>617.5</ele><time>2026-05-02T15:03:10.475Z</time></trkpt><trkpt lat="45.787507" lon="11.6056006"><ele>617.0</ele><time>2026-05-02T15:03:11.474Z</time></trkpt><trkpt lat="45.787461" lon="11.6054953"><ele>617.0</ele><time>2026-05-02T15:03:12.475Z</time></trkpt><trkpt lat="45.7874059" lon="11.6053833"><ele>617.0</ele><time>2026-05-02T15:03:13.475Z</time></trkpt><trkpt lat="45.7873544" lon="11.6052723"><ele>617.0</ele><time>2026-05-02T15:03:14.475Z</time></trkpt><trkpt lat="45.7872931" lon="11.6051569"><ele>617.0</ele><time>2026-05-02T15:03:15.474Z</time></trkpt><trkpt lat="45.7872351" lon="11.605049"><ele>617.0</ele><time>2026-05-02T15:03:16.475Z</time></trkpt><trkpt lat="45.7871766" lon="11.6049522"><ele>618.0</ele><time>2026-05-02T15:03:17.475Z</time></trkpt><trkpt lat="45.7871171" lon="11.6048649"><ele>619.0</ele><time>2026-05-02T15:03:18.474Z</time></trkpt><trkpt lat="45.7870523" lon="11.6047884"><ele>620.0</ele><time>2026-05-02T15:03:19.475Z</time></trkpt><trkpt lat="45.7869725" lon="11.6047091"><ele>621.0</ele><time>2026-05-02T15:03:20.475Z</time></trkpt><trkpt lat="45.7868919" lon="11.6046518"><ele>622.0</ele><time>2026-05-02T15:03:21.474Z</time></trkpt><trkpt lat="45.7868046" lon="11.604602"><ele>619.3333333333334</ele><time>2026-05-02T15:03:22.475Z</time></trkpt><trkpt lat="45.7867173" lon="11.6045635"><ele>616.6666666666667</ele><time>2026-05-02T15:03:23.475Z</time></trkpt><trkpt lat="45.7866346" lon="11.6045488"><ele>614.0</ele><time>2026-05-02T15:03:24.475Z</time></trkpt><trkpt lat="45.7865559" lon="11.6045483"><ele>611.3333333333334</ele><time>2026-05-02T15:03:25.475Z</time></trkpt><trkpt lat="45.7864739" lon="11.604557"><ele>608.6666666666666</ele><time>2026-05-02T15:03:26.475Z</time></trkpt><trkpt lat="45.7863955" lon="11.6045639"><ele>606.0</ele><time>2026-05-02T15:03:27.475Z</time></trkpt><trkpt lat="45.7863131" lon="11.6045677"><ele>606.0</ele><time>2026-05-02T15:03:28.476Z</time></trkpt><trkpt lat="45.7862321" lon="11.6045709"><ele>606.0</ele><time>2026-05-02T15:03:29.476Z</time></trkpt><trkpt lat="45.7861632" lon="11.6045842"><ele>606.0</ele><time>2026-05-02T15:03:30.475Z</time></trkpt><trkpt lat="45.7860897" lon="11.6045974"><ele>606.0</ele><time>2026-05-02T15:03:31.476Z</time></trkpt><trkpt lat="45.7860162" lon="11.6046052"><ele>606.0</ele><time>2026-05-02T15:03:32.476Z</time></trkpt><trkpt lat="45.7859379" lon="11.6046079"><ele>606.0</ele><time>2026-05-02T15:03:33.475Z</time></trkpt><trkpt lat="45.7858557" lon="11.6046129"><ele>605.8333333333334</ele><time>2026-05-02T15:03:34.476Z</time></trkpt><trkpt lat="45.7857715" lon="11.6046119"><ele>605.6666666666666</ele><time>2026-05-02T15:03:35.475Z</time></trkpt><trkpt lat="45.7856966" lon="11.6046164"><ele>605.5</ele><time>2026-05-02T15:03:36.476Z</time></trkpt><trkpt lat="45.785624" lon="11.6046118"><ele>605.3333333333333</ele><time>2026-05-02T15:03:37.476Z</time></trkpt><trkpt lat="45.785552" lon="11.604607"><ele>605.1666666666666</ele><time>2026-05-02T15:03:38.476Z</time></trkpt><trkpt lat="45.7854718" lon="11.6046071"><ele>605.0</ele><time>2026-05-02T15:03:39.475Z</time></trkpt><trkpt lat="45.7853932" lon="11.604622"><ele>605.0</ele><time>2026-05-02T15:03:40.475Z</time></trkpt><trkpt lat="45.7853164" lon="11.6046369"><ele>605.0</ele><time>2026-05-02T15:03:41.476Z</time></trkpt><trkpt lat="45.7852395" lon="11.6046555"><ele>605.0</ele><time>2026-05-02T15:03:42.476Z</time></trkpt><trkpt lat="45.7851635" lon="11.6046662"><ele>605.0</ele><time>2026-05-02T15:03:43.475Z</time></trkpt><trkpt lat="45.7850864" lon="11.6046757"><ele>605.0</ele><time>2026-05-02T15:03:44.476Z</time></trkpt><trkpt lat="45.7850084" lon="11.6046927"><ele>605.0</ele><time>2026-05-02T15:03:45.475Z</time></trkpt><trkpt lat="45.784936" lon="11.604705"><ele>605.1666666666666</ele><time>2026-05-02T15:03:46.476Z</time></trkpt><trkpt lat="45.784853" lon="11.604725"><ele>605.3333333333333</ele><time>2026-05-02T15:03:47.476Z</time></trkpt><trkpt lat="45.7847803" lon="11.6047303"><ele>605.5</ele><time>2026-05-02T15:03:48.476Z</time></trkpt><trkpt lat="45.7847075" lon="11.6047482"><ele>605.6666666666666</ele><time>2026-05-02T15:03:49.475Z</time></trkpt><trkpt lat="45.7846292" lon="11.6047714"><ele>605.8333333333334</ele><time>2026-05-02T15:03:50.476Z</time></trkpt><trkpt lat="45.7845584" lon="11.6047892"><ele>606.0</ele><time>2026-05-02T15:03:51.476Z</time></trkpt><trkpt lat="45.7844903" lon="11.6048123"><ele>606.0</ele><time>2026-05-02T15:03:52.476Z</time></trkpt><trkpt lat="45.7844217" lon="11.6048212"><ele>606.0</ele><time>2026-05-02T15:03:53.476Z</time></trkpt><trkpt lat="45.7843375" lon="11.6048406"><ele>606.0</ele><time>2026-05-02T15:03:54.476Z</time></trkpt><trkpt lat="45.7842596" lon="11.6048678"><ele>606.0</ele><time>2026-05-02T15:03:55.475Z</time></trkpt><trkpt lat="45.7841725" lon="11.6048979"><ele>606.0</ele><time>2026-05-02T15:03:56.476Z</time></trkpt><trkpt lat="45.7840849" lon="11.6049351"><ele>606.0</ele><time>2026-05-02T15:03:57.476Z</time></trkpt><trkpt lat="45.7839943" lon="11.6049718"><ele>605.6</ele><time>2026-05-02T15:03:58.476Z</time></trkpt><trkpt lat="45.7839068" lon="11.6050197"><ele>605.2</ele><time>2026-05-02T15:03:59.476Z</time></trkpt><trkpt lat="45.7838118" lon="11.6050644"><ele>604.8</ele><time>2026-05-02T15:04:00.476Z</time></trkpt><trkpt lat="45.7837023" lon="11.6050904"><ele>604.4</ele><time>2026-05-02T15:04:01.476Z</time></trkpt><trkpt lat="45.7835983" lon="11.6050908"><ele>604.0</ele><time>2026-05-02T15:04:02.476Z</time></trkpt><trkpt lat="45.7834951" lon="11.6050376"><ele>604.2</ele><time>2026-05-02T15:04:03.475Z</time></trkpt><trkpt lat="45.7834046" lon="11.6049619"><ele>604.4</ele><time>2026-05-02T15:04:04.476Z</time></trkpt><trkpt lat="45.7833225" lon="11.6048595"><ele>604.6</ele><time>2026-05-02T15:04:05.476Z</time></trkpt><trkpt lat="45.783256" lon="11.6047459"><ele>604.8</ele><time>2026-05-02T15:04:06.476Z</time></trkpt><trkpt lat="45.7832078" lon="11.6046223"><ele>605.0</ele><time>2026-05-02T15:04:07.476Z</time></trkpt><trkpt lat="45.7831831" lon="11.6044933"><ele>605.0</ele><time>2026-05-02T15:04:08.476Z</time></trkpt><trkpt lat="45.7831598" lon="11.6043425"><ele>605.0</ele><time>2026-05-02T15:04:09.475Z</time></trkpt><trkpt lat="45.78314" lon="11.6041958"><ele>605.0</ele><time>2026-05-02T15:04:10.476Z</time></trkpt><trkpt lat="45.7831202" lon="11.6040632"><ele>605.0</ele><time>2026-05-02T15:04:11.476Z</time></trkpt><trkpt lat="45.7830993" lon="11.6039438"><ele>605.0</ele><time>2026-05-02T15:04:12.475Z</time></trkpt><trkpt lat="45.7830713" lon="11.6038182"><ele>605.0</ele><time>2026-05-02T15:04:13.476Z</time></trkpt><trkpt lat="45.7830264" lon="11.6037087"><ele>605.0</ele><time>2026-05-02T15:04:14.476Z</time></trkpt><trkpt lat="45.7829781" lon="11.603598"><ele>605.0</ele><time>2026-05-02T15:04:15.476Z</time></trkpt><trkpt lat="45.7829275" lon="11.6034867"><ele>605.0</ele><time>2026-05-02T15:04:16.476Z</time></trkpt><trkpt lat="45.7828772" lon="11.6033879"><ele>605.0</ele><time>2026-05-02T15:04:17.476Z</time></trkpt><trkpt lat="45.7828259" lon="11.6032873"><ele>605.0</ele><time>2026-05-02T15:04:18.475Z</time></trkpt><trkpt lat="45.782779" lon="11.6031869"><ele>607.4</ele><time>2026-05-02T15:04:19.476Z</time></trkpt><trkpt lat="45.7827282" lon="11.6030828"><ele>609.8</ele><time>2026-05-02T15:04:20.475Z</time></trkpt><trkpt lat="45.7826806" lon="11.6029738"><ele>612.2</ele><time>2026-05-02T15:04:21.476Z</time></trkpt><trkpt lat="45.7826346" lon="11.6028595"><ele>614.6</ele><time>2026-05-02T15:04:22.475Z</time></trkpt><trkpt lat="45.7825913" lon="11.6027351"><ele>617.0</ele><time>2026-05-02T15:04:23.475Z</time></trkpt><trkpt lat="45.7825539" lon="11.6026087"><ele>608.2</ele><time>2026-05-02T15:04:24.476Z</time></trkpt><trkpt lat="45.7825199" lon="11.602477"><ele>599.4000000000001</ele><time>2026-05-02T15:04:25.476Z</time></trkpt><trkpt lat="45.7824953" lon="11.6023446"><ele>590.5999999999999</ele><time>2026-05-02T15:04:26.476Z</time></trkpt><trkpt lat="45.7824752" lon="11.6022094"><ele>581.8</ele><time>2026-05-02T15:04:27.476Z</time></trkpt><trkpt lat="45.7824638" lon="11.6020761"><ele>573.0</ele><time>2026-05-02T15:04:28.476Z</time></trkpt><trkpt lat="45.7824645" lon="11.6019399"><ele>571.8</ele><time>2026-05-02T15:04:29.476Z</time></trkpt><trkpt lat="45.7824829" lon="11.601803"><ele>570.5999999999999</ele><time>2026-05-02T15:04:30.476Z</time></trkpt><trkpt lat="45.7825207" lon="11.6016633"><ele>569.4000000000001</ele><time>2026-05-02T15:04:31.476Z</time></trkpt><trkpt lat="45.7825718" lon="11.6015239"><ele>568.2</ele><time>2026-05-02T15:04:32.476Z</time></trkpt><trkpt lat="45.7826196" lon="11.6013917"><ele>567.0</ele><time>2026-05-02T15:04:33.476Z</time></trkpt><trkpt lat="45.7826629" lon="11.6012631"><ele>571.0</ele><time>2026-05-02T15:04:34.477Z</time></trkpt><trkpt lat="45.7827057" lon="11.6011325"><ele>575.0</ele><time>2026-05-02T15:04:35.476Z</time></trkpt><trkpt lat="45.7827489" lon="11.6010096"><ele>579.0</ele><time>2026-05-02T15:04:36.477Z</time></trkpt><trkpt lat="45.7827984" lon="11.6008888"><ele>583.0</ele><time>2026-05-02T15:04:37.477Z</time></trkpt><trkpt lat="45.7828537" lon="11.6007727"><ele>587.0</ele><time>2026-05-02T15:04:38.476Z</time></trkpt><trkpt lat="45.7829162" lon="11.6006646"><ele>587.0</ele><time>2026-05-02T15:04:39.477Z</time></trkpt><trkpt lat="45.7829912" lon="11.6005561"><ele>587.0</ele><time>2026-05-02T15:04:40.477Z</time></trkpt><trkpt lat="45.7830689" lon="11.6004382"><ele>587.0</ele><time>2026-05-02T15:04:41.476Z</time></trkpt><trkpt lat="45.7831446" lon="11.6003283"><ele>587.0</ele><time>2026-05-02T15:04:42.477Z</time></trkpt><trkpt lat="45.7832191" lon="11.6002206"><ele>587.0</ele><time>2026-05-02T15:04:43.477Z</time></trkpt><trkpt lat="45.7832999" lon="11.6001318"><ele>585.8000000000001</ele><time>2026-05-02T15:04:44.477Z</time></trkpt><trkpt lat="45.7833858" lon="11.6000438"><ele>584.6</ele><time>2026-05-02T15:04:45.476Z</time></trkpt><trkpt lat="45.7834702" lon="11.5999663"><ele>583.4000000000001</ele><time>2026-05-02T15:04:46.477Z</time></trkpt><trkpt lat="45.7835565" lon="11.5998846"><ele>582.2</ele><time>2026-05-02T15:04:47.477Z</time></trkpt><trkpt lat="45.7836432" lon="11.5997997"><ele>581.0</ele><time>2026-05-02T15:04:48.477Z</time></trkpt><trkpt lat="45.7837291" lon="11.5997219"><ele>581.0</ele><time>2026-05-02T15:04:49.477Z</time></trkpt><trkpt lat="45.7838121" lon="11.5996444"><ele>581.0</ele><time>2026-05-02T15:04:50.476Z</time></trkpt><trkpt lat="45.7838976" lon="11.5995775"><ele>581.0</ele><time>2026-05-02T15:04:51.477Z</time></trkpt><trkpt lat="45.783982" lon="11.5995204"><ele>581.0</ele><time>2026-05-02T15:04:52.476Z</time></trkpt><trkpt lat="45.7840659" lon="11.5994852"><ele>581.0</ele><time>2026-05-02T15:04:53.477Z</time></trkpt><trkpt lat="45.7841584" lon="11.5994475"><ele>577.0</ele><time>2026-05-02T15:04:54.476Z</time></trkpt><trkpt lat="45.7842514" lon="11.5994155"><ele>573.0</ele><time>2026-05-02T15:04:55.477Z</time></trkpt><trkpt lat="45.7843455" lon="11.5993746"><ele>569.0</ele><time>2026-05-02T15:04:56.477Z</time></trkpt><trkpt lat="45.7844302" lon="11.5993289"><ele>565.0</ele><time>2026-05-02T15:04:57.476Z</time></trkpt><trkpt lat="45.7845147" lon="11.5992867"><ele>561.0</ele><time>2026-05-02T15:04:58.476Z</time></trkpt><trkpt lat="45.7846049" lon="11.5992434"><ele>561.0</ele><time>2026-05-02T15:04:59.477Z</time></trkpt><trkpt lat="45.7846961" lon="11.5992061"><ele>561.0</ele><time>2026-05-02T15:05:00.477Z</time></trkpt><trkpt lat="45.7847811" lon="11.5991672"><ele>561.0</ele><time>2026-05-02T15:05:01.477Z</time></trkpt><trkpt lat="45.7848673" lon="11.5991267"><ele>561.0</ele><time>2026-05-02T15:05:02.477Z</time></trkpt><trkpt lat="45.7849539" lon="11.5990874"><ele>561.0</ele><time>2026-05-02T15:05:03.477Z</time></trkpt><trkpt lat="45.7850399" lon="11.5990476"><ele>561.0</ele><time>2026-05-02T15:05:04.477Z</time></trkpt><trkpt lat="45.785124" lon="11.5990171"><ele>561.0</ele><time>2026-05-02T15:05:05.476Z</time></trkpt><trkpt lat="45.7852046" lon="11.5989855"><ele>561.0</ele><time>2026-05-02T15:05:06.477Z</time></trkpt><trkpt lat="45.7852827" lon="11.5989532"><ele>561.0</ele><time>2026-05-02T15:05:07.477Z</time></trkpt><trkpt lat="45.7853597" lon="11.5989231"><ele>561.0</ele><time>2026-05-02T15:05:08.477Z</time></trkpt><trkpt lat="45.7854335" lon="11.5988911"><ele>561.0</ele><time>2026-05-02T15:05:09.477Z</time></trkpt><trkpt lat="45.7855064" lon="11.598866"><ele>562.4</ele><time>2026-05-02T15:05:10.477Z</time></trkpt><trkpt lat="45.7855734" lon="11.5988476"><ele>563.8</ele><time>2026-05-02T15:05:11.477Z</time></trkpt><trkpt lat="45.7856522" lon="11.5987544"><ele>565.1999999999999</ele><time>2026-05-02T15:05:13.477Z</time></trkpt><trkpt lat="45.785607" lon="11.5986366"><ele>566.6</ele><time>2026-05-02T15:05:15.477Z</time></trkpt><trkpt lat="45.7854841" lon="11.598628"><ele>568.0</ele><time>2026-05-02T15:05:17.477Z</time></trkpt><trkpt lat="45.7854179" lon="11.5986332"><ele>568.0</ele><time>2026-05-02T15:05:18.477Z</time></trkpt><trkpt lat="45.7853495" lon="11.598657"><ele>568.0</ele><time>2026-05-02T15:05:19.477Z</time></trkpt><trkpt lat="45.78527" lon="11.5986937"><ele>568.0</ele><time>2026-05-02T15:05:20.476Z</time></trkpt><trkpt lat="45.78519" lon="11.5987239"><ele>568.0</ele><time>2026-05-02T15:05:21.477Z</time></trkpt><trkpt lat="45.7851115" lon="11.5987462"><ele>568.0</ele><time>2026-05-02T15:05:22.477Z</time></trkpt><trkpt lat="45.785037" lon="11.5987646"><ele>568.0</ele><time>2026-05-02T15:05:23.476Z</time></trkpt><trkpt lat="45.7849611" lon="11.5987855"><ele>566.8333333333334</ele><time>2026-05-02T15:05:24.477Z</time></trkpt><trkpt lat="45.7848851" lon="11.5988087"><ele>565.6666666666667</ele><time>2026-05-02T15:05:25.477Z</time></trkpt><trkpt lat="45.7848072" lon="11.5988337"><ele>564.5</ele><time>2026-05-02T15:05:26.477Z</time></trkpt><trkpt lat="45.7847288" lon="11.5988495"><ele>563.3333333333334</ele><time>2026-05-02T15:05:27.477Z</time></trkpt><trkpt lat="45.7846509" lon="11.5988684"><ele>562.1666666666666</ele><time>2026-05-02T15:05:28.477Z</time></trkpt><trkpt lat="45.7845794" lon="11.5988844"><ele>561.0</ele><time>2026-05-02T15:05:29.476Z</time></trkpt><trkpt lat="45.7844625" lon="11.5989054"><ele>559.6</ele><time>2026-05-02T15:05:31.476Z</time></trkpt><trkpt lat="45.7843435" lon="11.5989401"><ele>558.2</ele><time>2026-05-02T15:05:33.477Z</time></trkpt><trkpt lat="45.7842434" lon="11.5989285"><ele>556.8</ele><time>2026-05-02T15:05:35.477Z</time></trkpt><trkpt lat="45.7841737" lon="11.5988805"><ele>555.4</ele><time>2026-05-02T15:05:37.477Z</time></trkpt><trkpt lat="45.7840932" lon="11.5988927"><ele>554.0</ele><time>2026-05-02T15:05:39.477Z</time></trkpt><trkpt lat="45.784008" lon="11.5989844"><ele>554.0</ele><time>2026-05-02T15:05:41.477Z</time></trkpt><trkpt lat="45.7839157" lon="11.5990541"><ele>554.0</ele><time>2026-05-02T15:05:43.476Z</time></trkpt><trkpt lat="45.7838073" lon="11.5991048"><ele>554.0</ele><time>2026-05-02T15:05:45.478Z</time></trkpt><trkpt lat="45.7836977" lon="11.5991786"><ele>554.0</ele><time>2026-05-02T15:05:47.478Z</time></trkpt><trkpt lat="45.783596" lon="11.5992597"><ele>554.5</ele><time>2026-05-02T15:05:49.478Z</time></trkpt><trkpt lat="45.7834883" lon="11.5993314"><ele>555.0</ele><time>2026-05-02T15:05:51.478Z</time></trkpt><trkpt lat="45.7833807" lon="11.5993986"><ele>555.5</ele><time>2026-05-02T15:05:53.478Z</time></trkpt><trkpt lat="45.7832762" lon="11.5994658"><ele>556.0</ele><time>2026-05-02T15:05:55.478Z</time></trkpt><trkpt lat="45.7831683" lon="11.599548"><ele>556.0</ele><time>2026-05-02T15:05:57.478Z</time></trkpt><trkpt lat="45.7831153" lon="11.5996012"><ele>556.0</ele><time>2026-05-02T15:05:58.478Z</time></trkpt><trkpt lat="45.7830596" lon="11.5996591"><ele>556.0</ele><time>2026-05-02T15:05:59.478Z</time></trkpt><trkpt lat="45.7829579" lon="11.5997568"><ele>556.0</ele><time>2026-05-02T15:06:01.477Z</time></trkpt><trkpt lat="45.7829058" lon="11.5998222"><ele>556.0</ele><time>2026-05-02T15:06:02.477Z</time></trkpt><trkpt lat="45.7828515" lon="11.5998937"><ele>556.0</ele><time>2026-05-02T15:06:03.477Z</time></trkpt><trkpt lat="45.7827964" lon="11.599966"><ele>556.0</ele><time>2026-05-02T15:06:04.478Z</time></trkpt><trkpt lat="45.7827463" lon="11.6000383"><ele>556.0</ele><time>2026-05-02T15:06:05.478Z</time></trkpt><trkpt lat="45.7826904" lon="11.6001058"><ele>556.0</ele><time>2026-05-02T15:06:06.478Z</time></trkpt><trkpt lat="45.7826353" lon="11.6001733"><ele>556.0</ele><time>2026-05-02T15:06:07.478Z</time></trkpt><trkpt lat="45.7825807" lon="11.6002403"><ele>556.0</ele><time>2026-05-02T15:06:08.477Z</time></trkpt><trkpt lat="45.7825312" lon="11.6003142"><ele>556.0</ele><time>2026-05-02T15:06:09.478Z</time></trkpt><trkpt lat="45.7824856" lon="11.6003934"><ele>556.0</ele><time>2026-05-02T15:06:10.478Z</time></trkpt><trkpt lat="45.7824363" lon="11.6004796"><ele>554.3333333333334</ele><time>2026-05-02T15:06:11.478Z</time></trkpt><trkpt lat="45.7823895" lon="11.600566"><ele>552.6666666666667</ele><time>2026-05-02T15:06:12.478Z</time></trkpt><trkpt lat="45.7823451" lon="11.6006559"><ele>551.0</ele><time>2026-05-02T15:06:13.478Z</time></trkpt><trkpt lat="45.782309" lon="11.600752"><ele>549.3333333333334</ele><time>2026-05-02T15:06:14.477Z</time></trkpt><trkpt lat="45.782276" lon="11.6008503"><ele>547.6666666666666</ele><time>2026-05-02T15:06:15.478Z</time></trkpt><trkpt lat="45.7822439" lon="11.6009419"><ele>546.0</ele><time>2026-05-02T15:06:16.477Z</time></trkpt><trkpt lat="45.7822004" lon="11.6010425"><ele>546.0</ele><time>2026-05-02T15:06:17.478Z</time></trkpt><trkpt lat="45.7821579" lon="11.6011465"><ele>546.0</ele><time>2026-05-02T15:06:18.477Z</time></trkpt><trkpt lat="45.7821153" lon="11.6012423"><ele>546.0</ele><time>2026-05-02T15:06:19.478Z</time></trkpt><trkpt lat="45.7820727" lon="11.601341"><ele>546.0</ele><time>2026-05-02T15:06:20.478Z</time></trkpt><trkpt lat="45.7820388" lon="11.6014322"><ele>546.0</ele><time>2026-05-02T15:06:21.478Z</time></trkpt><trkpt lat="45.7819858" lon="11.6015287"><ele>546.0</ele><time>2026-05-02T15:06:22.478Z</time></trkpt><trkpt lat="45.7819267" lon="11.6016189"><ele>543.6666666666666</ele><time>2026-05-02T15:06:23.478Z</time></trkpt><trkpt lat="45.7818661" lon="11.6017036"><ele>541.3333333333334</ele><time>2026-05-02T15:06:24.477Z</time></trkpt><trkpt lat="45.7818076" lon="11.6017847"><ele>539.0</ele><time>2026-05-02T15:06:25.478Z</time></trkpt><trkpt lat="45.7817521" lon="11.6018669"><ele>536.6666666666667</ele><time>2026-05-02T15:06:26.477Z</time></trkpt><trkpt lat="45.7816988" lon="11.6019483"><ele>534.3333333333334</ele><time>2026-05-02T15:06:27.478Z</time></trkpt><trkpt lat="45.7816618" lon="11.6020349"><ele>532.0</ele><time>2026-05-02T15:06:28.478Z</time></trkpt><trkpt lat="45.78165" lon="11.6021351"><ele>532.0</ele><time>2026-05-02T15:06:29.478Z</time></trkpt><trkpt lat="45.7816646" lon="11.6022372"><ele>532.0</ele><time>2026-05-02T15:06:30.477Z</time></trkpt><trkpt lat="45.7817043" lon="11.6023343"><ele>532.0</ele><time>2026-05-02T15:06:31.478Z</time></trkpt><trkpt lat="45.7817577" lon="11.6024314"><ele>532.0</ele><time>2026-05-02T15:06:32.477Z</time></trkpt><trkpt lat="45.7818127" lon="11.6025226"><ele>532.0</ele><time>2026-05-02T15:06:33.478Z</time></trkpt><trkpt lat="45.7818645" lon="11.6026063"><ele>532.0</ele><time>2026-05-02T15:06:34.478Z</time></trkpt><trkpt lat="45.7819133" lon="11.6026922"><ele>538.8333333333334</ele><time>2026-05-02T15:06:35.478Z</time></trkpt><trkpt lat="45.7819583" lon="11.6027757"><ele>545.6666666666667</ele><time>2026-05-02T15:06:36.478Z</time></trkpt><trkpt lat="45.7820029" lon="11.6028592"><ele>552.5</ele><time>2026-05-02T15:06:37.478Z</time></trkpt><trkpt lat="45.7820447" lon="11.6029395"><ele>559.3333333333334</ele><time>2026-05-02T15:06:38.478Z</time></trkpt><trkpt lat="45.7820807" lon="11.6030157"><ele>566.1666666666666</ele><time>2026-05-02T15:06:39.478Z</time></trkpt><trkpt lat="45.7821132" lon="11.6031524"><ele>573.0</ele><time>2026-05-02T15:06:41.477Z</time></trkpt><trkpt lat="45.7820541" lon="11.6032223"><ele>573.1666666666666</ele><time>2026-05-02T15:06:43.478Z</time></trkpt><trkpt lat="45.7819428" lon="11.6031605"><ele>573.3333333333334</ele><time>2026-05-02T15:06:45.478Z</time></trkpt><trkpt lat="45.7818817" lon="11.6031131"><ele>573.5</ele><time>2026-05-02T15:06:46.478Z</time></trkpt><trkpt lat="45.7818132" lon="11.6030613"><ele>573.6666666666667</ele><time>2026-05-02T15:06:47.478Z</time></trkpt><trkpt lat="45.7817446" lon="11.6030144"><ele>573.8333333333334</ele><time>2026-05-02T15:06:48.478Z</time></trkpt><trkpt lat="45.7816756" lon="11.6029685"><ele>574.0</ele><time>2026-05-02T15:06:49.478Z</time></trkpt><trkpt lat="45.7816065" lon="11.6029285"><ele>571.3333333333334</ele><time>2026-05-02T15:06:50.478Z</time></trkpt><trkpt lat="45.7815323" lon="11.6028996"><ele>568.6666666666667</ele><time>2026-05-02T15:06:51.479Z</time></trkpt><trkpt lat="45.7814587" lon="11.6028779"><ele>566.0</ele><time>2026-05-02T15:06:52.479Z</time></trkpt><trkpt lat="45.7813817" lon="11.6028632"><ele>563.3333333333334</ele><time>2026-05-02T15:06:53.479Z</time></trkpt><trkpt lat="45.7813043" lon="11.6028472"><ele>560.6666666666666</ele><time>2026-05-02T15:06:54.479Z</time></trkpt><trkpt lat="45.7812247" lon="11.6028342"><ele>558.0</ele><time>2026-05-02T15:06:55.479Z</time></trkpt><trkpt lat="45.7811477" lon="11.6028237"><ele>553.6666666666666</ele><time>2026-05-02T15:06:56.479Z</time></trkpt><trkpt lat="45.781066" lon="11.602808"><ele>549.3333333333334</ele><time>2026-05-02T15:06:57.478Z</time></trkpt><trkpt lat="45.780983" lon="11.6027855"><ele>545.0</ele><time>2026-05-02T15:06:58.479Z</time></trkpt><trkpt lat="45.7808981" lon="11.6027613"><ele>540.6666666666667</ele><time>2026-05-02T15:06:59.479Z</time></trkpt><trkpt lat="45.7808173" lon="11.6027388"><ele>536.3333333333334</ele><time>2026-05-02T15:07:00.478Z</time></trkpt><trkpt lat="45.7807388" lon="11.6027064"><ele>532.0</ele><time>2026-05-02T15:07:01.479Z</time></trkpt><trkpt lat="45.7806537" lon="11.6026652"><ele>530.4</ele><time>2026-05-02T15:07:02.479Z</time></trkpt><trkpt lat="45.7805646" lon="11.6026106"><ele>528.8000000000001</ele><time>2026-05-02T15:07:03.479Z</time></trkpt><trkpt lat="45.7804706" lon="11.60255"><ele>527.2</ele><time>2026-05-02T15:07:04.478Z</time></trkpt><trkpt lat="45.7803814" lon="11.6024954"><ele>525.6</ele><time>2026-05-02T15:07:05.478Z</time></trkpt><trkpt lat="45.7802998" lon="11.6024496"><ele>524.0</ele><time>2026-05-02T15:07:06.478Z</time></trkpt><trkpt lat="45.7802243" lon="11.6024169"><ele>521.0</ele><time>2026-05-02T15:07:07.479Z</time></trkpt><trkpt lat="45.7801458" lon="11.6024019"><ele>518.0</ele><time>2026-05-02T15:07:08.479Z</time></trkpt><trkpt lat="45.7800652" lon="11.602417"><ele>515.0</ele><time>2026-05-02T15:07:09.479Z</time></trkpt><trkpt lat="45.7799828" lon="11.6024607"><ele>512.0</ele><time>2026-05-02T15:07:10.479Z</time></trkpt><trkpt lat="45.7799042" lon="11.6025269"><ele>508.99999999999994</ele><time>2026-05-02T15:07:11.479Z</time></trkpt><trkpt lat="45.7798423" lon="11.6026169"><ele>506.0</ele><time>2026-05-02T15:07:12.479Z</time></trkpt><trkpt lat="45.7797855" lon="11.6027131"><ele>506.0</ele><time>2026-05-02T15:07:13.479Z</time></trkpt><trkpt lat="45.7797255" lon="11.6028142"><ele>506.0</ele><time>2026-05-02T15:07:14.479Z</time></trkpt><trkpt lat="45.7796638" lon="11.6029173"><ele>506.0</ele><time>2026-05-02T15:07:15.479Z</time></trkpt><trkpt lat="45.779599" lon="11.6030274"><ele>506.0</ele><time>2026-05-02T15:07:16.479Z</time></trkpt><trkpt lat="45.7795401" lon="11.6031351"><ele>506.0</ele><time>2026-05-02T15:07:17.479Z</time></trkpt><trkpt lat="45.7794828" lon="11.6032465"><ele>508.20000000000005</ele><time>2026-05-02T15:07:18.479Z</time></trkpt><trkpt lat="45.7794262" lon="11.6033597"><ele>510.40000000000003</ele><time>2026-05-02T15:07:19.479Z</time></trkpt><trkpt lat="45.7793674" lon="11.6034744"><ele>512.6</ele><time>2026-05-02T15:07:20.479Z</time></trkpt><trkpt lat="45.7793094" lon="11.6035894"><ele>514.8000000000001</ele><time>2026-05-02T15:07:21.479Z</time></trkpt><trkpt lat="45.7792524" lon="11.603704"><ele>517.0</ele><time>2026-05-02T15:07:22.479Z</time></trkpt><trkpt lat="45.779201" lon="11.6038175"><ele>517.0</ele><time>2026-05-02T15:07:23.479Z</time></trkpt><trkpt lat="45.7791545" lon="11.6039328"><ele>517.0</ele><time>2026-05-02T15:07:24.479Z</time></trkpt><trkpt lat="45.7791074" lon="11.6040521"><ele>517.0</ele><time>2026-05-02T15:07:25.478Z</time></trkpt><trkpt lat="45.7790581" lon="11.6041679"><ele>517.0</ele><time>2026-05-02T15:07:26.478Z</time></trkpt><trkpt lat="45.779009" lon="11.6042839"><ele>517.0</ele><time>2026-05-02T15:07:27.479Z</time></trkpt><trkpt lat="45.7789568" lon="11.6043999"><ele>521.8000000000001</ele><time>2026-05-02T15:07:28.478Z</time></trkpt><trkpt lat="45.7789036" lon="11.6045176"><ele>526.6</ele><time>2026-05-02T15:07:29.479Z</time></trkpt><trkpt lat="45.7788495" lon="11.6046343"><ele>531.4000000000001</ele><time>2026-05-02T15:07:30.479Z</time></trkpt><trkpt lat="45.7787931" lon="11.6047484"><ele>536.2</ele><time>2026-05-02T15:07:31.479Z</time></trkpt><trkpt lat="45.7787348" lon="11.6048631"><ele>541.0</ele><time>2026-05-02T15:07:32.478Z</time></trkpt><trkpt lat="45.7786763" lon="11.6049762"><ele>541.0</ele><time>2026-05-02T15:07:33.479Z</time></trkpt><trkpt lat="45.7786126" lon="11.6050885"><ele>541.0</ele><time>2026-05-02T15:07:34.479Z</time></trkpt><trkpt lat="45.7785461" lon="11.6051963"><ele>541.0</ele><time>2026-05-02T15:07:35.479Z</time></trkpt><trkpt lat="45.7784767" lon="11.6053006"><ele>541.0</ele><time>2026-05-02T15:07:36.479Z</time></trkpt><trkpt lat="45.7784028" lon="11.6054038"><ele>541.0</ele><time>2026-05-02T15:07:37.479Z</time></trkpt><trkpt lat="45.7783253" lon="11.6055017"><ele>536.2</ele><time>2026-05-02T15:07:38.479Z</time></trkpt><trkpt lat="45.7782457" lon="11.6056014"><ele>531.4000000000001</ele><time>2026-05-02T15:07:39.479Z</time></trkpt><trkpt lat="45.7781669" lon="11.6057012"><ele>526.6</ele><time>2026-05-02T15:07:40.478Z</time></trkpt><trkpt lat="45.778089" lon="11.6058045"><ele>521.8000000000001</ele><time>2026-05-02T15:07:41.479Z</time></trkpt><trkpt lat="45.7780095" lon="11.6059091"><ele>517.0</ele><time>2026-05-02T15:07:42.479Z</time></trkpt><trkpt lat="45.777928" lon="11.6060136"><ele>517.0</ele><time>2026-05-02T15:07:43.479Z</time></trkpt><trkpt lat="45.7778505" lon="11.6061223"><ele>517.0</ele><time>2026-05-02T15:07:44.479Z</time></trkpt><trkpt lat="45.7777718" lon="11.6062155"><ele>517.0</ele><time>2026-05-02T15:07:45.479Z</time></trkpt><trkpt lat="45.7776926" lon="11.606291"><ele>517.0</ele><time>2026-05-02T15:07:46.479Z</time></trkpt><trkpt lat="45.7776048" lon="11.6063241"><ele>517.0</ele><time>2026-05-02T15:07:47.479Z</time></trkpt><trkpt lat="45.7775033" lon="11.6063105"><ele>515.8000000000001</ele><time>2026-05-02T15:07:48.478Z</time></trkpt><trkpt lat="45.7774102" lon="11.6062611"><ele>514.6</ele><time>2026-05-02T15:07:49.479Z</time></trkpt><trkpt lat="45.7773329" lon="11.6061548"><ele>513.4000000000001</ele><time>2026-05-02T15:07:50.479Z</time></trkpt><trkpt lat="45.7772754" lon="11.6060263"><ele>512.2</ele><time>2026-05-02T15:07:51.478Z</time></trkpt><trkpt lat="45.7772227" lon="11.6059204"><ele>511.0</ele><time>2026-05-02T15:07:52.479Z</time></trkpt><trkpt lat="45.7771753" lon="11.6058235"><ele>508.6666666666667</ele><time>2026-05-02T15:07:53.478Z</time></trkpt><trkpt lat="45.7771254" lon="11.605736"><ele>506.33333333333337</ele><time>2026-05-02T15:07:54.479Z</time></trkpt><trkpt lat="45.7770785" lon="11.6056399"><ele>504.0</ele><time>2026-05-02T15:07:55.479Z</time></trkpt><trkpt lat="45.7770328" lon="11.6055491"><ele>501.66666666666663</ele><time>2026-05-02T15:07:56.479Z</time></trkpt><trkpt lat="45.7769862" lon="11.6054618"><ele>499.3333333333333</ele><time>2026-05-02T15:07:57.479Z</time></trkpt><trkpt lat="45.7769393" lon="11.6053763"><ele>497.0</ele><time>2026-05-02T15:07:58.479Z</time></trkpt><trkpt lat="45.7768925" lon="11.6052955"><ele>495.16666666666663</ele><time>2026-05-02T15:07:59.478Z</time></trkpt><trkpt lat="45.7768429" lon="11.6052138"><ele>493.3333333333333</ele><time>2026-05-02T15:08:00.48Z</time></trkpt><trkpt lat="45.7767822" lon="11.6051358"><ele>491.5</ele><time>2026-05-02T15:08:01.48Z</time></trkpt><trkpt lat="45.7767147" lon="11.6050591"><ele>489.66666666666663</ele><time>2026-05-02T15:08:02.48Z</time></trkpt><trkpt lat="45.7766454" lon="11.6049939"><ele>487.8333333333333</ele><time>2026-05-02T15:08:03.479Z</time></trkpt><trkpt lat="45.7765724" lon="11.6049504"><ele>486.0</ele><time>2026-05-02T15:08:04.48Z</time></trkpt><trkpt lat="45.7764938" lon="11.604947"><ele>486.0</ele><time>2026-05-02T15:08:05.479Z</time></trkpt><trkpt lat="45.7764158" lon="11.6049699"><ele>486.0</ele><time>2026-05-02T15:08:06.48Z</time></trkpt><trkpt lat="45.7763386" lon="11.6050349"><ele>486.0</ele><time>2026-05-02T15:08:07.479Z</time></trkpt><trkpt lat="45.7762732" lon="11.6051224"><ele>486.0</ele><time>2026-05-02T15:08:08.479Z</time></trkpt><trkpt lat="45.7762169" lon="11.6052302"><ele>486.0</ele><time>2026-05-02T15:08:09.479Z</time></trkpt><trkpt lat="45.7761735" lon="11.6053573"><ele>489.0</ele><time>2026-05-02T15:08:10.48Z</time></trkpt><trkpt lat="45.7761356" lon="11.6054885"><ele>492.0</ele><time>2026-05-02T15:08:11.479Z</time></trkpt><trkpt lat="45.7761022" lon="11.6056213"><ele>495.0</ele><time>2026-05-02T15:08:12.48Z</time></trkpt><trkpt lat="45.7760759" lon="11.6057485"><ele>498.0</ele><time>2026-05-02T15:08:13.48Z</time></trkpt><trkpt lat="45.7760477" lon="11.6058781"><ele>501.0</ele><time>2026-05-02T15:08:14.48Z</time></trkpt><trkpt lat="45.7760297" lon="11.6059989"><ele>496.8333333333333</ele><time>2026-05-02T15:08:15.48Z</time></trkpt><trkpt lat="45.7760171" lon="11.6061244"><ele>492.66666666666663</ele><time>2026-05-02T15:08:16.48Z</time></trkpt><trkpt lat="45.7760005" lon="11.6062526"><ele>488.5</ele><time>2026-05-02T15:08:17.479Z</time></trkpt><trkpt lat="45.7759804" lon="11.60638"><ele>484.3333333333333</ele><time>2026-05-02T15:08:18.48Z</time></trkpt><trkpt lat="45.7759611" lon="11.606495"><ele>480.16666666666663</ele><time>2026-05-02T15:08:19.48Z</time></trkpt><trkpt lat="45.7759421" lon="11.6066068"><ele>476.0</ele><time>2026-05-02T15:08:20.48Z</time></trkpt><trkpt lat="45.775922" lon="11.6067315"><ele>476.0</ele><time>2026-05-02T15:08:21.48Z</time></trkpt><trkpt lat="45.7759006" lon="11.6068646"><ele>476.0</ele><time>2026-05-02T15:08:22.479Z</time></trkpt><trkpt lat="45.7758758" lon="11.6070068"><ele>476.0</ele><time>2026-05-02T15:08:23.479Z</time></trkpt><trkpt lat="45.7758514" lon="11.6071385"><ele>476.0</ele><time>2026-05-02T15:08:24.48Z</time></trkpt><trkpt lat="45.7758281" lon="11.6072636"><ele>476.0</ele><time>2026-05-02T15:08:25.48Z</time></trkpt><trkpt lat="45.7758064" lon="11.6073927"><ele>476.99999999999994</ele><time>2026-05-02T15:08:26.48Z</time></trkpt><trkpt lat="45.7757884" lon="11.6075173"><ele>478.0</ele><time>2026-05-02T15:08:27.48Z</time></trkpt><trkpt lat="45.7757714" lon="11.607641"><ele>479.0</ele><time>2026-05-02T15:08:28.48Z</time></trkpt><trkpt lat="45.7757628" lon="11.6077611"><ele>480.0</ele><time>2026-05-02T15:08:29.48Z</time></trkpt><trkpt lat="45.7757553" lon="11.6078847"><ele>480.99999999999994</ele><time>2026-05-02T15:08:30.48Z</time></trkpt><trkpt lat="45.7757455" lon="11.6080102"><ele>482.0</ele><time>2026-05-02T15:08:31.48Z</time></trkpt><trkpt lat="45.7757371" lon="11.6081299"><ele>481.99999999999994</ele><time>2026-05-02T15:08:32.48Z</time></trkpt><trkpt lat="45.7757252" lon="11.6082546"><ele>482.0</ele><time>2026-05-02T15:08:33.48Z</time></trkpt><trkpt lat="45.7757152" lon="11.6083715"><ele>482.0</ele><time>2026-05-02T15:08:34.479Z</time></trkpt><trkpt lat="45.7757092" lon="11.6084899"><ele>482.0</ele><time>2026-05-02T15:08:35.48Z</time></trkpt><trkpt lat="45.775707" lon="11.6086022"><ele>481.99999999999994</ele><time>2026-05-02T15:08:36.48Z</time></trkpt><trkpt lat="45.7757076" lon="11.6087122"><ele>482.0</ele><time>2026-05-02T15:08:37.48Z</time></trkpt><trkpt lat="45.7757111" lon="11.6088207"><ele>482.0</ele><time>2026-05-02T15:08:38.48Z</time></trkpt><trkpt lat="45.7757156" lon="11.6089224"><ele>482.00000000000006</ele><time>2026-05-02T15:08:39.48Z</time></trkpt><trkpt lat="45.7757056" lon="11.6090587"><ele>482.00000000000006</ele><time>2026-05-02T15:08:41.48Z</time></trkpt><trkpt lat="45.7756511" lon="11.608988"><ele>482.0</ele><time>2026-05-02T15:08:44.479Z</time></trkpt><trkpt lat="45.7756552" lon="11.608811"><ele>482.0</ele><time>2026-05-02T15:08:46.48Z</time></trkpt><trkpt lat="45.7756431" lon="11.6086374"><ele>482.0</ele><time>2026-05-02T15:08:48.48Z</time></trkpt><trkpt lat="45.7756323" lon="11.6085418"><ele>482.00000000000006</ele><time>2026-05-02T15:08:49.479Z</time></trkpt><trkpt lat="45.7756273" lon="11.6084439"><ele>482.0</ele><time>2026-05-02T15:08:50.48Z</time></trkpt><trkpt lat="45.7756254" lon="11.6083389"><ele>482.0</ele><time>2026-05-02T15:08:51.48Z</time></trkpt><trkpt lat="45.7756251" lon="11.6082344"><ele>482.00000000000006</ele><time>2026-05-02T15:08:52.48Z</time></trkpt><trkpt lat="45.7756272" lon="11.608129"><ele>482.0</ele><time>2026-05-02T15:08:53.479Z</time></trkpt><trkpt lat="45.7756275" lon="11.6080244"><ele>482.0</ele><time>2026-05-02T15:08:54.479Z</time></trkpt><trkpt lat="45.775631" lon="11.6079181"><ele>481.99999999999994</ele><time>2026-05-02T15:08:55.48Z</time></trkpt><trkpt lat="45.7756375" lon="11.6078125"><ele>482.0</ele><time>2026-05-02T15:08:56.479Z</time></trkpt><trkpt lat="45.7756438" lon="11.607693"><ele>482.0</ele><time>2026-05-02T15:08:57.48Z</time></trkpt><trkpt lat="45.7756499" lon="11.607577"><ele>482.0</ele><time>2026-05-02T15:08:58.479Z</time></trkpt><trkpt lat="45.7756521" lon="11.607463"><ele>481.99999999999994</ele><time>2026-05-02T15:08:59.479Z</time></trkpt><trkpt lat="45.7756509" lon="11.6073553"><ele>482.0</ele><time>2026-05-02T15:09:00.48Z</time></trkpt><trkpt lat="45.7756513" lon="11.6072401"><ele>481.99999999999994</ele><time>2026-05-02T15:09:01.48Z</time></trkpt><trkpt lat="45.7756533" lon="11.6071252"><ele>482.0</ele><time>2026-05-02T15:09:02.479Z</time></trkpt><trkpt lat="45.7756618" lon="11.6070026"><ele>482.0</ele><time>2026-05-02T15:09:03.48Z</time></trkpt><trkpt lat="45.7756675" lon="11.6068764"><ele>482.0</ele><time>2026-05-02T15:09:04.479Z</time></trkpt><trkpt lat="45.7756743" lon="11.6067443"><ele>481.99999999999994</ele><time>2026-05-02T15:09:05.479Z</time></trkpt><trkpt lat="45.7756868" lon="11.6066088"><ele>482.0</ele><time>2026-05-02T15:09:06.48Z</time></trkpt><trkpt lat="45.7757082" lon="11.6064619"><ele>480.8</ele><time>2026-05-02T15:09:07.479Z</time></trkpt><trkpt lat="45.7757208" lon="11.6063283"><ele>479.6</ele><time>2026-05-02T15:09:08.481Z</time></trkpt><trkpt lat="45.7757319" lon="11.6061899"><ele>478.40000000000003</ele><time>2026-05-02T15:09:09.48Z</time></trkpt><trkpt lat="45.7757405" lon="11.6060569"><ele>477.20000000000005</ele><time>2026-05-02T15:09:10.481Z</time></trkpt><trkpt lat="45.775744" lon="11.605914"><ele>476.0</ele><time>2026-05-02T15:09:11.481Z</time></trkpt><trkpt lat="45.7757488" lon="11.6057752"><ele>474.4</ele><time>2026-05-02T15:09:12.481Z</time></trkpt><trkpt lat="45.7757588" lon="11.605642"><ele>472.8</ele><time>2026-05-02T15:09:13.481Z</time></trkpt><trkpt lat="45.7757657" lon="11.6055058"><ele>471.19999999999993</ele><time>2026-05-02T15:09:14.481Z</time></trkpt><trkpt lat="45.7757812" lon="11.6053633"><ele>469.59999999999997</ele><time>2026-05-02T15:09:15.48Z</time></trkpt><trkpt lat="45.7758141" lon="11.6052102"><ele>468.0</ele><time>2026-05-02T15:09:16.481Z</time></trkpt><trkpt lat="45.7758544" lon="11.6050991"><ele>465.6666666666667</ele><time>2026-05-02T15:09:17.481Z</time></trkpt><trkpt lat="45.7759019" lon="11.605014"><ele>463.33333333333337</ele><time>2026-05-02T15:09:18.481Z</time></trkpt><trkpt lat="45.7759528" lon="11.60495"><ele>461.0</ele><time>2026-05-02T15:09:19.481Z</time></trkpt><trkpt lat="45.7760312" lon="11.6048358"><ele>458.6666666666667</ele><time>2026-05-02T15:09:21.481Z</time></trkpt><trkpt lat="45.7760611" lon="11.6047242"><ele>456.33333333333337</ele><time>2026-05-02T15:09:23.481Z</time></trkpt><trkpt lat="45.7759875" lon="11.6046261"><ele>454.0</ele><time>2026-05-02T15:09:25.481Z</time></trkpt><trkpt lat="45.7759256" lon="11.6046492"><ele>454.00000000000006</ele><time>2026-05-02T15:09:26.48Z</time></trkpt><trkpt lat="45.775853" lon="11.6048076"><ele>454.0</ele><time>2026-05-02T15:09:28.481Z</time></trkpt><trkpt lat="45.7758203" lon="11.6048993"><ele>454.0</ele><time>2026-05-02T15:09:29.481Z</time></trkpt><trkpt lat="45.7757957" lon="11.6049908"><ele>454.0</ele><time>2026-05-02T15:09:30.481Z</time></trkpt><trkpt lat="45.7757645" lon="11.6050781"><ele>454.00000000000006</ele><time>2026-05-02T15:09:31.481Z</time></trkpt><trkpt lat="45.7757331" lon="11.6051626"><ele>454.0</ele><time>2026-05-02T15:09:32.48Z</time></trkpt><trkpt lat="45.775708" lon="11.6052612"><ele>456.0</ele><time>2026-05-02T15:09:33.481Z</time></trkpt><trkpt lat="45.7756801" lon="11.6053528"><ele>458.00000000000006</ele><time>2026-05-02T15:09:34.481Z</time></trkpt><trkpt lat="45.7756515" lon="11.6054503"><ele>460.0</ele><time>2026-05-02T15:09:35.48Z</time></trkpt><trkpt lat="45.7756228" lon="11.6055489"><ele>462.0</ele><time>2026-05-02T15:09:36.481Z</time></trkpt><trkpt lat="45.7755976" lon="11.6056445"><ele>464.00000000000006</ele><time>2026-05-02T15:09:37.48Z</time></trkpt><trkpt lat="45.7755732" lon="11.6057407"><ele>466.0</ele><time>2026-05-02T15:09:38.481Z</time></trkpt><trkpt lat="45.7755513" lon="11.6058427"><ele>468.0</ele><time>2026-05-02T15:09:39.481Z</time></trkpt><trkpt lat="45.7755307" lon="11.6059448"><ele>468.0</ele><time>2026-05-02T15:09:40.481Z</time></trkpt><trkpt lat="45.7755152" lon="11.6060529"><ele>468.0</ele><time>2026-05-02T15:09:41.481Z</time></trkpt><trkpt lat="45.7754997" lon="11.6061651"><ele>468.0</ele><time>2026-05-02T15:09:42.481Z</time></trkpt><trkpt lat="45.7754848" lon="11.6062746"><ele>468.0</ele><time>2026-05-02T15:09:43.481Z</time></trkpt><trkpt lat="45.7754697" lon="11.6063866"><ele>468.0</ele><time>2026-05-02T15:09:44.48Z</time></trkpt><trkpt lat="45.7754526" lon="11.6064911"><ele>468.0</ele><time>2026-05-02T15:09:45.481Z</time></trkpt><trkpt lat="45.7754335" lon="11.6066047"><ele>469.3333333333333</ele><time>2026-05-02T15:09:46.481Z</time></trkpt><trkpt lat="45.7754139" lon="11.6067244"><ele>470.66666666666663</ele><time>2026-05-02T15:09:47.481Z</time></trkpt><trkpt lat="45.7753915" lon="11.6068486"><ele>472.0</ele><time>2026-05-02T15:09:48.48Z</time></trkpt><trkpt lat="45.7753699" lon="11.6069699"><ele>473.3333333333333</ele><time>2026-05-02T15:09:49.481Z</time></trkpt><trkpt lat="45.7753478" lon="11.6070852"><ele>474.66666666666663</ele><time>2026-05-02T15:09:50.481Z</time></trkpt><trkpt lat="45.775326" lon="11.6071949"><ele>476.0</ele><time>2026-05-02T15:09:51.48Z</time></trkpt><trkpt lat="45.7753033" lon="11.6073016"><ele>476.8571428571429</ele><time>2026-05-02T15:09:52.481Z</time></trkpt><trkpt lat="45.775281" lon="11.6074057"><ele>477.7142857142857</ele><time>2026-05-02T15:09:53.481Z</time></trkpt><trkpt lat="45.7752621" lon="11.6075058"><ele>478.57142857142856</ele><time>2026-05-02T15:09:54.48Z</time></trkpt><trkpt lat="45.7752456" lon="11.6076055"><ele>479.42857142857144</ele><time>2026-05-02T15:09:55.481Z</time></trkpt><trkpt lat="45.7752288" lon="11.6077015"><ele>480.28571428571433</ele><time>2026-05-02T15:09:56.481Z</time></trkpt><trkpt lat="45.7752106" lon="11.6077958"><ele>481.14285714285717</ele><time>2026-05-02T15:09:57.481Z</time></trkpt><trkpt lat="45.7751873" lon="11.6078921"><ele>482.0</ele><time>2026-05-02T15:09:58.481Z</time></trkpt><trkpt lat="45.7751627" lon="11.6079919"><ele>474.8333333333333</ele><time>2026-05-02T15:09:59.481Z</time></trkpt><trkpt lat="45.7751316" lon="11.6081016"><ele>467.66666666666663</ele><time>2026-05-02T15:10:00.481Z</time></trkpt><trkpt lat="45.7750994" lon="11.6082137"><ele>460.5</ele><time>2026-05-02T15:10:01.481Z</time></trkpt><trkpt lat="45.7750683" lon="11.6083224"><ele>453.33333333333337</ele><time>2026-05-02T15:10:02.481Z</time></trkpt><trkpt lat="45.7750399" lon="11.6084213"><ele>446.1666666666667</ele><time>2026-05-02T15:10:03.48Z</time></trkpt><trkpt lat="45.7750152" lon="11.6085131"><ele>439.0</ele><time>2026-05-02T15:10:04.481Z</time></trkpt><trkpt lat="45.7749995" lon="11.6086009"><ele>440.0</ele><time>2026-05-02T15:10:05.481Z</time></trkpt><trkpt lat="45.7749828" lon="11.6087794"><ele>441.0</ele><time>2026-05-02T15:10:07.48Z</time></trkpt><trkpt lat="45.7749747" lon="11.6089546"><ele>442.0</ele><time>2026-05-02T15:10:09.481Z</time></trkpt><trkpt lat="45.7749644" lon="11.6091249"><ele>443.0</ele><time>2026-05-02T15:10:11.481Z</time></trkpt><trkpt lat="45.7749535" lon="11.6093069"><ele>443.0</ele><time>2026-05-02T15:10:13.481Z</time></trkpt><trkpt lat="45.774949" lon="11.6094018"><ele>443.0</ele><time>2026-05-02T15:10:14.481Z</time></trkpt><trkpt lat="45.7749409" lon="11.609499"><ele>443.0</ele><time>2026-05-02T15:10:15.48Z</time></trkpt><trkpt lat="45.7749332" lon="11.6095985"><ele>443.0</ele><time>2026-05-02T15:10:16.481Z</time></trkpt><trkpt lat="45.7749264" lon="11.6097044"><ele>443.0</ele><time>2026-05-02T15:10:17.482Z</time></trkpt><trkpt lat="45.7749174" lon="11.609814"><ele>443.0</ele><time>2026-05-02T15:10:18.482Z</time></trkpt><trkpt lat="45.774907" lon="11.6099235"><ele>443.0</ele><time>2026-05-02T15:10:19.482Z</time></trkpt><trkpt lat="45.7748943" lon="11.6100321"><ele>443.14285714285717</ele><time>2026-05-02T15:10:20.482Z</time></trkpt><trkpt lat="45.7748835" lon="11.6101433"><ele>443.28571428571433</ele><time>2026-05-02T15:10:21.482Z</time></trkpt><trkpt lat="45.7748743" lon="11.6102464"><ele>443.42857142857144</ele><time>2026-05-02T15:10:22.482Z</time></trkpt><trkpt lat="45.7748682" lon="11.610347"><ele>443.57142857142856</ele><time>2026-05-02T15:10:23.482Z</time></trkpt><trkpt lat="45.7748635" lon="11.610449"><ele>443.7142857142857</ele><time>2026-05-02T15:10:24.482Z</time></trkpt><trkpt lat="45.7748603" lon="11.6105572"><ele>443.85714285714283</ele><time>2026-05-02T15:10:25.482Z</time></trkpt><trkpt lat="45.7748574" lon="11.6106669"><ele>444.0</ele><time>2026-05-02T15:10:26.482Z</time></trkpt><trkpt lat="45.7748503" lon="11.6107675"><ele>444.5</ele><time>2026-05-02T15:10:27.482Z</time></trkpt><trkpt lat="45.7747808" lon="11.6109134"><ele>445.0</ele><time>2026-05-02T15:10:29.482Z</time></trkpt><trkpt lat="45.774724" lon="11.6109715"><ele>445.5</ele><time>2026-05-02T15:10:30.482Z</time></trkpt><trkpt lat="45.7746567" lon="11.6110133"><ele>446.0</ele><time>2026-05-02T15:10:31.482Z</time></trkpt><trkpt lat="45.7745846" lon="11.6110332"><ele>446.5</ele><time>2026-05-02T15:10:32.481Z</time></trkpt><trkpt lat="45.7745076" lon="11.6110402"><ele>447.0</ele><time>2026-05-02T15:10:33.482Z</time></trkpt><trkpt lat="45.7744369" lon="11.6110521"><ele>447.0</ele><time>2026-05-02T15:10:34.481Z</time></trkpt><trkpt lat="45.7743781" lon="11.611087"><ele>447.0</ele><time>2026-05-02T15:10:35.481Z</time></trkpt><trkpt lat="45.7743019" lon="11.6112224"><ele>447.0</ele><time>2026-05-02T15:10:37.482Z</time></trkpt><trkpt lat="45.7742703" lon="11.6113148"><ele>447.0</ele><time>2026-05-02T15:10:38.481Z</time></trkpt><trkpt lat="45.7742351" lon="11.6114112"><ele>447.0</ele><time>2026-05-02T15:10:39.481Z</time></trkpt><trkpt lat="45.7741982" lon="11.6115091"><ele>447.0</ele><time>2026-05-02T15:10:40.481Z</time></trkpt><trkpt lat="45.7741569" lon="11.6116098"><ele>443.8333333333333</ele><time>2026-05-02T15:10:41.482Z</time></trkpt><trkpt lat="45.7741126" lon="11.6117119"><ele>440.66666666666663</ele><time>2026-05-02T15:10:42.481Z</time></trkpt><trkpt lat="45.7740701" lon="11.6118175"><ele>437.5</ele><time>2026-05-02T15:10:43.481Z</time></trkpt><trkpt lat="45.7740273" lon="11.6119257"><ele>434.3333333333333</ele><time>2026-05-02T15:10:44.482Z</time></trkpt><trkpt lat="45.7739887" lon="11.612035"><ele>431.16666666666663</ele><time>2026-05-02T15:10:45.481Z</time></trkpt><trkpt lat="45.7739573" lon="11.6121398"><ele>428.0</ele><time>2026-05-02T15:10:46.481Z</time></trkpt><trkpt lat="45.7739344" lon="11.6122476"><ele>427.99999999999994</ele><time>2026-05-02T15:10:47.482Z</time></trkpt><trkpt lat="45.7739195" lon="11.6123624"><ele>428.0</ele><time>2026-05-02T15:10:48.482Z</time></trkpt><trkpt lat="45.77393" lon="11.6124832"><ele>428.0</ele><time>2026-05-02T15:10:49.482Z</time></trkpt><trkpt lat="45.7739575" lon="11.6125989"><ele>428.0</ele><time>2026-05-02T15:10:50.482Z</time></trkpt><trkpt lat="45.7740045" lon="11.6127036"><ele>427.99999999999994</ele><time>2026-05-02T15:10:51.482Z</time></trkpt><trkpt lat="45.7740571" lon="11.6127941"><ele>428.0</ele><time>2026-05-02T15:10:52.482Z</time></trkpt><trkpt lat="45.7741072" lon="11.6128858"><ele>427.99999999999994</ele><time>2026-05-02T15:10:53.482Z</time></trkpt><trkpt lat="45.7741468" lon="11.6129755"><ele>428.0</ele><time>2026-05-02T15:10:54.482Z</time></trkpt><trkpt lat="45.7741751" lon="11.6130749"><ele>428.0</ele><time>2026-05-02T15:10:55.482Z</time></trkpt><trkpt lat="45.7741929" lon="11.613162"><ele>428.0</ele><time>2026-05-02T15:10:56.481Z</time></trkpt><trkpt lat="45.774186" lon="11.613324"><ele>427.99999999999994</ele><time>2026-05-02T15:10:58.482Z</time></trkpt><trkpt lat="45.7741314" lon="11.6134372"><ele>428.0</ele><time>2026-05-02T15:11:00.481Z</time></trkpt><trkpt lat="45.7740785" lon="11.6135049"><ele>427.99999999999994</ele><time>2026-05-02T15:11:02.482Z</time></trkpt><trkpt lat="45.7739893" lon="11.613591"><ele>428.0</ele><time>2026-05-02T15:11:04.481Z</time></trkpt><trkpt lat="45.7739124" lon="11.6136978"><ele>428.0</ele><time>2026-05-02T15:11:06.481Z</time></trkpt><trkpt lat="45.773848" lon="11.6137835"><ele>428.0</ele><time>2026-05-02T15:11:08.482Z</time></trkpt><trkpt lat="45.7737752" lon="11.6138402"><ele>427.99999999999994</ele><time>2026-05-02T15:11:10.482Z</time></trkpt><trkpt lat="45.7737282" lon="11.6139011"><ele>428.0</ele><time>2026-05-02T15:11:12.482Z</time></trkpt><trkpt lat="45.7736909" lon="11.614021"><ele>427.99999999999994</ele><time>2026-05-02T15:11:15.482Z</time></trkpt><trkpt lat="45.7737095" lon="11.6141173"><ele>428.0</ele><time>2026-05-02T15:11:18.482Z</time></trkpt><trkpt lat="45.7737083" lon="11.614009"><ele>428.0</ele><time>2026-05-02T15:11:21.482Z</time></trkpt><trkpt lat="45.7737144" lon="11.6138671"><ele>428.0</ele><time>2026-05-02T15:11:24.482Z</time></trkpt><trkpt lat="45.7737499" lon="11.6137698"><ele>427.99999999999994</ele><time>2026-05-02T15:11:26.482Z</time></trkpt><trkpt lat="45.7738089" lon="11.6136945"><ele>428.0</ele><time>2026-05-02T15:11:28.483Z</time></trkpt><trkpt lat="45.7738629" lon="11.6136419"><ele>427.99999999999994</ele><time>2026-05-02T15:11:30.483Z</time></trkpt><trkpt lat="45.7739213" lon="11.6135874"><ele>428.0</ele><time>2026-05-02T15:11:32.483Z</time></trkpt><trkpt lat="45.7739584" lon="11.6134805"><ele>428.0</ele><time>2026-05-02T15:11:35.483Z</time></trkpt><trkpt lat="45.773872" lon="11.6134681"><ele>428.0</ele><time>2026-05-02T15:11:40.483Z</time></trkpt><trkpt lat="45.773807" lon="11.6134888"><ele>427.99999999999994</ele><time>2026-05-02T15:11:41.483Z</time></trkpt><trkpt lat="45.7737102" lon="11.6135256"><ele>428.0</ele><time>2026-05-02T15:11:43.482Z</time></trkpt><trkpt lat="45.7736379" lon="11.6135825"><ele>427.99999999999994</ele><time>2026-05-02T15:11:45.482Z</time></trkpt><trkpt lat="45.7735767" lon="11.613652"><ele>428.0</ele><time>2026-05-02T15:11:47.483Z</time></trkpt><trkpt lat="45.7735051" lon="11.6137154"><ele>428.0</ele><time>2026-05-02T15:11:49.482Z</time></trkpt><trkpt lat="45.7734524" lon="11.613786"><ele>428.0</ele><time>2026-05-02T15:11:51.483Z</time></trkpt><trkpt lat="45.7733766" lon="11.6138619"><ele>427.99999999999994</ele><time>2026-05-02T15:11:53.483Z</time></trkpt><trkpt lat="45.7733005" lon="11.6139292"><ele>428.0</ele><time>2026-05-02T15:11:55.483Z</time></trkpt><trkpt lat="45.7732315" lon="11.614"><ele>425.66666666666663</ele><time>2026-05-02T15:11:57.483Z</time></trkpt><trkpt lat="45.7731428" lon="11.6140367"><ele>423.3333333333333</ele><time>2026-05-02T15:12:00.482Z</time></trkpt><trkpt lat="45.7730683" lon="11.6139813"><ele>421.0</ele><time>2026-05-02T15:12:02.482Z</time></trkpt><trkpt lat="45.7730021" lon="11.6139449"><ele>418.66666666666663</ele><time>2026-05-02T15:12:04.483Z</time></trkpt><trkpt lat="45.7729327" lon="11.6139097"><ele>416.3333333333333</ele><time>2026-05-02T15:12:06.482Z</time></trkpt><trkpt lat="45.7728467" lon="11.6138502"><ele>414.0</ele><time>2026-05-02T15:12:08.482Z</time></trkpt><trkpt lat="45.7727329" lon="11.6138517"><ele>412.28571428571433</ele><time>2026-05-02T15:12:10.483Z</time></trkpt><trkpt lat="45.7726634" lon="11.6138987"><ele>410.57142857142856</ele><time>2026-05-02T15:12:11.482Z</time></trkpt><trkpt lat="45.7725985" lon="11.6139616"><ele>408.8571428571429</ele><time>2026-05-02T15:12:12.483Z</time></trkpt><trkpt lat="45.7725343" lon="11.6140238"><ele>407.14285714285717</ele><time>2026-05-02T15:12:13.482Z</time></trkpt><trkpt lat="45.772477" lon="11.614084"><ele>405.42857142857144</ele><time>2026-05-02T15:12:14.482Z</time></trkpt><trkpt lat="45.7724254" lon="11.6141363"><ele>403.7142857142857</ele><time>2026-05-02T15:12:15.483Z</time></trkpt><trkpt lat="45.7723669" lon="11.6141982"><ele>402.0</ele><time>2026-05-02T15:12:16.483Z</time></trkpt><trkpt lat="45.7723147" lon="11.6142605"><ele>402.0</ele><time>2026-05-02T15:12:17.483Z</time></trkpt><trkpt lat="45.7722362" lon="11.6143978"><ele>402.0</ele><time>2026-05-02T15:12:19.482Z</time></trkpt><trkpt lat="45.7721938" lon="11.6144913"><ele>402.0</ele><time>2026-05-02T15:12:20.484Z</time></trkpt><trkpt lat="45.7721551" lon="11.6145985"><ele>402.0</ele><time>2026-05-02T15:12:21.484Z</time></trkpt><trkpt lat="45.7721254" lon="11.6147178"><ele>402.0</ele><time>2026-05-02T15:12:22.484Z</time></trkpt><trkpt lat="45.7720988" lon="11.6148283"><ele>399.40000000000003</ele><time>2026-05-02T15:12:23.484Z</time></trkpt><trkpt lat="45.7720783" lon="11.6149246"><ele>396.8</ele><time>2026-05-02T15:12:24.484Z</time></trkpt><trkpt lat="45.7720323" lon="11.6150783"><ele>394.2</ele><time>2026-05-02T15:12:26.484Z</time></trkpt><trkpt lat="45.771975" lon="11.6152089"><ele>391.6</ele><time>2026-05-02T15:12:28.484Z</time></trkpt><trkpt lat="45.7719089" lon="11.6153465"><ele>389.0</ele><time>2026-05-02T15:12:30.483Z</time></trkpt><trkpt lat="45.7718378" lon="11.6154571"><ele>384.6</ele><time>2026-05-02T15:12:32.483Z</time></trkpt><trkpt lat="45.7717457" lon="11.6155466"><ele>380.2</ele><time>2026-05-02T15:12:34.484Z</time></trkpt><trkpt lat="45.7716691" lon="11.6156267"><ele>375.8</ele><time>2026-05-02T15:12:36.484Z</time></trkpt><trkpt lat="45.7715887" lon="11.6156185"><ele>371.40000000000003</ele><time>2026-05-02T15:12:38.484Z</time></trkpt><trkpt lat="45.7714826" lon="11.6155382"><ele>367.0</ele><time>2026-05-02T15:12:40.484Z</time></trkpt><trkpt lat="45.7714155" lon="11.6154758"><ele>367.0</ele><time>2026-05-02T15:12:41.483Z</time></trkpt><trkpt lat="45.7713333" lon="11.6154147"><ele>367.0</ele><time>2026-05-02T15:12:42.483Z</time></trkpt><trkpt lat="45.7712571" lon="11.6153616"><ele>367.0</ele><time>2026-05-02T15:12:43.483Z</time></trkpt><trkpt lat="45.7712021" lon="11.6152983"><ele>367.0</ele><time>2026-05-02T15:12:44.483Z</time></trkpt><trkpt lat="45.7711588" lon="11.6152114"><ele>367.0</ele><time>2026-05-02T15:12:45.484Z</time></trkpt><trkpt lat="45.7711142" lon="11.6151074"><ele>367.0</ele><time>2026-05-02T15:12:46.483Z</time></trkpt><trkpt lat="45.7710617" lon="11.6150069"><ele>365.8</ele><time>2026-05-02T15:12:47.484Z</time></trkpt><trkpt lat="45.77101" lon="11.6149131"><ele>364.6</ele><time>2026-05-02T15:12:48.484Z</time></trkpt><trkpt lat="45.7709627" lon="11.6148402"><ele>363.40000000000003</ele><time>2026-05-02T15:12:49.484Z</time></trkpt><trkpt lat="45.7708912" lon="11.6147121"><ele>362.20000000000005</ele><time>2026-05-02T15:12:51.484Z</time></trkpt><trkpt lat="45.7708361" lon="11.6145869"><ele>361.0</ele><time>2026-05-02T15:12:53.483Z</time></trkpt><trkpt lat="45.7707402" lon="11.6145455"><ele>361.0</ele><time>2026-05-02T15:12:55.484Z</time></trkpt><trkpt lat="45.7706272" lon="11.6146552"><ele>361.0</ele><time>2026-05-02T15:12:57.483Z</time></trkpt><trkpt lat="45.7705715" lon="11.6147501"><ele>361.0</ele><time>2026-05-02T15:12:58.484Z</time></trkpt><trkpt lat="45.7705258" lon="11.6148412"><ele>361.0</ele><time>2026-05-02T15:12:59.484Z</time></trkpt><trkpt lat="45.7704835" lon="11.6149277"><ele>361.0</ele><time>2026-05-02T15:13:00.484Z</time></trkpt><trkpt lat="45.770443" lon="11.6150032"><ele>361.0</ele><time>2026-05-02T15:13:01.484Z</time></trkpt><trkpt lat="45.7704028" lon="11.6150813"><ele>361.0</ele><time>2026-05-02T15:13:02.484Z</time></trkpt><trkpt lat="45.7703645" lon="11.6151546"><ele>361.0</ele><time>2026-05-02T15:13:03.484Z</time></trkpt><trkpt lat="45.7703248" lon="11.6153083"><ele>361.0</ele><time>2026-05-02T15:13:05.483Z</time></trkpt><trkpt lat="45.7703133" lon="11.6154496"><ele>361.0</ele><time>2026-05-02T15:13:07.484Z</time></trkpt><trkpt lat="45.7703051" lon="11.6156048"><ele>361.0</ele><time>2026-05-02T15:13:09.484Z</time></trkpt><trkpt lat="45.7703057" lon="11.6157572"><ele>360.4</ele><time>2026-05-02T15:13:11.484Z</time></trkpt><trkpt lat="45.7703074" lon="11.6159051"><ele>359.8</ele><time>2026-05-02T15:13:13.485Z</time></trkpt><trkpt lat="45.770291" lon="11.6160546"><ele>359.2</ele><time>2026-05-02T15:13:15.484Z</time></trkpt><trkpt lat="45.7702246" lon="11.6161509"><ele>358.59999999999997</ele><time>2026-05-02T15:13:17.484Z</time></trkpt><trkpt lat="45.7701273" lon="11.6162587"><ele>358.0</ele><time>2026-05-02T15:13:19.484Z</time></trkpt><trkpt lat="45.7700732" lon="11.6163314"><ele>358.0</ele><time>2026-05-02T15:13:20.485Z</time></trkpt><trkpt lat="45.7700181" lon="11.6164108"><ele>358.0</ele><time>2026-05-02T15:13:21.485Z</time></trkpt><trkpt lat="45.7699681" lon="11.6165006"><ele>358.0</ele><time>2026-05-02T15:13:22.485Z</time></trkpt><trkpt lat="45.7699176" lon="11.6165938"><ele>358.0</ele><time>2026-05-02T15:13:23.485Z</time></trkpt><trkpt lat="45.7698704" lon="11.6166902"><ele>358.0</ele><time>2026-05-02T15:13:24.485Z</time></trkpt><trkpt lat="45.7698235" lon="11.6167772"><ele>358.0</ele><time>2026-05-02T15:13:25.485Z</time></trkpt><trkpt lat="45.7697719" lon="11.6168646"><ele>358.0</ele><time>2026-05-02T15:13:26.485Z</time></trkpt><trkpt lat="45.7697218" lon="11.6169539"><ele>358.0</ele><time>2026-05-02T15:13:27.484Z</time></trkpt><trkpt lat="45.7696664" lon="11.6170429"><ele>358.0</ele><time>2026-05-02T15:13:28.484Z</time></trkpt><trkpt lat="45.7695995" lon="11.617123"><ele>358.0</ele><time>2026-05-02T15:13:29.485Z</time></trkpt><trkpt lat="45.7695312" lon="11.6171941"><ele>358.0</ele><time>2026-05-02T15:13:30.484Z</time></trkpt><trkpt lat="45.7694696" lon="11.6172576"><ele>358.0</ele><time>2026-05-02T15:13:31.485Z</time></trkpt><trkpt lat="45.7694203" lon="11.617321"><ele>356.3333333333333</ele><time>2026-05-02T15:13:32.485Z</time></trkpt><trkpt lat="45.7693435" lon="11.6174472"><ele>354.66666666666663</ele><time>2026-05-02T15:13:34.485Z</time></trkpt><trkpt lat="45.7693115" lon="11.6175306"><ele>353.0</ele><time>2026-05-02T15:13:35.485Z</time></trkpt><trkpt lat="45.7692942" lon="11.6176313"><ele>351.3333333333333</ele><time>2026-05-02T15:13:36.485Z</time></trkpt><trkpt lat="45.7692825" lon="11.6177506"><ele>349.6666666666667</ele><time>2026-05-02T15:13:37.484Z</time></trkpt><trkpt lat="45.7692643" lon="11.6178465"><ele>348.0</ele><time>2026-05-02T15:13:38.485Z</time></trkpt><trkpt lat="45.7692438" lon="11.6180045"><ele>346.0</ele><time>2026-05-02T15:13:40.486Z</time></trkpt><trkpt lat="45.7692891" lon="11.6181555"><ele>344.0</ele><time>2026-05-02T15:13:42.485Z</time></trkpt><trkpt lat="45.769312" lon="11.6182415"><ele>342.0</ele><time>2026-05-02T15:13:43.485Z</time></trkpt><trkpt lat="45.7693097" lon="11.6184178"><ele>340.0</ele><time>2026-05-02T15:13:45.485Z</time></trkpt><trkpt lat="45.7692545" lon="11.6185856"><ele>338.0</ele><time>2026-05-02T15:13:47.484Z</time></trkpt><trkpt lat="45.7691987" lon="11.618645"><ele>335.79999999999995</ele><time>2026-05-02T15:13:48.485Z</time></trkpt><trkpt lat="45.769119" lon="11.6187111"><ele>333.6</ele><time>2026-05-02T15:13:49.485Z</time></trkpt><trkpt lat="45.7690388" lon="11.6187919"><ele>331.4</ele><time>2026-05-02T15:13:50.485Z</time></trkpt><trkpt lat="45.7689635" lon="11.6188773"><ele>329.20000000000005</ele><time>2026-05-02T15:13:51.485Z</time></trkpt><trkpt lat="45.7688972" lon="11.618969"><ele>327.0</ele><time>2026-05-02T15:13:52.485Z</time></trkpt><trkpt lat="45.7688407" lon="11.619056"><ele>327.0</ele><time>2026-05-02T15:13:53.485Z</time></trkpt><trkpt lat="45.7687974" lon="11.6191341"><ele>327.0</ele><time>2026-05-02T15:13:54.485Z</time></trkpt><trkpt lat="45.7687383" lon="11.6192788"><ele>327.0</ele><time>2026-05-02T15:13:56.485Z</time></trkpt><trkpt lat="45.7687316" lon="11.6193733"><ele>327.0</ele><time>2026-05-02T15:13:57.484Z</time></trkpt><trkpt lat="45.7687366" lon="11.6194702"><ele>327.0</ele><time>2026-05-02T15:13:58.485Z</time></trkpt><trkpt lat="45.7687501" lon="11.6195712"><ele>327.0</ele><time>2026-05-02T15:13:59.485Z</time></trkpt><trkpt lat="45.7687681" lon="11.6197346"><ele>327.40000000000003</ele><time>2026-05-02T15:14:01.485Z</time></trkpt><trkpt lat="45.768718" lon="11.6198557"><ele>327.8</ele><time>2026-05-02T15:14:03.485Z</time></trkpt><trkpt lat="45.7686024" lon="11.6199214"><ele>328.2</ele><time>2026-05-02T15:14:05.486Z</time></trkpt><trkpt lat="45.7684973" lon="11.6199573"><ele>328.6</ele><time>2026-05-02T15:14:07.485Z</time></trkpt><trkpt lat="45.7684065" lon="11.6200055"><ele>329.0</ele><time>2026-05-02T15:14:09.486Z</time></trkpt><trkpt lat="45.7683248" lon="11.6200628"><ele>329.0</ele><time>2026-05-02T15:14:11.485Z</time></trkpt><trkpt lat="45.7682247" lon="11.6201208"><ele>329.0</ele><time>2026-05-02T15:14:13.485Z</time></trkpt><trkpt lat="45.7681662" lon="11.6201582"><ele>329.0</ele><time>2026-05-02T15:14:14.486Z</time></trkpt><trkpt lat="45.7680957" lon="11.6201944"><ele>329.0</ele><time>2026-05-02T15:14:15.486Z</time></trkpt><trkpt lat="45.7680098" lon="11.6202144"><ele>329.0</ele><time>2026-05-02T15:14:16.486Z</time></trkpt><trkpt lat="45.7679132" lon="11.6202353"><ele>329.0</ele><time>2026-05-02T15:14:17.485Z</time></trkpt><trkpt lat="45.7678204" lon="11.6202522"><ele>329.0</ele><time>2026-05-02T15:14:18.486Z</time></trkpt><trkpt lat="45.7677312" lon="11.6202728"><ele>329.0</ele><time>2026-05-02T15:14:19.486Z</time></trkpt><trkpt lat="45.7676458" lon="11.6202965"><ele>329.0</ele><time>2026-05-02T15:14:20.486Z</time></trkpt><trkpt lat="45.7675663" lon="11.6203167"><ele>329.0</ele><time>2026-05-02T15:14:21.486Z</time></trkpt><trkpt lat="45.7675005" lon="11.6203358"><ele>329.0</ele><time>2026-05-02T15:14:22.485Z</time></trkpt><trkpt lat="45.7673967" lon="11.6204261"><ele>329.0</ele><time>2026-05-02T15:14:24.486Z</time></trkpt><trkpt lat="45.767349" lon="11.6205108"><ele>327.5</ele><time>2026-05-02T15:14:25.486Z</time></trkpt><trkpt lat="45.7673055" lon="11.6206163"><ele>326.0</ele><time>2026-05-02T15:14:26.486Z</time></trkpt><trkpt lat="45.7672632" lon="11.6207251"><ele>324.5</ele><time>2026-05-02T15:14:27.486Z</time></trkpt><trkpt lat="45.7672229" lon="11.6208243"><ele>323.0</ele><time>2026-05-02T15:14:28.486Z</time></trkpt><trkpt lat="45.7671791" lon="11.6209267"><ele>321.5</ele><time>2026-05-02T15:14:29.485Z</time></trkpt><trkpt lat="45.7671387" lon="11.6210334"><ele>320.0</ele><time>2026-05-02T15:14:30.486Z</time></trkpt><trkpt lat="45.767101" lon="11.6211472"><ele>320.1428571428571</ele><time>2026-05-02T15:14:31.486Z</time></trkpt><trkpt lat="45.7670667" lon="11.6212567"><ele>320.2857142857143</ele><time>2026-05-02T15:14:32.486Z</time></trkpt><trkpt lat="45.7670373" lon="11.6213562"><ele>320.42857142857144</ele><time>2026-05-02T15:14:33.486Z</time></trkpt><trkpt lat="45.7670179" lon="11.6214483"><ele>320.57142857142856</ele><time>2026-05-02T15:14:34.487Z</time></trkpt><trkpt lat="45.7670086" lon="11.621539"><ele>320.7142857142857</ele><time>2026-05-02T15:14:35.486Z</time></trkpt><trkpt lat="45.7669988" lon="11.621636"><ele>320.85714285714283</ele><time>2026-05-02T15:14:36.485Z</time></trkpt><trkpt lat="45.7669834" lon="11.6217372"><ele>321.0</ele><time>2026-05-02T15:14:37.486Z</time></trkpt><trkpt lat="45.7669662" lon="11.6218336"><ele>320.99999999999994</ele><time>2026-05-02T15:14:38.486Z</time></trkpt><trkpt lat="45.7669445" lon="11.6219261"><ele>321.0</ele><time>2026-05-02T15:14:39.486Z</time></trkpt><trkpt lat="45.7669098" lon="11.6220092"><ele>321.0</ele><time>2026-05-02T15:14:40.486Z</time></trkpt><trkpt lat="45.7668667" lon="11.622086"><ele>321.0</ele><time>2026-05-02T15:14:41.486Z</time></trkpt><trkpt lat="45.7668184" lon="11.6221633"><ele>321.0</ele><time>2026-05-02T15:14:42.485Z</time></trkpt><trkpt lat="45.7667698" lon="11.622241"><ele>320.99999999999994</ele><time>2026-05-02T15:14:43.486Z</time></trkpt><trkpt lat="45.7667221" lon="11.6223169"><ele>321.0</ele><time>2026-05-02T15:14:44.486Z</time></trkpt><trkpt lat="45.7666715" lon="11.6223874"><ele>318.6666666666667</ele><time>2026-05-02T15:14:45.485Z</time></trkpt><trkpt lat="45.766613" lon="11.6224521"><ele>316.3333333333333</ele><time>2026-05-02T15:14:46.487Z</time></trkpt><trkpt lat="45.7665462" lon="11.6225015"><ele>314.0</ele><time>2026-05-02T15:14:47.485Z</time></trkpt><trkpt lat="45.7664738" lon="11.6225403"><ele>311.66666666666663</ele><time>2026-05-02T15:14:48.486Z</time></trkpt><trkpt lat="45.7663973" lon="11.6225771"><ele>309.3333333333333</ele><time>2026-05-02T15:14:49.486Z</time></trkpt><trkpt lat="45.7663223" lon="11.6226151"><ele>307.0</ele><time>2026-05-02T15:14:50.486Z</time></trkpt><trkpt lat="45.7662452" lon="11.6226545"><ele>307.0</ele><time>2026-05-02T15:14:51.487Z</time></trkpt><trkpt lat="45.7661761" lon="11.6227019"><ele>307.0</ele><time>2026-05-02T15:14:52.486Z</time></trkpt><trkpt lat="45.766116" lon="11.622752"><ele>307.0</ele><time>2026-05-02T15:14:53.486Z</time></trkpt><trkpt lat="45.7660227" lon="11.6228488"><ele>307.0</ele><time>2026-05-02T15:14:55.486Z</time></trkpt><trkpt lat="45.7659411" lon="11.6229512"><ele>307.0</ele><time>2026-05-02T15:14:57.485Z</time></trkpt><trkpt lat="45.765862" lon="11.6230481"><ele>306.16666666666663</ele><time>2026-05-02T15:14:59.486Z</time></trkpt><trkpt lat="45.7657945" lon="11.6231818"><ele>305.3333333333333</ele><time>2026-05-02T15:15:01.486Z</time></trkpt><trkpt lat="45.7657445" lon="11.6233479"><ele>304.5</ele><time>2026-05-02T15:15:03.485Z</time></trkpt><trkpt lat="45.7657148" lon="11.6234311"><ele>303.6666666666667</ele><time>2026-05-02T15:15:04.486Z</time></trkpt><trkpt lat="45.7656814" lon="11.6235161"><ele>302.83333333333337</ele><time>2026-05-02T15:15:05.486Z</time></trkpt><trkpt lat="45.765646" lon="11.6236044"><ele>302.0</ele><time>2026-05-02T15:15:06.486Z</time></trkpt><trkpt lat="45.7656208" lon="11.6236993"><ele>300.0</ele><time>2026-05-02T15:15:07.486Z</time></trkpt><trkpt lat="45.7655512" lon="11.6237916"><ele>298.0</ele><time>2026-05-02T15:15:09.487Z</time></trkpt><trkpt lat="45.7654358" lon="11.6237546"><ele>296.0</ele><time>2026-05-02T15:15:11.487Z</time></trkpt><trkpt lat="45.7653616" lon="11.6237632"><ele>294.0</ele><time>2026-05-02T15:15:12.487Z</time></trkpt><trkpt lat="45.7652421" lon="11.6238626"><ele>292.0</ele><time>2026-05-02T15:15:14.487Z</time></trkpt><trkpt lat="45.7651708" lon="11.6239013"><ele>290.2857142857143</ele><time>2026-05-02T15:15:15.487Z</time></trkpt><trkpt lat="45.7650967" lon="11.623935"><ele>288.57142857142856</ele><time>2026-05-02T15:15:16.487Z</time></trkpt><trkpt lat="45.7650283" lon="11.623959"><ele>286.8571428571429</ele><time>2026-05-02T15:15:17.487Z</time></trkpt><trkpt lat="45.7649634" lon="11.6239624"><ele>285.1428571428571</ele><time>2026-05-02T15:15:19.487Z</time></trkpt><trkpt lat="45.7649252" lon="11.6238846"><ele>283.42857142857144</ele><time>2026-05-02T15:15:21.487Z</time></trkpt><trkpt lat="45.7648966" lon="11.6238041"><ele>281.7142857142857</ele><time>2026-05-02T15:15:22.486Z</time></trkpt><trkpt lat="45.7648574" lon="11.6237245"><ele>280.0</ele><time>2026-05-02T15:15:23.486Z</time></trkpt><trkpt lat="45.7648195" lon="11.6236473"><ele>280.0</ele><time>2026-05-02T15:15:24.486Z</time></trkpt><trkpt lat="45.7647661" lon="11.6235754"><ele>280.0</ele><time>2026-05-02T15:15:26.486Z</time></trkpt><trkpt lat="45.7646985" lon="11.6236519"><ele>280.0</ele><time>2026-05-02T15:15:28.487Z</time></trkpt><trkpt lat="45.7646815" lon="11.6238507"><ele>280.0</ele><time>2026-05-02T15:15:30.486Z</time></trkpt><trkpt lat="45.7646762" lon="11.623962"><ele>280.0</ele><time>2026-05-02T15:15:31.487Z</time></trkpt><trkpt lat="45.7646658" lon="11.6240702"><ele>280.0</ele><time>2026-05-02T15:15:32.487Z</time></trkpt><trkpt lat="45.7646485" lon="11.6241783"><ele>280.0</ele><time>2026-05-02T15:15:33.487Z</time></trkpt><trkpt lat="45.7646298" lon="11.6242789"><ele>280.0</ele><time>2026-05-02T15:15:34.487Z</time></trkpt><trkpt lat="45.7646141" lon="11.624367"><ele>280.0</ele><time>2026-05-02T15:15:35.487Z</time></trkpt><trkpt lat="45.7646113" lon="11.6244741"><ele>280.0</ele><time>2026-05-02T15:15:37.487Z</time></trkpt><trkpt lat="45.7647043" lon="11.6245092"><ele>280.0</ele><time>2026-05-02T15:15:39.486Z</time></trkpt><trkpt lat="45.7647699" lon="11.6245102"><ele>278.42857142857144</ele><time>2026-05-02T15:15:40.487Z</time></trkpt><trkpt lat="45.764835" lon="11.6245124"><ele>276.8571428571429</ele><time>2026-05-02T15:15:41.486Z</time></trkpt><trkpt lat="45.7649102" lon="11.6245715"><ele>275.2857142857143</ele><time>2026-05-02T15:15:43.487Z</time></trkpt><trkpt lat="45.7648348" lon="11.6246367"><ele>273.7142857142857</ele><time>2026-05-02T15:15:45.487Z</time></trkpt><trkpt lat="45.7647627" lon="11.6246397"><ele>272.14285714285717</ele><time>2026-05-02T15:15:46.486Z</time></trkpt><trkpt lat="45.764695" lon="11.6246592"><ele>270.57142857142856</ele><time>2026-05-02T15:15:47.488Z</time></trkpt><trkpt lat="45.7646407" lon="11.6247082"><ele>269.0</ele><time>2026-05-02T15:15:48.486Z</time></trkpt><trkpt lat="45.7645918" lon="11.6247883"><ele>269.0</ele><time>2026-05-02T15:15:49.486Z</time></trkpt><trkpt lat="45.7645447" lon="11.6248843"><ele>269.0</ele><time>2026-05-02T15:15:50.487Z</time></trkpt><trkpt lat="45.7644961" lon="11.62499"><ele>269.0</ele><time>2026-05-02T15:15:51.486Z</time></trkpt><trkpt lat="45.7644429" lon="11.6251017"><ele>269.0</ele><time>2026-05-02T15:15:52.487Z</time></trkpt><trkpt lat="45.7643887" lon="11.6252024"><ele>269.0</ele><time>2026-05-02T15:15:53.486Z</time></trkpt><trkpt lat="45.7643462" lon="11.6253128"><ele>269.0</ele><time>2026-05-02T15:15:54.487Z</time></trkpt><trkpt lat="45.7643306" lon="11.6254265"><ele>267.5</ele><time>2026-05-02T15:15:55.487Z</time></trkpt><trkpt lat="45.7643284" lon="11.625534"><ele>266.0</ele><time>2026-05-02T15:15:56.488Z</time></trkpt><trkpt lat="45.764334" lon="11.6256332"><ele>264.5</ele><time>2026-05-02T15:15:57.487Z</time></trkpt><trkpt lat="45.7643293" lon="11.6257298"><ele>263.0</ele><time>2026-05-02T15:15:58.486Z</time></trkpt><trkpt lat="45.764318" lon="11.6258207"><ele>261.5</ele><time>2026-05-02T15:15:59.487Z</time></trkpt><trkpt lat="45.7642971" lon="11.6259751"><ele>260.0</ele><time>2026-05-02T15:16:01.488Z</time></trkpt><trkpt lat="45.7642822" lon="11.6260953"><ele>259.4</ele><time>2026-05-02T15:16:03.488Z</time></trkpt><trkpt lat="45.7642619" lon="11.6261934"><ele>258.8</ele><time>2026-05-02T15:16:05.487Z</time></trkpt><trkpt lat="45.7642527" lon="11.6263168"><ele>258.2</ele><time>2026-05-02T15:16:07.486Z</time></trkpt><trkpt lat="45.764218" lon="11.626446"><ele>257.6</ele><time>2026-05-02T15:16:09.488Z</time></trkpt><trkpt lat="45.764188" lon="11.6265884"><ele>257.0</ele><time>2026-05-02T15:16:11.487Z</time></trkpt><trkpt lat="45.7641938" lon="11.6267305"><ele>257.0</ele><time>2026-05-02T15:16:13.488Z</time></trkpt><trkpt lat="45.7641847" lon="11.6268404"><ele>257.0</ele><time>2026-05-02T15:16:15.488Z</time></trkpt><trkpt lat="45.7641744" lon="11.6269736"><ele>257.0</ele><time>2026-05-02T15:16:18.488Z</time></trkpt><trkpt lat="45.7641608" lon="11.6270963"><ele>257.0</ele><time>2026-05-02T15:16:21.488Z</time></trkpt><trkpt lat="45.7641563" lon="11.6272128"><ele>257.0</ele><time>2026-05-02T15:16:24.487Z</time></trkpt><trkpt lat="45.7641336" lon="11.6273289"><ele>257.0</ele><time>2026-05-02T15:16:26.488Z</time></trkpt><trkpt lat="45.764097" lon="11.6274606"><ele>257.2</ele><time>2026-05-02T15:16:28.488Z</time></trkpt><trkpt lat="45.7640663" lon="11.6275952"><ele>257.4</ele><time>2026-05-02T15:16:30.487Z</time></trkpt><trkpt lat="45.7640265" lon="11.6277357"><ele>257.6</ele><time>2026-05-02T15:16:32.488Z</time></trkpt><trkpt lat="45.7639965" lon="11.6278867"><ele>257.8</ele><time>2026-05-02T15:16:34.487Z</time></trkpt><trkpt lat="45.7639685" lon="11.6280598"><ele>258.0</ele><time>2026-05-02T15:16:36.488Z</time></trkpt><trkpt lat="45.7639571" lon="11.6281522"><ele>258.0</ele><time>2026-05-02T15:16:37.488Z</time></trkpt><trkpt lat="45.7639523" lon="11.6282443"><ele>258.0</ele><time>2026-05-02T15:16:38.487Z</time></trkpt><trkpt lat="45.7639463" lon="11.6284193"><ele>258.0</ele><time>2026-05-02T15:16:40.488Z</time></trkpt><trkpt lat="45.7639122" lon="11.6285739"><ele>258.0</ele><time>2026-05-02T15:16:42.488Z</time></trkpt><trkpt lat="45.7638902" lon="11.6287167"><ele>258.0</ele><time>2026-05-02T15:16:44.488Z</time></trkpt><trkpt lat="45.7638705" lon="11.6288547"><ele>257.8</ele><time>2026-05-02T15:16:46.488Z</time></trkpt><trkpt lat="45.7638446" lon="11.6289862"><ele>257.6</ele><time>2026-05-02T15:16:48.488Z</time></trkpt><trkpt lat="45.7637907" lon="11.6291146"><ele>257.4</ele><time>2026-05-02T15:16:50.488Z</time></trkpt><trkpt lat="45.7637191" lon="11.6292221"><ele>257.2</ele><time>2026-05-02T15:16:52.488Z</time></trkpt><trkpt lat="45.7636286" lon="11.6293244"><ele>257.0</ele><time>2026-05-02T15:16:54.487Z</time></trkpt><trkpt lat="45.7635416" lon="11.6294189"><ele>255.00000000000003</ele><time>2026-05-02T15:16:56.487Z</time></trkpt><trkpt lat="45.7635036" lon="11.6294992"><ele>253.0</ele><time>2026-05-02T15:16:57.488Z</time></trkpt><trkpt lat="45.7634875" lon="11.6295877"><ele>251.0</ele><time>2026-05-02T15:16:58.488Z</time></trkpt><trkpt lat="45.7634864" lon="11.6296844"><ele>249.0</ele><time>2026-05-02T15:16:59.488Z</time></trkpt><trkpt lat="45.7635244" lon="11.6298507"><ele>247.00000000000003</ele><time>2026-05-02T15:17:01.488Z</time></trkpt><trkpt lat="45.7635933" lon="11.62998"><ele>245.0</ele><time>2026-05-02T15:17:03.488Z</time></trkpt><trkpt lat="45.7636446" lon="11.6300352"><ele>245.00000000000003</ele><time>2026-05-02T15:17:04.488Z</time></trkpt><trkpt lat="45.7636979" lon="11.6300929"><ele>245.0</ele><time>2026-05-02T15:17:05.487Z</time></trkpt><trkpt lat="45.7637498" lon="11.6301563"><ele>245.0</ele><time>2026-05-02T15:17:06.489Z</time></trkpt><trkpt lat="45.7637974" lon="11.6302191"><ele>245.0</ele><time>2026-05-02T15:17:07.488Z</time></trkpt><trkpt lat="45.7638411" lon="11.6302885"><ele>245.00000000000003</ele><time>2026-05-02T15:17:08.488Z</time></trkpt><trkpt lat="45.7638975" lon="11.6304434"><ele>245.0</ele><time>2026-05-02T15:17:10.489Z</time></trkpt><trkpt lat="45.7638907" lon="11.6305342"><ele>244.0</ele><time>2026-05-02T15:17:11.489Z</time></trkpt><trkpt lat="45.7638187" lon="11.6306744"><ele>243.0</ele><time>2026-05-02T15:17:13.489Z</time></trkpt><trkpt lat="45.7637261" lon="11.6307751"><ele>242.0</ele><time>2026-05-02T15:17:15.489Z</time></trkpt><trkpt lat="45.7636791" lon="11.6308355"><ele>241.0</ele><time>2026-05-02T15:17:16.489Z</time></trkpt><trkpt lat="45.7635848" lon="11.6309571"><ele>240.0</ele><time>2026-05-02T15:17:18.488Z</time></trkpt><trkpt lat="45.763533" lon="11.6310279"><ele>237.85714285714286</ele><time>2026-05-02T15:17:19.489Z</time></trkpt><trkpt lat="45.7634821" lon="11.6310917"><ele>235.71428571428572</ele><time>2026-05-02T15:17:20.489Z</time></trkpt><trkpt lat="45.7634316" lon="11.6311568"><ele>233.57142857142858</ele><time>2026-05-02T15:17:21.488Z</time></trkpt><trkpt lat="45.7633867" lon="11.6312246"><ele>231.42857142857144</ele><time>2026-05-02T15:17:22.489Z</time></trkpt><trkpt lat="45.7633454" lon="11.6313019"><ele>229.28571428571428</ele><time>2026-05-02T15:17:23.489Z</time></trkpt><trkpt lat="45.7633047" lon="11.6313833"><ele>227.14285714285717</ele><time>2026-05-02T15:17:24.489Z</time></trkpt><trkpt lat="45.7632555" lon="11.6314614"><ele>225.00000000000003</ele><time>2026-05-02T15:17:25.489Z</time></trkpt><trkpt lat="45.7631965" lon="11.6315324"><ele>224.0</ele><time>2026-05-02T15:17:26.488Z</time></trkpt><trkpt lat="45.7631345" lon="11.6315949"><ele>223.0</ele><time>2026-05-02T15:17:27.489Z</time></trkpt><trkpt lat="45.7630732" lon="11.6316506"><ele>222.0</ele><time>2026-05-02T15:17:28.489Z</time></trkpt><trkpt lat="45.7630195" lon="11.6317094"><ele>221.0</ele><time>2026-05-02T15:17:29.489Z</time></trkpt><trkpt lat="45.762933" lon="11.6318185"><ele>220.0</ele><time>2026-05-02T15:17:31.489Z</time></trkpt><trkpt lat="45.7628623" lon="11.6319351"><ele>219.0</ele><time>2026-05-02T15:17:33.489Z</time></trkpt><trkpt lat="45.7627956" lon="11.6320619"><ele>218.33333333333334</ele><time>2026-05-02T15:17:35.489Z</time></trkpt><trkpt lat="45.7627295" lon="11.6322219"><ele>217.66666666666669</ele><time>2026-05-02T15:17:37.489Z</time></trkpt><trkpt lat="45.7626971" lon="11.6323143"><ele>217.0</ele><time>2026-05-02T15:17:38.488Z</time></trkpt><trkpt lat="45.7626609" lon="11.6324045"><ele>216.33333333333334</ele><time>2026-05-02T15:17:39.489Z</time></trkpt><trkpt lat="45.7626207" lon="11.6324942"><ele>215.66666666666669</ele><time>2026-05-02T15:17:40.489Z</time></trkpt><trkpt lat="45.7625902" lon="11.6325823"><ele>215.0</ele><time>2026-05-02T15:17:41.489Z</time></trkpt><trkpt lat="45.7625669" lon="11.6326852"><ele>213.28571428571428</ele><time>2026-05-02T15:17:42.489Z</time></trkpt><trkpt lat="45.7625534" lon="11.6327927"><ele>211.57142857142858</ele><time>2026-05-02T15:17:43.489Z</time></trkpt><trkpt lat="45.7625425" lon="11.6328991"><ele>209.85714285714286</ele><time>2026-05-02T15:17:44.489Z</time></trkpt><trkpt lat="45.7625287" lon="11.6330001"><ele>208.14285714285714</ele><time>2026-05-02T15:17:45.488Z</time></trkpt><trkpt lat="45.7625095" lon="11.6330944"><ele>206.42857142857144</ele><time>2026-05-02T15:17:46.489Z</time></trkpt><trkpt lat="45.7624883" lon="11.6331881"><ele>204.71428571428572</ele><time>2026-05-02T15:17:47.489Z</time></trkpt><trkpt lat="45.7624677" lon="11.6332837"><ele>203.0</ele><time>2026-05-02T15:17:48.489Z</time></trkpt><trkpt lat="45.7624533" lon="11.6333814"><ele>202.28571428571428</ele><time>2026-05-02T15:17:49.489Z</time></trkpt><trkpt lat="45.7624439" lon="11.6334783"><ele>201.57142857142856</ele><time>2026-05-02T15:17:50.489Z</time></trkpt><trkpt lat="45.7624406" lon="11.6335715"><ele>200.85714285714286</ele><time>2026-05-02T15:17:51.489Z</time></trkpt><trkpt lat="45.7624506" lon="11.6336668"><ele>200.14285714285714</ele><time>2026-05-02T15:17:52.489Z</time></trkpt><trkpt lat="45.7624674" lon="11.6337577"><ele>199.42857142857142</ele><time>2026-05-02T15:17:53.488Z</time></trkpt><trkpt lat="45.7624838" lon="11.6338476"><ele>198.71428571428572</ele><time>2026-05-02T15:17:54.49Z</time></trkpt><trkpt lat="45.7624993" lon="11.6340137"><ele>198.0</ele><time>2026-05-02T15:17:56.489Z</time></trkpt><trkpt lat="45.7625333" lon="11.6341908"><ele>197.0</ele><time>2026-05-02T15:17:58.489Z</time></trkpt><trkpt lat="45.7625601" lon="11.6342893"><ele>196.0</ele><time>2026-05-02T15:17:59.489Z</time></trkpt><trkpt lat="45.762585" lon="11.6343925"><ele>195.0</ele><time>2026-05-02T15:18:00.489Z</time></trkpt><trkpt lat="45.7626014" lon="11.6344902"><ele>194.0</ele><time>2026-05-02T15:18:01.488Z</time></trkpt><trkpt lat="45.7626031" lon="11.6345988"><ele>193.0</ele><time>2026-05-02T15:18:02.489Z</time></trkpt><trkpt lat="45.7625992" lon="11.634709"><ele>192.0</ele><time>2026-05-02T15:18:03.489Z</time></trkpt><trkpt lat="45.7626035" lon="11.6348226"><ele>190.66666666666666</ele><time>2026-05-02T15:18:04.489Z</time></trkpt><trkpt lat="45.762617" lon="11.6349334"><ele>189.33333333333334</ele><time>2026-05-02T15:18:05.49Z</time></trkpt><trkpt lat="45.7626354" lon="11.6350484"><ele>188.0</ele><time>2026-05-02T15:18:06.489Z</time></trkpt><trkpt lat="45.7626559" lon="11.6351664"><ele>186.66666666666669</ele><time>2026-05-02T15:18:07.49Z</time></trkpt><trkpt lat="45.7626777" lon="11.6352871"><ele>185.33333333333334</ele><time>2026-05-02T15:18:08.489Z</time></trkpt><trkpt lat="45.7627002" lon="11.6354045"><ele>184.0</ele><time>2026-05-02T15:18:09.49Z</time></trkpt><trkpt lat="45.7627225" lon="11.6355285"><ele>192.0</ele><time>2026-05-02T15:18:10.49Z</time></trkpt><trkpt lat="45.7627427" lon="11.6356572"><ele>200.0</ele><time>2026-05-02T15:18:11.49Z</time></trkpt><trkpt lat="45.7627295" lon="11.6322219"><ele>199.71428571428572</ele><time>2026-05-02T15:17:37.489Z</time></trkpt><trkpt lat="45.7626971" lon="11.6323143"><ele>199.42857142857144</ele><time>2026-05-02T15:17:38.488Z</time></trkpt><trkpt lat="45.7626609" lon="11.6324045"><ele>199.14285714285717</ele><time>2026-05-02T15:17:39.489Z</time></trkpt><trkpt lat="45.7626207" lon="11.6324942"><ele>198.85714285714286</ele><time>2026-05-02T15:17:40.489Z</time></trkpt><trkpt lat="45.7625902" lon="11.6325823"><ele>198.57142857142856</ele><time>2026-05-02T15:17:41.489Z</time></trkpt><trkpt lat="45.7625669" lon="11.6326852"><ele>198.2857142857143</ele><time>2026-05-02T15:17:42.489Z</time></trkpt><trkpt lat="45.7625534" lon="11.6327927"><ele>198.0</ele><time>2026-05-02T15:17:43.489Z</time></trkpt><trkpt lat="45.7625425" lon="11.6328991"><ele>198.0</ele><time>2026-05-02T15:17:44.489Z</time></trkpt><trkpt lat="45.7625287" lon="11.6330001"><ele>198.0</ele><time>2026-05-02T15:17:45.488Z</time></trkpt><trkpt lat="45.7625095" lon="11.6330944"><ele>198.0</ele><time>2026-05-02T15:17:46.489Z</time></trkpt><trkpt lat="45.7624883" lon="11.6331881"><ele>198.0</ele><time>2026-05-02T15:17:47.489Z</time></trkpt><trkpt lat="45.7624677" lon="11.6332837"><ele>198.0</ele><time>2026-05-02T15:17:48.489Z</time></trkpt><trkpt lat="45.7624533" lon="11.6333814"><ele>198.0</ele><time>2026-05-02T15:17:49.489Z</time></trkpt><trkpt lat="45.7624439" lon="11.6334783"><ele>198.0</ele><time>2026-05-02T15:17:50.489Z</time></trkpt><trkpt lat="45.7624406" lon="11.6335715"><ele>197.0</ele><time>2026-05-02T15:17:51.489Z</time></trkpt><trkpt lat="45.7624506" lon="11.6336668"><ele>196.0</ele><time>2026-05-02T15:17:52.489Z</time></trkpt><trkpt lat="45.7624674" lon="11.6337577"><ele>195.0</ele><time>2026-05-02T15:17:53.488Z</time></trkpt><trkpt lat="45.7624838" lon="11.6338476"><ele>194.0</ele><time>2026-05-02T15:17:54.49Z</time></trkpt><trkpt lat="45.7624993" lon="11.6340137"><ele>193.0</ele><time>2026-05-02T15:17:56.489Z</time></trkpt><trkpt lat="45.7625333" lon="11.6341908"><ele>192.0</ele><time>2026-05-02T15:17:58.489Z</time></trkpt><trkpt lat="45.7625601" lon="11.6342893"><ele>192.0</ele><time>2026-05-02T15:17:59.489Z</time></trkpt><trkpt lat="45.762585" lon="11.6343925"><ele>192.0</ele><time>2026-05-02T15:18:00.489Z</time></trkpt><trkpt lat="45.7626014" lon="11.6344902"><ele>192.0</ele><time>2026-05-02T15:18:01.488Z</time></trkpt><trkpt lat="45.7626031" lon="11.6345988"><ele>192.0</ele><time>2026-05-02T15:18:02.489Z</time></trkpt><trkpt lat="45.7625992" lon="11.634709"><ele>192.0</ele><time>2026-05-02T15:18:03.489Z</time></trkpt><trkpt lat="45.7626035" lon="11.6348226"><ele>192.0</ele><time>2026-05-02T15:18:04.489Z</time></trkpt><trkpt lat="45.762617" lon="11.6349334"><ele>190.66666666666666</ele><time>2026-05-02T15:18:05.49Z</time></trkpt><trkpt lat="45.7626354" lon="11.6350484"><ele>189.33333333333334</ele><time>2026-05-02T15:18:06.489Z</time></trkpt><trkpt lat="45.7626559" lon="11.6351664"><ele>188.0</ele><time>2026-05-02T15:18:07.49Z</time></trkpt><trkpt lat="45.7626777" lon="11.6352871"><ele>186.66666666666669</ele><time>2026-05-02T15:18:08.489Z</time></trkpt><trkpt lat="45.7627002" lon="11.6354045"><ele>185.33333333333334</ele><time>2026-05-02T15:18:09.49Z</time></trkpt><trkpt lat="45.7627225" lon="11.6355285"><ele>184.0</ele><time>2026-05-02T15:18:10.49Z</time></trkpt><trkpt lat="45.7627427" lon="11.6356572"><ele>186.0</ele><time>2026-05-02T15:18:11.49Z</time></trkpt><trkpt lat="45.762757" lon="11.6357914"><ele>188.0</ele><time>2026-05-02T15:18:12.49Z</time></trkpt><trkpt lat="45.7627618" lon="11.6359242"><ele>190.0</ele><time>2026-05-02T15:18:13.49Z</time></trkpt><trkpt lat="45.7627583" lon="11.6360537"><ele>192.0</ele><time>2026-05-02T15:18:14.49Z</time></trkpt><trkpt lat="45.7627509" lon="11.6361814"><ele>194.0</ele><time>2026-05-02T15:18:15.49Z</time></trkpt><trkpt lat="45.7627483" lon="11.6363049"><ele>194.00000000000003</ele><time>2026-05-02T15:18:16.49Z</time></trkpt><trkpt lat="45.7627628" lon="11.636428"><ele>194.0</ele><time>2026-05-02T15:18:17.49Z</time></trkpt><trkpt lat="45.7627859" lon="11.6365559"><ele>194.0</ele><time>2026-05-02T15:18:18.489Z</time></trkpt><trkpt lat="45.7628033" lon="11.6366758"><ele>194.0</ele><time>2026-05-02T15:18:19.489Z</time></trkpt><trkpt lat="45.7628198" lon="11.6367865"><ele>194.00000000000003</ele><time>2026-05-02T15:18:20.49Z</time></trkpt><trkpt lat="45.762837" lon="11.6368888"><ele>194.0</ele><time>2026-05-02T15:18:21.49Z</time></trkpt><trkpt lat="45.762852" lon="11.6370005"><ele>192.16666666666669</ele><time>2026-05-02T15:18:22.489Z</time></trkpt><trkpt lat="45.762866" lon="11.6371162"><ele>190.33333333333334</ele><time>2026-05-02T15:18:23.489Z</time></trkpt><trkpt lat="45.7628803" lon="11.6372368"><ele>188.5</ele><time>2026-05-02T15:18:24.489Z</time></trkpt><trkpt lat="45.7628989" lon="11.6373543"><ele>186.66666666666669</ele><time>2026-05-02T15:18:25.49Z</time></trkpt><trkpt lat="45.7629187" lon="11.6374735"><ele>184.83333333333334</ele><time>2026-05-02T15:18:26.489Z</time></trkpt><trkpt lat="45.7629354" lon="11.6375921"><ele>183.0</ele><time>2026-05-02T15:18:27.489Z</time></trkpt><trkpt lat="45.7629468" lon="11.6377045"><ele>180.83333333333334</ele><time>2026-05-02T15:18:28.49Z</time></trkpt><trkpt lat="45.7629519" lon="11.6378212"><ele>178.66666666666666</ele><time>2026-05-02T15:18:29.49Z</time></trkpt><trkpt lat="45.762955" lon="11.6379399"><ele>176.5</ele><time>2026-05-02T15:18:30.49Z</time></trkpt><trkpt lat="45.7629619" lon="11.6380634"><ele>174.33333333333331</ele><time>2026-05-02T15:18:31.49Z</time></trkpt><trkpt lat="45.7629699" lon="11.6381853"><ele>172.16666666666666</ele><time>2026-05-02T15:18:32.49Z</time></trkpt><trkpt lat="45.7629852" lon="11.6383141"><ele>170.0</ele><time>2026-05-02T15:18:33.49Z</time></trkpt><trkpt lat="45.7630108" lon="11.6384317"><ele>170.0</ele><time>2026-05-02T15:18:34.491Z</time></trkpt><trkpt lat="45.7630441" lon="11.6385447"><ele>170.0</ele><time>2026-05-02T15:18:35.489Z</time></trkpt><trkpt lat="45.7630818" lon="11.6386635"><ele>170.0</ele><time>2026-05-02T15:18:36.49Z</time></trkpt><trkpt lat="45.7631201" lon="11.6387868"><ele>170.0</ele><time>2026-05-02T15:18:37.49Z</time></trkpt><trkpt lat="45.7631505" lon="11.6388922"><ele>170.0</ele><time>2026-05-02T15:18:38.49Z</time></trkpt><trkpt lat="45.7631886" lon="11.6389806"><ele>170.0</ele><time>2026-05-02T15:18:39.49Z</time></trkpt><trkpt lat="45.7632427" lon="11.6390407"><ele>167.5</ele><time>2026-05-02T15:18:40.49Z</time></trkpt><trkpt lat="45.7633084" lon="11.6390608"><ele>165.0</ele><time>2026-05-02T15:18:41.49Z</time></trkpt><trkpt lat="45.7633868" lon="11.6390411"><ele>162.5</ele><time>2026-05-02T15:18:42.49Z</time></trkpt><trkpt lat="45.7634696" lon="11.6389867"><ele>160.0</ele><time>2026-05-02T15:18:43.49Z</time></trkpt><trkpt lat="45.7635394" lon="11.6389182"><ele>157.5</ele><time>2026-05-02T15:18:44.491Z</time></trkpt><trkpt lat="45.7636244" lon="11.6388853"><ele>155.0</ele><time>2026-05-02T15:18:46.49Z</time></trkpt><trkpt lat="45.763634" lon="11.6389949"><ele>155.0</ele><time>2026-05-02T15:18:48.49Z</time></trkpt><trkpt lat="45.7635937" lon="11.6390714"><ele>155.0</ele><time>2026-05-02T15:18:49.49Z</time></trkpt><trkpt lat="45.7635368" lon="11.6391234"><ele>155.0</ele><time>2026-05-02T15:18:50.49Z</time></trkpt><trkpt lat="45.7634591" lon="11.6391805"><ele>155.0</ele><time>2026-05-02T15:18:51.489Z</time></trkpt><trkpt lat="45.7633799" lon="11.6392331"><ele>155.0</ele><time>2026-05-02T15:18:52.49Z</time></trkpt><trkpt lat="45.7632931" lon="11.6392809"><ele>155.0</ele><time>2026-05-02T15:18:53.489Z</time></trkpt><trkpt lat="45.763208" lon="11.6393234"><ele>155.0</ele><time>2026-05-02T15:18:54.489Z</time></trkpt><trkpt lat="45.7631315" lon="11.639352"><ele>155.0</ele><time>2026-05-02T15:18:55.49Z</time></trkpt><trkpt lat="45.7630363" lon="11.6394051"><ele>155.0</ele><time>2026-05-02T15:18:57.491Z</time></trkpt><trkpt lat="45.7630159" lon="11.6395443"><ele>155.0</ele><time>2026-05-02T15:18:59.49Z</time></trkpt><trkpt lat="45.7630404" lon="11.639642"><ele>155.0</ele><time>2026-05-02T15:19:00.491Z</time></trkpt><trkpt lat="45.7630756" lon="11.6397483"><ele>155.0</ele><time>2026-05-02T15:19:01.489Z</time></trkpt><trkpt lat="45.7631004" lon="11.6398689"><ele>152.83333333333331</ele><time>2026-05-02T15:19:02.49Z</time></trkpt><trkpt lat="45.7630915" lon="11.6400014"><ele>150.66666666666666</ele><time>2026-05-02T15:19:03.491Z</time></trkpt><trkpt lat="45.7630704" lon="11.6401182"><ele>148.5</ele><time>2026-05-02T15:19:04.49Z</time></trkpt><trkpt lat="45.7630422" lon="11.6402381"><ele>146.33333333333334</ele><time>2026-05-02T15:19:05.491Z</time></trkpt><trkpt lat="45.7630274" lon="11.6403514"><ele>144.16666666666669</ele><time>2026-05-02T15:19:06.49Z</time></trkpt><trkpt lat="45.7630284" lon="11.6404701"><ele>142.0</ele><time>2026-05-02T15:19:07.491Z</time></trkpt><trkpt lat="45.7630428" lon="11.6405969"><ele>141.83333333333334</ele><time>2026-05-02T15:19:08.491Z</time></trkpt><trkpt lat="45.763055" lon="11.6407212"><ele>141.66666666666669</ele><time>2026-05-02T15:19:09.491Z</time></trkpt><trkpt lat="45.7630622" lon="11.6408398"><ele>141.5</ele><time>2026-05-02T15:19:10.491Z</time></trkpt><trkpt lat="45.7630733" lon="11.6409458"><ele>141.33333333333334</ele><time>2026-05-02T15:19:11.491Z</time></trkpt><trkpt lat="45.7630889" lon="11.6410411"><ele>141.16666666666666</ele><time>2026-05-02T15:19:12.491Z</time></trkpt><trkpt lat="45.7630988" lon="11.6411458"><ele>141.0</ele><time>2026-05-02T15:19:13.491Z</time></trkpt><trkpt lat="45.7630928" lon="11.6412642"><ele>141.0</ele><time>2026-05-02T15:19:14.49Z</time></trkpt><trkpt lat="45.7630764" lon="11.641377"><ele>141.0</ele><time>2026-05-02T15:19:15.49Z</time></trkpt><trkpt lat="45.7630589" lon="11.6414887"><ele>141.0</ele><time>2026-05-02T15:19:16.491Z</time></trkpt><trkpt lat="45.7630367" lon="11.6415898"><ele>141.0</ele><time>2026-05-02T15:19:17.491Z</time></trkpt><trkpt lat="45.7630192" lon="11.6417023"><ele>141.0</ele><time>2026-05-02T15:19:18.49Z</time></trkpt><trkpt lat="45.7630024" lon="11.6418071"><ele>141.0</ele><time>2026-05-02T15:19:19.491Z</time></trkpt><trkpt lat="45.7629849" lon="11.6419128"><ele>141.33333333333334</ele><time>2026-05-02T15:19:20.491Z</time></trkpt><trkpt lat="45.7629668" lon="11.6420206"><ele>141.66666666666666</ele><time>2026-05-02T15:19:21.49Z</time></trkpt><trkpt lat="45.7629536" lon="11.6421247"><ele>142.0</ele><time>2026-05-02T15:19:22.491Z</time></trkpt><trkpt lat="45.7629391" lon="11.6422323"><ele>142.33333333333331</ele><time>2026-05-02T15:19:23.491Z</time></trkpt><trkpt lat="45.7629261" lon="11.6423362"><ele>142.66666666666666</ele><time>2026-05-02T15:19:24.49Z</time></trkpt><trkpt lat="45.7629145" lon="11.642441"><ele>143.0</ele><time>2026-05-02T15:19:25.491Z</time></trkpt><trkpt lat="45.7629062" lon="11.6425472"><ele>142.99999999999997</ele><time>2026-05-02T15:19:26.49Z</time></trkpt><trkpt lat="45.7628995" lon="11.6426554"><ele>143.0</ele><time>2026-05-02T15:19:27.491Z</time></trkpt><trkpt lat="45.7628952" lon="11.6427603"><ele>143.0</ele><time>2026-05-02T15:19:28.491Z</time></trkpt><trkpt lat="45.7628902" lon="11.6428659"><ele>143.0</ele><time>2026-05-02T15:19:29.491Z</time></trkpt><trkpt lat="45.7628854" lon="11.6429703"><ele>143.0</ele><time>2026-05-02T15:19:30.491Z</time></trkpt><trkpt lat="45.7628802" lon="11.6430734"><ele>142.99999999999997</ele><time>2026-05-02T15:19:31.491Z</time></trkpt><trkpt lat="45.7628732" lon="11.6431764"><ele>143.0</ele><time>2026-05-02T15:19:32.491Z</time></trkpt><trkpt lat="45.7628597" lon="11.6432731"><ele>142.99999999999997</ele><time>2026-05-02T15:19:33.49Z</time></trkpt><trkpt lat="45.7628402" lon="11.6433664"><ele>143.0</ele><time>2026-05-02T15:19:34.491Z</time></trkpt><trkpt lat="45.7628214" lon="11.6434563"><ele>143.0</ele><time>2026-05-02T15:19:35.491Z</time></trkpt><trkpt lat="45.7628036" lon="11.6435449"><ele>143.0</ele><time>2026-05-02T15:19:36.49Z</time></trkpt><trkpt lat="45.7627843" lon="11.6436353"><ele>143.0</ele><time>2026-05-02T15:19:37.491Z</time></trkpt><trkpt lat="45.762763" lon="11.6437246"><ele>142.99999999999997</ele><time>2026-05-02T15:19:38.49Z</time></trkpt><trkpt lat="45.7627391" lon="11.6438123"><ele>143.0</ele><time>2026-05-02T15:19:39.491Z</time></trkpt><trkpt lat="45.7627109" lon="11.6438938"><ele>140.4</ele><time>2026-05-02T15:19:40.491Z</time></trkpt><trkpt lat="45.7626454" lon="11.6440403"><ele>137.8</ele><time>2026-05-02T15:19:42.491Z</time></trkpt><trkpt lat="45.7625864" lon="11.6441803"><ele>135.2</ele><time>2026-05-02T15:19:44.491Z</time></trkpt><trkpt lat="45.7625451" lon="11.6443513"><ele>132.6</ele><time>2026-05-02T15:19:46.491Z</time></trkpt><trkpt lat="45.7625231" lon="11.6444484"><ele>130.0</ele><time>2026-05-02T15:19:47.491Z</time></trkpt><trkpt lat="45.7624974" lon="11.6445462"><ele>129.83333333333334</ele><time>2026-05-02T15:19:48.491Z</time></trkpt><trkpt lat="45.7624681" lon="11.6446435"><ele>129.66666666666669</ele><time>2026-05-02T15:19:49.491Z</time></trkpt><trkpt lat="45.7624374" lon="11.6447464"><ele>129.5</ele><time>2026-05-02T15:19:50.492Z</time></trkpt><trkpt lat="45.7624083" lon="11.6448519"><ele>129.33333333333334</ele><time>2026-05-02T15:19:51.491Z</time></trkpt><trkpt lat="45.7623809" lon="11.6449594"><ele>129.16666666666666</ele><time>2026-05-02T15:19:52.49Z</time></trkpt><trkpt lat="45.7623549" lon="11.6450699"><ele>129.0</ele><time>2026-05-02T15:19:53.491Z</time></trkpt><trkpt lat="45.7623243" lon="11.6451744"><ele>129.0</ele><time>2026-05-02T15:19:54.491Z</time></trkpt><trkpt lat="45.762295" lon="11.6452793"><ele>129.0</ele><time>2026-05-02T15:19:55.491Z</time></trkpt><trkpt lat="45.7622646" lon="11.6453818"><ele>129.0</ele><time>2026-05-02T15:19:56.491Z</time></trkpt><trkpt lat="45.7622269" lon="11.6454874"><ele>129.0</ele><time>2026-05-02T15:19:57.492Z</time></trkpt><trkpt lat="45.7621897" lon="11.6455794"><ele>129.0</ele><time>2026-05-02T15:19:58.492Z</time></trkpt><trkpt lat="45.7621471" lon="11.6456615"><ele>129.0</ele><time>2026-05-02T15:19:59.491Z</time></trkpt><trkpt lat="45.7620997" lon="11.6457371"><ele>128.99999999999997</ele><time>2026-05-02T15:20:00.491Z</time></trkpt><trkpt lat="45.7620486" lon="11.645806"><ele>129.0</ele><time>2026-05-02T15:20:01.492Z</time></trkpt><trkpt lat="45.7619938" lon="11.6458794"><ele>129.0</ele><time>2026-05-02T15:20:02.492Z</time></trkpt><trkpt lat="45.7619348" lon="11.6459618"><ele>129.0</ele><time>2026-05-02T15:20:03.492Z</time></trkpt><trkpt lat="45.7618826" lon="11.6460392"><ele>129.0</ele><time>2026-05-02T15:20:04.491Z</time></trkpt><trkpt lat="45.7618348" lon="11.6461194"><ele>128.99999999999997</ele><time>2026-05-02T15:20:05.491Z</time></trkpt><trkpt lat="45.7617926" lon="11.6461904"><ele>129.0</ele><time>2026-05-02T15:20:06.492Z</time></trkpt><trkpt lat="45.7617094" lon="11.6463269"><ele>128.75</ele><time>2026-05-02T15:20:08.492Z</time></trkpt><trkpt lat="45.7616329" lon="11.6464622"><ele>128.5</ele><time>2026-05-02T15:20:10.492Z</time></trkpt><trkpt lat="45.7615596" lon="11.6466038"><ele>128.25</ele><time>2026-05-02T15:20:12.492Z</time></trkpt><trkpt lat="45.7614737" lon="11.6467311"><ele>128.0</ele><time>2026-05-02T15:20:14.492Z</time></trkpt><trkpt lat="45.7613938" lon="11.6468553"><ele>127.60000000000001</ele><time>2026-05-02T15:20:16.492Z</time></trkpt><trkpt lat="45.7613213" lon="11.6469734"><ele>127.20000000000002</ele><time>2026-05-02T15:20:18.492Z</time></trkpt><trkpt lat="45.7612526" lon="11.6470933"><ele>126.8</ele><time>2026-05-02T15:20:20.492Z</time></trkpt><trkpt lat="45.7611791" lon="11.647204"><ele>126.4</ele><time>2026-05-02T15:20:22.491Z</time></trkpt><trkpt lat="45.7611024" lon="11.6473009"><ele>126.0</ele><time>2026-05-02T15:20:24.492Z</time></trkpt><trkpt lat="45.7609966" lon="11.6473748"><ele>126.0</ele><time>2026-05-02T15:20:26.491Z</time></trkpt><trkpt lat="45.7609359" lon="11.6474029"><ele>126.0</ele><time>2026-05-02T15:20:27.491Z</time></trkpt><trkpt lat="45.7608163" lon="11.6474374"><ele>126.0</ele><time>2026-05-02T15:20:29.492Z</time></trkpt><trkpt lat="45.7606956" lon="11.6474493"><ele>126.0</ele><time>2026-05-02T15:20:31.492Z</time></trkpt><trkpt lat="45.7605788" lon="11.6474537"><ele>126.0</ele><time>2026-05-02T15:20:33.492Z</time></trkpt><trkpt lat="45.7604655" lon="11.6474577"><ele>126.0</ele><time>2026-05-02T15:20:35.491Z</time></trkpt><trkpt lat="45.7603511" lon="11.6474584"><ele>126.0</ele><time>2026-05-02T15:20:37.491Z</time></trkpt><trkpt lat="45.7602391" lon="11.6474712"><ele>126.0</ele><time>2026-05-02T15:20:39.492Z</time></trkpt><trkpt lat="45.7601316" lon="11.6474851"><ele>126.0</ele><time>2026-05-02T15:20:41.491Z</time></trkpt><trkpt lat="45.7600272" lon="11.647511"><ele>126.0</ele><time>2026-05-02T15:20:43.492Z</time></trkpt><trkpt lat="45.759932" lon="11.6475587"><ele>126.19999999999999</ele><time>2026-05-02T15:20:45.492Z</time></trkpt><trkpt lat="45.7598401" lon="11.6476188"><ele>126.39999999999999</ele><time>2026-05-02T15:20:47.492Z</time></trkpt><trkpt lat="45.7597466" lon="11.6476804"><ele>126.6</ele><time>2026-05-02T15:20:49.492Z</time></trkpt><trkpt lat="45.7596454" lon="11.6477387"><ele>126.8</ele><time>2026-05-02T15:20:51.492Z</time></trkpt><trkpt lat="45.7595391" lon="11.6477945"><ele>127.0</ele><time>2026-05-02T15:20:53.493Z</time></trkpt><trkpt lat="45.7594328" lon="11.6478591"><ele>126.6</ele><time>2026-05-02T15:20:55.491Z</time></trkpt><trkpt lat="45.7593298" lon="11.6479209"><ele>126.19999999999999</ele><time>2026-05-02T15:20:57.491Z</time></trkpt><trkpt lat="45.7592331" lon="11.6479823"><ele>125.8</ele><time>2026-05-02T15:20:59.493Z</time></trkpt><trkpt lat="45.7591355" lon="11.6480232"><ele>125.4</ele><time>2026-05-02T15:21:01.492Z</time></trkpt><trkpt lat="45.7590368" lon="11.6480752"><ele>125.0</ele><time>2026-05-02T15:21:03.493Z</time></trkpt><trkpt lat="45.7589409" lon="11.6481308"><ele>125.0</ele><time>2026-05-02T15:21:05.493Z</time></trkpt><trkpt lat="45.7588481" lon="11.64818"><ele>125.0</ele><time>2026-05-02T15:21:07.493Z</time></trkpt><trkpt lat="45.7587504" lon="11.6482299"><ele>125.0</ele><time>2026-05-02T15:21:09.493Z</time></trkpt><trkpt lat="45.7586553" lon="11.6482715"><ele>125.0</ele><time>2026-05-02T15:21:11.493Z</time></trkpt><trkpt lat="45.7585699" lon="11.6483204"><ele>125.0</ele><time>2026-05-02T15:21:13.493Z</time></trkpt><trkpt lat="45.758487" lon="11.6483658"><ele>124.85714285714286</ele><time>2026-05-02T15:21:15.492Z</time></trkpt><trkpt lat="45.7583994" lon="11.6484081"><ele>124.71428571428572</ele><time>2026-05-02T15:21:17.493Z</time></trkpt><trkpt lat="45.7583409" lon="11.6483576"><ele>124.57142857142858</ele><time>2026-05-02T15:21:19.493Z</time></trkpt><trkpt lat="45.7583369" lon="11.6482432"><ele>124.42857142857143</ele><time>2026-05-02T15:21:21.492Z</time></trkpt><trkpt lat="45.7582708" lon="11.6482255"><ele>124.2857142857143</ele><time>2026-05-02T15:21:24.493Z</time></trkpt><trkpt lat="45.7582238" lon="11.6482857"><ele>124.14285714285715</ele><time>2026-05-02T15:21:26.493Z</time></trkpt><trkpt lat="45.7581556" lon="11.6483417"><ele>124.0</ele><time>2026-05-02T15:21:29.493Z</time></trkpt><trkpt lat="45.7580969" lon="11.6483899"><ele>124.00000000000001</ele><time>2026-05-02T15:21:31.493Z</time></trkpt><trkpt lat="45.7580347" lon="11.6484647"><ele>124.0</ele><time>2026-05-02T15:21:33.493Z</time></trkpt><trkpt lat="45.7579779" lon="11.6485532"><ele>124.0</ele><time>2026-05-02T15:21:35.493Z</time></trkpt><trkpt lat="45.7579264" lon="11.6486461"><ele>124.0</ele><time>2026-05-02T15:21:37.493Z</time></trkpt><trkpt lat="45.7578717" lon="11.6487488"><ele>124.00000000000001</ele><time>2026-05-02T15:21:39.493Z</time></trkpt><trkpt lat="45.7578201" lon="11.6488365"><ele>124.0</ele><time>2026-05-02T15:21:41.493Z</time></trkpt><trkpt lat="45.75776" lon="11.6489347"><ele>124.16666666666667</ele><time>2026-05-02T15:21:43.493Z</time></trkpt><trkpt lat="45.7577043" lon="11.6490331"><ele>124.33333333333334</ele><time>2026-05-02T15:21:45.493Z</time></trkpt><trkpt lat="45.7576613" lon="11.649127"><ele>124.5</ele><time>2026-05-02T15:21:47.493Z</time></trkpt><trkpt lat="45.7576127" lon="11.6492181"><ele>124.66666666666666</ele><time>2026-05-02T15:21:49.493Z</time></trkpt><trkpt lat="45.7575619" lon="11.6492978"><ele>124.83333333333333</ele><time>2026-05-02T15:21:51.494Z</time></trkpt><trkpt lat="45.7575119" lon="11.6493739"><ele>125.0</ele><time>2026-05-02T15:21:53.493Z</time></trkpt><trkpt lat="45.7574549" lon="11.6494499"><ele>123.83333333333333</ele><time>2026-05-02T15:21:55.494Z</time></trkpt><trkpt lat="45.7574023" lon="11.6495297"><ele>122.66666666666666</ele><time>2026-05-02T15:21:57.494Z</time></trkpt><trkpt lat="45.757347" lon="11.6496093"><ele>121.5</ele><time>2026-05-02T15:21:59.493Z</time></trkpt><trkpt lat="45.7572822" lon="11.6496803"><ele>120.33333333333334</ele><time>2026-05-02T15:22:02.494Z</time></trkpt><trkpt lat="45.7572447" lon="11.6497753"><ele>119.16666666666667</ele><time>2026-05-02T15:22:05.494Z</time></trkpt><trkpt lat="45.7572367" lon="11.6498736"><ele>118.0</ele><time>2026-05-02T15:22:10.494Z</time></trkpt><trkpt lat="45.7572327" lon="11.6499989"><ele>118.00000000000001</ele><time>2026-05-02T15:22:13.494Z</time></trkpt><trkpt lat="45.7572245" lon="11.6500988"><ele>118.0</ele><time>2026-05-02T15:22:15.494Z</time></trkpt><trkpt lat="45.7572381" lon="11.6502263"><ele>118.0</ele><time>2026-05-02T15:22:17.494Z</time></trkpt><trkpt lat="45.7572424" lon="11.6503609"><ele>118.0</ele><time>2026-05-02T15:22:19.494Z</time></trkpt><trkpt lat="45.7572547" lon="11.6504846"><ele>118.00000000000001</ele><time>2026-05-02T15:22:21.493Z</time></trkpt><trkpt lat="45.7572584" lon="11.6506101"><ele>118.0</ele><time>2026-05-02T15:22:23.493Z</time></trkpt><trkpt lat="45.7572397" lon="11.6507251"><ele>117.83333333333334</ele><time>2026-05-02T15:22:25.494Z</time></trkpt><trkpt lat="45.7572075" lon="11.650833"><ele>117.66666666666667</ele><time>2026-05-02T15:22:27.494Z</time></trkpt><trkpt lat="45.7571623" lon="11.6509251"><ele>117.5</ele><time>2026-05-02T15:22:29.493Z</time></trkpt><trkpt lat="45.7571227" lon="11.6510143"><ele>117.33333333333334</ele><time>2026-05-02T15:22:31.493Z</time></trkpt><trkpt lat="45.7570612" lon="11.6510853"><ele>117.16666666666667</ele><time>2026-05-02T15:22:33.494Z</time></trkpt><trkpt lat="45.7570027" lon="11.6511565"><ele>117.0</ele><time>2026-05-02T15:22:35.494Z</time></trkpt><trkpt lat="45.7569423" lon="11.6512306"><ele>116.8</ele><time>2026-05-02T15:22:37.494Z</time></trkpt><trkpt lat="45.7568779" lon="11.6513159"><ele>116.6</ele><time>2026-05-02T15:22:39.493Z</time></trkpt><trkpt lat="45.7568093" lon="11.6514118"><ele>116.39999999999999</ele><time>2026-05-02T15:22:41.494Z</time></trkpt><trkpt lat="45.7567413" lon="11.6515022"><ele>116.19999999999999</ele><time>2026-05-02T15:22:43.494Z</time></trkpt><trkpt lat="45.756661" lon="11.6515847"><ele>116.0</ele><time>2026-05-02T15:22:45.494Z</time></trkpt><trkpt lat="45.7565661" lon="11.6516816"><ele>116.00000000000001</ele><time>2026-05-02T15:22:47.495Z</time></trkpt><trkpt lat="45.7565209" lon="11.651747"><ele>116.0</ele><time>2026-05-02T15:22:48.494Z</time></trkpt><trkpt lat="45.7564798" lon="11.6518167"><ele>116.00000000000001</ele><time>2026-05-02T15:22:49.494Z</time></trkpt><trkpt lat="45.7564368" lon="11.6518893"><ele>116.00000000000001</ele><time>2026-05-02T15:22:50.494Z</time></trkpt><trkpt lat="45.7563901" lon="11.6519624"><ele>116.0</ele><time>2026-05-02T15:22:51.494Z</time></trkpt><trkpt lat="45.7563403" lon="11.6520357"><ele>116.00000000000001</ele><time>2026-05-02T15:22:52.494Z</time></trkpt><trkpt lat="45.7562945" lon="11.6521121"><ele>116.00000000000001</ele><time>2026-05-02T15:22:53.494Z</time></trkpt><trkpt lat="45.7562581" lon="11.6521956"><ele>115.99999999999999</ele><time>2026-05-02T15:22:54.494Z</time></trkpt><trkpt lat="45.75623" lon="11.6522877"><ele>116.0</ele><time>2026-05-02T15:22:55.495Z</time></trkpt><trkpt lat="45.7561995" lon="11.6523732"><ele>116.0</ele><time>2026-05-02T15:22:56.494Z</time></trkpt><trkpt lat="45.7561629" lon="11.6524574"><ele>116.0</ele><time>2026-05-02T15:22:57.495Z</time></trkpt><trkpt lat="45.7561192" lon="11.6525333"><ele>115.99999999999999</ele><time>2026-05-02T15:22:58.495Z</time></trkpt><trkpt lat="45.7560394" lon="11.6526478"><ele>116.0</ele><time>2026-05-02T15:23:00.495Z</time></trkpt><trkpt lat="45.7559728" lon="11.6527644"><ele>115.75</ele><time>2026-05-02T15:23:02.495Z</time></trkpt><trkpt lat="45.755882" lon="11.6528748"><ele>115.5</ele><time>2026-05-02T15:23:04.495Z</time></trkpt><trkpt lat="45.7557924" lon="11.6529885"><ele>115.25</ele><time>2026-05-02T15:23:06.495Z</time></trkpt><trkpt lat="45.7557147" lon="11.6531096"><ele>115.0</ele><time>2026-05-02T15:23:08.495Z</time></trkpt><trkpt lat="45.7556532" lon="11.6532327"><ele>115.0</ele><time>2026-05-02T15:23:10.495Z</time></trkpt><trkpt lat="45.7556346" lon="11.6533707"><ele>115.0</ele><time>2026-05-02T15:23:12.494Z</time></trkpt><trkpt lat="45.7556259" lon="11.6535211"><ele>115.0</ele><time>2026-05-02T15:23:14.495Z</time></trkpt><trkpt lat="45.7556326" lon="11.6536497"><ele>115.0</ele><time>2026-05-02T15:23:16.495Z</time></trkpt><trkpt lat="45.7556286" lon="11.6537868"><ele>115.0</ele><time>2026-05-02T15:23:19.495Z</time></trkpt><trkpt lat="45.7556013" lon="11.6539095"><ele>114.4</ele><time>2026-05-02T15:23:21.495Z</time></trkpt><trkpt lat="45.7555455" lon="11.6540313"><ele>113.8</ele><time>2026-05-02T15:23:23.494Z</time></trkpt><trkpt lat="45.7554926" lon="11.6541593"><ele>113.19999999999999</ele><time>2026-05-02T15:23:25.495Z</time></trkpt><trkpt lat="45.7554454" lon="11.6542924"><ele>112.6</ele><time>2026-05-02T15:23:27.494Z</time></trkpt><trkpt lat="45.755397" lon="11.6544483"><ele>112.0</ele><time>2026-05-02T15:23:29.495Z</time></trkpt><trkpt lat="45.7553408" lon="11.6545854"><ele>112.0</ele><time>2026-05-02T15:23:31.495Z</time></trkpt><trkpt lat="45.755293" lon="11.6547246"><ele>111.99999999999999</ele><time>2026-05-02T15:23:33.495Z</time></trkpt><trkpt lat="45.7552396" lon="11.6548546"><ele>111.99999999999999</ele><time>2026-05-02T15:23:35.496Z</time></trkpt><trkpt lat="45.7552004" lon="11.6549627"><ele>112.0</ele><time>2026-05-02T15:23:37.496Z</time></trkpt><trkpt lat="45.7551682" lon="11.6550479"><ele>112.0</ele><time>2026-05-02T15:23:39.496Z</time></trkpt><trkpt lat="45.7551155" lon="11.6551529"><ele>111.83333333333334</ele><time>2026-05-02T15:23:43.496Z</time></trkpt><trkpt lat="45.7550958" lon="11.6552629"><ele>111.66666666666667</ele><time>2026-05-02T15:23:45.495Z</time></trkpt><trkpt lat="45.7550625" lon="11.6553614"><ele>111.5</ele><time>2026-05-02T15:23:47.494Z</time></trkpt><trkpt lat="45.7550207" lon="11.6554614"><ele>111.33333333333334</ele><time>2026-05-02T15:23:49.495Z</time></trkpt><trkpt lat="45.7549823" lon="11.6555832"><ele>111.16666666666667</ele><time>2026-05-02T15:23:51.495Z</time></trkpt><trkpt lat="45.7549593" lon="11.65571"><ele>111.0</ele><time>2026-05-02T15:23:53.496Z</time></trkpt><trkpt lat="45.7549227" lon="11.655833"><ele>111.0</ele><time>2026-05-02T15:23:55.496Z</time></trkpt><trkpt lat="45.7548887" lon="11.655954"><ele>111.0</ele><time>2026-05-02T15:23:57.496Z</time></trkpt><trkpt lat="45.7548622" lon="11.6560742"><ele>111.0</ele><time>2026-05-02T15:23:59.496Z</time></trkpt><trkpt lat="45.7548447" lon="11.6562015"><ele>111.0</ele><time>2026-05-02T15:24:01.496Z</time></trkpt><trkpt lat="45.7548283" lon="11.6563243"><ele>111.0</ele><time>2026-05-02T15:24:03.495Z</time></trkpt><trkpt lat="45.7547945" lon="11.6564467"><ele>111.0</ele><time>2026-05-02T15:24:05.495Z</time></trkpt><trkpt lat="45.7547736" lon="11.6565842"><ele>111.0</ele><time>2026-05-02T15:24:07.495Z</time></trkpt><trkpt lat="45.7547526" lon="11.6567428"><ele>111.0</ele><time>2026-05-02T15:24:09.496Z</time></trkpt><trkpt lat="45.7547306" lon="11.6568896"><ele>111.0</ele><time>2026-05-02T15:24:11.496Z</time></trkpt><trkpt lat="45.7547073" lon="11.6570311"><ele>111.0</ele><time>2026-05-02T15:24:13.495Z</time></trkpt><trkpt lat="45.7546875" lon="11.6571741"><ele>111.0</ele><time>2026-05-02T15:24:15.496Z</time></trkpt><trkpt lat="45.7546658" lon="11.6573117"><ele>110.8</ele><time>2026-05-02T15:24:17.496Z</time></trkpt><trkpt lat="45.754643" lon="11.6574412"><ele>110.6</ele><time>2026-05-02T15:24:19.496Z</time></trkpt><trkpt lat="45.7546226" lon="11.6575684"><ele>110.4</ele><time>2026-05-02T15:24:21.496Z</time></trkpt><trkpt lat="45.754603" lon="11.6576885"><ele>110.2</ele><time>2026-05-02T15:24:23.496Z</time></trkpt><trkpt lat="45.7545828" lon="11.6578266"><ele>110.0</ele><time>2026-05-02T15:24:25.496Z</time></trkpt><trkpt lat="45.7545522" lon="11.6579784"><ele>110.0</ele><time>2026-05-02T15:24:27.496Z</time></trkpt><trkpt lat="45.7545281" lon="11.6581233"><ele>110.0</ele><time>2026-05-02T15:24:29.495Z</time></trkpt><trkpt lat="45.7545102" lon="11.6582658"><ele>110.0</ele><time>2026-05-02T15:24:31.495Z</time></trkpt><trkpt lat="45.7544899" lon="11.658399"><ele>110.0</ele><time>2026-05-02T15:24:33.496Z</time></trkpt><trkpt lat="45.7544681" lon="11.6585253"><ele>110.0</ele><time>2026-05-02T15:24:35.496Z</time></trkpt><trkpt lat="45.7544464" lon="11.6586368"><ele>109.66666666666666</ele><time>2026-05-02T15:24:37.496Z</time></trkpt><trkpt lat="45.7544274" lon="11.6587419"><ele>109.33333333333333</ele><time>2026-05-02T15:24:39.496Z</time></trkpt><trkpt lat="45.7544146" lon="11.6588515"><ele>109.0</ele><time>2026-05-02T15:24:41.496Z</time></trkpt><trkpt lat="45.7544019" lon="11.6589809"><ele>108.66666666666666</ele><time>2026-05-02T15:24:43.495Z</time></trkpt><trkpt lat="45.7543817" lon="11.6591026"><ele>108.33333333333333</ele><time>2026-05-02T15:24:45.496Z</time></trkpt><trkpt lat="45.7543501" lon="11.6592418"><ele>108.0</ele><time>2026-05-02T15:24:47.496Z</time></trkpt><trkpt lat="45.7543308" lon="11.6593803"><ele>107.80000000000001</ele><time>2026-05-02T15:24:49.496Z</time></trkpt><trkpt lat="45.7543143" lon="11.6595145"><ele>107.60000000000001</ele><time>2026-05-02T15:24:51.497Z</time></trkpt><trkpt lat="45.7542955" lon="11.6596496"><ele>107.39999999999999</ele><time>2026-05-02T15:24:53.497Z</time></trkpt><trkpt lat="45.7542797" lon="11.6597711"><ele>107.19999999999999</ele><time>2026-05-02T15:24:55.497Z</time></trkpt><trkpt lat="45.7542635" lon="11.6599014"><ele>107.0</ele><time>2026-05-02T15:24:57.497Z</time></trkpt><trkpt lat="45.7542433" lon="11.6600413"><ele>106.99999999999999</ele><time>2026-05-02T15:24:59.497Z</time></trkpt><trkpt lat="45.7542218" lon="11.6601642"><ele>107.0</ele><time>2026-05-02T15:25:01.497Z</time></trkpt><trkpt lat="45.7542051" lon="11.6602806"><ele>107.0</ele><time>2026-05-02T15:25:03.497Z</time></trkpt><trkpt lat="45.7541852" lon="11.6603904"><ele>107.0</ele><time>2026-05-02T15:25:05.497Z</time></trkpt><trkpt lat="45.7541761" lon="11.660495"><ele>106.99999999999999</ele><time>2026-05-02T15:25:07.497Z</time></trkpt><trkpt lat="45.7541557" lon="11.6605903"><ele>107.0</ele><time>2026-05-02T15:25:09.496Z</time></trkpt><trkpt lat="45.7541444" lon="11.6607095"><ele>106.99999999999999</ele><time>2026-05-02T15:25:11.497Z</time></trkpt><trkpt lat="45.754133" lon="11.6608231"><ele>107.0</ele><time>2026-05-02T15:25:13.497Z</time></trkpt><trkpt lat="45.7541189" lon="11.6609271"><ele>107.0</ele><time>2026-05-02T15:25:15.496Z</time></trkpt><trkpt lat="45.754074" lon="11.6610293"><ele>107.0</ele><time>2026-05-02T15:25:18.497Z</time></trkpt><trkpt lat="45.7540218" lon="11.6610995"><ele>106.99999999999999</ele><time>2026-05-02T15:25:20.497Z</time></trkpt><trkpt lat="45.7539402" lon="11.66115"><ele>107.0</ele><time>2026-05-02T15:25:22.496Z</time></trkpt><trkpt lat="45.7538436" lon="11.6611282"><ele>107.0</ele><time>2026-05-02T15:25:24.497Z</time></trkpt><trkpt lat="45.7537444" lon="11.6611319"><ele>106.99999999999999</ele><time>2026-05-02T15:25:26.497Z</time></trkpt><trkpt lat="45.7536433" lon="11.6611219"><ele>106.99999999999999</ele><time>2026-05-02T15:25:28.496Z</time></trkpt><trkpt lat="45.7535321" lon="11.6611107"><ele>107.0</ele><time>2026-05-02T15:25:30.497Z</time></trkpt><trkpt lat="45.753421" lon="11.6611041"><ele>107.0</ele><time>2026-05-02T15:25:32.497Z</time></trkpt><trkpt lat="45.7533148" lon="11.6611064"><ele>107.0</ele><time>2026-05-02T15:25:34.498Z</time></trkpt><trkpt lat="45.7532124" lon="11.6611046"><ele>106.99999999999999</ele><time>2026-05-02T15:25:36.496Z</time></trkpt><trkpt lat="45.7531025" lon="11.6611067"><ele>106.99999999999999</ele><time>2026-05-02T15:25:38.497Z</time></trkpt><trkpt lat="45.7530044" lon="11.6611055"><ele>107.0</ele><time>2026-05-02T15:25:40.497Z</time></trkpt><trkpt lat="45.752894" lon="11.6611131"><ele>107.0</ele><time>2026-05-02T15:25:42.498Z</time></trkpt><trkpt lat="45.7527841" lon="11.6611177"><ele>107.0</ele><time>2026-05-02T15:25:44.496Z</time></trkpt><trkpt lat="45.7526813" lon="11.6611224"><ele>106.99999999999999</ele><time>2026-05-02T15:25:46.496Z</time></trkpt><trkpt lat="45.7525689" lon="11.6611185"><ele>106.99999999999999</ele><time>2026-05-02T15:25:48.498Z</time></trkpt><trkpt lat="45.7524644" lon="11.661103"><ele>107.0</ele><time>2026-05-02T15:25:50.498Z</time></trkpt><trkpt lat="45.752367" lon="11.6610942"><ele>107.0</ele><time>2026-05-02T15:25:52.498Z</time></trkpt><trkpt lat="45.752271" lon="11.6610861"><ele>107.0</ele><time>2026-05-02T15:25:54.498Z</time></trkpt><trkpt lat="45.7521738" lon="11.6610807"><ele>106.99999999999999</ele><time>2026-05-02T15:25:56.497Z</time></trkpt><trkpt lat="45.7520679" lon="11.6610806"><ele>106.99999999999999</ele><time>2026-05-02T15:25:58.498Z</time></trkpt><trkpt lat="45.7519628" lon="11.6610747"><ele>107.0</ele><time>2026-05-02T15:26:00.498Z</time></trkpt><trkpt lat="45.7518662" lon="11.6610841"><ele>107.0</ele><time>2026-05-02T15:26:02.498Z</time></trkpt><trkpt lat="45.7517727" lon="11.6610937"><ele>107.0</ele><time>2026-05-02T15:26:04.497Z</time></trkpt><trkpt lat="45.751681" lon="11.6611115"><ele>106.99999999999999</ele><time>2026-05-02T15:26:06.498Z</time></trkpt><trkpt lat="45.7515704" lon="11.6611412"><ele>106.99999999999999</ele><time>2026-05-02T15:26:08.497Z</time></trkpt><trkpt lat="45.7514712" lon="11.6611934"><ele>107.0</ele><time>2026-05-02T15:26:10.498Z</time></trkpt><trkpt lat="45.7513911" lon="11.6612618"><ele>107.0</ele><time>2026-05-02T15:26:12.498Z</time></trkpt><trkpt lat="45.7513168" lon="11.6613095"><ele>106.99999999999999</ele><time>2026-05-02T15:26:14.498Z</time></trkpt><trkpt lat="45.7512546" lon="11.6613654"><ele>107.0</ele><time>2026-05-02T15:26:16.497Z</time></trkpt><trkpt lat="45.7511952" lon="11.661408"><ele>107.0</ele><time>2026-05-02T15:26:18.498Z</time></trkpt><trkpt lat="45.7511274" lon="11.6614164"><ele>107.0</ele><time>2026-05-02T15:26:20.498Z</time></trkpt><trkpt lat="45.751046" lon="11.6614257"><ele>106.99999999999999</ele><time>2026-05-02T15:26:22.498Z</time></trkpt><trkpt lat="45.7509572" lon="11.6614492"><ele>107.0</ele><time>2026-05-02T15:26:24.497Z</time></trkpt><trkpt lat="45.7508725" lon="11.6614671"><ele>106.83333333333333</ele><time>2026-05-02T15:26:26.498Z</time></trkpt><trkpt lat="45.7507928" lon="11.6614818"><ele>106.66666666666666</ele><time>2026-05-02T15:26:28.499Z</time></trkpt><trkpt lat="45.750705" lon="11.6614973"><ele>106.5</ele><time>2026-05-02T15:26:30.498Z</time></trkpt><trkpt lat="45.7506152" lon="11.6615077"><ele>106.33333333333334</ele><time>2026-05-02T15:26:32.498Z</time></trkpt><trkpt lat="45.7505251" lon="11.661523"><ele>106.16666666666667</ele><time>2026-05-02T15:26:34.497Z</time></trkpt><trkpt lat="45.7504288" lon="11.6615371"><ele>106.0</ele><time>2026-05-02T15:26:36.497Z</time></trkpt><trkpt lat="45.7503342" lon="11.6615392"><ele>106.0</ele><time>2026-05-02T15:26:38.498Z</time></trkpt><trkpt lat="45.7502389" lon="11.6615479"><ele>106.0</ele><time>2026-05-02T15:26:40.498Z</time></trkpt><trkpt lat="45.7501423" lon="11.6615602"><ele>106.0</ele><time>2026-05-02T15:26:42.497Z</time></trkpt><trkpt lat="45.7500422" lon="11.6615733"><ele>106.0</ele><time>2026-05-02T15:26:44.498Z</time></trkpt><trkpt lat="45.7499364" lon="11.6615867"><ele>106.0</ele><time>2026-05-02T15:26:46.497Z</time></trkpt><trkpt lat="45.7498293" lon="11.6615987"><ele>105.8</ele><time>2026-05-02T15:26:48.498Z</time></trkpt><trkpt lat="45.7497342" lon="11.6616155"><ele>105.6</ele><time>2026-05-02T15:26:50.498Z</time></trkpt><trkpt lat="45.7496366" lon="11.6616438"><ele>105.4</ele><time>2026-05-02T15:26:52.499Z</time></trkpt><trkpt lat="45.7495448" lon="11.661665"><ele>105.2</ele><time>2026-05-02T15:26:54.498Z</time></trkpt><trkpt lat="45.7494468" lon="11.6616791"><ele>105.0</ele><time>2026-05-02T15:26:56.499Z</time></trkpt><trkpt lat="45.74935" lon="11.6616909"><ele>104.8</ele><time>2026-05-02T15:26:58.499Z</time></trkpt><trkpt lat="45.7492584" lon="11.6616975"><ele>104.6</ele><time>2026-05-02T15:27:00.499Z</time></trkpt><trkpt lat="45.7491659" lon="11.6617098"><ele>104.4</ele><time>2026-05-02T15:27:02.498Z</time></trkpt><trkpt lat="45.7490735" lon="11.6617247"><ele>104.2</ele><time>2026-05-02T15:27:04.498Z</time></trkpt><trkpt lat="45.748986" lon="11.6617387"><ele>104.0</ele><time>2026-05-02T15:27:06.499Z</time></trkpt><trkpt lat="45.7488967" lon="11.6617469"><ele>104.0</ele><time>2026-05-02T15:27:08.498Z</time></trkpt><trkpt lat="45.748799" lon="11.661752"><ele>104.0</ele><time>2026-05-02T15:27:10.499Z</time></trkpt><trkpt lat="45.7486974" lon="11.6617665"><ele>104.0</ele><time>2026-05-02T15:27:12.498Z</time></trkpt><trkpt lat="45.7485893" lon="11.6617877"><ele>104.0</ele><time>2026-05-02T15:27:14.498Z</time></trkpt><trkpt lat="45.7484893" lon="11.6618061"><ele>104.0</ele><time>2026-05-02T15:27:16.499Z</time></trkpt><trkpt lat="45.7483943" lon="11.6618172"><ele>103.66666666666666</ele><time>2026-05-02T15:27:18.499Z</time></trkpt><trkpt lat="45.7483119" lon="11.6618302"><ele>103.33333333333333</ele><time>2026-05-02T15:27:20.498Z</time></trkpt><trkpt lat="45.7482316" lon="11.6618471"><ele>103.0</ele><time>2026-05-02T15:27:22.499Z</time></trkpt><trkpt lat="45.7481569" lon="11.6618659"><ele>102.66666666666666</ele><time>2026-05-02T15:27:25.498Z</time></trkpt><trkpt lat="45.7480761" lon="11.6618725"><ele>102.33333333333333</ele><time>2026-05-02T15:27:28.498Z</time></trkpt><trkpt lat="45.7479941" lon="11.661867"><ele>102.0</ele><time>2026-05-02T15:27:31.499Z</time></trkpt><trkpt lat="45.7479258" lon="11.6618688"><ele>102.0</ele><time>2026-05-02T15:27:34.499Z</time></trkpt><trkpt lat="45.7478532" lon="11.6618724"><ele>102.0</ele><time>2026-05-02T15:27:36.498Z</time></trkpt><trkpt lat="45.7477851" lon="11.6618847"><ele>102.0</ele><time>2026-05-02T15:27:38.499Z</time></trkpt><trkpt lat="45.7477144" lon="11.6618988"><ele>102.0</ele><time>2026-05-02T15:27:40.498Z</time></trkpt><trkpt lat="45.7476428" lon="11.6618965"><ele>102.0</ele><time>2026-05-02T15:27:42.499Z</time></trkpt><trkpt lat="45.7475834" lon="11.6618007"><ele>102.0</ele><time>2026-05-02T15:27:45.499Z</time></trkpt><trkpt lat="45.7475656" lon="11.6616947"><ele>102.0</ele><time>2026-05-02T15:27:47.499Z</time></trkpt><trkpt lat="45.7475659" lon="11.6615908"><ele>102.0</ele><time>2026-05-02T15:27:49.499Z</time></trkpt><trkpt lat="45.7475642" lon="11.6614894"><ele>102.0</ele><time>2026-05-02T15:27:51.499Z</time></trkpt><trkpt lat="45.747556" lon="11.6613806"><ele>102.0</ele><time>2026-05-02T15:27:53.499Z</time></trkpt><trkpt lat="45.7475532" lon="11.6612717"><ele>102.0</ele><time>2026-05-02T15:27:55.499Z</time></trkpt><trkpt lat="45.7475314" lon="11.6611721"><ele>102.0</ele><time>2026-05-02T15:27:57.498Z</time></trkpt><trkpt lat="45.7475177" lon="11.6610769"><ele>102.0</ele><time>2026-05-02T15:27:59.498Z</time></trkpt><trkpt lat="45.7475104" lon="11.6609689"><ele>102.0</ele><time>2026-05-02T15:28:01.499Z</time></trkpt><trkpt lat="45.7475034" lon="11.6608433"><ele>102.0</ele><time>2026-05-02T15:28:03.499Z</time></trkpt><trkpt lat="45.7474907" lon="11.660721"><ele>102.0</ele><time>2026-05-02T15:28:05.5Z</time></trkpt><trkpt lat="45.7474844" lon="11.6606111"><ele>102.0</ele><time>2026-05-02T15:28:07.5Z</time></trkpt><trkpt lat="45.7474852" lon="11.660512"><ele>102.0</ele><time>2026-05-02T15:28:09.5Z</time></trkpt><trkpt lat="45.7474813" lon="11.6604127"><ele>102.0</ele><time>2026-05-02T15:28:11.5Z</time></trkpt><trkpt lat="45.7474804" lon="11.6603076"><ele>102.16666666666667</ele><time>2026-05-02T15:28:13.5Z</time></trkpt><trkpt lat="45.7474724" lon="11.6601725"><ele>102.33333333333334</ele><time>2026-05-02T15:28:16.5Z</time></trkpt><trkpt lat="45.747478" lon="11.6600633"><ele>102.5</ele><time>2026-05-02T15:28:18.5Z</time></trkpt><trkpt lat="45.7474645" lon="11.6599618"><ele>102.66666666666667</ele><time>2026-05-02T15:28:20.5Z</time></trkpt><trkpt lat="45.7474569" lon="11.6598595"><ele>102.83333333333334</ele><time>2026-05-02T15:28:22.5Z</time></trkpt><trkpt lat="45.7474542" lon="11.6597377"><ele>103.0</ele><time>2026-05-02T15:28:24.5Z</time></trkpt><trkpt lat="45.7474434" lon="11.6596287"><ele>103.00000000000001</ele><time>2026-05-02T15:28:26.5Z</time></trkpt><trkpt lat="45.7474386" lon="11.6595166"><ele>103.0</ele><time>2026-05-02T15:28:28.5Z</time></trkpt><trkpt lat="45.7474383" lon="11.6593872"><ele>103.0</ele><time>2026-05-02T15:28:30.5Z</time></trkpt><trkpt lat="45.7474307" lon="11.6592792"><ele>103.0</ele><time>2026-05-02T15:28:32.5Z</time></trkpt><trkpt lat="45.7474175" lon="11.659171"><ele>103.00000000000001</ele><time>2026-05-02T15:28:34.499Z</time></trkpt><trkpt lat="45.7474097" lon="11.6590451"><ele>103.0</ele><time>2026-05-02T15:28:36.5Z</time></trkpt><trkpt lat="45.7474004" lon="11.6589173"><ele>103.00000000000001</ele><time>2026-05-02T15:28:38.5Z</time></trkpt><trkpt lat="45.7473915" lon="11.6587873"><ele>103.0</ele><time>2026-05-02T15:28:40.5Z</time></trkpt><trkpt lat="45.7473882" lon="11.6586513"><ele>103.0</ele><time>2026-05-02T15:28:42.5Z</time></trkpt><trkpt lat="45.7473854" lon="11.6585411"><ele>103.0</ele><time>2026-05-02T15:28:44.5Z</time></trkpt><trkpt lat="45.7473838" lon="11.6584363"><ele>103.00000000000001</ele><time>2026-05-02T15:28:46.5Z</time></trkpt><trkpt lat="45.7473795" lon="11.658321"><ele>103.0</ele><time>2026-05-02T15:28:48.5Z</time></trkpt><trkpt lat="45.7473753" lon="11.6582186"><ele>102.85714285714285</ele><time>2026-05-02T15:28:50.5Z</time></trkpt><trkpt lat="45.747371" lon="11.6581106"><ele>102.71428571428571</ele><time>2026-05-02T15:28:52.5Z</time></trkpt><trkpt lat="45.7473683" lon="11.6580084"><ele>102.57142857142857</ele><time>2026-05-02T15:28:54.5Z</time></trkpt><trkpt lat="45.7473703" lon="11.6579085"><ele>102.42857142857142</ele><time>2026-05-02T15:28:56.5Z</time></trkpt><trkpt lat="45.7473642" lon="11.6578066"><ele>102.28571428571429</ele><time>2026-05-02T15:28:58.5Z</time></trkpt><trkpt lat="45.7473316" lon="11.6577115"><ele>102.14285714285714</ele><time>2026-05-02T15:29:00.5Z</time></trkpt><trkpt lat="45.7472599" lon="11.6576725"><ele>102.0</ele><time>2026-05-02T15:29:02.5Z</time></trkpt><trkpt lat="45.7471597" lon="11.6576921"><ele>102.0</ele><time>2026-05-02T15:29:04.5Z</time></trkpt><trkpt lat="45.7470624" lon="11.6577362"><ele>102.0</ele><time>2026-05-02T15:29:06.5Z</time></trkpt><trkpt lat="45.746982" lon="11.657808"><ele>102.0</ele><time>2026-05-02T15:29:08.499Z</time></trkpt><trkpt lat="45.7468917" lon="11.6578789"><ele>102.0</ele><time>2026-05-02T15:29:10.5Z</time></trkpt><trkpt lat="45.7467996" lon="11.6579408"><ele>102.0</ele><time>2026-05-02T15:29:12.5Z</time></trkpt><trkpt lat="45.7467177" lon="11.6579972"><ele>102.0</ele><time>2026-05-02T15:29:14.5Z</time></trkpt><trkpt lat="45.7466319" lon="11.6580474"><ele>102.0</ele><time>2026-05-02T15:29:16.5Z</time></trkpt><trkpt lat="45.7465469" lon="11.6580784"><ele>102.0</ele><time>2026-05-02T15:29:18.501Z</time></trkpt><trkpt lat="45.746469" lon="11.6581247"><ele>102.0</ele><time>2026-05-02T15:29:20.5Z</time></trkpt><trkpt lat="45.7463729" lon="11.6581753"><ele>102.0</ele><time>2026-05-02T15:29:22.501Z</time></trkpt><trkpt lat="45.7463012" lon="11.6581985"><ele>102.0</ele><time>2026-05-02T15:29:24.5Z</time></trkpt><trkpt lat="45.7462473" lon="11.6582593"><ele>102.0</ele><time>2026-05-02T15:29:26.501Z</time></trkpt><trkpt lat="45.746168" lon="11.6583236"><ele>102.0</ele><time>2026-05-02T15:29:28.501Z</time></trkpt><trkpt lat="45.7460801" lon="11.6583403"><ele>102.0</ele><time>2026-05-02T15:29:30.501Z</time></trkpt><trkpt lat="45.7460207" lon="11.6582864"><ele>102.0</ele><time>2026-05-02T15:29:33.501Z</time></trkpt><trkpt lat="45.7459809" lon="11.6581964"><ele>102.0</ele><time>2026-05-02T15:29:36.5Z</time></trkpt><trkpt lat="45.7459503" lon="11.6581039"><ele>102.0</ele><time>2026-05-02T15:29:39.501Z</time></trkpt><trkpt lat="45.745903" lon="11.6580314"><ele>101.83333333333333</ele><time>2026-05-02T15:29:42.5Z</time></trkpt><trkpt lat="45.7458611" lon="11.6579437"><ele>101.66666666666666</ele><time>2026-05-02T15:29:45.501Z</time></trkpt><trkpt lat="45.7458993" lon="11.6578713"><ele>101.5</ele><time>2026-05-02T15:29:48.501Z</time></trkpt><trkpt lat="45.7459625" lon="11.6579329"><ele>101.33333333333333</ele><time>2026-05-02T15:29:57.501Z</time></trkpt><trkpt lat="45.7458959" lon="11.657944"><ele>101.16666666666666</ele><time>2026-05-02T15:31:03.527Z</time></trkpt><trkpt lat="45.7459155" lon="11.6581664"><ele>101.0</ele><time>2026-05-02T15:31:07.58Z</time></trkpt><trkpt lat="45.7459177" lon="11.6583861"><ele>100.99999999999999</ele><time>2026-05-02T15:31:09.502Z</time></trkpt><trkpt lat="45.7459227" lon="11.6585146"><ele>101.0</ele><time>2026-05-02T15:31:11.501Z</time></trkpt><trkpt lat="45.7459147" lon="11.6586221"><ele>101.0</ele><time>2026-05-02T15:31:13.502Z</time></trkpt><trkpt lat="45.7458508" lon="11.6586885"><ele>101.0</ele><time>2026-05-02T15:31:15.501Z</time></trkpt><trkpt lat="45.7457779" lon="11.6587102"><ele>100.99999999999999</ele><time>2026-05-02T15:31:17.502Z</time></trkpt><trkpt lat="45.7456889" lon="11.6587005"><ele>101.0</ele><time>2026-05-02T15:31:19.502Z</time></trkpt><trkpt lat="45.7456103" lon="11.6586613"><ele>100.99999999999999</ele><time>2026-05-02T15:31:21.502Z</time></trkpt><trkpt lat="45.7455395" lon="11.6586169"><ele>101.0</ele><time>2026-05-02T15:31:23.502Z</time></trkpt><trkpt lat="45.7454641" lon="11.6585864"><ele>101.0</ele><time>2026-05-02T15:31:25.502Z</time></trkpt><trkpt lat="45.7453802" lon="11.6585495"><ele>101.0</ele><time>2026-05-02T15:31:27.502Z</time></trkpt><trkpt lat="45.7452987" lon="11.6585209"><ele>100.99999999999999</ele><time>2026-05-02T15:31:29.502Z</time></trkpt><trkpt lat="45.7452262" lon="11.6584929"><ele>101.0</ele><time>2026-05-02T15:31:31.502Z</time></trkpt><trkpt lat="45.745156" lon="11.6584615"><ele>100.85714285714286</ele><time>2026-05-02T15:31:33.501Z</time></trkpt><trkpt lat="45.7450843" lon="11.6584185"><ele>100.71428571428571</ele><time>2026-05-02T15:31:35.502Z</time></trkpt><trkpt lat="45.7450164" lon="11.6583957"><ele>100.57142857142858</ele><time>2026-05-02T15:31:37.501Z</time></trkpt><trkpt lat="45.7449489" lon="11.6583796"><ele>100.42857142857143</ele><time>2026-05-02T15:31:39.502Z</time></trkpt><trkpt lat="45.7448795" lon="11.6583642"><ele>100.28571428571429</ele><time>2026-05-02T15:31:41.502Z</time></trkpt><trkpt lat="45.7448167" lon="11.658349"><ele>100.14285714285715</ele><time>2026-05-02T15:31:43.501Z</time></trkpt><trkpt lat="45.7447479" lon="11.6583338"><ele>100.0</ele><time>2026-05-02T15:31:45.502Z</time></trkpt><trkpt lat="45.7446619" lon="11.6583224"><ele>100.00000000000001</ele><time>2026-05-02T15:31:47.501Z</time></trkpt><trkpt lat="45.7445813" lon="11.6583025"><ele>100.0</ele><time>2026-05-02T15:31:49.501Z</time></trkpt><trkpt lat="45.7445089" lon="11.6582955"><ele>100.0</ele><time>2026-05-02T15:31:51.503Z</time></trkpt><trkpt lat="45.7444376" lon="11.6583111"><ele>100.0</ele><time>2026-05-02T15:31:53.503Z</time></trkpt><trkpt lat="45.7443661" lon="11.6583098"><ele>100.0</ele><time>2026-05-02T15:31:55.503Z</time></trkpt><trkpt lat="45.7443039" lon="11.6582913"><ele>100.00000000000001</ele><time>2026-05-02T15:31:57.503Z</time></trkpt><trkpt lat="45.7442381" lon="11.6582942"><ele>100.0</ele><time>2026-05-02T15:31:59.503Z</time></trkpt><trkpt lat="45.7441462" lon="11.6583197"><ele>100.00000000000001</ele><time>2026-05-02T15:32:02.502Z</time></trkpt><trkpt lat="45.7440629" lon="11.6583435"><ele>100.0</ele><time>2026-05-02T15:32:04.503Z</time></trkpt><trkpt lat="45.7439656" lon="11.6583422"><ele>100.0</ele><time>2026-05-02T15:32:06.503Z</time></trkpt><trkpt lat="45.7438727" lon="11.658343"><ele>100.0</ele><time>2026-05-02T15:32:08.503Z</time></trkpt><trkpt lat="45.7437816" lon="11.6583542"><ele>100.00000000000001</ele><time>2026-05-02T15:32:10.503Z</time></trkpt><trkpt lat="45.7437019" lon="11.6583509"><ele>100.0</ele><time>2026-05-02T15:32:12.503Z</time></trkpt><trkpt lat="45.7436246" lon="11.6583636"><ele>100.00000000000001</ele><time>2026-05-02T15:32:14.503Z</time></trkpt><trkpt lat="45.7435567" lon="11.658378"><ele>100.0</ele><time>2026-05-02T15:32:16.502Z</time></trkpt><trkpt lat="45.7434964" lon="11.6584058"><ele>100.0</ele><time>2026-05-02T15:32:18.503Z</time></trkpt><trkpt lat="45.7434267" lon="11.6584719"><ele>100.0</ele><time>2026-05-02T15:32:21.503Z</time></trkpt><trkpt lat="45.7434315" lon="11.6585897"><ele>100.00000000000001</ele><time>2026-05-02T15:32:23.503Z</time></trkpt><trkpt lat="45.7433533" lon="11.6586596"><ele>100.0</ele><time>2026-05-02T15:32:25.503Z</time></trkpt><trkpt lat="45.7432681" lon="11.6586847"><ele>100.16666666666667</ele><time>2026-05-02T15:32:27.503Z</time></trkpt><trkpt lat="45.7431971" lon="11.6586932"><ele>100.33333333333334</ele><time>2026-05-02T15:32:29.503Z</time></trkpt><trkpt lat="45.7431083" lon="11.6587327"><ele>100.5</ele><time>2026-05-02T15:32:32.502Z</time></trkpt><trkpt lat="45.7430399" lon="11.6587391"><ele>100.66666666666666</ele><time>2026-05-02T15:32:35.503Z</time></trkpt><trkpt lat="45.7429653" lon="11.6587608"><ele>100.83333333333333</ele><time>2026-05-02T15:34:16.504Z</time></trkpt><trkpt lat="45.7428846" lon="11.6587272"><ele>101.0</ele><time>2026-05-02T15:34:19.504Z</time></trkpt><trkpt lat="45.7427952" lon="11.6587068"><ele>100.66666666666666</ele><time>2026-05-02T15:34:22.504Z</time></trkpt><trkpt lat="45.742709" lon="11.6586893"><ele>100.33333333333333</ele><time>2026-05-02T15:34:25.505Z</time></trkpt><trkpt lat="45.7426501" lon="11.6586275"><ele>100.0</ele><time>2026-05-02T15:34:38.504Z</time></trkpt><trkpt lat="45.742584" lon="11.6585705"><ele>99.66666666666666</ele><time>2026-05-02T15:35:18.505Z</time></trkpt><trkpt lat="45.7424825" lon="11.6585722"><ele>99.33333333333333</ele><time>2026-05-02T15:35:21.505Z</time></trkpt><trkpt lat="45.7424064" lon="11.6585793"><ele>99.0</ele><time>2026-05-02T15:35:23.505Z</time></trkpt><trkpt lat="45.7423272" lon="11.6585976"><ele>99.0</ele><time>2026-05-02T15:35:26.505Z</time></trkpt><trkpt lat="45.7422616" lon="11.6586179"><ele>99.0</ele><time>2026-05-02T15:35:28.506Z</time></trkpt><trkpt lat="45.7421703" lon="11.6586237"><ele>99.0</ele><time>2026-05-02T15:35:31.505Z</time></trkpt><trkpt lat="45.7421114" lon="11.6586843"><ele>99.0</ele><time>2026-05-02T15:35:34.505Z</time></trkpt><trkpt lat="45.7421365" lon="11.6587904"><ele>99.0</ele><time>2026-05-02T15:35:36.504Z</time></trkpt><trkpt lat="45.7421229" lon="11.658908"><ele>99.0</ele><time>2026-05-02T15:35:38.505Z</time></trkpt><trkpt lat="45.7420823" lon="11.6589783"><ele>99.0</ele><time>2026-05-02T15:35:40.505Z</time></trkpt><trkpt lat="45.7420267" lon="11.6590299"><ele>99.0</ele><time>2026-05-02T15:35:43.506Z</time></trkpt><trkpt lat="45.7419869" lon="11.6591037"><ele>99.0</ele><time>2026-05-02T15:35:45.505Z</time></trkpt><trkpt lat="45.7419048" lon="11.6591547"><ele>99.0</ele><time>2026-05-02T15:35:47.505Z</time></trkpt><trkpt lat="45.7418342" lon="11.6591736"><ele>99.0</ele><time>2026-05-02T15:35:49.506Z</time></trkpt><trkpt lat="45.7417588" lon="11.6591617"><ele>99.0</ele><time>2026-05-02T15:35:51.506Z</time></trkpt><trkpt lat="45.741667" lon="11.6591681"><ele>98.80000000000001</ele><time>2026-05-02T15:35:53.505Z</time></trkpt><trkpt lat="45.741577" lon="11.6591739"><ele>98.60000000000001</ele><time>2026-05-02T15:35:55.506Z</time></trkpt><trkpt lat="45.741491" lon="11.6591673"><ele>98.4</ele><time>2026-05-02T15:35:57.506Z</time></trkpt><trkpt lat="45.7413967" lon="11.6591663"><ele>98.2</ele><time>2026-05-02T15:35:59.506Z</time></trkpt><trkpt lat="45.7413009" lon="11.6591739"><ele>98.0</ele><time>2026-05-02T15:36:01.506Z</time></trkpt><trkpt lat="45.7412073" lon="11.6591739"><ele>97.99999999999999</ele><time>2026-05-02T15:36:03.505Z</time></trkpt><trkpt lat="45.7411307" lon="11.6591756"><ele>98.0</ele><time>2026-05-02T15:36:05.506Z</time></trkpt><trkpt lat="45.7410574" lon="11.6591958"><ele>98.0</ele><time>2026-05-02T15:36:07.506Z</time></trkpt><trkpt lat="45.7410041" lon="11.6592576"><ele>98.0</ele><time>2026-05-02T15:36:09.506Z</time></trkpt><trkpt lat="45.7409367" lon="11.6593175"><ele>97.99999999999999</ele><time>2026-05-02T15:36:11.505Z</time></trkpt><trkpt lat="45.7408516" lon="11.659328"><ele>98.0</ele><time>2026-05-02T15:36:13.506Z</time></trkpt><trkpt lat="45.7407835" lon="11.6593356"><ele>97.99999999999999</ele><time>2026-05-02T15:36:15.506Z</time></trkpt><trkpt lat="45.7407128" lon="11.6593482"><ele>98.0</ele><time>2026-05-02T15:36:17.506Z</time></trkpt><trkpt lat="45.7406336" lon="11.6593622"><ele>98.0</ele><time>2026-05-02T15:36:19.506Z</time></trkpt><trkpt lat="45.7405485" lon="11.6593811"><ele>98.0</ele><time>2026-05-02T15:36:21.506Z</time></trkpt><trkpt lat="45.7404775" lon="11.6593979"><ele>97.99999999999999</ele><time>2026-05-02T15:36:23.506Z</time></trkpt><trkpt lat="45.7404141" lon="11.6594091"><ele>98.0</ele><time>2026-05-02T15:36:25.506Z</time></trkpt><trkpt lat="45.7403248" lon="11.6594328"><ele>98.16666666666666</ele><time>2026-05-02T15:36:27.506Z</time></trkpt><trkpt lat="45.7402267" lon="11.6594523"><ele>98.33333333333333</ele><time>2026-05-02T15:36:29.506Z</time></trkpt><trkpt lat="45.7401358" lon="11.6594713"><ele>98.5</ele><time>2026-05-02T15:36:31.506Z</time></trkpt><trkpt lat="45.7400532" lon="11.6594844"><ele>98.66666666666666</ele><time>2026-05-02T15:36:33.506Z</time></trkpt><trkpt lat="45.7399844" lon="11.6594939"><ele>98.83333333333333</ele><time>2026-05-02T15:36:35.506Z</time></trkpt><trkpt lat="45.7399208" lon="11.6595833"><ele>99.0</ele><time>2026-05-02T15:36:38.506Z</time></trkpt><trkpt lat="45.7399019" lon="11.6596792"><ele>98.66666666666667</ele><time>2026-05-02T15:36:40.506Z</time></trkpt><trkpt lat="45.7398729" lon="11.6595981"><ele>98.33333333333334</ele><time>2026-05-02T15:36:43.507Z</time></trkpt><trkpt lat="45.739786" lon="11.6596019"><ele>98.0</ele><time>2026-05-02T15:36:46.507Z</time></trkpt><trkpt lat="45.7397048" lon="11.6596351"><ele>97.66666666666667</ele><time>2026-05-02T15:36:48.507Z</time></trkpt><trkpt lat="45.7396219" lon="11.6596523"><ele>97.33333333333334</ele><time>2026-05-02T15:36:50.507Z</time></trkpt><trkpt lat="45.7395401" lon="11.6596709"><ele>97.0</ele><time>2026-05-02T15:36:52.507Z</time></trkpt><trkpt lat="45.7394561" lon="11.659694"><ele>96.50000000000001</ele><time>2026-05-02T15:36:54.507Z</time></trkpt><trkpt lat="45.7393728" lon="11.6597167"><ele>96.0</ele><time>2026-05-02T15:36:56.507Z</time></trkpt><trkpt lat="45.7392928" lon="11.6597361"><ele>95.5</ele><time>2026-05-02T15:36:58.506Z</time></trkpt><trkpt lat="45.7392061" lon="11.6597575"><ele>95.0</ele><time>2026-05-02T15:37:00.506Z</time></trkpt><trkpt lat="45.739115" lon="11.6597836"><ele>94.5</ele><time>2026-05-02T15:37:02.507Z</time></trkpt><trkpt lat="45.7390181" lon="11.6598048"><ele>94.0</ele><time>2026-05-02T15:37:04.507Z</time></trkpt><trkpt lat="45.7389242" lon="11.6598315"><ele>94.0</ele><time>2026-05-02T15:37:06.506Z</time></trkpt><trkpt lat="45.7388346" lon="11.6598527"><ele>94.0</ele><time>2026-05-02T15:37:08.507Z</time></trkpt><trkpt lat="45.7387445" lon="11.6598763"><ele>94.0</ele><time>2026-05-02T15:37:10.506Z</time></trkpt><trkpt lat="45.7386518" lon="11.6598989"><ele>94.0</ele><time>2026-05-02T15:37:12.507Z</time></trkpt><trkpt lat="45.7385644" lon="11.6599164"><ele>94.0</ele><time>2026-05-02T15:37:14.506Z</time></trkpt><trkpt lat="45.7384804" lon="11.6599367"><ele>93.80000000000001</ele><time>2026-05-02T15:37:16.507Z</time></trkpt><trkpt lat="45.7384049" lon="11.6599569"><ele>93.60000000000001</ele><time>2026-05-02T15:37:18.507Z</time></trkpt><trkpt lat="45.7383256" lon="11.6599781"><ele>93.4</ele><time>2026-05-02T15:37:20.507Z</time></trkpt><trkpt lat="45.7382326" lon="11.6600052"><ele>93.2</ele><time>2026-05-02T15:37:22.506Z</time></trkpt><trkpt lat="45.7381328" lon="11.6600103"><ele>93.0</ele><time>2026-05-02T15:37:24.507Z</time></trkpt><trkpt lat="45.7380171" lon="11.6599721"><ele>93.0</ele><time>2026-05-02T15:37:26.507Z</time></trkpt><trkpt lat="45.7379564" lon="11.6599469"><ele>93.0</ele><time>2026-05-02T15:37:27.507Z</time></trkpt><trkpt lat="45.7378359" lon="11.6599368"><ele>93.0</ele><time>2026-05-02T15:37:29.507Z</time></trkpt><trkpt lat="45.7377256" lon="11.6599734"><ele>93.0</ele><time>2026-05-02T15:37:31.507Z</time></trkpt><trkpt lat="45.7376211" lon="11.6600101"><ele>93.0</ele><time>2026-05-02T15:37:33.507Z</time></trkpt><trkpt lat="45.7375171" lon="11.6600445"><ele>93.2</ele><time>2026-05-02T15:37:35.507Z</time></trkpt><trkpt lat="45.7374191" lon="11.6600766"><ele>93.4</ele><time>2026-05-02T15:37:37.507Z</time></trkpt><trkpt lat="45.7373272" lon="11.6600987"><ele>93.60000000000001</ele><time>2026-05-02T15:37:39.506Z</time></trkpt><trkpt lat="45.7372441" lon="11.6601256"><ele>93.80000000000001</ele><time>2026-05-02T15:37:41.506Z</time></trkpt><trkpt lat="45.7371559" lon="11.6601623"><ele>94.0</ele><time>2026-05-02T15:37:43.506Z</time></trkpt><trkpt lat="45.737065" lon="11.6601951"><ele>94.0</ele><time>2026-05-02T15:37:45.507Z</time></trkpt><trkpt lat="45.7369671" lon="11.6602284"><ele>94.0</ele><time>2026-05-02T15:37:47.506Z</time></trkpt><trkpt lat="45.7368781" lon="11.6602659"><ele>94.0</ele><time>2026-05-02T15:37:49.508Z</time></trkpt><trkpt lat="45.7367901" lon="11.6603082"><ele>94.0</ele><time>2026-05-02T15:37:51.508Z</time></trkpt><trkpt lat="45.7367016" lon="11.6603429"><ele>94.0</ele><time>2026-05-02T15:37:53.508Z</time></trkpt><trkpt lat="45.736616" lon="11.6603901"><ele>93.83333333333333</ele><time>2026-05-02T15:37:55.508Z</time></trkpt><trkpt lat="45.7365392" lon="11.6604419"><ele>93.66666666666666</ele><time>2026-05-02T15:37:57.508Z</time></trkpt><trkpt lat="45.7364606" lon="11.6604689"><ele>93.5</ele><time>2026-05-02T15:37:59.508Z</time></trkpt><trkpt lat="45.7363847" lon="11.6603953"><ele>93.33333333333333</ele><time>2026-05-02T15:38:01.508Z</time></trkpt><trkpt lat="45.7363626" lon="11.6602471"><ele>93.16666666666667</ele><time>2026-05-02T15:38:03.508Z</time></trkpt><trkpt lat="45.7363027" lon="11.6601959"><ele>93.0</ele><time>2026-05-02T15:38:05.507Z</time></trkpt><trkpt lat="45.736205" lon="11.6602162"><ele>93.0</ele><time>2026-05-02T15:38:07.508Z</time></trkpt><trkpt lat="45.73614" lon="11.6602807"><ele>93.0</ele><time>2026-05-02T15:38:09.508Z</time></trkpt><trkpt lat="45.736127" lon="11.6604378"><ele>93.0</ele><time>2026-05-02T15:38:11.508Z</time></trkpt><trkpt lat="45.7361427" lon="11.6605751"><ele>93.0</ele><time>2026-05-02T15:38:13.508Z</time></trkpt><trkpt lat="45.7361255" lon="11.6606952"><ele>93.0</ele><time>2026-05-02T15:38:15.507Z</time></trkpt><trkpt lat="45.7360565" lon="11.6607829"><ele>92.80000000000001</ele><time>2026-05-02T15:38:17.508Z</time></trkpt><trkpt lat="45.7359469" lon="11.6608238"><ele>92.6</ele><time>2026-05-02T15:38:19.508Z</time></trkpt><trkpt lat="45.7358475" lon="11.6608727"><ele>92.4</ele><time>2026-05-02T15:38:21.508Z</time></trkpt><trkpt lat="45.7357573" lon="11.6609346"><ele>92.19999999999999</ele><time>2026-05-02T15:38:23.508Z</time></trkpt><trkpt lat="45.7356683" lon="11.660984"><ele>92.0</ele><time>2026-05-02T15:38:25.508Z</time></trkpt><trkpt lat="45.7355836" lon="11.6610434"><ele>92.0</ele><time>2026-05-02T15:38:27.508Z</time></trkpt><trkpt lat="45.7355065" lon="11.6610956"><ele>92.0</ele><time>2026-05-02T15:38:29.508Z</time></trkpt><trkpt lat="45.735421" lon="11.6611479"><ele>92.0</ele><time>2026-05-02T15:38:31.508Z</time></trkpt><trkpt lat="45.7353253" lon="11.6612043"><ele>92.0</ele><time>2026-05-02T15:38:33.508Z</time></trkpt><trkpt lat="45.7352292" lon="11.6612624"><ele>92.0</ele><time>2026-05-02T15:38:35.508Z</time></trkpt><trkpt lat="45.7351394" lon="11.6613224"><ele>92.0</ele><time>2026-05-02T15:38:37.508Z</time></trkpt><trkpt lat="45.7350537" lon="11.6613707"><ele>92.0</ele><time>2026-05-02T15:38:39.507Z</time></trkpt><trkpt lat="45.7349734" lon="11.6614203"><ele>92.0</ele><time>2026-05-02T15:38:41.508Z</time></trkpt><trkpt lat="45.7348929" lon="11.6614751"><ele>92.0</ele><time>2026-05-02T15:38:43.508Z</time></trkpt><trkpt lat="45.7348003" lon="11.6615271"><ele>92.0</ele><time>2026-05-02T15:38:45.507Z</time></trkpt><trkpt lat="45.7347093" lon="11.6615867"><ele>92.0</ele><time>2026-05-02T15:38:47.507Z</time></trkpt><trkpt lat="45.7346185" lon="11.6616477"><ele>92.0</ele><time>2026-05-02T15:38:49.508Z</time></trkpt><trkpt lat="45.7345279" lon="11.6617"><ele>92.0</ele><time>2026-05-02T15:38:51.508Z</time></trkpt><trkpt lat="45.7344492" lon="11.6617412"><ele>92.0</ele><time>2026-05-02T15:38:53.509Z</time></trkpt><trkpt lat="45.7343726" lon="11.6617904"><ele>92.0</ele><time>2026-05-02T15:38:55.509Z</time></trkpt><trkpt lat="45.7342912" lon="11.6618417"><ele>92.0</ele><time>2026-05-02T15:38:57.508Z</time></trkpt><trkpt lat="45.734199" lon="11.6618884"><ele>92.0</ele><time>2026-05-02T15:38:59.509Z</time></trkpt><trkpt lat="45.7341206" lon="11.6619442"><ele>92.0</ele><time>2026-05-02T15:39:01.508Z</time></trkpt><trkpt lat="45.7340459" lon="11.6619901"><ele>92.0</ele><time>2026-05-02T15:39:03.509Z</time></trkpt><trkpt lat="45.7339771" lon="11.6620248"><ele>92.0</ele><time>2026-05-02T15:39:05.509Z</time></trkpt><trkpt lat="45.7339109" lon="11.6620611"><ele>92.0</ele><time>2026-05-02T15:39:07.509Z</time></trkpt><trkpt lat="45.7338503" lon="11.6620964"><ele>92.0</ele><time>2026-05-02T15:39:09.509Z</time></trkpt><trkpt lat="45.7337651" lon="11.6621513"><ele>92.0</ele><time>2026-05-02T15:39:12.509Z</time></trkpt><trkpt lat="45.7337058" lon="11.6621902"><ele>92.0</ele><time>2026-05-02T15:39:14.509Z</time></trkpt><trkpt lat="45.7336164" lon="11.6621991"><ele>92.0</ele><time>2026-05-02T15:39:17.509Z</time></trkpt><trkpt lat="45.733556" lon="11.6621684"><ele>92.0</ele><time>2026-05-02T15:39:19.509Z</time></trkpt><trkpt lat="45.7335161" lon="11.6620853"><ele>92.0</ele><time>2026-05-02T15:39:21.509Z</time></trkpt><trkpt lat="45.7334981" lon="11.661988"><ele>91.83333333333334</ele><time>2026-05-02T15:39:23.509Z</time></trkpt><trkpt lat="45.7334877" lon="11.6618922"><ele>91.66666666666667</ele><time>2026-05-02T15:39:25.509Z</time></trkpt><trkpt lat="45.7334756" lon="11.6617987"><ele>91.5</ele><time>2026-05-02T15:39:27.509Z</time></trkpt><trkpt lat="45.7334264" lon="11.6617413"><ele>91.33333333333333</ele><time>2026-05-02T15:39:30.508Z</time></trkpt><trkpt lat="45.7333656" lon="11.6618073"><ele>91.16666666666666</ele><time>2026-05-02T15:39:32.509Z</time></trkpt><trkpt lat="45.7333428" lon="11.6619488"><ele>91.0</ele><time>2026-05-02T15:39:34.509Z</time></trkpt><trkpt lat="45.7333405" lon="11.6620908"><ele>91.0</ele><time>2026-05-02T15:39:36.509Z</time></trkpt><trkpt lat="45.7333232" lon="11.6622332"><ele>91.0</ele><time>2026-05-02T15:39:38.509Z</time></trkpt><trkpt lat="45.7332844" lon="11.6623421"><ele>91.0</ele><time>2026-05-02T15:39:40.508Z</time></trkpt><trkpt lat="45.7332382" lon="11.6624284"><ele>91.0</ele><time>2026-05-02T15:39:42.509Z</time></trkpt><trkpt lat="45.7331806" lon="11.6624784"><ele>91.0</ele><time>2026-05-02T15:39:44.509Z</time></trkpt><trkpt lat="45.733119" lon="11.6625309"><ele>91.0</ele><time>2026-05-02T15:39:46.509Z</time></trkpt><trkpt lat="45.7330593" lon="11.6625757"><ele>91.0</ele><time>2026-05-02T15:39:48.508Z</time></trkpt><trkpt lat="45.7329706" lon="11.6626238"><ele>91.0</ele><time>2026-05-02T15:39:51.509Z</time></trkpt><trkpt lat="45.7328846" lon="11.6626557"><ele>91.0</ele><time>2026-05-02T15:39:53.508Z</time></trkpt><trkpt lat="45.7327966" lon="11.6627041"><ele>91.0</ele><time>2026-05-02T15:39:55.508Z</time></trkpt><trkpt lat="45.7327094" lon="11.6627558"><ele>91.0</ele><time>2026-05-02T15:39:57.51Z</time></trkpt><trkpt lat="45.7326319" lon="11.6627976"><ele>90.57142857142857</ele><time>2026-05-02T15:39:59.51Z</time></trkpt><trkpt lat="45.7325646" lon="11.662831"><ele>90.14285714285714</ele><time>2026-05-02T15:40:01.51Z</time></trkpt><trkpt lat="45.7325043" lon="11.6628703"><ele>89.71428571428572</ele><time>2026-05-02T15:40:03.51Z</time></trkpt><trkpt lat="45.7324457" lon="11.6629051"><ele>89.28571428571428</ele><time>2026-05-02T15:40:05.51Z</time></trkpt><trkpt lat="45.7323626" lon="11.6629511"><ele>88.85714285714286</ele><time>2026-05-02T15:40:08.51Z</time></trkpt><trkpt lat="45.7322995" lon="11.6630047"><ele>88.42857142857143</ele><time>2026-05-02T15:40:10.51Z</time></trkpt><trkpt lat="45.7322348" lon="11.6630365"><ele>88.0</ele><time>2026-05-02T15:40:12.51Z</time></trkpt><trkpt lat="45.7321645" lon="11.6630781"><ele>88.0</ele><time>2026-05-02T15:40:14.51Z</time></trkpt><trkpt lat="45.7320982" lon="11.6631159"><ele>88.0</ele><time>2026-05-02T15:40:16.509Z</time></trkpt><trkpt lat="45.7320395" lon="11.6631488"><ele>88.0</ele><time>2026-05-02T15:40:18.51Z</time></trkpt><trkpt lat="45.7319813" lon="11.6631903"><ele>88.0</ele><time>2026-05-02T15:40:20.51Z</time></trkpt><trkpt lat="45.7318956" lon="11.6632012"><ele>88.0</ele><time>2026-05-02T15:40:23.51Z</time></trkpt><trkpt lat="45.7318283" lon="11.6632072"><ele>88.0</ele><time>2026-05-02T15:40:27.51Z</time></trkpt><trkpt lat="45.7317951" lon="11.6633186"><ele>88.0</ele><time>2026-05-02T15:40:30.51Z</time></trkpt><trkpt lat="45.7317099" lon="11.6633623"><ele>87.5</ele><time>2026-05-02T15:40:33.509Z</time></trkpt><trkpt lat="45.7316188" lon="11.6634012"><ele>87.0</ele><time>2026-05-02T15:40:36.51Z</time></trkpt><trkpt lat="45.7315589" lon="11.6634394"><ele>86.5</ele><time>2026-05-02T15:40:38.51Z</time></trkpt><trkpt lat="45.7314731" lon="11.6634857"><ele>86.0</ele><time>2026-05-02T15:40:41.51Z</time></trkpt><trkpt lat="45.7313896" lon="11.6635348"><ele>85.5</ele><time>2026-05-02T15:40:44.51Z</time></trkpt><trkpt lat="45.7313151" lon="11.6635723"><ele>85.0</ele><time>2026-05-02T15:40:47.51Z</time></trkpt><trkpt lat="45.7312448" lon="11.6636107"><ele>85.14285714285715</ele><time>2026-05-02T15:40:50.51Z</time></trkpt><trkpt lat="45.73118" lon="11.6636461"><ele>85.28571428571428</ele><time>2026-05-02T15:40:53.511Z</time></trkpt><trkpt lat="45.7311144" lon="11.6636922"><ele>85.42857142857143</ele><time>2026-05-02T15:40:56.51Z</time></trkpt><trkpt lat="45.7310513" lon="11.6637301"><ele>85.57142857142858</ele><time>2026-05-02T15:40:59.51Z</time></trkpt><trkpt lat="45.7309804" lon="11.6637641"><ele>85.71428571428572</ele><time>2026-05-02T15:41:02.511Z</time></trkpt><trkpt lat="45.7309186" lon="11.6637973"><ele>85.85714285714286</ele><time>2026-05-02T15:41:04.511Z</time></trkpt><trkpt lat="45.730853" lon="11.6638354"><ele>86.0</ele><time>2026-05-02T15:41:06.51Z</time></trkpt><trkpt lat="45.7307832" lon="11.6638868"><ele>86.28571428571429</ele><time>2026-05-02T15:41:08.511Z</time></trkpt><trkpt lat="45.730713" lon="11.6639253"><ele>86.57142857142857</ele><time>2026-05-02T15:41:10.511Z</time></trkpt><trkpt lat="45.7306444" lon="11.6639427"><ele>86.85714285714286</ele><time>2026-05-02T15:41:12.511Z</time></trkpt><trkpt lat="45.7305766" lon="11.6639267"><ele>87.14285714285714</ele><time>2026-05-02T15:41:14.51Z</time></trkpt><trkpt lat="45.7305178" lon="11.6638615"><ele>87.42857142857143</ele><time>2026-05-02T15:41:16.511Z</time></trkpt><trkpt lat="45.7304826" lon="11.6637748"><ele>87.71428571428572</ele><time>2026-05-02T15:41:18.511Z</time></trkpt><trkpt lat="45.7304808" lon="11.6636738"><ele>88.0</ele><time>2026-05-02T15:41:20.51Z</time></trkpt><trkpt lat="45.7304645" lon="11.6635613"><ele>88.0</ele><time>2026-05-02T15:41:23.51Z</time></trkpt><trkpt lat="45.7303897" lon="11.6635658"><ele>88.0</ele><time>2026-05-02T15:41:26.511Z</time></trkpt><trkpt lat="45.7303676" lon="11.6637044"><ele>88.0</ele><time>2026-05-02T15:41:28.511Z</time></trkpt><trkpt lat="45.7303818" lon="11.6638288"><ele>88.0</ele><time>2026-05-02T15:41:30.511Z</time></trkpt><trkpt lat="45.7303594" lon="11.6639353"><ele>88.0</ele><time>2026-05-02T15:41:32.511Z</time></trkpt><trkpt lat="45.7303212" lon="11.6640463"><ele>88.0</ele><time>2026-05-02T15:41:34.511Z</time></trkpt><trkpt lat="45.7302733" lon="11.6641515"><ele>88.0</ele><time>2026-05-02T15:41:36.511Z</time></trkpt><trkpt lat="45.7301987" lon="11.6642305"><ele>88.0</ele><time>2026-05-02T15:41:38.511Z</time></trkpt><trkpt lat="45.7301182" lon="11.6643015"><ele>88.0</ele><time>2026-05-02T15:41:40.511Z</time></trkpt><trkpt lat="45.7300268" lon="11.6643472"><ele>88.0</ele><time>2026-05-02T15:41:42.511Z</time></trkpt><trkpt lat="45.7299356" lon="11.6644039"><ele>88.0</ele><time>2026-05-02T15:41:44.511Z</time></trkpt><trkpt lat="45.7298571" lon="11.6644809"><ele>87.80000000000001</ele><time>2026-05-02T15:41:46.51Z</time></trkpt><trkpt lat="45.7297876" lon="11.6645849"><ele>87.6</ele><time>2026-05-02T15:41:48.511Z</time></trkpt><trkpt lat="45.7297287" lon="11.664709"><ele>87.4</ele><time>2026-05-02T15:41:50.51Z</time></trkpt><trkpt lat="45.7296779" lon="11.6648337"><ele>87.19999999999999</ele><time>2026-05-02T15:41:52.511Z</time></trkpt><trkpt lat="45.7296215" lon="11.664947"><ele>87.0</ele><time>2026-05-02T15:41:54.511Z</time></trkpt><trkpt lat="45.7295629" lon="11.6650513"><ele>87.0</ele><time>2026-05-02T15:41:56.511Z</time></trkpt><trkpt lat="45.7295062" lon="11.6651443"><ele>87.0</ele><time>2026-05-02T15:41:58.511Z</time></trkpt><trkpt lat="45.729459" lon="11.6652254"><ele>87.0</ele><time>2026-05-02T15:42:00.511Z</time></trkpt><trkpt lat="45.7294077" lon="11.6653245"><ele>87.0</ele><time>2026-05-02T15:42:03.511Z</time></trkpt><trkpt lat="45.7293519" lon="11.6653787"><ele>87.0</ele><time>2026-05-02T15:42:06.512Z</time></trkpt><trkpt lat="45.7292511" lon="11.6654386"><ele>87.0</ele><time>2026-05-02T15:42:08.512Z</time></trkpt><trkpt lat="45.7291859" lon="11.6654706"><ele>86.83333333333333</ele><time>2026-05-02T15:42:09.512Z</time></trkpt><trkpt lat="45.7291297" lon="11.6655168"><ele>86.66666666666667</ele><time>2026-05-02T15:42:10.512Z</time></trkpt><trkpt lat="45.7290833" lon="11.6655866"><ele>86.5</ele><time>2026-05-02T15:42:11.512Z</time></trkpt><trkpt lat="45.729047" lon="11.6656734"><ele>86.33333333333334</ele><time>2026-05-02T15:42:12.512Z</time></trkpt><trkpt lat="45.7290227" lon="11.6657645"><ele>86.16666666666667</ele><time>2026-05-02T15:42:13.512Z</time></trkpt><trkpt lat="45.7290093" lon="11.6658543"><ele>86.0</ele><time>2026-05-02T15:42:14.512Z</time></trkpt><trkpt lat="45.7289966" lon="11.6660239"><ele>86.19999999999999</ele><time>2026-05-02T15:42:16.512Z</time></trkpt><trkpt lat="45.7289607" lon="11.6661757"><ele>86.39999999999999</ele><time>2026-05-02T15:42:18.512Z</time></trkpt><trkpt lat="45.728891" lon="11.6663201"><ele>86.6</ele><time>2026-05-02T15:42:20.512Z</time></trkpt><trkpt lat="45.7288528" lon="11.6664014"><ele>86.8</ele><time>2026-05-02T15:42:21.512Z</time></trkpt><trkpt lat="45.7288159" lon="11.6664929"><ele>87.0</ele><time>2026-05-02T15:42:22.511Z</time></trkpt><trkpt lat="45.7287806" lon="11.6665887"><ele>87.0</ele><time>2026-05-02T15:42:23.512Z</time></trkpt><trkpt lat="45.7287461" lon="11.6666841"><ele>87.0</ele><time>2026-05-02T15:42:24.512Z</time></trkpt><trkpt lat="45.7287156" lon="11.6667778"><ele>87.0</ele><time>2026-05-02T15:42:25.512Z</time></trkpt><trkpt lat="45.728691" lon="11.6668698"><ele>87.0</ele><time>2026-05-02T15:42:26.512Z</time></trkpt><trkpt lat="45.7286686" lon="11.6669589"><ele>87.0</ele><time>2026-05-02T15:42:27.512Z</time></trkpt><trkpt lat="45.7286474" lon="11.6670455"><ele>87.0</ele><time>2026-05-02T15:42:28.512Z</time></trkpt><trkpt lat="45.7286025" lon="11.6672081"><ele>86.8</ele><time>2026-05-02T15:42:30.511Z</time></trkpt><trkpt lat="45.7285539" lon="11.6673563"><ele>86.6</ele><time>2026-05-02T15:42:32.512Z</time></trkpt><trkpt lat="45.7285121" lon="11.6674972"><ele>86.39999999999999</ele><time>2026-05-02T15:42:34.512Z</time></trkpt><trkpt lat="45.7284759" lon="11.6676392"><ele>86.19999999999999</ele><time>2026-05-02T15:42:36.512Z</time></trkpt><trkpt lat="45.7284355" lon="11.6677722"><ele>86.0</ele><time>2026-05-02T15:42:38.512Z</time></trkpt><trkpt lat="45.7283964" lon="11.6679018"><ele>86.0</ele><time>2026-05-02T15:42:40.512Z</time></trkpt><trkpt lat="45.7283617" lon="11.6680275"><ele>86.0</ele><time>2026-05-02T15:42:42.511Z</time></trkpt><trkpt lat="45.7283316" lon="11.6681474"><ele>86.0</ele><time>2026-05-02T15:42:44.512Z</time></trkpt><trkpt lat="45.728305" lon="11.668265"><ele>86.0</ele><time>2026-05-02T15:42:46.512Z</time></trkpt><trkpt lat="45.7282765" lon="11.6683932"><ele>86.0</ele><time>2026-05-02T15:42:48.512Z</time></trkpt><trkpt lat="45.7282441" lon="11.6685317"><ele>85.8</ele><time>2026-05-02T15:42:50.512Z</time></trkpt><trkpt lat="45.7282249" lon="11.6686821"><ele>85.6</ele><time>2026-05-02T15:42:52.512Z</time></trkpt><trkpt lat="45.7282039" lon="11.6688303"><ele>85.4</ele><time>2026-05-02T15:42:54.512Z</time></trkpt><trkpt lat="45.7281855" lon="11.668972"><ele>85.2</ele><time>2026-05-02T15:42:56.511Z</time></trkpt><trkpt lat="45.7281748" lon="11.6691097"><ele>85.0</ele><time>2026-05-02T15:42:58.511Z</time></trkpt><trkpt lat="45.7281544" lon="11.6692433"><ele>85.0</ele><time>2026-05-02T15:43:00.512Z</time></trkpt><trkpt lat="45.7281261" lon="11.6693714"><ele>85.0</ele><time>2026-05-02T15:43:02.512Z</time></trkpt><trkpt lat="45.7281124" lon="11.6695133"><ele>85.0</ele><time>2026-05-02T15:43:04.513Z</time></trkpt><trkpt lat="45.7280987" lon="11.6696625"><ele>85.0</ele><time>2026-05-02T15:43:06.513Z</time></trkpt><trkpt lat="45.7280834" lon="11.6697955"><ele>85.0</ele><time>2026-05-02T15:43:08.513Z</time></trkpt><trkpt lat="45.7280642" lon="11.6699198"><ele>85.0</ele><time>2026-05-02T15:43:10.513Z</time></trkpt><trkpt lat="45.7280501" lon="11.6700426"><ele>85.0</ele><time>2026-05-02T15:43:12.513Z</time></trkpt><trkpt lat="45.7280351" lon="11.6701619"><ele>85.0</ele><time>2026-05-02T15:43:14.513Z</time></trkpt><trkpt lat="45.7280139" lon="11.6702979"><ele>85.0</ele><time>2026-05-02T15:43:16.512Z</time></trkpt><trkpt lat="45.7279983" lon="11.6704298"><ele>85.0</ele><time>2026-05-02T15:43:18.512Z</time></trkpt><trkpt lat="45.7279818" lon="11.6705557"><ele>85.0</ele><time>2026-05-02T15:43:20.512Z</time></trkpt><trkpt lat="45.7279648" lon="11.670682"><ele>85.0</ele><time>2026-05-02T15:43:22.512Z</time></trkpt><trkpt lat="45.7279544" lon="11.6708021"><ele>85.0</ele><time>2026-05-02T15:43:24.512Z</time></trkpt><trkpt lat="45.7279386" lon="11.670918"><ele>85.0</ele><time>2026-05-02T15:43:26.512Z</time></trkpt><trkpt lat="45.7279349" lon="11.6710257"><ele>85.0</ele><time>2026-05-02T15:43:28.513Z</time></trkpt><trkpt lat="45.7279228" lon="11.6711442"><ele>85.0</ele><time>2026-05-02T15:43:30.513Z</time></trkpt><trkpt lat="45.72791" lon="11.6712665"><ele>85.16666666666666</ele><time>2026-05-02T15:43:32.513Z</time></trkpt><trkpt lat="45.7278954" lon="11.6713795"><ele>85.33333333333333</ele><time>2026-05-02T15:43:34.513Z</time></trkpt><trkpt lat="45.7278851" lon="11.6714788"><ele>85.5</ele><time>2026-05-02T15:43:36.513Z</time></trkpt><trkpt lat="45.7278685" lon="11.6715742"><ele>85.66666666666667</ele><time>2026-05-02T15:43:38.513Z</time></trkpt><trkpt lat="45.7278485" lon="11.6716826"><ele>85.83333333333334</ele><time>2026-05-02T15:43:40.513Z</time></trkpt><trkpt lat="45.72782" lon="11.6718099"><ele>86.0</ele><time>2026-05-02T15:43:42.513Z</time></trkpt><trkpt lat="45.7277825" lon="11.671925"><ele>86.0</ele><time>2026-05-02T15:43:44.513Z</time></trkpt><trkpt lat="45.7277448" lon="11.6720199"><ele>86.0</ele><time>2026-05-02T15:43:46.513Z</time></trkpt><trkpt lat="45.7277017" lon="11.6721206"><ele>86.0</ele><time>2026-05-02T15:43:48.513Z</time></trkpt><trkpt lat="45.7276387" lon="11.672236"><ele>86.0</ele><time>2026-05-02T15:43:50.513Z</time></trkpt><trkpt lat="45.7275699" lon="11.6723407"><ele>86.0</ele><time>2026-05-02T15:43:52.513Z</time></trkpt><trkpt lat="45.7275105" lon="11.6724263"><ele>86.0</ele><time>2026-05-02T15:43:54.513Z</time></trkpt><trkpt lat="45.7274558" lon="11.6725201"><ele>85.83333333333334</ele><time>2026-05-02T15:43:56.513Z</time></trkpt><trkpt lat="45.7274032" lon="11.672612"><ele>85.66666666666667</ele><time>2026-05-02T15:43:58.513Z</time></trkpt><trkpt lat="45.7273562" lon="11.672688"><ele>85.5</ele><time>2026-05-02T15:44:00.513Z</time></trkpt><trkpt lat="45.7273127" lon="11.6727563"><ele>85.33333333333333</ele><time>2026-05-02T15:44:02.513Z</time></trkpt><trkpt lat="45.7272675" lon="11.6728424"><ele>85.16666666666666</ele><time>2026-05-02T15:44:04.513Z</time></trkpt><trkpt lat="45.7272068" lon="11.6729466"><ele>85.0</ele><time>2026-05-02T15:44:06.513Z</time></trkpt><trkpt lat="45.7271413" lon="11.6730513"><ele>85.0</ele><time>2026-05-02T15:44:08.514Z</time></trkpt><trkpt lat="45.727083" lon="11.6731425"><ele>85.0</ele><time>2026-05-02T15:44:10.513Z</time></trkpt><trkpt lat="45.7270336" lon="11.6732236"><ele>85.0</ele><time>2026-05-02T15:44:12.514Z</time></trkpt><trkpt lat="45.7269806" lon="11.6733005"><ele>85.0</ele><time>2026-05-02T15:44:14.514Z</time></trkpt><trkpt lat="45.7269277" lon="11.673382"><ele>85.0</ele><time>2026-05-02T15:44:16.514Z</time></trkpt><trkpt lat="45.7268721" lon="11.6734675"><ele>85.0</ele><time>2026-05-02T15:44:18.513Z</time></trkpt><trkpt lat="45.7268154" lon="11.6735573"><ele>85.33333333333333</ele><time>2026-05-02T15:44:20.513Z</time></trkpt><trkpt lat="45.7267511" lon="11.6736488"><ele>85.66666666666666</ele><time>2026-05-02T15:44:22.514Z</time></trkpt><trkpt lat="45.7267028" lon="11.6737276"><ele>86.0</ele><time>2026-05-02T15:44:24.513Z</time></trkpt><trkpt lat="45.7266485" lon="11.6738327"><ele>86.33333333333333</ele><time>2026-05-02T15:44:27.514Z</time></trkpt><trkpt lat="45.7265956" lon="11.6739311"><ele>86.66666666666667</ele><time>2026-05-02T15:44:30.513Z</time></trkpt><trkpt lat="45.726552" lon="11.6740237"><ele>87.0</ele><time>2026-05-02T15:44:32.514Z</time></trkpt><trkpt lat="45.7264986" lon="11.6741096"><ele>87.0</ele><time>2026-05-02T15:44:34.514Z</time></trkpt><trkpt lat="45.7264324" lon="11.6742035"><ele>87.0</ele><time>2026-05-02T15:44:37.513Z</time></trkpt><trkpt lat="45.7263486" lon="11.6742175"><ele>87.0</ele><time>2026-05-02T15:44:40.513Z</time></trkpt><trkpt lat="45.7262832" lon="11.6741734"><ele>87.0</ele><time>2026-05-02T15:44:43.513Z</time></trkpt><trkpt lat="45.7262243" lon="11.6742756"><ele>87.0</ele><time>2026-05-02T15:44:46.514Z</time></trkpt><trkpt lat="45.7262328" lon="11.6744238"><ele>87.0</ele><time>2026-05-02T15:44:48.514Z</time></trkpt><trkpt lat="45.7262343" lon="11.6745742"><ele>87.0</ele><time>2026-05-02T15:44:50.514Z</time></trkpt><trkpt lat="45.7262041" lon="11.6747216"><ele>87.0</ele><time>2026-05-02T15:44:52.514Z</time></trkpt><trkpt lat="45.7261614" lon="11.6748321"><ele>87.0</ele><time>2026-05-02T15:44:54.513Z</time></trkpt><trkpt lat="45.7261211" lon="11.6749503"><ele>87.0</ele><time>2026-05-02T15:44:56.514Z</time></trkpt><trkpt lat="45.7260702" lon="11.6750692"><ele>87.0</ele><time>2026-05-02T15:44:58.514Z</time></trkpt><trkpt lat="45.7260317" lon="11.6751997"><ele>86.39999999999999</ele><time>2026-05-02T15:45:00.513Z</time></trkpt><trkpt lat="45.7259956" lon="11.6753189"><ele>85.8</ele><time>2026-05-02T15:45:02.514Z</time></trkpt><trkpt lat="45.7259307" lon="11.6753903"><ele>85.2</ele><time>2026-05-02T15:45:04.514Z</time></trkpt><trkpt lat="45.7258396" lon="11.6753814"><ele>84.6</ele><time>2026-05-02T15:45:06.514Z</time></trkpt><trkpt lat="45.725752" lon="11.6753838"><ele>84.0</ele><time>2026-05-02T15:45:08.515Z</time></trkpt><trkpt lat="45.7256467" lon="11.6753795"><ele>84.0</ele><time>2026-05-02T15:45:10.515Z</time></trkpt><trkpt lat="45.7255432" lon="11.6753745"><ele>84.0</ele><time>2026-05-02T15:45:12.515Z</time></trkpt><trkpt lat="45.7254477" lon="11.6753771"><ele>84.0</ele><time>2026-05-02T15:45:14.515Z</time></trkpt><trkpt lat="45.7253482" lon="11.6753776"><ele>84.0</ele><time>2026-05-02T15:45:16.514Z</time></trkpt><trkpt lat="45.7252538" lon="11.6753806"><ele>84.0</ele><time>2026-05-02T15:45:18.515Z</time></trkpt><trkpt lat="45.7251687" lon="11.6753885"><ele>84.0</ele><time>2026-05-02T15:45:20.515Z</time></trkpt><trkpt lat="45.7250814" lon="11.6753936"><ele>84.0</ele><time>2026-05-02T15:45:22.515Z</time></trkpt><trkpt lat="45.7249784" lon="11.6753912"><ele>84.0</ele><time>2026-05-02T15:45:24.515Z</time></trkpt><trkpt lat="45.7248649" lon="11.6753966"><ele>84.0</ele><time>2026-05-02T15:45:26.515Z</time></trkpt><trkpt lat="45.7247592" lon="11.6754007"><ele>84.0</ele><time>2026-05-02T15:45:28.514Z</time></trkpt><trkpt lat="45.7246669" lon="11.6753965"><ele>84.0</ele><time>2026-05-02T15:45:30.515Z</time></trkpt><trkpt lat="45.7245691" lon="11.6753929"><ele>84.0</ele><time>2026-05-02T15:45:32.515Z</time></trkpt><trkpt lat="45.7244784" lon="11.6753953"><ele>84.0</ele><time>2026-05-02T15:45:34.514Z</time></trkpt><trkpt lat="45.7243899" lon="11.67539"><ele>84.0</ele><time>2026-05-02T15:45:36.514Z</time></trkpt><trkpt lat="45.7243015" lon="11.6753871"><ele>84.0</ele><time>2026-05-02T15:45:38.514Z</time></trkpt><trkpt lat="45.724216" lon="11.6753836"><ele>84.2</ele><time>2026-05-02T15:45:40.515Z</time></trkpt><trkpt lat="45.7241335" lon="11.6753728"><ele>84.4</ele><time>2026-05-02T15:45:42.514Z</time></trkpt><trkpt lat="45.7240389" lon="11.6753706"><ele>84.6</ele><time>2026-05-02T15:45:44.514Z</time></trkpt><trkpt lat="45.7239378" lon="11.6753714"><ele>84.8</ele><time>2026-05-02T15:45:46.514Z</time></trkpt><trkpt lat="45.7238465" lon="11.6753589"><ele>85.0</ele><time>2026-05-02T15:45:48.515Z</time></trkpt><trkpt lat="45.7237409" lon="11.675364"><ele>85.0</ele><time>2026-05-02T15:45:50.515Z</time></trkpt><trkpt lat="45.7236452" lon="11.6753671"><ele>85.0</ele><time>2026-05-02T15:45:52.515Z</time></trkpt><trkpt lat="45.7235527" lon="11.6753613"><ele>85.0</ele><time>2026-05-02T15:45:54.515Z</time></trkpt><trkpt lat="45.7234625" lon="11.6753583"><ele>85.0</ele><time>2026-05-02T15:45:56.515Z</time></trkpt><trkpt lat="45.7233681" lon="11.675358"><ele>85.0</ele><time>2026-05-02T15:45:58.515Z</time></trkpt><trkpt lat="45.7232846" lon="11.6753454"><ele>84.6</ele><time>2026-05-02T15:46:00.514Z</time></trkpt><trkpt lat="45.7231963" lon="11.6753536"><ele>84.2</ele><time>2026-05-02T15:46:02.515Z</time></trkpt><trkpt lat="45.7231061" lon="11.6753563"><ele>83.80000000000001</ele><time>2026-05-02T15:46:04.515Z</time></trkpt><trkpt lat="45.7230174" lon="11.6753398"><ele>83.4</ele><time>2026-05-02T15:46:06.515Z</time></trkpt><trkpt lat="45.7229136" lon="11.6753383"><ele>83.0</ele><time>2026-05-02T15:46:08.514Z</time></trkpt><trkpt lat="45.7228153" lon="11.6753444"><ele>82.80000000000001</ele><time>2026-05-02T15:46:10.515Z</time></trkpt><trkpt lat="45.7227121" lon="11.6753417"><ele>82.6</ele><time>2026-05-02T15:46:12.516Z</time></trkpt><trkpt lat="45.7226185" lon="11.6753376"><ele>82.4</ele><time>2026-05-02T15:46:14.516Z</time></trkpt><trkpt lat="45.7225313" lon="11.6753449"><ele>82.19999999999999</ele><time>2026-05-02T15:46:16.516Z</time></trkpt><trkpt lat="45.7224427" lon="11.6753483"><ele>82.0</ele><time>2026-05-02T15:46:18.515Z</time></trkpt><trkpt lat="45.7223496" lon="11.6753326"><ele>82.0</ele><time>2026-05-02T15:46:20.516Z</time></trkpt><trkpt lat="45.7222755" lon="11.6753337"><ele>82.0</ele><time>2026-05-02T15:46:22.515Z</time></trkpt><trkpt lat="45.7221795" lon="11.6753199"><ele>82.0</ele><time>2026-05-02T15:46:24.516Z</time></trkpt><trkpt lat="45.7220607" lon="11.6753216"><ele>82.0</ele><time>2026-05-02T15:46:26.516Z</time></trkpt><trkpt lat="45.72196" lon="11.6753345"><ele>82.0</ele><time>2026-05-02T15:46:28.516Z</time></trkpt><trkpt lat="45.7218644" lon="11.6753403"><ele>81.6</ele><time>2026-05-02T15:46:30.516Z</time></trkpt><trkpt lat="45.7217585" lon="11.6753323"><ele>81.19999999999999</ele><time>2026-05-02T15:46:32.516Z</time></trkpt><trkpt lat="45.7216629" lon="11.6753608"><ele>80.8</ele><time>2026-05-02T15:46:34.516Z</time></trkpt><trkpt lat="45.7215717" lon="11.6753902"><ele>80.4</ele><time>2026-05-02T15:46:36.515Z</time></trkpt><trkpt lat="45.7214719" lon="11.6754161"><ele>80.0</ele><time>2026-05-02T15:46:38.516Z</time></trkpt><trkpt lat="45.7213731" lon="11.675462"><ele>80.0</ele><time>2026-05-02T15:46:40.516Z</time></trkpt><trkpt lat="45.7212816" lon="11.6755163"><ele>80.0</ele><time>2026-05-02T15:46:42.515Z</time></trkpt><trkpt lat="45.7211873" lon="11.6755809"><ele>80.0</ele><time>2026-05-02T15:46:44.516Z</time></trkpt><trkpt lat="45.7211013" lon="11.6756401"><ele>80.0</ele><time>2026-05-02T15:46:46.516Z</time></trkpt><trkpt lat="45.7210249" lon="11.6757019"><ele>80.0</ele><time>2026-05-02T15:46:48.516Z</time></trkpt><trkpt lat="45.7209404" lon="11.6757713"><ele>80.2</ele><time>2026-05-02T15:46:50.516Z</time></trkpt><trkpt lat="45.7208538" lon="11.6758619"><ele>80.4</ele><time>2026-05-02T15:46:52.516Z</time></trkpt><trkpt lat="45.7207641" lon="11.6759434"><ele>80.6</ele><time>2026-05-02T15:46:54.516Z</time></trkpt><trkpt lat="45.7206747" lon="11.676014"><ele>80.8</ele><time>2026-05-02T15:46:56.516Z</time></trkpt><trkpt lat="45.7205925" lon="11.6761014"><ele>81.0</ele><time>2026-05-02T15:46:58.516Z</time></trkpt><trkpt lat="45.7205103" lon="11.6761704"><ele>81.0</ele><time>2026-05-02T15:47:00.517Z</time></trkpt><trkpt lat="45.7204276" lon="11.6762391"><ele>81.0</ele><time>2026-05-02T15:47:02.516Z</time></trkpt><trkpt lat="45.7203523" lon="11.6763136"><ele>81.0</ele><time>2026-05-02T15:47:04.516Z</time></trkpt><trkpt lat="45.7202852" lon="11.6763734"><ele>81.0</ele><time>2026-05-02T15:47:06.516Z</time></trkpt><trkpt lat="45.7202101" lon="11.6764295"><ele>81.0</ele><time>2026-05-02T15:47:08.516Z</time></trkpt><trkpt lat="45.7201327" lon="11.6764931"><ele>81.0</ele><time>2026-05-02T15:47:10.516Z</time></trkpt><trkpt lat="45.7200521" lon="11.6765609"><ele>81.4</ele><time>2026-05-02T15:47:12.516Z</time></trkpt><trkpt lat="45.71997" lon="11.6766408"><ele>81.8</ele><time>2026-05-02T15:47:14.517Z</time></trkpt><trkpt lat="45.7198916" lon="11.6767386"><ele>82.2</ele><time>2026-05-02T15:47:16.517Z</time></trkpt><trkpt lat="45.7198168" lon="11.67684"><ele>82.60000000000001</ele><time>2026-05-02T15:47:18.517Z</time></trkpt><trkpt lat="45.7197406" lon="11.676938"><ele>83.0</ele><time>2026-05-02T15:47:20.517Z</time></trkpt><trkpt lat="45.7196661" lon="11.6770365"><ele>83.0</ele><time>2026-05-02T15:47:22.516Z</time></trkpt><trkpt lat="45.719603" lon="11.6771249"><ele>83.0</ele><time>2026-05-02T15:47:24.517Z</time></trkpt><trkpt lat="45.7195394" lon="11.6772134"><ele>83.0</ele><time>2026-05-02T15:47:26.517Z</time></trkpt><trkpt lat="45.7194805" lon="11.6773117"><ele>83.0</ele><time>2026-05-02T15:47:28.517Z</time></trkpt><trkpt lat="45.7194283" lon="11.6773924"><ele>83.0</ele><time>2026-05-02T15:47:30.516Z</time></trkpt><trkpt lat="45.7193717" lon="11.6774817"><ele>83.0</ele><time>2026-05-02T15:47:32.516Z</time></trkpt><trkpt lat="45.7193075" lon="11.6775678"><ele>82.83333333333334</ele><time>2026-05-02T15:47:34.517Z</time></trkpt><trkpt lat="45.7192558" lon="11.6776502"><ele>82.66666666666667</ele><time>2026-05-02T15:47:36.516Z</time></trkpt><trkpt lat="45.7192081" lon="11.677749"><ele>82.5</ele><time>2026-05-02T15:47:38.517Z</time></trkpt><trkpt lat="45.7191519" lon="11.6778436"><ele>82.33333333333333</ele><time>2026-05-02T15:47:40.516Z</time></trkpt><trkpt lat="45.7190922" lon="11.6779424"><ele>82.16666666666666</ele><time>2026-05-02T15:47:42.517Z</time></trkpt><trkpt lat="45.7190333" lon="11.6780292"><ele>82.0</ele><time>2026-05-02T15:47:44.517Z</time></trkpt><trkpt lat="45.7189738" lon="11.678101"><ele>81.83333333333333</ele><time>2026-05-02T15:47:46.517Z</time></trkpt><trkpt lat="45.7188833" lon="11.6780847"><ele>81.66666666666666</ele><time>2026-05-02T15:47:48.516Z</time></trkpt><trkpt lat="45.7188032" lon="11.6780228"><ele>81.5</ele><time>2026-05-02T15:47:50.516Z</time></trkpt><trkpt lat="45.7187228" lon="11.6779821"><ele>81.33333333333333</ele><time>2026-05-02T15:47:52.517Z</time></trkpt><trkpt lat="45.7186436" lon="11.6779247"><ele>81.16666666666667</ele><time>2026-05-02T15:47:54.516Z</time></trkpt><trkpt lat="45.7185536" lon="11.6778996"><ele>81.0</ele><time>2026-05-02T15:47:56.517Z</time></trkpt><trkpt lat="45.7184604" lon="11.6778563"><ele>81.19999999999999</ele><time>2026-05-02T15:47:58.516Z</time></trkpt><trkpt lat="45.7183638" lon="11.6778036"><ele>81.39999999999999</ele><time>2026-05-02T15:48:00.517Z</time></trkpt><trkpt lat="45.7182661" lon="11.6777718"><ele>81.6</ele><time>2026-05-02T15:48:02.517Z</time></trkpt><trkpt lat="45.7181711" lon="11.6777546"><ele>81.8</ele><time>2026-05-02T15:48:04.518Z</time></trkpt><trkpt lat="45.718071" lon="11.6777293"><ele>82.0</ele><time>2026-05-02T15:48:06.517Z</time></trkpt><trkpt lat="45.7179706" lon="11.6776966"><ele>82.0</ele><time>2026-05-02T15:48:08.517Z</time></trkpt><trkpt lat="45.7178699" lon="11.6776813"><ele>82.0</ele><time>2026-05-02T15:48:10.516Z</time></trkpt><trkpt lat="45.7177602" lon="11.6776707"><ele>82.0</ele><time>2026-05-02T15:48:12.516Z</time></trkpt><trkpt lat="45.7176676" lon="11.6776622"><ele>82.0</ele><time>2026-05-02T15:48:14.516Z</time></trkpt><trkpt lat="45.7175756" lon="11.6776716"><ele>82.0</ele><time>2026-05-02T15:48:16.518Z</time></trkpt><trkpt lat="45.7174774" lon="11.6776869"><ele>81.8</ele><time>2026-05-02T15:48:18.518Z</time></trkpt><trkpt lat="45.7173819" lon="11.677712"><ele>81.6</ele><time>2026-05-02T15:48:20.518Z</time></trkpt><trkpt lat="45.7172935" lon="11.6777378"><ele>81.39999999999999</ele><time>2026-05-02T15:48:22.518Z</time></trkpt><trkpt lat="45.7172066" lon="11.6777543"><ele>81.19999999999999</ele><time>2026-05-02T15:48:24.518Z</time></trkpt><trkpt lat="45.7171143" lon="11.6777738"><ele>81.0</ele><time>2026-05-02T15:48:26.518Z</time></trkpt><trkpt lat="45.7170315" lon="11.6778116"><ele>80.8</ele><time>2026-05-02T15:48:28.518Z</time></trkpt><trkpt lat="45.7169417" lon="11.6778347"><ele>80.6</ele><time>2026-05-02T15:48:30.518Z</time></trkpt><trkpt lat="45.7168331" lon="11.6778599"><ele>80.4</ele><time>2026-05-02T15:48:32.517Z</time></trkpt><trkpt lat="45.716732" lon="11.677885"><ele>80.2</ele><time>2026-05-02T15:48:34.518Z</time></trkpt><trkpt lat="45.7166348" lon="11.6778967"><ele>80.0</ele><time>2026-05-02T15:48:36.518Z</time></trkpt><trkpt lat="45.7165317" lon="11.677898"><ele>80.0</ele><time>2026-05-02T15:48:38.518Z</time></trkpt><trkpt lat="45.7164196" lon="11.6779073"><ele>80.0</ele><time>2026-05-02T15:48:40.518Z</time></trkpt><trkpt lat="45.7163187" lon="11.6779144"><ele>80.0</ele><time>2026-05-02T15:48:42.517Z</time></trkpt><trkpt lat="45.7162161" lon="11.6779153"><ele>80.0</ele><time>2026-05-02T15:48:44.517Z</time></trkpt><trkpt lat="45.7161083" lon="11.6779177"><ele>80.0</ele><time>2026-05-02T15:48:46.518Z</time></trkpt><trkpt lat="45.7160009" lon="11.67792"><ele>79.6</ele><time>2026-05-02T15:48:48.517Z</time></trkpt><trkpt lat="45.7158999" lon="11.6779259"><ele>79.2</ele><time>2026-05-02T15:48:50.518Z</time></trkpt><trkpt lat="45.7158058" lon="11.6779237"><ele>78.8</ele><time>2026-05-02T15:48:52.518Z</time></trkpt><trkpt lat="45.7157113" lon="11.6779247"><ele>78.4</ele><time>2026-05-02T15:48:54.518Z</time></trkpt><trkpt lat="45.7156105" lon="11.677929"><ele>78.0</ele><time>2026-05-02T15:48:56.517Z</time></trkpt><trkpt lat="45.7155133" lon="11.6779186"><ele>78.0</ele><time>2026-05-02T15:48:58.517Z</time></trkpt><trkpt lat="45.7154127" lon="11.6779127"><ele>78.0</ele><time>2026-05-02T15:49:00.518Z</time></trkpt><trkpt lat="45.7153107" lon="11.6779066"><ele>78.0</ele><time>2026-05-02T15:49:02.517Z</time></trkpt><trkpt lat="45.7152082" lon="11.6778991"><ele>78.0</ele><time>2026-05-02T15:49:04.518Z</time></trkpt><trkpt lat="45.715103" lon="11.6778809"><ele>78.0</ele><time>2026-05-02T15:49:06.518Z</time></trkpt><trkpt lat="45.7149956" lon="11.6778526"><ele>77.6</ele><time>2026-05-02T15:49:08.518Z</time></trkpt><trkpt lat="45.7148886" lon="11.6778573"><ele>77.19999999999999</ele><time>2026-05-02T15:49:10.517Z</time></trkpt><trkpt lat="45.7147898" lon="11.6778529"><ele>76.8</ele><time>2026-05-02T15:49:12.519Z</time></trkpt><trkpt lat="45.7146867" lon="11.6778412"><ele>76.39999999999999</ele><time>2026-05-02T15:49:14.519Z</time></trkpt><trkpt lat="45.7145954" lon="11.6778411"><ele>76.0</ele><time>2026-05-02T15:49:16.519Z</time></trkpt><trkpt lat="45.7145138" lon="11.6778411"><ele>76.0</ele><time>2026-05-02T15:49:18.519Z</time></trkpt><trkpt lat="45.7144288" lon="11.6778408"><ele>76.0</ele><time>2026-05-02T15:49:20.519Z</time></trkpt><trkpt lat="45.7143445" lon="11.677843"><ele>76.0</ele><time>2026-05-02T15:49:22.519Z</time></trkpt><trkpt lat="45.7142515" lon="11.677862"><ele>76.0</ele><time>2026-05-02T15:49:24.519Z</time></trkpt><trkpt lat="45.714146" lon="11.677881"><ele>76.0</ele><time>2026-05-02T15:49:26.519Z</time></trkpt><trkpt lat="45.7140449" lon="11.6778967"><ele>76.0</ele><time>2026-05-02T15:49:28.519Z</time></trkpt><trkpt lat="45.7139406" lon="11.6779154"><ele>76.0</ele><time>2026-05-02T15:49:30.519Z</time></trkpt><trkpt lat="45.7138402" lon="11.6779307"><ele>76.0</ele><time>2026-05-02T15:49:32.519Z</time></trkpt><trkpt lat="45.7137496" lon="11.6779419"><ele>76.0</ele><time>2026-05-02T15:49:34.519Z</time></trkpt><trkpt lat="45.7136525" lon="11.6779595"><ele>76.0</ele><time>2026-05-02T15:49:36.519Z</time></trkpt><trkpt lat="45.7135626" lon="11.6779647"><ele>76.0</ele><time>2026-05-02T15:49:38.519Z</time></trkpt><trkpt lat="45.7134655" lon="11.6779609"><ele>76.0</ele><time>2026-05-02T15:49:40.518Z</time></trkpt><trkpt lat="45.7133822" lon="11.6779587"><ele>76.0</ele><time>2026-05-02T15:49:42.52Z</time></trkpt><trkpt lat="45.7132876" lon="11.6779302"><ele>76.0</ele><time>2026-05-02T15:49:44.519Z</time></trkpt><trkpt lat="45.7131987" lon="11.6779132"><ele>76.0</ele><time>2026-05-02T15:49:46.519Z</time></trkpt><trkpt lat="45.7131127" lon="11.6778971"><ele>76.0</ele><time>2026-05-02T15:49:48.519Z</time></trkpt><trkpt lat="45.7130244" lon="11.6778769"><ele>76.0</ele><time>2026-05-02T15:49:50.519Z</time></trkpt><trkpt lat="45.7129386" lon="11.6778445"><ele>76.0</ele><time>2026-05-02T15:49:52.518Z</time></trkpt><trkpt lat="45.7128536" lon="11.6778158"><ele>76.0</ele><time>2026-05-02T15:49:54.519Z</time></trkpt><trkpt lat="45.7127713" lon="11.6777622"><ele>76.0</ele><time>2026-05-02T15:49:56.519Z</time></trkpt><trkpt lat="45.712683" lon="11.6777084"><ele>76.16666666666666</ele><time>2026-05-02T15:49:58.518Z</time></trkpt><trkpt lat="45.7126011" lon="11.6776584"><ele>76.33333333333333</ele><time>2026-05-02T15:50:00.519Z</time></trkpt><trkpt lat="45.7125196" lon="11.677601"><ele>76.5</ele><time>2026-05-02T15:50:02.519Z</time></trkpt><trkpt lat="45.7124432" lon="11.6775383"><ele>76.66666666666667</ele><time>2026-05-02T15:50:04.519Z</time></trkpt><trkpt lat="45.7123791" lon="11.6774749"><ele>76.83333333333334</ele><time>2026-05-02T15:50:06.52Z</time></trkpt><trkpt lat="45.7123096" lon="11.6774081"><ele>77.0</ele><time>2026-05-02T15:50:08.52Z</time></trkpt><trkpt lat="45.7122336" lon="11.6773348"><ele>77.0</ele><time>2026-05-02T15:50:10.519Z</time></trkpt><trkpt lat="45.7121698" lon="11.6772721"><ele>77.0</ele><time>2026-05-02T15:50:12.519Z</time></trkpt><trkpt lat="45.7121009" lon="11.6772138"><ele>77.0</ele><time>2026-05-02T15:50:14.519Z</time></trkpt><trkpt lat="45.7120347" lon="11.6771477"><ele>77.0</ele><time>2026-05-02T15:50:16.52Z</time></trkpt><trkpt lat="45.7119653" lon="11.6770863"><ele>77.0</ele><time>2026-05-02T15:50:18.52Z</time></trkpt><trkpt lat="45.7118979" lon="11.6770332"><ele>77.0</ele><time>2026-05-02T15:50:20.52Z</time></trkpt><trkpt lat="45.7118336" lon="11.6769792"><ele>77.2</ele><time>2026-05-02T15:50:22.52Z</time></trkpt><trkpt lat="45.7117552" lon="11.6769043"><ele>77.4</ele><time>2026-05-02T15:50:24.52Z</time></trkpt><trkpt lat="45.711684" lon="11.6768376"><ele>77.6</ele><time>2026-05-02T15:50:26.519Z</time></trkpt><trkpt lat="45.711608" lon="11.6767638"><ele>77.8</ele><time>2026-05-02T15:50:28.52Z</time></trkpt><trkpt lat="45.7115337" lon="11.6766928"><ele>78.0</ele><time>2026-05-02T15:50:30.52Z</time></trkpt><trkpt lat="45.7114615" lon="11.676618"><ele>78.0</ele><time>2026-05-02T15:50:32.52Z</time></trkpt><trkpt lat="45.7113861" lon="11.676552"><ele>78.0</ele><time>2026-05-02T15:50:34.52Z</time></trkpt><trkpt lat="45.7113103" lon="11.6764791"><ele>78.0</ele><time>2026-05-02T15:50:36.52Z</time></trkpt><trkpt lat="45.711234" lon="11.6764004"><ele>78.0</ele><time>2026-05-02T15:50:38.52Z</time></trkpt><trkpt lat="45.7111555" lon="11.6763239"><ele>78.0</ele><time>2026-05-02T15:50:40.52Z</time></trkpt><trkpt lat="45.7110766" lon="11.6762492"><ele>78.0</ele><time>2026-05-02T15:50:42.52Z</time></trkpt><trkpt lat="45.7109946" lon="11.6761711"><ele>78.0</ele><time>2026-05-02T15:50:44.519Z</time></trkpt><trkpt lat="45.710917" lon="11.6760952"><ele>78.0</ele><time>2026-05-02T15:50:46.52Z</time></trkpt><trkpt lat="45.7108397" lon="11.6760249"><ele>78.0</ele><time>2026-05-02T15:50:48.519Z</time></trkpt><trkpt lat="45.7107623" lon="11.6759545"><ele>78.0</ele><time>2026-05-02T15:50:50.519Z</time></trkpt><trkpt lat="45.7106794" lon="11.6758875"><ele>78.0</ele><time>2026-05-02T15:50:52.519Z</time></trkpt><trkpt lat="45.7105956" lon="11.6758284"><ele>78.0</ele><time>2026-05-02T15:50:54.52Z</time></trkpt><trkpt lat="45.7105198" lon="11.6757636"><ele>78.0</ele><time>2026-05-02T15:50:56.52Z</time></trkpt><trkpt lat="45.7104548" lon="11.6758192"><ele>78.0</ele><time>2026-05-02T15:50:59.544Z</time></trkpt><trkpt lat="45.7103652" lon="11.6756843"><ele>78.0</ele><time>2026-05-02T15:51:00.521Z</time></trkpt><trkpt lat="45.7103159" lon="11.6756236"><ele>78.0</ele><time>2026-05-02T15:51:01.52Z</time></trkpt><trkpt lat="45.7102358" lon="11.6755323"><ele>78.0</ele><time>2026-05-02T15:51:03.52Z</time></trkpt><trkpt lat="45.7101577" lon="11.6754548"><ele>78.0</ele><time>2026-05-02T15:51:05.52Z</time></trkpt><trkpt lat="45.7100785" lon="11.6753906"><ele>78.0</ele><time>2026-05-02T15:51:07.52Z</time></trkpt><trkpt lat="45.7100024" lon="11.6753163"><ele>78.0</ele><time>2026-05-02T15:51:09.52Z</time></trkpt><trkpt lat="45.7099221" lon="11.6752425"><ele>78.2</ele><time>2026-05-02T15:51:11.52Z</time></trkpt><trkpt lat="45.7098414" lon="11.6751709"><ele>78.4</ele><time>2026-05-02T15:51:13.519Z</time></trkpt><trkpt lat="45.7097601" lon="11.6750919"><ele>78.60000000000001</ele><time>2026-05-02T15:51:15.519Z</time></trkpt><trkpt lat="45.7096861" lon="11.6750148"><ele>78.8</ele><time>2026-05-02T15:51:17.521Z</time></trkpt><trkpt lat="45.7096044" lon="11.6749379"><ele>79.0</ele><time>2026-05-02T15:51:19.521Z</time></trkpt><trkpt lat="45.7095275" lon="11.6748688"><ele>79.0</ele><time>2026-05-02T15:51:21.521Z</time></trkpt><trkpt lat="45.7094482" lon="11.6747976"><ele>79.0</ele><time>2026-05-02T15:51:23.521Z</time></trkpt><trkpt lat="45.709374" lon="11.674734"><ele>79.0</ele><time>2026-05-02T15:51:25.521Z</time></trkpt><trkpt lat="45.7093075" lon="11.6746812"><ele>79.0</ele><time>2026-05-02T15:51:27.544Z</time></trkpt><trkpt lat="45.7092274" lon="11.6746232"><ele>79.0</ele><time>2026-05-02T15:51:29.557Z</time></trkpt><trkpt lat="45.7091356" lon="11.6745528"><ele>78.8</ele><time>2026-05-02T15:51:31.521Z</time></trkpt><trkpt lat="45.7090429" lon="11.6745096"><ele>78.60000000000001</ele><time>2026-05-02T15:51:33.521Z</time></trkpt><trkpt lat="45.7089545" lon="11.6744835"><ele>78.4</ele><time>2026-05-02T15:51:35.521Z</time></trkpt><trkpt lat="45.7088687" lon="11.6744676"><ele>78.2</ele><time>2026-05-02T15:51:37.521Z</time></trkpt><trkpt lat="45.7087813" lon="11.6744601"><ele>78.0</ele><time>2026-05-02T15:51:39.521Z</time></trkpt><trkpt lat="45.7086924" lon="11.6744429"><ele>77.83333333333333</ele><time>2026-05-02T15:51:41.521Z</time></trkpt><trkpt lat="45.7086061" lon="11.6744313"><ele>77.66666666666667</ele><time>2026-05-02T15:51:43.52Z</time></trkpt><trkpt lat="45.7085279" lon="11.674426"><ele>77.5</ele><time>2026-05-02T15:51:45.521Z</time></trkpt><trkpt lat="45.7084557" lon="11.6743984"><ele>77.33333333333334</ele><time>2026-05-02T15:51:47.52Z</time></trkpt><trkpt lat="45.7083799" lon="11.6743889"><ele>77.16666666666667</ele><time>2026-05-02T15:51:49.521Z</time></trkpt><trkpt lat="45.7082975" lon="11.6744089"><ele>77.0</ele><time>2026-05-02T15:51:51.521Z</time></trkpt><trkpt lat="45.7082125" lon="11.6744433"><ele>77.0</ele><time>2026-05-02T15:51:53.52Z</time></trkpt><trkpt lat="45.7081216" lon="11.6744485"><ele>77.0</ele><time>2026-05-02T15:51:55.521Z</time></trkpt><trkpt lat="45.708033" lon="11.6744549"><ele>77.0</ele><time>2026-05-02T15:51:57.52Z</time></trkpt><trkpt lat="45.7079434" lon="11.6744848"><ele>77.0</ele><time>2026-05-02T15:51:59.52Z</time></trkpt><trkpt lat="45.707857" lon="11.6744872"><ele>77.0</ele><time>2026-05-02T15:52:01.521Z</time></trkpt><trkpt lat="45.70777" lon="11.6744686"><ele>77.0</ele><time>2026-05-02T15:52:03.521Z</time></trkpt><trkpt lat="45.7076696" lon="11.6744558"><ele>77.0</ele><time>2026-05-02T15:52:05.52Z</time></trkpt><trkpt lat="45.7075739" lon="11.6744483"><ele>77.0</ele><time>2026-05-02T15:52:07.521Z</time></trkpt><trkpt lat="45.7074881" lon="11.6744475"><ele>77.0</ele><time>2026-05-02T15:52:09.52Z</time></trkpt><trkpt lat="45.7074029" lon="11.6744425"><ele>77.0</ele><time>2026-05-02T15:52:11.52Z</time></trkpt><trkpt lat="45.7073186" lon="11.6744544"><ele>77.0</ele><time>2026-05-02T15:52:13.521Z</time></trkpt><trkpt lat="45.7072164" lon="11.6744558"><ele>77.0</ele><time>2026-05-02T15:52:15.522Z</time></trkpt><trkpt lat="45.707129" lon="11.6744407"><ele>77.0</ele><time>2026-05-02T15:52:17.522Z</time></trkpt><trkpt lat="45.7070537" lon="11.6744405"><ele>77.0</ele><time>2026-05-02T15:52:19.521Z</time></trkpt><trkpt lat="45.7069681" lon="11.6744313"><ele>77.0</ele><time>2026-05-02T15:52:21.522Z</time></trkpt><trkpt lat="45.7068907" lon="11.6744289"><ele>77.0</ele><time>2026-05-02T15:52:23.522Z</time></trkpt><trkpt lat="45.7068196" lon="11.67443"><ele>77.0</ele><time>2026-05-02T15:52:25.522Z</time></trkpt><trkpt lat="45.7067287" lon="11.674426"><ele>76.83333333333334</ele><time>2026-05-02T15:52:28.522Z</time></trkpt><trkpt lat="45.706637" lon="11.674423"><ele>76.66666666666667</ele><time>2026-05-02T15:52:31.522Z</time></trkpt><trkpt lat="45.7065569" lon="11.674414"><ele>76.5</ele><time>2026-05-02T15:52:34.521Z</time></trkpt><trkpt lat="45.7064936" lon="11.674411"><ele>76.33333333333333</ele><time>2026-05-02T15:52:36.522Z</time></trkpt><trkpt lat="45.7064102" lon="11.6744256"><ele>76.16666666666666</ele><time>2026-05-02T15:52:39.522Z</time></trkpt><trkpt lat="45.7063723" lon="11.6745091"><ele>76.0</ele><time>2026-05-02T15:52:41.521Z</time></trkpt><trkpt lat="45.7063056" lon="11.6744959"><ele>76.0</ele><time>2026-05-02T15:52:43.522Z</time></trkpt><trkpt lat="45.7062317" lon="11.6744452"><ele>76.0</ele><time>2026-05-02T15:52:45.522Z</time></trkpt><trkpt lat="45.7061392" lon="11.6744004"><ele>76.0</ele><time>2026-05-02T15:52:47.522Z</time></trkpt><trkpt lat="45.7060552" lon="11.6743367"><ele>76.0</ele><time>2026-05-02T15:52:49.521Z</time></trkpt><trkpt lat="45.7059862" lon="11.6742837"><ele>76.0</ele><time>2026-05-02T15:52:51.522Z</time></trkpt><trkpt lat="45.7059159" lon="11.6742373"><ele>76.0</ele><time>2026-05-02T15:52:53.521Z</time></trkpt><trkpt lat="45.7058481" lon="11.6741859"><ele>75.85714285714285</ele><time>2026-05-02T15:52:55.521Z</time></trkpt><trkpt lat="45.7057826" lon="11.6741438"><ele>75.71428571428572</ele><time>2026-05-02T15:52:57.522Z</time></trkpt><trkpt lat="45.7057165" lon="11.6740946"><ele>75.57142857142857</ele><time>2026-05-02T15:52:59.522Z</time></trkpt><trkpt lat="45.7056591" lon="11.6740456"><ele>75.42857142857142</ele><time>2026-05-02T15:53:01.522Z</time></trkpt><trkpt lat="45.7055972" lon="11.6740123"><ele>75.28571428571428</ele><time>2026-05-02T15:53:03.523Z</time></trkpt><trkpt lat="45.7055166" lon="11.6739525"><ele>75.14285714285714</ele><time>2026-05-02T15:53:06.522Z</time></trkpt><trkpt lat="45.7054564" lon="11.6738951"><ele>75.0</ele><time>2026-05-02T15:53:08.521Z</time></trkpt><trkpt lat="45.7053707" lon="11.6738148"><ele>75.0</ele><time>2026-05-02T15:53:10.522Z</time></trkpt><trkpt lat="45.7052728" lon="11.6737483"><ele>75.0</ele><time>2026-05-02T15:53:12.522Z</time></trkpt><trkpt lat="45.7051794" lon="11.6736959"><ele>75.0</ele><time>2026-05-02T15:53:14.522Z</time></trkpt><trkpt lat="45.705097" lon="11.6736319"><ele>75.0</ele><time>2026-05-02T15:53:16.523Z</time></trkpt><trkpt lat="45.7050194" lon="11.6735697"><ele>75.0</ele><time>2026-05-02T15:53:18.523Z</time></trkpt><trkpt lat="45.7049483" lon="11.6735128"><ele>75.16666666666667</ele><time>2026-05-02T15:53:20.523Z</time></trkpt><trkpt lat="45.7048789" lon="11.6734552"><ele>75.33333333333333</ele><time>2026-05-02T15:53:22.523Z</time></trkpt><trkpt lat="45.7048085" lon="11.6734084"><ele>75.5</ele><time>2026-05-02T15:53:24.522Z</time></trkpt><trkpt lat="45.7047441" lon="11.6733607"><ele>75.66666666666666</ele><time>2026-05-02T15:53:26.522Z</time></trkpt><trkpt lat="45.7046828" lon="11.6733127"><ele>75.83333333333333</ele><time>2026-05-02T15:53:28.522Z</time></trkpt><trkpt lat="45.7046143" lon="11.6732628"><ele>76.0</ele><time>2026-05-02T15:53:30.522Z</time></trkpt><trkpt lat="45.7045267" lon="11.6732033"><ele>76.0</ele><time>2026-05-02T15:53:32.522Z</time></trkpt><trkpt lat="45.7044383" lon="11.6731528"><ele>76.0</ele><time>2026-05-02T15:53:34.522Z</time></trkpt><trkpt lat="45.7043625" lon="11.6731175"><ele>76.0</ele><time>2026-05-02T15:53:36.522Z</time></trkpt><trkpt lat="45.7042874" lon="11.6730833"><ele>76.0</ele><time>2026-05-02T15:53:38.523Z</time></trkpt><trkpt lat="45.7042107" lon="11.6730459"><ele>76.0</ele><time>2026-05-02T15:53:40.523Z</time></trkpt><trkpt lat="45.7041424" lon="11.6730156"><ele>76.0</ele><time>2026-05-02T15:53:42.522Z</time></trkpt><trkpt lat="45.7040785" lon="11.672998"><ele>75.83333333333333</ele><time>2026-05-02T15:53:44.523Z</time></trkpt><trkpt lat="45.7040123" lon="11.6729812"><ele>75.66666666666666</ele><time>2026-05-02T15:53:46.523Z</time></trkpt><trkpt lat="45.7039495" lon="11.6729615"><ele>75.5</ele><time>2026-05-02T15:53:48.522Z</time></trkpt><trkpt lat="45.7038673" lon="11.6729226"><ele>75.33333333333333</ele><time>2026-05-02T15:53:51.523Z</time></trkpt><trkpt lat="45.7037852" lon="11.6729075"><ele>75.16666666666667</ele><time>2026-05-02T15:53:54.522Z</time></trkpt><trkpt lat="45.7036955" lon="11.6728751"><ele>75.0</ele><time>2026-05-02T15:53:57.523Z</time></trkpt><trkpt lat="45.7036416" lon="11.6728006"><ele>75.0</ele><time>2026-05-02T15:54:05.522Z</time></trkpt><trkpt lat="45.703636" lon="11.67269"><ele>75.0</ele><time>2026-05-02T15:54:09.523Z</time></trkpt><trkpt lat="45.7035615" lon="11.6726133"><ele>75.0</ele><time>2026-05-02T15:54:12.523Z</time></trkpt><trkpt lat="45.703486" lon="11.6726048"><ele>75.0</ele><time>2026-05-02T15:54:14.523Z</time></trkpt><trkpt lat="45.7034059" lon="11.6725848"><ele>75.0</ele><time>2026-05-02T15:54:16.523Z</time></trkpt><trkpt lat="45.7033232" lon="11.6725594"><ele>75.0</ele><time>2026-05-02T15:54:18.523Z</time></trkpt><trkpt lat="45.7032386" lon="11.6725315"><ele>75.0</ele><time>2026-05-02T15:54:20.523Z</time></trkpt><trkpt lat="45.7031576" lon="11.6725083"><ele>75.0</ele><time>2026-05-02T15:54:22.524Z</time></trkpt><trkpt lat="45.7030739" lon="11.6724823"><ele>75.0</ele><time>2026-05-02T15:54:24.524Z</time></trkpt><trkpt lat="45.7029874" lon="11.6724588"><ele>75.0</ele><time>2026-05-02T15:54:26.524Z</time></trkpt><trkpt lat="45.7029005" lon="11.6724262"><ele>75.0</ele><time>2026-05-02T15:54:28.524Z</time></trkpt><trkpt lat="45.7028146" lon="11.6723916"><ele>75.0</ele><time>2026-05-02T15:54:30.523Z</time></trkpt><trkpt lat="45.7027285" lon="11.6723557"><ele>74.8</ele><time>2026-05-02T15:54:32.524Z</time></trkpt><trkpt lat="45.702644" lon="11.6723226"><ele>74.6</ele><time>2026-05-02T15:54:34.524Z</time></trkpt><trkpt lat="45.7025602" lon="11.6722823"><ele>74.4</ele><time>2026-05-02T15:54:36.523Z</time></trkpt><trkpt lat="45.7024739" lon="11.6722366"><ele>74.2</ele><time>2026-05-02T15:54:38.523Z</time></trkpt><trkpt lat="45.7023891" lon="11.6721882"><ele>74.0</ele><time>2026-05-02T15:54:40.524Z</time></trkpt><trkpt lat="45.7023036" lon="11.6721358"><ele>74.0</ele><time>2026-05-02T15:54:42.523Z</time></trkpt><trkpt lat="45.702216" lon="11.6720819"><ele>74.0</ele><time>2026-05-02T15:54:44.524Z</time></trkpt><trkpt lat="45.7021298" lon="11.6720296"><ele>74.0</ele><time>2026-05-02T15:54:46.524Z</time></trkpt><trkpt lat="45.7020498" lon="11.6719813"><ele>74.0</ele><time>2026-05-02T15:54:48.524Z</time></trkpt><trkpt lat="45.7019678" lon="11.6719323"><ele>74.0</ele><time>2026-05-02T15:54:50.523Z</time></trkpt><trkpt lat="45.7018827" lon="11.6718847"><ele>73.8</ele><time>2026-05-02T15:54:52.524Z</time></trkpt><trkpt lat="45.7017978" lon="11.6718375"><ele>73.60000000000001</ele><time>2026-05-02T15:54:54.524Z</time></trkpt><trkpt lat="45.7017132" lon="11.671795"><ele>73.4</ele><time>2026-05-02T15:54:56.524Z</time></trkpt><trkpt lat="45.7016233" lon="11.6717614"><ele>73.2</ele><time>2026-05-02T15:54:58.524Z</time></trkpt><trkpt lat="45.7015372" lon="11.6717178"><ele>73.0</ele><time>2026-05-02T15:55:00.524Z</time></trkpt><trkpt lat="45.701451" lon="11.671682"><ele>73.0</ele><time>2026-05-02T15:55:02.524Z</time></trkpt><trkpt lat="45.7013584" lon="11.6716535"><ele>73.0</ele><time>2026-05-02T15:55:04.524Z</time></trkpt><trkpt lat="45.7012663" lon="11.6716301"><ele>73.0</ele><time>2026-05-02T15:55:06.524Z</time></trkpt><trkpt lat="45.7011783" lon="11.6716072"><ele>73.0</ele><time>2026-05-02T15:55:08.524Z</time></trkpt><trkpt lat="45.701093" lon="11.6715793"><ele>73.0</ele><time>2026-05-02T15:55:10.524Z</time></trkpt><trkpt lat="45.7010015" lon="11.6715458"><ele>73.2</ele><time>2026-05-02T15:55:12.525Z</time></trkpt><trkpt lat="45.7009078" lon="11.6715127"><ele>73.4</ele><time>2026-05-02T15:55:14.524Z</time></trkpt><trkpt lat="45.700814" lon="11.6714816"><ele>73.60000000000001</ele><time>2026-05-02T15:55:16.524Z</time></trkpt><trkpt lat="45.7007201" lon="11.6714519"><ele>73.8</ele><time>2026-05-02T15:55:18.523Z</time></trkpt><trkpt lat="45.7006319" lon="11.6714316"><ele>74.0</ele><time>2026-05-02T15:55:20.523Z</time></trkpt><trkpt lat="45.700542" lon="11.671402"><ele>74.0</ele><time>2026-05-02T15:55:22.525Z</time></trkpt><trkpt lat="45.7004506" lon="11.6713682"><ele>74.0</ele><time>2026-05-02T15:55:24.524Z</time></trkpt><trkpt lat="45.700359" lon="11.6713387"><ele>74.0</ele><time>2026-05-02T15:55:26.524Z</time></trkpt><trkpt lat="45.7002658" lon="11.6713087"><ele>74.0</ele><time>2026-05-02T15:55:28.525Z</time></trkpt><trkpt lat="45.700173" lon="11.6712791"><ele>74.0</ele><time>2026-05-02T15:55:30.524Z</time></trkpt><trkpt lat="45.7000824" lon="11.6712494"><ele>74.0</ele><time>2026-05-02T15:55:32.525Z</time></trkpt><trkpt lat="45.6999915" lon="11.6712173"><ele>74.0</ele><time>2026-05-02T15:55:34.524Z</time></trkpt><trkpt lat="45.6998983" lon="11.6711874"><ele>74.0</ele><time>2026-05-02T15:55:36.525Z</time></trkpt><trkpt lat="45.6998049" lon="11.6711623"><ele>74.0</ele><time>2026-05-02T15:55:38.525Z</time></trkpt><trkpt lat="45.6997106" lon="11.6711345"><ele>74.0</ele><time>2026-05-02T15:55:40.525Z</time></trkpt><trkpt lat="45.6996203" lon="11.6711018"><ele>74.0</ele><time>2026-05-02T15:55:42.525Z</time></trkpt><trkpt lat="45.6995314" lon="11.6710727"><ele>74.0</ele><time>2026-05-02T15:55:44.525Z</time></trkpt><trkpt lat="45.6994413" lon="11.6710386"><ele>74.0</ele><time>2026-05-02T15:55:46.524Z</time></trkpt><trkpt lat="45.6993498" lon="11.6710096"><ele>74.0</ele><time>2026-05-02T15:55:48.525Z</time></trkpt><trkpt lat="45.6992628" lon="11.6709825"><ele>74.0</ele><time>2026-05-02T15:55:50.524Z</time></trkpt><trkpt lat="45.6991739" lon="11.6709539"><ele>73.8</ele><time>2026-05-02T15:55:52.525Z</time></trkpt><trkpt lat="45.6990877" lon="11.6709203"><ele>73.60000000000001</ele><time>2026-05-02T15:55:54.525Z</time></trkpt><trkpt lat="45.6990065" lon="11.6708898"><ele>73.4</ele><time>2026-05-02T15:55:56.525Z</time></trkpt><trkpt lat="45.698907" lon="11.6708616"><ele>73.2</ele><time>2026-05-02T15:55:58.525Z</time></trkpt><trkpt lat="45.6988201" lon="11.6708338"><ele>73.0</ele><time>2026-05-02T15:56:00.525Z</time></trkpt><trkpt lat="45.6987337" lon="11.6708016"><ele>73.0</ele><time>2026-05-02T15:56:02.525Z</time></trkpt><trkpt lat="45.698644" lon="11.6707721"><ele>73.0</ele><time>2026-05-02T15:56:04.524Z</time></trkpt><trkpt lat="45.6985544" lon="11.6707469"><ele>73.0</ele><time>2026-05-02T15:56:06.525Z</time></trkpt><trkpt lat="45.6984618" lon="11.6707253"><ele>73.0</ele><time>2026-05-02T15:56:08.525Z</time></trkpt><trkpt lat="45.6983702" lon="11.6706916"><ele>73.0</ele><time>2026-05-02T15:56:10.525Z</time></trkpt><trkpt lat="45.6982798" lon="11.6706656"><ele>73.0</ele><time>2026-05-02T15:56:12.525Z</time></trkpt><trkpt lat="45.6981875" lon="11.6706397"><ele>73.0</ele><time>2026-05-02T15:56:14.525Z</time></trkpt><trkpt lat="45.6980993" lon="11.6706122"><ele>73.0</ele><time>2026-05-02T15:56:16.524Z</time></trkpt><trkpt lat="45.6980144" lon="11.6705827"><ele>73.0</ele><time>2026-05-02T15:56:18.525Z</time></trkpt><trkpt lat="45.697932" lon="11.6705457"><ele>73.0</ele><time>2026-05-02T15:56:20.525Z</time></trkpt><trkpt lat="45.6978449" lon="11.6705179"><ele>73.0</ele><time>2026-05-02T15:56:22.525Z</time></trkpt><trkpt lat="45.6977594" lon="11.6705131"><ele>73.2</ele><time>2026-05-02T15:56:25.559Z</time></trkpt><trkpt lat="45.6976499" lon="11.6704824"><ele>73.4</ele><time>2026-05-02T15:56:27.605Z</time></trkpt><trkpt lat="45.6975645" lon="11.6704196"><ele>73.60000000000001</ele><time>2026-05-02T15:56:29.619Z</time></trkpt><trkpt lat="45.6974748" lon="11.6703961"><ele>73.8</ele><time>2026-05-02T15:56:31.525Z</time></trkpt><trkpt lat="45.69738" lon="11.6703597"><ele>74.0</ele><time>2026-05-02T15:56:33.526Z</time></trkpt><trkpt lat="45.6972864" lon="11.6703341"><ele>74.0</ele><time>2026-05-02T15:56:35.526Z</time></trkpt><trkpt lat="45.6971993" lon="11.6703068"><ele>74.0</ele><time>2026-05-02T15:56:37.525Z</time></trkpt><trkpt lat="45.6971167" lon="11.6702773"><ele>74.0</ele><time>2026-05-02T15:56:39.526Z</time></trkpt><trkpt lat="45.6970354" lon="11.6702502"><ele>74.0</ele><time>2026-05-02T15:56:41.526Z</time></trkpt><trkpt lat="45.6969604" lon="11.6702198"><ele>74.0</ele><time>2026-05-02T15:56:43.526Z</time></trkpt><trkpt lat="45.696891" lon="11.6701782"><ele>74.0</ele><time>2026-05-02T15:56:45.525Z</time></trkpt><trkpt lat="45.6968669" lon="11.6700884"><ele>73.8</ele><time>2026-05-02T15:56:47.526Z</time></trkpt><trkpt lat="45.6968901" lon="11.669965"><ele>73.60000000000001</ele><time>2026-05-02T15:56:49.526Z</time></trkpt><trkpt lat="45.6969388" lon="11.6698119"><ele>73.4</ele><time>2026-05-02T15:56:51.526Z</time></trkpt><trkpt lat="45.696972" lon="11.6696534"><ele>73.2</ele><time>2026-05-02T15:56:53.526Z</time></trkpt><trkpt lat="45.6970099" lon="11.6695455"><ele>73.0</ele><time>2026-05-02T15:56:55.526Z</time></trkpt><trkpt lat="45.6970491" lon="11.6694314"><ele>72.66666666666666</ele><time>2026-05-02T15:56:57.526Z</time></trkpt><trkpt lat="45.6970763" lon="11.6693207"><ele>72.33333333333333</ele><time>2026-05-02T15:56:59.526Z</time></trkpt><trkpt lat="45.6971083" lon="11.6692122"><ele>72.0</ele><time>2026-05-02T15:57:01.525Z</time></trkpt><trkpt lat="45.6971308" lon="11.6691157"><ele>71.66666666666667</ele><time>2026-05-02T15:57:03.526Z</time></trkpt><trkpt lat="45.6971606" lon="11.6689975"><ele>71.33333333333334</ele><time>2026-05-02T15:57:05.525Z</time></trkpt><trkpt lat="45.6971971" lon="11.6688692"><ele>71.0</ele><time>2026-05-02T15:57:07.527Z</time></trkpt><trkpt lat="45.6972368" lon="11.6687511"><ele>71.0</ele><time>2026-05-02T15:57:09.526Z</time></trkpt><trkpt lat="45.697278" lon="11.6686223"><ele>71.0</ele><time>2026-05-02T15:57:11.527Z</time></trkpt><trkpt lat="45.6973179" lon="11.668507"><ele>71.0</ele><time>2026-05-02T15:57:13.527Z</time></trkpt><trkpt lat="45.6973487" lon="11.6684003"><ele>71.0</ele><time>2026-05-02T15:57:15.526Z</time></trkpt><trkpt lat="45.697385" lon="11.668298"><ele>71.0</ele><time>2026-05-02T15:57:17.525Z</time></trkpt><trkpt lat="45.6974204" lon="11.6681972"><ele>71.0</ele><time>2026-05-02T15:57:19.527Z</time></trkpt><trkpt lat="45.6974519" lon="11.6680967"><ele>71.16666666666667</ele><time>2026-05-02T15:57:21.527Z</time></trkpt><trkpt lat="45.6974779" lon="11.6680068"><ele>71.33333333333334</ele><time>2026-05-02T15:57:23.527Z</time></trkpt><trkpt lat="45.6975162" lon="11.6678811"><ele>71.5</ele><time>2026-05-02T15:57:25.527Z</time></trkpt><trkpt lat="45.6975573" lon="11.6677423"><ele>71.66666666666667</ele><time>2026-05-02T15:57:27.527Z</time></trkpt><trkpt lat="45.6975914" lon="11.6676289"><ele>71.83333333333333</ele><time>2026-05-02T15:57:29.526Z</time></trkpt><trkpt lat="45.6976344" lon="11.6675314"><ele>72.0</ele><time>2026-05-02T15:57:31.527Z</time></trkpt><trkpt lat="45.6976669" lon="11.6674352"><ele>72.0</ele><time>2026-05-02T15:57:33.526Z</time></trkpt><trkpt lat="45.6976961" lon="11.6673342"><ele>72.0</ele><time>2026-05-02T15:57:35.526Z</time></trkpt><trkpt lat="45.6977343" lon="11.667197"><ele>72.0</ele><time>2026-05-02T15:57:37.527Z</time></trkpt><trkpt lat="45.6977706" lon="11.6670794"><ele>72.0</ele><time>2026-05-02T15:57:39.527Z</time></trkpt><trkpt lat="45.6978066" lon="11.666962"><ele>72.0</ele><time>2026-05-02T15:57:41.527Z</time></trkpt><trkpt lat="45.6978441" lon="11.6668658"><ele>72.0</ele><time>2026-05-02T15:57:43.526Z</time></trkpt><trkpt lat="45.6978699" lon="11.6667783"><ele>72.16666666666667</ele><time>2026-05-02T15:57:45.527Z</time></trkpt><trkpt lat="45.6978999" lon="11.6666914"><ele>72.33333333333333</ele><time>2026-05-02T15:57:47.526Z</time></trkpt><trkpt lat="45.6979384" lon="11.6665767"><ele>72.5</ele><time>2026-05-02T15:57:50.527Z</time></trkpt><trkpt lat="45.697987" lon="11.6664632"><ele>72.66666666666666</ele><time>2026-05-02T15:57:53.528Z</time></trkpt><trkpt lat="45.6980275" lon="11.6663602"><ele>72.83333333333333</ele><time>2026-05-02T15:57:55.527Z</time></trkpt><trkpt lat="45.6980739" lon="11.6662538"><ele>73.0</ele><time>2026-05-02T15:57:57.526Z</time></trkpt><trkpt lat="45.6981129" lon="11.6661529"><ele>73.0</ele><time>2026-05-02T15:57:59.527Z</time></trkpt><trkpt lat="45.6981508" lon="11.6660484"><ele>73.0</ele><time>2026-05-02T15:58:01.527Z</time></trkpt><trkpt lat="45.6981973" lon="11.665959"><ele>73.0</ele><time>2026-05-02T15:58:03.527Z</time></trkpt><trkpt lat="45.698239" lon="11.6658738"><ele>73.0</ele><time>2026-05-02T15:58:05.527Z</time></trkpt><trkpt lat="45.6982819" lon="11.6657897"><ele>73.0</ele><time>2026-05-02T15:58:07.527Z</time></trkpt><trkpt lat="45.6983295" lon="11.6656942"><ele>73.0</ele><time>2026-05-02T15:58:09.527Z</time></trkpt><trkpt lat="45.6983814" lon="11.6655772"><ele>73.0</ele><time>2026-05-02T15:58:11.526Z</time></trkpt><trkpt lat="45.6984368" lon="11.6654571"><ele>73.0</ele><time>2026-05-02T15:58:13.526Z</time></trkpt><trkpt lat="45.6984809" lon="11.6653525"><ele>73.0</ele><time>2026-05-02T15:58:15.526Z</time></trkpt><trkpt lat="45.6985277" lon="11.6652605"><ele>73.0</ele><time>2026-05-02T15:58:17.526Z</time></trkpt><trkpt lat="45.69856" lon="11.6651653"><ele>73.0</ele><time>2026-05-02T15:58:19.527Z</time></trkpt><trkpt lat="45.6986097" lon="11.6650531"><ele>73.0</ele><time>2026-05-02T15:58:22.527Z</time></trkpt><trkpt lat="45.6986406" lon="11.6649513"><ele>72.66666666666666</ele><time>2026-05-02T15:58:24.527Z</time></trkpt><trkpt lat="45.6986701" lon="11.6648342"><ele>72.33333333333333</ele><time>2026-05-02T15:58:26.527Z</time></trkpt><trkpt lat="45.6986964" lon="11.6647073"><ele>72.0</ele><time>2026-05-02T15:58:28.528Z</time></trkpt><trkpt lat="45.6987117" lon="11.6645977"><ele>71.66666666666667</ele><time>2026-05-02T15:58:30.527Z</time></trkpt><trkpt lat="45.6987236" lon="11.6645069"><ele>71.33333333333334</ele><time>2026-05-02T15:58:32.528Z</time></trkpt><trkpt lat="45.6987414" lon="11.664363"><ele>71.0</ele><time>2026-05-02T15:58:35.527Z</time></trkpt><trkpt lat="45.6987566" lon="11.6642313"><ele>70.83333333333334</ele><time>2026-05-02T15:58:37.528Z</time></trkpt><trkpt lat="45.6987783" lon="11.6641088"><ele>70.66666666666667</ele><time>2026-05-02T15:58:39.527Z</time></trkpt><trkpt lat="45.6987901" lon="11.6640082"><ele>70.5</ele><time>2026-05-02T15:58:41.528Z</time></trkpt><trkpt lat="45.6988096" lon="11.6639098"><ele>70.33333333333333</ele><time>2026-05-02T15:58:43.528Z</time></trkpt><trkpt lat="45.6988237" lon="11.6637882"><ele>70.16666666666666</ele><time>2026-05-02T15:58:45.528Z</time></trkpt><trkpt lat="45.698843" lon="11.6636652"><ele>70.0</ele><time>2026-05-02T15:58:47.527Z</time></trkpt><trkpt lat="45.6988604" lon="11.6635541"><ele>70.0</ele><time>2026-05-02T15:58:49.528Z</time></trkpt><trkpt lat="45.6988716" lon="11.6634421"><ele>70.0</ele><time>2026-05-02T15:58:51.528Z</time></trkpt><trkpt lat="45.6988856" lon="11.6633147"><ele>70.0</ele><time>2026-05-02T15:58:53.528Z</time></trkpt><trkpt lat="45.6988902" lon="11.6631904"><ele>70.0</ele><time>2026-05-02T15:58:55.528Z</time></trkpt><trkpt lat="45.6988848" lon="11.6630668"><ele>70.0</ele><time>2026-05-02T15:58:57.527Z</time></trkpt><trkpt lat="45.6988744" lon="11.6629534"><ele>70.0</ele><time>2026-05-02T15:58:59.528Z</time></trkpt><trkpt lat="45.6988651" lon="11.662843"><ele>70.33333333333333</ele><time>2026-05-02T15:59:01.528Z</time></trkpt><trkpt lat="45.6988582" lon="11.6627167"><ele>70.66666666666666</ele><time>2026-05-02T15:59:03.528Z</time></trkpt><trkpt lat="45.6988518" lon="11.6625941"><ele>71.0</ele><time>2026-05-02T15:59:05.527Z</time></trkpt><trkpt lat="45.698846" lon="11.6624788"><ele>71.33333333333333</ele><time>2026-05-02T15:59:07.527Z</time></trkpt><trkpt lat="45.6988343" lon="11.6623578"><ele>71.66666666666667</ele><time>2026-05-02T15:59:09.527Z</time></trkpt><trkpt lat="45.6988223" lon="11.6622368"><ele>72.0</ele><time>2026-05-02T15:59:11.528Z</time></trkpt><trkpt lat="45.6988142" lon="11.6621146"><ele>72.0</ele><time>2026-05-02T15:59:13.528Z</time></trkpt><trkpt lat="45.6988053" lon="11.6619847"><ele>72.0</ele><time>2026-05-02T15:59:15.528Z</time></trkpt><trkpt lat="45.6988046" lon="11.6618602"><ele>72.0</ele><time>2026-05-02T15:59:17.528Z</time></trkpt><trkpt lat="45.6987949" lon="11.6617307"><ele>72.0</ele><time>2026-05-02T15:59:19.528Z</time></trkpt><trkpt lat="45.698789" lon="11.6616018"><ele>72.0</ele><time>2026-05-02T15:59:21.528Z</time></trkpt><trkpt lat="45.698779" lon="11.6614778"><ele>72.0</ele><time>2026-05-02T15:59:23.527Z</time></trkpt><trkpt lat="45.6987755" lon="11.6613487"><ele>72.0</ele><time>2026-05-02T15:59:25.528Z</time></trkpt><trkpt lat="45.698773" lon="11.6612196"><ele>72.0</ele><time>2026-05-02T15:59:27.528Z</time></trkpt><trkpt lat="45.6987636" lon="11.6610946"><ele>72.0</ele><time>2026-05-02T15:59:29.528Z</time></trkpt><trkpt lat="45.6987598" lon="11.6609633"><ele>72.0</ele><time>2026-05-02T15:59:31.528Z</time></trkpt><trkpt lat="45.6987501" lon="11.6608409"><ele>72.0</ele><time>2026-05-02T15:59:33.528Z</time></trkpt><trkpt lat="45.6987366" lon="11.6607156"><ele>72.0</ele><time>2026-05-02T15:59:35.529Z</time></trkpt><trkpt lat="45.6987353" lon="11.6605939"><ele>72.0</ele><time>2026-05-02T15:59:37.528Z</time></trkpt><trkpt lat="45.6987294" lon="11.6604713"><ele>72.0</ele><time>2026-05-02T15:59:39.528Z</time></trkpt><trkpt lat="45.698722" lon="11.6603544"><ele>72.0</ele><time>2026-05-02T15:59:41.529Z</time></trkpt><trkpt lat="45.6987201" lon="11.6602342"><ele>72.0</ele><time>2026-05-02T15:59:43.528Z</time></trkpt><trkpt lat="45.6987117" lon="11.6601045"><ele>72.0</ele><time>2026-05-02T15:59:45.529Z</time></trkpt><trkpt lat="45.6986956" lon="11.6599954"><ele>72.0</ele><time>2026-05-02T15:59:47.529Z</time></trkpt><trkpt lat="45.6987017" lon="11.6598932"><ele>72.0</ele><time>2026-05-02T15:59:49.529Z</time></trkpt><trkpt lat="45.6986929" lon="11.6597992"><ele>72.0</ele><time>2026-05-02T15:59:51.529Z</time></trkpt><trkpt lat="45.6986822" lon="11.6596797"><ele>72.0</ele><time>2026-05-02T15:59:53.529Z</time></trkpt><trkpt lat="45.6986837" lon="11.6595672"><ele>72.0</ele><time>2026-05-02T15:59:55.529Z</time></trkpt><trkpt lat="45.69868" lon="11.6594407"><ele>72.0</ele><time>2026-05-02T15:59:57.529Z</time></trkpt><trkpt lat="45.6986692" lon="11.6593058"><ele>72.0</ele><time>2026-05-02T15:59:59.528Z</time></trkpt><trkpt lat="45.6986579" lon="11.6591655"><ele>72.0</ele><time>2026-05-02T16:00:01.529Z</time></trkpt><trkpt lat="45.6986515" lon="11.6590282"><ele>72.0</ele><time>2026-05-02T16:00:03.529Z</time></trkpt><trkpt lat="45.6986467" lon="11.6588927"><ele>72.0</ele><time>2026-05-02T16:00:05.528Z</time></trkpt><trkpt lat="45.69864" lon="11.6587583"><ele>72.0</ele><time>2026-05-02T16:00:07.528Z</time></trkpt><trkpt lat="45.6986486" lon="11.6586296"><ele>72.0</ele><time>2026-05-02T16:00:09.528Z</time></trkpt><trkpt lat="45.6986684" lon="11.6585035"><ele>72.33333333333333</ele><time>2026-05-02T16:00:11.529Z</time></trkpt><trkpt lat="45.6986931" lon="11.6583898"><ele>72.66666666666667</ele><time>2026-05-02T16:00:13.529Z</time></trkpt><trkpt lat="45.6987283" lon="11.6582821"><ele>73.0</ele><time>2026-05-02T16:00:15.529Z</time></trkpt><trkpt lat="45.6987631" lon="11.6581897"><ele>73.33333333333334</ele><time>2026-05-02T16:00:17.528Z</time></trkpt><trkpt lat="45.6988043" lon="11.6580886"><ele>73.66666666666667</ele><time>2026-05-02T16:00:19.529Z</time></trkpt><trkpt lat="45.6988472" lon="11.6579887"><ele>74.0</ele><time>2026-05-02T16:00:21.529Z</time></trkpt><trkpt lat="45.6988839" lon="11.657882"><ele>73.66666666666667</ele><time>2026-05-02T16:00:23.528Z</time></trkpt><trkpt lat="45.6989252" lon="11.6577764"><ele>73.33333333333334</ele><time>2026-05-02T16:00:25.529Z</time></trkpt><trkpt lat="45.6989675" lon="11.657671"><ele>73.0</ele><time>2026-05-02T16:00:27.529Z</time></trkpt><trkpt lat="45.6990084" lon="11.6575622"><ele>72.66666666666667</ele><time>2026-05-02T16:00:29.528Z</time></trkpt><trkpt lat="45.69905" lon="11.6574549"><ele>72.33333333333333</ele><time>2026-05-02T16:00:31.529Z</time></trkpt><trkpt lat="45.6990897" lon="11.6573439"><ele>72.0</ele><time>2026-05-02T16:00:33.53Z</time></trkpt><trkpt lat="45.6991276" lon="11.6572387"><ele>72.0</ele><time>2026-05-02T16:00:35.53Z</time></trkpt><trkpt lat="45.6991637" lon="11.6571375"><ele>72.0</ele><time>2026-05-02T16:00:37.529Z</time></trkpt><trkpt lat="45.6991977" lon="11.6570294"><ele>72.0</ele><time>2026-05-02T16:00:39.53Z</time></trkpt><trkpt lat="45.6992285" lon="11.6569143"><ele>72.0</ele><time>2026-05-02T16:00:41.529Z</time></trkpt><trkpt lat="45.6992659" lon="11.6567992"><ele>72.0</ele><time>2026-05-02T16:00:43.53Z</time></trkpt><trkpt lat="45.6993059" lon="11.6566896"><ele>72.0</ele><time>2026-05-02T16:00:45.529Z</time></trkpt><trkpt lat="45.6993455" lon="11.6565819"><ele>71.83333333333333</ele><time>2026-05-02T16:00:47.53Z</time></trkpt><trkpt lat="45.6993882" lon="11.6564708"><ele>71.66666666666667</ele><time>2026-05-02T16:00:49.53Z</time></trkpt><trkpt lat="45.6994304" lon="11.656343"><ele>71.5</ele><time>2026-05-02T16:00:51.53Z</time></trkpt><trkpt lat="45.6994656" lon="11.6562305"><ele>71.33333333333334</ele><time>2026-05-02T16:00:53.53Z</time></trkpt><trkpt lat="45.6994984" lon="11.656128"><ele>71.16666666666667</ele><time>2026-05-02T16:00:55.53Z</time></trkpt><trkpt lat="45.6995314" lon="11.6560289"><ele>71.0</ele><time>2026-05-02T16:00:57.53Z</time></trkpt><trkpt lat="45.6995367" lon="11.6558725"><ele>71.0</ele><time>2026-05-02T16:00:59.529Z</time></trkpt><trkpt lat="45.6995412" lon="11.6557119"><ele>71.0</ele><time>2026-05-02T16:01:01.53Z</time></trkpt><trkpt lat="45.6995381" lon="11.655586"><ele>71.0</ele><time>2026-05-02T16:01:03.53Z</time></trkpt><trkpt lat="45.6995358" lon="11.6554687"><ele>71.0</ele><time>2026-05-02T16:01:05.529Z</time></trkpt><trkpt lat="45.699526" lon="11.6553486"><ele>71.0</ele><time>2026-05-02T16:01:07.53Z</time></trkpt><trkpt lat="45.6995158" lon="11.6552477"><ele>71.0</ele><time>2026-05-02T16:01:09.529Z</time></trkpt><trkpt lat="45.6995146" lon="11.6551113"><ele>71.16666666666667</ele><time>2026-05-02T16:01:12.53Z</time></trkpt><trkpt lat="45.6995051" lon="11.6549839"><ele>71.33333333333334</ele><time>2026-05-02T16:01:14.53Z</time></trkpt><trkpt lat="45.6995019" lon="11.6548498"><ele>71.5</ele><time>2026-05-02T16:01:16.53Z</time></trkpt><trkpt lat="45.6994954" lon="11.6547174"><ele>71.66666666666667</ele><time>2026-05-02T16:01:18.529Z</time></trkpt><trkpt lat="45.6994848" lon="11.6546032"><ele>71.83333333333333</ele><time>2026-05-02T16:01:20.53Z</time></trkpt><trkpt lat="45.6994775" lon="11.6544955"><ele>72.0</ele><time>2026-05-02T16:01:22.529Z</time></trkpt><trkpt lat="45.6994678" lon="11.654394"><ele>72.0</ele><time>2026-05-02T16:01:24.53Z</time></trkpt><trkpt lat="45.6994551" lon="11.6543023"><ele>72.0</ele><time>2026-05-02T16:01:26.53Z</time></trkpt><trkpt lat="45.699442" lon="11.654212"><ele>72.0</ele><time>2026-05-02T16:01:28.53Z</time></trkpt><trkpt lat="45.6994175" lon="11.6540975"><ele>72.0</ele><time>2026-05-02T16:01:30.529Z</time></trkpt><trkpt lat="45.6993818" lon="11.6539758"><ele>72.0</ele><time>2026-05-02T16:01:32.53Z</time></trkpt><trkpt lat="45.6993415" lon="11.6538466"><ele>72.0</ele><time>2026-05-02T16:01:34.53Z</time></trkpt><trkpt lat="45.6993109" lon="11.6537333"><ele>72.0</ele><time>2026-05-02T16:01:36.53Z</time></trkpt><trkpt lat="45.6992811" lon="11.6536329"><ele>72.0</ele><time>2026-05-02T16:01:38.531Z</time></trkpt><trkpt lat="45.6992537" lon="11.6535401"><ele>72.0</ele><time>2026-05-02T16:01:40.531Z</time></trkpt><trkpt lat="45.6992221" lon="11.6534448"><ele>72.0</ele><time>2026-05-02T16:01:42.53Z</time></trkpt><trkpt lat="45.699183" lon="11.6533192"><ele>72.0</ele><time>2026-05-02T16:01:44.531Z</time></trkpt><trkpt lat="45.6991413" lon="11.6531838"><ele>72.0</ele><time>2026-05-02T16:01:46.531Z</time></trkpt><trkpt lat="45.6991026" lon="11.6530725"><ele>72.0</ele><time>2026-05-02T16:01:48.531Z</time></trkpt><trkpt lat="45.6990574" lon="11.6529728"><ele>72.0</ele><time>2026-05-02T16:01:50.531Z</time></trkpt><trkpt lat="45.6990211" lon="11.6528823"><ele>72.0</ele><time>2026-05-02T16:01:52.531Z</time></trkpt><trkpt lat="45.6989859" lon="11.6527912"><ele>72.0</ele><time>2026-05-02T16:01:54.531Z</time></trkpt><trkpt lat="45.6989511" lon="11.6527089"><ele>72.0</ele><time>2026-05-02T16:01:56.531Z</time></trkpt><trkpt lat="45.6989052" lon="11.6526056"><ele>72.0</ele><time>2026-05-02T16:01:59.531Z</time></trkpt><trkpt lat="45.6988582" lon="11.6524784"><ele>72.0</ele><time>2026-05-02T16:02:02.53Z</time></trkpt><trkpt lat="45.6988057" lon="11.6523736"><ele>72.0</ele><time>2026-05-02T16:02:04.531Z</time></trkpt><trkpt lat="45.6987495" lon="11.6522584"><ele>72.0</ele><time>2026-05-02T16:02:06.531Z</time></trkpt><trkpt lat="45.6986988" lon="11.6521574"><ele>72.0</ele><time>2026-05-02T16:02:08.531Z</time></trkpt><trkpt lat="45.6986577" lon="11.6520642"><ele>72.0</ele><time>2026-05-02T16:02:10.53Z</time></trkpt><trkpt lat="45.6986153" lon="11.6519727"><ele>72.0</ele><time>2026-05-02T16:02:12.531Z</time></trkpt><trkpt lat="45.6985684" lon="11.6518899"><ele>72.0</ele><time>2026-05-02T16:02:14.53Z</time></trkpt><trkpt lat="45.698525" lon="11.6517766"><ele>72.0</ele><time>2026-05-02T16:02:17.531Z</time></trkpt><trkpt lat="45.6984803" lon="11.6517088"><ele>72.0</ele><time>2026-05-02T16:02:19.531Z</time></trkpt><trkpt lat="45.6984306" lon="11.6516174"><ele>72.0</ele><time>2026-05-02T16:02:22.531Z</time></trkpt><trkpt lat="45.6983732" lon="11.6514978"><ele>72.0</ele><time>2026-05-02T16:02:25.531Z</time></trkpt><trkpt lat="45.6983227" lon="11.6514127"><ele>72.0</ele><time>2026-05-02T16:02:27.531Z</time></trkpt><trkpt lat="45.6982799" lon="11.6513257"><ele>72.0</ele><time>2026-05-02T16:02:29.531Z</time></trkpt><trkpt lat="45.6982334" lon="11.6512295"><ele>72.0</ele><time>2026-05-02T16:02:31.531Z</time></trkpt><trkpt lat="45.6981778" lon="11.6511407"><ele>72.0</ele><time>2026-05-02T16:02:33.53Z</time></trkpt><trkpt lat="45.6981258" lon="11.6510418"><ele>72.0</ele><time>2026-05-02T16:02:35.531Z</time></trkpt><trkpt lat="45.6980891" lon="11.6509386"><ele>72.0</ele><time>2026-05-02T16:02:37.53Z</time></trkpt><trkpt lat="45.698075" lon="11.6508297"><ele>72.0</ele><time>2026-05-02T16:02:39.531Z</time></trkpt><trkpt lat="45.6980615" lon="11.6507149"><ele>72.0</ele><time>2026-05-02T16:02:41.531Z</time></trkpt><trkpt lat="45.6980665" lon="11.6505985"><ele>72.0</ele><time>2026-05-02T16:02:43.53Z</time></trkpt><trkpt lat="45.6980765" lon="11.6504938"><ele>72.0</ele><time>2026-05-02T16:02:45.532Z</time></trkpt><trkpt lat="45.6980901" lon="11.650394"><ele>72.0</ele><time>2026-05-02T16:02:47.532Z</time></trkpt><trkpt lat="45.6981062" lon="11.6502952"><ele>72.0</ele><time>2026-05-02T16:02:49.531Z</time></trkpt><trkpt lat="45.6981214" lon="11.6501779"><ele>72.0</ele><time>2026-05-02T16:02:51.532Z</time></trkpt><trkpt lat="45.6981379" lon="11.6500427"><ele>71.83333333333333</ele><time>2026-05-02T16:02:53.532Z</time></trkpt><trkpt lat="45.6981545" lon="11.6499227"><ele>71.66666666666667</ele><time>2026-05-02T16:02:55.532Z</time></trkpt><trkpt lat="45.6981719" lon="11.6498065"><ele>71.5</ele><time>2026-05-02T16:02:57.531Z</time></trkpt><trkpt lat="45.6981838" lon="11.6496942"><ele>71.33333333333334</ele><time>2026-05-02T16:02:59.532Z</time></trkpt><trkpt lat="45.6981953" lon="11.6495908"><ele>71.16666666666667</ele><time>2026-05-02T16:03:01.532Z</time></trkpt><trkpt lat="45.6982136" lon="11.6494935"><ele>71.0</ele><time>2026-05-02T16:03:03.532Z</time></trkpt><trkpt lat="45.698225" lon="11.6493785"><ele>71.0</ele><time>2026-05-02T16:03:05.532Z</time></trkpt><trkpt lat="45.6982357" lon="11.6492413"><ele>71.0</ele><time>2026-05-02T16:03:07.532Z</time></trkpt><trkpt lat="45.6982485" lon="11.649129"><ele>71.0</ele><time>2026-05-02T16:03:09.531Z</time></trkpt><trkpt lat="45.6982708" lon="11.649024"><ele>71.0</ele><time>2026-05-02T16:03:11.532Z</time></trkpt><trkpt lat="45.6982851" lon="11.6489204"><ele>71.0</ele><time>2026-05-02T16:03:13.532Z</time></trkpt><trkpt lat="45.6982951" lon="11.6488127"><ele>71.0</ele><time>2026-05-02T16:03:15.532Z</time></trkpt><trkpt lat="45.6983069" lon="11.6486697"><ele>71.16666666666667</ele><time>2026-05-02T16:03:17.531Z</time></trkpt><trkpt lat="45.6983279" lon="11.6485492"><ele>71.33333333333334</ele><time>2026-05-02T16:03:19.532Z</time></trkpt><trkpt lat="45.6983445" lon="11.6484354"><ele>71.5</ele><time>2026-05-02T16:03:21.531Z</time></trkpt><trkpt lat="45.6983537" lon="11.6483188"><ele>71.66666666666667</ele><time>2026-05-02T16:03:23.532Z</time></trkpt><trkpt lat="45.6983622" lon="11.6482169"><ele>71.83333333333333</ele><time>2026-05-02T16:03:25.532Z</time></trkpt><trkpt lat="45.6983694" lon="11.6481074"><ele>72.0</ele><time>2026-05-02T16:03:27.531Z</time></trkpt><trkpt lat="45.698376" lon="11.6479782"><ele>72.0</ele><time>2026-05-02T16:03:29.531Z</time></trkpt><trkpt lat="45.698381" lon="11.6478444"><ele>72.0</ele><time>2026-05-02T16:03:31.532Z</time></trkpt><trkpt lat="45.6983908" lon="11.6477315"><ele>72.0</ele><time>2026-05-02T16:03:33.532Z</time></trkpt><trkpt lat="45.6983936" lon="11.6476168"><ele>72.0</ele><time>2026-05-02T16:03:35.532Z</time></trkpt><trkpt lat="45.6983986" lon="11.6475098"><ele>72.0</ele><time>2026-05-02T16:03:37.532Z</time></trkpt><trkpt lat="45.69841" lon="11.6473937"><ele>72.0</ele><time>2026-05-02T16:03:39.532Z</time></trkpt><trkpt lat="45.6984151" lon="11.6472561"><ele>72.0</ele><time>2026-05-02T16:03:41.532Z</time></trkpt><trkpt lat="45.6984262" lon="11.6471196"><ele>72.0</ele><time>2026-05-02T16:03:43.531Z</time></trkpt><trkpt lat="45.6984358" lon="11.6469987"><ele>72.0</ele><time>2026-05-02T16:03:45.531Z</time></trkpt><trkpt lat="45.6984383" lon="11.64688"><ele>72.0</ele><time>2026-05-02T16:03:47.532Z</time></trkpt><trkpt lat="45.6984449" lon="11.6467646"><ele>72.0</ele><time>2026-05-02T16:03:49.533Z</time></trkpt><trkpt lat="45.6984541" lon="11.6466634"><ele>72.0</ele><time>2026-05-02T16:03:51.533Z</time></trkpt><trkpt lat="45.6984518" lon="11.6465679"><ele>72.0</ele><time>2026-05-02T16:03:53.532Z</time></trkpt><trkpt lat="45.6984583" lon="11.6464411"><ele>72.0</ele><time>2026-05-02T16:03:55.533Z</time></trkpt><trkpt lat="45.6984609" lon="11.6463084"><ele>72.0</ele><time>2026-05-02T16:03:57.533Z</time></trkpt><trkpt lat="45.6984523" lon="11.64618"><ele>72.0</ele><time>2026-05-02T16:03:59.532Z</time></trkpt><trkpt lat="45.6984518" lon="11.6460583"><ele>72.0</ele><time>2026-05-02T16:04:01.533Z</time></trkpt><trkpt lat="45.6984504" lon="11.6459458"><ele>72.0</ele><time>2026-05-02T16:04:03.532Z</time></trkpt><trkpt lat="45.6984464" lon="11.6458451"><ele>71.85714285714286</ele><time>2026-05-02T16:04:05.533Z</time></trkpt><trkpt lat="45.6984481" lon="11.6457464"><ele>71.71428571428572</ele><time>2026-05-02T16:04:07.532Z</time></trkpt><trkpt lat="45.6984363" lon="11.6456325"><ele>71.57142857142857</ele><time>2026-05-02T16:04:09.533Z</time></trkpt><trkpt lat="45.6984074" lon="11.6455475"><ele>71.42857142857143</ele><time>2026-05-02T16:04:11.533Z</time></trkpt><trkpt lat="45.6983471" lon="11.6455006"><ele>71.28571428571428</ele><time>2026-05-02T16:04:13.532Z</time></trkpt><trkpt lat="45.6982851" lon="11.6454781"><ele>71.14285714285714</ele><time>2026-05-02T16:04:15.533Z</time></trkpt><trkpt lat="45.6982089" lon="11.6454696"><ele>71.0</ele><time>2026-05-02T16:04:17.532Z</time></trkpt><trkpt lat="45.6981074" lon="11.645467"><ele>71.0</ele><time>2026-05-02T16:04:19.533Z</time></trkpt><trkpt lat="45.6980038" lon="11.6454511"><ele>71.0</ele><time>2026-05-02T16:04:21.532Z</time></trkpt><trkpt lat="45.6979137" lon="11.6454507"><ele>71.0</ele><time>2026-05-02T16:04:23.533Z</time></trkpt><trkpt lat="45.6978212" lon="11.6454501"><ele>71.0</ele><time>2026-05-02T16:04:25.533Z</time></trkpt><trkpt lat="45.697744" lon="11.6454347"><ele>71.0</ele><time>2026-05-02T16:04:27.533Z</time></trkpt><trkpt lat="45.6976683" lon="11.6454163"><ele>71.0</ele><time>2026-05-02T16:04:29.532Z</time></trkpt><trkpt lat="45.6975886" lon="11.6454095"><ele>71.0</ele><time>2026-05-02T16:04:31.532Z</time></trkpt><trkpt lat="45.6974927" lon="11.6453656"><ele>71.0</ele><time>2026-05-02T16:04:33.532Z</time></trkpt><trkpt lat="45.6973914" lon="11.6453149"><ele>71.0</ele><time>2026-05-02T16:04:35.533Z</time></trkpt><trkpt lat="45.6972874" lon="11.6453144"><ele>71.0</ele><time>2026-05-02T16:04:37.533Z</time></trkpt><trkpt lat="45.697199" lon="11.6452987"><ele>71.0</ele><time>2026-05-02T16:04:39.532Z</time></trkpt><trkpt lat="45.6971145" lon="11.6452866"><ele>71.0</ele><time>2026-05-02T16:04:41.532Z</time></trkpt><trkpt lat="45.6970329" lon="11.6452835"><ele>71.0</ele><time>2026-05-02T16:04:43.532Z</time></trkpt><trkpt lat="45.6969365" lon="11.6452714"><ele>71.0</ele><time>2026-05-02T16:04:45.533Z</time></trkpt><trkpt lat="45.6968204" lon="11.645265"><ele>71.0</ele><time>2026-05-02T16:04:47.533Z</time></trkpt><trkpt lat="45.6967192" lon="11.6452512"><ele>71.0</ele><time>2026-05-02T16:04:49.533Z</time></trkpt><trkpt lat="45.6966159" lon="11.6452329"><ele>71.0</ele><time>2026-05-02T16:04:51.533Z</time></trkpt><trkpt lat="45.6965246" lon="11.6452235"><ele>71.0</ele><time>2026-05-02T16:04:53.534Z</time></trkpt><trkpt lat="45.6964422" lon="11.6452325"><ele>71.0</ele><time>2026-05-02T16:04:55.534Z</time></trkpt><trkpt lat="45.6963659" lon="11.6452379"><ele>71.0</ele><time>2026-05-02T16:04:57.534Z</time></trkpt><trkpt lat="45.6962956" lon="11.6452336"><ele>71.0</ele><time>2026-05-02T16:04:59.533Z</time></trkpt><trkpt lat="45.6962048" lon="11.6452313"><ele>71.0</ele><time>2026-05-02T16:05:01.534Z</time></trkpt><trkpt lat="45.6961128" lon="11.6452332"><ele>71.16666666666667</ele><time>2026-05-02T16:05:03.533Z</time></trkpt><trkpt lat="45.6960279" lon="11.6452311"><ele>71.33333333333334</ele><time>2026-05-02T16:05:05.534Z</time></trkpt><trkpt lat="45.6959467" lon="11.6452225"><ele>71.5</ele><time>2026-05-02T16:05:07.534Z</time></trkpt><trkpt lat="45.6958746" lon="11.6452165"><ele>71.66666666666667</ele><time>2026-05-02T16:05:09.534Z</time></trkpt><trkpt lat="45.6957799" lon="11.645197"><ele>71.83333333333333</ele><time>2026-05-02T16:05:11.534Z</time></trkpt><trkpt lat="45.6956711" lon="11.6452081"><ele>72.0</ele><time>2026-05-02T16:05:13.533Z</time></trkpt><trkpt lat="45.6955832" lon="11.6452162"><ele>72.0</ele><time>2026-05-02T16:05:15.534Z</time></trkpt><trkpt lat="45.6955068" lon="11.6452086"><ele>72.0</ele><time>2026-05-02T16:05:17.534Z</time></trkpt><trkpt lat="45.6954251" lon="11.6451944"><ele>72.0</ele><time>2026-05-02T16:05:19.534Z</time></trkpt><trkpt lat="45.6953594" lon="11.6451891"><ele>72.0</ele><time>2026-05-02T16:05:21.534Z</time></trkpt><trkpt lat="45.6952682" lon="11.6451988"><ele>72.0</ele><time>2026-05-02T16:05:24.534Z</time></trkpt><trkpt lat="45.6951718" lon="11.6451767"><ele>72.0</ele><time>2026-05-02T16:05:27.534Z</time></trkpt><trkpt lat="45.6950837" lon="11.645158"><ele>71.8</ele><time>2026-05-02T16:05:29.533Z</time></trkpt><trkpt lat="45.694977" lon="11.6451591"><ele>71.6</ele><time>2026-05-02T16:05:31.534Z</time></trkpt><trkpt lat="45.6948709" lon="11.6451542"><ele>71.39999999999999</ele><time>2026-05-02T16:05:33.533Z</time></trkpt><trkpt lat="45.6947764" lon="11.6451478"><ele>71.2</ele><time>2026-05-02T16:05:35.534Z</time></trkpt><trkpt lat="45.6946921" lon="11.6451268"><ele>71.0</ele><time>2026-05-02T16:05:37.534Z</time></trkpt><trkpt lat="45.6946179" lon="11.6451206"><ele>71.0</ele><time>2026-05-02T16:05:39.534Z</time></trkpt><trkpt lat="45.6945438" lon="11.6451253"><ele>71.0</ele><time>2026-05-02T16:05:41.534Z</time></trkpt><trkpt lat="45.6944719" lon="11.645129"><ele>71.0</ele><time>2026-05-02T16:05:43.533Z</time></trkpt><trkpt lat="45.6944028" lon="11.6451272"><ele>71.0</ele><time>2026-05-02T16:05:45.534Z</time></trkpt><trkpt lat="45.6943139" lon="11.645114"><ele>71.0</ele><time>2026-05-02T16:05:48.533Z</time></trkpt><trkpt lat="45.6942291" lon="11.6450946"><ele>71.0</ele><time>2026-05-02T16:05:51.534Z</time></trkpt><trkpt lat="45.6941557" lon="11.6450598"><ele>70.83333333333334</ele><time>2026-05-02T16:05:54.534Z</time></trkpt><trkpt lat="45.6941611" lon="11.6449515"><ele>70.66666666666667</ele><time>2026-05-02T16:05:56.535Z</time></trkpt><trkpt lat="45.6941804" lon="11.6448175"><ele>70.5</ele><time>2026-05-02T16:05:58.535Z</time></trkpt><trkpt lat="45.6941921" lon="11.6446902"><ele>70.33333333333333</ele><time>2026-05-02T16:06:00.535Z</time></trkpt><trkpt lat="45.694206" lon="11.6445779"><ele>70.16666666666666</ele><time>2026-05-02T16:06:02.534Z</time></trkpt><trkpt lat="45.6942089" lon="11.6444799"><ele>70.0</ele><time>2026-05-02T16:06:04.535Z</time></trkpt><trkpt lat="45.6942279" lon="11.6443469"><ele>70.0</ele><time>2026-05-02T16:06:07.534Z</time></trkpt><trkpt lat="45.6942696" lon="11.6442353"><ele>70.0</ele><time>2026-05-02T16:06:10.534Z</time></trkpt><trkpt lat="45.6942724" lon="11.6441257"><ele>70.0</ele><time>2026-05-02T16:06:32.535Z</time></trkpt><trkpt lat="45.6942173" lon="11.6440496"><ele>70.0</ele><time>2026-05-02T16:06:34.535Z</time></trkpt><trkpt lat="45.6941177" lon="11.6440159"><ele>70.0</ele><time>2026-05-02T16:06:36.535Z</time></trkpt><trkpt lat="45.6940335" lon="11.6439853"><ele>70.0</ele><time>2026-05-02T16:06:38.535Z</time></trkpt><trkpt lat="45.6939613" lon="11.6439429"><ele>70.0</ele><time>2026-05-02T16:06:40.534Z</time></trkpt><trkpt lat="45.6938872" lon="11.6439127"><ele>70.0</ele><time>2026-05-02T16:06:42.535Z</time></trkpt><trkpt lat="45.6938226" lon="11.6438952"><ele>70.0</ele><time>2026-05-02T16:06:44.535Z</time></trkpt><trkpt lat="45.6937598" lon="11.6438573"><ele>70.0</ele><time>2026-05-02T16:06:46.535Z</time></trkpt><trkpt lat="45.693697" lon="11.6438254"><ele>70.0</ele><time>2026-05-02T16:06:48.535Z</time></trkpt><trkpt lat="45.6936081" lon="11.6437996"><ele>70.0</ele><time>2026-05-02T16:06:51.535Z</time></trkpt><trkpt lat="45.6935283" lon="11.6437727"><ele>69.85714285714286</ele><time>2026-05-02T16:06:53.535Z</time></trkpt><trkpt lat="45.6934463" lon="11.6437409"><ele>69.71428571428572</ele><time>2026-05-02T16:06:55.534Z</time></trkpt><trkpt lat="45.6933693" lon="11.6437166"><ele>69.57142857142857</ele><time>2026-05-02T16:06:57.535Z</time></trkpt><trkpt lat="45.6933001" lon="11.6436924"><ele>69.42857142857143</ele><time>2026-05-02T16:06:59.536Z</time></trkpt><trkpt lat="45.6932361" lon="11.6436783"><ele>69.28571428571429</ele><time>2026-05-02T16:07:01.536Z</time></trkpt><trkpt lat="45.6931724" lon="11.64366"><ele>69.14285714285714</ele><time>2026-05-02T16:07:03.535Z</time></trkpt><trkpt lat="45.6930925" lon="11.6436286"><ele>69.0</ele><time>2026-05-02T16:07:05.536Z</time></trkpt><trkpt lat="45.69302" lon="11.643601"><ele>69.0</ele><time>2026-05-02T16:07:07.535Z</time></trkpt><trkpt lat="45.6929561" lon="11.6435757"><ele>69.0</ele><time>2026-05-02T16:07:09.536Z</time></trkpt><trkpt lat="45.6928933" lon="11.6435429"><ele>69.0</ele><time>2026-05-02T16:07:11.536Z</time></trkpt><trkpt lat="45.6928271" lon="11.6435114"><ele>69.0</ele><time>2026-05-02T16:07:13.535Z</time></trkpt><trkpt lat="45.6927556" lon="11.6434781"><ele>69.0</ele><time>2026-05-02T16:07:15.536Z</time></trkpt><trkpt lat="45.6926562" lon="11.643446"><ele>69.0</ele><time>2026-05-02T16:07:17.536Z</time></trkpt><trkpt lat="45.6925667" lon="11.6434268"><ele>69.16666666666667</ele><time>2026-05-02T16:07:19.535Z</time></trkpt><trkpt lat="45.6924883" lon="11.6434001"><ele>69.33333333333333</ele><time>2026-05-02T16:07:21.536Z</time></trkpt><trkpt lat="45.6924253" lon="11.6433723"><ele>69.5</ele><time>2026-05-02T16:07:23.536Z</time></trkpt><trkpt lat="45.6923612" lon="11.6433424"><ele>69.66666666666666</ele><time>2026-05-02T16:07:25.536Z</time></trkpt><trkpt lat="45.6922855" lon="11.6432957"><ele>69.83333333333333</ele><time>2026-05-02T16:07:28.536Z</time></trkpt><trkpt lat="45.6921965" lon="11.6432513"><ele>70.0</ele><time>2026-05-02T16:07:31.536Z</time></trkpt><trkpt lat="45.6921135" lon="11.6432234"><ele>70.0</ele><time>2026-05-02T16:07:33.535Z</time></trkpt><trkpt lat="45.692035" lon="11.6431959"><ele>70.0</ele><time>2026-05-02T16:07:35.536Z</time></trkpt><trkpt lat="45.6919745" lon="11.643159"><ele>70.0</ele><time>2026-05-02T16:07:37.536Z</time></trkpt><trkpt lat="45.6919318" lon="11.6430865"><ele>70.0</ele><time>2026-05-02T16:07:39.536Z</time></trkpt><trkpt lat="45.6919282" lon="11.642963"><ele>70.0</ele><time>2026-05-02T16:07:42.536Z</time></trkpt><trkpt lat="45.6919307" lon="11.6428489"><ele>70.0</ele><time>2026-05-02T16:07:45.536Z</time></trkpt><trkpt lat="45.6918429" lon="11.6428392"><ele>69.83333333333333</ele><time>2026-05-02T16:07:48.536Z</time></trkpt><trkpt lat="45.69179" lon="11.6429165"><ele>69.66666666666666</ele><time>2026-05-02T16:07:50.536Z</time></trkpt><trkpt lat="45.6917749" lon="11.643042"><ele>69.5</ele><time>2026-05-02T16:07:52.536Z</time></trkpt><trkpt lat="45.691691" lon="11.6430746"><ele>69.33333333333333</ele><time>2026-05-02T16:07:55.535Z</time></trkpt><trkpt lat="45.6915923" lon="11.643048"><ele>69.16666666666667</ele><time>2026-05-02T16:07:57.537Z</time></trkpt><trkpt lat="45.6915089" lon="11.6430291"><ele>69.0</ele><time>2026-05-02T16:07:59.536Z</time></trkpt><trkpt lat="45.6914353" lon="11.6430329"><ele>69.0</ele><time>2026-05-02T16:08:01.536Z</time></trkpt><trkpt lat="45.6913639" lon="11.6430175"><ele>69.0</ele><time>2026-05-02T16:08:03.536Z</time></trkpt><trkpt lat="45.6913079" lon="11.6429347"><ele>69.0</ele><time>2026-05-02T16:08:07.536Z</time></trkpt><trkpt lat="45.6912667" lon="11.6428619"><ele>69.0</ele><time>2026-05-02T16:08:09.537Z</time></trkpt><trkpt lat="45.69118" lon="11.6428307"><ele>69.0</ele><time>2026-05-02T16:08:12.537Z</time></trkpt><trkpt lat="45.6911178" lon="11.6429057"><ele>69.0</ele><time>2026-05-02T16:08:15.537Z</time></trkpt><trkpt lat="45.6910641" lon="11.6428583"><ele>69.0</ele><time>2026-05-02T16:08:18.536Z</time></trkpt><trkpt lat="45.690971" lon="11.6428444"><ele>69.0</ele><time>2026-05-02T16:08:21.537Z</time></trkpt><trkpt lat="45.6908877" lon="11.6428046"><ele>69.0</ele><time>2026-05-02T16:08:23.537Z</time></trkpt><trkpt lat="45.6908004" lon="11.6427722"><ele>69.0</ele><time>2026-05-02T16:08:25.537Z</time></trkpt><trkpt lat="45.6907244" lon="11.6427516"><ele>69.0</ele><time>2026-05-02T16:08:27.536Z</time></trkpt><trkpt lat="45.6906513" lon="11.6427251"><ele>69.0</ele><time>2026-05-02T16:08:29.537Z</time></trkpt><trkpt lat="45.690587" lon="11.6427021"><ele>69.0</ele><time>2026-05-02T16:08:31.536Z</time></trkpt><trkpt lat="45.6905206" lon="11.6426831"><ele>69.0</ele><time>2026-05-02T16:08:33.537Z</time></trkpt><trkpt lat="45.6904341" lon="11.6426616"><ele>69.0</ele><time>2026-05-02T16:08:35.537Z</time></trkpt><trkpt lat="45.6903456" lon="11.6426312"><ele>69.0</ele><time>2026-05-02T16:08:37.537Z</time></trkpt><trkpt lat="45.6902711" lon="11.6425997"><ele>69.0</ele><time>2026-05-02T16:08:39.536Z</time></trkpt><trkpt lat="45.6902008" lon="11.6425797"><ele>69.0</ele><time>2026-05-02T16:08:41.537Z</time></trkpt><trkpt lat="45.6901424" lon="11.6425408"><ele>69.14285714285714</ele><time>2026-05-02T16:08:43.537Z</time></trkpt><trkpt lat="45.6900781" lon="11.6425359"><ele>69.28571428571429</ele><time>2026-05-02T16:08:46.537Z</time></trkpt><trkpt lat="45.6900337" lon="11.642469"><ele>69.42857142857143</ele><time>2026-05-02T16:08:48.536Z</time></trkpt><trkpt lat="45.6899456" lon="11.6424958"><ele>69.57142857142857</ele><time>2026-05-02T16:08:51.536Z</time></trkpt><trkpt lat="45.6898894" lon="11.6424313"><ele>69.71428571428572</ele><time>2026-05-02T16:08:54.536Z</time></trkpt><trkpt lat="45.6898187" lon="11.6424221"><ele>69.85714285714286</ele><time>2026-05-02T16:08:56.537Z</time></trkpt><trkpt lat="45.6897356" lon="11.642392"><ele>70.0</ele><time>2026-05-02T16:08:58.537Z</time></trkpt><trkpt lat="45.6896593" lon="11.6423611"><ele>70.0</ele><time>2026-05-02T16:09:00.537Z</time></trkpt><trkpt lat="45.6895877" lon="11.642346"><ele>70.0</ele><time>2026-05-02T16:09:02.536Z</time></trkpt><trkpt lat="45.6895231" lon="11.6423244"><ele>70.0</ele><time>2026-05-02T16:09:04.536Z</time></trkpt><trkpt lat="45.6894625" lon="11.6422967"><ele>70.0</ele><time>2026-05-02T16:09:06.538Z</time></trkpt><trkpt lat="45.6893743" lon="11.6422727"><ele>70.0</ele><time>2026-05-02T16:09:09.537Z</time></trkpt><trkpt lat="45.6892944" lon="11.6422373"><ele>70.0</ele><time>2026-05-02T16:09:12.538Z</time></trkpt><trkpt lat="45.6892254" lon="11.6422224"><ele>70.0</ele><time>2026-05-02T16:09:15.538Z</time></trkpt><trkpt lat="45.6891871" lon="11.6421384"><ele>69.16666666666666</ele><time>2026-05-02T16:09:18.538Z</time></trkpt><trkpt lat="45.6891187" lon="11.6421481"><ele>68.33333333333333</ele><time>2026-05-02T16:09:22.538Z</time></trkpt><trkpt lat="45.689053" lon="11.6421344"><ele>67.5</ele><time>2026-05-02T16:09:26.538Z</time></trkpt><trkpt lat="45.6889872" lon="11.642122"><ele>66.66666666666667</ele><time>2026-05-02T16:09:29.538Z</time></trkpt><trkpt lat="45.6889125" lon="11.6420912"><ele>65.83333333333334</ele><time>2026-05-02T16:09:31.538Z</time></trkpt><trkpt lat="45.6888263" lon="11.6420634"><ele>65.0</ele><time>2026-05-02T16:09:33.538Z</time></trkpt><trkpt lat="45.6887395" lon="11.6420397"><ele>65.0</ele><time>2026-05-02T16:09:35.537Z</time></trkpt><trkpt lat="45.688665" lon="11.6420175"><ele>65.0</ele><time>2026-05-02T16:09:37.538Z</time></trkpt><trkpt lat="45.6885969" lon="11.6419816"><ele>65.0</ele><time>2026-05-02T16:09:39.538Z</time></trkpt><trkpt lat="45.6885234" lon="11.6419484"><ele>65.0</ele><time>2026-05-02T16:09:41.538Z</time></trkpt><trkpt lat="45.688426" lon="11.6419168"><ele>65.0</ele><time>2026-05-02T16:09:43.538Z</time></trkpt><trkpt lat="45.6883321" lon="11.6418836"><ele>65.0</ele><time>2026-05-02T16:09:45.537Z</time></trkpt><trkpt lat="45.6882483" lon="11.6418542"><ele>65.16666666666667</ele><time>2026-05-02T16:09:47.538Z</time></trkpt><trkpt lat="45.688167" lon="11.6418253"><ele>65.33333333333334</ele><time>2026-05-02T16:09:49.537Z</time></trkpt><trkpt lat="45.6880927" lon="11.6417971"><ele>65.5</ele><time>2026-05-02T16:09:51.538Z</time></trkpt><trkpt lat="45.6880187" lon="11.641773"><ele>65.66666666666667</ele><time>2026-05-02T16:09:53.538Z</time></trkpt><trkpt lat="45.6879499" lon="11.641747"><ele>65.83333333333333</ele><time>2026-05-02T16:09:55.538Z</time></trkpt><trkpt lat="45.6878692" lon="11.6417131"><ele>66.0</ele><time>2026-05-02T16:09:57.538Z</time></trkpt><trkpt lat="45.6877704" lon="11.6416825"><ele>65.66666666666667</ele><time>2026-05-02T16:09:59.537Z</time></trkpt><trkpt lat="45.6876843" lon="11.6416668"><ele>65.33333333333333</ele><time>2026-05-02T16:10:01.538Z</time></trkpt><trkpt lat="45.6876048" lon="11.6416393"><ele>65.0</ele><time>2026-05-02T16:10:03.537Z</time></trkpt><trkpt lat="45.6875282" lon="11.6416039"><ele>64.66666666666666</ele><time>2026-05-02T16:10:05.539Z</time></trkpt><trkpt lat="45.6874308" lon="11.6415721"><ele>64.33333333333333</ele><time>2026-05-02T16:10:07.538Z</time></trkpt><trkpt lat="45.6873363" lon="11.6415614"><ele>64.0</ele><time>2026-05-02T16:10:09.538Z</time></trkpt><trkpt lat="45.6872555" lon="11.6415326"><ele>63.99999999999999</ele><time>2026-05-02T16:10:11.538Z</time></trkpt><trkpt lat="45.6871689" lon="11.6415178"><ele>64.0</ele><time>2026-05-02T16:10:13.538Z</time></trkpt><trkpt lat="45.6870861" lon="11.6415035"><ele>64.0</ele><time>2026-05-02T16:10:15.539Z</time></trkpt><trkpt lat="45.6870142" lon="11.6414886"><ele>64.0</ele><time>2026-05-02T16:10:17.539Z</time></trkpt><trkpt lat="45.6869415" lon="11.641482"><ele>63.99999999999999</ele><time>2026-05-02T16:10:19.539Z</time></trkpt><trkpt lat="45.686876" lon="11.6414677"><ele>64.0</ele><time>2026-05-02T16:10:21.539Z</time></trkpt><trkpt lat="45.6867967" lon="11.6414528"><ele>64.5</ele><time>2026-05-02T16:10:23.538Z</time></trkpt><trkpt lat="45.6866974" lon="11.6414316"><ele>65.0</ele><time>2026-05-02T16:10:25.538Z</time></trkpt><trkpt lat="45.6866058" lon="11.64141"><ele>65.5</ele><time>2026-05-02T16:10:27.539Z</time></trkpt><trkpt lat="45.6865279" lon="11.6413894"><ele>66.0</ele><time>2026-05-02T16:10:29.539Z</time></trkpt><trkpt lat="45.6864564" lon="11.6413664"><ele>66.5</ele><time>2026-05-02T16:10:31.539Z</time></trkpt><trkpt lat="45.6863945" lon="11.6413392"><ele>67.0</ele><time>2026-05-02T16:10:33.538Z</time></trkpt><trkpt lat="45.6863236" lon="11.6413209"><ele>67.0</ele><time>2026-05-02T16:10:35.538Z</time></trkpt><trkpt lat="45.6862404" lon="11.641299"><ele>67.0</ele><time>2026-05-02T16:10:37.538Z</time></trkpt><trkpt lat="45.6861485" lon="11.64128"><ele>67.0</ele><time>2026-05-02T16:10:39.539Z</time></trkpt><trkpt lat="45.6860687" lon="11.6412745"><ele>67.0</ele><time>2026-05-02T16:10:41.539Z</time></trkpt><trkpt lat="45.6860026" lon="11.6412564"><ele>67.0</ele><time>2026-05-02T16:10:43.539Z</time></trkpt><trkpt lat="45.6859287" lon="11.6412367"><ele>67.0</ele><time>2026-05-02T16:10:45.539Z</time></trkpt><trkpt lat="45.6858418" lon="11.6412066"><ele>66.83333333333333</ele><time>2026-05-02T16:10:47.538Z</time></trkpt><trkpt lat="45.6857706" lon="11.6411907"><ele>66.66666666666666</ele><time>2026-05-02T16:10:49.539Z</time></trkpt><trkpt lat="45.6857008" lon="11.6411767"><ele>66.5</ele><time>2026-05-02T16:10:51.539Z</time></trkpt><trkpt lat="45.6856208" lon="11.6411424"><ele>66.33333333333333</ele><time>2026-05-02T16:10:54.539Z</time></trkpt><trkpt lat="45.6855559" lon="11.6411801"><ele>66.16666666666667</ele><time>2026-05-02T16:10:57.539Z</time></trkpt><trkpt lat="45.685482" lon="11.6411819"><ele>66.0</ele><time>2026-05-02T16:10:59.539Z</time></trkpt><trkpt lat="45.6853909" lon="11.6411586"><ele>66.0</ele><time>2026-05-02T16:11:03.539Z</time></trkpt><trkpt lat="45.6853057" lon="11.6411471"><ele>66.0</ele><time>2026-05-02T16:11:05.539Z</time></trkpt><trkpt lat="45.685223" lon="11.6411249"><ele>66.0</ele><time>2026-05-02T16:11:07.539Z</time></trkpt><trkpt lat="45.6851508" lon="11.6411059"><ele>66.0</ele><time>2026-05-02T16:11:09.539Z</time></trkpt><trkpt lat="45.6850817" lon="11.6410945"><ele>66.0</ele><time>2026-05-02T16:11:11.538Z</time></trkpt><trkpt lat="45.6850182" lon="11.6410788"><ele>66.0</ele><time>2026-05-02T16:11:13.54Z</time></trkpt><trkpt lat="45.6849449" lon="11.6410559"><ele>65.83333333333333</ele><time>2026-05-02T16:11:15.54Z</time></trkpt><trkpt lat="45.6848583" lon="11.6410328"><ele>65.66666666666667</ele><time>2026-05-02T16:11:17.54Z</time></trkpt><trkpt lat="45.6847808" lon="11.6410221"><ele>65.5</ele><time>2026-05-02T16:11:19.54Z</time></trkpt><trkpt lat="45.6847151" lon="11.6410075"><ele>65.33333333333334</ele><time>2026-05-02T16:11:21.539Z</time></trkpt><trkpt lat="45.6846164" lon="11.6409824"><ele>65.16666666666667</ele><time>2026-05-02T16:11:24.539Z</time></trkpt><trkpt lat="45.6845282" lon="11.6409678"><ele>65.0</ele><time>2026-05-02T16:11:26.539Z</time></trkpt><trkpt lat="45.6844485" lon="11.640956"><ele>65.16666666666667</ele><time>2026-05-02T16:11:28.54Z</time></trkpt><trkpt lat="45.6843752" lon="11.6409386"><ele>65.33333333333334</ele><time>2026-05-02T16:11:30.539Z</time></trkpt><trkpt lat="45.6843106" lon="11.6409289"><ele>65.5</ele><time>2026-05-02T16:11:32.54Z</time></trkpt><trkpt lat="45.684224" lon="11.6409206"><ele>65.66666666666667</ele><time>2026-05-02T16:11:35.54Z</time></trkpt><trkpt lat="45.684139" lon="11.640917"><ele>65.83333333333333</ele><time>2026-05-02T16:11:38.54Z</time></trkpt><trkpt lat="45.6840563" lon="11.6408931"><ele>66.0</ele><time>2026-05-02T16:11:40.54Z</time></trkpt><trkpt lat="45.6839692" lon="11.6408456"><ele>66.0</ele><time>2026-05-02T16:11:42.54Z</time></trkpt><trkpt lat="45.6838812" lon="11.6408236"><ele>66.0</ele><time>2026-05-02T16:11:44.54Z</time></trkpt><trkpt lat="45.6838084" lon="11.6408045"><ele>66.0</ele><time>2026-05-02T16:11:46.54Z</time></trkpt><trkpt lat="45.6837317" lon="11.6407963"><ele>66.0</ele><time>2026-05-02T16:11:48.539Z</time></trkpt><trkpt lat="45.6836641" lon="11.6407771"><ele>66.0</ele><time>2026-05-02T16:11:50.539Z</time></trkpt><trkpt lat="45.6835924" lon="11.6407645"><ele>66.0</ele><time>2026-05-02T16:11:52.54Z</time></trkpt><trkpt lat="45.6834964" lon="11.640737"><ele>65.83333333333333</ele><time>2026-05-02T16:11:54.54Z</time></trkpt><trkpt lat="45.6834086" lon="11.6407112"><ele>65.66666666666667</ele><time>2026-05-02T16:11:56.54Z</time></trkpt><trkpt lat="45.6833309" lon="11.640701"><ele>65.5</ele><time>2026-05-02T16:11:58.54Z</time></trkpt><trkpt lat="45.6832584" lon="11.6406791"><ele>65.33333333333334</ele><time>2026-05-02T16:12:00.54Z</time></trkpt><trkpt lat="45.6831877" lon="11.6406625"><ele>65.16666666666667</ele><time>2026-05-02T16:12:02.539Z</time></trkpt><trkpt lat="45.68312" lon="11.6406466"><ele>65.0</ele><time>2026-05-02T16:12:04.539Z</time></trkpt><trkpt lat="45.6830368" lon="11.6406376"><ele>65.0</ele><time>2026-05-02T16:12:06.54Z</time></trkpt><trkpt lat="45.6829435" lon="11.6406197"><ele>65.0</ele><time>2026-05-02T16:12:08.54Z</time></trkpt><trkpt lat="45.682855" lon="11.6405859"><ele>65.0</ele><time>2026-05-02T16:12:10.541Z</time></trkpt><trkpt lat="45.682774" lon="11.6405648"><ele>65.0</ele><time>2026-05-02T16:12:12.541Z</time></trkpt><trkpt lat="45.6826908" lon="11.640551"><ele>65.0</ele><time>2026-05-02T16:12:14.54Z</time></trkpt><trkpt lat="45.6826136" lon="11.6405314"><ele>65.0</ele><time>2026-05-02T16:12:16.54Z</time></trkpt><trkpt lat="45.6825271" lon="11.6405211"><ele>65.33333333333334</ele><time>2026-05-02T16:12:19.54Z</time></trkpt><trkpt lat="45.6824323" lon="11.6405024"><ele>65.66666666666667</ele><time>2026-05-02T16:12:22.54Z</time></trkpt><trkpt lat="45.6823345" lon="11.6404781"><ele>66.0</ele><time>2026-05-02T16:12:24.541Z</time></trkpt><trkpt lat="45.6822486" lon="11.6404451"><ele>66.33333333333333</ele><time>2026-05-02T16:12:26.541Z</time></trkpt><trkpt lat="45.6821696" lon="11.6404211"><ele>66.66666666666666</ele><time>2026-05-02T16:12:28.541Z</time></trkpt><trkpt lat="45.6821042" lon="11.6404151"><ele>67.0</ele><time>2026-05-02T16:12:30.541Z</time></trkpt><trkpt lat="45.6820369" lon="11.6404002"><ele>67.0</ele><time>2026-05-02T16:12:32.54Z</time></trkpt><trkpt lat="45.681952" lon="11.6403701"><ele>67.0</ele><time>2026-05-02T16:12:34.541Z</time></trkpt><trkpt lat="45.6818739" lon="11.6403287"><ele>67.0</ele><time>2026-05-02T16:12:36.541Z</time></trkpt><trkpt lat="45.6817905" lon="11.6403098"><ele>67.0</ele><time>2026-05-02T16:12:38.54Z</time></trkpt><trkpt lat="45.6817283" lon="11.6402885"><ele>67.0</ele><time>2026-05-02T16:12:40.541Z</time></trkpt><trkpt lat="45.6816702" lon="11.6402451"><ele>67.0</ele><time>2026-05-02T16:12:42.541Z</time></trkpt><trkpt lat="45.6815987" lon="11.6402177"><ele>66.5</ele><time>2026-05-02T16:12:44.541Z</time></trkpt><trkpt lat="45.6815251" lon="11.6401852"><ele>66.0</ele><time>2026-05-02T16:12:46.541Z</time></trkpt><trkpt lat="45.6814351" lon="11.6401477"><ele>65.5</ele><time>2026-05-02T16:12:48.541Z</time></trkpt><trkpt lat="45.6813546" lon="11.6401172"><ele>65.0</ele><time>2026-05-02T16:12:50.541Z</time></trkpt><trkpt lat="45.6812669" lon="11.6400702"><ele>64.5</ele><time>2026-05-02T16:12:52.541Z</time></trkpt><trkpt lat="45.6811876" lon="11.6400191"><ele>64.0</ele><time>2026-05-02T16:12:54.541Z</time></trkpt><trkpt lat="45.6811168" lon="11.6399759"><ele>64.2</ele><time>2026-05-02T16:12:56.54Z</time></trkpt><trkpt lat="45.6810253" lon="11.6399061"><ele>64.4</ele><time>2026-05-02T16:12:58.541Z</time></trkpt><trkpt lat="45.6809417" lon="11.6398151"><ele>64.6</ele><time>2026-05-02T16:13:00.541Z</time></trkpt><trkpt lat="45.6808747" lon="11.6397375"><ele>64.8</ele><time>2026-05-02T16:13:02.541Z</time></trkpt><trkpt lat="45.6808204" lon="11.6396665"><ele>65.0</ele><time>2026-05-02T16:13:04.541Z</time></trkpt><trkpt lat="45.6807506" lon="11.6395942"><ele>65.0</ele><time>2026-05-02T16:13:06.54Z</time></trkpt><trkpt lat="45.6806852" lon="11.6395296"><ele>65.0</ele><time>2026-05-02T16:13:08.54Z</time></trkpt><trkpt lat="45.6806074" lon="11.639434"><ele>65.0</ele><time>2026-05-02T16:13:10.541Z</time></trkpt><trkpt lat="45.6805213" lon="11.639323"><ele>65.0</ele><time>2026-05-02T16:13:12.541Z</time></trkpt><trkpt lat="45.6804329" lon="11.6392214"><ele>65.0</ele><time>2026-05-02T16:13:14.542Z</time></trkpt><trkpt lat="45.680353" lon="11.6391425"><ele>64.8</ele><time>2026-05-02T16:13:16.541Z</time></trkpt><trkpt lat="45.6802825" lon="11.6390587"><ele>64.6</ele><time>2026-05-02T16:13:18.541Z</time></trkpt><trkpt lat="45.6802143" lon="11.6389697"><ele>64.4</ele><time>2026-05-02T16:13:20.542Z</time></trkpt><trkpt lat="45.6801318" lon="11.638877"><ele>64.2</ele><time>2026-05-02T16:13:22.542Z</time></trkpt><trkpt lat="45.6800584" lon="11.6387974"><ele>64.0</ele><time>2026-05-02T16:13:24.542Z</time></trkpt><trkpt lat="45.6799785" lon="11.6387046"><ele>64.0</ele><time>2026-05-02T16:13:26.542Z</time></trkpt><trkpt lat="45.6799004" lon="11.6386128"><ele>64.0</ele><time>2026-05-02T16:13:28.542Z</time></trkpt><trkpt lat="45.6798232" lon="11.6385217"><ele>64.0</ele><time>2026-05-02T16:13:30.542Z</time></trkpt><trkpt lat="45.6797343" lon="11.6384369"><ele>64.0</ele><time>2026-05-02T16:13:32.542Z</time></trkpt><trkpt lat="45.6796386" lon="11.6383674"><ele>64.0</ele><time>2026-05-02T16:13:34.542Z</time></trkpt><trkpt lat="45.6795481" lon="11.6383008"><ele>64.0</ele><time>2026-05-02T16:13:36.541Z</time></trkpt><trkpt lat="45.6794619" lon="11.6382366"><ele>64.0</ele><time>2026-05-02T16:13:38.542Z</time></trkpt><trkpt lat="45.6793722" lon="11.6381804"><ele>64.0</ele><time>2026-05-02T16:13:40.542Z</time></trkpt><trkpt lat="45.6792776" lon="11.6381376"><ele>64.0</ele><time>2026-05-02T16:13:42.542Z</time></trkpt><trkpt lat="45.6791815" lon="11.6381009"><ele>64.0</ele><time>2026-05-02T16:13:44.542Z</time></trkpt><trkpt lat="45.6790818" lon="11.6380781"><ele>64.0</ele><time>2026-05-02T16:13:46.542Z</time></trkpt><trkpt lat="45.6789713" lon="11.6380597"><ele>64.0</ele><time>2026-05-02T16:13:48.542Z</time></trkpt><trkpt lat="45.6788607" lon="11.6380454"><ele>64.0</ele><time>2026-05-02T16:13:50.541Z</time></trkpt><trkpt lat="45.6787546" lon="11.6380244"><ele>64.0</ele><time>2026-05-02T16:13:52.542Z</time></trkpt><trkpt lat="45.6786515" lon="11.6379969"><ele>64.0</ele><time>2026-05-02T16:13:54.542Z</time></trkpt><trkpt lat="45.67855" lon="11.6379808"><ele>63.400000000000006</ele><time>2026-05-02T16:13:56.542Z</time></trkpt><trkpt lat="45.6784465" lon="11.6379635"><ele>62.800000000000004</ele><time>2026-05-02T16:13:58.542Z</time></trkpt><trkpt lat="45.678342" lon="11.6379405"><ele>62.199999999999996</ele><time>2026-05-02T16:14:00.541Z</time></trkpt><trkpt lat="45.6782363" lon="11.6379186"><ele>61.599999999999994</ele><time>2026-05-02T16:14:02.542Z</time></trkpt><trkpt lat="45.6781327" lon="11.6378992"><ele>61.0</ele><time>2026-05-02T16:14:04.542Z</time></trkpt><trkpt lat="45.6780317" lon="11.6378742"><ele>61.0</ele><time>2026-05-02T16:14:06.541Z</time></trkpt><trkpt lat="45.6779318" lon="11.6378565"><ele>60.99999999999999</ele><time>2026-05-02T16:14:08.542Z</time></trkpt><trkpt lat="45.6778304" lon="11.6378408"><ele>60.99999999999999</ele><time>2026-05-02T16:14:10.542Z</time></trkpt><trkpt lat="45.6777293" lon="11.6378199"><ele>61.0</ele><time>2026-05-02T16:14:12.542Z</time></trkpt><trkpt lat="45.6776294" lon="11.6377925"><ele>61.0</ele><time>2026-05-02T16:14:14.542Z</time></trkpt><trkpt lat="45.6775333" lon="11.6377724"><ele>61.199999999999996</ele><time>2026-05-02T16:14:16.541Z</time></trkpt><trkpt lat="45.6774396" lon="11.6377515"><ele>61.39999999999999</ele><time>2026-05-02T16:14:18.542Z</time></trkpt><trkpt lat="45.6773459" lon="11.6377316"><ele>61.6</ele><time>2026-05-02T16:14:20.541Z</time></trkpt><trkpt lat="45.6772489" lon="11.6377163"><ele>61.8</ele><time>2026-05-02T16:14:22.543Z</time></trkpt><trkpt lat="45.6771568" lon="11.6376983"><ele>62.0</ele><time>2026-05-02T16:14:24.543Z</time></trkpt><trkpt lat="45.6770689" lon="11.6376776"><ele>62.0</ele><time>2026-05-02T16:14:26.543Z</time></trkpt><trkpt lat="45.6769786" lon="11.6376564"><ele>62.0</ele><time>2026-05-02T16:14:28.542Z</time></trkpt><trkpt lat="45.6768791" lon="11.6376493"><ele>62.0</ele><time>2026-05-02T16:14:30.542Z</time></trkpt><trkpt lat="45.6767822" lon="11.6376263"><ele>62.0</ele><time>2026-05-02T16:14:32.543Z</time></trkpt><trkpt lat="45.676682" lon="11.637609"><ele>62.0</ele><time>2026-05-02T16:14:34.542Z</time></trkpt><trkpt lat="45.6765869" lon="11.6375881"><ele>62.2</ele><time>2026-05-02T16:14:36.543Z</time></trkpt><trkpt lat="45.6764931" lon="11.6375711"><ele>62.400000000000006</ele><time>2026-05-02T16:14:38.543Z</time></trkpt><trkpt lat="45.6764002" lon="11.6375547"><ele>62.599999999999994</ele><time>2026-05-02T16:14:40.543Z</time></trkpt><trkpt lat="45.6763048" lon="11.6375341"><ele>62.8</ele><time>2026-05-02T16:14:42.542Z</time></trkpt><trkpt lat="45.6762121" lon="11.6375119"><ele>63.0</ele><time>2026-05-02T16:14:44.543Z</time></trkpt><trkpt lat="45.67612" lon="11.6374949"><ele>62.833333333333336</ele><time>2026-05-02T16:14:46.542Z</time></trkpt><trkpt lat="45.6760337" lon="11.6374717"><ele>62.66666666666667</ele><time>2026-05-02T16:14:48.543Z</time></trkpt><trkpt lat="45.6759483" lon="11.6374439"><ele>62.5</ele><time>2026-05-02T16:14:50.542Z</time></trkpt><trkpt lat="45.6758639" lon="11.6374288"><ele>62.333333333333336</ele><time>2026-05-02T16:14:52.542Z</time></trkpt><trkpt lat="45.6757711" lon="11.6374137"><ele>62.16666666666667</ele><time>2026-05-02T16:14:54.543Z</time></trkpt><trkpt lat="45.6756784" lon="11.6373986"><ele>62.0</ele><time>2026-05-02T16:14:56.542Z</time></trkpt><trkpt lat="45.6755846" lon="11.6373834"><ele>62.0</ele><time>2026-05-02T16:14:58.543Z</time></trkpt><trkpt lat="45.675491" lon="11.6373607"><ele>62.0</ele><time>2026-05-02T16:15:00.542Z</time></trkpt><trkpt lat="45.6753975" lon="11.6373437"><ele>62.0</ele><time>2026-05-02T16:15:02.543Z</time></trkpt><trkpt lat="45.6753061" lon="11.6373267"><ele>62.0</ele><time>2026-05-02T16:15:04.542Z</time></trkpt><trkpt lat="45.6752185" lon="11.6373153"><ele>62.0</ele><time>2026-05-02T16:15:06.542Z</time></trkpt><trkpt lat="45.675128" lon="11.6372964"><ele>62.0</ele><time>2026-05-02T16:15:08.543Z</time></trkpt><trkpt lat="45.6750436" lon="11.6372663"><ele>62.0</ele><time>2026-05-02T16:15:10.544Z</time></trkpt><trkpt lat="45.6749505" lon="11.6372433"><ele>62.0</ele><time>2026-05-02T16:15:12.543Z</time></trkpt><trkpt lat="45.6748537" lon="11.6372215"><ele>62.0</ele><time>2026-05-02T16:15:14.542Z</time></trkpt><trkpt lat="45.6747571" lon="11.637199"><ele>62.0</ele><time>2026-05-02T16:15:16.543Z</time></trkpt><trkpt lat="45.6746664" lon="11.6371778"><ele>62.00000000000001</ele><time>2026-05-02T16:15:18.543Z</time></trkpt><trkpt lat="45.6745767" lon="11.6371584"><ele>62.0</ele><time>2026-05-02T16:15:20.543Z</time></trkpt><trkpt lat="45.6744825" lon="11.6371516"><ele>62.0</ele><time>2026-05-02T16:15:22.542Z</time></trkpt><trkpt lat="45.6743939" lon="11.6371386"><ele>62.0</ele><time>2026-05-02T16:15:24.544Z</time></trkpt><trkpt lat="45.6743037" lon="11.6371158"><ele>62.00000000000001</ele><time>2026-05-02T16:15:26.544Z</time></trkpt><trkpt lat="45.6742212" lon="11.6371001"><ele>62.0</ele><time>2026-05-02T16:15:28.543Z</time></trkpt><trkpt lat="45.6741326" lon="11.6370907"><ele>61.8</ele><time>2026-05-02T16:15:30.543Z</time></trkpt><trkpt lat="45.6740416" lon="11.6370708"><ele>61.6</ele><time>2026-05-02T16:15:32.544Z</time></trkpt><trkpt lat="45.673949" lon="11.6370458"><ele>61.39999999999999</ele><time>2026-05-02T16:15:34.544Z</time></trkpt><trkpt lat="45.6738561" lon="11.6370258"><ele>61.199999999999996</ele><time>2026-05-02T16:15:36.544Z</time></trkpt><trkpt lat="45.6737615" lon="11.6370077"><ele>61.0</ele><time>2026-05-02T16:15:38.544Z</time></trkpt><trkpt lat="45.6736652" lon="11.6369867"><ele>61.199999999999996</ele><time>2026-05-02T16:15:40.543Z</time></trkpt><trkpt lat="45.6735715" lon="11.6369683"><ele>61.39999999999999</ele><time>2026-05-02T16:15:42.543Z</time></trkpt><trkpt lat="45.6734767" lon="11.6369535"><ele>61.6</ele><time>2026-05-02T16:15:44.544Z</time></trkpt><trkpt lat="45.6733771" lon="11.6369309"><ele>61.8</ele><time>2026-05-02T16:15:46.543Z</time></trkpt><trkpt lat="45.6732785" lon="11.6369064"><ele>62.0</ele><time>2026-05-02T16:15:48.544Z</time></trkpt><trkpt lat="45.6731835" lon="11.6368852"><ele>62.0</ele><time>2026-05-02T16:15:50.543Z</time></trkpt><trkpt lat="45.6730887" lon="11.6368643"><ele>62.0</ele><time>2026-05-02T16:15:52.544Z</time></trkpt><trkpt lat="45.6729966" lon="11.6368441"><ele>62.0</ele><time>2026-05-02T16:15:54.543Z</time></trkpt><trkpt lat="45.6729042" lon="11.6368281"><ele>62.0</ele><time>2026-05-02T16:15:56.544Z</time></trkpt><trkpt lat="45.6728091" lon="11.6368104"><ele>62.0</ele><time>2026-05-02T16:15:58.543Z</time></trkpt><trkpt lat="45.6727107" lon="11.6367863"><ele>61.6</ele><time>2026-05-02T16:16:00.543Z</time></trkpt><trkpt lat="45.6726122" lon="11.6367669"><ele>61.2</ele><time>2026-05-02T16:16:02.543Z</time></trkpt><trkpt lat="45.6725112" lon="11.6367459"><ele>60.8</ele><time>2026-05-02T16:16:04.544Z</time></trkpt><trkpt lat="45.6724114" lon="11.6367274"><ele>60.4</ele><time>2026-05-02T16:16:06.544Z</time></trkpt><trkpt lat="45.6723191" lon="11.6367031"><ele>60.0</ele><time>2026-05-02T16:16:08.544Z</time></trkpt><trkpt lat="45.6722226" lon="11.6366944"><ele>60.0</ele><time>2026-05-02T16:16:10.544Z</time></trkpt><trkpt lat="45.6721251" lon="11.6366776"><ele>60.0</ele><time>2026-05-02T16:16:12.544Z</time></trkpt><trkpt lat="45.6720294" lon="11.6366545"><ele>60.0</ele><time>2026-05-02T16:16:14.544Z</time></trkpt><trkpt lat="45.6719337" lon="11.6366407"><ele>60.0</ele><time>2026-05-02T16:16:16.544Z</time></trkpt><trkpt lat="45.6718417" lon="11.636617"><ele>60.0</ele><time>2026-05-02T16:16:18.544Z</time></trkpt><trkpt lat="45.6717487" lon="11.6365975"><ele>60.2</ele><time>2026-05-02T16:16:20.544Z</time></trkpt><trkpt lat="45.6716584" lon="11.6365716"><ele>60.4</ele><time>2026-05-02T16:16:22.544Z</time></trkpt><trkpt lat="45.6715657" lon="11.6365528"><ele>60.599999999999994</ele><time>2026-05-02T16:16:24.543Z</time></trkpt><trkpt lat="45.6714744" lon="11.6365359"><ele>60.8</ele><time>2026-05-02T16:16:26.544Z</time></trkpt><trkpt lat="45.6713807" lon="11.6365169"><ele>61.0</ele><time>2026-05-02T16:16:28.545Z</time></trkpt><trkpt lat="45.6712853" lon="11.6364981"><ele>61.0</ele><time>2026-05-02T16:16:30.545Z</time></trkpt><trkpt lat="45.6711943" lon="11.6364709"><ele>60.99999999999999</ele><time>2026-05-02T16:16:32.545Z</time></trkpt><trkpt lat="45.671098" lon="11.6364552"><ele>60.99999999999999</ele><time>2026-05-02T16:16:34.545Z</time></trkpt><trkpt lat="45.6710016" lon="11.6364385"><ele>61.0</ele><time>2026-05-02T16:16:36.544Z</time></trkpt><trkpt lat="45.6709095" lon="11.6364154"><ele>61.0</ele><time>2026-05-02T16:16:38.545Z</time></trkpt><trkpt lat="45.6708182" lon="11.6363938"><ele>60.4</ele><time>2026-05-02T16:16:40.544Z</time></trkpt><trkpt lat="45.6707288" lon="11.6363781"><ele>59.8</ele><time>2026-05-02T16:16:42.545Z</time></trkpt><trkpt lat="45.6706393" lon="11.6363597"><ele>59.199999999999996</ele><time>2026-05-02T16:16:44.544Z</time></trkpt><trkpt lat="45.6705512" lon="11.6363408"><ele>58.599999999999994</ele><time>2026-05-02T16:16:46.545Z</time></trkpt><trkpt lat="45.6704604" lon="11.6363229"><ele>58.0</ele><time>2026-05-02T16:16:48.545Z</time></trkpt><trkpt lat="45.6703695" lon="11.6363041"><ele>58.0</ele><time>2026-05-02T16:16:50.544Z</time></trkpt><trkpt lat="45.6702807" lon="11.6362835"><ele>58.0</ele><time>2026-05-02T16:16:52.545Z</time></trkpt><trkpt lat="45.6701928" lon="11.6362686"><ele>58.0</ele><time>2026-05-02T16:16:54.545Z</time></trkpt><trkpt lat="45.670094" lon="11.6362522"><ele>58.0</ele><time>2026-05-02T16:16:56.545Z</time></trkpt><trkpt lat="45.6699955" lon="11.6362287"><ele>58.0</ele><time>2026-05-02T16:16:58.545Z</time></trkpt><trkpt lat="45.669897" lon="11.6362106"><ele>58.2</ele><time>2026-05-02T16:17:00.545Z</time></trkpt><trkpt lat="45.6697992" lon="11.6361956"><ele>58.4</ele><time>2026-05-02T16:17:02.545Z</time></trkpt><trkpt lat="45.6697035" lon="11.6361786"><ele>58.60000000000001</ele><time>2026-05-02T16:17:04.545Z</time></trkpt><trkpt lat="45.6696074" lon="11.6361587"><ele>58.800000000000004</ele><time>2026-05-02T16:17:06.544Z</time></trkpt><trkpt lat="45.6695178" lon="11.6361392"><ele>59.0</ele><time>2026-05-02T16:17:08.545Z</time></trkpt><trkpt lat="45.6694267" lon="11.6361221"><ele>59.0</ele><time>2026-05-02T16:17:10.545Z</time></trkpt><trkpt lat="45.6693307" lon="11.6360993"><ele>59.00000000000001</ele><time>2026-05-02T16:17:12.545Z</time></trkpt><trkpt lat="45.6692293" lon="11.6360758"><ele>59.00000000000001</ele><time>2026-05-02T16:17:14.544Z</time></trkpt><trkpt lat="45.6691187" lon="11.6360648"><ele>59.0</ele><time>2026-05-02T16:17:16.545Z</time></trkpt><trkpt lat="45.6690264" lon="11.6360456"><ele>59.0</ele><time>2026-05-02T16:17:18.545Z</time></trkpt><trkpt lat="45.6689368" lon="11.6360235"><ele>59.00000000000001</ele><time>2026-05-02T16:17:20.545Z</time></trkpt><trkpt lat="45.6688447" lon="11.6360084"><ele>59.0</ele><time>2026-05-02T16:17:22.545Z</time></trkpt><trkpt lat="45.668762" lon="11.6359885"><ele>59.0</ele><time>2026-05-02T16:17:24.545Z</time></trkpt><trkpt lat="45.6686842" lon="11.6359757"><ele>59.0</ele><time>2026-05-02T16:17:26.545Z</time></trkpt><trkpt lat="45.6685982" lon="11.6359549"><ele>59.00000000000001</ele><time>2026-05-02T16:17:28.545Z</time></trkpt><trkpt lat="45.6685046" lon="11.63594"><ele>59.0</ele><time>2026-05-02T16:17:30.546Z</time></trkpt><trkpt lat="45.6684041" lon="11.6359177"><ele>59.0</ele><time>2026-05-02T16:17:32.545Z</time></trkpt><trkpt lat="45.6683076" lon="11.635894"><ele>59.00000000000001</ele><time>2026-05-02T16:17:34.546Z</time></trkpt><trkpt lat="45.6682082" lon="11.6358723"><ele>59.00000000000001</ele><time>2026-05-02T16:17:36.545Z</time></trkpt><trkpt lat="45.6681089" lon="11.6358565"><ele>59.0</ele><time>2026-05-02T16:17:38.546Z</time></trkpt><trkpt lat="45.6680152" lon="11.6358276"><ele>59.0</ele><time>2026-05-02T16:17:40.546Z</time></trkpt><trkpt lat="45.6679187" lon="11.6358044"><ele>59.0</ele><time>2026-05-02T16:17:42.546Z</time></trkpt><trkpt lat="45.6678238" lon="11.6357852"><ele>59.00000000000001</ele><time>2026-05-02T16:17:44.546Z</time></trkpt><trkpt lat="45.6677276" lon="11.6357621"><ele>59.00000000000001</ele><time>2026-05-02T16:17:46.546Z</time></trkpt><trkpt lat="45.6676269" lon="11.6357452"><ele>59.0</ele><time>2026-05-02T16:17:48.546Z</time></trkpt><trkpt lat="45.6675229" lon="11.6357221"><ele>59.0</ele><time>2026-05-02T16:17:50.546Z</time></trkpt><trkpt lat="45.6674225" lon="11.6357041"><ele>59.0</ele><time>2026-05-02T16:17:52.546Z</time></trkpt><trkpt lat="45.6673256" lon="11.6356845"><ele>59.00000000000001</ele><time>2026-05-02T16:17:54.545Z</time></trkpt><trkpt lat="45.6672249" lon="11.6356645"><ele>59.00000000000001</ele><time>2026-05-02T16:17:56.545Z</time></trkpt><trkpt lat="45.6671185" lon="11.6356455"><ele>59.0</ele><time>2026-05-02T16:17:58.545Z</time></trkpt><trkpt lat="45.6670132" lon="11.6356259"><ele>59.0</ele><time>2026-05-02T16:18:00.546Z</time></trkpt><trkpt lat="45.6669165" lon="11.6356103"><ele>59.0</ele><time>2026-05-02T16:18:02.546Z</time></trkpt><trkpt lat="45.6668324" lon="11.6355919"><ele>59.00000000000001</ele><time>2026-05-02T16:18:04.546Z</time></trkpt><trkpt lat="45.6667467" lon="11.6355706"><ele>59.00000000000001</ele><time>2026-05-02T16:18:06.545Z</time></trkpt><trkpt lat="45.6666578" lon="11.6355542"><ele>59.0</ele><time>2026-05-02T16:18:08.546Z</time></trkpt><trkpt lat="45.6665626" lon="11.6355343"><ele>59.0</ele><time>2026-05-02T16:18:10.546Z</time></trkpt><trkpt lat="45.6664668" lon="11.6355113"><ele>59.00000000000001</ele><time>2026-05-02T16:18:12.546Z</time></trkpt><trkpt lat="45.6663728" lon="11.6354947"><ele>59.0</ele><time>2026-05-02T16:18:14.546Z</time></trkpt><trkpt lat="45.666284" lon="11.6354772"><ele>59.0</ele><time>2026-05-02T16:18:16.545Z</time></trkpt><trkpt lat="45.6662" lon="11.6355092"><ele>59.0</ele><time>2026-05-02T16:18:19.636Z</time></trkpt><trkpt lat="45.6661026" lon="11.6354548"><ele>59.00000000000001</ele><time>2026-05-02T16:18:20.642Z</time></trkpt><trkpt lat="45.6660386" lon="11.6354393"><ele>59.0</ele><time>2026-05-02T16:18:22.554Z</time></trkpt><trkpt lat="45.6659358" lon="11.6354257"><ele>59.0</ele><time>2026-05-02T16:18:24.546Z</time></trkpt><trkpt lat="45.665841" lon="11.6354025"><ele>59.00000000000001</ele><time>2026-05-02T16:18:26.546Z</time></trkpt><trkpt lat="45.6657508" lon="11.6353794"><ele>59.00000000000001</ele><time>2026-05-02T16:18:28.546Z</time></trkpt><trkpt lat="45.6656562" lon="11.6353548"><ele>59.0</ele><time>2026-05-02T16:18:30.546Z</time></trkpt><trkpt lat="45.6655648" lon="11.6353315"><ele>59.0</ele><time>2026-05-02T16:18:32.546Z</time></trkpt><trkpt lat="45.6654778" lon="11.6353093"><ele>59.00000000000001</ele><time>2026-05-02T16:18:34.547Z</time></trkpt><trkpt lat="45.6653958" lon="11.6352935"><ele>59.0</ele><time>2026-05-02T16:18:36.546Z</time></trkpt><trkpt lat="45.665329" lon="11.635329"><ele>59.0</ele><time>2026-05-02T16:18:39.547Z</time></trkpt><trkpt lat="45.6652493" lon="11.6353253"><ele>59.0</ele><time>2026-05-02T16:18:41.556Z</time></trkpt><trkpt lat="45.6651573" lon="11.6353199"><ele>59.00000000000001</ele><time>2026-05-02T16:18:43.569Z</time></trkpt><trkpt lat="45.6650397" lon="11.6353152"><ele>59.0</ele><time>2026-05-02T16:18:45.547Z</time></trkpt><trkpt lat="45.6649378" lon="11.6353174"><ele>59.00000000000001</ele><time>2026-05-02T16:18:47.546Z</time></trkpt><trkpt lat="45.6648446" lon="11.635315"><ele>59.0</ele><time>2026-05-02T16:18:49.546Z</time></trkpt><trkpt lat="45.6647597" lon="11.6353016"><ele>59.0</ele><time>2026-05-02T16:18:51.546Z</time></trkpt><trkpt lat="45.6646825" lon="11.6352757"><ele>59.0</ele><time>2026-05-02T16:18:53.547Z</time></trkpt><trkpt lat="45.6646079" lon="11.6352728"><ele>59.00000000000001</ele><time>2026-05-02T16:18:55.547Z</time></trkpt><trkpt lat="45.6645486" lon="11.6353117"><ele>59.0</ele><time>2026-05-02T16:18:57.547Z</time></trkpt><trkpt lat="45.6645076" lon="11.635381"><ele>59.00000000000001</ele><time>2026-05-02T16:18:59.547Z</time></trkpt><trkpt lat="45.6644755" lon="11.6354756"><ele>59.0</ele><time>2026-05-02T16:19:01.546Z</time></trkpt><trkpt lat="45.6644456" lon="11.6355657"><ele>59.0</ele><time>2026-05-02T16:19:03.546Z</time></trkpt><trkpt lat="45.6644162" lon="11.6356646"><ele>59.0</ele><time>2026-05-02T16:19:05.547Z</time></trkpt><trkpt lat="45.6643368" lon="11.6356725"><ele>59.00000000000001</ele><time>2026-05-02T16:19:07.547Z</time></trkpt><trkpt lat="45.6642641" lon="11.6356296"><ele>59.0</ele><time>2026-05-02T16:19:09.547Z</time></trkpt><trkpt lat="45.6641901" lon="11.6355993"><ele>59.16666666666667</ele><time>2026-05-02T16:19:11.546Z</time></trkpt><trkpt lat="45.6641387" lon="11.6354975"><ele>59.333333333333336</ele><time>2026-05-02T16:19:13.547Z</time></trkpt><trkpt lat="45.6641028" lon="11.6354155"><ele>59.5</ele><time>2026-05-02T16:19:15.547Z</time></trkpt><trkpt lat="45.6640783" lon="11.6353035"><ele>59.66666666666667</ele><time>2026-05-02T16:19:18.546Z</time></trkpt><trkpt lat="45.6640207" lon="11.6352335"><ele>59.833333333333336</ele><time>2026-05-02T16:19:21.547Z</time></trkpt><trkpt lat="45.6639487" lon="11.6351733"><ele>60.0</ele><time>2026-05-02T16:19:24.547Z</time></trkpt><trkpt lat="45.6639205" lon="11.6350873"><ele>60.0</ele><time>2026-05-02T16:19:26.546Z</time></trkpt><trkpt lat="45.6638696" lon="11.6350169"><ele>60.0</ele><time>2026-05-02T16:19:28.546Z</time></trkpt><trkpt lat="45.6637947" lon="11.6349906"><ele>60.0</ele><time>2026-05-02T16:19:30.547Z</time></trkpt><trkpt lat="45.663715" lon="11.6349289"><ele>60.0</ele><time>2026-05-02T16:19:33.547Z</time></trkpt><trkpt lat="45.6636406" lon="11.6348626"><ele>60.0</ele><time>2026-05-02T16:19:35.548Z</time></trkpt><trkpt lat="45.6635791" lon="11.6347997"><ele>60.0</ele><time>2026-05-02T16:19:37.547Z</time></trkpt><trkpt lat="45.6635181" lon="11.6347318"><ele>59.833333333333336</ele><time>2026-05-02T16:19:39.548Z</time></trkpt><trkpt lat="45.6634685" lon="11.6346752"><ele>59.66666666666667</ele><time>2026-05-02T16:19:41.548Z</time></trkpt><trkpt lat="45.6634095" lon="11.6345816"><ele>59.5</ele><time>2026-05-02T16:19:44.547Z</time></trkpt><trkpt lat="45.6633401" lon="11.6344986"><ele>59.333333333333336</ele><time>2026-05-02T16:19:47.547Z</time></trkpt><trkpt lat="45.6632889" lon="11.6344313"><ele>59.16666666666667</ele><time>2026-05-02T16:19:49.548Z</time></trkpt><trkpt lat="45.6632247" lon="11.6343463"><ele>59.0</ele><time>2026-05-02T16:19:51.548Z</time></trkpt><trkpt lat="45.6631721" lon="11.634255"><ele>58.857142857142854</ele><time>2026-05-02T16:19:53.548Z</time></trkpt><trkpt lat="45.6631248" lon="11.6341864"><ele>58.71428571428572</ele><time>2026-05-02T16:19:55.548Z</time></trkpt><trkpt lat="45.6630762" lon="11.6341267"><ele>58.57142857142858</ele><time>2026-05-02T16:19:57.548Z</time></trkpt><trkpt lat="45.6630149" lon="11.6340378"><ele>58.42857142857143</ele><time>2026-05-02T16:20:00.547Z</time></trkpt><trkpt lat="45.6629458" lon="11.6339601"><ele>58.28571428571429</ele><time>2026-05-02T16:20:02.547Z</time></trkpt><trkpt lat="45.6628823" lon="11.6339125"><ele>58.14285714285715</ele><time>2026-05-02T16:20:04.547Z</time></trkpt><trkpt lat="45.6628223" lon="11.6338782"><ele>58.00000000000001</ele><time>2026-05-02T16:20:06.548Z</time></trkpt><trkpt lat="45.6627615" lon="11.6338309"><ele>57.99999999999999</ele><time>2026-05-02T16:20:08.548Z</time></trkpt><trkpt lat="45.6626918" lon="11.6337787"><ele>58.0</ele><time>2026-05-02T16:20:11.547Z</time></trkpt><trkpt lat="45.6626144" lon="11.6337172"><ele>58.0</ele><time>2026-05-02T16:20:14.548Z</time></trkpt><trkpt lat="45.6625569" lon="11.6336776"><ele>58.0</ele><time>2026-05-02T16:20:16.547Z</time></trkpt><trkpt lat="45.66247" lon="11.6336047"><ele>57.99999999999999</ele><time>2026-05-02T16:20:19.547Z</time></trkpt><trkpt lat="45.6623895" lon="11.6335207"><ele>58.0</ele><time>2026-05-02T16:20:21.548Z</time></trkpt><trkpt lat="45.6623063" lon="11.6334351"><ele>57.99999999999999</ele><time>2026-05-02T16:20:23.548Z</time></trkpt><trkpt lat="45.6622329" lon="11.6333556"><ele>58.0</ele><time>2026-05-02T16:20:25.548Z</time></trkpt><trkpt lat="45.6621728" lon="11.6332749"><ele>58.0</ele><time>2026-05-02T16:20:27.548Z</time></trkpt><trkpt lat="45.66211" lon="11.633196"><ele>58.0</ele><time>2026-05-02T16:20:29.548Z</time></trkpt><trkpt lat="45.6620476" lon="11.6331389"><ele>57.99999999999999</ele><time>2026-05-02T16:20:31.548Z</time></trkpt><trkpt lat="45.6619989" lon="11.6330647"><ele>58.0</ele><time>2026-05-02T16:20:33.547Z</time></trkpt><trkpt lat="45.6619878" lon="11.632969"><ele>58.0</ele><time>2026-05-02T16:20:35.548Z</time></trkpt><trkpt lat="45.6619335" lon="11.6328595"><ele>58.0</ele><time>2026-05-02T16:20:38.549Z</time></trkpt><trkpt lat="45.6619368" lon="11.6327342"><ele>58.0</ele><time>2026-05-02T16:20:40.549Z</time></trkpt><trkpt lat="45.6619368" lon="11.6325835"><ele>58.0</ele><time>2026-05-02T16:20:42.549Z</time></trkpt><trkpt lat="45.6619278" lon="11.6324351"><ele>58.0</ele><time>2026-05-02T16:20:44.548Z</time></trkpt><trkpt lat="45.6619285" lon="11.6323058"><ele>57.99999999999999</ele><time>2026-05-02T16:20:46.548Z</time></trkpt><trkpt lat="45.661929" lon="11.6321914"><ele>58.0</ele><time>2026-05-02T16:20:48.549Z</time></trkpt><trkpt lat="45.6619298" lon="11.632086"><ele>58.0</ele><time>2026-05-02T16:20:50.549Z</time></trkpt><trkpt lat="45.6619236" lon="11.6319803"><ele>58.0</ele><time>2026-05-02T16:20:52.549Z</time></trkpt><trkpt lat="45.6619209" lon="11.6318789"><ele>57.99999999999999</ele><time>2026-05-02T16:20:54.548Z</time></trkpt><trkpt lat="45.6619136" lon="11.6317759"><ele>58.0</ele><time>2026-05-02T16:20:56.549Z</time></trkpt><trkpt lat="45.6619123" lon="11.6316354"><ele>57.599999999999994</ele><time>2026-05-02T16:20:58.548Z</time></trkpt><trkpt lat="45.6619044" lon="11.6314778"><ele>57.199999999999996</ele><time>2026-05-02T16:21:00.549Z</time></trkpt><trkpt lat="45.6619008" lon="11.6313391"><ele>56.8</ele><time>2026-05-02T16:21:02.549Z</time></trkpt><trkpt lat="45.6618952" lon="11.6312156"><ele>56.4</ele><time>2026-05-02T16:21:04.549Z</time></trkpt><trkpt lat="45.6618903" lon="11.6310986"><ele>56.0</ele><time>2026-05-02T16:21:06.548Z</time></trkpt><trkpt lat="45.6618883" lon="11.6309896"><ele>56.00000000000001</ele><time>2026-05-02T16:21:08.549Z</time></trkpt><trkpt lat="45.661884" lon="11.6308925"><ele>56.0</ele><time>2026-05-02T16:21:10.549Z</time></trkpt><trkpt lat="45.6618765" lon="11.6307934"><ele>56.0</ele><time>2026-05-02T16:21:12.549Z</time></trkpt><trkpt lat="45.6618837" lon="11.6306737"><ele>56.0</ele><time>2026-05-02T16:21:14.549Z</time></trkpt><trkpt lat="45.6618782" lon="11.6305283"><ele>56.00000000000001</ele><time>2026-05-02T16:21:16.549Z</time></trkpt><trkpt lat="45.661869" lon="11.6303996"><ele>56.0</ele><time>2026-05-02T16:21:18.549Z</time></trkpt><trkpt lat="45.661862" lon="11.6302872"><ele>55.833333333333336</ele><time>2026-05-02T16:21:20.549Z</time></trkpt><trkpt lat="45.6618612" lon="11.6301827"><ele>55.66666666666667</ele><time>2026-05-02T16:21:22.549Z</time></trkpt><trkpt lat="45.6618608" lon="11.6300846"><ele>55.5</ele><time>2026-05-02T16:21:24.549Z</time></trkpt><trkpt lat="45.6618558" lon="11.6299615"><ele>55.33333333333333</ele><time>2026-05-02T16:21:26.549Z</time></trkpt><trkpt lat="45.6618528" lon="11.629828"><ele>55.166666666666664</ele><time>2026-05-02T16:21:28.549Z</time></trkpt><trkpt lat="45.6618518" lon="11.6297034"><ele>55.0</ele><time>2026-05-02T16:21:30.549Z</time></trkpt><trkpt lat="45.6618496" lon="11.6295826"><ele>55.33333333333333</ele><time>2026-05-02T16:21:32.548Z</time></trkpt><trkpt lat="45.6618505" lon="11.6294659"><ele>55.666666666666664</ele><time>2026-05-02T16:21:34.549Z</time></trkpt><trkpt lat="45.6618484" lon="11.6293589"><ele>56.0</ele><time>2026-05-02T16:21:36.549Z</time></trkpt><trkpt lat="45.6618411" lon="11.6292616"><ele>56.33333333333333</ele><time>2026-05-02T16:21:38.549Z</time></trkpt><trkpt lat="45.6618334" lon="11.6291481"><ele>56.666666666666664</ele><time>2026-05-02T16:21:40.548Z</time></trkpt><trkpt lat="45.6618353" lon="11.6290286"><ele>57.0</ele><time>2026-05-02T16:21:42.55Z</time></trkpt><trkpt lat="45.6618296" lon="11.6288882"><ele>57.0</ele><time>2026-05-02T16:21:44.549Z</time></trkpt><trkpt lat="45.6618164" lon="11.6287512"><ele>57.0</ele><time>2026-05-02T16:21:46.55Z</time></trkpt><trkpt lat="45.6618183" lon="11.6286408"><ele>57.0</ele><time>2026-05-02T16:21:48.55Z</time></trkpt><trkpt lat="45.6618125" lon="11.6285293"><ele>57.0</ele><time>2026-05-02T16:21:50.55Z</time></trkpt><trkpt lat="45.6618021" lon="11.628422"><ele>57.0</ele><time>2026-05-02T16:21:52.55Z</time></trkpt><trkpt lat="45.6618029" lon="11.628326"><ele>57.0</ele><time>2026-05-02T16:21:54.55Z</time></trkpt><trkpt lat="45.6618087" lon="11.6282242"><ele>57.0</ele><time>2026-05-02T16:21:56.549Z</time></trkpt><trkpt lat="45.6618085" lon="11.6281124"><ele>57.0</ele><time>2026-05-02T16:21:58.55Z</time></trkpt><trkpt lat="45.6618053" lon="11.6279851"><ele>57.0</ele><time>2026-05-02T16:22:00.55Z</time></trkpt><trkpt lat="45.6618004" lon="11.6278567"><ele>57.0</ele><time>2026-05-02T16:22:02.55Z</time></trkpt><trkpt lat="45.6617979" lon="11.6277419"><ele>57.0</ele><time>2026-05-02T16:22:04.55Z</time></trkpt><trkpt lat="45.6617911" lon="11.6276324"><ele>57.0</ele><time>2026-05-02T16:22:06.55Z</time></trkpt><trkpt lat="45.6617878" lon="11.6275307"><ele>57.0</ele><time>2026-05-02T16:22:08.55Z</time></trkpt><trkpt lat="45.6617761" lon="11.6274298"><ele>56.99999999999999</ele><time>2026-05-02T16:22:10.55Z</time></trkpt><trkpt lat="45.6617802" lon="11.627336"><ele>57.0</ele><time>2026-05-02T16:22:12.55Z</time></trkpt><trkpt lat="45.6617733" lon="11.6272323"><ele>57.0</ele><time>2026-05-02T16:22:14.549Z</time></trkpt><trkpt lat="45.6617743" lon="11.6271256"><ele>56.99999999999999</ele><time>2026-05-02T16:22:16.55Z</time></trkpt><trkpt lat="45.6617775" lon="11.6270344"><ele>57.0</ele><time>2026-05-02T16:22:18.55Z</time></trkpt><trkpt lat="45.6617713" lon="11.6269444"><ele>57.0</ele><time>2026-05-02T16:22:20.549Z</time></trkpt><trkpt lat="45.6617616" lon="11.6268173"><ele>57.0</ele><time>2026-05-02T16:22:23.55Z</time></trkpt><trkpt lat="45.6617632" lon="11.6267027"><ele>57.0</ele><time>2026-05-02T16:22:26.549Z</time></trkpt><trkpt lat="45.6617554" lon="11.6265989"><ele>57.0</ele><time>2026-05-02T16:22:29.55Z</time></trkpt><trkpt lat="45.6617513" lon="11.6264583"><ele>57.0</ele><time>2026-05-02T16:22:32.549Z</time></trkpt><trkpt lat="45.6617432" lon="11.6263419"><ele>57.0</ele><time>2026-05-02T16:22:34.549Z</time></trkpt><trkpt lat="45.6617441" lon="11.6262287"><ele>57.0</ele><time>2026-05-02T16:22:36.55Z</time></trkpt><trkpt lat="45.66174" lon="11.6261269"><ele>57.0</ele><time>2026-05-02T16:22:38.55Z</time></trkpt><trkpt lat="45.6617349" lon="11.6260321"><ele>57.0</ele><time>2026-05-02T16:22:40.549Z</time></trkpt><trkpt lat="45.6617299" lon="11.6259005"><ele>57.0</ele><time>2026-05-02T16:22:43.549Z</time></trkpt><trkpt lat="45.661726" lon="11.6257804"><ele>57.0</ele><time>2026-05-02T16:22:46.551Z</time></trkpt><trkpt lat="45.6617241" lon="11.625651"><ele>57.0</ele><time>2026-05-02T16:22:49.551Z</time></trkpt><trkpt lat="45.6617196" lon="11.6255449"><ele>57.0</ele><time>2026-05-02T16:22:51.551Z</time></trkpt><trkpt lat="45.6617141" lon="11.625448"><ele>57.0</ele><time>2026-05-02T16:22:53.551Z</time></trkpt><trkpt lat="45.6617123" lon="11.6253506"><ele>56.99999999999999</ele><time>2026-05-02T16:22:55.55Z</time></trkpt><trkpt lat="45.6617152" lon="11.6252595"><ele>57.0</ele><time>2026-05-02T16:22:57.551Z</time></trkpt><trkpt lat="45.6617063" lon="11.6251525"><ele>57.0</ele><time>2026-05-02T16:22:59.55Z</time></trkpt><trkpt lat="45.6617035" lon="11.6250512"><ele>56.99999999999999</ele><time>2026-05-02T16:23:01.551Z</time></trkpt><trkpt lat="45.6617082" lon="11.6249517"><ele>57.0</ele><time>2026-05-02T16:23:03.551Z</time></trkpt><trkpt lat="45.6617005" lon="11.62483"><ele>57.0</ele><time>2026-05-02T16:23:05.55Z</time></trkpt><trkpt lat="45.6616754" lon="11.6247154"><ele>56.833333333333336</ele><time>2026-05-02T16:23:07.551Z</time></trkpt><trkpt lat="45.6616694" lon="11.6246143"><ele>56.66666666666667</ele><time>2026-05-02T16:23:09.551Z</time></trkpt><trkpt lat="45.6616736" lon="11.6245138"><ele>56.5</ele><time>2026-05-02T16:23:11.55Z</time></trkpt><trkpt lat="45.6616768" lon="11.6244116"><ele>56.333333333333336</ele><time>2026-05-02T16:23:13.55Z</time></trkpt><trkpt lat="45.6616769" lon="11.624277"><ele>56.16666666666667</ele><time>2026-05-02T16:23:16.551Z</time></trkpt><trkpt lat="45.6616772" lon="11.6241618"><ele>56.0</ele><time>2026-05-02T16:23:18.551Z</time></trkpt><trkpt lat="45.6616786" lon="11.6240133"><ele>55.833333333333336</ele><time>2026-05-02T16:23:20.55Z</time></trkpt><trkpt lat="45.6616722" lon="11.623883"><ele>55.66666666666667</ele><time>2026-05-02T16:23:22.551Z</time></trkpt><trkpt lat="45.6616645" lon="11.6237653"><ele>55.5</ele><time>2026-05-02T16:23:24.551Z</time></trkpt><trkpt lat="45.6616619" lon="11.6236477"><ele>55.33333333333333</ele><time>2026-05-02T16:23:26.55Z</time></trkpt><trkpt lat="45.6616579" lon="11.6235312"><ele>55.166666666666664</ele><time>2026-05-02T16:23:28.551Z</time></trkpt><trkpt lat="45.6616681" lon="11.6234286"><ele>55.0</ele><time>2026-05-02T16:23:30.551Z</time></trkpt><trkpt lat="45.6616795" lon="11.6233371"><ele>55.33333333333333</ele><time>2026-05-02T16:23:32.551Z</time></trkpt><trkpt lat="45.6616776" lon="11.6231836"><ele>55.666666666666664</ele><time>2026-05-02T16:23:35.55Z</time></trkpt><trkpt lat="45.6616795" lon="11.6230407"><ele>56.0</ele><time>2026-05-02T16:23:37.55Z</time></trkpt><trkpt lat="45.6616718" lon="11.6229248"><ele>56.33333333333333</ele><time>2026-05-02T16:23:39.551Z</time></trkpt><trkpt lat="45.6616706" lon="11.6228203"><ele>56.666666666666664</ele><time>2026-05-02T16:23:41.551Z</time></trkpt><trkpt lat="45.6616781" lon="11.6227104"><ele>57.0</ele><time>2026-05-02T16:23:43.551Z</time></trkpt><trkpt lat="45.6616788" lon="11.6226087"><ele>57.0</ele><time>2026-05-02T16:23:45.551Z</time></trkpt><trkpt lat="45.6616671" lon="11.6225067"><ele>57.0</ele><time>2026-05-02T16:23:47.552Z</time></trkpt><trkpt lat="45.6616437" lon="11.6224152"><ele>57.0</ele><time>2026-05-02T16:23:49.551Z</time></trkpt><trkpt lat="45.6616374" lon="11.6222778"><ele>57.0</ele><time>2026-05-02T16:23:52.552Z</time></trkpt><trkpt lat="45.6616407" lon="11.6221449"><ele>57.0</ele><time>2026-05-02T16:23:54.552Z</time></trkpt><trkpt lat="45.6616314" lon="11.6220215"><ele>57.0</ele><time>2026-05-02T16:23:56.551Z</time></trkpt><trkpt lat="45.6616267" lon="11.6219217"><ele>56.833333333333336</ele><time>2026-05-02T16:23:58.552Z</time></trkpt><trkpt lat="45.6616282" lon="11.6218286"><ele>56.66666666666667</ele><time>2026-05-02T16:24:00.552Z</time></trkpt><trkpt lat="45.6616289" lon="11.6217349"><ele>56.5</ele><time>2026-05-02T16:24:02.551Z</time></trkpt><trkpt lat="45.6616298" lon="11.6216135"><ele>56.333333333333336</ele><time>2026-05-02T16:24:04.551Z</time></trkpt><trkpt lat="45.6616274" lon="11.6214755"><ele>56.16666666666667</ele><time>2026-05-02T16:24:06.552Z</time></trkpt><trkpt lat="45.6616197" lon="11.6213557"><ele>56.0</ele><time>2026-05-02T16:24:08.552Z</time></trkpt><trkpt lat="45.6616195" lon="11.6212435"><ele>56.00000000000001</ele><time>2026-05-02T16:24:10.552Z</time></trkpt><trkpt lat="45.6616211" lon="11.6211493"><ele>56.0</ele><time>2026-05-02T16:24:12.552Z</time></trkpt><trkpt lat="45.661623" lon="11.6210573"><ele>56.0</ele><time>2026-05-02T16:24:14.552Z</time></trkpt><trkpt lat="45.6616193" lon="11.62093"><ele>56.0</ele><time>2026-05-02T16:24:17.552Z</time></trkpt><trkpt lat="45.6616118" lon="11.620825"><ele>56.00000000000001</ele><time>2026-05-02T16:24:19.552Z</time></trkpt><trkpt lat="45.6616042" lon="11.6206803"><ele>56.0</ele><time>2026-05-02T16:24:21.551Z</time></trkpt><trkpt lat="45.6616013" lon="11.6205408"><ele>56.333333333333336</ele><time>2026-05-02T16:24:23.552Z</time></trkpt><trkpt lat="45.6616034" lon="11.6204212"><ele>56.66666666666667</ele><time>2026-05-02T16:24:25.552Z</time></trkpt><trkpt lat="45.6615964" lon="11.6203136"><ele>57.0</ele><time>2026-05-02T16:24:27.552Z</time></trkpt><trkpt lat="45.6615891" lon="11.6202136"><ele>57.33333333333333</ele><time>2026-05-02T16:24:29.552Z</time></trkpt><trkpt lat="45.6615522" lon="11.6201347"><ele>57.666666666666664</ele><time>2026-05-02T16:24:31.552Z</time></trkpt><trkpt lat="45.6615219" lon="11.6200224"><ele>58.0</ele><time>2026-05-02T16:24:34.551Z</time></trkpt><trkpt lat="45.6615685" lon="11.6199207"><ele>57.99999999999999</ele><time>2026-05-02T16:24:37.552Z</time></trkpt><trkpt lat="45.661613" lon="11.6198473"><ele>58.0</ele><time>2026-05-02T16:24:39.552Z</time></trkpt><trkpt lat="45.6616133" lon="11.6197145"><ele>58.0</ele><time>2026-05-02T16:24:41.552Z</time></trkpt><trkpt lat="45.6616021" lon="11.6195724"><ele>58.0</ele><time>2026-05-02T16:24:43.552Z</time></trkpt><trkpt lat="45.6616018" lon="11.6194523"><ele>57.99999999999999</ele><time>2026-05-02T16:24:45.552Z</time></trkpt><trkpt lat="45.6615994" lon="11.6193437"><ele>58.0</ele><time>2026-05-02T16:24:47.552Z</time></trkpt><trkpt lat="45.6615987" lon="11.6192382"><ele>57.99999999999999</ele><time>2026-05-02T16:24:49.553Z</time></trkpt><trkpt lat="45.6616013" lon="11.6191373"><ele>58.0</ele><time>2026-05-02T16:24:51.553Z</time></trkpt><trkpt lat="45.6615969" lon="11.6190405"><ele>58.0</ele><time>2026-05-02T16:24:53.553Z</time></trkpt><trkpt lat="45.6615981" lon="11.6189488"><ele>58.0</ele><time>2026-05-02T16:24:55.553Z</time></trkpt><trkpt lat="45.6616023" lon="11.6188296"><ele>57.99999999999999</ele><time>2026-05-02T16:24:57.553Z</time></trkpt><trkpt lat="45.6616166" lon="11.6186979"><ele>58.0</ele><time>2026-05-02T16:24:59.553Z</time></trkpt><trkpt lat="45.6616188" lon="11.6185669"><ele>58.00000000000001</ele><time>2026-05-02T16:25:01.552Z</time></trkpt><trkpt lat="45.6616081" lon="11.6184451"><ele>58.0</ele><time>2026-05-02T16:25:03.553Z</time></trkpt><trkpt lat="45.6616046" lon="11.618333"><ele>58.00000000000001</ele><time>2026-05-02T16:25:05.553Z</time></trkpt><trkpt lat="45.6616036" lon="11.6182275"><ele>58.00000000000001</ele><time>2026-05-02T16:25:07.553Z</time></trkpt><trkpt lat="45.6616155" lon="11.6181316"><ele>58.0</ele><time>2026-05-02T16:25:09.553Z</time></trkpt><trkpt lat="45.6616142" lon="11.6180378"><ele>58.00000000000001</ele><time>2026-05-02T16:25:11.552Z</time></trkpt><trkpt lat="45.6616049" lon="11.617943"><ele>58.00000000000001</ele><time>2026-05-02T16:25:13.553Z</time></trkpt><trkpt lat="45.6615973" lon="11.6178226"><ele>57.83333333333333</ele><time>2026-05-02T16:25:15.553Z</time></trkpt><trkpt lat="45.6615981" lon="11.6177063"><ele>57.666666666666664</ele><time>2026-05-02T16:25:17.553Z</time></trkpt><trkpt lat="45.6615856" lon="11.6176031"><ele>57.5</ele><time>2026-05-02T16:25:19.553Z</time></trkpt><trkpt lat="45.6615708" lon="11.6174927"><ele>57.33333333333333</ele><time>2026-05-02T16:25:21.552Z</time></trkpt><trkpt lat="45.6615644" lon="11.61737"><ele>57.166666666666664</ele><time>2026-05-02T16:25:23.553Z</time></trkpt><trkpt lat="45.6615648" lon="11.6172475"><ele>57.0</ele><time>2026-05-02T16:25:25.553Z</time></trkpt><trkpt lat="45.6615679" lon="11.6171375"><ele>57.0</ele><time>2026-05-02T16:25:27.553Z</time></trkpt><trkpt lat="45.6615682" lon="11.6170366"><ele>57.0</ele><time>2026-05-02T16:25:29.553Z</time></trkpt><trkpt lat="45.6615595" lon="11.6169305"><ele>57.0</ele><time>2026-05-02T16:25:31.553Z</time></trkpt><trkpt lat="45.6615523" lon="11.6168148"><ele>57.0</ele><time>2026-05-02T16:25:33.552Z</time></trkpt><trkpt lat="45.6615569" lon="11.6166975"><ele>57.0</ele><time>2026-05-02T16:25:35.552Z</time></trkpt><trkpt lat="45.6615608" lon="11.6165802"><ele>57.0</ele><time>2026-05-02T16:25:37.553Z</time></trkpt><trkpt lat="45.6615585" lon="11.6164746"><ele>56.833333333333336</ele><time>2026-05-02T16:25:39.552Z</time></trkpt><trkpt lat="45.6615579" lon="11.616371"><ele>56.66666666666667</ele><time>2026-05-02T16:25:41.553Z</time></trkpt><trkpt lat="45.661554" lon="11.61626"><ele>56.5</ele><time>2026-05-02T16:25:43.552Z</time></trkpt><trkpt lat="45.6615537" lon="11.6161396"><ele>56.333333333333336</ele><time>2026-05-02T16:25:45.553Z</time></trkpt><trkpt lat="45.6615486" lon="11.616015"><ele>56.16666666666667</ele><time>2026-05-02T16:25:47.552Z</time></trkpt><trkpt lat="45.6615458" lon="11.6158888"><ele>56.0</ele><time>2026-05-02T16:25:49.554Z</time></trkpt><trkpt lat="45.661546" lon="11.6157619"><ele>56.00000000000001</ele><time>2026-05-02T16:25:51.554Z</time></trkpt><trkpt lat="45.6615381" lon="11.6156362"><ele>56.0</ele><time>2026-05-02T16:25:53.554Z</time></trkpt><trkpt lat="45.6615489" lon="11.6155095"><ele>56.0</ele><time>2026-05-02T16:25:55.553Z</time></trkpt><trkpt lat="45.6615498" lon="11.6153911"><ele>56.0</ele><time>2026-05-02T16:25:57.554Z</time></trkpt><trkpt lat="45.6615441" lon="11.615263"><ele>56.00000000000001</ele><time>2026-05-02T16:25:59.554Z</time></trkpt><trkpt lat="45.6615457" lon="11.6151341"><ele>56.0</ele><time>2026-05-02T16:26:01.554Z</time></trkpt><trkpt lat="45.6615443" lon="11.6150124"><ele>56.16666666666667</ele><time>2026-05-02T16:26:03.554Z</time></trkpt><trkpt lat="45.6615397" lon="11.6148874"><ele>56.333333333333336</ele><time>2026-05-02T16:26:05.554Z</time></trkpt><trkpt lat="45.6615414" lon="11.6147638"><ele>56.5</ele><time>2026-05-02T16:26:07.554Z</time></trkpt><trkpt lat="45.6615333" lon="11.6146389"><ele>56.66666666666667</ele><time>2026-05-02T16:26:09.553Z</time></trkpt><trkpt lat="45.6615269" lon="11.6145249"><ele>56.833333333333336</ele><time>2026-05-02T16:26:11.553Z</time></trkpt><trkpt lat="45.6615335" lon="11.6144254"><ele>57.0</ele><time>2026-05-02T16:26:13.554Z</time></trkpt><trkpt lat="45.6615305" lon="11.6143043"><ele>57.333333333333336</ele><time>2026-05-02T16:26:16.553Z</time></trkpt><trkpt lat="45.6615163" lon="11.6141794"><ele>57.66666666666667</ele><time>2026-05-02T16:26:19.554Z</time></trkpt><trkpt lat="45.6614776" lon="11.6140952"><ele>58.0</ele><time>2026-05-02T16:26:21.553Z</time></trkpt><trkpt lat="45.6613975" lon="11.6140338"><ele>58.333333333333336</ele><time>2026-05-02T16:26:23.554Z</time></trkpt><trkpt lat="45.6613625" lon="11.6139536"><ele>58.66666666666667</ele><time>2026-05-02T16:26:25.554Z</time></trkpt><trkpt lat="45.6613228" lon="11.6138377"><ele>59.0</ele><time>2026-05-02T16:26:28.554Z</time></trkpt><trkpt lat="45.6612542" lon="11.6137409"><ele>59.00000000000001</ele><time>2026-05-02T16:26:31.553Z</time></trkpt><trkpt lat="45.6612105" lon="11.613673"><ele>59.0</ele><time>2026-05-02T16:26:33.554Z</time></trkpt><trkpt lat="45.661139" lon="11.6135924"><ele>59.0</ele><time>2026-05-02T16:26:36.553Z</time></trkpt><trkpt lat="45.6610925" lon="11.6135067"><ele>59.0</ele><time>2026-05-02T16:26:39.553Z</time></trkpt><trkpt lat="45.6611366" lon="11.6134064"><ele>59.00000000000001</ele><time>2026-05-02T16:26:42.554Z</time></trkpt><trkpt lat="45.6611914" lon="11.6133199"><ele>59.0</ele><time>2026-05-02T16:26:45.554Z</time></trkpt><trkpt lat="45.6612514" lon="11.6132442"><ele>59.0</ele><time>2026-05-02T16:26:48.553Z</time></trkpt><trkpt lat="45.6613402" lon="11.6132666"><ele>59.00000000000001</ele><time>2026-05-02T16:26:51.554Z</time></trkpt><trkpt lat="45.6613993" lon="11.6133758"><ele>59.00000000000001</ele><time>2026-05-02T16:26:53.555Z</time></trkpt><trkpt lat="45.6614713" lon="11.6133961"><ele>59.0</ele><time>2026-05-02T16:26:55.554Z</time></trkpt><trkpt lat="45.6615402" lon="11.613278"><ele>59.0</ele><time>2026-05-02T16:26:57.554Z</time></trkpt><trkpt lat="45.661527" lon="11.6130923"><ele>59.0</ele><time>2026-05-02T16:26:59.555Z</time></trkpt><trkpt lat="45.6615123" lon="11.6129365"><ele>59.00000000000001</ele><time>2026-05-02T16:27:01.555Z</time></trkpt><trkpt lat="45.6615109" lon="11.6127838"><ele>59.00000000000001</ele><time>2026-05-02T16:27:03.555Z</time></trkpt><trkpt lat="45.6615114" lon="11.6126446"><ele>59.0</ele><time>2026-05-02T16:27:05.555Z</time></trkpt><trkpt lat="45.6615062" lon="11.6125137"><ele>59.0</ele><time>2026-05-02T16:27:07.554Z</time></trkpt><trkpt lat="45.6614993" lon="11.6123943"><ele>58.833333333333336</ele><time>2026-05-02T16:27:09.555Z</time></trkpt><trkpt lat="45.6615017" lon="11.6122845"><ele>58.66666666666667</ele><time>2026-05-02T16:27:11.555Z</time></trkpt><trkpt lat="45.6615004" lon="11.6121804"><ele>58.5</ele><time>2026-05-02T16:27:13.555Z</time></trkpt><trkpt lat="45.6614962" lon="11.6120774"><ele>58.33333333333333</ele><time>2026-05-02T16:27:15.555Z</time></trkpt><trkpt lat="45.6614896" lon="11.611962"><ele>58.166666666666664</ele><time>2026-05-02T16:27:17.555Z</time></trkpt><trkpt lat="45.6614804" lon="11.6118399"><ele>58.0</ele><time>2026-05-02T16:27:19.554Z</time></trkpt><trkpt lat="45.6614573" lon="11.6117373"><ele>57.99999999999999</ele><time>2026-05-02T16:27:21.555Z</time></trkpt><trkpt lat="45.6614412" lon="11.6116368"><ele>58.0</ele><time>2026-05-02T16:27:23.554Z</time></trkpt><trkpt lat="45.6614432" lon="11.6115438"><ele>58.0</ele><time>2026-05-02T16:27:25.554Z</time></trkpt><trkpt lat="45.6614731" lon="11.6114546"><ele>58.0</ele><time>2026-05-02T16:27:27.555Z</time></trkpt><trkpt lat="45.6614863" lon="11.6113223"><ele>57.99999999999999</ele><time>2026-05-02T16:27:29.555Z</time></trkpt><trkpt lat="45.6614781" lon="11.6111901"><ele>58.0</ele><time>2026-05-02T16:27:31.555Z</time></trkpt><trkpt lat="45.6614782" lon="11.6110828"><ele>58.166666666666664</ele><time>2026-05-02T16:27:33.555Z</time></trkpt><trkpt lat="45.6614781" lon="11.6109751"><ele>58.33333333333333</ele><time>2026-05-02T16:27:35.555Z</time></trkpt><trkpt lat="45.6614852" lon="11.6108788"><ele>58.5</ele><time>2026-05-02T16:27:37.555Z</time></trkpt><trkpt lat="45.6614818" lon="11.6107761"><ele>58.66666666666667</ele><time>2026-05-02T16:27:39.555Z</time></trkpt><trkpt lat="45.6614792" lon="11.6106813"><ele>58.833333333333336</ele><time>2026-05-02T16:27:41.555Z</time></trkpt><trkpt lat="45.6614831" lon="11.6105584"><ele>59.0</ele><time>2026-05-02T16:27:44.554Z</time></trkpt><trkpt lat="45.6614807" lon="11.6104316"><ele>58.71428571428571</ele><time>2026-05-02T16:27:47.555Z</time></trkpt><trkpt lat="45.6614822" lon="11.6103226"><ele>58.42857142857143</ele><time>2026-05-02T16:27:49.555Z</time></trkpt><trkpt lat="45.6614764" lon="11.610194"><ele>58.14285714285714</ele><time>2026-05-02T16:27:51.556Z</time></trkpt><trkpt lat="45.6614771" lon="11.6100797"><ele>57.857142857142854</ele><time>2026-05-02T16:27:53.556Z</time></trkpt><trkpt lat="45.661479" lon="11.6099812"><ele>57.57142857142857</ele><time>2026-05-02T16:27:55.555Z</time></trkpt><trkpt lat="45.6614757" lon="11.6098872"><ele>57.285714285714285</ele><time>2026-05-02T16:27:57.555Z</time></trkpt><trkpt lat="45.6614726" lon="11.6097968"><ele>57.0</ele><time>2026-05-02T16:27:59.555Z</time></trkpt><trkpt lat="45.6614726" lon="11.6096799"><ele>57.0</ele><time>2026-05-02T16:28:01.556Z</time></trkpt><trkpt lat="45.6614624" lon="11.6095532"><ele>56.99999999999999</ele><time>2026-05-02T16:28:03.556Z</time></trkpt><trkpt lat="45.6614606" lon="11.609447"><ele>57.0</ele><time>2026-05-02T16:28:05.556Z</time></trkpt><trkpt lat="45.6614529" lon="11.6093499"><ele>57.0</ele><time>2026-05-02T16:28:07.556Z</time></trkpt><trkpt lat="45.6614509" lon="11.6092532"><ele>56.99999999999999</ele><time>2026-05-02T16:28:09.556Z</time></trkpt><trkpt lat="45.6614566" lon="11.609162"><ele>57.0</ele><time>2026-05-02T16:28:11.556Z</time></trkpt><trkpt lat="45.6614513" lon="11.6090627"><ele>57.0</ele><time>2026-05-02T16:28:13.555Z</time></trkpt><trkpt lat="45.6614434" lon="11.6089305"><ele>57.2</ele><time>2026-05-02T16:28:15.555Z</time></trkpt><trkpt lat="45.6614387" lon="11.6087786"><ele>57.400000000000006</ele><time>2026-05-02T16:28:17.556Z</time></trkpt><trkpt lat="45.6614342" lon="11.6086319"><ele>57.599999999999994</ele><time>2026-05-02T16:28:19.556Z</time></trkpt><trkpt lat="45.6614303" lon="11.6084805"><ele>57.8</ele><time>2026-05-02T16:28:21.555Z</time></trkpt><trkpt lat="45.6614282" lon="11.6083422"><ele>58.0</ele><time>2026-05-02T16:28:23.556Z</time></trkpt><trkpt lat="45.6614387" lon="11.6082197"><ele>58.33333333333333</ele><time>2026-05-02T16:28:25.555Z</time></trkpt><trkpt lat="45.6614459" lon="11.6081046"><ele>58.666666666666664</ele><time>2026-05-02T16:28:27.555Z</time></trkpt><trkpt lat="45.6614538" lon="11.6080037"><ele>59.0</ele><time>2026-05-02T16:28:29.556Z</time></trkpt><trkpt lat="45.6614572" lon="11.6079103"><ele>59.33333333333333</ele><time>2026-05-02T16:28:31.556Z</time></trkpt><trkpt lat="45.6614938" lon="11.6078067"><ele>59.666666666666664</ele><time>2026-05-02T16:28:34.555Z</time></trkpt><trkpt lat="45.6615746" lon="11.6077685"><ele>60.0</ele><time>2026-05-02T16:28:38.556Z</time></trkpt><trkpt lat="45.6616081" lon="11.6076744"><ele>60.42857142857143</ele><time>2026-05-02T16:28:40.556Z</time></trkpt><trkpt lat="45.661625" lon="11.6075875"><ele>60.857142857142854</ele><time>2026-05-02T16:28:42.556Z</time></trkpt><trkpt lat="45.6616596" lon="11.6074579"><ele>61.285714285714285</ele><time>2026-05-02T16:28:45.555Z</time></trkpt><trkpt lat="45.6616864" lon="11.6073625"><ele>61.714285714285715</ele><time>2026-05-02T16:28:47.556Z</time></trkpt><trkpt lat="45.6617222" lon="11.6072749"><ele>62.14285714285714</ele><time>2026-05-02T16:28:49.556Z</time></trkpt><trkpt lat="45.6617489" lon="11.6071832"><ele>62.57142857142857</ele><time>2026-05-02T16:28:51.557Z</time></trkpt><trkpt lat="45.6617743" lon="11.6070967"><ele>63.0</ele><time>2026-05-02T16:28:53.557Z</time></trkpt><trkpt lat="45.6618039" lon="11.6070074"><ele>63.14285714285714</ele><time>2026-05-02T16:28:55.557Z</time></trkpt><trkpt lat="45.6618323" lon="11.6069115"><ele>63.285714285714285</ele><time>2026-05-02T16:28:57.557Z</time></trkpt><trkpt lat="45.6618585" lon="11.6068231"><ele>63.42857142857143</ele><time>2026-05-02T16:28:59.557Z</time></trkpt><trkpt lat="45.6618889" lon="11.6067406"><ele>63.57142857142857</ele><time>2026-05-02T16:29:01.557Z</time></trkpt><trkpt lat="45.6619176" lon="11.6066566"><ele>63.71428571428571</ele><time>2026-05-02T16:29:03.556Z</time></trkpt><trkpt lat="45.661956" lon="11.6065425"><ele>63.857142857142854</ele><time>2026-05-02T16:29:06.557Z</time></trkpt><trkpt lat="45.6619895" lon="11.606432"><ele>64.0</ele><time>2026-05-02T16:29:09.557Z</time></trkpt><trkpt lat="45.6620201" lon="11.6063229"><ele>64.33333333333333</ele><time>2026-05-02T16:29:12.557Z</time></trkpt><trkpt lat="45.6620645" lon="11.6062089"><ele>64.66666666666666</ele><time>2026-05-02T16:29:15.556Z</time></trkpt><trkpt lat="45.6621096" lon="11.6061016"><ele>65.0</ele><time>2026-05-02T16:29:18.557Z</time></trkpt><trkpt lat="45.6621435" lon="11.6059874"><ele>65.33333333333333</ele><time>2026-05-02T16:29:21.557Z</time></trkpt><trkpt lat="45.6621852" lon="11.6058753"><ele>65.66666666666667</ele><time>2026-05-02T16:29:24.557Z</time></trkpt><trkpt lat="45.6622244" lon="11.6057552"><ele>66.0</ele><time>2026-05-02T16:29:27.557Z</time></trkpt><trkpt lat="45.6622573" lon="11.6056391"><ele>66.0</ele><time>2026-05-02T16:29:30.557Z</time></trkpt><trkpt lat="45.6622906" lon="11.6055366"><ele>66.0</ele><time>2026-05-02T16:29:33.557Z</time></trkpt><trkpt lat="45.6623222" lon="11.6054454"><ele>66.0</ele><time>2026-05-02T16:29:36.557Z</time></trkpt><trkpt lat="45.6623446" lon="11.6053554"><ele>66.0</ele><time>2026-05-02T16:29:40.557Z</time></trkpt><trkpt lat="45.6623752" lon="11.6052439"><ele>66.0</ele><time>2026-05-02T16:29:43.557Z</time></trkpt><trkpt lat="45.6624137" lon="11.6051286"><ele>66.0</ele><time>2026-05-02T16:29:46.557Z</time></trkpt><trkpt lat="45.6624405" lon="11.6050376"><ele>66.0</ele><time>2026-05-02T16:29:48.557Z</time></trkpt><trkpt lat="45.6624639" lon="11.604948"><ele>66.0</ele><time>2026-05-02T16:29:50.558Z</time></trkpt><trkpt lat="45.6624925" lon="11.6048542"><ele>66.0</ele><time>2026-05-02T16:29:52.557Z</time></trkpt><trkpt lat="45.662514" lon="11.6047597"><ele>66.0</ele><time>2026-05-02T16:29:54.557Z</time></trkpt><trkpt lat="45.6625364" lon="11.6046724"><ele>66.0</ele><time>2026-05-02T16:29:56.558Z</time></trkpt><trkpt lat="45.6625616" lon="11.6045478"><ele>66.0</ele><time>2026-05-02T16:29:59.558Z</time></trkpt><trkpt lat="45.6625762" lon="11.6044599"><ele>66.0</ele><time>2026-05-02T16:30:01.558Z</time></trkpt><trkpt lat="45.6625873" lon="11.6043259"><ele>66.16666666666667</ele><time>2026-05-02T16:30:04.558Z</time></trkpt><trkpt lat="45.6626062" lon="11.6042335"><ele>66.33333333333333</ele><time>2026-05-02T16:30:06.558Z</time></trkpt><trkpt lat="45.6626167" lon="11.6041409"><ele>66.5</ele><time>2026-05-02T16:30:08.558Z</time></trkpt><trkpt lat="45.6626362" lon="11.6040112"><ele>66.66666666666666</ele><time>2026-05-02T16:30:11.558Z</time></trkpt><trkpt lat="45.6626498" lon="11.6039215"><ele>66.83333333333333</ele><time>2026-05-02T16:30:13.558Z</time></trkpt><trkpt lat="45.6626707" lon="11.603788"><ele>67.0</ele><time>2026-05-02T16:30:16.558Z</time></trkpt><trkpt lat="45.6626809" lon="11.6036932"><ele>67.0</ele><time>2026-05-02T16:30:18.557Z</time></trkpt><trkpt lat="45.6626939" lon="11.6036027"><ele>67.0</ele><time>2026-05-02T16:30:20.558Z</time></trkpt><trkpt lat="45.6627121" lon="11.6035107"><ele>67.0</ele><time>2026-05-02T16:30:22.558Z</time></trkpt><trkpt lat="45.6627277" lon="11.6034193"><ele>67.0</ele><time>2026-05-02T16:30:24.558Z</time></trkpt><trkpt lat="45.6627539" lon="11.6032909"><ele>67.0</ele><time>2026-05-02T16:30:27.558Z</time></trkpt><trkpt lat="45.6627757" lon="11.6032053"><ele>67.0</ele><time>2026-05-02T16:30:29.558Z</time></trkpt><trkpt lat="45.6627915" lon="11.6031135"><ele>67.0</ele><time>2026-05-02T16:30:31.558Z</time></trkpt><trkpt lat="45.662811" lon="11.6030179"><ele>66.85714285714286</ele><time>2026-05-02T16:30:33.559Z</time></trkpt><trkpt lat="45.662822" lon="11.6029228"><ele>66.71428571428571</ele><time>2026-05-02T16:30:35.558Z</time></trkpt><trkpt lat="45.662828" lon="11.6028228"><ele>66.57142857142857</ele><time>2026-05-02T16:30:37.557Z</time></trkpt><trkpt lat="45.6628386" lon="11.6027308"><ele>66.42857142857143</ele><time>2026-05-02T16:30:39.558Z</time></trkpt><trkpt lat="45.6628558" lon="11.6026358"><ele>66.28571428571429</ele><time>2026-05-02T16:30:41.557Z</time></trkpt><trkpt lat="45.6628702" lon="11.6025342"><ele>66.14285714285714</ele><time>2026-05-02T16:30:43.558Z</time></trkpt><trkpt lat="45.6628761" lon="11.602426"><ele>66.0</ele><time>2026-05-02T16:30:45.557Z</time></trkpt><trkpt lat="45.6628926" lon="11.6023245"><ele>66.16666666666667</ele><time>2026-05-02T16:30:47.559Z</time></trkpt><trkpt lat="45.6629061" lon="11.6022106"><ele>66.33333333333333</ele><time>2026-05-02T16:30:49.558Z</time></trkpt><trkpt lat="45.6629208" lon="11.6021153"><ele>66.5</ele><time>2026-05-02T16:30:51.558Z</time></trkpt><trkpt lat="45.6629441" lon="11.6019953"><ele>66.66666666666666</ele><time>2026-05-02T16:30:54.559Z</time></trkpt><trkpt lat="45.6629541" lon="11.6018993"><ele>66.83333333333333</ele><time>2026-05-02T16:30:56.559Z</time></trkpt><trkpt lat="45.6629702" lon="11.6017935"><ele>67.0</ele><time>2026-05-02T16:30:58.559Z</time></trkpt><trkpt lat="45.6629821" lon="11.6016672"><ele>67.0</ele><time>2026-05-02T16:31:01.559Z</time></trkpt><trkpt lat="45.6630027" lon="11.6015778"><ele>67.0</ele><time>2026-05-02T16:31:03.559Z</time></trkpt><trkpt lat="45.6630262" lon="11.601459"><ele>67.0</ele><time>2026-05-02T16:31:05.559Z</time></trkpt><trkpt lat="45.6630358" lon="11.6013592"><ele>67.0</ele><time>2026-05-02T16:31:07.558Z</time></trkpt><trkpt lat="45.6630462" lon="11.6012525"><ele>67.0</ele><time>2026-05-02T16:31:10.559Z</time></trkpt><trkpt lat="45.6630647" lon="11.6011501"><ele>67.0</ele><time>2026-05-02T16:31:12.558Z</time></trkpt><trkpt lat="45.663088" lon="11.6010232"><ele>67.16666666666666</ele><time>2026-05-02T16:31:14.558Z</time></trkpt><trkpt lat="45.6630978" lon="11.6009291"><ele>67.33333333333333</ele><time>2026-05-02T16:31:16.559Z</time></trkpt><trkpt lat="45.6631126" lon="11.6008233"><ele>67.5</ele><time>2026-05-02T16:31:18.558Z</time></trkpt><trkpt lat="45.6631266" lon="11.6007037"><ele>67.66666666666667</ele><time>2026-05-02T16:31:20.559Z</time></trkpt><trkpt lat="45.6631402" lon="11.60061"><ele>67.83333333333334</ele><time>2026-05-02T16:31:22.558Z</time></trkpt><trkpt lat="45.6631579" lon="11.6004788"><ele>68.0</ele><time>2026-05-02T16:31:25.559Z</time></trkpt><trkpt lat="45.6631826" lon="11.6003514"><ele>68.16666666666667</ele><time>2026-05-02T16:31:27.559Z</time></trkpt><trkpt lat="45.6631992" lon="11.6002403"><ele>68.33333333333334</ele><time>2026-05-02T16:31:29.559Z</time></trkpt><trkpt lat="45.6632109" lon="11.6001405"><ele>68.5</ele><time>2026-05-02T16:31:31.559Z</time></trkpt><trkpt lat="45.6632317" lon="11.6000152"><ele>68.66666666666667</ele><time>2026-05-02T16:31:34.559Z</time></trkpt><trkpt lat="45.6632539" lon="11.5998823"><ele>68.83333333333333</ele><time>2026-05-02T16:31:37.558Z</time></trkpt><trkpt lat="45.6632731" lon="11.5997555"><ele>69.0</ele><time>2026-05-02T16:31:39.559Z</time></trkpt><trkpt lat="45.6632874" lon="11.5996543"><ele>69.0</ele><time>2026-05-02T16:31:41.559Z</time></trkpt><trkpt lat="45.6632968" lon="11.5995634"><ele>69.0</ele><time>2026-05-02T16:31:43.558Z</time></trkpt><trkpt lat="45.6633135" lon="11.5994351"><ele>69.0</ele><time>2026-05-02T16:31:46.558Z</time></trkpt><trkpt lat="45.663337" lon="11.599295"><ele>69.0</ele><time>2026-05-02T16:31:49.558Z</time></trkpt><trkpt lat="45.6633571" lon="11.5991871"><ele>69.0</ele><time>2026-05-02T16:31:51.56Z</time></trkpt><trkpt lat="45.6633749" lon="11.5990933"><ele>69.0</ele><time>2026-05-02T16:31:53.56Z</time></trkpt><trkpt lat="45.6633957" lon="11.598971"><ele>69.16666666666667</ele><time>2026-05-02T16:31:56.559Z</time></trkpt><trkpt lat="45.6634143" lon="11.598876"><ele>69.33333333333333</ele><time>2026-05-02T16:32:00.56Z</time></trkpt><trkpt lat="45.6633494" lon="11.5988034"><ele>69.5</ele><time>2026-05-02T16:32:05.56Z</time></trkpt><trkpt lat="45.6632585" lon="11.5987231"><ele>69.66666666666666</ele><time>2026-05-02T16:32:08.56Z</time></trkpt><trkpt lat="45.6632009" lon="11.5986806"><ele>69.83333333333333</ele><time>2026-05-02T16:32:09.56Z</time></trkpt><trkpt lat="45.6631277" lon="11.5986037"><ele>70.0</ele><time>2026-05-02T16:32:11.56Z</time></trkpt><trkpt lat="45.6630788" lon="11.5985437"><ele>70.16666666666666</ele><time>2026-05-02T16:32:13.56Z</time></trkpt><trkpt lat="45.6630304" lon="11.5984857"><ele>70.33333333333333</ele><time>2026-05-02T16:32:15.559Z</time></trkpt><trkpt lat="45.662966" lon="11.5984272"><ele>70.5</ele><time>2026-05-02T16:32:17.559Z</time></trkpt><trkpt lat="45.6628817" lon="11.5983436"><ele>70.66666666666667</ele><time>2026-05-02T16:32:20.56Z</time></trkpt><trkpt lat="45.6628058" lon="11.5982702"><ele>70.83333333333334</ele><time>2026-05-02T16:32:22.56Z</time></trkpt><trkpt lat="45.6627494" lon="11.5981988"><ele>71.0</ele><time>2026-05-02T16:32:24.56Z</time></trkpt><trkpt lat="45.6627012" lon="11.5981376"><ele>70.71428571428571</ele><time>2026-05-02T16:32:26.56Z</time></trkpt><trkpt lat="45.66265" lon="11.5980847"><ele>70.42857142857142</ele><time>2026-05-02T16:32:28.559Z</time></trkpt><trkpt lat="45.6625894" lon="11.5980117"><ele>70.14285714285714</ele><time>2026-05-02T16:32:30.56Z</time></trkpt><trkpt lat="45.6625244" lon="11.5979379"><ele>69.85714285714286</ele><time>2026-05-02T16:32:32.56Z</time></trkpt><trkpt lat="45.6624603" lon="11.5978686"><ele>69.57142857142858</ele><time>2026-05-02T16:32:34.56Z</time></trkpt><trkpt lat="45.6624031" lon="11.5978053"><ele>69.28571428571429</ele><time>2026-05-02T16:32:36.56Z</time></trkpt><trkpt lat="45.6623549" lon="11.5977385"><ele>69.0</ele><time>2026-05-02T16:32:38.56Z</time></trkpt><trkpt lat="45.6622837" lon="11.5976507"><ele>69.0</ele><time>2026-05-02T16:32:41.559Z</time></trkpt><trkpt lat="45.6622176" lon="11.5975823"><ele>69.0</ele><time>2026-05-02T16:32:43.561Z</time></trkpt><trkpt lat="45.6621529" lon="11.5975265"><ele>69.0</ele><time>2026-05-02T16:32:45.559Z</time></trkpt><trkpt lat="45.6621029" lon="11.5974577"><ele>69.0</ele><time>2026-05-02T16:32:47.561Z</time></trkpt><trkpt lat="45.6620591" lon="11.5973866"><ele>69.0</ele><time>2026-05-02T16:32:49.561Z</time></trkpt><trkpt lat="45.6619943" lon="11.5972919"><ele>69.0</ele><time>2026-05-02T16:32:52.561Z</time></trkpt><trkpt lat="45.6619462" lon="11.5972114"><ele>69.0</ele><time>2026-05-02T16:32:55.561Z</time></trkpt><trkpt lat="45.6618552" lon="11.5971851"><ele>69.0</ele><time>2026-05-02T16:32:58.56Z</time></trkpt><trkpt lat="45.6617978" lon="11.5971209"><ele>69.0</ele><time>2026-05-02T16:33:01.561Z</time></trkpt><trkpt lat="45.6618063" lon="11.5970213"><ele>69.0</ele><time>2026-05-02T16:33:04.561Z</time></trkpt><trkpt lat="45.6618027" lon="11.5969295"><ele>69.0</ele><time>2026-05-02T16:33:06.561Z</time></trkpt><trkpt lat="45.6617985" lon="11.5968139"><ele>69.0</ele><time>2026-05-02T16:33:08.56Z</time></trkpt><trkpt lat="45.6617995" lon="11.5967049"><ele>69.0</ele><time>2026-05-02T16:33:10.561Z</time></trkpt><trkpt lat="45.6617996" lon="11.5966047"><ele>69.0</ele><time>2026-05-02T16:33:12.561Z</time></trkpt><trkpt lat="45.6617855" lon="11.5964862"><ele>69.0</ele><time>2026-05-02T16:33:14.561Z</time></trkpt><trkpt lat="45.6617669" lon="11.5963826"><ele>69.0</ele><time>2026-05-02T16:33:16.56Z</time></trkpt><trkpt lat="45.6617579" lon="11.5962585"><ele>69.0</ele><time>2026-05-02T16:33:21.56Z</time></trkpt><trkpt lat="45.6617233" lon="11.5961724"><ele>69.0</ele><time>2026-05-02T16:33:23.561Z</time></trkpt><trkpt lat="45.6617486" lon="11.5960813"><ele>69.0</ele><time>2026-05-02T16:33:25.56Z</time></trkpt><trkpt lat="45.6617714" lon="11.5959652"><ele>69.0</ele><time>2026-05-02T16:33:28.561Z</time></trkpt><trkpt lat="45.6617793" lon="11.5958582"><ele>69.0</ele><time>2026-05-02T16:33:30.561Z</time></trkpt><trkpt lat="45.6617946" lon="11.595733"><ele>69.0</ele><time>2026-05-02T16:33:32.561Z</time></trkpt><trkpt lat="45.6618096" lon="11.5956344"><ele>69.0</ele><time>2026-05-02T16:33:34.561Z</time></trkpt><trkpt lat="45.6618236" lon="11.5955417"><ele>69.0</ele><time>2026-05-02T16:33:36.562Z</time></trkpt><trkpt lat="45.6618293" lon="11.5954501"><ele>69.0</ele><time>2026-05-02T16:33:38.561Z</time></trkpt><trkpt lat="45.6618579" lon="11.5953259"><ele>69.0</ele><time>2026-05-02T16:33:41.561Z</time></trkpt><trkpt lat="45.6618769" lon="11.595215"><ele>69.0</ele><time>2026-05-02T16:33:43.561Z</time></trkpt><trkpt lat="45.6618848" lon="11.595101"><ele>69.0</ele><time>2026-05-02T16:33:45.561Z</time></trkpt><trkpt lat="45.6618932" lon="11.5949976"><ele>69.0</ele><time>2026-05-02T16:33:47.561Z</time></trkpt><trkpt lat="45.6619078" lon="11.5949008"><ele>69.0</ele><time>2026-05-02T16:33:49.561Z</time></trkpt><trkpt lat="45.6619289" lon="11.5948123"><ele>69.0</ele><time>2026-05-02T16:33:51.562Z</time></trkpt><trkpt lat="45.6619534" lon="11.5946911"><ele>68.83333333333333</ele><time>2026-05-02T16:33:54.562Z</time></trkpt><trkpt lat="45.6619669" lon="11.5945547"><ele>68.66666666666667</ele><time>2026-05-02T16:33:57.562Z</time></trkpt><trkpt lat="45.661959" lon="11.594447"><ele>68.5</ele><time>2026-05-02T16:33:59.562Z</time></trkpt><trkpt lat="45.6619134" lon="11.5943472"><ele>68.33333333333334</ele><time>2026-05-02T16:34:02.562Z</time></trkpt><trkpt lat="45.6618603" lon="11.5942885"><ele>68.16666666666667</ele><time>2026-05-02T16:34:04.561Z</time></trkpt><trkpt lat="45.6617928" lon="11.5942664"><ele>68.0</ele><time>2026-05-02T16:34:06.561Z</time></trkpt><trkpt lat="45.6617075" lon="11.5942719"><ele>67.99999999999999</ele><time>2026-05-02T16:34:09.561Z</time></trkpt><trkpt lat="45.661634" lon="11.5943004"><ele>68.0</ele><time>2026-05-02T16:34:11.562Z</time></trkpt><trkpt lat="45.6615581" lon="11.5943561"><ele>68.0</ele><time>2026-05-02T16:34:13.562Z</time></trkpt><trkpt lat="45.6614878" lon="11.5943705"><ele>68.0</ele><time>2026-05-02T16:34:15.562Z</time></trkpt><trkpt lat="45.6614131" lon="11.5943277"><ele>68.0</ele><time>2026-05-02T16:34:18.562Z</time></trkpt><trkpt lat="45.6613513" lon="11.594303"><ele>67.99999999999999</ele><time>2026-05-02T16:34:21.562Z</time></trkpt><trkpt lat="45.6612834" lon="11.5942748"><ele>68.0</ele><time>2026-05-02T16:34:24.561Z</time></trkpt><trkpt lat="45.6612193" lon="11.5942658"><ele>68.0</ele><time>2026-05-02T16:34:26.562Z</time></trkpt><trkpt lat="45.661186" lon="11.5941483"><ele>68.0</ele><time>2026-05-02T16:34:29.562Z</time></trkpt><trkpt lat="45.6612288" lon="11.5940449"><ele>68.0</ele><time>2026-05-02T16:34:31.561Z</time></trkpt><trkpt lat="45.6612536" lon="11.5939493"><ele>68.0</ele><time>2026-05-02T16:34:33.562Z</time></trkpt><trkpt lat="45.6612848" lon="11.5938269"><ele>68.0</ele><time>2026-05-02T16:34:36.561Z</time></trkpt><trkpt lat="45.661294" lon="11.5937086"><ele>68.0</ele><time>2026-05-02T16:34:39.562Z</time></trkpt><trkpt lat="45.6613626" lon="11.5936857"><ele>68.0</ele><time>2026-05-02T16:34:42.562Z</time></trkpt><trkpt lat="45.6614199" lon="11.593728"><ele>68.0</ele><time>2026-05-02T16:34:59.561Z</time></trkpt><trkpt lat="45.6613887" lon="11.5936438"><ele>68.0</ele><time>2026-05-02T16:36:20.103Z</time></trkpt><trkpt lat="45.6612693" lon="11.5937322"><ele>68.0</ele><time>2026-05-02T16:36:44.23Z</time></trkpt><trkpt lat="45.6615059" lon="11.5937635"><ele>68.0</ele><time>2026-05-02T16:37:29.882Z</time></trkpt><trkpt lat="45.6615088" lon="11.5936254"><ele>68.0</ele><time>2026-05-02T16:38:29.689Z</time></trkpt><trkpt lat="45.6616254" lon="11.5932881"><ele>68.0</ele><time>2026-05-02T16:39:22.567Z</time></trkpt><trkpt lat="45.661599" lon="11.5936819"><ele>68.0</ele><time>2026-05-02T16:39:55.567Z</time></trkpt><trkpt lat="45.6615825" lon="11.5937779"><ele>68.0</ele><time>2026-05-02T16:40:05.696Z</time></trkpt><trkpt lat="45.6616061" lon="11.5938715"><ele>68.0</ele><time>2026-05-02T16:40:10.73Z</time></trkpt><trkpt lat="45.6616244" lon="11.5941858"><ele>68.0</ele><time>2026-05-02T16:40:17.001Z</time></trkpt><trkpt lat="45.6616686" lon="11.5940021"><ele>68.0</ele><time>2026-05-02T16:40:24.568Z</time></trkpt><trkpt lat="45.6616923" lon="11.5938967"><ele>68.0</ele><time>2026-05-02T16:40:26.636Z</time></trkpt><trkpt lat="45.661814" lon="11.59384"><ele>68.0</ele><time>2026-05-02T16:40:31.669Z</time></trkpt><trkpt lat="45.6618871" lon="11.5937824"><ele>68.0</ele><time>2026-05-02T16:40:34.69Z</time></trkpt><trkpt lat="45.661682" lon="11.5937473"><ele>68.0</ele><time>2026-05-02T16:40:58.75Z</time></trkpt><trkpt lat="45.6616176" lon="11.5937131"><ele>68.0</ele><time>2026-05-02T16:41:13.65Z</time></trkpt><trkpt lat="45.6615588" lon="11.5936661"><ele>68.0</ele><time>2026-05-02T16:41:35.696Z</time></trkpt><trkpt lat="45.6615426" lon="11.5937601"><ele>68.0</ele><time>2026-05-02T16:41:38.717Z</time></trkpt><trkpt lat="45.6616266" lon="11.5937804"><ele>68.0</ele><time>2026-05-02T16:42:55.731Z</time></trkpt><trkpt lat="45.661505" lon="11.5936073"><ele>66.0</ele><time>2026-05-02T16:48:37.343Z</time></trkpt><trkpt lat="45.6614964" lon="11.5937161"><ele>68.0</ele><time>2026-05-02T16:55:57.719Z</time></trkpt></trkseg></trk></gpx>